<?xml version="1.0" encoding="UTF-8" standalone="no" ?>
<gpx xmlns="http://www.topografix.com/GPX/1/1" xmlns:xsi="http://www.w3.org/2001/XMLSchema-instance" xsi:schemaLocation="http://www.topografix.com/GPX/1/1 http://www.topografix.com/GPX/1/1/gpx.xsd" version="1.1" creator="VisuGPX - https://www.visugpx.com">
  <metadata>
    <name>Castres VTT</name>
  </metadata>
  <trk>
    <name><![CDATA[Castres VTT_1]]></name>
    <trkseg>
      <trkpt lat="43.61327" lon="2.24404">
        <ele>182.2</ele>
        <time>2025-09-16T12:28:40Z</time>
      </trkpt>
      <trkpt lat="43.61327" lon="2.24403">
        <ele>182.2</ele>
        <time>2025-09-16T12:28:41Z</time>
      </trkpt>
      <trkpt lat="43.6134" lon="2.24389">
        <ele>182.4</ele>
        <time>2025-09-16T12:29:00Z</time>
      </trkpt>
      <trkpt lat="43.6134" lon="2.24391">
        <ele>182.2</ele>
        <time>2025-09-16T12:29:01Z</time>
      </trkpt>
      <trkpt lat="43.61341" lon="2.24394">
        <ele>181.8</ele>
        <time>2025-09-16T12:29:02Z</time>
      </trkpt>
      <trkpt lat="43.61341" lon="2.24396">
        <ele>181.6</ele>
        <time>2025-09-16T12:29:03Z</time>
      </trkpt>
      <trkpt lat="43.61342" lon="2.24398">
        <ele>181.2</ele>
        <time>2025-09-16T12:29:04Z</time>
      </trkpt>
      <trkpt lat="43.61343" lon="2.24401">
        <ele>181</ele>
        <time>2025-09-16T12:29:05Z</time>
      </trkpt>
      <trkpt lat="43.61342" lon="2.24405">
        <ele>180.6</ele>
        <time>2025-09-16T12:29:06Z</time>
      </trkpt>
      <trkpt lat="43.61343" lon="2.24409">
        <ele>180.2</ele>
        <time>2025-09-16T12:29:07Z</time>
      </trkpt>
      <trkpt lat="43.61344" lon="2.24411">
        <ele>179.8</ele>
        <time>2025-09-16T12:29:08Z</time>
      </trkpt>
      <trkpt lat="43.61345" lon="2.24414">
        <ele>179.4</ele>
        <time>2025-09-16T12:29:09Z</time>
      </trkpt>
      <trkpt lat="43.61346" lon="2.24418">
        <ele>179</ele>
        <time>2025-09-16T12:29:10Z</time>
      </trkpt>
      <trkpt lat="43.61347" lon="2.24421">
        <ele>178.6</ele>
        <time>2025-09-16T12:29:11Z</time>
      </trkpt>
      <trkpt lat="43.61347" lon="2.24422">
        <ele>178.2</ele>
        <time>2025-09-16T12:29:12Z</time>
      </trkpt>
      <trkpt lat="43.61348" lon="2.24423">
        <ele>178</ele>
        <time>2025-09-16T12:29:13Z</time>
      </trkpt>
      <trkpt lat="43.61348" lon="2.24423">
        <ele>177.8</ele>
        <time>2025-09-16T12:29:14Z</time>
      </trkpt>
      <trkpt lat="43.61348" lon="2.24423">
        <ele>177.8</ele>
        <time>2025-09-16T12:29:15Z</time>
      </trkpt>
      <trkpt lat="43.61347" lon="2.24431">
        <ele>176.8</ele>
        <time>2025-09-16T12:30:08Z</time>
      </trkpt>
      <trkpt lat="43.61349" lon="2.24433">
        <ele>176.8</ele>
        <time>2025-09-16T12:30:09Z</time>
      </trkpt>
      <trkpt lat="43.61351" lon="2.24434">
        <ele>176.6</ele>
        <time>2025-09-16T12:30:10Z</time>
      </trkpt>
      <trkpt lat="43.61352" lon="2.24435">
        <ele>176.6</ele>
        <time>2025-09-16T12:30:11Z</time>
      </trkpt>
      <trkpt lat="43.61355" lon="2.24435">
        <ele>176.4</ele>
        <time>2025-09-16T12:30:12Z</time>
      </trkpt>
      <trkpt lat="43.61358" lon="2.24434">
        <ele>176.2</ele>
        <time>2025-09-16T12:30:13Z</time>
      </trkpt>
      <trkpt lat="43.61361" lon="2.24433">
        <ele>176.2</ele>
        <time>2025-09-16T12:30:14Z</time>
      </trkpt>
      <trkpt lat="43.61365" lon="2.24431">
        <ele>176</ele>
        <time>2025-09-16T12:30:15Z</time>
      </trkpt>
      <trkpt lat="43.61368" lon="2.2443">
        <ele>176</ele>
        <time>2025-09-16T12:30:16Z</time>
      </trkpt>
      <trkpt lat="43.61372" lon="2.24428">
        <ele>176</ele>
        <time>2025-09-16T12:30:17Z</time>
      </trkpt>
      <trkpt lat="43.61376" lon="2.24427">
        <ele>176</ele>
        <time>2025-09-16T12:30:18Z</time>
      </trkpt>
      <trkpt lat="43.61379" lon="2.24426">
        <ele>176.2</ele>
        <time>2025-09-16T12:30:19Z</time>
      </trkpt>
      <trkpt lat="43.61384" lon="2.24424">
        <ele>176.4</ele>
        <time>2025-09-16T12:30:20Z</time>
      </trkpt>
      <trkpt lat="43.61387" lon="2.24422">
        <ele>176.4</ele>
        <time>2025-09-16T12:30:21Z</time>
      </trkpt>
      <trkpt lat="43.61391" lon="2.24421">
        <ele>176.4</ele>
        <time>2025-09-16T12:30:22Z</time>
      </trkpt>
      <trkpt lat="43.61394" lon="2.2442">
        <ele>176.4</ele>
        <time>2025-09-16T12:30:23Z</time>
      </trkpt>
      <trkpt lat="43.61395" lon="2.2442">
        <ele>176.6</ele>
        <time>2025-09-16T12:30:24Z</time>
      </trkpt>
      <trkpt lat="43.61394" lon="2.2442">
        <ele>176.8</ele>
        <time>2025-09-16T12:30:25Z</time>
      </trkpt>
      <trkpt lat="43.61394" lon="2.24419">
        <ele>177</ele>
        <time>2025-09-16T12:30:26Z</time>
      </trkpt>
      <trkpt lat="43.61397" lon="2.24418">
        <ele>177.2</ele>
        <time>2025-09-16T12:30:46Z</time>
      </trkpt>
      <trkpt lat="43.61399" lon="2.24417">
        <ele>177</ele>
        <time>2025-09-16T12:30:47Z</time>
      </trkpt>
      <trkpt lat="43.61402" lon="2.24416">
        <ele>177</ele>
        <time>2025-09-16T12:30:48Z</time>
      </trkpt>
      <trkpt lat="43.61405" lon="2.24414">
        <ele>177</ele>
        <time>2025-09-16T12:30:49Z</time>
      </trkpt>
      <trkpt lat="43.61408" lon="2.24412">
        <ele>176.8</ele>
        <time>2025-09-16T12:30:50Z</time>
      </trkpt>
      <trkpt lat="43.61412" lon="2.24411">
        <ele>176.8</ele>
        <time>2025-09-16T12:30:51Z</time>
      </trkpt>
      <trkpt lat="43.61416" lon="2.24409">
        <ele>177</ele>
        <time>2025-09-16T12:30:52Z</time>
      </trkpt>
      <trkpt lat="43.6142" lon="2.24408">
        <ele>177</ele>
        <time>2025-09-16T12:30:53Z</time>
      </trkpt>
      <trkpt lat="43.61424" lon="2.24407">
        <ele>177</ele>
        <time>2025-09-16T12:30:54Z</time>
      </trkpt>
      <trkpt lat="43.61428" lon="2.24405">
        <ele>177.2</ele>
        <time>2025-09-16T12:30:55Z</time>
      </trkpt>
      <trkpt lat="43.61432" lon="2.24404">
        <ele>177.2</ele>
        <time>2025-09-16T12:30:56Z</time>
      </trkpt>
      <trkpt lat="43.61436" lon="2.24402">
        <ele>177.4</ele>
        <time>2025-09-16T12:30:57Z</time>
      </trkpt>
      <trkpt lat="43.6144" lon="2.244">
        <ele>177.4</ele>
        <time>2025-09-16T12:30:58Z</time>
      </trkpt>
      <trkpt lat="43.61444" lon="2.24399">
        <ele>177.4</ele>
        <time>2025-09-16T12:30:59Z</time>
      </trkpt>
      <trkpt lat="43.61448" lon="2.24398">
        <ele>177.4</ele>
        <time>2025-09-16T12:31:00Z</time>
      </trkpt>
      <trkpt lat="43.61452" lon="2.24396">
        <ele>177.6</ele>
        <time>2025-09-16T12:31:01Z</time>
      </trkpt>
      <trkpt lat="43.61457" lon="2.24395">
        <ele>177.6</ele>
        <time>2025-09-16T12:31:02Z</time>
      </trkpt>
      <trkpt lat="43.61461" lon="2.24394">
        <ele>177.6</ele>
        <time>2025-09-16T12:31:03Z</time>
      </trkpt>
      <trkpt lat="43.61465" lon="2.24392">
        <ele>177.6</ele>
        <time>2025-09-16T12:31:04Z</time>
      </trkpt>
      <trkpt lat="43.61469" lon="2.24391">
        <ele>177.8</ele>
        <time>2025-09-16T12:31:05Z</time>
      </trkpt>
      <trkpt lat="43.61474" lon="2.2439">
        <ele>177.8</ele>
        <time>2025-09-16T12:31:06Z</time>
      </trkpt>
      <trkpt lat="43.61478" lon="2.2439">
        <ele>177.8</ele>
        <time>2025-09-16T12:31:07Z</time>
      </trkpt>
      <trkpt lat="43.61483" lon="2.2439">
        <ele>178</ele>
        <time>2025-09-16T12:31:08Z</time>
      </trkpt>
      <trkpt lat="43.61487" lon="2.24391">
        <ele>178</ele>
        <time>2025-09-16T12:31:09Z</time>
      </trkpt>
      <trkpt lat="43.61492" lon="2.24393">
        <ele>178.2</ele>
        <time>2025-09-16T12:31:10Z</time>
      </trkpt>
      <trkpt lat="43.61497" lon="2.24394">
        <ele>178</ele>
        <time>2025-09-16T12:31:11Z</time>
      </trkpt>
      <trkpt lat="43.61502" lon="2.24395">
        <ele>178</ele>
        <time>2025-09-16T12:31:12Z</time>
      </trkpt>
      <trkpt lat="43.61507" lon="2.24395">
        <ele>178</ele>
        <time>2025-09-16T12:31:13Z</time>
      </trkpt>
      <trkpt lat="43.61512" lon="2.24396">
        <ele>178</ele>
        <time>2025-09-16T12:31:14Z</time>
      </trkpt>
      <trkpt lat="43.61517" lon="2.24396">
        <ele>178</ele>
        <time>2025-09-16T12:31:15Z</time>
      </trkpt>
      <trkpt lat="43.61523" lon="2.24397">
        <ele>178</ele>
        <time>2025-09-16T12:31:16Z</time>
      </trkpt>
      <trkpt lat="43.61527" lon="2.24398">
        <ele>178</ele>
        <time>2025-09-16T12:31:17Z</time>
      </trkpt>
      <trkpt lat="43.61532" lon="2.244">
        <ele>178</ele>
        <time>2025-09-16T12:31:18Z</time>
      </trkpt>
      <trkpt lat="43.61537" lon="2.24401">
        <ele>178.2</ele>
        <time>2025-09-16T12:31:19Z</time>
      </trkpt>
      <trkpt lat="43.61543" lon="2.24403">
        <ele>178.2</ele>
        <time>2025-09-16T12:31:20Z</time>
      </trkpt>
      <trkpt lat="43.61548" lon="2.24404">
        <ele>178</ele>
        <time>2025-09-16T12:31:21Z</time>
      </trkpt>
      <trkpt lat="43.61553" lon="2.24405">
        <ele>178</ele>
        <time>2025-09-16T12:31:22Z</time>
      </trkpt>
      <trkpt lat="43.61558" lon="2.24407">
        <ele>178</ele>
        <time>2025-09-16T12:31:23Z</time>
      </trkpt>
      <trkpt lat="43.61563" lon="2.24408">
        <ele>177.8</ele>
        <time>2025-09-16T12:31:24Z</time>
      </trkpt>
      <trkpt lat="43.61568" lon="2.24409">
        <ele>177.6</ele>
        <time>2025-09-16T12:31:25Z</time>
      </trkpt>
      <trkpt lat="43.61573" lon="2.2441">
        <ele>177.6</ele>
        <time>2025-09-16T12:31:26Z</time>
      </trkpt>
      <trkpt lat="43.61578" lon="2.24412">
        <ele>177.6</ele>
        <time>2025-09-16T12:31:27Z</time>
      </trkpt>
      <trkpt lat="43.61583" lon="2.24413">
        <ele>177.6</ele>
        <time>2025-09-16T12:31:28Z</time>
      </trkpt>
      <trkpt lat="43.61589" lon="2.24414">
        <ele>177.6</ele>
        <time>2025-09-16T12:31:29Z</time>
      </trkpt>
      <trkpt lat="43.61594" lon="2.24416">
        <ele>177.6</ele>
        <time>2025-09-16T12:31:30Z</time>
      </trkpt>
      <trkpt lat="43.616" lon="2.24417">
        <ele>177.4</ele>
        <time>2025-09-16T12:31:31Z</time>
      </trkpt>
      <trkpt lat="43.61605" lon="2.24418">
        <ele>177.4</ele>
        <time>2025-09-16T12:31:32Z</time>
      </trkpt>
      <trkpt lat="43.6161" lon="2.2442">
        <ele>177.4</ele>
        <time>2025-09-16T12:31:33Z</time>
      </trkpt>
      <trkpt lat="43.61616" lon="2.24422">
        <ele>177.2</ele>
        <time>2025-09-16T12:31:34Z</time>
      </trkpt>
      <trkpt lat="43.61621" lon="2.24424">
        <ele>177.2</ele>
        <time>2025-09-16T12:31:35Z</time>
      </trkpt>
      <trkpt lat="43.61627" lon="2.24425">
        <ele>177</ele>
        <time>2025-09-16T12:31:36Z</time>
      </trkpt>
      <trkpt lat="43.61632" lon="2.24427">
        <ele>176.8</ele>
        <time>2025-09-16T12:31:37Z</time>
      </trkpt>
      <trkpt lat="43.61638" lon="2.24428">
        <ele>176.6</ele>
        <time>2025-09-16T12:31:38Z</time>
      </trkpt>
      <trkpt lat="43.61644" lon="2.24429">
        <ele>176.4</ele>
        <time>2025-09-16T12:31:39Z</time>
      </trkpt>
      <trkpt lat="43.61649" lon="2.2443">
        <ele>176.2</ele>
        <time>2025-09-16T12:31:40Z</time>
      </trkpt>
      <trkpt lat="43.61655" lon="2.24431">
        <ele>176.2</ele>
        <time>2025-09-16T12:31:41Z</time>
      </trkpt>
      <trkpt lat="43.6166" lon="2.24431">
        <ele>176</ele>
        <time>2025-09-16T12:31:42Z</time>
      </trkpt>
      <trkpt lat="43.61666" lon="2.24432">
        <ele>175.8</ele>
        <time>2025-09-16T12:31:43Z</time>
      </trkpt>
      <trkpt lat="43.61672" lon="2.24432">
        <ele>175.6</ele>
        <time>2025-09-16T12:31:44Z</time>
      </trkpt>
      <trkpt lat="43.61678" lon="2.24432">
        <ele>175.4</ele>
        <time>2025-09-16T12:31:45Z</time>
      </trkpt>
      <trkpt lat="43.61683" lon="2.24431">
        <ele>175.4</ele>
        <time>2025-09-16T12:31:46Z</time>
      </trkpt>
      <trkpt lat="43.61689" lon="2.24431">
        <ele>175.2</ele>
        <time>2025-09-16T12:31:47Z</time>
      </trkpt>
      <trkpt lat="43.61694" lon="2.2443">
        <ele>175.4</ele>
        <time>2025-09-16T12:31:48Z</time>
      </trkpt>
      <trkpt lat="43.617" lon="2.24429">
        <ele>175.4</ele>
        <time>2025-09-16T12:31:49Z</time>
      </trkpt>
      <trkpt lat="43.61706" lon="2.24429">
        <ele>175.4</ele>
        <time>2025-09-16T12:31:50Z</time>
      </trkpt>
      <trkpt lat="43.61712" lon="2.24428">
        <ele>175.4</ele>
        <time>2025-09-16T12:31:51Z</time>
      </trkpt>
      <trkpt lat="43.61718" lon="2.24426">
        <ele>175.4</ele>
        <time>2025-09-16T12:31:52Z</time>
      </trkpt>
      <trkpt lat="43.61723" lon="2.24426">
        <ele>175.4</ele>
        <time>2025-09-16T12:31:53Z</time>
      </trkpt>
      <trkpt lat="43.61729" lon="2.24426">
        <ele>175.4</ele>
        <time>2025-09-16T12:31:54Z</time>
      </trkpt>
      <trkpt lat="43.61735" lon="2.24426">
        <ele>175.4</ele>
        <time>2025-09-16T12:31:55Z</time>
      </trkpt>
      <trkpt lat="43.6174" lon="2.24427">
        <ele>175.2</ele>
        <time>2025-09-16T12:31:56Z</time>
      </trkpt>
      <trkpt lat="43.61746" lon="2.24429">
        <ele>175.4</ele>
        <time>2025-09-16T12:31:57Z</time>
      </trkpt>
      <trkpt lat="43.61752" lon="2.24431">
        <ele>175.4</ele>
        <time>2025-09-16T12:31:58Z</time>
      </trkpt>
      <trkpt lat="43.61758" lon="2.24434">
        <ele>175.8</ele>
        <time>2025-09-16T12:31:59Z</time>
      </trkpt>
      <trkpt lat="43.61763" lon="2.24437">
        <ele>176</ele>
        <time>2025-09-16T12:32:00Z</time>
      </trkpt>
      <trkpt lat="43.61768" lon="2.2444">
        <ele>176.2</ele>
        <time>2025-09-16T12:32:01Z</time>
      </trkpt>
      <trkpt lat="43.61773" lon="2.24444">
        <ele>176.4</ele>
        <time>2025-09-16T12:32:02Z</time>
      </trkpt>
      <trkpt lat="43.61778" lon="2.24447">
        <ele>176.6</ele>
        <time>2025-09-16T12:32:03Z</time>
      </trkpt>
      <trkpt lat="43.61782" lon="2.24451">
        <ele>176.8</ele>
        <time>2025-09-16T12:32:04Z</time>
      </trkpt>
      <trkpt lat="43.61787" lon="2.24454">
        <ele>176.8</ele>
        <time>2025-09-16T12:32:05Z</time>
      </trkpt>
      <trkpt lat="43.61792" lon="2.24458">
        <ele>177</ele>
        <time>2025-09-16T12:32:06Z</time>
      </trkpt>
      <trkpt lat="43.61796" lon="2.24461">
        <ele>177</ele>
        <time>2025-09-16T12:32:07Z</time>
      </trkpt>
      <trkpt lat="43.61801" lon="2.24465">
        <ele>176.8</ele>
        <time>2025-09-16T12:32:08Z</time>
      </trkpt>
      <trkpt lat="43.61806" lon="2.24468">
        <ele>176.8</ele>
        <time>2025-09-16T12:32:09Z</time>
      </trkpt>
      <trkpt lat="43.6181" lon="2.24471">
        <ele>176.8</ele>
        <time>2025-09-16T12:32:10Z</time>
      </trkpt>
      <trkpt lat="43.61815" lon="2.24474">
        <ele>176.8</ele>
        <time>2025-09-16T12:32:11Z</time>
      </trkpt>
      <trkpt lat="43.61819" lon="2.24478">
        <ele>176.8</ele>
        <time>2025-09-16T12:32:12Z</time>
      </trkpt>
      <trkpt lat="43.61824" lon="2.24481">
        <ele>177</ele>
        <time>2025-09-16T12:32:13Z</time>
      </trkpt>
      <trkpt lat="43.61829" lon="2.24484">
        <ele>177</ele>
        <time>2025-09-16T12:32:14Z</time>
      </trkpt>
      <trkpt lat="43.61833" lon="2.24488">
        <ele>177</ele>
        <time>2025-09-16T12:32:15Z</time>
      </trkpt>
      <trkpt lat="43.61836" lon="2.24493">
        <ele>177.2</ele>
        <time>2025-09-16T12:32:16Z</time>
      </trkpt>
      <trkpt lat="43.6184" lon="2.24498">
        <ele>177.2</ele>
        <time>2025-09-16T12:32:17Z</time>
      </trkpt>
      <trkpt lat="43.61844" lon="2.24502">
        <ele>177.2</ele>
        <time>2025-09-16T12:32:18Z</time>
      </trkpt>
      <trkpt lat="43.61848" lon="2.24508">
        <ele>177.2</ele>
        <time>2025-09-16T12:32:19Z</time>
      </trkpt>
      <trkpt lat="43.61851" lon="2.24514">
        <ele>177.2</ele>
        <time>2025-09-16T12:32:20Z</time>
      </trkpt>
      <trkpt lat="43.61854" lon="2.2452">
        <ele>177.4</ele>
        <time>2025-09-16T12:32:21Z</time>
      </trkpt>
      <trkpt lat="43.61857" lon="2.24526">
        <ele>177.2</ele>
        <time>2025-09-16T12:32:22Z</time>
      </trkpt>
      <trkpt lat="43.61859" lon="2.24532">
        <ele>177.2</ele>
        <time>2025-09-16T12:32:23Z</time>
      </trkpt>
      <trkpt lat="43.61861" lon="2.24539">
        <ele>177.4</ele>
        <time>2025-09-16T12:32:24Z</time>
      </trkpt>
      <trkpt lat="43.61863" lon="2.24546">
        <ele>177.6</ele>
        <time>2025-09-16T12:32:25Z</time>
      </trkpt>
      <trkpt lat="43.61865" lon="2.24553">
        <ele>177.8</ele>
        <time>2025-09-16T12:32:26Z</time>
      </trkpt>
      <trkpt lat="43.61867" lon="2.2456">
        <ele>178</ele>
        <time>2025-09-16T12:32:27Z</time>
      </trkpt>
      <trkpt lat="43.61868" lon="2.24566">
        <ele>178.4</ele>
        <time>2025-09-16T12:32:28Z</time>
      </trkpt>
      <trkpt lat="43.6187" lon="2.24573">
        <ele>178.6</ele>
        <time>2025-09-16T12:32:29Z</time>
      </trkpt>
      <trkpt lat="43.61872" lon="2.2458">
        <ele>178.6</ele>
        <time>2025-09-16T12:32:30Z</time>
      </trkpt>
      <trkpt lat="43.61873" lon="2.24586">
        <ele>178.8</ele>
        <time>2025-09-16T12:32:31Z</time>
      </trkpt>
      <trkpt lat="43.61875" lon="2.24592">
        <ele>179</ele>
        <time>2025-09-16T12:32:32Z</time>
      </trkpt>
      <trkpt lat="43.61876" lon="2.24599">
        <ele>179</ele>
        <time>2025-09-16T12:32:33Z</time>
      </trkpt>
      <trkpt lat="43.61878" lon="2.24605">
        <ele>179.2</ele>
        <time>2025-09-16T12:32:34Z</time>
      </trkpt>
      <trkpt lat="43.61879" lon="2.24611">
        <ele>179.4</ele>
        <time>2025-09-16T12:32:35Z</time>
      </trkpt>
      <trkpt lat="43.61881" lon="2.24616">
        <ele>179.4</ele>
        <time>2025-09-16T12:32:36Z</time>
      </trkpt>
      <trkpt lat="43.61884" lon="2.24621">
        <ele>179.6</ele>
        <time>2025-09-16T12:32:37Z</time>
      </trkpt>
      <trkpt lat="43.61887" lon="2.24626">
        <ele>179.6</ele>
        <time>2025-09-16T12:32:38Z</time>
      </trkpt>
      <trkpt lat="43.6189" lon="2.2463">
        <ele>179.8</ele>
        <time>2025-09-16T12:32:39Z</time>
      </trkpt>
      <trkpt lat="43.61894" lon="2.24634">
        <ele>179.8</ele>
        <time>2025-09-16T12:32:40Z</time>
      </trkpt>
      <trkpt lat="43.61897" lon="2.24639">
        <ele>180</ele>
        <time>2025-09-16T12:32:41Z</time>
      </trkpt>
      <trkpt lat="43.619" lon="2.24643">
        <ele>180.2</ele>
        <time>2025-09-16T12:32:42Z</time>
      </trkpt>
      <trkpt lat="43.61904" lon="2.24648">
        <ele>180.2</ele>
        <time>2025-09-16T12:32:43Z</time>
      </trkpt>
      <trkpt lat="43.61907" lon="2.24652">
        <ele>180.4</ele>
        <time>2025-09-16T12:32:44Z</time>
      </trkpt>
      <trkpt lat="43.6191" lon="2.24657">
        <ele>180.4</ele>
        <time>2025-09-16T12:32:45Z</time>
      </trkpt>
      <trkpt lat="43.61914" lon="2.24661">
        <ele>180.2</ele>
        <time>2025-09-16T12:32:46Z</time>
      </trkpt>
      <trkpt lat="43.61917" lon="2.24665">
        <ele>180.2</ele>
        <time>2025-09-16T12:32:47Z</time>
      </trkpt>
      <trkpt lat="43.61921" lon="2.24669">
        <ele>180</ele>
        <time>2025-09-16T12:32:48Z</time>
      </trkpt>
      <trkpt lat="43.61924" lon="2.24673">
        <ele>180</ele>
        <time>2025-09-16T12:32:49Z</time>
      </trkpt>
      <trkpt lat="43.61928" lon="2.24677">
        <ele>180.4</ele>
        <time>2025-09-16T12:32:50Z</time>
      </trkpt>
      <trkpt lat="43.61931" lon="2.24681">
        <ele>180.6</ele>
        <time>2025-09-16T12:32:51Z</time>
      </trkpt>
      <trkpt lat="43.61934" lon="2.24686">
        <ele>181</ele>
        <time>2025-09-16T12:32:52Z</time>
      </trkpt>
      <trkpt lat="43.61938" lon="2.2469">
        <ele>181.2</ele>
        <time>2025-09-16T12:32:53Z</time>
      </trkpt>
      <trkpt lat="43.61941" lon="2.24695">
        <ele>181.4</ele>
        <time>2025-09-16T12:32:54Z</time>
      </trkpt>
      <trkpt lat="43.61944" lon="2.24699">
        <ele>181.2</ele>
        <time>2025-09-16T12:32:55Z</time>
      </trkpt>
      <trkpt lat="43.61948" lon="2.24703">
        <ele>181</ele>
        <time>2025-09-16T12:32:56Z</time>
      </trkpt>
      <trkpt lat="43.61951" lon="2.24708">
        <ele>181</ele>
        <time>2025-09-16T12:32:57Z</time>
      </trkpt>
      <trkpt lat="43.61955" lon="2.24712">
        <ele>180.8</ele>
        <time>2025-09-16T12:32:58Z</time>
      </trkpt>
      <trkpt lat="43.61958" lon="2.24717">
        <ele>180.6</ele>
        <time>2025-09-16T12:32:59Z</time>
      </trkpt>
      <trkpt lat="43.61962" lon="2.24721">
        <ele>180.8</ele>
        <time>2025-09-16T12:33:00Z</time>
      </trkpt>
      <trkpt lat="43.61965" lon="2.24726">
        <ele>180.8</ele>
        <time>2025-09-16T12:33:01Z</time>
      </trkpt>
      <trkpt lat="43.61968" lon="2.24731">
        <ele>181</ele>
        <time>2025-09-16T12:33:02Z</time>
      </trkpt>
      <trkpt lat="43.6197" lon="2.24736">
        <ele>181</ele>
        <time>2025-09-16T12:33:03Z</time>
      </trkpt>
      <trkpt lat="43.6197" lon="2.24742">
        <ele>181.4</ele>
        <time>2025-09-16T12:33:04Z</time>
      </trkpt>
      <trkpt lat="43.6197" lon="2.24749">
        <ele>181.6</ele>
        <time>2025-09-16T12:33:05Z</time>
      </trkpt>
      <trkpt lat="43.6197" lon="2.24754">
        <ele>181.8</ele>
        <time>2025-09-16T12:33:06Z</time>
      </trkpt>
      <trkpt lat="43.61969" lon="2.2476">
        <ele>182</ele>
        <time>2025-09-16T12:33:07Z</time>
      </trkpt>
      <trkpt lat="43.61967" lon="2.24766">
        <ele>182</ele>
        <time>2025-09-16T12:33:08Z</time>
      </trkpt>
      <trkpt lat="43.61966" lon="2.24772">
        <ele>182.2</ele>
        <time>2025-09-16T12:33:09Z</time>
      </trkpt>
      <trkpt lat="43.61964" lon="2.24778">
        <ele>182.2</ele>
        <time>2025-09-16T12:33:10Z</time>
      </trkpt>
      <trkpt lat="43.61963" lon="2.24783">
        <ele>182.2</ele>
        <time>2025-09-16T12:33:11Z</time>
      </trkpt>
      <trkpt lat="43.61962" lon="2.2479">
        <ele>182</ele>
        <time>2025-09-16T12:33:12Z</time>
      </trkpt>
      <trkpt lat="43.61963" lon="2.24796">
        <ele>181.8</ele>
        <time>2025-09-16T12:33:13Z</time>
      </trkpt>
      <trkpt lat="43.61963" lon="2.24803">
        <ele>181.8</ele>
        <time>2025-09-16T12:33:14Z</time>
      </trkpt>
      <trkpt lat="43.61963" lon="2.2481">
        <ele>181.6</ele>
        <time>2025-09-16T12:33:15Z</time>
      </trkpt>
      <trkpt lat="43.61962" lon="2.24817">
        <ele>181.4</ele>
        <time>2025-09-16T12:33:16Z</time>
      </trkpt>
      <trkpt lat="43.61962" lon="2.24823">
        <ele>181.4</ele>
        <time>2025-09-16T12:33:17Z</time>
      </trkpt>
      <trkpt lat="43.61961" lon="2.2483">
        <ele>181.4</ele>
        <time>2025-09-16T12:33:18Z</time>
      </trkpt>
      <trkpt lat="43.6196" lon="2.24836">
        <ele>181.4</ele>
        <time>2025-09-16T12:33:19Z</time>
      </trkpt>
      <trkpt lat="43.6196" lon="2.24842">
        <ele>181.4</ele>
        <time>2025-09-16T12:33:20Z</time>
      </trkpt>
      <trkpt lat="43.61959" lon="2.24849">
        <ele>181.4</ele>
        <time>2025-09-16T12:33:21Z</time>
      </trkpt>
      <trkpt lat="43.61958" lon="2.24855">
        <ele>181.4</ele>
        <time>2025-09-16T12:33:22Z</time>
      </trkpt>
      <trkpt lat="43.61957" lon="2.24861">
        <ele>181.4</ele>
        <time>2025-09-16T12:33:23Z</time>
      </trkpt>
      <trkpt lat="43.61957" lon="2.24868">
        <ele>181.4</ele>
        <time>2025-09-16T12:33:24Z</time>
      </trkpt>
      <trkpt lat="43.61956" lon="2.24875">
        <ele>181.4</ele>
        <time>2025-09-16T12:33:25Z</time>
      </trkpt>
      <trkpt lat="43.61955" lon="2.24882">
        <ele>181.6</ele>
        <time>2025-09-16T12:33:26Z</time>
      </trkpt>
      <trkpt lat="43.61954" lon="2.24889">
        <ele>181.8</ele>
        <time>2025-09-16T12:33:27Z</time>
      </trkpt>
      <trkpt lat="43.61953" lon="2.24896">
        <ele>181.8</ele>
        <time>2025-09-16T12:33:28Z</time>
      </trkpt>
      <trkpt lat="43.61952" lon="2.24903">
        <ele>181.8</ele>
        <time>2025-09-16T12:33:29Z</time>
      </trkpt>
      <trkpt lat="43.61951" lon="2.2491">
        <ele>182</ele>
        <time>2025-09-16T12:33:30Z</time>
      </trkpt>
      <trkpt lat="43.6195" lon="2.24917">
        <ele>182</ele>
        <time>2025-09-16T12:33:31Z</time>
      </trkpt>
      <trkpt lat="43.61949" lon="2.24925">
        <ele>182</ele>
        <time>2025-09-16T12:33:32Z</time>
      </trkpt>
      <trkpt lat="43.61947" lon="2.24932">
        <ele>182</ele>
        <time>2025-09-16T12:33:33Z</time>
      </trkpt>
      <trkpt lat="43.61947" lon="2.24939">
        <ele>182</ele>
        <time>2025-09-16T12:33:34Z</time>
      </trkpt>
      <trkpt lat="43.61946" lon="2.24947">
        <ele>182.2</ele>
        <time>2025-09-16T12:33:35Z</time>
      </trkpt>
      <trkpt lat="43.61946" lon="2.24954">
        <ele>182.2</ele>
        <time>2025-09-16T12:33:36Z</time>
      </trkpt>
      <trkpt lat="43.61945" lon="2.24961">
        <ele>182.2</ele>
        <time>2025-09-16T12:33:37Z</time>
      </trkpt>
      <trkpt lat="43.61945" lon="2.24968">
        <ele>182.2</ele>
        <time>2025-09-16T12:33:38Z</time>
      </trkpt>
      <trkpt lat="43.61944" lon="2.24975">
        <ele>182.2</ele>
        <time>2025-09-16T12:33:39Z</time>
      </trkpt>
      <trkpt lat="43.61944" lon="2.24983">
        <ele>182.2</ele>
        <time>2025-09-16T12:33:40Z</time>
      </trkpt>
      <trkpt lat="43.61943" lon="2.2499">
        <ele>182.2</ele>
        <time>2025-09-16T12:33:41Z</time>
      </trkpt>
      <trkpt lat="43.61943" lon="2.24997">
        <ele>182.4</ele>
        <time>2025-09-16T12:33:42Z</time>
      </trkpt>
      <trkpt lat="43.61942" lon="2.25003">
        <ele>182.4</ele>
        <time>2025-09-16T12:33:43Z</time>
      </trkpt>
      <trkpt lat="43.61941" lon="2.2501">
        <ele>182.6</ele>
        <time>2025-09-16T12:33:44Z</time>
      </trkpt>
      <trkpt lat="43.6194" lon="2.25017">
        <ele>182.6</ele>
        <time>2025-09-16T12:33:45Z</time>
      </trkpt>
      <trkpt lat="43.61939" lon="2.25023">
        <ele>182.8</ele>
        <time>2025-09-16T12:33:46Z</time>
      </trkpt>
      <trkpt lat="43.61938" lon="2.2503">
        <ele>182.8</ele>
        <time>2025-09-16T12:33:47Z</time>
      </trkpt>
      <trkpt lat="43.61937" lon="2.25037">
        <ele>182.8</ele>
        <time>2025-09-16T12:33:48Z</time>
      </trkpt>
      <trkpt lat="43.61937" lon="2.25044">
        <ele>182.8</ele>
        <time>2025-09-16T12:33:49Z</time>
      </trkpt>
      <trkpt lat="43.61937" lon="2.25051">
        <ele>182.8</ele>
        <time>2025-09-16T12:33:50Z</time>
      </trkpt>
      <trkpt lat="43.61939" lon="2.25057">
        <ele>182.8</ele>
        <time>2025-09-16T12:33:51Z</time>
      </trkpt>
      <trkpt lat="43.61942" lon="2.25063">
        <ele>182.6</ele>
        <time>2025-09-16T12:33:52Z</time>
      </trkpt>
      <trkpt lat="43.61946" lon="2.25068">
        <ele>182.8</ele>
        <time>2025-09-16T12:33:53Z</time>
      </trkpt>
      <trkpt lat="43.6195" lon="2.25071">
        <ele>182.8</ele>
        <time>2025-09-16T12:33:54Z</time>
      </trkpt>
      <trkpt lat="43.61954" lon="2.25075">
        <ele>182.8</ele>
        <time>2025-09-16T12:33:55Z</time>
      </trkpt>
      <trkpt lat="43.61959" lon="2.25079">
        <ele>182.6</ele>
        <time>2025-09-16T12:33:56Z</time>
      </trkpt>
      <trkpt lat="43.61963" lon="2.25083">
        <ele>182.6</ele>
        <time>2025-09-16T12:33:57Z</time>
      </trkpt>
      <trkpt lat="43.61966" lon="2.25088">
        <ele>182.4</ele>
        <time>2025-09-16T12:33:58Z</time>
      </trkpt>
      <trkpt lat="43.61968" lon="2.25094">
        <ele>182.2</ele>
        <time>2025-09-16T12:33:59Z</time>
      </trkpt>
      <trkpt lat="43.61969" lon="2.25101">
        <ele>182.4</ele>
        <time>2025-09-16T12:34:00Z</time>
      </trkpt>
      <trkpt lat="43.61969" lon="2.25108">
        <ele>182.6</ele>
        <time>2025-09-16T12:34:01Z</time>
      </trkpt>
      <trkpt lat="43.61968" lon="2.25115">
        <ele>183</ele>
        <time>2025-09-16T12:34:02Z</time>
      </trkpt>
      <trkpt lat="43.61966" lon="2.25122">
        <ele>183.4</ele>
        <time>2025-09-16T12:34:03Z</time>
      </trkpt>
      <trkpt lat="43.61964" lon="2.25129">
        <ele>183.6</ele>
        <time>2025-09-16T12:34:04Z</time>
      </trkpt>
      <trkpt lat="43.61963" lon="2.25136">
        <ele>183.6</ele>
        <time>2025-09-16T12:34:05Z</time>
      </trkpt>
      <trkpt lat="43.61962" lon="2.25142">
        <ele>183.6</ele>
        <time>2025-09-16T12:34:06Z</time>
      </trkpt>
      <trkpt lat="43.61961" lon="2.25149">
        <ele>183.4</ele>
        <time>2025-09-16T12:34:07Z</time>
      </trkpt>
      <trkpt lat="43.6196" lon="2.25155">
        <ele>183.2</ele>
        <time>2025-09-16T12:34:08Z</time>
      </trkpt>
      <trkpt lat="43.61959" lon="2.25162">
        <ele>183.2</ele>
        <time>2025-09-16T12:34:09Z</time>
      </trkpt>
      <trkpt lat="43.61959" lon="2.25168">
        <ele>183.2</ele>
        <time>2025-09-16T12:34:10Z</time>
      </trkpt>
      <trkpt lat="43.61958" lon="2.25175">
        <ele>183.4</ele>
        <time>2025-09-16T12:34:11Z</time>
      </trkpt>
      <trkpt lat="43.61957" lon="2.25182">
        <ele>183.6</ele>
        <time>2025-09-16T12:34:12Z</time>
      </trkpt>
      <trkpt lat="43.61956" lon="2.25188">
        <ele>183.8</ele>
        <time>2025-09-16T12:34:13Z</time>
      </trkpt>
      <trkpt lat="43.61954" lon="2.25194">
        <ele>184</ele>
        <time>2025-09-16T12:34:14Z</time>
      </trkpt>
      <trkpt lat="43.61953" lon="2.25201">
        <ele>184</ele>
        <time>2025-09-16T12:34:15Z</time>
      </trkpt>
      <trkpt lat="43.61952" lon="2.25207">
        <ele>184</ele>
        <time>2025-09-16T12:34:16Z</time>
      </trkpt>
      <trkpt lat="43.61952" lon="2.25214">
        <ele>184</ele>
        <time>2025-09-16T12:34:17Z</time>
      </trkpt>
      <trkpt lat="43.61951" lon="2.2522">
        <ele>183.8</ele>
        <time>2025-09-16T12:34:18Z</time>
      </trkpt>
      <trkpt lat="43.6195" lon="2.25227">
        <ele>183.8</ele>
        <time>2025-09-16T12:34:19Z</time>
      </trkpt>
      <trkpt lat="43.61948" lon="2.25234">
        <ele>183.6</ele>
        <time>2025-09-16T12:34:20Z</time>
      </trkpt>
      <trkpt lat="43.61947" lon="2.25241">
        <ele>183.4</ele>
        <time>2025-09-16T12:34:21Z</time>
      </trkpt>
      <trkpt lat="43.61945" lon="2.25248">
        <ele>183.2</ele>
        <time>2025-09-16T12:34:22Z</time>
      </trkpt>
      <trkpt lat="43.61944" lon="2.25255">
        <ele>183.2</ele>
        <time>2025-09-16T12:34:23Z</time>
      </trkpt>
      <trkpt lat="43.61942" lon="2.25262">
        <ele>183.2</ele>
        <time>2025-09-16T12:34:24Z</time>
      </trkpt>
      <trkpt lat="43.61941" lon="2.25268">
        <ele>183.2</ele>
        <time>2025-09-16T12:34:25Z</time>
      </trkpt>
      <trkpt lat="43.6194" lon="2.25275">
        <ele>183.2</ele>
        <time>2025-09-16T12:34:26Z</time>
      </trkpt>
      <trkpt lat="43.61939" lon="2.25282">
        <ele>183.2</ele>
        <time>2025-09-16T12:34:27Z</time>
      </trkpt>
      <trkpt lat="43.61938" lon="2.25289">
        <ele>183.2</ele>
        <time>2025-09-16T12:34:28Z</time>
      </trkpt>
      <trkpt lat="43.61937" lon="2.25296">
        <ele>183.2</ele>
        <time>2025-09-16T12:34:29Z</time>
      </trkpt>
      <trkpt lat="43.61937" lon="2.25303">
        <ele>183</ele>
        <time>2025-09-16T12:34:30Z</time>
      </trkpt>
      <trkpt lat="43.61936" lon="2.2531">
        <ele>183</ele>
        <time>2025-09-16T12:34:31Z</time>
      </trkpt>
      <trkpt lat="43.61935" lon="2.25317">
        <ele>183</ele>
        <time>2025-09-16T12:34:32Z</time>
      </trkpt>
      <trkpt lat="43.61934" lon="2.25324">
        <ele>183</ele>
        <time>2025-09-16T12:34:33Z</time>
      </trkpt>
      <trkpt lat="43.61934" lon="2.2533">
        <ele>183</ele>
        <time>2025-09-16T12:34:34Z</time>
      </trkpt>
      <trkpt lat="43.61933" lon="2.25337">
        <ele>183.2</ele>
        <time>2025-09-16T12:34:35Z</time>
      </trkpt>
      <trkpt lat="43.61932" lon="2.25344">
        <ele>183.2</ele>
        <time>2025-09-16T12:34:36Z</time>
      </trkpt>
      <trkpt lat="43.6193" lon="2.25351">
        <ele>183.2</ele>
        <time>2025-09-16T12:34:37Z</time>
      </trkpt>
      <trkpt lat="43.6193" lon="2.25358">
        <ele>183.2</ele>
        <time>2025-09-16T12:34:38Z</time>
      </trkpt>
      <trkpt lat="43.6193" lon="2.25365">
        <ele>183</ele>
        <time>2025-09-16T12:34:39Z</time>
      </trkpt>
      <trkpt lat="43.61929" lon="2.25373">
        <ele>183</ele>
        <time>2025-09-16T12:34:40Z</time>
      </trkpt>
      <trkpt lat="43.61928" lon="2.25381">
        <ele>182.8</ele>
        <time>2025-09-16T12:34:41Z</time>
      </trkpt>
      <trkpt lat="43.61928" lon="2.25389">
        <ele>182.8</ele>
        <time>2025-09-16T12:34:42Z</time>
      </trkpt>
      <trkpt lat="43.61928" lon="2.25397">
        <ele>182.4</ele>
        <time>2025-09-16T12:34:43Z</time>
      </trkpt>
      <trkpt lat="43.61929" lon="2.25404">
        <ele>182.2</ele>
        <time>2025-09-16T12:34:44Z</time>
      </trkpt>
      <trkpt lat="43.6193" lon="2.25412">
        <ele>182</ele>
        <time>2025-09-16T12:34:45Z</time>
      </trkpt>
      <trkpt lat="43.61931" lon="2.25419">
        <ele>181.8</ele>
        <time>2025-09-16T12:34:46Z</time>
      </trkpt>
      <trkpt lat="43.61931" lon="2.25427">
        <ele>181.8</ele>
        <time>2025-09-16T12:34:47Z</time>
      </trkpt>
      <trkpt lat="43.61932" lon="2.25435">
        <ele>181.6</ele>
        <time>2025-09-16T12:34:48Z</time>
      </trkpt>
      <trkpt lat="43.61932" lon="2.25443">
        <ele>181.4</ele>
        <time>2025-09-16T12:34:49Z</time>
      </trkpt>
      <trkpt lat="43.61932" lon="2.25451">
        <ele>181.2</ele>
        <time>2025-09-16T12:34:50Z</time>
      </trkpt>
      <trkpt lat="43.61933" lon="2.25459">
        <ele>181</ele>
        <time>2025-09-16T12:34:51Z</time>
      </trkpt>
      <trkpt lat="43.61933" lon="2.25467">
        <ele>180.8</ele>
        <time>2025-09-16T12:34:52Z</time>
      </trkpt>
      <trkpt lat="43.61933" lon="2.25475">
        <ele>180.8</ele>
        <time>2025-09-16T12:34:53Z</time>
      </trkpt>
      <trkpt lat="43.61934" lon="2.25483">
        <ele>180.8</ele>
        <time>2025-09-16T12:34:54Z</time>
      </trkpt>
      <trkpt lat="43.61934" lon="2.25491">
        <ele>180.8</ele>
        <time>2025-09-16T12:34:55Z</time>
      </trkpt>
      <trkpt lat="43.61934" lon="2.25499">
        <ele>180.8</ele>
        <time>2025-09-16T12:34:56Z</time>
      </trkpt>
      <trkpt lat="43.61934" lon="2.25507">
        <ele>180.8</ele>
        <time>2025-09-16T12:34:57Z</time>
      </trkpt>
      <trkpt lat="43.61935" lon="2.25515">
        <ele>181</ele>
        <time>2025-09-16T12:34:58Z</time>
      </trkpt>
      <trkpt lat="43.61935" lon="2.25523">
        <ele>181</ele>
        <time>2025-09-16T12:34:59Z</time>
      </trkpt>
      <trkpt lat="43.61937" lon="2.2553">
        <ele>181</ele>
        <time>2025-09-16T12:35:00Z</time>
      </trkpt>
      <trkpt lat="43.6194" lon="2.25537">
        <ele>181</ele>
        <time>2025-09-16T12:35:01Z</time>
      </trkpt>
      <trkpt lat="43.61944" lon="2.25542">
        <ele>181</ele>
        <time>2025-09-16T12:35:02Z</time>
      </trkpt>
      <trkpt lat="43.61949" lon="2.25545">
        <ele>180.8</ele>
        <time>2025-09-16T12:35:03Z</time>
      </trkpt>
      <trkpt lat="43.61955" lon="2.25547">
        <ele>180.4</ele>
        <time>2025-09-16T12:35:04Z</time>
      </trkpt>
      <trkpt lat="43.6196" lon="2.25551">
        <ele>180</ele>
        <time>2025-09-16T12:35:05Z</time>
      </trkpt>
      <trkpt lat="43.61966" lon="2.25555">
        <ele>179.6</ele>
        <time>2025-09-16T12:35:06Z</time>
      </trkpt>
      <trkpt lat="43.61972" lon="2.25562">
        <ele>179.2</ele>
        <time>2025-09-16T12:35:07Z</time>
      </trkpt>
      <trkpt lat="43.61977" lon="2.25568">
        <ele>178.8</ele>
        <time>2025-09-16T12:35:08Z</time>
      </trkpt>
      <trkpt lat="43.6198" lon="2.25576">
        <ele>178.4</ele>
        <time>2025-09-16T12:35:09Z</time>
      </trkpt>
      <trkpt lat="43.61984" lon="2.25585">
        <ele>178</ele>
        <time>2025-09-16T12:35:10Z</time>
      </trkpt>
      <trkpt lat="43.61987" lon="2.25593">
        <ele>177.6</ele>
        <time>2025-09-16T12:35:11Z</time>
      </trkpt>
      <trkpt lat="43.6199" lon="2.25602">
        <ele>177.2</ele>
        <time>2025-09-16T12:35:12Z</time>
      </trkpt>
      <trkpt lat="43.61994" lon="2.25609">
        <ele>177</ele>
        <time>2025-09-16T12:35:13Z</time>
      </trkpt>
      <trkpt lat="43.61998" lon="2.25615">
        <ele>176.8</ele>
        <time>2025-09-16T12:35:14Z</time>
      </trkpt>
      <trkpt lat="43.62004" lon="2.25619">
        <ele>176.4</ele>
        <time>2025-09-16T12:35:15Z</time>
      </trkpt>
      <trkpt lat="43.6201" lon="2.2562">
        <ele>176</ele>
        <time>2025-09-16T12:35:16Z</time>
      </trkpt>
      <trkpt lat="43.62015" lon="2.2562">
        <ele>175.8</ele>
        <time>2025-09-16T12:35:17Z</time>
      </trkpt>
      <trkpt lat="43.62019" lon="2.25617">
        <ele>175.8</ele>
        <time>2025-09-16T12:35:18Z</time>
      </trkpt>
      <trkpt lat="43.62021" lon="2.25611">
        <ele>175.8</ele>
        <time>2025-09-16T12:35:19Z</time>
      </trkpt>
      <trkpt lat="43.62023" lon="2.25605">
        <ele>176.2</ele>
        <time>2025-09-16T12:35:20Z</time>
      </trkpt>
      <trkpt lat="43.62024" lon="2.25599">
        <ele>176.6</ele>
        <time>2025-09-16T12:35:21Z</time>
      </trkpt>
      <trkpt lat="43.62028" lon="2.25593">
        <ele>176.8</ele>
        <time>2025-09-16T12:35:22Z</time>
      </trkpt>
      <trkpt lat="43.62032" lon="2.25589">
        <ele>177</ele>
        <time>2025-09-16T12:35:23Z</time>
      </trkpt>
      <trkpt lat="43.62037" lon="2.25587">
        <ele>177</ele>
        <time>2025-09-16T12:35:24Z</time>
      </trkpt>
      <trkpt lat="43.62043" lon="2.25586">
        <ele>176.8</ele>
        <time>2025-09-16T12:35:25Z</time>
      </trkpt>
      <trkpt lat="43.62049" lon="2.25586">
        <ele>176.6</ele>
        <time>2025-09-16T12:35:26Z</time>
      </trkpt>
      <trkpt lat="43.62055" lon="2.25588">
        <ele>176.4</ele>
        <time>2025-09-16T12:35:27Z</time>
      </trkpt>
      <trkpt lat="43.6206" lon="2.25591">
        <ele>176.4</ele>
        <time>2025-09-16T12:35:28Z</time>
      </trkpt>
      <trkpt lat="43.62065" lon="2.25594">
        <ele>176.4</ele>
        <time>2025-09-16T12:35:29Z</time>
      </trkpt>
      <trkpt lat="43.62071" lon="2.25596">
        <ele>176.4</ele>
        <time>2025-09-16T12:35:30Z</time>
      </trkpt>
      <trkpt lat="43.62076" lon="2.25599">
        <ele>176.6</ele>
        <time>2025-09-16T12:35:31Z</time>
      </trkpt>
      <trkpt lat="43.62081" lon="2.25602">
        <ele>176.8</ele>
        <time>2025-09-16T12:35:32Z</time>
      </trkpt>
      <trkpt lat="43.62086" lon="2.25605">
        <ele>176.8</ele>
        <time>2025-09-16T12:35:33Z</time>
      </trkpt>
      <trkpt lat="43.62091" lon="2.25608">
        <ele>176.8</ele>
        <time>2025-09-16T12:35:34Z</time>
      </trkpt>
      <trkpt lat="43.62097" lon="2.2561">
        <ele>177</ele>
        <time>2025-09-16T12:35:35Z</time>
      </trkpt>
      <trkpt lat="43.62102" lon="2.25612">
        <ele>177</ele>
        <time>2025-09-16T12:35:36Z</time>
      </trkpt>
      <trkpt lat="43.62108" lon="2.25614">
        <ele>177</ele>
        <time>2025-09-16T12:35:37Z</time>
      </trkpt>
      <trkpt lat="43.62113" lon="2.25615">
        <ele>177</ele>
        <time>2025-09-16T12:35:38Z</time>
      </trkpt>
      <trkpt lat="43.62119" lon="2.25616">
        <ele>177.2</ele>
        <time>2025-09-16T12:35:39Z</time>
      </trkpt>
      <trkpt lat="43.62124" lon="2.25618">
        <ele>177.2</ele>
        <time>2025-09-16T12:35:40Z</time>
      </trkpt>
      <trkpt lat="43.62129" lon="2.2562">
        <ele>177.2</ele>
        <time>2025-09-16T12:35:41Z</time>
      </trkpt>
      <trkpt lat="43.62134" lon="2.25622">
        <ele>177.2</ele>
        <time>2025-09-16T12:35:42Z</time>
      </trkpt>
      <trkpt lat="43.62139" lon="2.25624">
        <ele>177.2</ele>
        <time>2025-09-16T12:35:43Z</time>
      </trkpt>
      <trkpt lat="43.62144" lon="2.25626">
        <ele>177.2</ele>
        <time>2025-09-16T12:35:44Z</time>
      </trkpt>
      <trkpt lat="43.62149" lon="2.25627">
        <ele>177.2</ele>
        <time>2025-09-16T12:35:45Z</time>
      </trkpt>
      <trkpt lat="43.62154" lon="2.25629">
        <ele>177.2</ele>
        <time>2025-09-16T12:35:46Z</time>
      </trkpt>
      <trkpt lat="43.62159" lon="2.2563">
        <ele>177.2</ele>
        <time>2025-09-16T12:35:47Z</time>
      </trkpt>
      <trkpt lat="43.62164" lon="2.2563">
        <ele>177</ele>
        <time>2025-09-16T12:35:48Z</time>
      </trkpt>
      <trkpt lat="43.6217" lon="2.25632">
        <ele>177</ele>
        <time>2025-09-16T12:35:49Z</time>
      </trkpt>
      <trkpt lat="43.62176" lon="2.25634">
        <ele>177</ele>
        <time>2025-09-16T12:35:50Z</time>
      </trkpt>
      <trkpt lat="43.62181" lon="2.25636">
        <ele>177</ele>
        <time>2025-09-16T12:35:51Z</time>
      </trkpt>
      <trkpt lat="43.62187" lon="2.25638">
        <ele>177</ele>
        <time>2025-09-16T12:35:52Z</time>
      </trkpt>
      <trkpt lat="43.62193" lon="2.2564">
        <ele>177</ele>
        <time>2025-09-16T12:35:53Z</time>
      </trkpt>
      <trkpt lat="43.62199" lon="2.25641">
        <ele>177.2</ele>
        <time>2025-09-16T12:35:54Z</time>
      </trkpt>
      <trkpt lat="43.62204" lon="2.25643">
        <ele>177.4</ele>
        <time>2025-09-16T12:35:55Z</time>
      </trkpt>
      <trkpt lat="43.6221" lon="2.25645">
        <ele>177.6</ele>
        <time>2025-09-16T12:35:56Z</time>
      </trkpt>
      <trkpt lat="43.62216" lon="2.25646">
        <ele>177.8</ele>
        <time>2025-09-16T12:35:57Z</time>
      </trkpt>
      <trkpt lat="43.62221" lon="2.25646">
        <ele>178</ele>
        <time>2025-09-16T12:35:58Z</time>
      </trkpt>
      <trkpt lat="43.62225" lon="2.25647">
        <ele>178.2</ele>
        <time>2025-09-16T12:35:59Z</time>
      </trkpt>
      <trkpt lat="43.6223" lon="2.25647">
        <ele>178.6</ele>
        <time>2025-09-16T12:36:00Z</time>
      </trkpt>
      <trkpt lat="43.62236" lon="2.25648">
        <ele>178.6</ele>
        <time>2025-09-16T12:36:01Z</time>
      </trkpt>
      <trkpt lat="43.62241" lon="2.2565">
        <ele>178.8</ele>
        <time>2025-09-16T12:36:02Z</time>
      </trkpt>
      <trkpt lat="43.62247" lon="2.25651">
        <ele>178.8</ele>
        <time>2025-09-16T12:36:03Z</time>
      </trkpt>
      <trkpt lat="43.62252" lon="2.25652">
        <ele>178.8</ele>
        <time>2025-09-16T12:36:04Z</time>
      </trkpt>
      <trkpt lat="43.62258" lon="2.25653">
        <ele>178.8</ele>
        <time>2025-09-16T12:36:05Z</time>
      </trkpt>
      <trkpt lat="43.62264" lon="2.25655">
        <ele>178.8</ele>
        <time>2025-09-16T12:36:06Z</time>
      </trkpt>
      <trkpt lat="43.62269" lon="2.25657">
        <ele>179</ele>
        <time>2025-09-16T12:36:07Z</time>
      </trkpt>
      <trkpt lat="43.62275" lon="2.25658">
        <ele>179.2</ele>
        <time>2025-09-16T12:36:08Z</time>
      </trkpt>
      <trkpt lat="43.62279" lon="2.25659">
        <ele>179.2</ele>
        <time>2025-09-16T12:36:09Z</time>
      </trkpt>
      <trkpt lat="43.62284" lon="2.2566">
        <ele>179.4</ele>
        <time>2025-09-16T12:36:10Z</time>
      </trkpt>
      <trkpt lat="43.62288" lon="2.25661">
        <ele>179.8</ele>
        <time>2025-09-16T12:36:11Z</time>
      </trkpt>
      <trkpt lat="43.62293" lon="2.25662">
        <ele>180</ele>
        <time>2025-09-16T12:36:12Z</time>
      </trkpt>
      <trkpt lat="43.62298" lon="2.25663">
        <ele>180.2</ele>
        <time>2025-09-16T12:36:13Z</time>
      </trkpt>
      <trkpt lat="43.62303" lon="2.25664">
        <ele>180.4</ele>
        <time>2025-09-16T12:36:14Z</time>
      </trkpt>
      <trkpt lat="43.62307" lon="2.25666">
        <ele>180.4</ele>
        <time>2025-09-16T12:36:15Z</time>
      </trkpt>
      <trkpt lat="43.62312" lon="2.25668">
        <ele>180.6</ele>
        <time>2025-09-16T12:36:16Z</time>
      </trkpt>
      <trkpt lat="43.62317" lon="2.2567">
        <ele>180.8</ele>
        <time>2025-09-16T12:36:17Z</time>
      </trkpt>
      <trkpt lat="43.62321" lon="2.25672">
        <ele>180.8</ele>
        <time>2025-09-16T12:36:18Z</time>
      </trkpt>
      <trkpt lat="43.62326" lon="2.25674">
        <ele>181</ele>
        <time>2025-09-16T12:36:19Z</time>
      </trkpt>
      <trkpt lat="43.6233" lon="2.25677">
        <ele>181</ele>
        <time>2025-09-16T12:36:20Z</time>
      </trkpt>
      <trkpt lat="43.62335" lon="2.25681">
        <ele>181</ele>
        <time>2025-09-16T12:36:21Z</time>
      </trkpt>
      <trkpt lat="43.6234" lon="2.25684">
        <ele>180.6</ele>
        <time>2025-09-16T12:36:22Z</time>
      </trkpt>
      <trkpt lat="43.62345" lon="2.25688">
        <ele>180.4</ele>
        <time>2025-09-16T12:36:23Z</time>
      </trkpt>
      <trkpt lat="43.6235" lon="2.25691">
        <ele>180.2</ele>
        <time>2025-09-16T12:36:24Z</time>
      </trkpt>
      <trkpt lat="43.62356" lon="2.25694">
        <ele>179.8</ele>
        <time>2025-09-16T12:36:25Z</time>
      </trkpt>
      <trkpt lat="43.62361" lon="2.25696">
        <ele>179.8</ele>
        <time>2025-09-16T12:36:26Z</time>
      </trkpt>
      <trkpt lat="43.62366" lon="2.25698">
        <ele>179.6</ele>
        <time>2025-09-16T12:36:27Z</time>
      </trkpt>
      <trkpt lat="43.62372" lon="2.25699">
        <ele>179.6</ele>
        <time>2025-09-16T12:36:28Z</time>
      </trkpt>
      <trkpt lat="43.62377" lon="2.25699">
        <ele>179.6</ele>
        <time>2025-09-16T12:36:29Z</time>
      </trkpt>
      <trkpt lat="43.62382" lon="2.25699">
        <ele>179.4</ele>
        <time>2025-09-16T12:36:30Z</time>
      </trkpt>
      <trkpt lat="43.62388" lon="2.25697">
        <ele>179.2</ele>
        <time>2025-09-16T12:36:31Z</time>
      </trkpt>
      <trkpt lat="43.62394" lon="2.25695">
        <ele>178.8</ele>
        <time>2025-09-16T12:36:32Z</time>
      </trkpt>
      <trkpt lat="43.62401" lon="2.25693">
        <ele>178.2</ele>
        <time>2025-09-16T12:36:33Z</time>
      </trkpt>
      <trkpt lat="43.62407" lon="2.25691">
        <ele>177.8</ele>
        <time>2025-09-16T12:36:34Z</time>
      </trkpt>
      <trkpt lat="43.62414" lon="2.25688">
        <ele>177.4</ele>
        <time>2025-09-16T12:36:35Z</time>
      </trkpt>
      <trkpt lat="43.6242" lon="2.25685">
        <ele>177</ele>
        <time>2025-09-16T12:36:36Z</time>
      </trkpt>
      <trkpt lat="43.62425" lon="2.25681">
        <ele>176.6</ele>
        <time>2025-09-16T12:36:37Z</time>
      </trkpt>
      <trkpt lat="43.6243" lon="2.25677">
        <ele>176.6</ele>
        <time>2025-09-16T12:36:38Z</time>
      </trkpt>
      <trkpt lat="43.62435" lon="2.25672">
        <ele>176.4</ele>
        <time>2025-09-16T12:36:39Z</time>
      </trkpt>
      <trkpt lat="43.6244" lon="2.25667">
        <ele>176.2</ele>
        <time>2025-09-16T12:36:40Z</time>
      </trkpt>
      <trkpt lat="43.62445" lon="2.25662">
        <ele>176</ele>
        <time>2025-09-16T12:36:41Z</time>
      </trkpt>
      <trkpt lat="43.6245" lon="2.25658">
        <ele>176</ele>
        <time>2025-09-16T12:36:42Z</time>
      </trkpt>
      <trkpt lat="43.62454" lon="2.25653">
        <ele>176</ele>
        <time>2025-09-16T12:36:43Z</time>
      </trkpt>
      <trkpt lat="43.62459" lon="2.25649">
        <ele>176.2</ele>
        <time>2025-09-16T12:36:44Z</time>
      </trkpt>
      <trkpt lat="43.62464" lon="2.25645">
        <ele>176.2</ele>
        <time>2025-09-16T12:36:45Z</time>
      </trkpt>
      <trkpt lat="43.6247" lon="2.25641">
        <ele>176.2</ele>
        <time>2025-09-16T12:36:46Z</time>
      </trkpt>
      <trkpt lat="43.62475" lon="2.25637">
        <ele>176.2</ele>
        <time>2025-09-16T12:36:47Z</time>
      </trkpt>
      <trkpt lat="43.62481" lon="2.25633">
        <ele>176.2</ele>
        <time>2025-09-16T12:36:48Z</time>
      </trkpt>
      <trkpt lat="43.62487" lon="2.2563">
        <ele>176</ele>
        <time>2025-09-16T12:36:49Z</time>
      </trkpt>
      <trkpt lat="43.62493" lon="2.25627">
        <ele>175.8</ele>
        <time>2025-09-16T12:36:50Z</time>
      </trkpt>
      <trkpt lat="43.62499" lon="2.25624">
        <ele>175.6</ele>
        <time>2025-09-16T12:36:51Z</time>
      </trkpt>
      <trkpt lat="43.62505" lon="2.25622">
        <ele>175.4</ele>
        <time>2025-09-16T12:36:52Z</time>
      </trkpt>
      <trkpt lat="43.62511" lon="2.25619">
        <ele>175.2</ele>
        <time>2025-09-16T12:36:53Z</time>
      </trkpt>
      <trkpt lat="43.62516" lon="2.25616">
        <ele>175</ele>
        <time>2025-09-16T12:36:54Z</time>
      </trkpt>
      <trkpt lat="43.62522" lon="2.25614">
        <ele>175</ele>
        <time>2025-09-16T12:36:55Z</time>
      </trkpt>
      <trkpt lat="43.62528" lon="2.25611">
        <ele>174.8</ele>
        <time>2025-09-16T12:36:56Z</time>
      </trkpt>
      <trkpt lat="43.62534" lon="2.25608">
        <ele>174.8</ele>
        <time>2025-09-16T12:36:57Z</time>
      </trkpt>
      <trkpt lat="43.6254" lon="2.25607">
        <ele>174.8</ele>
        <time>2025-09-16T12:36:58Z</time>
      </trkpt>
      <trkpt lat="43.62546" lon="2.25606">
        <ele>175</ele>
        <time>2025-09-16T12:36:59Z</time>
      </trkpt>
      <trkpt lat="43.62552" lon="2.25606">
        <ele>175</ele>
        <time>2025-09-16T12:37:00Z</time>
      </trkpt>
      <trkpt lat="43.62558" lon="2.25606">
        <ele>175</ele>
        <time>2025-09-16T12:37:01Z</time>
      </trkpt>
      <trkpt lat="43.62565" lon="2.25605">
        <ele>175</ele>
        <time>2025-09-16T12:37:02Z</time>
      </trkpt>
      <trkpt lat="43.62571" lon="2.25604">
        <ele>175.2</ele>
        <time>2025-09-16T12:37:03Z</time>
      </trkpt>
      <trkpt lat="43.62577" lon="2.25603">
        <ele>175.2</ele>
        <time>2025-09-16T12:37:04Z</time>
      </trkpt>
      <trkpt lat="43.62584" lon="2.25603">
        <ele>175.2</ele>
        <time>2025-09-16T12:37:05Z</time>
      </trkpt>
      <trkpt lat="43.6259" lon="2.25602">
        <ele>175.2</ele>
        <time>2025-09-16T12:37:06Z</time>
      </trkpt>
      <trkpt lat="43.62596" lon="2.25602">
        <ele>175.4</ele>
        <time>2025-09-16T12:37:07Z</time>
      </trkpt>
      <trkpt lat="43.62602" lon="2.25602">
        <ele>175.4</ele>
        <time>2025-09-16T12:37:08Z</time>
      </trkpt>
      <trkpt lat="43.62608" lon="2.25603">
        <ele>175.4</ele>
        <time>2025-09-16T12:37:09Z</time>
      </trkpt>
      <trkpt lat="43.62614" lon="2.25604">
        <ele>175.4</ele>
        <time>2025-09-16T12:37:10Z</time>
      </trkpt>
      <trkpt lat="43.6262" lon="2.25607">
        <ele>175.4</ele>
        <time>2025-09-16T12:37:11Z</time>
      </trkpt>
      <trkpt lat="43.62626" lon="2.2561">
        <ele>175.6</ele>
        <time>2025-09-16T12:37:12Z</time>
      </trkpt>
      <trkpt lat="43.62631" lon="2.25613">
        <ele>175.6</ele>
        <time>2025-09-16T12:37:13Z</time>
      </trkpt>
      <trkpt lat="43.62636" lon="2.25617">
        <ele>176</ele>
        <time>2025-09-16T12:37:14Z</time>
      </trkpt>
      <trkpt lat="43.62641" lon="2.2562">
        <ele>176.4</ele>
        <time>2025-09-16T12:37:15Z</time>
      </trkpt>
      <trkpt lat="43.62646" lon="2.25622">
        <ele>176.8</ele>
        <time>2025-09-16T12:37:16Z</time>
      </trkpt>
      <trkpt lat="43.6265" lon="2.25625">
        <ele>177.4</ele>
        <time>2025-09-16T12:37:17Z</time>
      </trkpt>
      <trkpt lat="43.62654" lon="2.25628">
        <ele>178</ele>
        <time>2025-09-16T12:37:18Z</time>
      </trkpt>
      <trkpt lat="43.62658" lon="2.25631">
        <ele>178.6</ele>
        <time>2025-09-16T12:37:19Z</time>
      </trkpt>
      <trkpt lat="43.62663" lon="2.25635">
        <ele>179</ele>
        <time>2025-09-16T12:37:20Z</time>
      </trkpt>
      <trkpt lat="43.62667" lon="2.25638">
        <ele>179.2</ele>
        <time>2025-09-16T12:37:21Z</time>
      </trkpt>
      <trkpt lat="43.62671" lon="2.2564">
        <ele>179.6</ele>
        <time>2025-09-16T12:37:22Z</time>
      </trkpt>
      <trkpt lat="43.62675" lon="2.25642">
        <ele>179.8</ele>
        <time>2025-09-16T12:37:23Z</time>
      </trkpt>
      <trkpt lat="43.62679" lon="2.25644">
        <ele>180</ele>
        <time>2025-09-16T12:37:24Z</time>
      </trkpt>
      <trkpt lat="43.62683" lon="2.25645">
        <ele>180.2</ele>
        <time>2025-09-16T12:37:25Z</time>
      </trkpt>
      <trkpt lat="43.62688" lon="2.25647">
        <ele>180.4</ele>
        <time>2025-09-16T12:37:26Z</time>
      </trkpt>
      <trkpt lat="43.62692" lon="2.2565">
        <ele>180.4</ele>
        <time>2025-09-16T12:37:27Z</time>
      </trkpt>
      <trkpt lat="43.62696" lon="2.25652">
        <ele>180.6</ele>
        <time>2025-09-16T12:37:28Z</time>
      </trkpt>
      <trkpt lat="43.62701" lon="2.25654">
        <ele>180.6</ele>
        <time>2025-09-16T12:37:29Z</time>
      </trkpt>
      <trkpt lat="43.62705" lon="2.25657">
        <ele>180.6</ele>
        <time>2025-09-16T12:37:30Z</time>
      </trkpt>
      <trkpt lat="43.6271" lon="2.25659">
        <ele>180.4</ele>
        <time>2025-09-16T12:37:31Z</time>
      </trkpt>
      <trkpt lat="43.62714" lon="2.25662">
        <ele>180.2</ele>
        <time>2025-09-16T12:37:32Z</time>
      </trkpt>
      <trkpt lat="43.62719" lon="2.25665">
        <ele>180</ele>
        <time>2025-09-16T12:37:33Z</time>
      </trkpt>
      <trkpt lat="43.62724" lon="2.25668">
        <ele>180</ele>
        <time>2025-09-16T12:37:34Z</time>
      </trkpt>
      <trkpt lat="43.62728" lon="2.2567">
        <ele>179.8</ele>
        <time>2025-09-16T12:37:35Z</time>
      </trkpt>
      <trkpt lat="43.62733" lon="2.25673">
        <ele>179.8</ele>
        <time>2025-09-16T12:37:36Z</time>
      </trkpt>
      <trkpt lat="43.62738" lon="2.25676">
        <ele>179.8</ele>
        <time>2025-09-16T12:37:37Z</time>
      </trkpt>
      <trkpt lat="43.62743" lon="2.25679">
        <ele>179.8</ele>
        <time>2025-09-16T12:37:38Z</time>
      </trkpt>
      <trkpt lat="43.62748" lon="2.25683">
        <ele>180</ele>
        <time>2025-09-16T12:37:39Z</time>
      </trkpt>
      <trkpt lat="43.62752" lon="2.25687">
        <ele>180</ele>
        <time>2025-09-16T12:37:40Z</time>
      </trkpt>
      <trkpt lat="43.62757" lon="2.2569">
        <ele>180.2</ele>
        <time>2025-09-16T12:37:41Z</time>
      </trkpt>
      <trkpt lat="43.62761" lon="2.25694">
        <ele>180.2</ele>
        <time>2025-09-16T12:37:42Z</time>
      </trkpt>
      <trkpt lat="43.62765" lon="2.25698">
        <ele>180.2</ele>
        <time>2025-09-16T12:37:43Z</time>
      </trkpt>
      <trkpt lat="43.62769" lon="2.25702">
        <ele>180.2</ele>
        <time>2025-09-16T12:37:44Z</time>
      </trkpt>
      <trkpt lat="43.62773" lon="2.25706">
        <ele>180.4</ele>
        <time>2025-09-16T12:37:45Z</time>
      </trkpt>
      <trkpt lat="43.62777" lon="2.25711">
        <ele>180.4</ele>
        <time>2025-09-16T12:37:46Z</time>
      </trkpt>
      <trkpt lat="43.6278" lon="2.25715">
        <ele>180.4</ele>
        <time>2025-09-16T12:37:47Z</time>
      </trkpt>
      <trkpt lat="43.62784" lon="2.2572">
        <ele>180.4</ele>
        <time>2025-09-16T12:37:48Z</time>
      </trkpt>
      <trkpt lat="43.62787" lon="2.25724">
        <ele>180.4</ele>
        <time>2025-09-16T12:37:49Z</time>
      </trkpt>
      <trkpt lat="43.62791" lon="2.25728">
        <ele>180.4</ele>
        <time>2025-09-16T12:37:50Z</time>
      </trkpt>
      <trkpt lat="43.62795" lon="2.25732">
        <ele>180.6</ele>
        <time>2025-09-16T12:37:51Z</time>
      </trkpt>
      <trkpt lat="43.62799" lon="2.25735">
        <ele>180.6</ele>
        <time>2025-09-16T12:37:52Z</time>
      </trkpt>
      <trkpt lat="43.62803" lon="2.25739">
        <ele>180.6</ele>
        <time>2025-09-16T12:37:53Z</time>
      </trkpt>
      <trkpt lat="43.62807" lon="2.25743">
        <ele>180.8</ele>
        <time>2025-09-16T12:37:54Z</time>
      </trkpt>
      <trkpt lat="43.62811" lon="2.25747">
        <ele>180.8</ele>
        <time>2025-09-16T12:37:55Z</time>
      </trkpt>
      <trkpt lat="43.62815" lon="2.25751">
        <ele>180.6</ele>
        <time>2025-09-16T12:37:56Z</time>
      </trkpt>
      <trkpt lat="43.62819" lon="2.25755">
        <ele>180.6</ele>
        <time>2025-09-16T12:37:57Z</time>
      </trkpt>
      <trkpt lat="43.62824" lon="2.25758">
        <ele>180.6</ele>
        <time>2025-09-16T12:37:58Z</time>
      </trkpt>
      <trkpt lat="43.62828" lon="2.25761">
        <ele>180.6</ele>
        <time>2025-09-16T12:37:59Z</time>
      </trkpt>
      <trkpt lat="43.62832" lon="2.25765">
        <ele>180.6</ele>
        <time>2025-09-16T12:38:00Z</time>
      </trkpt>
      <trkpt lat="43.62836" lon="2.25769">
        <ele>180.6</ele>
        <time>2025-09-16T12:38:01Z</time>
      </trkpt>
      <trkpt lat="43.62839" lon="2.25773">
        <ele>180.8</ele>
        <time>2025-09-16T12:38:02Z</time>
      </trkpt>
      <trkpt lat="43.62844" lon="2.25777">
        <ele>180.8</ele>
        <time>2025-09-16T12:38:03Z</time>
      </trkpt>
      <trkpt lat="43.62848" lon="2.25781">
        <ele>180.8</ele>
        <time>2025-09-16T12:38:04Z</time>
      </trkpt>
      <trkpt lat="43.62852" lon="2.25785">
        <ele>181</ele>
        <time>2025-09-16T12:38:05Z</time>
      </trkpt>
      <trkpt lat="43.62857" lon="2.25789">
        <ele>181</ele>
        <time>2025-09-16T12:38:06Z</time>
      </trkpt>
      <trkpt lat="43.62861" lon="2.25792">
        <ele>180.8</ele>
        <time>2025-09-16T12:38:07Z</time>
      </trkpt>
      <trkpt lat="43.62866" lon="2.25794">
        <ele>180.8</ele>
        <time>2025-09-16T12:38:08Z</time>
      </trkpt>
      <trkpt lat="43.6287" lon="2.25797">
        <ele>180.6</ele>
        <time>2025-09-16T12:38:09Z</time>
      </trkpt>
      <trkpt lat="43.62875" lon="2.25801">
        <ele>180.6</ele>
        <time>2025-09-16T12:38:10Z</time>
      </trkpt>
      <trkpt lat="43.62879" lon="2.25805">
        <ele>180.6</ele>
        <time>2025-09-16T12:38:11Z</time>
      </trkpt>
      <trkpt lat="43.62883" lon="2.25808">
        <ele>180.6</ele>
        <time>2025-09-16T12:38:12Z</time>
      </trkpt>
      <trkpt lat="43.62887" lon="2.25813">
        <ele>180.4</ele>
        <time>2025-09-16T12:38:13Z</time>
      </trkpt>
      <trkpt lat="43.62892" lon="2.25817">
        <ele>180.4</ele>
        <time>2025-09-16T12:38:14Z</time>
      </trkpt>
      <trkpt lat="43.62895" lon="2.25822">
        <ele>180.2</ele>
        <time>2025-09-16T12:38:15Z</time>
      </trkpt>
      <trkpt lat="43.62899" lon="2.25826">
        <ele>180.2</ele>
        <time>2025-09-16T12:38:16Z</time>
      </trkpt>
      <trkpt lat="43.62903" lon="2.25831">
        <ele>180.2</ele>
        <time>2025-09-16T12:38:17Z</time>
      </trkpt>
      <trkpt lat="43.62907" lon="2.25836">
        <ele>180.2</ele>
        <time>2025-09-16T12:38:18Z</time>
      </trkpt>
      <trkpt lat="43.62911" lon="2.25841">
        <ele>180.2</ele>
        <time>2025-09-16T12:38:19Z</time>
      </trkpt>
      <trkpt lat="43.62915" lon="2.25846">
        <ele>180.2</ele>
        <time>2025-09-16T12:38:20Z</time>
      </trkpt>
      <trkpt lat="43.62919" lon="2.25851">
        <ele>180.2</ele>
        <time>2025-09-16T12:38:21Z</time>
      </trkpt>
      <trkpt lat="43.62922" lon="2.25856">
        <ele>180.2</ele>
        <time>2025-09-16T12:38:22Z</time>
      </trkpt>
      <trkpt lat="43.62926" lon="2.25861">
        <ele>180.2</ele>
        <time>2025-09-16T12:38:23Z</time>
      </trkpt>
      <trkpt lat="43.62929" lon="2.25866">
        <ele>180.2</ele>
        <time>2025-09-16T12:38:24Z</time>
      </trkpt>
      <trkpt lat="43.62933" lon="2.25872">
        <ele>180.2</ele>
        <time>2025-09-16T12:38:25Z</time>
      </trkpt>
      <trkpt lat="43.62936" lon="2.25877">
        <ele>180.2</ele>
        <time>2025-09-16T12:38:26Z</time>
      </trkpt>
      <trkpt lat="43.62939" lon="2.25882">
        <ele>180.2</ele>
        <time>2025-09-16T12:38:27Z</time>
      </trkpt>
      <trkpt lat="43.62942" lon="2.25887">
        <ele>180.2</ele>
        <time>2025-09-16T12:38:28Z</time>
      </trkpt>
      <trkpt lat="43.62945" lon="2.25892">
        <ele>180.4</ele>
        <time>2025-09-16T12:38:29Z</time>
      </trkpt>
      <trkpt lat="43.62947" lon="2.25896">
        <ele>180.4</ele>
        <time>2025-09-16T12:38:30Z</time>
      </trkpt>
      <trkpt lat="43.6295" lon="2.25901">
        <ele>180.4</ele>
        <time>2025-09-16T12:38:31Z</time>
      </trkpt>
      <trkpt lat="43.62953" lon="2.25906">
        <ele>180.4</ele>
        <time>2025-09-16T12:38:32Z</time>
      </trkpt>
      <trkpt lat="43.62956" lon="2.25912">
        <ele>180.4</ele>
        <time>2025-09-16T12:38:33Z</time>
      </trkpt>
      <trkpt lat="43.6296" lon="2.25917">
        <ele>180.2</ele>
        <time>2025-09-16T12:38:34Z</time>
      </trkpt>
      <trkpt lat="43.62964" lon="2.25922">
        <ele>180.2</ele>
        <time>2025-09-16T12:38:35Z</time>
      </trkpt>
      <trkpt lat="43.62967" lon="2.25927">
        <ele>180</ele>
        <time>2025-09-16T12:38:36Z</time>
      </trkpt>
      <trkpt lat="43.62972" lon="2.25932">
        <ele>180</ele>
        <time>2025-09-16T12:38:37Z</time>
      </trkpt>
      <trkpt lat="43.62976" lon="2.25938">
        <ele>179.8</ele>
        <time>2025-09-16T12:38:38Z</time>
      </trkpt>
      <trkpt lat="43.6298" lon="2.25944">
        <ele>179.6</ele>
        <time>2025-09-16T12:38:39Z</time>
      </trkpt>
      <trkpt lat="43.62985" lon="2.25949">
        <ele>179.6</ele>
        <time>2025-09-16T12:38:40Z</time>
      </trkpt>
      <trkpt lat="43.62989" lon="2.25954">
        <ele>179.4</ele>
        <time>2025-09-16T12:38:41Z</time>
      </trkpt>
      <trkpt lat="43.62994" lon="2.2596">
        <ele>179.2</ele>
        <time>2025-09-16T12:38:42Z</time>
      </trkpt>
      <trkpt lat="43.62998" lon="2.25965">
        <ele>179.2</ele>
        <time>2025-09-16T12:38:43Z</time>
      </trkpt>
      <trkpt lat="43.63002" lon="2.25971">
        <ele>179.2</ele>
        <time>2025-09-16T12:38:44Z</time>
      </trkpt>
      <trkpt lat="43.63006" lon="2.25976">
        <ele>179</ele>
        <time>2025-09-16T12:38:45Z</time>
      </trkpt>
      <trkpt lat="43.63011" lon="2.25981">
        <ele>179</ele>
        <time>2025-09-16T12:38:46Z</time>
      </trkpt>
      <trkpt lat="43.63015" lon="2.25985">
        <ele>179</ele>
        <time>2025-09-16T12:38:47Z</time>
      </trkpt>
      <trkpt lat="43.63019" lon="2.25991">
        <ele>179</ele>
        <time>2025-09-16T12:38:48Z</time>
      </trkpt>
      <trkpt lat="43.63022" lon="2.25996">
        <ele>179</ele>
        <time>2025-09-16T12:38:49Z</time>
      </trkpt>
      <trkpt lat="43.63026" lon="2.26001">
        <ele>179</ele>
        <time>2025-09-16T12:38:50Z</time>
      </trkpt>
      <trkpt lat="43.6303" lon="2.26006">
        <ele>179</ele>
        <time>2025-09-16T12:38:51Z</time>
      </trkpt>
      <trkpt lat="43.63034" lon="2.26011">
        <ele>179</ele>
        <time>2025-09-16T12:38:52Z</time>
      </trkpt>
      <trkpt lat="43.63038" lon="2.26017">
        <ele>179.2</ele>
        <time>2025-09-16T12:38:53Z</time>
      </trkpt>
      <trkpt lat="43.63041" lon="2.26022">
        <ele>179.4</ele>
        <time>2025-09-16T12:38:54Z</time>
      </trkpt>
      <trkpt lat="43.63044" lon="2.26026">
        <ele>179.6</ele>
        <time>2025-09-16T12:38:55Z</time>
      </trkpt>
      <trkpt lat="43.63047" lon="2.26031">
        <ele>179.8</ele>
        <time>2025-09-16T12:38:56Z</time>
      </trkpt>
      <trkpt lat="43.6305" lon="2.26036">
        <ele>180</ele>
        <time>2025-09-16T12:38:57Z</time>
      </trkpt>
      <trkpt lat="43.63052" lon="2.26042">
        <ele>180.2</ele>
        <time>2025-09-16T12:38:58Z</time>
      </trkpt>
      <trkpt lat="43.63055" lon="2.26047">
        <ele>180.4</ele>
        <time>2025-09-16T12:38:59Z</time>
      </trkpt>
      <trkpt lat="43.63057" lon="2.26053">
        <ele>180.4</ele>
        <time>2025-09-16T12:39:00Z</time>
      </trkpt>
      <trkpt lat="43.6306" lon="2.26058">
        <ele>180.2</ele>
        <time>2025-09-16T12:39:01Z</time>
      </trkpt>
      <trkpt lat="43.63063" lon="2.26064">
        <ele>180.2</ele>
        <time>2025-09-16T12:39:02Z</time>
      </trkpt>
      <trkpt lat="43.63066" lon="2.2607">
        <ele>180.2</ele>
        <time>2025-09-16T12:39:03Z</time>
      </trkpt>
      <trkpt lat="43.6307" lon="2.26075">
        <ele>180</ele>
        <time>2025-09-16T12:39:04Z</time>
      </trkpt>
      <trkpt lat="43.63073" lon="2.2608">
        <ele>180</ele>
        <time>2025-09-16T12:39:05Z</time>
      </trkpt>
      <trkpt lat="43.63076" lon="2.26085">
        <ele>180</ele>
        <time>2025-09-16T12:39:06Z</time>
      </trkpt>
      <trkpt lat="43.6308" lon="2.2609">
        <ele>180</ele>
        <time>2025-09-16T12:39:07Z</time>
      </trkpt>
      <trkpt lat="43.63083" lon="2.26096">
        <ele>180</ele>
        <time>2025-09-16T12:39:08Z</time>
      </trkpt>
      <trkpt lat="43.63086" lon="2.26101">
        <ele>179.8</ele>
        <time>2025-09-16T12:39:09Z</time>
      </trkpt>
      <trkpt lat="43.63088" lon="2.26107">
        <ele>179.8</ele>
        <time>2025-09-16T12:39:10Z</time>
      </trkpt>
      <trkpt lat="43.6309" lon="2.26113">
        <ele>179.8</ele>
        <time>2025-09-16T12:39:11Z</time>
      </trkpt>
      <trkpt lat="43.63093" lon="2.26119">
        <ele>179.8</ele>
        <time>2025-09-16T12:39:12Z</time>
      </trkpt>
      <trkpt lat="43.63096" lon="2.26125">
        <ele>179.8</ele>
        <time>2025-09-16T12:39:13Z</time>
      </trkpt>
      <trkpt lat="43.63097" lon="2.26132">
        <ele>179.8</ele>
        <time>2025-09-16T12:39:14Z</time>
      </trkpt>
      <trkpt lat="43.63099" lon="2.26139">
        <ele>179.8</ele>
        <time>2025-09-16T12:39:15Z</time>
      </trkpt>
      <trkpt lat="43.631" lon="2.26146">
        <ele>179.8</ele>
        <time>2025-09-16T12:39:16Z</time>
      </trkpt>
      <trkpt lat="43.63101" lon="2.26152">
        <ele>180</ele>
        <time>2025-09-16T12:39:17Z</time>
      </trkpt>
      <trkpt lat="43.63102" lon="2.26159">
        <ele>180.2</ele>
        <time>2025-09-16T12:39:18Z</time>
      </trkpt>
      <trkpt lat="43.63103" lon="2.26166">
        <ele>180.4</ele>
        <time>2025-09-16T12:39:19Z</time>
      </trkpt>
      <trkpt lat="43.63103" lon="2.26172">
        <ele>180.6</ele>
        <time>2025-09-16T12:39:20Z</time>
      </trkpt>
      <trkpt lat="43.63104" lon="2.26178">
        <ele>180.8</ele>
        <time>2025-09-16T12:39:21Z</time>
      </trkpt>
      <trkpt lat="43.63104" lon="2.26184">
        <ele>181</ele>
        <time>2025-09-16T12:39:22Z</time>
      </trkpt>
      <trkpt lat="43.63105" lon="2.2619">
        <ele>181</ele>
        <time>2025-09-16T12:39:23Z</time>
      </trkpt>
      <trkpt lat="43.63106" lon="2.26197">
        <ele>181.2</ele>
        <time>2025-09-16T12:39:24Z</time>
      </trkpt>
      <trkpt lat="43.63107" lon="2.26203">
        <ele>181.2</ele>
        <time>2025-09-16T12:39:25Z</time>
      </trkpt>
      <trkpt lat="43.63109" lon="2.26209">
        <ele>181</ele>
        <time>2025-09-16T12:39:26Z</time>
      </trkpt>
      <trkpt lat="43.63111" lon="2.26215">
        <ele>181</ele>
        <time>2025-09-16T12:39:27Z</time>
      </trkpt>
      <trkpt lat="43.63113" lon="2.26221">
        <ele>181</ele>
        <time>2025-09-16T12:39:28Z</time>
      </trkpt>
      <trkpt lat="43.63117" lon="2.26226">
        <ele>181</ele>
        <time>2025-09-16T12:39:29Z</time>
      </trkpt>
      <trkpt lat="43.6312" lon="2.26232">
        <ele>180.8</ele>
        <time>2025-09-16T12:39:30Z</time>
      </trkpt>
      <trkpt lat="43.63123" lon="2.26237">
        <ele>180.8</ele>
        <time>2025-09-16T12:39:31Z</time>
      </trkpt>
      <trkpt lat="43.63126" lon="2.26243">
        <ele>180.8</ele>
        <time>2025-09-16T12:39:32Z</time>
      </trkpt>
      <trkpt lat="43.63128" lon="2.26249">
        <ele>180.6</ele>
        <time>2025-09-16T12:39:33Z</time>
      </trkpt>
      <trkpt lat="43.63131" lon="2.26255">
        <ele>180.6</ele>
        <time>2025-09-16T12:39:34Z</time>
      </trkpt>
      <trkpt lat="43.63133" lon="2.26262">
        <ele>180.6</ele>
        <time>2025-09-16T12:39:35Z</time>
      </trkpt>
      <trkpt lat="43.63134" lon="2.26268">
        <ele>180.6</ele>
        <time>2025-09-16T12:39:36Z</time>
      </trkpt>
      <trkpt lat="43.63136" lon="2.26274">
        <ele>180.6</ele>
        <time>2025-09-16T12:39:37Z</time>
      </trkpt>
      <trkpt lat="43.63137" lon="2.26281">
        <ele>180.6</ele>
        <time>2025-09-16T12:39:38Z</time>
      </trkpt>
      <trkpt lat="43.63138" lon="2.26288">
        <ele>180.6</ele>
        <time>2025-09-16T12:39:39Z</time>
      </trkpt>
      <trkpt lat="43.63138" lon="2.26294">
        <ele>180.6</ele>
        <time>2025-09-16T12:39:40Z</time>
      </trkpt>
      <trkpt lat="43.63139" lon="2.26301">
        <ele>180.6</ele>
        <time>2025-09-16T12:39:41Z</time>
      </trkpt>
      <trkpt lat="43.6314" lon="2.26308">
        <ele>180.6</ele>
        <time>2025-09-16T12:39:42Z</time>
      </trkpt>
      <trkpt lat="43.63141" lon="2.26315">
        <ele>180.6</ele>
        <time>2025-09-16T12:39:43Z</time>
      </trkpt>
      <trkpt lat="43.63142" lon="2.26322">
        <ele>180.6</ele>
        <time>2025-09-16T12:39:44Z</time>
      </trkpt>
      <trkpt lat="43.63143" lon="2.26329">
        <ele>180.8</ele>
        <time>2025-09-16T12:39:45Z</time>
      </trkpt>
      <trkpt lat="43.63144" lon="2.26336">
        <ele>180.8</ele>
        <time>2025-09-16T12:39:46Z</time>
      </trkpt>
      <trkpt lat="43.63146" lon="2.26343">
        <ele>180.8</ele>
        <time>2025-09-16T12:39:47Z</time>
      </trkpt>
      <trkpt lat="43.63147" lon="2.2635">
        <ele>180.6</ele>
        <time>2025-09-16T12:39:48Z</time>
      </trkpt>
      <trkpt lat="43.63149" lon="2.26357">
        <ele>180.6</ele>
        <time>2025-09-16T12:39:49Z</time>
      </trkpt>
      <trkpt lat="43.6315" lon="2.26364">
        <ele>180.4</ele>
        <time>2025-09-16T12:39:50Z</time>
      </trkpt>
      <trkpt lat="43.63152" lon="2.26371">
        <ele>180.2</ele>
        <time>2025-09-16T12:39:51Z</time>
      </trkpt>
      <trkpt lat="43.63153" lon="2.26378">
        <ele>180.2</ele>
        <time>2025-09-16T12:39:52Z</time>
      </trkpt>
      <trkpt lat="43.63154" lon="2.26385">
        <ele>180</ele>
        <time>2025-09-16T12:39:53Z</time>
      </trkpt>
      <trkpt lat="43.63156" lon="2.26392">
        <ele>180</ele>
        <time>2025-09-16T12:39:54Z</time>
      </trkpt>
      <trkpt lat="43.63157" lon="2.26399">
        <ele>180</ele>
        <time>2025-09-16T12:39:55Z</time>
      </trkpt>
      <trkpt lat="43.63158" lon="2.26406">
        <ele>180</ele>
        <time>2025-09-16T12:39:56Z</time>
      </trkpt>
      <trkpt lat="43.63159" lon="2.26413">
        <ele>180</ele>
        <time>2025-09-16T12:39:57Z</time>
      </trkpt>
      <trkpt lat="43.63161" lon="2.2642">
        <ele>180</ele>
        <time>2025-09-16T12:39:58Z</time>
      </trkpt>
      <trkpt lat="43.63162" lon="2.26427">
        <ele>180</ele>
        <time>2025-09-16T12:39:59Z</time>
      </trkpt>
      <trkpt lat="43.63163" lon="2.26433">
        <ele>180.2</ele>
        <time>2025-09-16T12:40:00Z</time>
      </trkpt>
      <trkpt lat="43.63164" lon="2.2644">
        <ele>180.2</ele>
        <time>2025-09-16T12:40:01Z</time>
      </trkpt>
      <trkpt lat="43.63166" lon="2.26447">
        <ele>180.2</ele>
        <time>2025-09-16T12:40:02Z</time>
      </trkpt>
      <trkpt lat="43.63167" lon="2.26453">
        <ele>180.2</ele>
        <time>2025-09-16T12:40:03Z</time>
      </trkpt>
      <trkpt lat="43.63169" lon="2.2646">
        <ele>180.2</ele>
        <time>2025-09-16T12:40:04Z</time>
      </trkpt>
      <trkpt lat="43.63171" lon="2.26466">
        <ele>180.2</ele>
        <time>2025-09-16T12:40:05Z</time>
      </trkpt>
      <trkpt lat="43.63173" lon="2.26473">
        <ele>180</ele>
        <time>2025-09-16T12:40:06Z</time>
      </trkpt>
      <trkpt lat="43.63174" lon="2.26481">
        <ele>180</ele>
        <time>2025-09-16T12:40:07Z</time>
      </trkpt>
      <trkpt lat="43.63176" lon="2.26488">
        <ele>179.8</ele>
        <time>2025-09-16T12:40:08Z</time>
      </trkpt>
      <trkpt lat="43.63177" lon="2.26494">
        <ele>179.8</ele>
        <time>2025-09-16T12:40:09Z</time>
      </trkpt>
      <trkpt lat="43.63177" lon="2.26502">
        <ele>179.8</ele>
        <time>2025-09-16T12:40:10Z</time>
      </trkpt>
      <trkpt lat="43.63178" lon="2.26509">
        <ele>179.8</ele>
        <time>2025-09-16T12:40:11Z</time>
      </trkpt>
      <trkpt lat="43.63178" lon="2.26516">
        <ele>180</ele>
        <time>2025-09-16T12:40:12Z</time>
      </trkpt>
      <trkpt lat="43.63178" lon="2.26523">
        <ele>180</ele>
        <time>2025-09-16T12:40:13Z</time>
      </trkpt>
      <trkpt lat="43.63179" lon="2.2653">
        <ele>180.2</ele>
        <time>2025-09-16T12:40:14Z</time>
      </trkpt>
      <trkpt lat="43.6318" lon="2.26537">
        <ele>180.2</ele>
        <time>2025-09-16T12:40:15Z</time>
      </trkpt>
      <trkpt lat="43.6318" lon="2.26544">
        <ele>180.2</ele>
        <time>2025-09-16T12:40:16Z</time>
      </trkpt>
      <trkpt lat="43.63181" lon="2.26551">
        <ele>180.2</ele>
        <time>2025-09-16T12:40:17Z</time>
      </trkpt>
      <trkpt lat="43.63181" lon="2.26558">
        <ele>180.2</ele>
        <time>2025-09-16T12:40:18Z</time>
      </trkpt>
      <trkpt lat="43.63181" lon="2.26564">
        <ele>180.2</ele>
        <time>2025-09-16T12:40:19Z</time>
      </trkpt>
      <trkpt lat="43.63182" lon="2.26571">
        <ele>180.2</ele>
        <time>2025-09-16T12:40:20Z</time>
      </trkpt>
      <trkpt lat="43.63182" lon="2.26578">
        <ele>180.2</ele>
        <time>2025-09-16T12:40:21Z</time>
      </trkpt>
      <trkpt lat="43.63182" lon="2.26585">
        <ele>180.2</ele>
        <time>2025-09-16T12:40:22Z</time>
      </trkpt>
      <trkpt lat="43.63183" lon="2.26593">
        <ele>180.2</ele>
        <time>2025-09-16T12:40:23Z</time>
      </trkpt>
      <trkpt lat="43.63184" lon="2.266">
        <ele>180</ele>
        <time>2025-09-16T12:40:24Z</time>
      </trkpt>
      <trkpt lat="43.63186" lon="2.26607">
        <ele>179.8</ele>
        <time>2025-09-16T12:40:25Z</time>
      </trkpt>
      <trkpt lat="43.63188" lon="2.26614">
        <ele>179.6</ele>
        <time>2025-09-16T12:40:26Z</time>
      </trkpt>
      <trkpt lat="43.6319" lon="2.26621">
        <ele>179.6</ele>
        <time>2025-09-16T12:40:27Z</time>
      </trkpt>
      <trkpt lat="43.63191" lon="2.26629">
        <ele>179.4</ele>
        <time>2025-09-16T12:40:28Z</time>
      </trkpt>
      <trkpt lat="43.63192" lon="2.26636">
        <ele>179.4</ele>
        <time>2025-09-16T12:40:29Z</time>
      </trkpt>
      <trkpt lat="43.63193" lon="2.26643">
        <ele>179.6</ele>
        <time>2025-09-16T12:40:30Z</time>
      </trkpt>
      <trkpt lat="43.63193" lon="2.2665">
        <ele>179.6</ele>
        <time>2025-09-16T12:40:31Z</time>
      </trkpt>
      <trkpt lat="43.63193" lon="2.26656">
        <ele>179.6</ele>
        <time>2025-09-16T12:40:32Z</time>
      </trkpt>
      <trkpt lat="43.63193" lon="2.26662">
        <ele>179.8</ele>
        <time>2025-09-16T12:40:33Z</time>
      </trkpt>
      <trkpt lat="43.63192" lon="2.26668">
        <ele>179.8</ele>
        <time>2025-09-16T12:40:34Z</time>
      </trkpt>
      <trkpt lat="43.63191" lon="2.26675">
        <ele>180</ele>
        <time>2025-09-16T12:40:35Z</time>
      </trkpt>
      <trkpt lat="43.63191" lon="2.26682">
        <ele>180.2</ele>
        <time>2025-09-16T12:40:36Z</time>
      </trkpt>
      <trkpt lat="43.63192" lon="2.26688">
        <ele>180.2</ele>
        <time>2025-09-16T12:40:37Z</time>
      </trkpt>
      <trkpt lat="43.63193" lon="2.26694">
        <ele>180.2</ele>
        <time>2025-09-16T12:40:38Z</time>
      </trkpt>
      <trkpt lat="43.63193" lon="2.26702">
        <ele>180.2</ele>
        <time>2025-09-16T12:40:39Z</time>
      </trkpt>
      <trkpt lat="43.63194" lon="2.26709">
        <ele>180.2</ele>
        <time>2025-09-16T12:40:40Z</time>
      </trkpt>
      <trkpt lat="43.63195" lon="2.26717">
        <ele>180.2</ele>
        <time>2025-09-16T12:40:41Z</time>
      </trkpt>
      <trkpt lat="43.63195" lon="2.26725">
        <ele>180.2</ele>
        <time>2025-09-16T12:40:42Z</time>
      </trkpt>
      <trkpt lat="43.63196" lon="2.26732">
        <ele>180.2</ele>
        <time>2025-09-16T12:40:43Z</time>
      </trkpt>
      <trkpt lat="43.63195" lon="2.2674">
        <ele>180.2</ele>
        <time>2025-09-16T12:40:44Z</time>
      </trkpt>
      <trkpt lat="43.63195" lon="2.26748">
        <ele>180.2</ele>
        <time>2025-09-16T12:40:45Z</time>
      </trkpt>
      <trkpt lat="43.63195" lon="2.26754">
        <ele>180</ele>
        <time>2025-09-16T12:40:46Z</time>
      </trkpt>
      <trkpt lat="43.63195" lon="2.26761">
        <ele>180</ele>
        <time>2025-09-16T12:40:47Z</time>
      </trkpt>
      <trkpt lat="43.63195" lon="2.26768">
        <ele>180</ele>
        <time>2025-09-16T12:40:48Z</time>
      </trkpt>
      <trkpt lat="43.63195" lon="2.26776">
        <ele>180</ele>
        <time>2025-09-16T12:40:49Z</time>
      </trkpt>
      <trkpt lat="43.63195" lon="2.26783">
        <ele>180.2</ele>
        <time>2025-09-16T12:40:50Z</time>
      </trkpt>
      <trkpt lat="43.63195" lon="2.26792">
        <ele>180.2</ele>
        <time>2025-09-16T12:40:51Z</time>
      </trkpt>
      <trkpt lat="43.63195" lon="2.26801">
        <ele>180.4</ele>
        <time>2025-09-16T12:40:52Z</time>
      </trkpt>
      <trkpt lat="43.63194" lon="2.26811">
        <ele>180.4</ele>
        <time>2025-09-16T12:40:53Z</time>
      </trkpt>
      <trkpt lat="43.63193" lon="2.26818">
        <ele>180.4</ele>
        <time>2025-09-16T12:40:54Z</time>
      </trkpt>
      <trkpt lat="43.63193" lon="2.26825">
        <ele>180.4</ele>
        <time>2025-09-16T12:40:55Z</time>
      </trkpt>
      <trkpt lat="43.63193" lon="2.26832">
        <ele>180.4</ele>
        <time>2025-09-16T12:40:56Z</time>
      </trkpt>
      <trkpt lat="43.63193" lon="2.26838">
        <ele>180.4</ele>
        <time>2025-09-16T12:40:57Z</time>
      </trkpt>
      <trkpt lat="43.63193" lon="2.26846">
        <ele>180.4</ele>
        <time>2025-09-16T12:40:58Z</time>
      </trkpt>
      <trkpt lat="43.63193" lon="2.26854">
        <ele>180.2</ele>
        <time>2025-09-16T12:40:59Z</time>
      </trkpt>
      <trkpt lat="43.63192" lon="2.26862">
        <ele>180.2</ele>
        <time>2025-09-16T12:41:00Z</time>
      </trkpt>
      <trkpt lat="43.63192" lon="2.26869">
        <ele>180.2</ele>
        <time>2025-09-16T12:41:01Z</time>
      </trkpt>
      <trkpt lat="43.63192" lon="2.26877">
        <ele>180.2</ele>
        <time>2025-09-16T12:41:02Z</time>
      </trkpt>
      <trkpt lat="43.63191" lon="2.26885">
        <ele>180.2</ele>
        <time>2025-09-16T12:41:03Z</time>
      </trkpt>
      <trkpt lat="43.63191" lon="2.26892">
        <ele>180.2</ele>
        <time>2025-09-16T12:41:04Z</time>
      </trkpt>
      <trkpt lat="43.6319" lon="2.26899">
        <ele>180.2</ele>
        <time>2025-09-16T12:41:05Z</time>
      </trkpt>
      <trkpt lat="43.63189" lon="2.26907">
        <ele>180.2</ele>
        <time>2025-09-16T12:41:06Z</time>
      </trkpt>
      <trkpt lat="43.63186" lon="2.26914">
        <ele>180.2</ele>
        <time>2025-09-16T12:41:07Z</time>
      </trkpt>
      <trkpt lat="43.63183" lon="2.2692">
        <ele>180.2</ele>
        <time>2025-09-16T12:41:08Z</time>
      </trkpt>
      <trkpt lat="43.63179" lon="2.26925">
        <ele>180.2</ele>
        <time>2025-09-16T12:41:09Z</time>
      </trkpt>
      <trkpt lat="43.63174" lon="2.26929">
        <ele>180.2</ele>
        <time>2025-09-16T12:41:10Z</time>
      </trkpt>
      <trkpt lat="43.63169" lon="2.26932">
        <ele>180.4</ele>
        <time>2025-09-16T12:41:11Z</time>
      </trkpt>
      <trkpt lat="43.63164" lon="2.26934">
        <ele>180.6</ele>
        <time>2025-09-16T12:41:12Z</time>
      </trkpt>
      <trkpt lat="43.63159" lon="2.26935">
        <ele>181</ele>
        <time>2025-09-16T12:41:13Z</time>
      </trkpt>
      <trkpt lat="43.63154" lon="2.26937">
        <ele>181.4</ele>
        <time>2025-09-16T12:41:14Z</time>
      </trkpt>
      <trkpt lat="43.63149" lon="2.26938">
        <ele>181.6</ele>
        <time>2025-09-16T12:41:15Z</time>
      </trkpt>
      <trkpt lat="43.63144" lon="2.26939">
        <ele>182</ele>
        <time>2025-09-16T12:41:16Z</time>
      </trkpt>
      <trkpt lat="43.63139" lon="2.26939">
        <ele>182</ele>
        <time>2025-09-16T12:41:17Z</time>
      </trkpt>
      <trkpt lat="43.63134" lon="2.2694">
        <ele>182</ele>
        <time>2025-09-16T12:41:18Z</time>
      </trkpt>
      <trkpt lat="43.63128" lon="2.26941">
        <ele>182</ele>
        <time>2025-09-16T12:41:19Z</time>
      </trkpt>
      <trkpt lat="43.63123" lon="2.26941">
        <ele>182</ele>
        <time>2025-09-16T12:41:20Z</time>
      </trkpt>
      <trkpt lat="43.63117" lon="2.26942">
        <ele>182</ele>
        <time>2025-09-16T12:41:21Z</time>
      </trkpt>
      <trkpt lat="43.63112" lon="2.26942">
        <ele>181.8</ele>
        <time>2025-09-16T12:41:22Z</time>
      </trkpt>
      <trkpt lat="43.63106" lon="2.26943">
        <ele>181.8</ele>
        <time>2025-09-16T12:41:23Z</time>
      </trkpt>
      <trkpt lat="43.63101" lon="2.26944">
        <ele>182</ele>
        <time>2025-09-16T12:41:24Z</time>
      </trkpt>
      <trkpt lat="43.63095" lon="2.26945">
        <ele>182</ele>
        <time>2025-09-16T12:41:25Z</time>
      </trkpt>
      <trkpt lat="43.63089" lon="2.26946">
        <ele>182.2</ele>
        <time>2025-09-16T12:41:26Z</time>
      </trkpt>
      <trkpt lat="43.63083" lon="2.26947">
        <ele>182.4</ele>
        <time>2025-09-16T12:41:27Z</time>
      </trkpt>
      <trkpt lat="43.63078" lon="2.26948">
        <ele>182.4</ele>
        <time>2025-09-16T12:41:28Z</time>
      </trkpt>
      <trkpt lat="43.63072" lon="2.26948">
        <ele>182.4</ele>
        <time>2025-09-16T12:41:29Z</time>
      </trkpt>
      <trkpt lat="43.63066" lon="2.26949">
        <ele>182.4</ele>
        <time>2025-09-16T12:41:30Z</time>
      </trkpt>
      <trkpt lat="43.63061" lon="2.2695">
        <ele>182.6</ele>
        <time>2025-09-16T12:41:31Z</time>
      </trkpt>
      <trkpt lat="43.63056" lon="2.26952">
        <ele>182.8</ele>
        <time>2025-09-16T12:41:32Z</time>
      </trkpt>
      <trkpt lat="43.63052" lon="2.26955">
        <ele>183.4</ele>
        <time>2025-09-16T12:41:33Z</time>
      </trkpt>
      <trkpt lat="43.63049" lon="2.26958">
        <ele>184</ele>
        <time>2025-09-16T12:41:34Z</time>
      </trkpt>
      <trkpt lat="43.63046" lon="2.26962">
        <ele>184.6</ele>
        <time>2025-09-16T12:41:35Z</time>
      </trkpt>
      <trkpt lat="43.63045" lon="2.26967">
        <ele>185.2</ele>
        <time>2025-09-16T12:41:36Z</time>
      </trkpt>
      <trkpt lat="43.63045" lon="2.26973">
        <ele>185.6</ele>
        <time>2025-09-16T12:41:37Z</time>
      </trkpt>
      <trkpt lat="43.63045" lon="2.26979">
        <ele>186</ele>
        <time>2025-09-16T12:41:38Z</time>
      </trkpt>
      <trkpt lat="43.63046" lon="2.26985">
        <ele>186.4</ele>
        <time>2025-09-16T12:41:39Z</time>
      </trkpt>
      <trkpt lat="43.63047" lon="2.26992">
        <ele>186.4</ele>
        <time>2025-09-16T12:41:40Z</time>
      </trkpt>
      <trkpt lat="43.63048" lon="2.26998">
        <ele>186.6</ele>
        <time>2025-09-16T12:41:41Z</time>
      </trkpt>
      <trkpt lat="43.63049" lon="2.27005">
        <ele>186.6</ele>
        <time>2025-09-16T12:41:42Z</time>
      </trkpt>
      <trkpt lat="43.6305" lon="2.27011">
        <ele>186.6</ele>
        <time>2025-09-16T12:41:43Z</time>
      </trkpt>
      <trkpt lat="43.63051" lon="2.27017">
        <ele>186.6</ele>
        <time>2025-09-16T12:41:44Z</time>
      </trkpt>
      <trkpt lat="43.63052" lon="2.27024">
        <ele>186.6</ele>
        <time>2025-09-16T12:41:45Z</time>
      </trkpt>
      <trkpt lat="43.63053" lon="2.2703">
        <ele>186.6</ele>
        <time>2025-09-16T12:41:46Z</time>
      </trkpt>
      <trkpt lat="43.63053" lon="2.27036">
        <ele>186.8</ele>
        <time>2025-09-16T12:41:47Z</time>
      </trkpt>
      <trkpt lat="43.63054" lon="2.27043">
        <ele>186.8</ele>
        <time>2025-09-16T12:41:48Z</time>
      </trkpt>
      <trkpt lat="43.63054" lon="2.27049">
        <ele>186.8</ele>
        <time>2025-09-16T12:41:49Z</time>
      </trkpt>
      <trkpt lat="43.63054" lon="2.27056">
        <ele>186.8</ele>
        <time>2025-09-16T12:41:50Z</time>
      </trkpt>
      <trkpt lat="43.63054" lon="2.27062">
        <ele>187</ele>
        <time>2025-09-16T12:41:51Z</time>
      </trkpt>
      <trkpt lat="43.63054" lon="2.27068">
        <ele>187</ele>
        <time>2025-09-16T12:41:52Z</time>
      </trkpt>
      <trkpt lat="43.63054" lon="2.27075">
        <ele>187</ele>
        <time>2025-09-16T12:41:53Z</time>
      </trkpt>
      <trkpt lat="43.63054" lon="2.27082">
        <ele>187.2</ele>
        <time>2025-09-16T12:41:54Z</time>
      </trkpt>
      <trkpt lat="43.63055" lon="2.27088">
        <ele>187.2</ele>
        <time>2025-09-16T12:41:55Z</time>
      </trkpt>
      <trkpt lat="43.63055" lon="2.27094">
        <ele>187.2</ele>
        <time>2025-09-16T12:41:56Z</time>
      </trkpt>
      <trkpt lat="43.63056" lon="2.27101">
        <ele>187.2</ele>
        <time>2025-09-16T12:41:57Z</time>
      </trkpt>
      <trkpt lat="43.63057" lon="2.27107">
        <ele>187.2</ele>
        <time>2025-09-16T12:41:58Z</time>
      </trkpt>
      <trkpt lat="43.63058" lon="2.27113">
        <ele>187.2</ele>
        <time>2025-09-16T12:41:59Z</time>
      </trkpt>
      <trkpt lat="43.63059" lon="2.2712">
        <ele>187.2</ele>
        <time>2025-09-16T12:42:00Z</time>
      </trkpt>
      <trkpt lat="43.63059" lon="2.27126">
        <ele>187.4</ele>
        <time>2025-09-16T12:42:01Z</time>
      </trkpt>
      <trkpt lat="43.63059" lon="2.27133">
        <ele>187.4</ele>
        <time>2025-09-16T12:42:02Z</time>
      </trkpt>
      <trkpt lat="43.6306" lon="2.27139">
        <ele>187.4</ele>
        <time>2025-09-16T12:42:03Z</time>
      </trkpt>
      <trkpt lat="43.6306" lon="2.27146">
        <ele>187.4</ele>
        <time>2025-09-16T12:42:04Z</time>
      </trkpt>
      <trkpt lat="43.63061" lon="2.27153">
        <ele>187.4</ele>
        <time>2025-09-16T12:42:05Z</time>
      </trkpt>
      <trkpt lat="43.63061" lon="2.27159">
        <ele>187.4</ele>
        <time>2025-09-16T12:42:06Z</time>
      </trkpt>
      <trkpt lat="43.63061" lon="2.27166">
        <ele>187.4</ele>
        <time>2025-09-16T12:42:07Z</time>
      </trkpt>
      <trkpt lat="43.63061" lon="2.27172">
        <ele>187.6</ele>
        <time>2025-09-16T12:42:08Z</time>
      </trkpt>
      <trkpt lat="43.63061" lon="2.27179">
        <ele>187.6</ele>
        <time>2025-09-16T12:42:09Z</time>
      </trkpt>
      <trkpt lat="43.63061" lon="2.27186">
        <ele>187.6</ele>
        <time>2025-09-16T12:42:10Z</time>
      </trkpt>
      <trkpt lat="43.63062" lon="2.27192">
        <ele>187.6</ele>
        <time>2025-09-16T12:42:11Z</time>
      </trkpt>
      <trkpt lat="43.63063" lon="2.27199">
        <ele>187.6</ele>
        <time>2025-09-16T12:42:12Z</time>
      </trkpt>
      <trkpt lat="43.63063" lon="2.27205">
        <ele>187.4</ele>
        <time>2025-09-16T12:42:13Z</time>
      </trkpt>
      <trkpt lat="43.63064" lon="2.27212">
        <ele>187.4</ele>
        <time>2025-09-16T12:42:14Z</time>
      </trkpt>
      <trkpt lat="43.63064" lon="2.27218">
        <ele>187.4</ele>
        <time>2025-09-16T12:42:15Z</time>
      </trkpt>
      <trkpt lat="43.63065" lon="2.27225">
        <ele>187.4</ele>
        <time>2025-09-16T12:42:16Z</time>
      </trkpt>
      <trkpt lat="43.63065" lon="2.27231">
        <ele>187.4</ele>
        <time>2025-09-16T12:42:17Z</time>
      </trkpt>
      <trkpt lat="43.63066" lon="2.27238">
        <ele>187.6</ele>
        <time>2025-09-16T12:42:18Z</time>
      </trkpt>
      <trkpt lat="43.63066" lon="2.27244">
        <ele>187.6</ele>
        <time>2025-09-16T12:42:19Z</time>
      </trkpt>
      <trkpt lat="43.63066" lon="2.27251">
        <ele>187.6</ele>
        <time>2025-09-16T12:42:20Z</time>
      </trkpt>
      <trkpt lat="43.63066" lon="2.27258">
        <ele>187.6</ele>
        <time>2025-09-16T12:42:21Z</time>
      </trkpt>
      <trkpt lat="43.63066" lon="2.27265">
        <ele>187.6</ele>
        <time>2025-09-16T12:42:22Z</time>
      </trkpt>
      <trkpt lat="43.63066" lon="2.27271">
        <ele>187.8</ele>
        <time>2025-09-16T12:42:23Z</time>
      </trkpt>
      <trkpt lat="43.63067" lon="2.27278">
        <ele>187.8</ele>
        <time>2025-09-16T12:42:24Z</time>
      </trkpt>
      <trkpt lat="43.63067" lon="2.27284">
        <ele>187.8</ele>
        <time>2025-09-16T12:42:25Z</time>
      </trkpt>
      <trkpt lat="43.63068" lon="2.27291">
        <ele>187.8</ele>
        <time>2025-09-16T12:42:26Z</time>
      </trkpt>
      <trkpt lat="43.63069" lon="2.27298">
        <ele>187.8</ele>
        <time>2025-09-16T12:42:27Z</time>
      </trkpt>
      <trkpt lat="43.6307" lon="2.27305">
        <ele>187.8</ele>
        <time>2025-09-16T12:42:28Z</time>
      </trkpt>
      <trkpt lat="43.63071" lon="2.27311">
        <ele>187.6</ele>
        <time>2025-09-16T12:42:29Z</time>
      </trkpt>
      <trkpt lat="43.63071" lon="2.27318">
        <ele>187.4</ele>
        <time>2025-09-16T12:42:30Z</time>
      </trkpt>
      <trkpt lat="43.63071" lon="2.27325">
        <ele>187.2</ele>
        <time>2025-09-16T12:42:31Z</time>
      </trkpt>
      <trkpt lat="43.63072" lon="2.27332">
        <ele>187</ele>
        <time>2025-09-16T12:42:32Z</time>
      </trkpt>
      <trkpt lat="43.63072" lon="2.27339">
        <ele>186.8</ele>
        <time>2025-09-16T12:42:33Z</time>
      </trkpt>
      <trkpt lat="43.63072" lon="2.27346">
        <ele>186.6</ele>
        <time>2025-09-16T12:42:34Z</time>
      </trkpt>
      <trkpt lat="43.63073" lon="2.27353">
        <ele>186.6</ele>
        <time>2025-09-16T12:42:35Z</time>
      </trkpt>
      <trkpt lat="43.63073" lon="2.2736">
        <ele>186.6</ele>
        <time>2025-09-16T12:42:36Z</time>
      </trkpt>
      <trkpt lat="43.63073" lon="2.27367">
        <ele>186.4</ele>
        <time>2025-09-16T12:42:37Z</time>
      </trkpt>
      <trkpt lat="43.63072" lon="2.27374">
        <ele>186.2</ele>
        <time>2025-09-16T12:42:38Z</time>
      </trkpt>
      <trkpt lat="43.6307" lon="2.27381">
        <ele>186</ele>
        <time>2025-09-16T12:42:39Z</time>
      </trkpt>
      <trkpt lat="43.63066" lon="2.27385">
        <ele>185.8</ele>
        <time>2025-09-16T12:42:40Z</time>
      </trkpt>
      <trkpt lat="43.63062" lon="2.27388">
        <ele>185.8</ele>
        <time>2025-09-16T12:42:41Z</time>
      </trkpt>
      <trkpt lat="43.63057" lon="2.27387">
        <ele>186</ele>
        <time>2025-09-16T12:42:42Z</time>
      </trkpt>
      <trkpt lat="43.63052" lon="2.27386">
        <ele>186.4</ele>
        <time>2025-09-16T12:42:43Z</time>
      </trkpt>
      <trkpt lat="43.63047" lon="2.27385">
        <ele>186.8</ele>
        <time>2025-09-16T12:42:44Z</time>
      </trkpt>
      <trkpt lat="43.63043" lon="2.27384">
        <ele>187.2</ele>
        <time>2025-09-16T12:42:45Z</time>
      </trkpt>
      <trkpt lat="43.63038" lon="2.27383">
        <ele>187.6</ele>
        <time>2025-09-16T12:42:46Z</time>
      </trkpt>
      <trkpt lat="43.63034" lon="2.27382">
        <ele>188</ele>
        <time>2025-09-16T12:42:47Z</time>
      </trkpt>
      <trkpt lat="43.63029" lon="2.27381">
        <ele>188.4</ele>
        <time>2025-09-16T12:42:48Z</time>
      </trkpt>
      <trkpt lat="43.63025" lon="2.2738">
        <ele>188.6</ele>
        <time>2025-09-16T12:42:49Z</time>
      </trkpt>
      <trkpt lat="43.6302" lon="2.27379">
        <ele>189</ele>
        <time>2025-09-16T12:42:50Z</time>
      </trkpt>
      <trkpt lat="43.63016" lon="2.27378">
        <ele>189.2</ele>
        <time>2025-09-16T12:42:51Z</time>
      </trkpt>
      <trkpt lat="43.63011" lon="2.27377">
        <ele>189.6</ele>
        <time>2025-09-16T12:42:52Z</time>
      </trkpt>
      <trkpt lat="43.63007" lon="2.27376">
        <ele>189.8</ele>
        <time>2025-09-16T12:42:53Z</time>
      </trkpt>
      <trkpt lat="43.63002" lon="2.27374">
        <ele>189.8</ele>
        <time>2025-09-16T12:42:54Z</time>
      </trkpt>
      <trkpt lat="43.62997" lon="2.27373">
        <ele>190</ele>
        <time>2025-09-16T12:42:55Z</time>
      </trkpt>
      <trkpt lat="43.62993" lon="2.27371">
        <ele>190</ele>
        <time>2025-09-16T12:42:56Z</time>
      </trkpt>
      <trkpt lat="43.62988" lon="2.2737">
        <ele>190.2</ele>
        <time>2025-09-16T12:42:57Z</time>
      </trkpt>
      <trkpt lat="43.62984" lon="2.27369">
        <ele>190.4</ele>
        <time>2025-09-16T12:42:58Z</time>
      </trkpt>
      <trkpt lat="43.62979" lon="2.27367">
        <ele>190.6</ele>
        <time>2025-09-16T12:42:59Z</time>
      </trkpt>
      <trkpt lat="43.62974" lon="2.27366">
        <ele>190.8</ele>
        <time>2025-09-16T12:43:00Z</time>
      </trkpt>
      <trkpt lat="43.6297" lon="2.27364">
        <ele>190.8</ele>
        <time>2025-09-16T12:43:01Z</time>
      </trkpt>
      <trkpt lat="43.62965" lon="2.27362">
        <ele>191</ele>
        <time>2025-09-16T12:43:02Z</time>
      </trkpt>
      <trkpt lat="43.62961" lon="2.27361">
        <ele>191</ele>
        <time>2025-09-16T12:43:03Z</time>
      </trkpt>
      <trkpt lat="43.62956" lon="2.27359">
        <ele>191.2</ele>
        <time>2025-09-16T12:43:04Z</time>
      </trkpt>
      <trkpt lat="43.62952" lon="2.27357">
        <ele>191.2</ele>
        <time>2025-09-16T12:43:05Z</time>
      </trkpt>
      <trkpt lat="43.62947" lon="2.27355">
        <ele>191</ele>
        <time>2025-09-16T12:43:06Z</time>
      </trkpt>
      <trkpt lat="43.62943" lon="2.27354">
        <ele>191</ele>
        <time>2025-09-16T12:43:07Z</time>
      </trkpt>
      <trkpt lat="43.62938" lon="2.27353">
        <ele>191</ele>
        <time>2025-09-16T12:43:08Z</time>
      </trkpt>
      <trkpt lat="43.62933" lon="2.27351">
        <ele>191</ele>
        <time>2025-09-16T12:43:09Z</time>
      </trkpt>
      <trkpt lat="43.62928" lon="2.2735">
        <ele>191</ele>
        <time>2025-09-16T12:43:10Z</time>
      </trkpt>
      <trkpt lat="43.62923" lon="2.2735">
        <ele>191</ele>
        <time>2025-09-16T12:43:11Z</time>
      </trkpt>
      <trkpt lat="43.62918" lon="2.2735">
        <ele>191</ele>
        <time>2025-09-16T12:43:12Z</time>
      </trkpt>
      <trkpt lat="43.62913" lon="2.27349">
        <ele>191</ele>
        <time>2025-09-16T12:43:13Z</time>
      </trkpt>
      <trkpt lat="43.62908" lon="2.27347">
        <ele>191.2</ele>
        <time>2025-09-16T12:43:14Z</time>
      </trkpt>
      <trkpt lat="43.62903" lon="2.27346">
        <ele>191.2</ele>
        <time>2025-09-16T12:43:15Z</time>
      </trkpt>
      <trkpt lat="43.62898" lon="2.27344">
        <ele>191.2</ele>
        <time>2025-09-16T12:43:16Z</time>
      </trkpt>
      <trkpt lat="43.62893" lon="2.27342">
        <ele>191.2</ele>
        <time>2025-09-16T12:43:17Z</time>
      </trkpt>
      <trkpt lat="43.62889" lon="2.27341">
        <ele>191.2</ele>
        <time>2025-09-16T12:43:18Z</time>
      </trkpt>
      <trkpt lat="43.62884" lon="2.27339">
        <ele>191.2</ele>
        <time>2025-09-16T12:43:19Z</time>
      </trkpt>
      <trkpt lat="43.62879" lon="2.27337">
        <ele>191.2</ele>
        <time>2025-09-16T12:43:20Z</time>
      </trkpt>
      <trkpt lat="43.62874" lon="2.27336">
        <ele>191.2</ele>
        <time>2025-09-16T12:43:21Z</time>
      </trkpt>
      <trkpt lat="43.62869" lon="2.27335">
        <ele>191.2</ele>
        <time>2025-09-16T12:43:22Z</time>
      </trkpt>
      <trkpt lat="43.62865" lon="2.27336">
        <ele>191.2</ele>
        <time>2025-09-16T12:43:23Z</time>
      </trkpt>
      <trkpt lat="43.6286" lon="2.27338">
        <ele>191.2</ele>
        <time>2025-09-16T12:43:24Z</time>
      </trkpt>
      <trkpt lat="43.62857" lon="2.27343">
        <ele>191.2</ele>
        <time>2025-09-16T12:43:25Z</time>
      </trkpt>
      <trkpt lat="43.62856" lon="2.27349">
        <ele>191.4</ele>
        <time>2025-09-16T12:43:26Z</time>
      </trkpt>
      <trkpt lat="43.62857" lon="2.27356">
        <ele>191.4</ele>
        <time>2025-09-16T12:43:27Z</time>
      </trkpt>
      <trkpt lat="43.6286" lon="2.27362">
        <ele>191.4</ele>
        <time>2025-09-16T12:43:28Z</time>
      </trkpt>
      <trkpt lat="43.62862" lon="2.27368">
        <ele>191.2</ele>
        <time>2025-09-16T12:43:29Z</time>
      </trkpt>
      <trkpt lat="43.62864" lon="2.27375">
        <ele>191.2</ele>
        <time>2025-09-16T12:43:30Z</time>
      </trkpt>
      <trkpt lat="43.62866" lon="2.27381">
        <ele>191.2</ele>
        <time>2025-09-16T12:43:31Z</time>
      </trkpt>
      <trkpt lat="43.62869" lon="2.27388">
        <ele>191</ele>
        <time>2025-09-16T12:43:32Z</time>
      </trkpt>
      <trkpt lat="43.62871" lon="2.27394">
        <ele>191</ele>
        <time>2025-09-16T12:43:33Z</time>
      </trkpt>
      <trkpt lat="43.62873" lon="2.27401">
        <ele>190.8</ele>
        <time>2025-09-16T12:43:34Z</time>
      </trkpt>
      <trkpt lat="43.62875" lon="2.27407">
        <ele>190.4</ele>
        <time>2025-09-16T12:43:35Z</time>
      </trkpt>
      <trkpt lat="43.62877" lon="2.27413">
        <ele>190.2</ele>
        <time>2025-09-16T12:43:36Z</time>
      </trkpt>
      <trkpt lat="43.62879" lon="2.27419">
        <ele>190</ele>
        <time>2025-09-16T12:43:37Z</time>
      </trkpt>
      <trkpt lat="43.62881" lon="2.27426">
        <ele>190</ele>
        <time>2025-09-16T12:43:38Z</time>
      </trkpt>
      <trkpt lat="43.62884" lon="2.27432">
        <ele>190.2</ele>
        <time>2025-09-16T12:43:39Z</time>
      </trkpt>
      <trkpt lat="43.62886" lon="2.27438">
        <ele>190.4</ele>
        <time>2025-09-16T12:43:40Z</time>
      </trkpt>
      <trkpt lat="43.62888" lon="2.27445">
        <ele>190.4</ele>
        <time>2025-09-16T12:43:41Z</time>
      </trkpt>
      <trkpt lat="43.6289" lon="2.27451">
        <ele>190.6</ele>
        <time>2025-09-16T12:43:42Z</time>
      </trkpt>
      <trkpt lat="43.62892" lon="2.27458">
        <ele>190.6</ele>
        <time>2025-09-16T12:43:43Z</time>
      </trkpt>
      <trkpt lat="43.62895" lon="2.27464">
        <ele>190.6</ele>
        <time>2025-09-16T12:43:44Z</time>
      </trkpt>
      <trkpt lat="43.62898" lon="2.27469">
        <ele>190.4</ele>
        <time>2025-09-16T12:43:45Z</time>
      </trkpt>
      <trkpt lat="43.629" lon="2.27476">
        <ele>190.4</ele>
        <time>2025-09-16T12:43:46Z</time>
      </trkpt>
      <trkpt lat="43.62902" lon="2.27482">
        <ele>190.4</ele>
        <time>2025-09-16T12:43:47Z</time>
      </trkpt>
      <trkpt lat="43.62904" lon="2.27489">
        <ele>190.6</ele>
        <time>2025-09-16T12:43:48Z</time>
      </trkpt>
      <trkpt lat="43.62905" lon="2.27495">
        <ele>190.6</ele>
        <time>2025-09-16T12:43:49Z</time>
      </trkpt>
      <trkpt lat="43.62907" lon="2.27502">
        <ele>190.6</ele>
        <time>2025-09-16T12:43:50Z</time>
      </trkpt>
      <trkpt lat="43.62909" lon="2.27509">
        <ele>190.6</ele>
        <time>2025-09-16T12:43:51Z</time>
      </trkpt>
      <trkpt lat="43.6291" lon="2.27515">
        <ele>190.8</ele>
        <time>2025-09-16T12:43:52Z</time>
      </trkpt>
      <trkpt lat="43.62913" lon="2.27521">
        <ele>190.8</ele>
        <time>2025-09-16T12:43:53Z</time>
      </trkpt>
      <trkpt lat="43.62915" lon="2.27528">
        <ele>190.8</ele>
        <time>2025-09-16T12:43:54Z</time>
      </trkpt>
      <trkpt lat="43.62917" lon="2.27534">
        <ele>190.8</ele>
        <time>2025-09-16T12:43:55Z</time>
      </trkpt>
      <trkpt lat="43.62919" lon="2.2754">
        <ele>191</ele>
        <time>2025-09-16T12:43:56Z</time>
      </trkpt>
      <trkpt lat="43.62921" lon="2.27545">
        <ele>191.2</ele>
        <time>2025-09-16T12:43:57Z</time>
      </trkpt>
      <trkpt lat="43.62923" lon="2.27551">
        <ele>191.2</ele>
        <time>2025-09-16T12:43:58Z</time>
      </trkpt>
      <trkpt lat="43.62925" lon="2.27557">
        <ele>191.4</ele>
        <time>2025-09-16T12:43:59Z</time>
      </trkpt>
      <trkpt lat="43.62928" lon="2.27563">
        <ele>191.2</ele>
        <time>2025-09-16T12:44:00Z</time>
      </trkpt>
      <trkpt lat="43.6293" lon="2.27569">
        <ele>191.2</ele>
        <time>2025-09-16T12:44:01Z</time>
      </trkpt>
      <trkpt lat="43.62932" lon="2.27576">
        <ele>191.2</ele>
        <time>2025-09-16T12:44:02Z</time>
      </trkpt>
      <trkpt lat="43.62934" lon="2.27582">
        <ele>191.2</ele>
        <time>2025-09-16T12:44:03Z</time>
      </trkpt>
      <trkpt lat="43.62936" lon="2.27588">
        <ele>191</ele>
        <time>2025-09-16T12:44:04Z</time>
      </trkpt>
      <trkpt lat="43.62938" lon="2.27594">
        <ele>191.2</ele>
        <time>2025-09-16T12:44:05Z</time>
      </trkpt>
      <trkpt lat="43.6294" lon="2.276">
        <ele>191.2</ele>
        <time>2025-09-16T12:44:06Z</time>
      </trkpt>
      <trkpt lat="43.62941" lon="2.27607">
        <ele>191.4</ele>
        <time>2025-09-16T12:44:07Z</time>
      </trkpt>
      <trkpt lat="43.62943" lon="2.27613">
        <ele>191.4</ele>
        <time>2025-09-16T12:44:08Z</time>
      </trkpt>
      <trkpt lat="43.62945" lon="2.2762">
        <ele>191.6</ele>
        <time>2025-09-16T12:44:09Z</time>
      </trkpt>
      <trkpt lat="43.62947" lon="2.27626">
        <ele>191.6</ele>
        <time>2025-09-16T12:44:10Z</time>
      </trkpt>
      <trkpt lat="43.62948" lon="2.27632">
        <ele>191.6</ele>
        <time>2025-09-16T12:44:11Z</time>
      </trkpt>
      <trkpt lat="43.62951" lon="2.27638">
        <ele>191.4</ele>
        <time>2025-09-16T12:44:12Z</time>
      </trkpt>
      <trkpt lat="43.62953" lon="2.27644">
        <ele>191.4</ele>
        <time>2025-09-16T12:44:13Z</time>
      </trkpt>
      <trkpt lat="43.62955" lon="2.2765">
        <ele>191.2</ele>
        <time>2025-09-16T12:44:14Z</time>
      </trkpt>
      <trkpt lat="43.62957" lon="2.27656">
        <ele>191.2</ele>
        <time>2025-09-16T12:44:15Z</time>
      </trkpt>
      <trkpt lat="43.62959" lon="2.27662">
        <ele>191.2</ele>
        <time>2025-09-16T12:44:16Z</time>
      </trkpt>
      <trkpt lat="43.62961" lon="2.27669">
        <ele>191.2</ele>
        <time>2025-09-16T12:44:17Z</time>
      </trkpt>
      <trkpt lat="43.62963" lon="2.27675">
        <ele>191.2</ele>
        <time>2025-09-16T12:44:18Z</time>
      </trkpt>
      <trkpt lat="43.62965" lon="2.27681">
        <ele>191.2</ele>
        <time>2025-09-16T12:44:19Z</time>
      </trkpt>
      <trkpt lat="43.62968" lon="2.27687">
        <ele>191.2</ele>
        <time>2025-09-16T12:44:20Z</time>
      </trkpt>
      <trkpt lat="43.6297" lon="2.27693">
        <ele>191.2</ele>
        <time>2025-09-16T12:44:21Z</time>
      </trkpt>
      <trkpt lat="43.62972" lon="2.27699">
        <ele>191.4</ele>
        <time>2025-09-16T12:44:22Z</time>
      </trkpt>
      <trkpt lat="43.62974" lon="2.27706">
        <ele>191.6</ele>
        <time>2025-09-16T12:44:23Z</time>
      </trkpt>
      <trkpt lat="43.62976" lon="2.27712">
        <ele>191.8</ele>
        <time>2025-09-16T12:44:24Z</time>
      </trkpt>
      <trkpt lat="43.62978" lon="2.27718">
        <ele>191.8</ele>
        <time>2025-09-16T12:44:25Z</time>
      </trkpt>
      <trkpt lat="43.6298" lon="2.27725">
        <ele>191.8</ele>
        <time>2025-09-16T12:44:26Z</time>
      </trkpt>
      <trkpt lat="43.62981" lon="2.27732">
        <ele>191.8</ele>
        <time>2025-09-16T12:44:27Z</time>
      </trkpt>
      <trkpt lat="43.62981" lon="2.27739">
        <ele>191.8</ele>
        <time>2025-09-16T12:44:28Z</time>
      </trkpt>
      <trkpt lat="43.62981" lon="2.27746">
        <ele>192</ele>
        <time>2025-09-16T12:44:29Z</time>
      </trkpt>
      <trkpt lat="43.6298" lon="2.27752">
        <ele>192</ele>
        <time>2025-09-16T12:44:30Z</time>
      </trkpt>
      <trkpt lat="43.62978" lon="2.27757">
        <ele>192</ele>
        <time>2025-09-16T12:44:31Z</time>
      </trkpt>
      <trkpt lat="43.62975" lon="2.27762">
        <ele>192.4</ele>
        <time>2025-09-16T12:44:32Z</time>
      </trkpt>
      <trkpt lat="43.62973" lon="2.27766">
        <ele>192.8</ele>
        <time>2025-09-16T12:44:33Z</time>
      </trkpt>
      <trkpt lat="43.62971" lon="2.2777">
        <ele>193.4</ele>
        <time>2025-09-16T12:44:34Z</time>
      </trkpt>
      <trkpt lat="43.62971" lon="2.27775">
        <ele>193.8</ele>
        <time>2025-09-16T12:44:35Z</time>
      </trkpt>
      <trkpt lat="43.6297" lon="2.2778">
        <ele>194</ele>
        <time>2025-09-16T12:44:36Z</time>
      </trkpt>
      <trkpt lat="43.62971" lon="2.27786">
        <ele>194.4</ele>
        <time>2025-09-16T12:44:37Z</time>
      </trkpt>
      <trkpt lat="43.62972" lon="2.27791">
        <ele>194.4</ele>
        <time>2025-09-16T12:44:38Z</time>
      </trkpt>
      <trkpt lat="43.62973" lon="2.27797">
        <ele>194.4</ele>
        <time>2025-09-16T12:44:39Z</time>
      </trkpt>
      <trkpt lat="43.62974" lon="2.27804">
        <ele>194.4</ele>
        <time>2025-09-16T12:44:40Z</time>
      </trkpt>
      <trkpt lat="43.62975" lon="2.2781">
        <ele>194.6</ele>
        <time>2025-09-16T12:44:41Z</time>
      </trkpt>
      <trkpt lat="43.62976" lon="2.27816">
        <ele>194.6</ele>
        <time>2025-09-16T12:44:42Z</time>
      </trkpt>
      <trkpt lat="43.62977" lon="2.27823">
        <ele>194.6</ele>
        <time>2025-09-16T12:44:43Z</time>
      </trkpt>
      <trkpt lat="43.62978" lon="2.27828">
        <ele>194.8</ele>
        <time>2025-09-16T12:44:44Z</time>
      </trkpt>
      <trkpt lat="43.6298" lon="2.27833">
        <ele>195</ele>
        <time>2025-09-16T12:44:45Z</time>
      </trkpt>
      <trkpt lat="43.62981" lon="2.27839">
        <ele>195</ele>
        <time>2025-09-16T12:44:46Z</time>
      </trkpt>
      <trkpt lat="43.62982" lon="2.27844">
        <ele>195.2</ele>
        <time>2025-09-16T12:44:47Z</time>
      </trkpt>
      <trkpt lat="43.62984" lon="2.2785">
        <ele>195.4</ele>
        <time>2025-09-16T12:44:48Z</time>
      </trkpt>
      <trkpt lat="43.62985" lon="2.27856">
        <ele>195.6</ele>
        <time>2025-09-16T12:44:49Z</time>
      </trkpt>
      <trkpt lat="43.62986" lon="2.27862">
        <ele>195.6</ele>
        <time>2025-09-16T12:44:50Z</time>
      </trkpt>
      <trkpt lat="43.62988" lon="2.27866">
        <ele>195.8</ele>
        <time>2025-09-16T12:44:51Z</time>
      </trkpt>
      <trkpt lat="43.6299" lon="2.27872">
        <ele>195.8</ele>
        <time>2025-09-16T12:44:52Z</time>
      </trkpt>
      <trkpt lat="43.62993" lon="2.27878">
        <ele>195.8</ele>
        <time>2025-09-16T12:44:53Z</time>
      </trkpt>
      <trkpt lat="43.62995" lon="2.27884">
        <ele>195.6</ele>
        <time>2025-09-16T12:44:54Z</time>
      </trkpt>
      <trkpt lat="43.62997" lon="2.2789">
        <ele>195.4</ele>
        <time>2025-09-16T12:44:55Z</time>
      </trkpt>
      <trkpt lat="43.62999" lon="2.27896">
        <ele>195.2</ele>
        <time>2025-09-16T12:44:56Z</time>
      </trkpt>
      <trkpt lat="43.63001" lon="2.27903">
        <ele>195</ele>
        <time>2025-09-16T12:44:57Z</time>
      </trkpt>
      <trkpt lat="43.63002" lon="2.27911">
        <ele>195</ele>
        <time>2025-09-16T12:44:58Z</time>
      </trkpt>
      <trkpt lat="43.63004" lon="2.27918">
        <ele>194.8</ele>
        <time>2025-09-16T12:44:59Z</time>
      </trkpt>
      <trkpt lat="43.63005" lon="2.27925">
        <ele>194.8</ele>
        <time>2025-09-16T12:45:00Z</time>
      </trkpt>
      <trkpt lat="43.63006" lon="2.27933">
        <ele>194.8</ele>
        <time>2025-09-16T12:45:01Z</time>
      </trkpt>
      <trkpt lat="43.63006" lon="2.27939">
        <ele>194.8</ele>
        <time>2025-09-16T12:45:02Z</time>
      </trkpt>
      <trkpt lat="43.63007" lon="2.27947">
        <ele>194.8</ele>
        <time>2025-09-16T12:45:03Z</time>
      </trkpt>
      <trkpt lat="43.63007" lon="2.27954">
        <ele>194.8</ele>
        <time>2025-09-16T12:45:04Z</time>
      </trkpt>
      <trkpt lat="43.63008" lon="2.2796">
        <ele>194.8</ele>
        <time>2025-09-16T12:45:05Z</time>
      </trkpt>
      <trkpt lat="43.63009" lon="2.27968">
        <ele>195</ele>
        <time>2025-09-16T12:45:06Z</time>
      </trkpt>
      <trkpt lat="43.6301" lon="2.27974">
        <ele>195</ele>
        <time>2025-09-16T12:45:07Z</time>
      </trkpt>
      <trkpt lat="43.6301" lon="2.27981">
        <ele>195.2</ele>
        <time>2025-09-16T12:45:08Z</time>
      </trkpt>
      <trkpt lat="43.6301" lon="2.27988">
        <ele>195.2</ele>
        <time>2025-09-16T12:45:09Z</time>
      </trkpt>
      <trkpt lat="43.6301" lon="2.27993">
        <ele>195.2</ele>
        <time>2025-09-16T12:45:10Z</time>
      </trkpt>
      <trkpt lat="43.63011" lon="2.28001">
        <ele>195.2</ele>
        <time>2025-09-16T12:45:11Z</time>
      </trkpt>
      <trkpt lat="43.63012" lon="2.28008">
        <ele>195.2</ele>
        <time>2025-09-16T12:45:12Z</time>
      </trkpt>
      <trkpt lat="43.63014" lon="2.28016">
        <ele>195.2</ele>
        <time>2025-09-16T12:45:13Z</time>
      </trkpt>
      <trkpt lat="43.63014" lon="2.28025">
        <ele>195.2</ele>
        <time>2025-09-16T12:45:14Z</time>
      </trkpt>
      <trkpt lat="43.63016" lon="2.28031">
        <ele>195.2</ele>
        <time>2025-09-16T12:45:15Z</time>
      </trkpt>
      <trkpt lat="43.63017" lon="2.28038">
        <ele>195.2</ele>
        <time>2025-09-16T12:45:16Z</time>
      </trkpt>
      <trkpt lat="43.63017" lon="2.28044">
        <ele>195.2</ele>
        <time>2025-09-16T12:45:17Z</time>
      </trkpt>
      <trkpt lat="43.63018" lon="2.28052">
        <ele>195.2</ele>
        <time>2025-09-16T12:45:18Z</time>
      </trkpt>
      <trkpt lat="43.63019" lon="2.2806">
        <ele>195.2</ele>
        <time>2025-09-16T12:45:19Z</time>
      </trkpt>
      <trkpt lat="43.63019" lon="2.28068">
        <ele>195.2</ele>
        <time>2025-09-16T12:45:20Z</time>
      </trkpt>
      <trkpt lat="43.6302" lon="2.28077">
        <ele>195.4</ele>
        <time>2025-09-16T12:45:21Z</time>
      </trkpt>
      <trkpt lat="43.6302" lon="2.28084">
        <ele>195.2</ele>
        <time>2025-09-16T12:45:22Z</time>
      </trkpt>
      <trkpt lat="43.63019" lon="2.28091">
        <ele>195.2</ele>
        <time>2025-09-16T12:45:23Z</time>
      </trkpt>
      <trkpt lat="43.63017" lon="2.28098">
        <ele>195.2</ele>
        <time>2025-09-16T12:45:24Z</time>
      </trkpt>
      <trkpt lat="43.63017" lon="2.28104">
        <ele>195.2</ele>
        <time>2025-09-16T12:45:25Z</time>
      </trkpt>
      <trkpt lat="43.63017" lon="2.28112">
        <ele>195.2</ele>
        <time>2025-09-16T12:45:26Z</time>
      </trkpt>
      <trkpt lat="43.63016" lon="2.28119">
        <ele>195.2</ele>
        <time>2025-09-16T12:45:27Z</time>
      </trkpt>
      <trkpt lat="43.63016" lon="2.28127">
        <ele>195.2</ele>
        <time>2025-09-16T12:45:28Z</time>
      </trkpt>
      <trkpt lat="43.63015" lon="2.28135">
        <ele>195.2</ele>
        <time>2025-09-16T12:45:29Z</time>
      </trkpt>
      <trkpt lat="43.63015" lon="2.28141">
        <ele>195.2</ele>
        <time>2025-09-16T12:45:30Z</time>
      </trkpt>
      <trkpt lat="43.63013" lon="2.28148">
        <ele>195.2</ele>
        <time>2025-09-16T12:45:31Z</time>
      </trkpt>
      <trkpt lat="43.6301" lon="2.28155">
        <ele>195.2</ele>
        <time>2025-09-16T12:45:32Z</time>
      </trkpt>
      <trkpt lat="43.63009" lon="2.2816">
        <ele>195.2</ele>
        <time>2025-09-16T12:45:33Z</time>
      </trkpt>
      <trkpt lat="43.63007" lon="2.28166">
        <ele>195.2</ele>
        <time>2025-09-16T12:45:34Z</time>
      </trkpt>
      <trkpt lat="43.63004" lon="2.28174">
        <ele>195</ele>
        <time>2025-09-16T12:45:35Z</time>
      </trkpt>
      <trkpt lat="43.63002" lon="2.28179">
        <ele>195</ele>
        <time>2025-09-16T12:45:36Z</time>
      </trkpt>
      <trkpt lat="43.63001" lon="2.28186">
        <ele>195</ele>
        <time>2025-09-16T12:45:37Z</time>
      </trkpt>
      <trkpt lat="43.63002" lon="2.28195">
        <ele>195</ele>
        <time>2025-09-16T12:45:38Z</time>
      </trkpt>
      <trkpt lat="43.63002" lon="2.28202">
        <ele>195.2</ele>
        <time>2025-09-16T12:45:39Z</time>
      </trkpt>
      <trkpt lat="43.63004" lon="2.28208">
        <ele>195.4</ele>
        <time>2025-09-16T12:45:40Z</time>
      </trkpt>
      <trkpt lat="43.63005" lon="2.28215">
        <ele>195.4</ele>
        <time>2025-09-16T12:45:41Z</time>
      </trkpt>
      <trkpt lat="43.63005" lon="2.28223">
        <ele>195.6</ele>
        <time>2025-09-16T12:45:42Z</time>
      </trkpt>
      <trkpt lat="43.63005" lon="2.2823">
        <ele>195.6</ele>
        <time>2025-09-16T12:45:43Z</time>
      </trkpt>
      <trkpt lat="43.63005" lon="2.28239">
        <ele>195.4</ele>
        <time>2025-09-16T12:45:44Z</time>
      </trkpt>
      <trkpt lat="43.63005" lon="2.28246">
        <ele>195.4</ele>
        <time>2025-09-16T12:45:45Z</time>
      </trkpt>
      <trkpt lat="43.63005" lon="2.28253">
        <ele>195.4</ele>
        <time>2025-09-16T12:45:46Z</time>
      </trkpt>
      <trkpt lat="43.63005" lon="2.28262">
        <ele>195.4</ele>
        <time>2025-09-16T12:45:47Z</time>
      </trkpt>
      <trkpt lat="43.63003" lon="2.2827">
        <ele>195.2</ele>
        <time>2025-09-16T12:45:48Z</time>
      </trkpt>
      <trkpt lat="43.63002" lon="2.28279">
        <ele>195.2</ele>
        <time>2025-09-16T12:45:49Z</time>
      </trkpt>
      <trkpt lat="43.63001" lon="2.28289">
        <ele>195.2</ele>
        <time>2025-09-16T12:45:50Z</time>
      </trkpt>
      <trkpt lat="43.63001" lon="2.28295">
        <ele>195</ele>
        <time>2025-09-16T12:45:51Z</time>
      </trkpt>
      <trkpt lat="43.63001" lon="2.28302">
        <ele>195</ele>
        <time>2025-09-16T12:45:52Z</time>
      </trkpt>
      <trkpt lat="43.63001" lon="2.2831">
        <ele>195</ele>
        <time>2025-09-16T12:45:53Z</time>
      </trkpt>
      <trkpt lat="43.63001" lon="2.28316">
        <ele>195</ele>
        <time>2025-09-16T12:45:54Z</time>
      </trkpt>
      <trkpt lat="43.63" lon="2.28323">
        <ele>195</ele>
        <time>2025-09-16T12:45:55Z</time>
      </trkpt>
      <trkpt lat="43.62998" lon="2.28332">
        <ele>195</ele>
        <time>2025-09-16T12:45:56Z</time>
      </trkpt>
      <trkpt lat="43.62996" lon="2.2834">
        <ele>195.2</ele>
        <time>2025-09-16T12:45:57Z</time>
      </trkpt>
      <trkpt lat="43.62995" lon="2.28346">
        <ele>195</ele>
        <time>2025-09-16T12:45:58Z</time>
      </trkpt>
      <trkpt lat="43.62994" lon="2.28354">
        <ele>195</ele>
        <time>2025-09-16T12:45:59Z</time>
      </trkpt>
      <trkpt lat="43.62992" lon="2.28359">
        <ele>195</ele>
        <time>2025-09-16T12:46:00Z</time>
      </trkpt>
      <trkpt lat="43.62989" lon="2.28365">
        <ele>195</ele>
        <time>2025-09-16T12:46:01Z</time>
      </trkpt>
      <trkpt lat="43.62987" lon="2.28371">
        <ele>195.2</ele>
        <time>2025-09-16T12:46:02Z</time>
      </trkpt>
      <trkpt lat="43.62986" lon="2.28377">
        <ele>195.2</ele>
        <time>2025-09-16T12:46:03Z</time>
      </trkpt>
      <trkpt lat="43.62986" lon="2.28384">
        <ele>195.4</ele>
        <time>2025-09-16T12:46:04Z</time>
      </trkpt>
      <trkpt lat="43.62986" lon="2.28391">
        <ele>195.4</ele>
        <time>2025-09-16T12:46:05Z</time>
      </trkpt>
      <trkpt lat="43.62986" lon="2.28396">
        <ele>195.6</ele>
        <time>2025-09-16T12:46:06Z</time>
      </trkpt>
      <trkpt lat="43.62986" lon="2.28402">
        <ele>195.6</ele>
        <time>2025-09-16T12:46:07Z</time>
      </trkpt>
      <trkpt lat="43.62985" lon="2.28409">
        <ele>195.8</ele>
        <time>2025-09-16T12:46:08Z</time>
      </trkpt>
      <trkpt lat="43.62985" lon="2.28416">
        <ele>195.8</ele>
        <time>2025-09-16T12:46:09Z</time>
      </trkpt>
      <trkpt lat="43.62986" lon="2.28425">
        <ele>195.8</ele>
        <time>2025-09-16T12:46:10Z</time>
      </trkpt>
      <trkpt lat="43.62985" lon="2.28434">
        <ele>195.8</ele>
        <time>2025-09-16T12:46:11Z</time>
      </trkpt>
      <trkpt lat="43.62985" lon="2.2844">
        <ele>195.6</ele>
        <time>2025-09-16T12:46:12Z</time>
      </trkpt>
      <trkpt lat="43.62984" lon="2.28447">
        <ele>195.6</ele>
        <time>2025-09-16T12:46:13Z</time>
      </trkpt>
      <trkpt lat="43.62984" lon="2.28455">
        <ele>195.6</ele>
        <time>2025-09-16T12:46:14Z</time>
      </trkpt>
      <trkpt lat="43.62988" lon="2.28463">
        <ele>195.4</ele>
        <time>2025-09-16T12:46:15Z</time>
      </trkpt>
      <trkpt lat="43.62987" lon="2.2847">
        <ele>195.2</ele>
        <time>2025-09-16T12:46:16Z</time>
      </trkpt>
      <trkpt lat="43.62986" lon="2.28479">
        <ele>195</ele>
        <time>2025-09-16T12:46:17Z</time>
      </trkpt>
      <trkpt lat="43.62984" lon="2.28484">
        <ele>195</ele>
        <time>2025-09-16T12:46:18Z</time>
      </trkpt>
      <trkpt lat="43.62982" lon="2.2849">
        <ele>194.8</ele>
        <time>2025-09-16T12:46:19Z</time>
      </trkpt>
      <trkpt lat="43.6298" lon="2.28497">
        <ele>194.8</ele>
        <time>2025-09-16T12:46:20Z</time>
      </trkpt>
      <trkpt lat="43.6298" lon="2.28502">
        <ele>194.8</ele>
        <time>2025-09-16T12:46:21Z</time>
      </trkpt>
      <trkpt lat="43.62981" lon="2.28509">
        <ele>195</ele>
        <time>2025-09-16T12:46:22Z</time>
      </trkpt>
      <trkpt lat="43.62984" lon="2.28517">
        <ele>195.2</ele>
        <time>2025-09-16T12:46:23Z</time>
      </trkpt>
      <trkpt lat="43.62988" lon="2.28525">
        <ele>195.2</ele>
        <time>2025-09-16T12:46:24Z</time>
      </trkpt>
      <trkpt lat="43.62991" lon="2.28532">
        <ele>195.4</ele>
        <time>2025-09-16T12:46:25Z</time>
      </trkpt>
      <trkpt lat="43.62994" lon="2.2854">
        <ele>195.4</ele>
        <time>2025-09-16T12:46:26Z</time>
      </trkpt>
      <trkpt lat="43.62995" lon="2.28548">
        <ele>195.4</ele>
        <time>2025-09-16T12:46:27Z</time>
      </trkpt>
      <trkpt lat="43.62997" lon="2.28556">
        <ele>195.6</ele>
        <time>2025-09-16T12:46:28Z</time>
      </trkpt>
      <trkpt lat="43.62997" lon="2.28564">
        <ele>195.6</ele>
        <time>2025-09-16T12:46:29Z</time>
      </trkpt>
      <trkpt lat="43.62996" lon="2.28572">
        <ele>195.4</ele>
        <time>2025-09-16T12:46:30Z</time>
      </trkpt>
      <trkpt lat="43.62995" lon="2.28579">
        <ele>195.4</ele>
        <time>2025-09-16T12:46:31Z</time>
      </trkpt>
      <trkpt lat="43.62995" lon="2.28586">
        <ele>195.4</ele>
        <time>2025-09-16T12:46:32Z</time>
      </trkpt>
      <trkpt lat="43.62995" lon="2.28594">
        <ele>195.4</ele>
        <time>2025-09-16T12:46:33Z</time>
      </trkpt>
      <trkpt lat="43.62996" lon="2.28601">
        <ele>195.6</ele>
        <time>2025-09-16T12:46:34Z</time>
      </trkpt>
      <trkpt lat="43.62997" lon="2.28609">
        <ele>195.6</ele>
        <time>2025-09-16T12:46:35Z</time>
      </trkpt>
      <trkpt lat="43.62996" lon="2.28616">
        <ele>195.6</ele>
        <time>2025-09-16T12:46:36Z</time>
      </trkpt>
      <trkpt lat="43.62996" lon="2.28624">
        <ele>195.8</ele>
        <time>2025-09-16T12:46:37Z</time>
      </trkpt>
      <trkpt lat="43.62996" lon="2.28633">
        <ele>195.8</ele>
        <time>2025-09-16T12:46:38Z</time>
      </trkpt>
      <trkpt lat="43.62995" lon="2.28638">
        <ele>195.8</ele>
        <time>2025-09-16T12:46:39Z</time>
      </trkpt>
      <trkpt lat="43.62993" lon="2.28647">
        <ele>195.6</ele>
        <time>2025-09-16T12:46:40Z</time>
      </trkpt>
      <trkpt lat="43.62992" lon="2.28655">
        <ele>195.8</ele>
        <time>2025-09-16T12:46:41Z</time>
      </trkpt>
      <trkpt lat="43.62991" lon="2.2866">
        <ele>195.8</ele>
        <time>2025-09-16T12:46:42Z</time>
      </trkpt>
      <trkpt lat="43.62991" lon="2.28667">
        <ele>195.8</ele>
        <time>2025-09-16T12:46:43Z</time>
      </trkpt>
      <trkpt lat="43.62991" lon="2.28674">
        <ele>195.8</ele>
        <time>2025-09-16T12:46:44Z</time>
      </trkpt>
      <trkpt lat="43.6299" lon="2.28682">
        <ele>195.8</ele>
        <time>2025-09-16T12:46:45Z</time>
      </trkpt>
      <trkpt lat="43.6299" lon="2.28688">
        <ele>195.8</ele>
        <time>2025-09-16T12:46:46Z</time>
      </trkpt>
      <trkpt lat="43.6299" lon="2.28695">
        <ele>195.8</ele>
        <time>2025-09-16T12:46:47Z</time>
      </trkpt>
      <trkpt lat="43.62991" lon="2.28702">
        <ele>195.8</ele>
        <time>2025-09-16T12:46:48Z</time>
      </trkpt>
      <trkpt lat="43.6299" lon="2.2871">
        <ele>195.8</ele>
        <time>2025-09-16T12:46:49Z</time>
      </trkpt>
      <trkpt lat="43.62991" lon="2.28716">
        <ele>195.8</ele>
        <time>2025-09-16T12:46:50Z</time>
      </trkpt>
      <trkpt lat="43.62992" lon="2.28723">
        <ele>196</ele>
        <time>2025-09-16T12:46:51Z</time>
      </trkpt>
      <trkpt lat="43.62993" lon="2.28732">
        <ele>196</ele>
        <time>2025-09-16T12:46:52Z</time>
      </trkpt>
      <trkpt lat="43.62993" lon="2.28737">
        <ele>196</ele>
        <time>2025-09-16T12:46:53Z</time>
      </trkpt>
      <trkpt lat="43.62993" lon="2.28744">
        <ele>196</ele>
        <time>2025-09-16T12:46:54Z</time>
      </trkpt>
      <trkpt lat="43.62995" lon="2.28752">
        <ele>196</ele>
        <time>2025-09-16T12:46:55Z</time>
      </trkpt>
      <trkpt lat="43.62996" lon="2.28759">
        <ele>196.2</ele>
        <time>2025-09-16T12:46:56Z</time>
      </trkpt>
      <trkpt lat="43.62996" lon="2.28765">
        <ele>196.2</ele>
        <time>2025-09-16T12:46:57Z</time>
      </trkpt>
      <trkpt lat="43.62998" lon="2.28772">
        <ele>196.2</ele>
        <time>2025-09-16T12:46:58Z</time>
      </trkpt>
      <trkpt lat="43.62999" lon="2.28777">
        <ele>196.2</ele>
        <time>2025-09-16T12:46:59Z</time>
      </trkpt>
      <trkpt lat="43.63001" lon="2.28785">
        <ele>196.2</ele>
        <time>2025-09-16T12:47:00Z</time>
      </trkpt>
      <trkpt lat="43.63003" lon="2.28793">
        <ele>196.2</ele>
        <time>2025-09-16T12:47:01Z</time>
      </trkpt>
      <trkpt lat="43.63005" lon="2.28799">
        <ele>196.2</ele>
        <time>2025-09-16T12:47:02Z</time>
      </trkpt>
      <trkpt lat="43.63007" lon="2.28808">
        <ele>196.2</ele>
        <time>2025-09-16T12:47:03Z</time>
      </trkpt>
      <trkpt lat="43.63008" lon="2.28814">
        <ele>196.2</ele>
        <time>2025-09-16T12:47:04Z</time>
      </trkpt>
      <trkpt lat="43.63008" lon="2.28822">
        <ele>196</ele>
        <time>2025-09-16T12:47:05Z</time>
      </trkpt>
      <trkpt lat="43.63007" lon="2.28831">
        <ele>196</ele>
        <time>2025-09-16T12:47:06Z</time>
      </trkpt>
      <trkpt lat="43.63007" lon="2.28838">
        <ele>196</ele>
        <time>2025-09-16T12:47:07Z</time>
      </trkpt>
      <trkpt lat="43.63008" lon="2.28844">
        <ele>196</ele>
        <time>2025-09-16T12:47:08Z</time>
      </trkpt>
      <trkpt lat="43.63009" lon="2.28852">
        <ele>196</ele>
        <time>2025-09-16T12:47:09Z</time>
      </trkpt>
      <trkpt lat="43.63011" lon="2.28859">
        <ele>196</ele>
        <time>2025-09-16T12:47:10Z</time>
      </trkpt>
      <trkpt lat="43.63014" lon="2.28863">
        <ele>196</ele>
        <time>2025-09-16T12:47:11Z</time>
      </trkpt>
      <trkpt lat="43.63017" lon="2.28869">
        <ele>196</ele>
        <time>2025-09-16T12:47:12Z</time>
      </trkpt>
      <trkpt lat="43.63018" lon="2.28875">
        <ele>196</ele>
        <time>2025-09-16T12:47:13Z</time>
      </trkpt>
      <trkpt lat="43.6302" lon="2.28881">
        <ele>196</ele>
        <time>2025-09-16T12:47:14Z</time>
      </trkpt>
      <trkpt lat="43.63019" lon="2.2889">
        <ele>196.2</ele>
        <time>2025-09-16T12:47:15Z</time>
      </trkpt>
      <trkpt lat="43.63017" lon="2.28896">
        <ele>196.2</ele>
        <time>2025-09-16T12:47:16Z</time>
      </trkpt>
      <trkpt lat="43.63017" lon="2.28902">
        <ele>196.2</ele>
        <time>2025-09-16T12:47:17Z</time>
      </trkpt>
      <trkpt lat="43.63016" lon="2.2891">
        <ele>196.2</ele>
        <time>2025-09-16T12:47:18Z</time>
      </trkpt>
      <trkpt lat="43.63015" lon="2.28916">
        <ele>196.4</ele>
        <time>2025-09-16T12:47:19Z</time>
      </trkpt>
      <trkpt lat="43.63013" lon="2.28923">
        <ele>196.4</ele>
        <time>2025-09-16T12:47:20Z</time>
      </trkpt>
      <trkpt lat="43.6301" lon="2.28931">
        <ele>196.4</ele>
        <time>2025-09-16T12:47:21Z</time>
      </trkpt>
      <trkpt lat="43.63008" lon="2.28938">
        <ele>196.6</ele>
        <time>2025-09-16T12:47:22Z</time>
      </trkpt>
      <trkpt lat="43.63006" lon="2.28945">
        <ele>196.6</ele>
        <time>2025-09-16T12:47:23Z</time>
      </trkpt>
      <trkpt lat="43.63004" lon="2.28951">
        <ele>196.6</ele>
        <time>2025-09-16T12:47:24Z</time>
      </trkpt>
      <trkpt lat="43.63002" lon="2.28956">
        <ele>196.6</ele>
        <time>2025-09-16T12:47:25Z</time>
      </trkpt>
      <trkpt lat="43.62999" lon="2.28961">
        <ele>196.6</ele>
        <time>2025-09-16T12:47:26Z</time>
      </trkpt>
      <trkpt lat="43.62997" lon="2.28969">
        <ele>196.6</ele>
        <time>2025-09-16T12:47:27Z</time>
      </trkpt>
      <trkpt lat="43.62996" lon="2.28975">
        <ele>196.4</ele>
        <time>2025-09-16T12:47:28Z</time>
      </trkpt>
      <trkpt lat="43.62994" lon="2.28981">
        <ele>196.4</ele>
        <time>2025-09-16T12:47:29Z</time>
      </trkpt>
      <trkpt lat="43.62992" lon="2.28988">
        <ele>196.2</ele>
        <time>2025-09-16T12:47:30Z</time>
      </trkpt>
      <trkpt lat="43.62991" lon="2.28995">
        <ele>196.2</ele>
        <time>2025-09-16T12:47:31Z</time>
      </trkpt>
      <trkpt lat="43.62988" lon="2.29001">
        <ele>196.2</ele>
        <time>2025-09-16T12:47:32Z</time>
      </trkpt>
      <trkpt lat="43.62986" lon="2.29007">
        <ele>196.2</ele>
        <time>2025-09-16T12:47:33Z</time>
      </trkpt>
      <trkpt lat="43.62983" lon="2.29013">
        <ele>196.2</ele>
        <time>2025-09-16T12:47:34Z</time>
      </trkpt>
      <trkpt lat="43.6298" lon="2.2902">
        <ele>196.2</ele>
        <time>2025-09-16T12:47:35Z</time>
      </trkpt>
      <trkpt lat="43.62977" lon="2.29025">
        <ele>196.4</ele>
        <time>2025-09-16T12:47:36Z</time>
      </trkpt>
      <trkpt lat="43.62974" lon="2.29031">
        <ele>196.4</ele>
        <time>2025-09-16T12:47:37Z</time>
      </trkpt>
      <trkpt lat="43.62971" lon="2.29035">
        <ele>196.4</ele>
        <time>2025-09-16T12:47:38Z</time>
      </trkpt>
      <trkpt lat="43.62968" lon="2.29041">
        <ele>196.4</ele>
        <time>2025-09-16T12:47:39Z</time>
      </trkpt>
      <trkpt lat="43.62969" lon="2.2905">
        <ele>196.4</ele>
        <time>2025-09-16T12:47:40Z</time>
      </trkpt>
      <trkpt lat="43.6297" lon="2.29055">
        <ele>196.4</ele>
        <time>2025-09-16T12:47:41Z</time>
      </trkpt>
      <trkpt lat="43.62971" lon="2.29062">
        <ele>196.4</ele>
        <time>2025-09-16T12:47:42Z</time>
      </trkpt>
      <trkpt lat="43.6297" lon="2.29068">
        <ele>196.4</ele>
        <time>2025-09-16T12:47:43Z</time>
      </trkpt>
      <trkpt lat="43.62971" lon="2.29074">
        <ele>196.4</ele>
        <time>2025-09-16T12:47:44Z</time>
      </trkpt>
      <trkpt lat="43.62971" lon="2.29081">
        <ele>196.4</ele>
        <time>2025-09-16T12:47:45Z</time>
      </trkpt>
      <trkpt lat="43.62971" lon="2.2909">
        <ele>196.4</ele>
        <time>2025-09-16T12:47:46Z</time>
      </trkpt>
      <trkpt lat="43.62971" lon="2.29095">
        <ele>196.4</ele>
        <time>2025-09-16T12:47:47Z</time>
      </trkpt>
      <trkpt lat="43.62972" lon="2.29102">
        <ele>196.6</ele>
        <time>2025-09-16T12:47:48Z</time>
      </trkpt>
      <trkpt lat="43.62974" lon="2.29108">
        <ele>196.6</ele>
        <time>2025-09-16T12:47:49Z</time>
      </trkpt>
      <trkpt lat="43.62976" lon="2.29115">
        <ele>196.6</ele>
        <time>2025-09-16T12:47:50Z</time>
      </trkpt>
      <trkpt lat="43.62977" lon="2.29122">
        <ele>196.6</ele>
        <time>2025-09-16T12:47:51Z</time>
      </trkpt>
      <trkpt lat="43.62979" lon="2.2913">
        <ele>196.8</ele>
        <time>2025-09-16T12:47:52Z</time>
      </trkpt>
      <trkpt lat="43.6298" lon="2.29136">
        <ele>196.8</ele>
        <time>2025-09-16T12:47:53Z</time>
      </trkpt>
      <trkpt lat="43.62981" lon="2.29143">
        <ele>196.6</ele>
        <time>2025-09-16T12:47:54Z</time>
      </trkpt>
      <trkpt lat="43.62983" lon="2.29149">
        <ele>196.6</ele>
        <time>2025-09-16T12:47:55Z</time>
      </trkpt>
      <trkpt lat="43.62986" lon="2.29156">
        <ele>196.8</ele>
        <time>2025-09-16T12:47:56Z</time>
      </trkpt>
      <trkpt lat="43.62988" lon="2.29162">
        <ele>196.6</ele>
        <time>2025-09-16T12:47:57Z</time>
      </trkpt>
      <trkpt lat="43.62991" lon="2.29168">
        <ele>196.8</ele>
        <time>2025-09-16T12:47:58Z</time>
      </trkpt>
      <trkpt lat="43.62994" lon="2.29173">
        <ele>196.8</ele>
        <time>2025-09-16T12:47:59Z</time>
      </trkpt>
      <trkpt lat="43.62998" lon="2.29179">
        <ele>196.8</ele>
        <time>2025-09-16T12:48:00Z</time>
      </trkpt>
      <trkpt lat="43.63001" lon="2.29184">
        <ele>196.8</ele>
        <time>2025-09-16T12:48:01Z</time>
      </trkpt>
      <trkpt lat="43.63005" lon="2.29189">
        <ele>196.8</ele>
        <time>2025-09-16T12:48:02Z</time>
      </trkpt>
      <trkpt lat="43.63008" lon="2.29194">
        <ele>196.6</ele>
        <time>2025-09-16T12:48:03Z</time>
      </trkpt>
      <trkpt lat="43.6301" lon="2.292">
        <ele>196.4</ele>
        <time>2025-09-16T12:48:04Z</time>
      </trkpt>
      <trkpt lat="43.63012" lon="2.29207">
        <ele>196.4</ele>
        <time>2025-09-16T12:48:05Z</time>
      </trkpt>
      <trkpt lat="43.63016" lon="2.29214">
        <ele>196.2</ele>
        <time>2025-09-16T12:48:06Z</time>
      </trkpt>
      <trkpt lat="43.63019" lon="2.29221">
        <ele>196</ele>
        <time>2025-09-16T12:48:07Z</time>
      </trkpt>
      <trkpt lat="43.6302" lon="2.29227">
        <ele>196</ele>
        <time>2025-09-16T12:48:08Z</time>
      </trkpt>
      <trkpt lat="43.63021" lon="2.29233">
        <ele>196</ele>
        <time>2025-09-16T12:48:09Z</time>
      </trkpt>
      <trkpt lat="43.6302" lon="2.29242">
        <ele>196</ele>
        <time>2025-09-16T12:48:10Z</time>
      </trkpt>
      <trkpt lat="43.63022" lon="2.29248">
        <ele>196</ele>
        <time>2025-09-16T12:48:11Z</time>
      </trkpt>
      <trkpt lat="43.63024" lon="2.29253">
        <ele>196</ele>
        <time>2025-09-16T12:48:12Z</time>
      </trkpt>
      <trkpt lat="43.63027" lon="2.2926">
        <ele>196</ele>
        <time>2025-09-16T12:48:13Z</time>
      </trkpt>
      <trkpt lat="43.6303" lon="2.29266">
        <ele>196</ele>
        <time>2025-09-16T12:48:14Z</time>
      </trkpt>
      <trkpt lat="43.63033" lon="2.29271">
        <ele>196</ele>
        <time>2025-09-16T12:48:15Z</time>
      </trkpt>
      <trkpt lat="43.63035" lon="2.29277">
        <ele>196</ele>
        <time>2025-09-16T12:48:16Z</time>
      </trkpt>
      <trkpt lat="43.63038" lon="2.29283">
        <ele>196</ele>
        <time>2025-09-16T12:48:17Z</time>
      </trkpt>
      <trkpt lat="43.6304" lon="2.29289">
        <ele>196</ele>
        <time>2025-09-16T12:48:18Z</time>
      </trkpt>
      <trkpt lat="43.63043" lon="2.29296">
        <ele>196</ele>
        <time>2025-09-16T12:48:19Z</time>
      </trkpt>
      <trkpt lat="43.63046" lon="2.293">
        <ele>196</ele>
        <time>2025-09-16T12:48:20Z</time>
      </trkpt>
      <trkpt lat="43.63049" lon="2.29306">
        <ele>196</ele>
        <time>2025-09-16T12:48:21Z</time>
      </trkpt>
      <trkpt lat="43.63051" lon="2.29314">
        <ele>196.2</ele>
        <time>2025-09-16T12:48:22Z</time>
      </trkpt>
      <trkpt lat="43.63054" lon="2.29319">
        <ele>196.4</ele>
        <time>2025-09-16T12:48:23Z</time>
      </trkpt>
      <trkpt lat="43.63057" lon="2.29325">
        <ele>196.4</ele>
        <time>2025-09-16T12:48:24Z</time>
      </trkpt>
      <trkpt lat="43.6306" lon="2.29331">
        <ele>196.4</ele>
        <time>2025-09-16T12:48:25Z</time>
      </trkpt>
      <trkpt lat="43.63064" lon="2.29338">
        <ele>196.6</ele>
        <time>2025-09-16T12:48:26Z</time>
      </trkpt>
      <trkpt lat="43.63067" lon="2.29344">
        <ele>196.6</ele>
        <time>2025-09-16T12:48:27Z</time>
      </trkpt>
      <trkpt lat="43.6307" lon="2.29349">
        <ele>196.6</ele>
        <time>2025-09-16T12:48:28Z</time>
      </trkpt>
      <trkpt lat="43.63074" lon="2.29355">
        <ele>196.6</ele>
        <time>2025-09-16T12:48:29Z</time>
      </trkpt>
      <trkpt lat="43.63077" lon="2.29362">
        <ele>196.6</ele>
        <time>2025-09-16T12:48:30Z</time>
      </trkpt>
      <trkpt lat="43.63079" lon="2.29369">
        <ele>196.8</ele>
        <time>2025-09-16T12:48:31Z</time>
      </trkpt>
      <trkpt lat="43.63081" lon="2.29375">
        <ele>196.8</ele>
        <time>2025-09-16T12:48:32Z</time>
      </trkpt>
      <trkpt lat="43.63084" lon="2.29384">
        <ele>196.8</ele>
        <time>2025-09-16T12:48:33Z</time>
      </trkpt>
      <trkpt lat="43.63085" lon="2.2939">
        <ele>196.6</ele>
        <time>2025-09-16T12:48:34Z</time>
      </trkpt>
      <trkpt lat="43.63087" lon="2.29398">
        <ele>196.6</ele>
        <time>2025-09-16T12:48:35Z</time>
      </trkpt>
      <trkpt lat="43.63089" lon="2.29406">
        <ele>196.4</ele>
        <time>2025-09-16T12:48:36Z</time>
      </trkpt>
      <trkpt lat="43.63092" lon="2.29413">
        <ele>196.4</ele>
        <time>2025-09-16T12:48:37Z</time>
      </trkpt>
      <trkpt lat="43.63093" lon="2.2942">
        <ele>196.4</ele>
        <time>2025-09-16T12:48:38Z</time>
      </trkpt>
      <trkpt lat="43.63094" lon="2.29427">
        <ele>196.4</ele>
        <time>2025-09-16T12:48:39Z</time>
      </trkpt>
      <trkpt lat="43.63095" lon="2.29434">
        <ele>196.4</ele>
        <time>2025-09-16T12:48:40Z</time>
      </trkpt>
      <trkpt lat="43.63095" lon="2.29441">
        <ele>196.4</ele>
        <time>2025-09-16T12:48:41Z</time>
      </trkpt>
      <trkpt lat="43.63095" lon="2.29447">
        <ele>196.4</ele>
        <time>2025-09-16T12:48:42Z</time>
      </trkpt>
      <trkpt lat="43.63095" lon="2.29453">
        <ele>196.4</ele>
        <time>2025-09-16T12:48:43Z</time>
      </trkpt>
      <trkpt lat="43.63096" lon="2.29459">
        <ele>196.6</ele>
        <time>2025-09-16T12:48:44Z</time>
      </trkpt>
      <trkpt lat="43.63097" lon="2.29465">
        <ele>196.6</ele>
        <time>2025-09-16T12:48:45Z</time>
      </trkpt>
      <trkpt lat="43.63098" lon="2.29472">
        <ele>196.6</ele>
        <time>2025-09-16T12:48:46Z</time>
      </trkpt>
      <trkpt lat="43.631" lon="2.29479">
        <ele>196.8</ele>
        <time>2025-09-16T12:48:47Z</time>
      </trkpt>
      <trkpt lat="43.63102" lon="2.29485">
        <ele>196.8</ele>
        <time>2025-09-16T12:48:48Z</time>
      </trkpt>
      <trkpt lat="43.63104" lon="2.29492">
        <ele>197</ele>
        <time>2025-09-16T12:48:49Z</time>
      </trkpt>
      <trkpt lat="43.63107" lon="2.29498">
        <ele>197.2</ele>
        <time>2025-09-16T12:48:50Z</time>
      </trkpt>
      <trkpt lat="43.63109" lon="2.29505">
        <ele>197.2</ele>
        <time>2025-09-16T12:48:51Z</time>
      </trkpt>
      <trkpt lat="43.63111" lon="2.29511">
        <ele>197.4</ele>
        <time>2025-09-16T12:48:52Z</time>
      </trkpt>
      <trkpt lat="43.63112" lon="2.29518">
        <ele>197.4</ele>
        <time>2025-09-16T12:48:53Z</time>
      </trkpt>
      <trkpt lat="43.63113" lon="2.29525">
        <ele>197.4</ele>
        <time>2025-09-16T12:48:54Z</time>
      </trkpt>
      <trkpt lat="43.63113" lon="2.29532">
        <ele>197.4</ele>
        <time>2025-09-16T12:48:55Z</time>
      </trkpt>
      <trkpt lat="43.63114" lon="2.29538">
        <ele>197.6</ele>
        <time>2025-09-16T12:48:56Z</time>
      </trkpt>
      <trkpt lat="43.63113" lon="2.29545">
        <ele>197.6</ele>
        <time>2025-09-16T12:48:57Z</time>
      </trkpt>
      <trkpt lat="43.63111" lon="2.29551">
        <ele>197.6</ele>
        <time>2025-09-16T12:48:58Z</time>
      </trkpt>
      <trkpt lat="43.63109" lon="2.2956">
        <ele>197.6</ele>
        <time>2025-09-16T12:48:59Z</time>
      </trkpt>
      <trkpt lat="43.63108" lon="2.29567">
        <ele>197.6</ele>
        <time>2025-09-16T12:49:00Z</time>
      </trkpt>
      <trkpt lat="43.63108" lon="2.29576">
        <ele>197.6</ele>
        <time>2025-09-16T12:49:01Z</time>
      </trkpt>
      <trkpt lat="43.63108" lon="2.29582">
        <ele>197.6</ele>
        <time>2025-09-16T12:49:02Z</time>
      </trkpt>
      <trkpt lat="43.63106" lon="2.2959">
        <ele>197.4</ele>
        <time>2025-09-16T12:49:03Z</time>
      </trkpt>
      <trkpt lat="43.63104" lon="2.29596">
        <ele>197.6</ele>
        <time>2025-09-16T12:49:04Z</time>
      </trkpt>
      <trkpt lat="43.63103" lon="2.29601">
        <ele>197.6</ele>
        <time>2025-09-16T12:49:05Z</time>
      </trkpt>
      <trkpt lat="43.63101" lon="2.29608">
        <ele>197.6</ele>
        <time>2025-09-16T12:49:06Z</time>
      </trkpt>
      <trkpt lat="43.63099" lon="2.29614">
        <ele>197.6</ele>
        <time>2025-09-16T12:49:07Z</time>
      </trkpt>
      <trkpt lat="43.63097" lon="2.29619">
        <ele>197.6</ele>
        <time>2025-09-16T12:49:08Z</time>
      </trkpt>
      <trkpt lat="43.63098" lon="2.29619">
        <ele>197.6</ele>
        <time>2025-09-16T12:49:09Z</time>
      </trkpt>
      <trkpt lat="43.63098" lon="2.29619">
        <ele>197.6</ele>
        <time>2025-09-16T12:49:10Z</time>
      </trkpt>
      <trkpt lat="43.63098" lon="2.2962">
        <ele>197.6</ele>
        <time>2025-09-16T12:49:11Z</time>
      </trkpt>
      <trkpt lat="43.63097" lon="2.29621">
        <ele>197.4</ele>
        <time>2025-09-16T12:49:12Z</time>
      </trkpt>
      <trkpt lat="43.63096" lon="2.29634">
        <ele>197.4</ele>
        <time>2025-09-16T12:49:13Z</time>
      </trkpt>
      <trkpt lat="43.63095" lon="2.29648">
        <ele>197.2</ele>
        <time>2025-09-16T12:49:14Z</time>
      </trkpt>
      <trkpt lat="43.63095" lon="2.29659">
        <ele>197.2</ele>
        <time>2025-09-16T12:49:15Z</time>
      </trkpt>
      <trkpt lat="43.63096" lon="2.29667">
        <ele>197.2</ele>
        <time>2025-09-16T12:49:16Z</time>
      </trkpt>
      <trkpt lat="43.63097" lon="2.29676">
        <ele>197.2</ele>
        <time>2025-09-16T12:49:17Z</time>
      </trkpt>
      <trkpt lat="43.63098" lon="2.29684">
        <ele>197.2</ele>
        <time>2025-09-16T12:49:18Z</time>
      </trkpt>
      <trkpt lat="43.63099" lon="2.29692">
        <ele>197.4</ele>
        <time>2025-09-16T12:49:19Z</time>
      </trkpt>
      <trkpt lat="43.63101" lon="2.29699">
        <ele>197.4</ele>
        <time>2025-09-16T12:49:20Z</time>
      </trkpt>
      <trkpt lat="43.63101" lon="2.29707">
        <ele>197.6</ele>
        <time>2025-09-16T12:49:21Z</time>
      </trkpt>
      <trkpt lat="43.63102" lon="2.29713">
        <ele>197.6</ele>
        <time>2025-09-16T12:49:22Z</time>
      </trkpt>
      <trkpt lat="43.63103" lon="2.2972">
        <ele>197.6</ele>
        <time>2025-09-16T12:49:23Z</time>
      </trkpt>
      <trkpt lat="43.63104" lon="2.29729">
        <ele>197.6</ele>
        <time>2025-09-16T12:49:24Z</time>
      </trkpt>
      <trkpt lat="43.63104" lon="2.29736">
        <ele>197.6</ele>
        <time>2025-09-16T12:49:25Z</time>
      </trkpt>
      <trkpt lat="43.63105" lon="2.29744">
        <ele>197.6</ele>
        <time>2025-09-16T12:49:26Z</time>
      </trkpt>
      <trkpt lat="43.63107" lon="2.29751">
        <ele>197.6</ele>
        <time>2025-09-16T12:49:27Z</time>
      </trkpt>
      <trkpt lat="43.63109" lon="2.29758">
        <ele>197.6</ele>
        <time>2025-09-16T12:49:28Z</time>
      </trkpt>
      <trkpt lat="43.63109" lon="2.29765">
        <ele>197.4</ele>
        <time>2025-09-16T12:49:29Z</time>
      </trkpt>
      <trkpt lat="43.63111" lon="2.29772">
        <ele>197.4</ele>
        <time>2025-09-16T12:49:30Z</time>
      </trkpt>
      <trkpt lat="43.63113" lon="2.29779">
        <ele>197.4</ele>
        <time>2025-09-16T12:49:31Z</time>
      </trkpt>
      <trkpt lat="43.63115" lon="2.29785">
        <ele>197.4</ele>
        <time>2025-09-16T12:49:32Z</time>
      </trkpt>
      <trkpt lat="43.63115" lon="2.29792">
        <ele>197.2</ele>
        <time>2025-09-16T12:49:33Z</time>
      </trkpt>
      <trkpt lat="43.63116" lon="2.29799">
        <ele>197.2</ele>
        <time>2025-09-16T12:49:34Z</time>
      </trkpt>
      <trkpt lat="43.63117" lon="2.29806">
        <ele>197.2</ele>
        <time>2025-09-16T12:49:35Z</time>
      </trkpt>
      <trkpt lat="43.63116" lon="2.29813">
        <ele>197.2</ele>
        <time>2025-09-16T12:49:36Z</time>
      </trkpt>
      <trkpt lat="43.63116" lon="2.2982">
        <ele>197.2</ele>
        <time>2025-09-16T12:49:37Z</time>
      </trkpt>
      <trkpt lat="43.63116" lon="2.29828">
        <ele>197.2</ele>
        <time>2025-09-16T12:49:38Z</time>
      </trkpt>
      <trkpt lat="43.63117" lon="2.29835">
        <ele>197.2</ele>
        <time>2025-09-16T12:49:39Z</time>
      </trkpt>
      <trkpt lat="43.63117" lon="2.29842">
        <ele>197.2</ele>
        <time>2025-09-16T12:49:40Z</time>
      </trkpt>
      <trkpt lat="43.63116" lon="2.29848">
        <ele>197.2</ele>
        <time>2025-09-16T12:49:41Z</time>
      </trkpt>
      <trkpt lat="43.63115" lon="2.29855">
        <ele>197.2</ele>
        <time>2025-09-16T12:49:42Z</time>
      </trkpt>
      <trkpt lat="43.63116" lon="2.29863">
        <ele>197</ele>
        <time>2025-09-16T12:49:43Z</time>
      </trkpt>
      <trkpt lat="43.63116" lon="2.29869">
        <ele>197</ele>
        <time>2025-09-16T12:49:44Z</time>
      </trkpt>
      <trkpt lat="43.63115" lon="2.29877">
        <ele>196.8</ele>
        <time>2025-09-16T12:49:45Z</time>
      </trkpt>
      <trkpt lat="43.63116" lon="2.29884">
        <ele>196.8</ele>
        <time>2025-09-16T12:49:46Z</time>
      </trkpt>
      <trkpt lat="43.63118" lon="2.2989">
        <ele>196.8</ele>
        <time>2025-09-16T12:49:47Z</time>
      </trkpt>
      <trkpt lat="43.63121" lon="2.29897">
        <ele>196.6</ele>
        <time>2025-09-16T12:49:48Z</time>
      </trkpt>
      <trkpt lat="43.63125" lon="2.29904">
        <ele>196.6</ele>
        <time>2025-09-16T12:49:49Z</time>
      </trkpt>
      <trkpt lat="43.63128" lon="2.29909">
        <ele>196.6</ele>
        <time>2025-09-16T12:49:50Z</time>
      </trkpt>
      <trkpt lat="43.63131" lon="2.29914">
        <ele>196.8</ele>
        <time>2025-09-16T12:49:51Z</time>
      </trkpt>
      <trkpt lat="43.63134" lon="2.29919">
        <ele>196.8</ele>
        <time>2025-09-16T12:49:52Z</time>
      </trkpt>
      <trkpt lat="43.63137" lon="2.29925">
        <ele>197</ele>
        <time>2025-09-16T12:49:53Z</time>
      </trkpt>
      <trkpt lat="43.6314" lon="2.29931">
        <ele>197.2</ele>
        <time>2025-09-16T12:49:54Z</time>
      </trkpt>
      <trkpt lat="43.63144" lon="2.29936">
        <ele>197.6</ele>
        <time>2025-09-16T12:49:55Z</time>
      </trkpt>
      <trkpt lat="43.63148" lon="2.29944">
        <ele>197.8</ele>
        <time>2025-09-16T12:49:56Z</time>
      </trkpt>
      <trkpt lat="43.6315" lon="2.29951">
        <ele>197.8</ele>
        <time>2025-09-16T12:49:57Z</time>
      </trkpt>
      <trkpt lat="43.63153" lon="2.29958">
        <ele>198</ele>
        <time>2025-09-16T12:49:58Z</time>
      </trkpt>
      <trkpt lat="43.63155" lon="2.29964">
        <ele>198</ele>
        <time>2025-09-16T12:49:59Z</time>
      </trkpt>
      <trkpt lat="43.63157" lon="2.29971">
        <ele>198.2</ele>
        <time>2025-09-16T12:50:00Z</time>
      </trkpt>
      <trkpt lat="43.63159" lon="2.29978">
        <ele>198.2</ele>
        <time>2025-09-16T12:50:01Z</time>
      </trkpt>
      <trkpt lat="43.63161" lon="2.29984">
        <ele>198.2</ele>
        <time>2025-09-16T12:50:02Z</time>
      </trkpt>
      <trkpt lat="43.63164" lon="2.29991">
        <ele>198.2</ele>
        <time>2025-09-16T12:50:03Z</time>
      </trkpt>
      <trkpt lat="43.63165" lon="2.29998">
        <ele>198.4</ele>
        <time>2025-09-16T12:50:04Z</time>
      </trkpt>
      <trkpt lat="43.63167" lon="2.30005">
        <ele>198.4</ele>
        <time>2025-09-16T12:50:05Z</time>
      </trkpt>
      <trkpt lat="43.63169" lon="2.30014">
        <ele>198.4</ele>
        <time>2025-09-16T12:50:06Z</time>
      </trkpt>
      <trkpt lat="43.63171" lon="2.30023">
        <ele>198.2</ele>
        <time>2025-09-16T12:50:07Z</time>
      </trkpt>
      <trkpt lat="43.63171" lon="2.30031">
        <ele>198.2</ele>
        <time>2025-09-16T12:50:08Z</time>
      </trkpt>
      <trkpt lat="43.63171" lon="2.30037">
        <ele>198</ele>
        <time>2025-09-16T12:50:09Z</time>
      </trkpt>
      <trkpt lat="43.6317" lon="2.30044">
        <ele>198</ele>
        <time>2025-09-16T12:50:10Z</time>
      </trkpt>
      <trkpt lat="43.63169" lon="2.30051">
        <ele>197.8</ele>
        <time>2025-09-16T12:50:11Z</time>
      </trkpt>
      <trkpt lat="43.63167" lon="2.30058">
        <ele>197.6</ele>
        <time>2025-09-16T12:50:12Z</time>
      </trkpt>
      <trkpt lat="43.63165" lon="2.30067">
        <ele>197.6</ele>
        <time>2025-09-16T12:50:13Z</time>
      </trkpt>
      <trkpt lat="43.63163" lon="2.30072">
        <ele>197.6</ele>
        <time>2025-09-16T12:50:14Z</time>
      </trkpt>
      <trkpt lat="43.63161" lon="2.3008">
        <ele>197.8</ele>
        <time>2025-09-16T12:50:15Z</time>
      </trkpt>
      <trkpt lat="43.6316" lon="2.30087">
        <ele>197.8</ele>
        <time>2025-09-16T12:50:16Z</time>
      </trkpt>
      <trkpt lat="43.6316" lon="2.30094">
        <ele>197.8</ele>
        <time>2025-09-16T12:50:17Z</time>
      </trkpt>
      <trkpt lat="43.63159" lon="2.30101">
        <ele>197.8</ele>
        <time>2025-09-16T12:50:18Z</time>
      </trkpt>
      <trkpt lat="43.63157" lon="2.30107">
        <ele>197.6</ele>
        <time>2025-09-16T12:50:19Z</time>
      </trkpt>
      <trkpt lat="43.63156" lon="2.30112">
        <ele>197.6</ele>
        <time>2025-09-16T12:50:20Z</time>
      </trkpt>
      <trkpt lat="43.63155" lon="2.30121">
        <ele>197.6</ele>
        <time>2025-09-16T12:50:21Z</time>
      </trkpt>
      <trkpt lat="43.63155" lon="2.30128">
        <ele>197.6</ele>
        <time>2025-09-16T12:50:22Z</time>
      </trkpt>
      <trkpt lat="43.63154" lon="2.30134">
        <ele>197.6</ele>
        <time>2025-09-16T12:50:23Z</time>
      </trkpt>
      <trkpt lat="43.63153" lon="2.30143">
        <ele>197.6</ele>
        <time>2025-09-16T12:50:24Z</time>
      </trkpt>
      <trkpt lat="43.63156" lon="2.30149">
        <ele>197.6</ele>
        <time>2025-09-16T12:50:25Z</time>
      </trkpt>
      <trkpt lat="43.63157" lon="2.30155">
        <ele>197.6</ele>
        <time>2025-09-16T12:50:26Z</time>
      </trkpt>
      <trkpt lat="43.63159" lon="2.30162">
        <ele>197.8</ele>
        <time>2025-09-16T12:50:27Z</time>
      </trkpt>
      <trkpt lat="43.63161" lon="2.30169">
        <ele>197.8</ele>
        <time>2025-09-16T12:50:28Z</time>
      </trkpt>
      <trkpt lat="43.63162" lon="2.30175">
        <ele>198</ele>
        <time>2025-09-16T12:50:29Z</time>
      </trkpt>
      <trkpt lat="43.63164" lon="2.30181">
        <ele>198</ele>
        <time>2025-09-16T12:50:30Z</time>
      </trkpt>
      <trkpt lat="43.63167" lon="2.30188">
        <ele>198.2</ele>
        <time>2025-09-16T12:50:31Z</time>
      </trkpt>
      <trkpt lat="43.63169" lon="2.30193">
        <ele>198.2</ele>
        <time>2025-09-16T12:50:32Z</time>
      </trkpt>
      <trkpt lat="43.63172" lon="2.302">
        <ele>198.4</ele>
        <time>2025-09-16T12:50:33Z</time>
      </trkpt>
      <trkpt lat="43.63175" lon="2.30205">
        <ele>198.4</ele>
        <time>2025-09-16T12:50:34Z</time>
      </trkpt>
      <trkpt lat="43.63178" lon="2.3021">
        <ele>198.4</ele>
        <time>2025-09-16T12:50:35Z</time>
      </trkpt>
      <trkpt lat="43.63181" lon="2.30217">
        <ele>198.4</ele>
        <time>2025-09-16T12:50:36Z</time>
      </trkpt>
      <trkpt lat="43.63183" lon="2.30223">
        <ele>198.6</ele>
        <time>2025-09-16T12:50:37Z</time>
      </trkpt>
      <trkpt lat="43.63184" lon="2.30229">
        <ele>198.6</ele>
        <time>2025-09-16T12:50:38Z</time>
      </trkpt>
      <trkpt lat="43.63186" lon="2.30235">
        <ele>198.6</ele>
        <time>2025-09-16T12:50:39Z</time>
      </trkpt>
      <trkpt lat="43.63188" lon="2.30241">
        <ele>198.6</ele>
        <time>2025-09-16T12:50:40Z</time>
      </trkpt>
      <trkpt lat="43.6319" lon="2.30246">
        <ele>198.8</ele>
        <time>2025-09-16T12:50:41Z</time>
      </trkpt>
      <trkpt lat="43.63193" lon="2.30252">
        <ele>198.8</ele>
        <time>2025-09-16T12:50:42Z</time>
      </trkpt>
      <trkpt lat="43.63196" lon="2.30257">
        <ele>199</ele>
        <time>2025-09-16T12:50:43Z</time>
      </trkpt>
      <trkpt lat="43.632" lon="2.30261">
        <ele>199</ele>
        <time>2025-09-16T12:50:44Z</time>
      </trkpt>
      <trkpt lat="43.63203" lon="2.30266">
        <ele>199.2</ele>
        <time>2025-09-16T12:50:45Z</time>
      </trkpt>
      <trkpt lat="43.63205" lon="2.30273">
        <ele>199.2</ele>
        <time>2025-09-16T12:50:46Z</time>
      </trkpt>
      <trkpt lat="43.63206" lon="2.30279">
        <ele>199.4</ele>
        <time>2025-09-16T12:50:47Z</time>
      </trkpt>
      <trkpt lat="43.63208" lon="2.30286">
        <ele>199.4</ele>
        <time>2025-09-16T12:50:48Z</time>
      </trkpt>
      <trkpt lat="43.6321" lon="2.30292">
        <ele>199.4</ele>
        <time>2025-09-16T12:50:49Z</time>
      </trkpt>
      <trkpt lat="43.63212" lon="2.30298">
        <ele>199.2</ele>
        <time>2025-09-16T12:50:50Z</time>
      </trkpt>
      <trkpt lat="43.63214" lon="2.30307">
        <ele>199.2</ele>
        <time>2025-09-16T12:50:51Z</time>
      </trkpt>
      <trkpt lat="43.63217" lon="2.30314">
        <ele>199.2</ele>
        <time>2025-09-16T12:50:52Z</time>
      </trkpt>
      <trkpt lat="43.6322" lon="2.30321">
        <ele>199</ele>
        <time>2025-09-16T12:50:53Z</time>
      </trkpt>
      <trkpt lat="43.63223" lon="2.30329">
        <ele>198.8</ele>
        <time>2025-09-16T12:50:54Z</time>
      </trkpt>
      <trkpt lat="43.63226" lon="2.30336">
        <ele>198.8</ele>
        <time>2025-09-16T12:50:55Z</time>
      </trkpt>
      <trkpt lat="43.63227" lon="2.30342">
        <ele>198.6</ele>
        <time>2025-09-16T12:50:56Z</time>
      </trkpt>
      <trkpt lat="43.63228" lon="2.30351">
        <ele>198.6</ele>
        <time>2025-09-16T12:50:57Z</time>
      </trkpt>
      <trkpt lat="43.63229" lon="2.30357">
        <ele>198.6</ele>
        <time>2025-09-16T12:50:58Z</time>
      </trkpt>
      <trkpt lat="43.63229" lon="2.30364">
        <ele>198.6</ele>
        <time>2025-09-16T12:50:59Z</time>
      </trkpt>
      <trkpt lat="43.63229" lon="2.3037">
        <ele>198.6</ele>
        <time>2025-09-16T12:51:00Z</time>
      </trkpt>
      <trkpt lat="43.6323" lon="2.30377">
        <ele>198.6</ele>
        <time>2025-09-16T12:51:01Z</time>
      </trkpt>
      <trkpt lat="43.63231" lon="2.30382">
        <ele>198.6</ele>
        <time>2025-09-16T12:51:02Z</time>
      </trkpt>
      <trkpt lat="43.63233" lon="2.3039">
        <ele>198.6</ele>
        <time>2025-09-16T12:51:03Z</time>
      </trkpt>
      <trkpt lat="43.63234" lon="2.30396">
        <ele>198.6</ele>
        <time>2025-09-16T12:51:04Z</time>
      </trkpt>
      <trkpt lat="43.63236" lon="2.30403">
        <ele>198.6</ele>
        <time>2025-09-16T12:51:05Z</time>
      </trkpt>
      <trkpt lat="43.63237" lon="2.30412">
        <ele>198.6</ele>
        <time>2025-09-16T12:51:06Z</time>
      </trkpt>
      <trkpt lat="43.63237" lon="2.30419">
        <ele>198.4</ele>
        <time>2025-09-16T12:51:07Z</time>
      </trkpt>
      <trkpt lat="43.63237" lon="2.30427">
        <ele>198.2</ele>
        <time>2025-09-16T12:51:08Z</time>
      </trkpt>
      <trkpt lat="43.63237" lon="2.30434">
        <ele>198.2</ele>
        <time>2025-09-16T12:51:09Z</time>
      </trkpt>
      <trkpt lat="43.63236" lon="2.3044">
        <ele>198</ele>
        <time>2025-09-16T12:51:10Z</time>
      </trkpt>
      <trkpt lat="43.63235" lon="2.30447">
        <ele>198</ele>
        <time>2025-09-16T12:51:11Z</time>
      </trkpt>
      <trkpt lat="43.63234" lon="2.30455">
        <ele>198</ele>
        <time>2025-09-16T12:51:12Z</time>
      </trkpt>
      <trkpt lat="43.63233" lon="2.30462">
        <ele>198</ele>
        <time>2025-09-16T12:51:13Z</time>
      </trkpt>
      <trkpt lat="43.63232" lon="2.30469">
        <ele>197.8</ele>
        <time>2025-09-16T12:51:14Z</time>
      </trkpt>
      <trkpt lat="43.63232" lon="2.30476">
        <ele>197.8</ele>
        <time>2025-09-16T12:51:15Z</time>
      </trkpt>
      <trkpt lat="43.63231" lon="2.30484">
        <ele>197.8</ele>
        <time>2025-09-16T12:51:16Z</time>
      </trkpt>
      <trkpt lat="43.6323" lon="2.3049">
        <ele>198</ele>
        <time>2025-09-16T12:51:17Z</time>
      </trkpt>
      <trkpt lat="43.63229" lon="2.30497">
        <ele>198</ele>
        <time>2025-09-16T12:51:18Z</time>
      </trkpt>
      <trkpt lat="43.63228" lon="2.30504">
        <ele>198.2</ele>
        <time>2025-09-16T12:51:19Z</time>
      </trkpt>
      <trkpt lat="43.63227" lon="2.3051">
        <ele>198.4</ele>
        <time>2025-09-16T12:51:20Z</time>
      </trkpt>
      <trkpt lat="43.63227" lon="2.30517">
        <ele>198.6</ele>
        <time>2025-09-16T12:51:21Z</time>
      </trkpt>
      <trkpt lat="43.63226" lon="2.30524">
        <ele>198.8</ele>
        <time>2025-09-16T12:51:22Z</time>
      </trkpt>
      <trkpt lat="43.63225" lon="2.30531">
        <ele>199</ele>
        <time>2025-09-16T12:51:23Z</time>
      </trkpt>
      <trkpt lat="43.63224" lon="2.30538">
        <ele>199</ele>
        <time>2025-09-16T12:51:24Z</time>
      </trkpt>
      <trkpt lat="43.63223" lon="2.30545">
        <ele>199</ele>
        <time>2025-09-16T12:51:25Z</time>
      </trkpt>
      <trkpt lat="43.63221" lon="2.30552">
        <ele>198.8</ele>
        <time>2025-09-16T12:51:26Z</time>
      </trkpt>
      <trkpt lat="43.6322" lon="2.30558">
        <ele>198.8</ele>
        <time>2025-09-16T12:51:27Z</time>
      </trkpt>
      <trkpt lat="43.63217" lon="2.30565">
        <ele>198.6</ele>
        <time>2025-09-16T12:51:28Z</time>
      </trkpt>
      <trkpt lat="43.63217" lon="2.30572">
        <ele>198.6</ele>
        <time>2025-09-16T12:51:29Z</time>
      </trkpt>
      <trkpt lat="43.63217" lon="2.30578">
        <ele>198.4</ele>
        <time>2025-09-16T12:51:30Z</time>
      </trkpt>
      <trkpt lat="43.63216" lon="2.30586">
        <ele>198.4</ele>
        <time>2025-09-16T12:51:31Z</time>
      </trkpt>
      <trkpt lat="43.63214" lon="2.30593">
        <ele>198.4</ele>
        <time>2025-09-16T12:51:32Z</time>
      </trkpt>
      <trkpt lat="43.63214" lon="2.30598">
        <ele>198.4</ele>
        <time>2025-09-16T12:51:33Z</time>
      </trkpt>
      <trkpt lat="43.63213" lon="2.30606">
        <ele>198.4</ele>
        <time>2025-09-16T12:51:34Z</time>
      </trkpt>
      <trkpt lat="43.63211" lon="2.30614">
        <ele>198.4</ele>
        <time>2025-09-16T12:51:35Z</time>
      </trkpt>
      <trkpt lat="43.6321" lon="2.30621">
        <ele>198.4</ele>
        <time>2025-09-16T12:51:36Z</time>
      </trkpt>
      <trkpt lat="43.63209" lon="2.30626">
        <ele>198.6</ele>
        <time>2025-09-16T12:51:37Z</time>
      </trkpt>
      <trkpt lat="43.63208" lon="2.30633">
        <ele>198.6</ele>
        <time>2025-09-16T12:51:38Z</time>
      </trkpt>
      <trkpt lat="43.63205" lon="2.3064">
        <ele>198.6</ele>
        <time>2025-09-16T12:51:39Z</time>
      </trkpt>
      <trkpt lat="43.63204" lon="2.30647">
        <ele>198.6</ele>
        <time>2025-09-16T12:51:40Z</time>
      </trkpt>
      <trkpt lat="43.63203" lon="2.30654">
        <ele>198.6</ele>
        <time>2025-09-16T12:51:41Z</time>
      </trkpt>
      <trkpt lat="43.63203" lon="2.30661">
        <ele>198.6</ele>
        <time>2025-09-16T12:51:42Z</time>
      </trkpt>
      <trkpt lat="43.63203" lon="2.30667">
        <ele>198.8</ele>
        <time>2025-09-16T12:51:43Z</time>
      </trkpt>
      <trkpt lat="43.63202" lon="2.30672">
        <ele>198.8</ele>
        <time>2025-09-16T12:51:44Z</time>
      </trkpt>
      <trkpt lat="43.63201" lon="2.3068">
        <ele>199</ele>
        <time>2025-09-16T12:51:45Z</time>
      </trkpt>
      <trkpt lat="43.632" lon="2.30686">
        <ele>199</ele>
        <time>2025-09-16T12:51:46Z</time>
      </trkpt>
      <trkpt lat="43.63199" lon="2.3069">
        <ele>199.2</ele>
        <time>2025-09-16T12:51:47Z</time>
      </trkpt>
      <trkpt lat="43.63198" lon="2.30697">
        <ele>199.2</ele>
        <time>2025-09-16T12:51:48Z</time>
      </trkpt>
      <trkpt lat="43.63196" lon="2.30703">
        <ele>199.2</ele>
        <time>2025-09-16T12:51:49Z</time>
      </trkpt>
      <trkpt lat="43.63195" lon="2.3071">
        <ele>199.2</ele>
        <time>2025-09-16T12:51:50Z</time>
      </trkpt>
      <trkpt lat="43.63192" lon="2.30718">
        <ele>199.2</ele>
        <time>2025-09-16T12:51:51Z</time>
      </trkpt>
      <trkpt lat="43.63191" lon="2.30725">
        <ele>199.4</ele>
        <time>2025-09-16T12:51:52Z</time>
      </trkpt>
      <trkpt lat="43.6319" lon="2.30731">
        <ele>199.4</ele>
        <time>2025-09-16T12:51:53Z</time>
      </trkpt>
      <trkpt lat="43.63189" lon="2.30739">
        <ele>199.4</ele>
        <time>2025-09-16T12:51:54Z</time>
      </trkpt>
      <trkpt lat="43.63189" lon="2.30743">
        <ele>199.6</ele>
        <time>2025-09-16T12:51:55Z</time>
      </trkpt>
      <trkpt lat="43.63189" lon="2.30749">
        <ele>199.6</ele>
        <time>2025-09-16T12:51:56Z</time>
      </trkpt>
      <trkpt lat="43.63188" lon="2.30756">
        <ele>199.6</ele>
        <time>2025-09-16T12:51:57Z</time>
      </trkpt>
      <trkpt lat="43.63188" lon="2.30763">
        <ele>199.8</ele>
        <time>2025-09-16T12:51:58Z</time>
      </trkpt>
      <trkpt lat="43.63187" lon="2.3077">
        <ele>199.8</ele>
        <time>2025-09-16T12:51:59Z</time>
      </trkpt>
      <trkpt lat="43.63186" lon="2.30777">
        <ele>199.8</ele>
        <time>2025-09-16T12:52:00Z</time>
      </trkpt>
      <trkpt lat="43.63186" lon="2.30783">
        <ele>200</ele>
        <time>2025-09-16T12:52:01Z</time>
      </trkpt>
      <trkpt lat="43.63187" lon="2.3079">
        <ele>200</ele>
        <time>2025-09-16T12:52:02Z</time>
      </trkpt>
      <trkpt lat="43.63187" lon="2.30798">
        <ele>200</ele>
        <time>2025-09-16T12:52:03Z</time>
      </trkpt>
      <trkpt lat="43.63187" lon="2.30805">
        <ele>200</ele>
        <time>2025-09-16T12:52:04Z</time>
      </trkpt>
      <trkpt lat="43.63187" lon="2.30813">
        <ele>200</ele>
        <time>2025-09-16T12:52:05Z</time>
      </trkpt>
      <trkpt lat="43.63186" lon="2.30821">
        <ele>200</ele>
        <time>2025-09-16T12:52:06Z</time>
      </trkpt>
      <trkpt lat="43.63186" lon="2.30828">
        <ele>200.2</ele>
        <time>2025-09-16T12:52:07Z</time>
      </trkpt>
      <trkpt lat="43.63186" lon="2.30835">
        <ele>200.2</ele>
        <time>2025-09-16T12:52:08Z</time>
      </trkpt>
      <trkpt lat="43.63186" lon="2.30843">
        <ele>200.2</ele>
        <time>2025-09-16T12:52:09Z</time>
      </trkpt>
      <trkpt lat="43.63186" lon="2.3085">
        <ele>200.2</ele>
        <time>2025-09-16T12:52:10Z</time>
      </trkpt>
      <trkpt lat="43.63185" lon="2.30857">
        <ele>200.2</ele>
        <time>2025-09-16T12:52:11Z</time>
      </trkpt>
      <trkpt lat="43.63184" lon="2.30865">
        <ele>200.2</ele>
        <time>2025-09-16T12:52:12Z</time>
      </trkpt>
      <trkpt lat="43.63184" lon="2.30872">
        <ele>200.2</ele>
        <time>2025-09-16T12:52:13Z</time>
      </trkpt>
      <trkpt lat="43.63184" lon="2.3088">
        <ele>200.2</ele>
        <time>2025-09-16T12:52:14Z</time>
      </trkpt>
      <trkpt lat="43.63183" lon="2.30887">
        <ele>200.2</ele>
        <time>2025-09-16T12:52:15Z</time>
      </trkpt>
      <trkpt lat="43.63183" lon="2.30895">
        <ele>200</ele>
        <time>2025-09-16T12:52:16Z</time>
      </trkpt>
      <trkpt lat="43.63183" lon="2.30903">
        <ele>200</ele>
        <time>2025-09-16T12:52:17Z</time>
      </trkpt>
      <trkpt lat="43.63184" lon="2.3091">
        <ele>200</ele>
        <time>2025-09-16T12:52:18Z</time>
      </trkpt>
      <trkpt lat="43.63184" lon="2.30917">
        <ele>200</ele>
        <time>2025-09-16T12:52:19Z</time>
      </trkpt>
      <trkpt lat="43.63184" lon="2.30925">
        <ele>200</ele>
        <time>2025-09-16T12:52:20Z</time>
      </trkpt>
      <trkpt lat="43.63184" lon="2.30933">
        <ele>200</ele>
        <time>2025-09-16T12:52:21Z</time>
      </trkpt>
      <trkpt lat="43.63185" lon="2.3094">
        <ele>199.8</ele>
        <time>2025-09-16T12:52:22Z</time>
      </trkpt>
      <trkpt lat="43.63186" lon="2.30948">
        <ele>199.8</ele>
        <time>2025-09-16T12:52:23Z</time>
      </trkpt>
      <trkpt lat="43.63187" lon="2.30955">
        <ele>200</ele>
        <time>2025-09-16T12:52:24Z</time>
      </trkpt>
      <trkpt lat="43.63188" lon="2.30962">
        <ele>200</ele>
        <time>2025-09-16T12:52:25Z</time>
      </trkpt>
      <trkpt lat="43.63189" lon="2.3097">
        <ele>200</ele>
        <time>2025-09-16T12:52:26Z</time>
      </trkpt>
      <trkpt lat="43.63191" lon="2.30976">
        <ele>200.2</ele>
        <time>2025-09-16T12:52:27Z</time>
      </trkpt>
      <trkpt lat="43.63193" lon="2.30983">
        <ele>200.2</ele>
        <time>2025-09-16T12:52:28Z</time>
      </trkpt>
      <trkpt lat="43.63194" lon="2.3099">
        <ele>200.2</ele>
        <time>2025-09-16T12:52:29Z</time>
      </trkpt>
      <trkpt lat="43.63197" lon="2.30996">
        <ele>200.4</ele>
        <time>2025-09-16T12:52:30Z</time>
      </trkpt>
      <trkpt lat="43.63199" lon="2.31003">
        <ele>200.4</ele>
        <time>2025-09-16T12:52:31Z</time>
      </trkpt>
      <trkpt lat="43.63201" lon="2.31009">
        <ele>200.4</ele>
        <time>2025-09-16T12:52:32Z</time>
      </trkpt>
      <trkpt lat="43.63204" lon="2.31016">
        <ele>200.4</ele>
        <time>2025-09-16T12:52:33Z</time>
      </trkpt>
      <trkpt lat="43.63207" lon="2.31021">
        <ele>200.6</ele>
        <time>2025-09-16T12:52:34Z</time>
      </trkpt>
      <trkpt lat="43.63209" lon="2.31028">
        <ele>200.6</ele>
        <time>2025-09-16T12:52:35Z</time>
      </trkpt>
      <trkpt lat="43.63211" lon="2.31034">
        <ele>200.6</ele>
        <time>2025-09-16T12:52:36Z</time>
      </trkpt>
      <trkpt lat="43.63213" lon="2.3104">
        <ele>200.6</ele>
        <time>2025-09-16T12:52:37Z</time>
      </trkpt>
      <trkpt lat="43.63216" lon="2.31047">
        <ele>200.6</ele>
        <time>2025-09-16T12:52:38Z</time>
      </trkpt>
      <trkpt lat="43.63218" lon="2.31054">
        <ele>200.6</ele>
        <time>2025-09-16T12:52:39Z</time>
      </trkpt>
      <trkpt lat="43.6322" lon="2.31061">
        <ele>200.6</ele>
        <time>2025-09-16T12:52:40Z</time>
      </trkpt>
      <trkpt lat="43.63222" lon="2.31069">
        <ele>200.6</ele>
        <time>2025-09-16T12:52:41Z</time>
      </trkpt>
      <trkpt lat="43.63223" lon="2.31075">
        <ele>200.4</ele>
        <time>2025-09-16T12:52:42Z</time>
      </trkpt>
      <trkpt lat="43.63223" lon="2.31082">
        <ele>200.4</ele>
        <time>2025-09-16T12:52:43Z</time>
      </trkpt>
      <trkpt lat="43.63222" lon="2.31089">
        <ele>200.2</ele>
        <time>2025-09-16T12:52:44Z</time>
      </trkpt>
      <trkpt lat="43.63221" lon="2.31097">
        <ele>200.2</ele>
        <time>2025-09-16T12:52:45Z</time>
      </trkpt>
      <trkpt lat="43.6322" lon="2.31103">
        <ele>200</ele>
        <time>2025-09-16T12:52:46Z</time>
      </trkpt>
      <trkpt lat="43.63219" lon="2.31111">
        <ele>199.8</ele>
        <time>2025-09-16T12:52:47Z</time>
      </trkpt>
      <trkpt lat="43.63217" lon="2.31116">
        <ele>199.8</ele>
        <time>2025-09-16T12:52:48Z</time>
      </trkpt>
      <trkpt lat="43.63215" lon="2.31121">
        <ele>199.6</ele>
        <time>2025-09-16T12:52:49Z</time>
      </trkpt>
      <trkpt lat="43.63213" lon="2.31126">
        <ele>199.6</ele>
        <time>2025-09-16T12:52:50Z</time>
      </trkpt>
      <trkpt lat="43.63211" lon="2.31131">
        <ele>199.6</ele>
        <time>2025-09-16T12:52:51Z</time>
      </trkpt>
      <trkpt lat="43.63209" lon="2.31137">
        <ele>199.6</ele>
        <time>2025-09-16T12:52:52Z</time>
      </trkpt>
      <trkpt lat="43.63207" lon="2.31141">
        <ele>199.6</ele>
        <time>2025-09-16T12:52:53Z</time>
      </trkpt>
      <trkpt lat="43.63206" lon="2.31147">
        <ele>199.6</ele>
        <time>2025-09-16T12:52:54Z</time>
      </trkpt>
      <trkpt lat="43.63205" lon="2.31154">
        <ele>199.6</ele>
        <time>2025-09-16T12:52:55Z</time>
      </trkpt>
      <trkpt lat="43.63205" lon="2.3116">
        <ele>199.6</ele>
        <time>2025-09-16T12:52:56Z</time>
      </trkpt>
      <trkpt lat="43.63206" lon="2.31167">
        <ele>199.8</ele>
        <time>2025-09-16T12:52:57Z</time>
      </trkpt>
      <trkpt lat="43.63206" lon="2.31175">
        <ele>199.8</ele>
        <time>2025-09-16T12:52:58Z</time>
      </trkpt>
      <trkpt lat="43.63207" lon="2.31184">
        <ele>199.8</ele>
        <time>2025-09-16T12:52:59Z</time>
      </trkpt>
      <trkpt lat="43.63208" lon="2.3119">
        <ele>200</ele>
        <time>2025-09-16T12:53:00Z</time>
      </trkpt>
      <trkpt lat="43.63209" lon="2.31199">
        <ele>200</ele>
        <time>2025-09-16T12:53:01Z</time>
      </trkpt>
      <trkpt lat="43.6321" lon="2.31205">
        <ele>200</ele>
        <time>2025-09-16T12:53:02Z</time>
      </trkpt>
      <trkpt lat="43.63211" lon="2.31212">
        <ele>200</ele>
        <time>2025-09-16T12:53:03Z</time>
      </trkpt>
      <trkpt lat="43.63213" lon="2.3122">
        <ele>200</ele>
        <time>2025-09-16T12:53:04Z</time>
      </trkpt>
      <trkpt lat="43.63215" lon="2.31226">
        <ele>200.2</ele>
        <time>2025-09-16T12:53:05Z</time>
      </trkpt>
      <trkpt lat="43.63215" lon="2.31233">
        <ele>200.2</ele>
        <time>2025-09-16T12:53:06Z</time>
      </trkpt>
      <trkpt lat="43.63216" lon="2.31241">
        <ele>200.4</ele>
        <time>2025-09-16T12:53:07Z</time>
      </trkpt>
      <trkpt lat="43.63218" lon="2.31247">
        <ele>200.4</ele>
        <time>2025-09-16T12:53:08Z</time>
      </trkpt>
      <trkpt lat="43.63219" lon="2.31253">
        <ele>200.4</ele>
        <time>2025-09-16T12:53:09Z</time>
      </trkpt>
      <trkpt lat="43.63223" lon="2.3126">
        <ele>200.6</ele>
        <time>2025-09-16T12:53:10Z</time>
      </trkpt>
      <trkpt lat="43.63225" lon="2.31268">
        <ele>200.6</ele>
        <time>2025-09-16T12:53:11Z</time>
      </trkpt>
      <trkpt lat="43.63226" lon="2.31273">
        <ele>200.6</ele>
        <time>2025-09-16T12:53:12Z</time>
      </trkpt>
      <trkpt lat="43.63228" lon="2.31281">
        <ele>200.6</ele>
        <time>2025-09-16T12:53:13Z</time>
      </trkpt>
      <trkpt lat="43.63229" lon="2.31286">
        <ele>200.6</ele>
        <time>2025-09-16T12:53:14Z</time>
      </trkpt>
      <trkpt lat="43.63232" lon="2.31293">
        <ele>200.6</ele>
        <time>2025-09-16T12:53:15Z</time>
      </trkpt>
      <trkpt lat="43.63235" lon="2.313">
        <ele>200.6</ele>
        <time>2025-09-16T12:53:16Z</time>
      </trkpt>
      <trkpt lat="43.63238" lon="2.31308">
        <ele>200.4</ele>
        <time>2025-09-16T12:53:17Z</time>
      </trkpt>
      <trkpt lat="43.63239" lon="2.31313">
        <ele>200.4</ele>
        <time>2025-09-16T12:53:18Z</time>
      </trkpt>
      <trkpt lat="43.63242" lon="2.31322">
        <ele>200.4</ele>
        <time>2025-09-16T12:53:19Z</time>
      </trkpt>
      <trkpt lat="43.63244" lon="2.31328">
        <ele>200.4</ele>
        <time>2025-09-16T12:53:20Z</time>
      </trkpt>
      <trkpt lat="43.63246" lon="2.31334">
        <ele>200.4</ele>
        <time>2025-09-16T12:53:21Z</time>
      </trkpt>
      <trkpt lat="43.63249" lon="2.31341">
        <ele>200.4</ele>
        <time>2025-09-16T12:53:22Z</time>
      </trkpt>
      <trkpt lat="43.63251" lon="2.31346">
        <ele>200.4</ele>
        <time>2025-09-16T12:53:23Z</time>
      </trkpt>
      <trkpt lat="43.63254" lon="2.31353">
        <ele>200.6</ele>
        <time>2025-09-16T12:53:24Z</time>
      </trkpt>
      <trkpt lat="43.63255" lon="2.31359">
        <ele>200.6</ele>
        <time>2025-09-16T12:53:25Z</time>
      </trkpt>
      <trkpt lat="43.63255" lon="2.31366">
        <ele>200.6</ele>
        <time>2025-09-16T12:53:26Z</time>
      </trkpt>
      <trkpt lat="43.63255" lon="2.31373">
        <ele>200.6</ele>
        <time>2025-09-16T12:53:27Z</time>
      </trkpt>
      <trkpt lat="43.63256" lon="2.31381">
        <ele>200.6</ele>
        <time>2025-09-16T12:53:28Z</time>
      </trkpt>
      <trkpt lat="43.63257" lon="2.31388">
        <ele>200.4</ele>
        <time>2025-09-16T12:53:29Z</time>
      </trkpt>
      <trkpt lat="43.63257" lon="2.31395">
        <ele>200.4</ele>
        <time>2025-09-16T12:53:30Z</time>
      </trkpt>
      <trkpt lat="43.63259" lon="2.31403">
        <ele>200.4</ele>
        <time>2025-09-16T12:53:31Z</time>
      </trkpt>
      <trkpt lat="43.63261" lon="2.3141">
        <ele>200.4</ele>
        <time>2025-09-16T12:53:32Z</time>
      </trkpt>
      <trkpt lat="43.63262" lon="2.31415">
        <ele>200.4</ele>
        <time>2025-09-16T12:53:33Z</time>
      </trkpt>
      <trkpt lat="43.63263" lon="2.31422">
        <ele>200.4</ele>
        <time>2025-09-16T12:53:34Z</time>
      </trkpt>
      <trkpt lat="43.63264" lon="2.31428">
        <ele>200.4</ele>
        <time>2025-09-16T12:53:35Z</time>
      </trkpt>
      <trkpt lat="43.63266" lon="2.31435">
        <ele>200.4</ele>
        <time>2025-09-16T12:53:36Z</time>
      </trkpt>
      <trkpt lat="43.63268" lon="2.31443">
        <ele>200.2</ele>
        <time>2025-09-16T12:53:37Z</time>
      </trkpt>
      <trkpt lat="43.63269" lon="2.3145">
        <ele>200.4</ele>
        <time>2025-09-16T12:53:38Z</time>
      </trkpt>
      <trkpt lat="43.63271" lon="2.31457">
        <ele>200.4</ele>
        <time>2025-09-16T12:53:39Z</time>
      </trkpt>
      <trkpt lat="43.63272" lon="2.31464">
        <ele>200.4</ele>
        <time>2025-09-16T12:53:40Z</time>
      </trkpt>
      <trkpt lat="43.63273" lon="2.31471">
        <ele>200.4</ele>
        <time>2025-09-16T12:53:41Z</time>
      </trkpt>
      <trkpt lat="43.63275" lon="2.31478">
        <ele>200.4</ele>
        <time>2025-09-16T12:53:42Z</time>
      </trkpt>
      <trkpt lat="43.63276" lon="2.31485">
        <ele>200.4</ele>
        <time>2025-09-16T12:53:43Z</time>
      </trkpt>
      <trkpt lat="43.63278" lon="2.31492">
        <ele>200.4</ele>
        <time>2025-09-16T12:53:44Z</time>
      </trkpt>
      <trkpt lat="43.6328" lon="2.31499">
        <ele>200.4</ele>
        <time>2025-09-16T12:53:45Z</time>
      </trkpt>
      <trkpt lat="43.63281" lon="2.31506">
        <ele>200.4</ele>
        <time>2025-09-16T12:53:46Z</time>
      </trkpt>
      <trkpt lat="43.63282" lon="2.31513">
        <ele>200.4</ele>
        <time>2025-09-16T12:53:47Z</time>
      </trkpt>
      <trkpt lat="43.63283" lon="2.31518">
        <ele>200.4</ele>
        <time>2025-09-16T12:53:48Z</time>
      </trkpt>
      <trkpt lat="43.63283" lon="2.31524">
        <ele>200.6</ele>
        <time>2025-09-16T12:53:49Z</time>
      </trkpt>
      <trkpt lat="43.63284" lon="2.31531">
        <ele>200.6</ele>
        <time>2025-09-16T12:53:50Z</time>
      </trkpt>
      <trkpt lat="43.63286" lon="2.31537">
        <ele>200.6</ele>
        <time>2025-09-16T12:53:51Z</time>
      </trkpt>
      <trkpt lat="43.63288" lon="2.31544">
        <ele>200.6</ele>
        <time>2025-09-16T12:53:52Z</time>
      </trkpt>
      <trkpt lat="43.63289" lon="2.31551">
        <ele>200.6</ele>
        <time>2025-09-16T12:53:53Z</time>
      </trkpt>
      <trkpt lat="43.63291" lon="2.31557">
        <ele>200.6</ele>
        <time>2025-09-16T12:53:54Z</time>
      </trkpt>
      <trkpt lat="43.63292" lon="2.31564">
        <ele>200.8</ele>
        <time>2025-09-16T12:53:55Z</time>
      </trkpt>
      <trkpt lat="43.63292" lon="2.31571">
        <ele>201</ele>
        <time>2025-09-16T12:53:56Z</time>
      </trkpt>
      <trkpt lat="43.63293" lon="2.31576">
        <ele>201.2</ele>
        <time>2025-09-16T12:53:57Z</time>
      </trkpt>
      <trkpt lat="43.63295" lon="2.31583">
        <ele>201.2</ele>
        <time>2025-09-16T12:53:58Z</time>
      </trkpt>
      <trkpt lat="43.63298" lon="2.31589">
        <ele>201.4</ele>
        <time>2025-09-16T12:53:59Z</time>
      </trkpt>
      <trkpt lat="43.63299" lon="2.31596">
        <ele>201.6</ele>
        <time>2025-09-16T12:54:00Z</time>
      </trkpt>
      <trkpt lat="43.63301" lon="2.31602">
        <ele>201.6</ele>
        <time>2025-09-16T12:54:01Z</time>
      </trkpt>
      <trkpt lat="43.63303" lon="2.31608">
        <ele>201.6</ele>
        <time>2025-09-16T12:54:02Z</time>
      </trkpt>
      <trkpt lat="43.63304" lon="2.31614">
        <ele>201.8</ele>
        <time>2025-09-16T12:54:03Z</time>
      </trkpt>
      <trkpt lat="43.63306" lon="2.3162">
        <ele>201.8</ele>
        <time>2025-09-16T12:54:04Z</time>
      </trkpt>
      <trkpt lat="43.63307" lon="2.31628">
        <ele>201.8</ele>
        <time>2025-09-16T12:54:05Z</time>
      </trkpt>
      <trkpt lat="43.6331" lon="2.31633">
        <ele>201.6</ele>
        <time>2025-09-16T12:54:06Z</time>
      </trkpt>
      <trkpt lat="43.63314" lon="2.3164">
        <ele>201.6</ele>
        <time>2025-09-16T12:54:07Z</time>
      </trkpt>
      <trkpt lat="43.63318" lon="2.31648">
        <ele>201.6</ele>
        <time>2025-09-16T12:54:08Z</time>
      </trkpt>
      <trkpt lat="43.63321" lon="2.31654">
        <ele>201.4</ele>
        <time>2025-09-16T12:54:09Z</time>
      </trkpt>
      <trkpt lat="43.63323" lon="2.31661">
        <ele>201.4</ele>
        <time>2025-09-16T12:54:10Z</time>
      </trkpt>
      <trkpt lat="43.63327" lon="2.31669">
        <ele>201.4</ele>
        <time>2025-09-16T12:54:11Z</time>
      </trkpt>
      <trkpt lat="43.63328" lon="2.31674">
        <ele>201.4</ele>
        <time>2025-09-16T12:54:12Z</time>
      </trkpt>
      <trkpt lat="43.6333" lon="2.31681">
        <ele>201.4</ele>
        <time>2025-09-16T12:54:13Z</time>
      </trkpt>
      <trkpt lat="43.63332" lon="2.31687">
        <ele>201.4</ele>
        <time>2025-09-16T12:54:14Z</time>
      </trkpt>
      <trkpt lat="43.63333" lon="2.31694">
        <ele>201.4</ele>
        <time>2025-09-16T12:54:15Z</time>
      </trkpt>
      <trkpt lat="43.63335" lon="2.317">
        <ele>201.4</ele>
        <time>2025-09-16T12:54:16Z</time>
      </trkpt>
      <trkpt lat="43.63337" lon="2.31708">
        <ele>201.4</ele>
        <time>2025-09-16T12:54:17Z</time>
      </trkpt>
      <trkpt lat="43.63339" lon="2.31713">
        <ele>201.4</ele>
        <time>2025-09-16T12:54:18Z</time>
      </trkpt>
      <trkpt lat="43.63341" lon="2.31719">
        <ele>201.4</ele>
        <time>2025-09-16T12:54:19Z</time>
      </trkpt>
      <trkpt lat="43.63343" lon="2.31725">
        <ele>201.4</ele>
        <time>2025-09-16T12:54:20Z</time>
      </trkpt>
      <trkpt lat="43.63345" lon="2.31731">
        <ele>201.6</ele>
        <time>2025-09-16T12:54:21Z</time>
      </trkpt>
      <trkpt lat="43.63348" lon="2.31737">
        <ele>201.6</ele>
        <time>2025-09-16T12:54:22Z</time>
      </trkpt>
      <trkpt lat="43.6335" lon="2.31744">
        <ele>201.6</ele>
        <time>2025-09-16T12:54:23Z</time>
      </trkpt>
      <trkpt lat="43.63352" lon="2.31749">
        <ele>201.6</ele>
        <time>2025-09-16T12:54:24Z</time>
      </trkpt>
      <trkpt lat="43.63355" lon="2.31754">
        <ele>201.6</ele>
        <time>2025-09-16T12:54:25Z</time>
      </trkpt>
      <trkpt lat="43.63358" lon="2.31761">
        <ele>201.6</ele>
        <time>2025-09-16T12:54:26Z</time>
      </trkpt>
      <trkpt lat="43.6336" lon="2.31765">
        <ele>201.6</ele>
        <time>2025-09-16T12:54:27Z</time>
      </trkpt>
      <trkpt lat="43.63362" lon="2.3177">
        <ele>201.6</ele>
        <time>2025-09-16T12:54:28Z</time>
      </trkpt>
      <trkpt lat="43.63365" lon="2.31775">
        <ele>201.8</ele>
        <time>2025-09-16T12:54:29Z</time>
      </trkpt>
      <trkpt lat="43.63367" lon="2.31778">
        <ele>202</ele>
        <time>2025-09-16T12:54:30Z</time>
      </trkpt>
      <trkpt lat="43.6337" lon="2.31781">
        <ele>202.2</ele>
        <time>2025-09-16T12:54:31Z</time>
      </trkpt>
      <trkpt lat="43.63374" lon="2.31786">
        <ele>202.2</ele>
        <time>2025-09-16T12:54:32Z</time>
      </trkpt>
      <trkpt lat="43.63379" lon="2.3179">
        <ele>202</ele>
        <time>2025-09-16T12:54:33Z</time>
      </trkpt>
      <trkpt lat="43.63383" lon="2.31793">
        <ele>201.6</ele>
        <time>2025-09-16T12:54:34Z</time>
      </trkpt>
      <trkpt lat="43.63389" lon="2.31797">
        <ele>201</ele>
        <time>2025-09-16T12:54:35Z</time>
      </trkpt>
      <trkpt lat="43.63395" lon="2.31801">
        <ele>200.4</ele>
        <time>2025-09-16T12:54:36Z</time>
      </trkpt>
      <trkpt lat="43.63401" lon="2.31805">
        <ele>199.6</ele>
        <time>2025-09-16T12:54:37Z</time>
      </trkpt>
      <trkpt lat="43.63407" lon="2.31809">
        <ele>199</ele>
        <time>2025-09-16T12:54:38Z</time>
      </trkpt>
      <trkpt lat="43.63413" lon="2.31814">
        <ele>198.6</ele>
        <time>2025-09-16T12:54:39Z</time>
      </trkpt>
      <trkpt lat="43.63419" lon="2.31818">
        <ele>198</ele>
        <time>2025-09-16T12:54:40Z</time>
      </trkpt>
      <trkpt lat="43.63425" lon="2.31822">
        <ele>197.4</ele>
        <time>2025-09-16T12:54:41Z</time>
      </trkpt>
      <trkpt lat="43.63431" lon="2.31827">
        <ele>196.8</ele>
        <time>2025-09-16T12:54:42Z</time>
      </trkpt>
      <trkpt lat="43.63437" lon="2.31832">
        <ele>196.2</ele>
        <time>2025-09-16T12:54:43Z</time>
      </trkpt>
      <trkpt lat="43.63442" lon="2.31837">
        <ele>195.8</ele>
        <time>2025-09-16T12:54:44Z</time>
      </trkpt>
      <trkpt lat="43.63448" lon="2.31841">
        <ele>195.4</ele>
        <time>2025-09-16T12:54:45Z</time>
      </trkpt>
      <trkpt lat="43.63453" lon="2.31845">
        <ele>195.2</ele>
        <time>2025-09-16T12:54:46Z</time>
      </trkpt>
      <trkpt lat="43.63458" lon="2.31849">
        <ele>195.2</ele>
        <time>2025-09-16T12:54:47Z</time>
      </trkpt>
      <trkpt lat="43.63463" lon="2.31852">
        <ele>195.2</ele>
        <time>2025-09-16T12:54:48Z</time>
      </trkpt>
      <trkpt lat="43.63469" lon="2.31856">
        <ele>195.4</ele>
        <time>2025-09-16T12:54:49Z</time>
      </trkpt>
      <trkpt lat="43.63474" lon="2.3186">
        <ele>195.6</ele>
        <time>2025-09-16T12:54:50Z</time>
      </trkpt>
      <trkpt lat="43.63479" lon="2.31865">
        <ele>195.6</ele>
        <time>2025-09-16T12:54:51Z</time>
      </trkpt>
      <trkpt lat="43.63483" lon="2.31869">
        <ele>195.8</ele>
        <time>2025-09-16T12:54:52Z</time>
      </trkpt>
      <trkpt lat="43.63487" lon="2.31874">
        <ele>196</ele>
        <time>2025-09-16T12:54:53Z</time>
      </trkpt>
      <trkpt lat="43.6349" lon="2.31879">
        <ele>196.4</ele>
        <time>2025-09-16T12:54:54Z</time>
      </trkpt>
      <trkpt lat="43.63493" lon="2.31884">
        <ele>196.8</ele>
        <time>2025-09-16T12:54:55Z</time>
      </trkpt>
      <trkpt lat="43.63495" lon="2.31889">
        <ele>197.2</ele>
        <time>2025-09-16T12:54:56Z</time>
      </trkpt>
      <trkpt lat="43.63497" lon="2.31894">
        <ele>197.6</ele>
        <time>2025-09-16T12:54:57Z</time>
      </trkpt>
      <trkpt lat="43.635" lon="2.31898">
        <ele>198</ele>
        <time>2025-09-16T12:54:58Z</time>
      </trkpt>
      <trkpt lat="43.63503" lon="2.31901">
        <ele>198.6</ele>
        <time>2025-09-16T12:54:59Z</time>
      </trkpt>
      <trkpt lat="43.63506" lon="2.31903">
        <ele>199.2</ele>
        <time>2025-09-16T12:55:00Z</time>
      </trkpt>
      <trkpt lat="43.63509" lon="2.31907">
        <ele>199.8</ele>
        <time>2025-09-16T12:55:01Z</time>
      </trkpt>
      <trkpt lat="43.63511" lon="2.31909">
        <ele>200.4</ele>
        <time>2025-09-16T12:55:02Z</time>
      </trkpt>
      <trkpt lat="43.63513" lon="2.31912">
        <ele>200.6</ele>
        <time>2025-09-16T12:55:03Z</time>
      </trkpt>
      <trkpt lat="43.63517" lon="2.31914">
        <ele>201</ele>
        <time>2025-09-16T12:55:04Z</time>
      </trkpt>
      <trkpt lat="43.6352" lon="2.31915">
        <ele>201</ele>
        <time>2025-09-16T12:55:05Z</time>
      </trkpt>
      <trkpt lat="43.63524" lon="2.31916">
        <ele>201.2</ele>
        <time>2025-09-16T12:55:06Z</time>
      </trkpt>
      <trkpt lat="43.63527" lon="2.31918">
        <ele>201.2</ele>
        <time>2025-09-16T12:55:07Z</time>
      </trkpt>
      <trkpt lat="43.6353" lon="2.31919">
        <ele>201.4</ele>
        <time>2025-09-16T12:55:08Z</time>
      </trkpt>
      <trkpt lat="43.63533" lon="2.31921">
        <ele>201.4</ele>
        <time>2025-09-16T12:55:09Z</time>
      </trkpt>
      <trkpt lat="43.63536" lon="2.31923">
        <ele>201.6</ele>
        <time>2025-09-16T12:55:10Z</time>
      </trkpt>
      <trkpt lat="43.63538" lon="2.31924">
        <ele>201.8</ele>
        <time>2025-09-16T12:55:11Z</time>
      </trkpt>
      <trkpt lat="43.63542" lon="2.31925">
        <ele>201.8</ele>
        <time>2025-09-16T12:55:12Z</time>
      </trkpt>
      <trkpt lat="43.63545" lon="2.31926">
        <ele>201.8</ele>
        <time>2025-09-16T12:55:13Z</time>
      </trkpt>
      <trkpt lat="43.63549" lon="2.31928">
        <ele>201.6</ele>
        <time>2025-09-16T12:55:14Z</time>
      </trkpt>
      <trkpt lat="43.63553" lon="2.31931">
        <ele>201.4</ele>
        <time>2025-09-16T12:55:15Z</time>
      </trkpt>
      <trkpt lat="43.63557" lon="2.31934">
        <ele>201.4</ele>
        <time>2025-09-16T12:55:16Z</time>
      </trkpt>
      <trkpt lat="43.63561" lon="2.31936">
        <ele>201.2</ele>
        <time>2025-09-16T12:55:17Z</time>
      </trkpt>
      <trkpt lat="43.63566" lon="2.31939">
        <ele>201</ele>
        <time>2025-09-16T12:55:18Z</time>
      </trkpt>
      <trkpt lat="43.6357" lon="2.31942">
        <ele>201</ele>
        <time>2025-09-16T12:55:19Z</time>
      </trkpt>
      <trkpt lat="43.63574" lon="2.31945">
        <ele>200.8</ele>
        <time>2025-09-16T12:55:20Z</time>
      </trkpt>
      <trkpt lat="43.63579" lon="2.31948">
        <ele>200.8</ele>
        <time>2025-09-16T12:55:21Z</time>
      </trkpt>
      <trkpt lat="43.63583" lon="2.31951">
        <ele>200.6</ele>
        <time>2025-09-16T12:55:22Z</time>
      </trkpt>
      <trkpt lat="43.63588" lon="2.31954">
        <ele>200.6</ele>
        <time>2025-09-16T12:55:23Z</time>
      </trkpt>
      <trkpt lat="43.63593" lon="2.31957">
        <ele>200.6</ele>
        <time>2025-09-16T12:55:24Z</time>
      </trkpt>
      <trkpt lat="43.63597" lon="2.3196">
        <ele>200.4</ele>
        <time>2025-09-16T12:55:25Z</time>
      </trkpt>
      <trkpt lat="43.63602" lon="2.31963">
        <ele>200.4</ele>
        <time>2025-09-16T12:55:26Z</time>
      </trkpt>
      <trkpt lat="43.63607" lon="2.31966">
        <ele>200.4</ele>
        <time>2025-09-16T12:55:27Z</time>
      </trkpt>
      <trkpt lat="43.63612" lon="2.31969">
        <ele>200.6</ele>
        <time>2025-09-16T12:55:28Z</time>
      </trkpt>
      <trkpt lat="43.63616" lon="2.31973">
        <ele>200.6</ele>
        <time>2025-09-16T12:55:29Z</time>
      </trkpt>
      <trkpt lat="43.63621" lon="2.31976">
        <ele>200.6</ele>
        <time>2025-09-16T12:55:30Z</time>
      </trkpt>
      <trkpt lat="43.63626" lon="2.3198">
        <ele>200.6</ele>
        <time>2025-09-16T12:55:31Z</time>
      </trkpt>
      <trkpt lat="43.63632" lon="2.31983">
        <ele>200.4</ele>
        <time>2025-09-16T12:55:32Z</time>
      </trkpt>
      <trkpt lat="43.63637" lon="2.31986">
        <ele>200.4</ele>
        <time>2025-09-16T12:55:33Z</time>
      </trkpt>
      <trkpt lat="43.63642" lon="2.31988">
        <ele>200.4</ele>
        <time>2025-09-16T12:55:34Z</time>
      </trkpt>
      <trkpt lat="43.63646" lon="2.31991">
        <ele>200.2</ele>
        <time>2025-09-16T12:55:35Z</time>
      </trkpt>
      <trkpt lat="43.63651" lon="2.31993">
        <ele>200.2</ele>
        <time>2025-09-16T12:55:36Z</time>
      </trkpt>
      <trkpt lat="43.63656" lon="2.31995">
        <ele>200.2</ele>
        <time>2025-09-16T12:55:37Z</time>
      </trkpt>
      <trkpt lat="43.63661" lon="2.31997">
        <ele>200.2</ele>
        <time>2025-09-16T12:55:38Z</time>
      </trkpt>
      <trkpt lat="43.63666" lon="2.31998">
        <ele>200.2</ele>
        <time>2025-09-16T12:55:39Z</time>
      </trkpt>
      <trkpt lat="43.63671" lon="2.31999">
        <ele>200.2</ele>
        <time>2025-09-16T12:55:40Z</time>
      </trkpt>
      <trkpt lat="43.63675" lon="2.32">
        <ele>200.2</ele>
        <time>2025-09-16T12:55:41Z</time>
      </trkpt>
      <trkpt lat="43.6368" lon="2.32001">
        <ele>200.4</ele>
        <time>2025-09-16T12:55:42Z</time>
      </trkpt>
      <trkpt lat="43.63685" lon="2.32002">
        <ele>200.4</ele>
        <time>2025-09-16T12:55:43Z</time>
      </trkpt>
      <trkpt lat="43.6369" lon="2.32003">
        <ele>200.4</ele>
        <time>2025-09-16T12:55:44Z</time>
      </trkpt>
      <trkpt lat="43.63694" lon="2.32004">
        <ele>200.4</ele>
        <time>2025-09-16T12:55:45Z</time>
      </trkpt>
      <trkpt lat="43.63699" lon="2.32005">
        <ele>200.4</ele>
        <time>2025-09-16T12:55:46Z</time>
      </trkpt>
      <trkpt lat="43.63704" lon="2.32005">
        <ele>200.4</ele>
        <time>2025-09-16T12:55:47Z</time>
      </trkpt>
      <trkpt lat="43.63709" lon="2.32006">
        <ele>200.4</ele>
        <time>2025-09-16T12:55:48Z</time>
      </trkpt>
      <trkpt lat="43.63714" lon="2.32007">
        <ele>200.4</ele>
        <time>2025-09-16T12:55:49Z</time>
      </trkpt>
      <trkpt lat="43.63719" lon="2.32007">
        <ele>200.4</ele>
        <time>2025-09-16T12:55:50Z</time>
      </trkpt>
      <trkpt lat="43.63724" lon="2.32008">
        <ele>200.4</ele>
        <time>2025-09-16T12:55:51Z</time>
      </trkpt>
      <trkpt lat="43.63729" lon="2.32008">
        <ele>200.4</ele>
        <time>2025-09-16T12:55:52Z</time>
      </trkpt>
      <trkpt lat="43.63733" lon="2.32009">
        <ele>200.4</ele>
        <time>2025-09-16T12:55:53Z</time>
      </trkpt>
      <trkpt lat="43.63738" lon="2.3201">
        <ele>200.4</ele>
        <time>2025-09-16T12:55:54Z</time>
      </trkpt>
      <trkpt lat="43.63742" lon="2.3201">
        <ele>200.4</ele>
        <time>2025-09-16T12:55:55Z</time>
      </trkpt>
      <trkpt lat="43.63746" lon="2.32011">
        <ele>200.6</ele>
        <time>2025-09-16T12:55:56Z</time>
      </trkpt>
      <trkpt lat="43.63751" lon="2.32011">
        <ele>200.6</ele>
        <time>2025-09-16T12:55:57Z</time>
      </trkpt>
      <trkpt lat="43.63755" lon="2.32011">
        <ele>200.6</ele>
        <time>2025-09-16T12:55:58Z</time>
      </trkpt>
      <trkpt lat="43.6376" lon="2.32012">
        <ele>200.6</ele>
        <time>2025-09-16T12:55:59Z</time>
      </trkpt>
      <trkpt lat="43.63765" lon="2.32013">
        <ele>200.8</ele>
        <time>2025-09-16T12:56:00Z</time>
      </trkpt>
      <trkpt lat="43.63769" lon="2.32014">
        <ele>200.8</ele>
        <time>2025-09-16T12:56:01Z</time>
      </trkpt>
      <trkpt lat="43.63774" lon="2.32015">
        <ele>201</ele>
        <time>2025-09-16T12:56:02Z</time>
      </trkpt>
      <trkpt lat="43.63779" lon="2.32015">
        <ele>201</ele>
        <time>2025-09-16T12:56:03Z</time>
      </trkpt>
      <trkpt lat="43.63784" lon="2.32016">
        <ele>201.2</ele>
        <time>2025-09-16T12:56:04Z</time>
      </trkpt>
      <trkpt lat="43.63788" lon="2.32016">
        <ele>201.2</ele>
        <time>2025-09-16T12:56:05Z</time>
      </trkpt>
      <trkpt lat="43.63793" lon="2.32017">
        <ele>201.2</ele>
        <time>2025-09-16T12:56:06Z</time>
      </trkpt>
      <trkpt lat="43.63798" lon="2.32017">
        <ele>201.4</ele>
        <time>2025-09-16T12:56:07Z</time>
      </trkpt>
      <trkpt lat="43.63803" lon="2.32017">
        <ele>201.4</ele>
        <time>2025-09-16T12:56:08Z</time>
      </trkpt>
      <trkpt lat="43.63808" lon="2.32016">
        <ele>201.4</ele>
        <time>2025-09-16T12:56:09Z</time>
      </trkpt>
      <trkpt lat="43.63813" lon="2.32015">
        <ele>201.4</ele>
        <time>2025-09-16T12:56:10Z</time>
      </trkpt>
      <trkpt lat="43.63818" lon="2.32013">
        <ele>201.2</ele>
        <time>2025-09-16T12:56:11Z</time>
      </trkpt>
      <trkpt lat="43.63823" lon="2.32012">
        <ele>201.2</ele>
        <time>2025-09-16T12:56:12Z</time>
      </trkpt>
      <trkpt lat="43.63828" lon="2.3201">
        <ele>201</ele>
        <time>2025-09-16T12:56:13Z</time>
      </trkpt>
      <trkpt lat="43.63833" lon="2.32008">
        <ele>201</ele>
        <time>2025-09-16T12:56:14Z</time>
      </trkpt>
      <trkpt lat="43.63838" lon="2.32005">
        <ele>200.8</ele>
        <time>2025-09-16T12:56:15Z</time>
      </trkpt>
      <trkpt lat="43.63843" lon="2.32002">
        <ele>200.8</ele>
        <time>2025-09-16T12:56:16Z</time>
      </trkpt>
      <trkpt lat="43.63847" lon="2.31998">
        <ele>200.8</ele>
        <time>2025-09-16T12:56:17Z</time>
      </trkpt>
      <trkpt lat="43.63852" lon="2.31994">
        <ele>200.6</ele>
        <time>2025-09-16T12:56:18Z</time>
      </trkpt>
      <trkpt lat="43.63857" lon="2.3199">
        <ele>200.6</ele>
        <time>2025-09-16T12:56:19Z</time>
      </trkpt>
      <trkpt lat="43.63862" lon="2.31986">
        <ele>200.6</ele>
        <time>2025-09-16T12:56:20Z</time>
      </trkpt>
      <trkpt lat="43.63866" lon="2.31982">
        <ele>200.4</ele>
        <time>2025-09-16T12:56:21Z</time>
      </trkpt>
      <trkpt lat="43.63871" lon="2.31977">
        <ele>200.4</ele>
        <time>2025-09-16T12:56:22Z</time>
      </trkpt>
      <trkpt lat="43.63875" lon="2.31973">
        <ele>200.4</ele>
        <time>2025-09-16T12:56:23Z</time>
      </trkpt>
      <trkpt lat="43.6388" lon="2.31969">
        <ele>200.2</ele>
        <time>2025-09-16T12:56:24Z</time>
      </trkpt>
      <trkpt lat="43.63884" lon="2.31964">
        <ele>200.2</ele>
        <time>2025-09-16T12:56:25Z</time>
      </trkpt>
      <trkpt lat="43.63888" lon="2.31961">
        <ele>200</ele>
        <time>2025-09-16T12:56:26Z</time>
      </trkpt>
      <trkpt lat="43.63892" lon="2.31957">
        <ele>200</ele>
        <time>2025-09-16T12:56:27Z</time>
      </trkpt>
      <trkpt lat="43.63898" lon="2.31952">
        <ele>200</ele>
        <time>2025-09-16T12:56:28Z</time>
      </trkpt>
      <trkpt lat="43.63902" lon="2.31948">
        <ele>200.2</ele>
        <time>2025-09-16T12:56:29Z</time>
      </trkpt>
      <trkpt lat="43.63906" lon="2.31944">
        <ele>200.4</ele>
        <time>2025-09-16T12:56:30Z</time>
      </trkpt>
      <trkpt lat="43.63911" lon="2.3194">
        <ele>200.4</ele>
        <time>2025-09-16T12:56:31Z</time>
      </trkpt>
      <trkpt lat="43.63915" lon="2.31935">
        <ele>200.4</ele>
        <time>2025-09-16T12:56:32Z</time>
      </trkpt>
      <trkpt lat="43.6392" lon="2.31931">
        <ele>200.4</ele>
        <time>2025-09-16T12:56:33Z</time>
      </trkpt>
      <trkpt lat="43.63924" lon="2.31927">
        <ele>200.4</ele>
        <time>2025-09-16T12:56:34Z</time>
      </trkpt>
      <trkpt lat="43.63929" lon="2.31923">
        <ele>200.4</ele>
        <time>2025-09-16T12:56:35Z</time>
      </trkpt>
      <trkpt lat="43.63933" lon="2.31918">
        <ele>200.2</ele>
        <time>2025-09-16T12:56:36Z</time>
      </trkpt>
      <trkpt lat="43.63938" lon="2.31914">
        <ele>200</ele>
        <time>2025-09-16T12:56:37Z</time>
      </trkpt>
      <trkpt lat="43.63942" lon="2.31909">
        <ele>200</ele>
        <time>2025-09-16T12:56:38Z</time>
      </trkpt>
      <trkpt lat="43.63947" lon="2.31906">
        <ele>200</ele>
        <time>2025-09-16T12:56:39Z</time>
      </trkpt>
      <trkpt lat="43.63951" lon="2.31902">
        <ele>200</ele>
        <time>2025-09-16T12:56:40Z</time>
      </trkpt>
      <trkpt lat="43.63956" lon="2.31897">
        <ele>200</ele>
        <time>2025-09-16T12:56:41Z</time>
      </trkpt>
      <trkpt lat="43.6396" lon="2.31893">
        <ele>200.2</ele>
        <time>2025-09-16T12:56:42Z</time>
      </trkpt>
      <trkpt lat="43.63964" lon="2.31889">
        <ele>200.2</ele>
        <time>2025-09-16T12:56:43Z</time>
      </trkpt>
      <trkpt lat="43.63969" lon="2.31885">
        <ele>200.4</ele>
        <time>2025-09-16T12:56:44Z</time>
      </trkpt>
      <trkpt lat="43.63973" lon="2.3188">
        <ele>200.4</ele>
        <time>2025-09-16T12:56:45Z</time>
      </trkpt>
      <trkpt lat="43.63978" lon="2.31876">
        <ele>200.4</ele>
        <time>2025-09-16T12:56:46Z</time>
      </trkpt>
      <trkpt lat="43.63982" lon="2.31873">
        <ele>200.6</ele>
        <time>2025-09-16T12:56:47Z</time>
      </trkpt>
      <trkpt lat="43.63987" lon="2.3187">
        <ele>200.6</ele>
        <time>2025-09-16T12:56:48Z</time>
      </trkpt>
      <trkpt lat="43.63992" lon="2.31867">
        <ele>200.6</ele>
        <time>2025-09-16T12:56:49Z</time>
      </trkpt>
      <trkpt lat="43.63997" lon="2.31866">
        <ele>200.6</ele>
        <time>2025-09-16T12:56:50Z</time>
      </trkpt>
      <trkpt lat="43.64002" lon="2.31864">
        <ele>200.6</ele>
        <time>2025-09-16T12:56:51Z</time>
      </trkpt>
      <trkpt lat="43.64006" lon="2.31863">
        <ele>200.6</ele>
        <time>2025-09-16T12:56:52Z</time>
      </trkpt>
      <trkpt lat="43.64011" lon="2.31862">
        <ele>200.6</ele>
        <time>2025-09-16T12:56:53Z</time>
      </trkpt>
      <trkpt lat="43.64016" lon="2.31862">
        <ele>200.6</ele>
        <time>2025-09-16T12:56:54Z</time>
      </trkpt>
      <trkpt lat="43.64021" lon="2.31862">
        <ele>200.6</ele>
        <time>2025-09-16T12:56:55Z</time>
      </trkpt>
      <trkpt lat="43.64026" lon="2.31862">
        <ele>200.4</ele>
        <time>2025-09-16T12:56:56Z</time>
      </trkpt>
      <trkpt lat="43.64031" lon="2.31861">
        <ele>200.4</ele>
        <time>2025-09-16T12:56:57Z</time>
      </trkpt>
      <trkpt lat="43.64036" lon="2.31862">
        <ele>200.4</ele>
        <time>2025-09-16T12:56:58Z</time>
      </trkpt>
      <trkpt lat="43.64041" lon="2.31861">
        <ele>200.4</ele>
        <time>2025-09-16T12:56:59Z</time>
      </trkpt>
      <trkpt lat="43.64046" lon="2.31861">
        <ele>200.4</ele>
        <time>2025-09-16T12:57:00Z</time>
      </trkpt>
      <trkpt lat="43.64051" lon="2.31861">
        <ele>200.4</ele>
        <time>2025-09-16T12:57:01Z</time>
      </trkpt>
      <trkpt lat="43.64056" lon="2.31862">
        <ele>200.4</ele>
        <time>2025-09-16T12:57:02Z</time>
      </trkpt>
      <trkpt lat="43.64062" lon="2.31862">
        <ele>200.4</ele>
        <time>2025-09-16T12:57:03Z</time>
      </trkpt>
      <trkpt lat="43.64067" lon="2.31862">
        <ele>200.2</ele>
        <time>2025-09-16T12:57:04Z</time>
      </trkpt>
      <trkpt lat="43.64072" lon="2.31862">
        <ele>200.2</ele>
        <time>2025-09-16T12:57:05Z</time>
      </trkpt>
      <trkpt lat="43.64077" lon="2.31863">
        <ele>200</ele>
        <time>2025-09-16T12:57:06Z</time>
      </trkpt>
      <trkpt lat="43.64083" lon="2.31864">
        <ele>200</ele>
        <time>2025-09-16T12:57:07Z</time>
      </trkpt>
      <trkpt lat="43.64088" lon="2.31864">
        <ele>200.2</ele>
        <time>2025-09-16T12:57:08Z</time>
      </trkpt>
      <trkpt lat="43.64093" lon="2.31865">
        <ele>200.2</ele>
        <time>2025-09-16T12:57:09Z</time>
      </trkpt>
      <trkpt lat="43.64098" lon="2.31865">
        <ele>200.4</ele>
        <time>2025-09-16T12:57:10Z</time>
      </trkpt>
      <trkpt lat="43.64103" lon="2.31866">
        <ele>200.6</ele>
        <time>2025-09-16T12:57:11Z</time>
      </trkpt>
      <trkpt lat="43.64108" lon="2.31867">
        <ele>200.6</ele>
        <time>2025-09-16T12:57:12Z</time>
      </trkpt>
      <trkpt lat="43.64113" lon="2.31869">
        <ele>200.8</ele>
        <time>2025-09-16T12:57:13Z</time>
      </trkpt>
      <trkpt lat="43.64118" lon="2.3187">
        <ele>200.8</ele>
        <time>2025-09-16T12:57:14Z</time>
      </trkpt>
      <trkpt lat="43.64123" lon="2.31872">
        <ele>200.8</ele>
        <time>2025-09-16T12:57:15Z</time>
      </trkpt>
      <trkpt lat="43.64128" lon="2.31874">
        <ele>200.8</ele>
        <time>2025-09-16T12:57:16Z</time>
      </trkpt>
      <trkpt lat="43.64132" lon="2.31876">
        <ele>201</ele>
        <time>2025-09-16T12:57:17Z</time>
      </trkpt>
      <trkpt lat="43.64137" lon="2.31878">
        <ele>201</ele>
        <time>2025-09-16T12:57:18Z</time>
      </trkpt>
      <trkpt lat="43.64141" lon="2.3188">
        <ele>201</ele>
        <time>2025-09-16T12:57:19Z</time>
      </trkpt>
      <trkpt lat="43.64146" lon="2.31882">
        <ele>201</ele>
        <time>2025-09-16T12:57:20Z</time>
      </trkpt>
      <trkpt lat="43.6415" lon="2.31884">
        <ele>201</ele>
        <time>2025-09-16T12:57:21Z</time>
      </trkpt>
      <trkpt lat="43.64155" lon="2.31886">
        <ele>201</ele>
        <time>2025-09-16T12:57:22Z</time>
      </trkpt>
      <trkpt lat="43.64159" lon="2.31888">
        <ele>201</ele>
        <time>2025-09-16T12:57:23Z</time>
      </trkpt>
      <trkpt lat="43.64164" lon="2.3189">
        <ele>201</ele>
        <time>2025-09-16T12:57:24Z</time>
      </trkpt>
      <trkpt lat="43.64168" lon="2.31892">
        <ele>201</ele>
        <time>2025-09-16T12:57:25Z</time>
      </trkpt>
      <trkpt lat="43.64172" lon="2.31894">
        <ele>201.2</ele>
        <time>2025-09-16T12:57:26Z</time>
      </trkpt>
      <trkpt lat="43.64176" lon="2.31896">
        <ele>201.4</ele>
        <time>2025-09-16T12:57:27Z</time>
      </trkpt>
      <trkpt lat="43.64181" lon="2.31898">
        <ele>201.4</ele>
        <time>2025-09-16T12:57:28Z</time>
      </trkpt>
      <trkpt lat="43.64185" lon="2.319">
        <ele>201.6</ele>
        <time>2025-09-16T12:57:29Z</time>
      </trkpt>
      <trkpt lat="43.64189" lon="2.31903">
        <ele>201.6</ele>
        <time>2025-09-16T12:57:30Z</time>
      </trkpt>
      <trkpt lat="43.64193" lon="2.31905">
        <ele>201.6</ele>
        <time>2025-09-16T12:57:31Z</time>
      </trkpt>
      <trkpt lat="43.64197" lon="2.31908">
        <ele>201.8</ele>
        <time>2025-09-16T12:57:32Z</time>
      </trkpt>
      <trkpt lat="43.64201" lon="2.31911">
        <ele>201.8</ele>
        <time>2025-09-16T12:57:33Z</time>
      </trkpt>
      <trkpt lat="43.64205" lon="2.31913">
        <ele>202</ele>
        <time>2025-09-16T12:57:34Z</time>
      </trkpt>
      <trkpt lat="43.64209" lon="2.31916">
        <ele>202</ele>
        <time>2025-09-16T12:57:35Z</time>
      </trkpt>
      <trkpt lat="43.64214" lon="2.31918">
        <ele>202.2</ele>
        <time>2025-09-16T12:57:36Z</time>
      </trkpt>
      <trkpt lat="43.64218" lon="2.31922">
        <ele>202.4</ele>
        <time>2025-09-16T12:57:37Z</time>
      </trkpt>
      <trkpt lat="43.64221" lon="2.31925">
        <ele>202.6</ele>
        <time>2025-09-16T12:57:38Z</time>
      </trkpt>
      <trkpt lat="43.64225" lon="2.31929">
        <ele>202.8</ele>
        <time>2025-09-16T12:57:39Z</time>
      </trkpt>
      <trkpt lat="43.64229" lon="2.31932">
        <ele>203</ele>
        <time>2025-09-16T12:57:40Z</time>
      </trkpt>
      <trkpt lat="43.64234" lon="2.31935">
        <ele>203.2</ele>
        <time>2025-09-16T12:57:41Z</time>
      </trkpt>
      <trkpt lat="43.64238" lon="2.31938">
        <ele>203.2</ele>
        <time>2025-09-16T12:57:42Z</time>
      </trkpt>
      <trkpt lat="43.64242" lon="2.3194">
        <ele>203.4</ele>
        <time>2025-09-16T12:57:43Z</time>
      </trkpt>
      <trkpt lat="43.64246" lon="2.31942">
        <ele>203.6</ele>
        <time>2025-09-16T12:57:44Z</time>
      </trkpt>
      <trkpt lat="43.64251" lon="2.31942">
        <ele>203.8</ele>
        <time>2025-09-16T12:57:45Z</time>
      </trkpt>
      <trkpt lat="43.64255" lon="2.31943">
        <ele>204</ele>
        <time>2025-09-16T12:57:46Z</time>
      </trkpt>
      <trkpt lat="43.64259" lon="2.31943">
        <ele>204.2</ele>
        <time>2025-09-16T12:57:47Z</time>
      </trkpt>
      <trkpt lat="43.64263" lon="2.31943">
        <ele>204.4</ele>
        <time>2025-09-16T12:57:48Z</time>
      </trkpt>
      <trkpt lat="43.64267" lon="2.31943">
        <ele>204.8</ele>
        <time>2025-09-16T12:57:49Z</time>
      </trkpt>
      <trkpt lat="43.64271" lon="2.31944">
        <ele>205</ele>
        <time>2025-09-16T12:57:50Z</time>
      </trkpt>
      <trkpt lat="43.64275" lon="2.31945">
        <ele>205.4</ele>
        <time>2025-09-16T12:57:51Z</time>
      </trkpt>
      <trkpt lat="43.64279" lon="2.31946">
        <ele>205.6</ele>
        <time>2025-09-16T12:57:52Z</time>
      </trkpt>
      <trkpt lat="43.64282" lon="2.31947">
        <ele>205.8</ele>
        <time>2025-09-16T12:57:53Z</time>
      </trkpt>
      <trkpt lat="43.64286" lon="2.31948">
        <ele>206</ele>
        <time>2025-09-16T12:57:54Z</time>
      </trkpt>
      <trkpt lat="43.6429" lon="2.31949">
        <ele>206.2</ele>
        <time>2025-09-16T12:57:55Z</time>
      </trkpt>
      <trkpt lat="43.64293" lon="2.3195">
        <ele>206.2</ele>
        <time>2025-09-16T12:57:56Z</time>
      </trkpt>
      <trkpt lat="43.64297" lon="2.31951">
        <ele>206.4</ele>
        <time>2025-09-16T12:57:57Z</time>
      </trkpt>
      <trkpt lat="43.64301" lon="2.31952">
        <ele>206.4</ele>
        <time>2025-09-16T12:57:58Z</time>
      </trkpt>
      <trkpt lat="43.64304" lon="2.31953">
        <ele>206.6</ele>
        <time>2025-09-16T12:57:59Z</time>
      </trkpt>
      <trkpt lat="43.64308" lon="2.31954">
        <ele>206.8</ele>
        <time>2025-09-16T12:58:00Z</time>
      </trkpt>
      <trkpt lat="43.64311" lon="2.31956">
        <ele>207</ele>
        <time>2025-09-16T12:58:01Z</time>
      </trkpt>
      <trkpt lat="43.64313" lon="2.31958">
        <ele>207.2</ele>
        <time>2025-09-16T12:58:02Z</time>
      </trkpt>
      <trkpt lat="43.64316" lon="2.3196">
        <ele>207.4</ele>
        <time>2025-09-16T12:58:03Z</time>
      </trkpt>
      <trkpt lat="43.64319" lon="2.31962">
        <ele>207.8</ele>
        <time>2025-09-16T12:58:04Z</time>
      </trkpt>
      <trkpt lat="43.64321" lon="2.31963">
        <ele>208</ele>
        <time>2025-09-16T12:58:05Z</time>
      </trkpt>
      <trkpt lat="43.64324" lon="2.31964">
        <ele>208.2</ele>
        <time>2025-09-16T12:58:06Z</time>
      </trkpt>
      <trkpt lat="43.64327" lon="2.31966">
        <ele>208.4</ele>
        <time>2025-09-16T12:58:07Z</time>
      </trkpt>
      <trkpt lat="43.64329" lon="2.31967">
        <ele>208.6</ele>
        <time>2025-09-16T12:58:08Z</time>
      </trkpt>
      <trkpt lat="43.64332" lon="2.31969">
        <ele>208.8</ele>
        <time>2025-09-16T12:58:09Z</time>
      </trkpt>
      <trkpt lat="43.64334" lon="2.3197">
        <ele>209</ele>
        <time>2025-09-16T12:58:10Z</time>
      </trkpt>
      <trkpt lat="43.64336" lon="2.31972">
        <ele>209.4</ele>
        <time>2025-09-16T12:58:11Z</time>
      </trkpt>
      <trkpt lat="43.64339" lon="2.31973">
        <ele>209.6</ele>
        <time>2025-09-16T12:58:12Z</time>
      </trkpt>
      <trkpt lat="43.64341" lon="2.31975">
        <ele>209.6</ele>
        <time>2025-09-16T12:58:13Z</time>
      </trkpt>
      <trkpt lat="43.64344" lon="2.31977">
        <ele>209.8</ele>
        <time>2025-09-16T12:58:14Z</time>
      </trkpt>
      <trkpt lat="43.64347" lon="2.31978">
        <ele>209.8</ele>
        <time>2025-09-16T12:58:15Z</time>
      </trkpt>
      <trkpt lat="43.64349" lon="2.31979">
        <ele>210</ele>
        <time>2025-09-16T12:58:16Z</time>
      </trkpt>
      <trkpt lat="43.64351" lon="2.3198">
        <ele>210.2</ele>
        <time>2025-09-16T12:58:17Z</time>
      </trkpt>
      <trkpt lat="43.64353" lon="2.31982">
        <ele>210.2</ele>
        <time>2025-09-16T12:58:18Z</time>
      </trkpt>
      <trkpt lat="43.64356" lon="2.31983">
        <ele>210.4</ele>
        <time>2025-09-16T12:58:19Z</time>
      </trkpt>
      <trkpt lat="43.64358" lon="2.31984">
        <ele>210.6</ele>
        <time>2025-09-16T12:58:20Z</time>
      </trkpt>
      <trkpt lat="43.6436" lon="2.31986">
        <ele>210.8</ele>
        <time>2025-09-16T12:58:21Z</time>
      </trkpt>
      <trkpt lat="43.64362" lon="2.31987">
        <ele>210.8</ele>
        <time>2025-09-16T12:58:22Z</time>
      </trkpt>
      <trkpt lat="43.64365" lon="2.31988">
        <ele>211</ele>
        <time>2025-09-16T12:58:23Z</time>
      </trkpt>
      <trkpt lat="43.64367" lon="2.31989">
        <ele>211</ele>
        <time>2025-09-16T12:58:24Z</time>
      </trkpt>
      <trkpt lat="43.6437" lon="2.3199">
        <ele>211.2</ele>
        <time>2025-09-16T12:58:25Z</time>
      </trkpt>
      <trkpt lat="43.64372" lon="2.31991">
        <ele>211.2</ele>
        <time>2025-09-16T12:58:26Z</time>
      </trkpt>
      <trkpt lat="43.64374" lon="2.31992">
        <ele>211.4</ele>
        <time>2025-09-16T12:58:27Z</time>
      </trkpt>
      <trkpt lat="43.64376" lon="2.31994">
        <ele>211.4</ele>
        <time>2025-09-16T12:58:28Z</time>
      </trkpt>
      <trkpt lat="43.64378" lon="2.31995">
        <ele>211.6</ele>
        <time>2025-09-16T12:58:29Z</time>
      </trkpt>
      <trkpt lat="43.6438" lon="2.31997">
        <ele>211.8</ele>
        <time>2025-09-16T12:58:30Z</time>
      </trkpt>
      <trkpt lat="43.64381" lon="2.31999">
        <ele>211.8</ele>
        <time>2025-09-16T12:58:31Z</time>
      </trkpt>
      <trkpt lat="43.64383" lon="2.32001">
        <ele>212.2</ele>
        <time>2025-09-16T12:58:32Z</time>
      </trkpt>
      <trkpt lat="43.64385" lon="2.32003">
        <ele>212.4</ele>
        <time>2025-09-16T12:58:33Z</time>
      </trkpt>
      <trkpt lat="43.64387" lon="2.32004">
        <ele>212.6</ele>
        <time>2025-09-16T12:58:34Z</time>
      </trkpt>
      <trkpt lat="43.6439" lon="2.32005">
        <ele>212.8</ele>
        <time>2025-09-16T12:58:35Z</time>
      </trkpt>
      <trkpt lat="43.64392" lon="2.32006">
        <ele>213</ele>
        <time>2025-09-16T12:58:36Z</time>
      </trkpt>
      <trkpt lat="43.64394" lon="2.32008">
        <ele>213.4</ele>
        <time>2025-09-16T12:58:37Z</time>
      </trkpt>
      <trkpt lat="43.64396" lon="2.3201">
        <ele>213.6</ele>
        <time>2025-09-16T12:58:38Z</time>
      </trkpt>
      <trkpt lat="43.64398" lon="2.32012">
        <ele>213.8</ele>
        <time>2025-09-16T12:58:39Z</time>
      </trkpt>
      <trkpt lat="43.644" lon="2.32014">
        <ele>214.2</ele>
        <time>2025-09-16T12:58:40Z</time>
      </trkpt>
      <trkpt lat="43.64402" lon="2.32015">
        <ele>214.4</ele>
        <time>2025-09-16T12:58:41Z</time>
      </trkpt>
      <trkpt lat="43.64405" lon="2.32017">
        <ele>214.6</ele>
        <time>2025-09-16T12:58:42Z</time>
      </trkpt>
      <trkpt lat="43.64407" lon="2.32018">
        <ele>214.8</ele>
        <time>2025-09-16T12:58:43Z</time>
      </trkpt>
      <trkpt lat="43.6441" lon="2.32019">
        <ele>215.2</ele>
        <time>2025-09-16T12:58:44Z</time>
      </trkpt>
      <trkpt lat="43.64412" lon="2.32021">
        <ele>215.4</ele>
        <time>2025-09-16T12:58:45Z</time>
      </trkpt>
      <trkpt lat="43.64414" lon="2.32022">
        <ele>215.6</ele>
        <time>2025-09-16T12:58:46Z</time>
      </trkpt>
      <trkpt lat="43.64416" lon="2.32024">
        <ele>215.8</ele>
        <time>2025-09-16T12:58:47Z</time>
      </trkpt>
      <trkpt lat="43.64418" lon="2.32025">
        <ele>215.8</ele>
        <time>2025-09-16T12:58:48Z</time>
      </trkpt>
      <trkpt lat="43.64421" lon="2.32027">
        <ele>216</ele>
        <time>2025-09-16T12:58:49Z</time>
      </trkpt>
      <trkpt lat="43.64423" lon="2.32029">
        <ele>216.2</ele>
        <time>2025-09-16T12:58:50Z</time>
      </trkpt>
      <trkpt lat="43.64425" lon="2.3203">
        <ele>216.2</ele>
        <time>2025-09-16T12:58:51Z</time>
      </trkpt>
      <trkpt lat="43.64427" lon="2.32031">
        <ele>216.4</ele>
        <time>2025-09-16T12:58:52Z</time>
      </trkpt>
      <trkpt lat="43.6443" lon="2.32033">
        <ele>216.4</ele>
        <time>2025-09-16T12:58:53Z</time>
      </trkpt>
      <trkpt lat="43.64432" lon="2.32034">
        <ele>216.6</ele>
        <time>2025-09-16T12:58:54Z</time>
      </trkpt>
      <trkpt lat="43.64434" lon="2.32035">
        <ele>216.6</ele>
        <time>2025-09-16T12:58:55Z</time>
      </trkpt>
      <trkpt lat="43.64436" lon="2.32037">
        <ele>216.8</ele>
        <time>2025-09-16T12:58:56Z</time>
      </trkpt>
      <trkpt lat="43.64439" lon="2.32038">
        <ele>216.8</ele>
        <time>2025-09-16T12:58:57Z</time>
      </trkpt>
      <trkpt lat="43.64441" lon="2.3204">
        <ele>216.8</ele>
        <time>2025-09-16T12:58:58Z</time>
      </trkpt>
      <trkpt lat="43.64443" lon="2.32041">
        <ele>217</ele>
        <time>2025-09-16T12:58:59Z</time>
      </trkpt>
      <trkpt lat="43.64445" lon="2.32043">
        <ele>217</ele>
        <time>2025-09-16T12:59:00Z</time>
      </trkpt>
      <trkpt lat="43.64447" lon="2.32043">
        <ele>217.2</ele>
        <time>2025-09-16T12:59:01Z</time>
      </trkpt>
      <trkpt lat="43.6445" lon="2.32044">
        <ele>217.2</ele>
        <time>2025-09-16T12:59:02Z</time>
      </trkpt>
      <trkpt lat="43.64452" lon="2.32045">
        <ele>217.4</ele>
        <time>2025-09-16T12:59:03Z</time>
      </trkpt>
      <trkpt lat="43.64454" lon="2.32047">
        <ele>217.4</ele>
        <time>2025-09-16T12:59:04Z</time>
      </trkpt>
      <trkpt lat="43.64457" lon="2.32049">
        <ele>217.6</ele>
        <time>2025-09-16T12:59:05Z</time>
      </trkpt>
      <trkpt lat="43.64459" lon="2.3205">
        <ele>217.8</ele>
        <time>2025-09-16T12:59:06Z</time>
      </trkpt>
      <trkpt lat="43.64462" lon="2.32052">
        <ele>218</ele>
        <time>2025-09-16T12:59:07Z</time>
      </trkpt>
      <trkpt lat="43.64464" lon="2.32053">
        <ele>218.2</ele>
        <time>2025-09-16T12:59:08Z</time>
      </trkpt>
      <trkpt lat="43.64466" lon="2.32054">
        <ele>218.2</ele>
        <time>2025-09-16T12:59:09Z</time>
      </trkpt>
      <trkpt lat="43.64468" lon="2.32056">
        <ele>218.4</ele>
        <time>2025-09-16T12:59:10Z</time>
      </trkpt>
      <trkpt lat="43.6447" lon="2.32057">
        <ele>218.6</ele>
        <time>2025-09-16T12:59:11Z</time>
      </trkpt>
      <trkpt lat="43.64472" lon="2.32058">
        <ele>218.8</ele>
        <time>2025-09-16T12:59:12Z</time>
      </trkpt>
      <trkpt lat="43.64475" lon="2.3206">
        <ele>219</ele>
        <time>2025-09-16T12:59:13Z</time>
      </trkpt>
      <trkpt lat="43.64477" lon="2.32061">
        <ele>219.2</ele>
        <time>2025-09-16T12:59:14Z</time>
      </trkpt>
      <trkpt lat="43.64479" lon="2.32063">
        <ele>219.2</ele>
        <time>2025-09-16T12:59:15Z</time>
      </trkpt>
      <trkpt lat="43.64482" lon="2.32064">
        <ele>219.4</ele>
        <time>2025-09-16T12:59:16Z</time>
      </trkpt>
      <trkpt lat="43.64484" lon="2.32066">
        <ele>219.6</ele>
        <time>2025-09-16T12:59:17Z</time>
      </trkpt>
      <trkpt lat="43.64487" lon="2.32068">
        <ele>219.8</ele>
        <time>2025-09-16T12:59:18Z</time>
      </trkpt>
      <trkpt lat="43.64489" lon="2.3207">
        <ele>220</ele>
        <time>2025-09-16T12:59:19Z</time>
      </trkpt>
      <trkpt lat="43.64491" lon="2.32071">
        <ele>220.2</ele>
        <time>2025-09-16T12:59:20Z</time>
      </trkpt>
      <trkpt lat="43.64493" lon="2.32072">
        <ele>220.4</ele>
        <time>2025-09-16T12:59:21Z</time>
      </trkpt>
      <trkpt lat="43.64496" lon="2.32073">
        <ele>220.4</ele>
        <time>2025-09-16T12:59:22Z</time>
      </trkpt>
      <trkpt lat="43.64498" lon="2.32074">
        <ele>220.6</ele>
        <time>2025-09-16T12:59:23Z</time>
      </trkpt>
      <trkpt lat="43.64501" lon="2.32075">
        <ele>220.6</ele>
        <time>2025-09-16T12:59:24Z</time>
      </trkpt>
      <trkpt lat="43.64503" lon="2.32076">
        <ele>220.8</ele>
        <time>2025-09-16T12:59:25Z</time>
      </trkpt>
      <trkpt lat="43.64505" lon="2.32077">
        <ele>220.8</ele>
        <time>2025-09-16T12:59:26Z</time>
      </trkpt>
      <trkpt lat="43.64508" lon="2.32079">
        <ele>221</ele>
        <time>2025-09-16T12:59:27Z</time>
      </trkpt>
      <trkpt lat="43.64509" lon="2.32079">
        <ele>221.2</ele>
        <time>2025-09-16T12:59:28Z</time>
      </trkpt>
      <trkpt lat="43.64511" lon="2.32081">
        <ele>221.2</ele>
        <time>2025-09-16T12:59:29Z</time>
      </trkpt>
      <trkpt lat="43.64513" lon="2.32083">
        <ele>221.4</ele>
        <time>2025-09-16T12:59:30Z</time>
      </trkpt>
      <trkpt lat="43.64515" lon="2.32084">
        <ele>221.6</ele>
        <time>2025-09-16T12:59:31Z</time>
      </trkpt>
      <trkpt lat="43.64517" lon="2.32085">
        <ele>221.6</ele>
        <time>2025-09-16T12:59:32Z</time>
      </trkpt>
      <trkpt lat="43.64519" lon="2.32086">
        <ele>221.8</ele>
        <time>2025-09-16T12:59:33Z</time>
      </trkpt>
      <trkpt lat="43.64521" lon="2.32087">
        <ele>222</ele>
        <time>2025-09-16T12:59:34Z</time>
      </trkpt>
      <trkpt lat="43.64524" lon="2.32089">
        <ele>222.2</ele>
        <time>2025-09-16T12:59:35Z</time>
      </trkpt>
      <trkpt lat="43.64526" lon="2.3209">
        <ele>222.2</ele>
        <time>2025-09-16T12:59:36Z</time>
      </trkpt>
      <trkpt lat="43.64528" lon="2.32092">
        <ele>222.4</ele>
        <time>2025-09-16T12:59:37Z</time>
      </trkpt>
      <trkpt lat="43.64531" lon="2.32093">
        <ele>222.6</ele>
        <time>2025-09-16T12:59:38Z</time>
      </trkpt>
      <trkpt lat="43.64532" lon="2.32094">
        <ele>222.6</ele>
        <time>2025-09-16T12:59:39Z</time>
      </trkpt>
      <trkpt lat="43.64534" lon="2.32096">
        <ele>222.8</ele>
        <time>2025-09-16T12:59:40Z</time>
      </trkpt>
      <trkpt lat="43.64536" lon="2.32097">
        <ele>223</ele>
        <time>2025-09-16T12:59:41Z</time>
      </trkpt>
      <trkpt lat="43.64539" lon="2.32098">
        <ele>223.2</ele>
        <time>2025-09-16T12:59:42Z</time>
      </trkpt>
      <trkpt lat="43.64542" lon="2.321">
        <ele>223.4</ele>
        <time>2025-09-16T12:59:43Z</time>
      </trkpt>
      <trkpt lat="43.64545" lon="2.321">
        <ele>223.6</ele>
        <time>2025-09-16T12:59:44Z</time>
      </trkpt>
      <trkpt lat="43.64547" lon="2.32102">
        <ele>223.8</ele>
        <time>2025-09-16T12:59:45Z</time>
      </trkpt>
      <trkpt lat="43.6455" lon="2.32103">
        <ele>224</ele>
        <time>2025-09-16T12:59:46Z</time>
      </trkpt>
      <trkpt lat="43.64553" lon="2.32104">
        <ele>224.2</ele>
        <time>2025-09-16T12:59:47Z</time>
      </trkpt>
      <trkpt lat="43.64555" lon="2.32105">
        <ele>224.4</ele>
        <time>2025-09-16T12:59:48Z</time>
      </trkpt>
      <trkpt lat="43.64558" lon="2.32106">
        <ele>224.6</ele>
        <time>2025-09-16T12:59:49Z</time>
      </trkpt>
      <trkpt lat="43.6456" lon="2.32107">
        <ele>224.8</ele>
        <time>2025-09-16T12:59:50Z</time>
      </trkpt>
      <trkpt lat="43.64563" lon="2.32108">
        <ele>225</ele>
        <time>2025-09-16T12:59:51Z</time>
      </trkpt>
      <trkpt lat="43.64565" lon="2.32109">
        <ele>225.2</ele>
        <time>2025-09-16T12:59:52Z</time>
      </trkpt>
      <trkpt lat="43.64567" lon="2.32111">
        <ele>225.4</ele>
        <time>2025-09-16T12:59:53Z</time>
      </trkpt>
      <trkpt lat="43.6457" lon="2.32113">
        <ele>225.6</ele>
        <time>2025-09-16T12:59:54Z</time>
      </trkpt>
      <trkpt lat="43.64572" lon="2.32114">
        <ele>225.8</ele>
        <time>2025-09-16T12:59:55Z</time>
      </trkpt>
      <trkpt lat="43.64575" lon="2.32116">
        <ele>226</ele>
        <time>2025-09-16T12:59:56Z</time>
      </trkpt>
      <trkpt lat="43.64577" lon="2.32117">
        <ele>226.2</ele>
        <time>2025-09-16T12:59:57Z</time>
      </trkpt>
      <trkpt lat="43.64579" lon="2.32118">
        <ele>226.4</ele>
        <time>2025-09-16T12:59:58Z</time>
      </trkpt>
      <trkpt lat="43.64581" lon="2.3212">
        <ele>226.6</ele>
        <time>2025-09-16T12:59:59Z</time>
      </trkpt>
      <trkpt lat="43.64584" lon="2.32121">
        <ele>226.8</ele>
        <time>2025-09-16T13:00:00Z</time>
      </trkpt>
      <trkpt lat="43.64586" lon="2.32122">
        <ele>226.8</ele>
        <time>2025-09-16T13:00:01Z</time>
      </trkpt>
      <trkpt lat="43.64589" lon="2.32124">
        <ele>227</ele>
        <time>2025-09-16T13:00:02Z</time>
      </trkpt>
      <trkpt lat="43.64591" lon="2.32125">
        <ele>227.2</ele>
        <time>2025-09-16T13:00:03Z</time>
      </trkpt>
      <trkpt lat="43.64593" lon="2.32128">
        <ele>227.4</ele>
        <time>2025-09-16T13:00:04Z</time>
      </trkpt>
      <trkpt lat="43.64595" lon="2.3213">
        <ele>227.4</ele>
        <time>2025-09-16T13:00:05Z</time>
      </trkpt>
      <trkpt lat="43.64596" lon="2.32132">
        <ele>227.6</ele>
        <time>2025-09-16T13:00:06Z</time>
      </trkpt>
      <trkpt lat="43.64598" lon="2.32135">
        <ele>227.8</ele>
        <time>2025-09-16T13:00:07Z</time>
      </trkpt>
      <trkpt lat="43.646" lon="2.32137">
        <ele>227.8</ele>
        <time>2025-09-16T13:00:08Z</time>
      </trkpt>
      <trkpt lat="43.64601" lon="2.3214">
        <ele>228.2</ele>
        <time>2025-09-16T13:00:09Z</time>
      </trkpt>
      <trkpt lat="43.64603" lon="2.32143">
        <ele>228.4</ele>
        <time>2025-09-16T13:00:10Z</time>
      </trkpt>
      <trkpt lat="43.64605" lon="2.32145">
        <ele>228.6</ele>
        <time>2025-09-16T13:00:11Z</time>
      </trkpt>
      <trkpt lat="43.64607" lon="2.32148">
        <ele>228.8</ele>
        <time>2025-09-16T13:00:12Z</time>
      </trkpt>
      <trkpt lat="43.64608" lon="2.3215">
        <ele>229</ele>
        <time>2025-09-16T13:00:13Z</time>
      </trkpt>
      <trkpt lat="43.6461" lon="2.32153">
        <ele>229.2</ele>
        <time>2025-09-16T13:00:14Z</time>
      </trkpt>
      <trkpt lat="43.64612" lon="2.32156">
        <ele>229.6</ele>
        <time>2025-09-16T13:00:15Z</time>
      </trkpt>
      <trkpt lat="43.64613" lon="2.32159">
        <ele>229.8</ele>
        <time>2025-09-16T13:00:16Z</time>
      </trkpt>
      <trkpt lat="43.64615" lon="2.32162">
        <ele>230</ele>
        <time>2025-09-16T13:00:17Z</time>
      </trkpt>
      <trkpt lat="43.64616" lon="2.32165">
        <ele>230.2</ele>
        <time>2025-09-16T13:00:18Z</time>
      </trkpt>
      <trkpt lat="43.64617" lon="2.32168">
        <ele>230.2</ele>
        <time>2025-09-16T13:00:19Z</time>
      </trkpt>
      <trkpt lat="43.64618" lon="2.32171">
        <ele>230.4</ele>
        <time>2025-09-16T13:00:20Z</time>
      </trkpt>
      <trkpt lat="43.64619" lon="2.32174">
        <ele>230.6</ele>
        <time>2025-09-16T13:00:21Z</time>
      </trkpt>
      <trkpt lat="43.6462" lon="2.32177">
        <ele>230.8</ele>
        <time>2025-09-16T13:00:22Z</time>
      </trkpt>
      <trkpt lat="43.64621" lon="2.3218">
        <ele>230.8</ele>
        <time>2025-09-16T13:00:23Z</time>
      </trkpt>
      <trkpt lat="43.64621" lon="2.32184">
        <ele>231</ele>
        <time>2025-09-16T13:00:24Z</time>
      </trkpt>
      <trkpt lat="43.64622" lon="2.32187">
        <ele>231.2</ele>
        <time>2025-09-16T13:00:25Z</time>
      </trkpt>
      <trkpt lat="43.64622" lon="2.3219">
        <ele>231.4</ele>
        <time>2025-09-16T13:00:26Z</time>
      </trkpt>
      <trkpt lat="43.64623" lon="2.32193">
        <ele>231.6</ele>
        <time>2025-09-16T13:00:27Z</time>
      </trkpt>
      <trkpt lat="43.64624" lon="2.32196">
        <ele>231.8</ele>
        <time>2025-09-16T13:00:28Z</time>
      </trkpt>
      <trkpt lat="43.64624" lon="2.322">
        <ele>232.2</ele>
        <time>2025-09-16T13:00:29Z</time>
      </trkpt>
      <trkpt lat="43.64624" lon="2.32203">
        <ele>232.4</ele>
        <time>2025-09-16T13:00:30Z</time>
      </trkpt>
      <trkpt lat="43.64625" lon="2.32206">
        <ele>232.6</ele>
        <time>2025-09-16T13:00:31Z</time>
      </trkpt>
      <trkpt lat="43.64626" lon="2.3221">
        <ele>232.8</ele>
        <time>2025-09-16T13:00:32Z</time>
      </trkpt>
      <trkpt lat="43.64626" lon="2.32213">
        <ele>233</ele>
        <time>2025-09-16T13:00:33Z</time>
      </trkpt>
      <trkpt lat="43.64626" lon="2.32217">
        <ele>233.2</ele>
        <time>2025-09-16T13:00:34Z</time>
      </trkpt>
      <trkpt lat="43.64627" lon="2.3222">
        <ele>233.4</ele>
        <time>2025-09-16T13:00:35Z</time>
      </trkpt>
      <trkpt lat="43.64627" lon="2.32223">
        <ele>233.6</ele>
        <time>2025-09-16T13:00:36Z</time>
      </trkpt>
      <trkpt lat="43.64628" lon="2.32226">
        <ele>233.6</ele>
        <time>2025-09-16T13:00:37Z</time>
      </trkpt>
      <trkpt lat="43.64628" lon="2.3223">
        <ele>233.8</ele>
        <time>2025-09-16T13:00:38Z</time>
      </trkpt>
      <trkpt lat="43.64629" lon="2.32233">
        <ele>234</ele>
        <time>2025-09-16T13:00:39Z</time>
      </trkpt>
      <trkpt lat="43.64629" lon="2.32237">
        <ele>234</ele>
        <time>2025-09-16T13:00:40Z</time>
      </trkpt>
      <trkpt lat="43.64629" lon="2.3224">
        <ele>234.2</ele>
        <time>2025-09-16T13:00:41Z</time>
      </trkpt>
      <trkpt lat="43.6463" lon="2.32243">
        <ele>234.2</ele>
        <time>2025-09-16T13:00:42Z</time>
      </trkpt>
      <trkpt lat="43.6463" lon="2.32247">
        <ele>234.2</ele>
        <time>2025-09-16T13:00:43Z</time>
      </trkpt>
      <trkpt lat="43.6463" lon="2.3225">
        <ele>234.2</ele>
        <time>2025-09-16T13:00:44Z</time>
      </trkpt>
      <trkpt lat="43.64631" lon="2.32254">
        <ele>234.2</ele>
        <time>2025-09-16T13:00:45Z</time>
      </trkpt>
      <trkpt lat="43.64631" lon="2.32257">
        <ele>234.4</ele>
        <time>2025-09-16T13:00:46Z</time>
      </trkpt>
      <trkpt lat="43.64632" lon="2.3226">
        <ele>234.4</ele>
        <time>2025-09-16T13:00:47Z</time>
      </trkpt>
      <trkpt lat="43.64632" lon="2.32264">
        <ele>234.4</ele>
        <time>2025-09-16T13:00:48Z</time>
      </trkpt>
      <trkpt lat="43.64633" lon="2.32267">
        <ele>234.6</ele>
        <time>2025-09-16T13:00:49Z</time>
      </trkpt>
      <trkpt lat="43.64633" lon="2.32271">
        <ele>234.6</ele>
        <time>2025-09-16T13:00:50Z</time>
      </trkpt>
      <trkpt lat="43.64634" lon="2.32274">
        <ele>234.6</ele>
        <time>2025-09-16T13:00:51Z</time>
      </trkpt>
      <trkpt lat="43.64634" lon="2.32278">
        <ele>234.6</ele>
        <time>2025-09-16T13:00:52Z</time>
      </trkpt>
      <trkpt lat="43.64635" lon="2.32281">
        <ele>234.6</ele>
        <time>2025-09-16T13:00:53Z</time>
      </trkpt>
      <trkpt lat="43.64636" lon="2.32285">
        <ele>234.8</ele>
        <time>2025-09-16T13:00:54Z</time>
      </trkpt>
      <trkpt lat="43.64636" lon="2.32288">
        <ele>234.8</ele>
        <time>2025-09-16T13:00:55Z</time>
      </trkpt>
      <trkpt lat="43.64636" lon="2.32292">
        <ele>235</ele>
        <time>2025-09-16T13:00:56Z</time>
      </trkpt>
      <trkpt lat="43.64637" lon="2.32295">
        <ele>235.2</ele>
        <time>2025-09-16T13:00:57Z</time>
      </trkpt>
      <trkpt lat="43.64637" lon="2.32299">
        <ele>235.4</ele>
        <time>2025-09-16T13:00:58Z</time>
      </trkpt>
      <trkpt lat="43.64637" lon="2.32302">
        <ele>235.6</ele>
        <time>2025-09-16T13:00:59Z</time>
      </trkpt>
      <trkpt lat="43.64637" lon="2.32306">
        <ele>235.8</ele>
        <time>2025-09-16T13:01:00Z</time>
      </trkpt>
      <trkpt lat="43.64637" lon="2.32309">
        <ele>236</ele>
        <time>2025-09-16T13:01:01Z</time>
      </trkpt>
      <trkpt lat="43.64638" lon="2.32313">
        <ele>236</ele>
        <time>2025-09-16T13:01:02Z</time>
      </trkpt>
      <trkpt lat="43.64637" lon="2.32316">
        <ele>236</ele>
        <time>2025-09-16T13:01:03Z</time>
      </trkpt>
      <trkpt lat="43.64637" lon="2.3232">
        <ele>236</ele>
        <time>2025-09-16T13:01:04Z</time>
      </trkpt>
      <trkpt lat="43.64637" lon="2.32323">
        <ele>236</ele>
        <time>2025-09-16T13:01:05Z</time>
      </trkpt>
      <trkpt lat="43.64637" lon="2.32327">
        <ele>236</ele>
        <time>2025-09-16T13:01:06Z</time>
      </trkpt>
      <trkpt lat="43.64637" lon="2.3233">
        <ele>236</ele>
        <time>2025-09-16T13:01:07Z</time>
      </trkpt>
      <trkpt lat="43.64637" lon="2.32333">
        <ele>236</ele>
        <time>2025-09-16T13:01:08Z</time>
      </trkpt>
      <trkpt lat="43.64637" lon="2.32337">
        <ele>236</ele>
        <time>2025-09-16T13:01:09Z</time>
      </trkpt>
      <trkpt lat="43.64637" lon="2.3234">
        <ele>236.2</ele>
        <time>2025-09-16T13:01:10Z</time>
      </trkpt>
      <trkpt lat="43.64637" lon="2.32345">
        <ele>236.2</ele>
        <time>2025-09-16T13:01:11Z</time>
      </trkpt>
      <trkpt lat="43.64637" lon="2.32348">
        <ele>236.4</ele>
        <time>2025-09-16T13:01:12Z</time>
      </trkpt>
      <trkpt lat="43.64636" lon="2.32352">
        <ele>236.4</ele>
        <time>2025-09-16T13:01:13Z</time>
      </trkpt>
      <trkpt lat="43.64635" lon="2.32356">
        <ele>236.4</ele>
        <time>2025-09-16T13:01:14Z</time>
      </trkpt>
      <trkpt lat="43.64635" lon="2.32359">
        <ele>236.4</ele>
        <time>2025-09-16T13:01:15Z</time>
      </trkpt>
      <trkpt lat="43.64635" lon="2.32363">
        <ele>236.6</ele>
        <time>2025-09-16T13:01:16Z</time>
      </trkpt>
      <trkpt lat="43.64635" lon="2.32366">
        <ele>236.6</ele>
        <time>2025-09-16T13:01:17Z</time>
      </trkpt>
      <trkpt lat="43.64635" lon="2.3237">
        <ele>236.6</ele>
        <time>2025-09-16T13:01:18Z</time>
      </trkpt>
      <trkpt lat="43.64635" lon="2.32373">
        <ele>236.8</ele>
        <time>2025-09-16T13:01:19Z</time>
      </trkpt>
      <trkpt lat="43.64635" lon="2.32377">
        <ele>236.8</ele>
        <time>2025-09-16T13:01:20Z</time>
      </trkpt>
      <trkpt lat="43.64635" lon="2.3238">
        <ele>237</ele>
        <time>2025-09-16T13:01:21Z</time>
      </trkpt>
      <trkpt lat="43.64635" lon="2.32383">
        <ele>237</ele>
        <time>2025-09-16T13:01:22Z</time>
      </trkpt>
      <trkpt lat="43.64635" lon="2.32388">
        <ele>237.2</ele>
        <time>2025-09-16T13:01:23Z</time>
      </trkpt>
      <trkpt lat="43.64634" lon="2.32392">
        <ele>237.2</ele>
        <time>2025-09-16T13:01:24Z</time>
      </trkpt>
      <trkpt lat="43.64634" lon="2.32395">
        <ele>237.4</ele>
        <time>2025-09-16T13:01:25Z</time>
      </trkpt>
      <trkpt lat="43.64634" lon="2.32399">
        <ele>237.4</ele>
        <time>2025-09-16T13:01:26Z</time>
      </trkpt>
      <trkpt lat="43.64634" lon="2.32402">
        <ele>237.6</ele>
        <time>2025-09-16T13:01:27Z</time>
      </trkpt>
      <trkpt lat="43.64634" lon="2.32405">
        <ele>237.6</ele>
        <time>2025-09-16T13:01:28Z</time>
      </trkpt>
      <trkpt lat="43.64634" lon="2.32409">
        <ele>237.8</ele>
        <time>2025-09-16T13:01:29Z</time>
      </trkpt>
      <trkpt lat="43.64634" lon="2.32412">
        <ele>238</ele>
        <time>2025-09-16T13:01:30Z</time>
      </trkpt>
      <trkpt lat="43.64634" lon="2.32416">
        <ele>238</ele>
        <time>2025-09-16T13:01:31Z</time>
      </trkpt>
      <trkpt lat="43.64634" lon="2.3242">
        <ele>238.2</ele>
        <time>2025-09-16T13:01:32Z</time>
      </trkpt>
      <trkpt lat="43.64634" lon="2.32423">
        <ele>238.4</ele>
        <time>2025-09-16T13:01:33Z</time>
      </trkpt>
      <trkpt lat="43.64634" lon="2.32427">
        <ele>238.6</ele>
        <time>2025-09-16T13:01:34Z</time>
      </trkpt>
      <trkpt lat="43.64634" lon="2.3243">
        <ele>238.8</ele>
        <time>2025-09-16T13:01:35Z</time>
      </trkpt>
      <trkpt lat="43.64635" lon="2.32434">
        <ele>239</ele>
        <time>2025-09-16T13:01:36Z</time>
      </trkpt>
      <trkpt lat="43.64635" lon="2.32437">
        <ele>239.2</ele>
        <time>2025-09-16T13:01:37Z</time>
      </trkpt>
      <trkpt lat="43.64635" lon="2.32441">
        <ele>239.4</ele>
        <time>2025-09-16T13:01:38Z</time>
      </trkpt>
      <trkpt lat="43.64636" lon="2.32444">
        <ele>239.4</ele>
        <time>2025-09-16T13:01:39Z</time>
      </trkpt>
      <trkpt lat="43.64637" lon="2.32448">
        <ele>239.6</ele>
        <time>2025-09-16T13:01:40Z</time>
      </trkpt>
      <trkpt lat="43.64637" lon="2.32451">
        <ele>239.8</ele>
        <time>2025-09-16T13:01:41Z</time>
      </trkpt>
      <trkpt lat="43.64638" lon="2.32455">
        <ele>240</ele>
        <time>2025-09-16T13:01:42Z</time>
      </trkpt>
      <trkpt lat="43.64639" lon="2.32458">
        <ele>240</ele>
        <time>2025-09-16T13:01:43Z</time>
      </trkpt>
      <trkpt lat="43.6464" lon="2.32462">
        <ele>240.2</ele>
        <time>2025-09-16T13:01:44Z</time>
      </trkpt>
      <trkpt lat="43.6464" lon="2.32465">
        <ele>240.4</ele>
        <time>2025-09-16T13:01:45Z</time>
      </trkpt>
      <trkpt lat="43.64641" lon="2.32468">
        <ele>240.6</ele>
        <time>2025-09-16T13:01:46Z</time>
      </trkpt>
      <trkpt lat="43.64642" lon="2.32471">
        <ele>240.8</ele>
        <time>2025-09-16T13:01:47Z</time>
      </trkpt>
      <trkpt lat="43.64643" lon="2.32475">
        <ele>240.8</ele>
        <time>2025-09-16T13:01:48Z</time>
      </trkpt>
      <trkpt lat="43.64644" lon="2.32477">
        <ele>241</ele>
        <time>2025-09-16T13:01:49Z</time>
      </trkpt>
      <trkpt lat="43.64645" lon="2.32481">
        <ele>241.2</ele>
        <time>2025-09-16T13:01:50Z</time>
      </trkpt>
      <trkpt lat="43.64645" lon="2.32484">
        <ele>241.4</ele>
        <time>2025-09-16T13:01:51Z</time>
      </trkpt>
      <trkpt lat="43.64646" lon="2.32487">
        <ele>241.4</ele>
        <time>2025-09-16T13:01:52Z</time>
      </trkpt>
      <trkpt lat="43.64648" lon="2.32491">
        <ele>241.6</ele>
        <time>2025-09-16T13:01:53Z</time>
      </trkpt>
      <trkpt lat="43.64648" lon="2.32495">
        <ele>241.8</ele>
        <time>2025-09-16T13:01:54Z</time>
      </trkpt>
      <trkpt lat="43.64648" lon="2.32497">
        <ele>241.8</ele>
        <time>2025-09-16T13:01:55Z</time>
      </trkpt>
      <trkpt lat="43.64649" lon="2.32501">
        <ele>242</ele>
        <time>2025-09-16T13:01:56Z</time>
      </trkpt>
      <trkpt lat="43.6465" lon="2.32504">
        <ele>242</ele>
        <time>2025-09-16T13:01:57Z</time>
      </trkpt>
      <trkpt lat="43.64651" lon="2.32508">
        <ele>242.2</ele>
        <time>2025-09-16T13:01:58Z</time>
      </trkpt>
      <trkpt lat="43.64652" lon="2.32512">
        <ele>242.2</ele>
        <time>2025-09-16T13:01:59Z</time>
      </trkpt>
      <trkpt lat="43.64653" lon="2.32515">
        <ele>242.4</ele>
        <time>2025-09-16T13:02:00Z</time>
      </trkpt>
      <trkpt lat="43.64654" lon="2.32519">
        <ele>242.6</ele>
        <time>2025-09-16T13:02:01Z</time>
      </trkpt>
      <trkpt lat="43.64655" lon="2.32522">
        <ele>242.6</ele>
        <time>2025-09-16T13:02:02Z</time>
      </trkpt>
      <trkpt lat="43.64656" lon="2.32525">
        <ele>242.6</ele>
        <time>2025-09-16T13:02:03Z</time>
      </trkpt>
      <trkpt lat="43.64656" lon="2.32529">
        <ele>242.8</ele>
        <time>2025-09-16T13:02:04Z</time>
      </trkpt>
      <trkpt lat="43.64657" lon="2.32532">
        <ele>242.8</ele>
        <time>2025-09-16T13:02:05Z</time>
      </trkpt>
      <trkpt lat="43.64658" lon="2.32536">
        <ele>243</ele>
        <time>2025-09-16T13:02:06Z</time>
      </trkpt>
      <trkpt lat="43.64659" lon="2.32539">
        <ele>243.2</ele>
        <time>2025-09-16T13:02:07Z</time>
      </trkpt>
      <trkpt lat="43.6466" lon="2.32543">
        <ele>243.4</ele>
        <time>2025-09-16T13:02:08Z</time>
      </trkpt>
      <trkpt lat="43.64661" lon="2.32547">
        <ele>243.6</ele>
        <time>2025-09-16T13:02:09Z</time>
      </trkpt>
      <trkpt lat="43.64661" lon="2.32549">
        <ele>243.8</ele>
        <time>2025-09-16T13:02:10Z</time>
      </trkpt>
      <trkpt lat="43.64662" lon="2.32553">
        <ele>244</ele>
        <time>2025-09-16T13:02:11Z</time>
      </trkpt>
      <trkpt lat="43.64663" lon="2.32556">
        <ele>244.2</ele>
        <time>2025-09-16T13:02:12Z</time>
      </trkpt>
      <trkpt lat="43.64664" lon="2.3256">
        <ele>244.4</ele>
        <time>2025-09-16T13:02:13Z</time>
      </trkpt>
      <trkpt lat="43.64665" lon="2.32563">
        <ele>244.6</ele>
        <time>2025-09-16T13:02:14Z</time>
      </trkpt>
      <trkpt lat="43.64666" lon="2.32567">
        <ele>244.8</ele>
        <time>2025-09-16T13:02:15Z</time>
      </trkpt>
      <trkpt lat="43.64667" lon="2.32569">
        <ele>244.8</ele>
        <time>2025-09-16T13:02:16Z</time>
      </trkpt>
      <trkpt lat="43.64667" lon="2.32572">
        <ele>245</ele>
        <time>2025-09-16T13:02:17Z</time>
      </trkpt>
      <trkpt lat="43.64668" lon="2.32576">
        <ele>245.2</ele>
        <time>2025-09-16T13:02:18Z</time>
      </trkpt>
      <trkpt lat="43.64669" lon="2.3258">
        <ele>245.4</ele>
        <time>2025-09-16T13:02:19Z</time>
      </trkpt>
      <trkpt lat="43.6467" lon="2.32582">
        <ele>245.4</ele>
        <time>2025-09-16T13:02:20Z</time>
      </trkpt>
      <trkpt lat="43.64671" lon="2.32586">
        <ele>245.6</ele>
        <time>2025-09-16T13:02:21Z</time>
      </trkpt>
      <trkpt lat="43.64672" lon="2.32589">
        <ele>245.8</ele>
        <time>2025-09-16T13:02:22Z</time>
      </trkpt>
      <trkpt lat="43.64674" lon="2.32592">
        <ele>245.8</ele>
        <time>2025-09-16T13:02:23Z</time>
      </trkpt>
      <trkpt lat="43.64676" lon="2.32595">
        <ele>246</ele>
        <time>2025-09-16T13:02:24Z</time>
      </trkpt>
      <trkpt lat="43.64678" lon="2.32598">
        <ele>246</ele>
        <time>2025-09-16T13:02:25Z</time>
      </trkpt>
      <trkpt lat="43.64679" lon="2.32601">
        <ele>246.2</ele>
        <time>2025-09-16T13:02:26Z</time>
      </trkpt>
      <trkpt lat="43.64681" lon="2.32604">
        <ele>246.4</ele>
        <time>2025-09-16T13:02:27Z</time>
      </trkpt>
      <trkpt lat="43.64682" lon="2.32607">
        <ele>246.6</ele>
        <time>2025-09-16T13:02:28Z</time>
      </trkpt>
      <trkpt lat="43.64685" lon="2.32609">
        <ele>246.8</ele>
        <time>2025-09-16T13:02:29Z</time>
      </trkpt>
      <trkpt lat="43.64687" lon="2.32611">
        <ele>246.8</ele>
        <time>2025-09-16T13:02:30Z</time>
      </trkpt>
      <trkpt lat="43.64689" lon="2.32614">
        <ele>247</ele>
        <time>2025-09-16T13:02:31Z</time>
      </trkpt>
      <trkpt lat="43.64691" lon="2.32617">
        <ele>247</ele>
        <time>2025-09-16T13:02:32Z</time>
      </trkpt>
      <trkpt lat="43.64693" lon="2.32619">
        <ele>247.2</ele>
        <time>2025-09-16T13:02:33Z</time>
      </trkpt>
      <trkpt lat="43.64694" lon="2.32622">
        <ele>247.4</ele>
        <time>2025-09-16T13:02:34Z</time>
      </trkpt>
      <trkpt lat="43.64696" lon="2.32624">
        <ele>247.4</ele>
        <time>2025-09-16T13:02:35Z</time>
      </trkpt>
      <trkpt lat="43.64698" lon="2.32628">
        <ele>247.6</ele>
        <time>2025-09-16T13:02:36Z</time>
      </trkpt>
      <trkpt lat="43.64699" lon="2.32631">
        <ele>247.8</ele>
        <time>2025-09-16T13:02:37Z</time>
      </trkpt>
      <trkpt lat="43.64701" lon="2.32634">
        <ele>247.8</ele>
        <time>2025-09-16T13:02:38Z</time>
      </trkpt>
      <trkpt lat="43.64703" lon="2.32637">
        <ele>248</ele>
        <time>2025-09-16T13:02:39Z</time>
      </trkpt>
      <trkpt lat="43.64704" lon="2.3264">
        <ele>248</ele>
        <time>2025-09-16T13:02:40Z</time>
      </trkpt>
      <trkpt lat="43.64704" lon="2.32644">
        <ele>248.2</ele>
        <time>2025-09-16T13:02:41Z</time>
      </trkpt>
      <trkpt lat="43.64706" lon="2.32647">
        <ele>248.2</ele>
        <time>2025-09-16T13:02:42Z</time>
      </trkpt>
      <trkpt lat="43.64707" lon="2.32651">
        <ele>248.4</ele>
        <time>2025-09-16T13:02:43Z</time>
      </trkpt>
      <trkpt lat="43.64708" lon="2.32655">
        <ele>248.4</ele>
        <time>2025-09-16T13:02:44Z</time>
      </trkpt>
      <trkpt lat="43.64709" lon="2.32658">
        <ele>248.6</ele>
        <time>2025-09-16T13:02:45Z</time>
      </trkpt>
      <trkpt lat="43.64711" lon="2.32661">
        <ele>248.8</ele>
        <time>2025-09-16T13:02:46Z</time>
      </trkpt>
      <trkpt lat="43.64712" lon="2.32665">
        <ele>248.8</ele>
        <time>2025-09-16T13:02:47Z</time>
      </trkpt>
      <trkpt lat="43.64713" lon="2.32668">
        <ele>249</ele>
        <time>2025-09-16T13:02:48Z</time>
      </trkpt>
      <trkpt lat="43.64713" lon="2.32671">
        <ele>249.2</ele>
        <time>2025-09-16T13:02:49Z</time>
      </trkpt>
      <trkpt lat="43.64714" lon="2.32674">
        <ele>249.4</ele>
        <time>2025-09-16T13:02:50Z</time>
      </trkpt>
      <trkpt lat="43.64715" lon="2.32677">
        <ele>249.6</ele>
        <time>2025-09-16T13:02:51Z</time>
      </trkpt>
      <trkpt lat="43.64716" lon="2.3268">
        <ele>249.8</ele>
        <time>2025-09-16T13:02:52Z</time>
      </trkpt>
      <trkpt lat="43.64718" lon="2.32683">
        <ele>250</ele>
        <time>2025-09-16T13:02:53Z</time>
      </trkpt>
      <trkpt lat="43.64719" lon="2.32686">
        <ele>250.2</ele>
        <time>2025-09-16T13:02:54Z</time>
      </trkpt>
      <trkpt lat="43.6472" lon="2.32689">
        <ele>250.4</ele>
        <time>2025-09-16T13:02:55Z</time>
      </trkpt>
      <trkpt lat="43.64721" lon="2.32692">
        <ele>250.6</ele>
        <time>2025-09-16T13:02:56Z</time>
      </trkpt>
      <trkpt lat="43.64723" lon="2.32694">
        <ele>250.8</ele>
        <time>2025-09-16T13:02:57Z</time>
      </trkpt>
      <trkpt lat="43.64724" lon="2.32697">
        <ele>250.8</ele>
        <time>2025-09-16T13:02:58Z</time>
      </trkpt>
      <trkpt lat="43.64725" lon="2.327">
        <ele>251</ele>
        <time>2025-09-16T13:02:59Z</time>
      </trkpt>
      <trkpt lat="43.64726" lon="2.32703">
        <ele>251.2</ele>
        <time>2025-09-16T13:03:00Z</time>
      </trkpt>
      <trkpt lat="43.64727" lon="2.32706">
        <ele>251.4</ele>
        <time>2025-09-16T13:03:01Z</time>
      </trkpt>
      <trkpt lat="43.64729" lon="2.32709">
        <ele>251.6</ele>
        <time>2025-09-16T13:03:02Z</time>
      </trkpt>
      <trkpt lat="43.6473" lon="2.32712">
        <ele>251.6</ele>
        <time>2025-09-16T13:03:03Z</time>
      </trkpt>
      <trkpt lat="43.64731" lon="2.32715">
        <ele>251.8</ele>
        <time>2025-09-16T13:03:04Z</time>
      </trkpt>
      <trkpt lat="43.64732" lon="2.32718">
        <ele>252</ele>
        <time>2025-09-16T13:03:05Z</time>
      </trkpt>
      <trkpt lat="43.64733" lon="2.32721">
        <ele>252.2</ele>
        <time>2025-09-16T13:03:06Z</time>
      </trkpt>
      <trkpt lat="43.64734" lon="2.32724">
        <ele>252.4</ele>
        <time>2025-09-16T13:03:07Z</time>
      </trkpt>
      <trkpt lat="43.64735" lon="2.32727">
        <ele>252.6</ele>
        <time>2025-09-16T13:03:08Z</time>
      </trkpt>
      <trkpt lat="43.64736" lon="2.3273">
        <ele>252.6</ele>
        <time>2025-09-16T13:03:09Z</time>
      </trkpt>
      <trkpt lat="43.64738" lon="2.32734">
        <ele>252.8</ele>
        <time>2025-09-16T13:03:10Z</time>
      </trkpt>
      <trkpt lat="43.64739" lon="2.32737">
        <ele>253</ele>
        <time>2025-09-16T13:03:11Z</time>
      </trkpt>
      <trkpt lat="43.6474" lon="2.3274">
        <ele>253.2</ele>
        <time>2025-09-16T13:03:12Z</time>
      </trkpt>
      <trkpt lat="43.6474" lon="2.32743">
        <ele>253.4</ele>
        <time>2025-09-16T13:03:13Z</time>
      </trkpt>
      <trkpt lat="43.64742" lon="2.32746">
        <ele>253.6</ele>
        <time>2025-09-16T13:03:14Z</time>
      </trkpt>
      <trkpt lat="43.64743" lon="2.32749">
        <ele>253.6</ele>
        <time>2025-09-16T13:03:15Z</time>
      </trkpt>
      <trkpt lat="43.64744" lon="2.32752">
        <ele>253.8</ele>
        <time>2025-09-16T13:03:16Z</time>
      </trkpt>
      <trkpt lat="43.64745" lon="2.32755">
        <ele>254</ele>
        <time>2025-09-16T13:03:17Z</time>
      </trkpt>
      <trkpt lat="43.64747" lon="2.32758">
        <ele>254</ele>
        <time>2025-09-16T13:03:18Z</time>
      </trkpt>
      <trkpt lat="43.64748" lon="2.32761">
        <ele>254.2</ele>
        <time>2025-09-16T13:03:19Z</time>
      </trkpt>
      <trkpt lat="43.64749" lon="2.32764">
        <ele>254.4</ele>
        <time>2025-09-16T13:03:20Z</time>
      </trkpt>
      <trkpt lat="43.64751" lon="2.32766">
        <ele>254.6</ele>
        <time>2025-09-16T13:03:21Z</time>
      </trkpt>
      <trkpt lat="43.64753" lon="2.32768">
        <ele>254.6</ele>
        <time>2025-09-16T13:03:22Z</time>
      </trkpt>
      <trkpt lat="43.64755" lon="2.3277">
        <ele>254.8</ele>
        <time>2025-09-16T13:03:23Z</time>
      </trkpt>
      <trkpt lat="43.64757" lon="2.32773">
        <ele>255</ele>
        <time>2025-09-16T13:03:24Z</time>
      </trkpt>
      <trkpt lat="43.64759" lon="2.32774">
        <ele>255.2</ele>
        <time>2025-09-16T13:03:25Z</time>
      </trkpt>
      <trkpt lat="43.64762" lon="2.32776">
        <ele>255.4</ele>
        <time>2025-09-16T13:03:26Z</time>
      </trkpt>
      <trkpt lat="43.64763" lon="2.32777">
        <ele>255.6</ele>
        <time>2025-09-16T13:03:27Z</time>
      </trkpt>
      <trkpt lat="43.64765" lon="2.32779">
        <ele>255.6</ele>
        <time>2025-09-16T13:03:28Z</time>
      </trkpt>
      <trkpt lat="43.64768" lon="2.3278">
        <ele>255.8</ele>
        <time>2025-09-16T13:03:29Z</time>
      </trkpt>
      <trkpt lat="43.6477" lon="2.3278">
        <ele>256</ele>
        <time>2025-09-16T13:03:30Z</time>
      </trkpt>
      <trkpt lat="43.64773" lon="2.3278">
        <ele>256.2</ele>
        <time>2025-09-16T13:03:31Z</time>
      </trkpt>
      <trkpt lat="43.64775" lon="2.32782">
        <ele>256.2</ele>
        <time>2025-09-16T13:03:32Z</time>
      </trkpt>
      <trkpt lat="43.64777" lon="2.32783">
        <ele>256.4</ele>
        <time>2025-09-16T13:03:33Z</time>
      </trkpt>
      <trkpt lat="43.6478" lon="2.32785">
        <ele>256.6</ele>
        <time>2025-09-16T13:03:34Z</time>
      </trkpt>
      <trkpt lat="43.64782" lon="2.32786">
        <ele>256.6</ele>
        <time>2025-09-16T13:03:35Z</time>
      </trkpt>
      <trkpt lat="43.64784" lon="2.32788">
        <ele>256.8</ele>
        <time>2025-09-16T13:03:36Z</time>
      </trkpt>
      <trkpt lat="43.64787" lon="2.32789">
        <ele>257</ele>
        <time>2025-09-16T13:03:37Z</time>
      </trkpt>
      <trkpt lat="43.64789" lon="2.32789">
        <ele>257</ele>
        <time>2025-09-16T13:03:38Z</time>
      </trkpt>
      <trkpt lat="43.64791" lon="2.3279">
        <ele>257.2</ele>
        <time>2025-09-16T13:03:39Z</time>
      </trkpt>
      <trkpt lat="43.64794" lon="2.32791">
        <ele>257.4</ele>
        <time>2025-09-16T13:03:40Z</time>
      </trkpt>
      <trkpt lat="43.64796" lon="2.32793">
        <ele>257.4</ele>
        <time>2025-09-16T13:03:41Z</time>
      </trkpt>
      <trkpt lat="43.64798" lon="2.32793">
        <ele>257.6</ele>
        <time>2025-09-16T13:03:42Z</time>
      </trkpt>
      <trkpt lat="43.648" lon="2.32794">
        <ele>257.8</ele>
        <time>2025-09-16T13:03:43Z</time>
      </trkpt>
      <trkpt lat="43.64802" lon="2.32795">
        <ele>257.8</ele>
        <time>2025-09-16T13:03:44Z</time>
      </trkpt>
      <trkpt lat="43.64804" lon="2.32796">
        <ele>258</ele>
        <time>2025-09-16T13:03:45Z</time>
      </trkpt>
      <trkpt lat="43.64807" lon="2.32797">
        <ele>258.2</ele>
        <time>2025-09-16T13:03:46Z</time>
      </trkpt>
      <trkpt lat="43.64809" lon="2.32797">
        <ele>258.4</ele>
        <time>2025-09-16T13:03:47Z</time>
      </trkpt>
      <trkpt lat="43.64811" lon="2.32798">
        <ele>258.4</ele>
        <time>2025-09-16T13:03:48Z</time>
      </trkpt>
      <trkpt lat="43.64813" lon="2.32799">
        <ele>258.6</ele>
        <time>2025-09-16T13:03:49Z</time>
      </trkpt>
      <trkpt lat="43.64815" lon="2.328">
        <ele>258.8</ele>
        <time>2025-09-16T13:03:50Z</time>
      </trkpt>
      <trkpt lat="43.64818" lon="2.32801">
        <ele>258.8</ele>
        <time>2025-09-16T13:03:51Z</time>
      </trkpt>
      <trkpt lat="43.6482" lon="2.32802">
        <ele>259</ele>
        <time>2025-09-16T13:03:52Z</time>
      </trkpt>
      <trkpt lat="43.64823" lon="2.32803">
        <ele>259.2</ele>
        <time>2025-09-16T13:03:53Z</time>
      </trkpt>
      <trkpt lat="43.64825" lon="2.32804">
        <ele>259.2</ele>
        <time>2025-09-16T13:03:54Z</time>
      </trkpt>
      <trkpt lat="43.64827" lon="2.32806">
        <ele>259.2</ele>
        <time>2025-09-16T13:03:55Z</time>
      </trkpt>
      <trkpt lat="43.6483" lon="2.32806">
        <ele>259.4</ele>
        <time>2025-09-16T13:03:56Z</time>
      </trkpt>
      <trkpt lat="43.64832" lon="2.32807">
        <ele>259.4</ele>
        <time>2025-09-16T13:03:57Z</time>
      </trkpt>
      <trkpt lat="43.64835" lon="2.32808">
        <ele>259.6</ele>
        <time>2025-09-16T13:03:58Z</time>
      </trkpt>
      <trkpt lat="43.64837" lon="2.32808">
        <ele>259.6</ele>
        <time>2025-09-16T13:03:59Z</time>
      </trkpt>
      <trkpt lat="43.6484" lon="2.32809">
        <ele>259.8</ele>
        <time>2025-09-16T13:04:00Z</time>
      </trkpt>
      <trkpt lat="43.64842" lon="2.3281">
        <ele>260</ele>
        <time>2025-09-16T13:04:01Z</time>
      </trkpt>
      <trkpt lat="43.64845" lon="2.3281">
        <ele>260</ele>
        <time>2025-09-16T13:04:02Z</time>
      </trkpt>
      <trkpt lat="43.64847" lon="2.32811">
        <ele>260.2</ele>
        <time>2025-09-16T13:04:03Z</time>
      </trkpt>
      <trkpt lat="43.6485" lon="2.32811">
        <ele>260.2</ele>
        <time>2025-09-16T13:04:04Z</time>
      </trkpt>
      <trkpt lat="43.64852" lon="2.32811">
        <ele>260.4</ele>
        <time>2025-09-16T13:04:05Z</time>
      </trkpt>
      <trkpt lat="43.64855" lon="2.32812">
        <ele>260.6</ele>
        <time>2025-09-16T13:04:06Z</time>
      </trkpt>
      <trkpt lat="43.64858" lon="2.32812">
        <ele>260.6</ele>
        <time>2025-09-16T13:04:07Z</time>
      </trkpt>
      <trkpt lat="43.6486" lon="2.32813">
        <ele>260.6</ele>
        <time>2025-09-16T13:04:08Z</time>
      </trkpt>
      <trkpt lat="43.64863" lon="2.32813">
        <ele>260.8</ele>
        <time>2025-09-16T13:04:09Z</time>
      </trkpt>
      <trkpt lat="43.64865" lon="2.32813">
        <ele>260.8</ele>
        <time>2025-09-16T13:04:10Z</time>
      </trkpt>
      <trkpt lat="43.64867" lon="2.32814">
        <ele>261</ele>
        <time>2025-09-16T13:04:11Z</time>
      </trkpt>
      <trkpt lat="43.6487" lon="2.32815">
        <ele>261</ele>
        <time>2025-09-16T13:04:12Z</time>
      </trkpt>
      <trkpt lat="43.64872" lon="2.32815">
        <ele>261.2</ele>
        <time>2025-09-16T13:04:13Z</time>
      </trkpt>
      <trkpt lat="43.64875" lon="2.32816">
        <ele>261.2</ele>
        <time>2025-09-16T13:04:14Z</time>
      </trkpt>
      <trkpt lat="43.64877" lon="2.32816">
        <ele>261.2</ele>
        <time>2025-09-16T13:04:15Z</time>
      </trkpt>
      <trkpt lat="43.64879" lon="2.32817">
        <ele>261.4</ele>
        <time>2025-09-16T13:04:16Z</time>
      </trkpt>
      <trkpt lat="43.64881" lon="2.32818">
        <ele>261.6</ele>
        <time>2025-09-16T13:04:17Z</time>
      </trkpt>
      <trkpt lat="43.64884" lon="2.3282">
        <ele>261.6</ele>
        <time>2025-09-16T13:04:18Z</time>
      </trkpt>
      <trkpt lat="43.64886" lon="2.32821">
        <ele>261.8</ele>
        <time>2025-09-16T13:04:19Z</time>
      </trkpt>
      <trkpt lat="43.64888" lon="2.32823">
        <ele>261.8</ele>
        <time>2025-09-16T13:04:20Z</time>
      </trkpt>
      <trkpt lat="43.6489" lon="2.32825">
        <ele>262</ele>
        <time>2025-09-16T13:04:21Z</time>
      </trkpt>
      <trkpt lat="43.64892" lon="2.32827">
        <ele>262.2</ele>
        <time>2025-09-16T13:04:22Z</time>
      </trkpt>
      <trkpt lat="43.64895" lon="2.32829">
        <ele>262.4</ele>
        <time>2025-09-16T13:04:23Z</time>
      </trkpt>
      <trkpt lat="43.64897" lon="2.32832">
        <ele>262.4</ele>
        <time>2025-09-16T13:04:24Z</time>
      </trkpt>
      <trkpt lat="43.64899" lon="2.32834">
        <ele>262.6</ele>
        <time>2025-09-16T13:04:25Z</time>
      </trkpt>
      <trkpt lat="43.64901" lon="2.32837">
        <ele>262.8</ele>
        <time>2025-09-16T13:04:26Z</time>
      </trkpt>
      <trkpt lat="43.64903" lon="2.3284">
        <ele>263</ele>
        <time>2025-09-16T13:04:27Z</time>
      </trkpt>
      <trkpt lat="43.64904" lon="2.32844">
        <ele>263.4</ele>
        <time>2025-09-16T13:04:28Z</time>
      </trkpt>
      <trkpt lat="43.64906" lon="2.32847">
        <ele>263.6</ele>
        <time>2025-09-16T13:04:29Z</time>
      </trkpt>
      <trkpt lat="43.64906" lon="2.3285">
        <ele>263.8</ele>
        <time>2025-09-16T13:04:30Z</time>
      </trkpt>
      <trkpt lat="43.64907" lon="2.32853">
        <ele>264</ele>
        <time>2025-09-16T13:04:31Z</time>
      </trkpt>
      <trkpt lat="43.64907" lon="2.32857">
        <ele>264.2</ele>
        <time>2025-09-16T13:04:32Z</time>
      </trkpt>
      <trkpt lat="43.64907" lon="2.3286">
        <ele>264.4</ele>
        <time>2025-09-16T13:04:33Z</time>
      </trkpt>
      <trkpt lat="43.64908" lon="2.32864">
        <ele>264.6</ele>
        <time>2025-09-16T13:04:34Z</time>
      </trkpt>
      <trkpt lat="43.64908" lon="2.32867">
        <ele>264.8</ele>
        <time>2025-09-16T13:04:35Z</time>
      </trkpt>
      <trkpt lat="43.64908" lon="2.3287">
        <ele>265</ele>
        <time>2025-09-16T13:04:36Z</time>
      </trkpt>
      <trkpt lat="43.64909" lon="2.32873">
        <ele>265.2</ele>
        <time>2025-09-16T13:04:37Z</time>
      </trkpt>
      <trkpt lat="43.64909" lon="2.32877">
        <ele>265.4</ele>
        <time>2025-09-16T13:04:38Z</time>
      </trkpt>
      <trkpt lat="43.64909" lon="2.3288">
        <ele>265.8</ele>
        <time>2025-09-16T13:04:39Z</time>
      </trkpt>
      <trkpt lat="43.64909" lon="2.32883">
        <ele>265.8</ele>
        <time>2025-09-16T13:04:40Z</time>
      </trkpt>
      <trkpt lat="43.64909" lon="2.32887">
        <ele>266</ele>
        <time>2025-09-16T13:04:41Z</time>
      </trkpt>
      <trkpt lat="43.6491" lon="2.3289">
        <ele>266.2</ele>
        <time>2025-09-16T13:04:42Z</time>
      </trkpt>
      <trkpt lat="43.6491" lon="2.32893">
        <ele>266.4</ele>
        <time>2025-09-16T13:04:43Z</time>
      </trkpt>
      <trkpt lat="43.6491" lon="2.32897">
        <ele>266.6</ele>
        <time>2025-09-16T13:04:44Z</time>
      </trkpt>
      <trkpt lat="43.6491" lon="2.329">
        <ele>266.8</ele>
        <time>2025-09-16T13:04:45Z</time>
      </trkpt>
      <trkpt lat="43.6491" lon="2.32903">
        <ele>267</ele>
        <time>2025-09-16T13:04:46Z</time>
      </trkpt>
      <trkpt lat="43.6491" lon="2.32907">
        <ele>267</ele>
        <time>2025-09-16T13:04:47Z</time>
      </trkpt>
      <trkpt lat="43.6491" lon="2.3291">
        <ele>267.2</ele>
        <time>2025-09-16T13:04:48Z</time>
      </trkpt>
      <trkpt lat="43.6491" lon="2.32913">
        <ele>267.4</ele>
        <time>2025-09-16T13:04:49Z</time>
      </trkpt>
      <trkpt lat="43.64911" lon="2.32917">
        <ele>267.6</ele>
        <time>2025-09-16T13:04:50Z</time>
      </trkpt>
      <trkpt lat="43.64911" lon="2.3292">
        <ele>267.6</ele>
        <time>2025-09-16T13:04:51Z</time>
      </trkpt>
      <trkpt lat="43.64911" lon="2.32923">
        <ele>267.8</ele>
        <time>2025-09-16T13:04:52Z</time>
      </trkpt>
      <trkpt lat="43.64911" lon="2.32927">
        <ele>268</ele>
        <time>2025-09-16T13:04:53Z</time>
      </trkpt>
      <trkpt lat="43.64912" lon="2.3293">
        <ele>268</ele>
        <time>2025-09-16T13:04:54Z</time>
      </trkpt>
      <trkpt lat="43.64912" lon="2.32933">
        <ele>268.2</ele>
        <time>2025-09-16T13:04:55Z</time>
      </trkpt>
      <trkpt lat="43.64912" lon="2.32937">
        <ele>268.4</ele>
        <time>2025-09-16T13:04:56Z</time>
      </trkpt>
      <trkpt lat="43.64912" lon="2.3294">
        <ele>268.6</ele>
        <time>2025-09-16T13:04:57Z</time>
      </trkpt>
      <trkpt lat="43.64912" lon="2.32943">
        <ele>268.8</ele>
        <time>2025-09-16T13:04:58Z</time>
      </trkpt>
      <trkpt lat="43.64912" lon="2.32947">
        <ele>269</ele>
        <time>2025-09-16T13:04:59Z</time>
      </trkpt>
      <trkpt lat="43.64913" lon="2.3295">
        <ele>269.2</ele>
        <time>2025-09-16T13:05:00Z</time>
      </trkpt>
      <trkpt lat="43.64913" lon="2.32953">
        <ele>269.4</ele>
        <time>2025-09-16T13:05:01Z</time>
      </trkpt>
      <trkpt lat="43.64913" lon="2.32956">
        <ele>269.6</ele>
        <time>2025-09-16T13:05:02Z</time>
      </trkpt>
      <trkpt lat="43.64913" lon="2.32959">
        <ele>269.8</ele>
        <time>2025-09-16T13:05:03Z</time>
      </trkpt>
      <trkpt lat="43.64913" lon="2.32963">
        <ele>269.8</ele>
        <time>2025-09-16T13:05:04Z</time>
      </trkpt>
      <trkpt lat="43.64913" lon="2.32967">
        <ele>270</ele>
        <time>2025-09-16T13:05:05Z</time>
      </trkpt>
      <trkpt lat="43.64914" lon="2.3297">
        <ele>270.2</ele>
        <time>2025-09-16T13:05:06Z</time>
      </trkpt>
      <trkpt lat="43.64915" lon="2.32973">
        <ele>270.4</ele>
        <time>2025-09-16T13:05:07Z</time>
      </trkpt>
      <trkpt lat="43.64915" lon="2.32976">
        <ele>270.6</ele>
        <time>2025-09-16T13:05:08Z</time>
      </trkpt>
      <trkpt lat="43.64916" lon="2.32979">
        <ele>270.8</ele>
        <time>2025-09-16T13:05:09Z</time>
      </trkpt>
      <trkpt lat="43.64917" lon="2.32983">
        <ele>271</ele>
        <time>2025-09-16T13:05:10Z</time>
      </trkpt>
      <trkpt lat="43.64917" lon="2.32986">
        <ele>271.2</ele>
        <time>2025-09-16T13:05:11Z</time>
      </trkpt>
      <trkpt lat="43.64917" lon="2.32989">
        <ele>271.4</ele>
        <time>2025-09-16T13:05:12Z</time>
      </trkpt>
      <trkpt lat="43.64918" lon="2.32992">
        <ele>271.6</ele>
        <time>2025-09-16T13:05:13Z</time>
      </trkpt>
      <trkpt lat="43.64919" lon="2.32996">
        <ele>271.8</ele>
        <time>2025-09-16T13:05:14Z</time>
      </trkpt>
      <trkpt lat="43.64919" lon="2.33">
        <ele>271.8</ele>
        <time>2025-09-16T13:05:15Z</time>
      </trkpt>
      <trkpt lat="43.64919" lon="2.33003">
        <ele>272</ele>
        <time>2025-09-16T13:05:16Z</time>
      </trkpt>
      <trkpt lat="43.6492" lon="2.33006">
        <ele>272.2</ele>
        <time>2025-09-16T13:05:17Z</time>
      </trkpt>
      <trkpt lat="43.6492" lon="2.33009">
        <ele>272.4</ele>
        <time>2025-09-16T13:05:18Z</time>
      </trkpt>
      <trkpt lat="43.6492" lon="2.33012">
        <ele>272.6</ele>
        <time>2025-09-16T13:05:19Z</time>
      </trkpt>
      <trkpt lat="43.64921" lon="2.33015">
        <ele>272.8</ele>
        <time>2025-09-16T13:05:20Z</time>
      </trkpt>
      <trkpt lat="43.64922" lon="2.33018">
        <ele>273</ele>
        <time>2025-09-16T13:05:21Z</time>
      </trkpt>
      <trkpt lat="43.64922" lon="2.33022">
        <ele>273.2</ele>
        <time>2025-09-16T13:05:22Z</time>
      </trkpt>
      <trkpt lat="43.64923" lon="2.33025">
        <ele>273.4</ele>
        <time>2025-09-16T13:05:23Z</time>
      </trkpt>
      <trkpt lat="43.64923" lon="2.33028">
        <ele>273.4</ele>
        <time>2025-09-16T13:05:24Z</time>
      </trkpt>
      <trkpt lat="43.64925" lon="2.33031">
        <ele>273.6</ele>
        <time>2025-09-16T13:05:25Z</time>
      </trkpt>
      <trkpt lat="43.64926" lon="2.33034">
        <ele>273.8</ele>
        <time>2025-09-16T13:05:26Z</time>
      </trkpt>
      <trkpt lat="43.64927" lon="2.33036">
        <ele>274</ele>
        <time>2025-09-16T13:05:27Z</time>
      </trkpt>
      <trkpt lat="43.64928" lon="2.33039">
        <ele>274</ele>
        <time>2025-09-16T13:05:28Z</time>
      </trkpt>
      <trkpt lat="43.6493" lon="2.33042">
        <ele>274.2</ele>
        <time>2025-09-16T13:05:29Z</time>
      </trkpt>
      <trkpt lat="43.64932" lon="2.33045">
        <ele>274.4</ele>
        <time>2025-09-16T13:05:30Z</time>
      </trkpt>
      <trkpt lat="43.64933" lon="2.33048">
        <ele>274.4</ele>
        <time>2025-09-16T13:05:31Z</time>
      </trkpt>
      <trkpt lat="43.64934" lon="2.3305">
        <ele>274.6</ele>
        <time>2025-09-16T13:05:32Z</time>
      </trkpt>
      <trkpt lat="43.64935" lon="2.33052">
        <ele>274.8</ele>
        <time>2025-09-16T13:05:33Z</time>
      </trkpt>
      <trkpt lat="43.64938" lon="2.33055">
        <ele>275</ele>
        <time>2025-09-16T13:05:34Z</time>
      </trkpt>
      <trkpt lat="43.64939" lon="2.33057">
        <ele>275.2</ele>
        <time>2025-09-16T13:05:35Z</time>
      </trkpt>
      <trkpt lat="43.64941" lon="2.33058">
        <ele>275.4</ele>
        <time>2025-09-16T13:05:36Z</time>
      </trkpt>
      <trkpt lat="43.64942" lon="2.33061">
        <ele>275.6</ele>
        <time>2025-09-16T13:05:37Z</time>
      </trkpt>
      <trkpt lat="43.64943" lon="2.33063">
        <ele>275.8</ele>
        <time>2025-09-16T13:05:38Z</time>
      </trkpt>
      <trkpt lat="43.64945" lon="2.33066">
        <ele>276</ele>
        <time>2025-09-16T13:05:39Z</time>
      </trkpt>
      <trkpt lat="43.64946" lon="2.33068">
        <ele>276.2</ele>
        <time>2025-09-16T13:05:40Z</time>
      </trkpt>
      <trkpt lat="43.64948" lon="2.3307">
        <ele>276.4</ele>
        <time>2025-09-16T13:05:41Z</time>
      </trkpt>
      <trkpt lat="43.6495" lon="2.33072">
        <ele>276.6</ele>
        <time>2025-09-16T13:05:42Z</time>
      </trkpt>
      <trkpt lat="43.64951" lon="2.33075">
        <ele>276.8</ele>
        <time>2025-09-16T13:05:43Z</time>
      </trkpt>
      <trkpt lat="43.64953" lon="2.33077">
        <ele>277</ele>
        <time>2025-09-16T13:05:44Z</time>
      </trkpt>
      <trkpt lat="43.64954" lon="2.33079">
        <ele>277.2</ele>
        <time>2025-09-16T13:05:45Z</time>
      </trkpt>
      <trkpt lat="43.64955" lon="2.33081">
        <ele>277.4</ele>
        <time>2025-09-16T13:05:46Z</time>
      </trkpt>
      <trkpt lat="43.64957" lon="2.33083">
        <ele>277.4</ele>
        <time>2025-09-16T13:05:47Z</time>
      </trkpt>
      <trkpt lat="43.64959" lon="2.33085">
        <ele>277.8</ele>
        <time>2025-09-16T13:05:48Z</time>
      </trkpt>
      <trkpt lat="43.6496" lon="2.33086">
        <ele>278</ele>
        <time>2025-09-16T13:05:49Z</time>
      </trkpt>
      <trkpt lat="43.64962" lon="2.33088">
        <ele>278.2</ele>
        <time>2025-09-16T13:05:50Z</time>
      </trkpt>
      <trkpt lat="43.64963" lon="2.33089">
        <ele>278.2</ele>
        <time>2025-09-16T13:05:51Z</time>
      </trkpt>
      <trkpt lat="43.64966" lon="2.33091">
        <ele>278.4</ele>
        <time>2025-09-16T13:05:52Z</time>
      </trkpt>
      <trkpt lat="43.64968" lon="2.33093">
        <ele>278.6</ele>
        <time>2025-09-16T13:05:53Z</time>
      </trkpt>
      <trkpt lat="43.6497" lon="2.33094">
        <ele>278.8</ele>
        <time>2025-09-16T13:05:54Z</time>
      </trkpt>
      <trkpt lat="43.64972" lon="2.33096">
        <ele>279</ele>
        <time>2025-09-16T13:05:55Z</time>
      </trkpt>
      <trkpt lat="43.64973" lon="2.33097">
        <ele>279</ele>
        <time>2025-09-16T13:05:56Z</time>
      </trkpt>
      <trkpt lat="43.64974" lon="2.33099">
        <ele>279.2</ele>
        <time>2025-09-16T13:05:57Z</time>
      </trkpt>
      <trkpt lat="43.64976" lon="2.33101">
        <ele>279.4</ele>
        <time>2025-09-16T13:05:58Z</time>
      </trkpt>
      <trkpt lat="43.64979" lon="2.33103">
        <ele>279.4</ele>
        <time>2025-09-16T13:05:59Z</time>
      </trkpt>
      <trkpt lat="43.64981" lon="2.33105">
        <ele>279.6</ele>
        <time>2025-09-16T13:06:00Z</time>
      </trkpt>
      <trkpt lat="43.64982" lon="2.33106">
        <ele>279.6</ele>
        <time>2025-09-16T13:06:01Z</time>
      </trkpt>
      <trkpt lat="43.64984" lon="2.33108">
        <ele>279.8</ele>
        <time>2025-09-16T13:06:02Z</time>
      </trkpt>
      <trkpt lat="43.64986" lon="2.3311">
        <ele>280</ele>
        <time>2025-09-16T13:06:03Z</time>
      </trkpt>
      <trkpt lat="43.64988" lon="2.33112">
        <ele>280.2</ele>
        <time>2025-09-16T13:06:04Z</time>
      </trkpt>
      <trkpt lat="43.6499" lon="2.33113">
        <ele>280.2</ele>
        <time>2025-09-16T13:06:05Z</time>
      </trkpt>
      <trkpt lat="43.64992" lon="2.33115">
        <ele>280.4</ele>
        <time>2025-09-16T13:06:06Z</time>
      </trkpt>
      <trkpt lat="43.64993" lon="2.33116">
        <ele>280.6</ele>
        <time>2025-09-16T13:06:07Z</time>
      </trkpt>
      <trkpt lat="43.64995" lon="2.33117">
        <ele>280.6</ele>
        <time>2025-09-16T13:06:08Z</time>
      </trkpt>
      <trkpt lat="43.64997" lon="2.33118">
        <ele>280.8</ele>
        <time>2025-09-16T13:06:09Z</time>
      </trkpt>
      <trkpt lat="43.64999" lon="2.33119">
        <ele>281</ele>
        <time>2025-09-16T13:06:10Z</time>
      </trkpt>
      <trkpt lat="43.65001" lon="2.3312">
        <ele>281</ele>
        <time>2025-09-16T13:06:11Z</time>
      </trkpt>
      <trkpt lat="43.65003" lon="2.33122">
        <ele>281.2</ele>
        <time>2025-09-16T13:06:12Z</time>
      </trkpt>
      <trkpt lat="43.65005" lon="2.33123">
        <ele>281.4</ele>
        <time>2025-09-16T13:06:13Z</time>
      </trkpt>
      <trkpt lat="43.65008" lon="2.33124">
        <ele>281.4</ele>
        <time>2025-09-16T13:06:14Z</time>
      </trkpt>
      <trkpt lat="43.6501" lon="2.33125">
        <ele>281.6</ele>
        <time>2025-09-16T13:06:15Z</time>
      </trkpt>
      <trkpt lat="43.65012" lon="2.33125">
        <ele>281.8</ele>
        <time>2025-09-16T13:06:16Z</time>
      </trkpt>
      <trkpt lat="43.65014" lon="2.33126">
        <ele>282</ele>
        <time>2025-09-16T13:06:17Z</time>
      </trkpt>
      <trkpt lat="43.65016" lon="2.33127">
        <ele>282</ele>
        <time>2025-09-16T13:06:18Z</time>
      </trkpt>
      <trkpt lat="43.65018" lon="2.33128">
        <ele>282.2</ele>
        <time>2025-09-16T13:06:19Z</time>
      </trkpt>
      <trkpt lat="43.6502" lon="2.33128">
        <ele>282.4</ele>
        <time>2025-09-16T13:06:20Z</time>
      </trkpt>
      <trkpt lat="43.65023" lon="2.33129">
        <ele>282.4</ele>
        <time>2025-09-16T13:06:21Z</time>
      </trkpt>
      <trkpt lat="43.65025" lon="2.33129">
        <ele>282.6</ele>
        <time>2025-09-16T13:06:22Z</time>
      </trkpt>
      <trkpt lat="43.65028" lon="2.33129">
        <ele>282.8</ele>
        <time>2025-09-16T13:06:23Z</time>
      </trkpt>
      <trkpt lat="43.6503" lon="2.3313">
        <ele>282.8</ele>
        <time>2025-09-16T13:06:24Z</time>
      </trkpt>
      <trkpt lat="43.65032" lon="2.3313">
        <ele>283</ele>
        <time>2025-09-16T13:06:25Z</time>
      </trkpt>
      <trkpt lat="43.65034" lon="2.33132">
        <ele>283.2</ele>
        <time>2025-09-16T13:06:26Z</time>
      </trkpt>
      <trkpt lat="43.65037" lon="2.33133">
        <ele>283.2</ele>
        <time>2025-09-16T13:06:27Z</time>
      </trkpt>
      <trkpt lat="43.65039" lon="2.33133">
        <ele>283.4</ele>
        <time>2025-09-16T13:06:28Z</time>
      </trkpt>
      <trkpt lat="43.65042" lon="2.33134">
        <ele>283.6</ele>
        <time>2025-09-16T13:06:29Z</time>
      </trkpt>
      <trkpt lat="43.65044" lon="2.33135">
        <ele>283.8</ele>
        <time>2025-09-16T13:06:30Z</time>
      </trkpt>
      <trkpt lat="43.65047" lon="2.33136">
        <ele>283.8</ele>
        <time>2025-09-16T13:06:31Z</time>
      </trkpt>
      <trkpt lat="43.65049" lon="2.33137">
        <ele>284</ele>
        <time>2025-09-16T13:06:32Z</time>
      </trkpt>
      <trkpt lat="43.65052" lon="2.33138">
        <ele>284</ele>
        <time>2025-09-16T13:06:33Z</time>
      </trkpt>
      <trkpt lat="43.65054" lon="2.33138">
        <ele>284.2</ele>
        <time>2025-09-16T13:06:34Z</time>
      </trkpt>
      <trkpt lat="43.65056" lon="2.33139">
        <ele>284.4</ele>
        <time>2025-09-16T13:06:35Z</time>
      </trkpt>
      <trkpt lat="43.65059" lon="2.33139">
        <ele>284.4</ele>
        <time>2025-09-16T13:06:36Z</time>
      </trkpt>
      <trkpt lat="43.65061" lon="2.3314">
        <ele>284.6</ele>
        <time>2025-09-16T13:06:37Z</time>
      </trkpt>
      <trkpt lat="43.65063" lon="2.3314">
        <ele>284.6</ele>
        <time>2025-09-16T13:06:38Z</time>
      </trkpt>
      <trkpt lat="43.65066" lon="2.3314">
        <ele>284.8</ele>
        <time>2025-09-16T13:06:39Z</time>
      </trkpt>
      <trkpt lat="43.65068" lon="2.3314">
        <ele>285</ele>
        <time>2025-09-16T13:06:40Z</time>
      </trkpt>
      <trkpt lat="43.6507" lon="2.33141">
        <ele>285</ele>
        <time>2025-09-16T13:06:41Z</time>
      </trkpt>
      <trkpt lat="43.65072" lon="2.33142">
        <ele>285.2</ele>
        <time>2025-09-16T13:06:42Z</time>
      </trkpt>
      <trkpt lat="43.65074" lon="2.33143">
        <ele>285.4</ele>
        <time>2025-09-16T13:06:43Z</time>
      </trkpt>
      <trkpt lat="43.65076" lon="2.33145">
        <ele>285.4</ele>
        <time>2025-09-16T13:06:44Z</time>
      </trkpt>
      <trkpt lat="43.65078" lon="2.33146">
        <ele>285.6</ele>
        <time>2025-09-16T13:06:45Z</time>
      </trkpt>
      <trkpt lat="43.6508" lon="2.33147">
        <ele>285.8</ele>
        <time>2025-09-16T13:06:46Z</time>
      </trkpt>
      <trkpt lat="43.65082" lon="2.33149">
        <ele>286</ele>
        <time>2025-09-16T13:06:47Z</time>
      </trkpt>
      <trkpt lat="43.65084" lon="2.3315">
        <ele>286</ele>
        <time>2025-09-16T13:06:48Z</time>
      </trkpt>
      <trkpt lat="43.65086" lon="2.33152">
        <ele>286.2</ele>
        <time>2025-09-16T13:06:49Z</time>
      </trkpt>
      <trkpt lat="43.65088" lon="2.33154">
        <ele>286.4</ele>
        <time>2025-09-16T13:06:50Z</time>
      </trkpt>
      <trkpt lat="43.65091" lon="2.33156">
        <ele>286.4</ele>
        <time>2025-09-16T13:06:51Z</time>
      </trkpt>
      <trkpt lat="43.65093" lon="2.33157">
        <ele>286.6</ele>
        <time>2025-09-16T13:06:52Z</time>
      </trkpt>
      <trkpt lat="43.65096" lon="2.33159">
        <ele>286.6</ele>
        <time>2025-09-16T13:06:53Z</time>
      </trkpt>
      <trkpt lat="43.65098" lon="2.3316">
        <ele>286.8</ele>
        <time>2025-09-16T13:06:54Z</time>
      </trkpt>
      <trkpt lat="43.651" lon="2.33161">
        <ele>287</ele>
        <time>2025-09-16T13:06:55Z</time>
      </trkpt>
      <trkpt lat="43.65102" lon="2.33162">
        <ele>287.2</ele>
        <time>2025-09-16T13:06:56Z</time>
      </trkpt>
      <trkpt lat="43.65104" lon="2.33163">
        <ele>287.4</ele>
        <time>2025-09-16T13:06:57Z</time>
      </trkpt>
      <trkpt lat="43.65106" lon="2.33165">
        <ele>287.6</ele>
        <time>2025-09-16T13:06:58Z</time>
      </trkpt>
      <trkpt lat="43.65108" lon="2.33167">
        <ele>287.8</ele>
        <time>2025-09-16T13:06:59Z</time>
      </trkpt>
      <trkpt lat="43.6511" lon="2.33169">
        <ele>288</ele>
        <time>2025-09-16T13:07:00Z</time>
      </trkpt>
      <trkpt lat="43.65111" lon="2.33171">
        <ele>288.2</ele>
        <time>2025-09-16T13:07:01Z</time>
      </trkpt>
      <trkpt lat="43.65113" lon="2.33173">
        <ele>288.4</ele>
        <time>2025-09-16T13:07:02Z</time>
      </trkpt>
      <trkpt lat="43.65115" lon="2.33176">
        <ele>288.8</ele>
        <time>2025-09-16T13:07:03Z</time>
      </trkpt>
      <trkpt lat="43.65116" lon="2.33179">
        <ele>289</ele>
        <time>2025-09-16T13:07:04Z</time>
      </trkpt>
      <trkpt lat="43.65118" lon="2.33181">
        <ele>289.2</ele>
        <time>2025-09-16T13:07:05Z</time>
      </trkpt>
      <trkpt lat="43.65119" lon="2.33184">
        <ele>289.4</ele>
        <time>2025-09-16T13:07:06Z</time>
      </trkpt>
      <trkpt lat="43.65122" lon="2.33186">
        <ele>289.8</ele>
        <time>2025-09-16T13:07:07Z</time>
      </trkpt>
      <trkpt lat="43.65123" lon="2.33188">
        <ele>290</ele>
        <time>2025-09-16T13:07:08Z</time>
      </trkpt>
      <trkpt lat="43.65125" lon="2.3319">
        <ele>290.2</ele>
        <time>2025-09-16T13:07:09Z</time>
      </trkpt>
      <trkpt lat="43.65127" lon="2.33192">
        <ele>290.4</ele>
        <time>2025-09-16T13:07:10Z</time>
      </trkpt>
      <trkpt lat="43.65128" lon="2.33194">
        <ele>290.6</ele>
        <time>2025-09-16T13:07:11Z</time>
      </trkpt>
      <trkpt lat="43.6513" lon="2.33197">
        <ele>290.8</ele>
        <time>2025-09-16T13:07:12Z</time>
      </trkpt>
      <trkpt lat="43.65131" lon="2.33198">
        <ele>291</ele>
        <time>2025-09-16T13:07:13Z</time>
      </trkpt>
      <trkpt lat="43.65132" lon="2.332">
        <ele>291.2</ele>
        <time>2025-09-16T13:07:14Z</time>
      </trkpt>
      <trkpt lat="43.65133" lon="2.33202">
        <ele>291.4</ele>
        <time>2025-09-16T13:07:15Z</time>
      </trkpt>
      <trkpt lat="43.65134" lon="2.33204">
        <ele>291.6</ele>
        <time>2025-09-16T13:07:16Z</time>
      </trkpt>
      <trkpt lat="43.65136" lon="2.33206">
        <ele>291.8</ele>
        <time>2025-09-16T13:07:17Z</time>
      </trkpt>
      <trkpt lat="43.65138" lon="2.33208">
        <ele>292</ele>
        <time>2025-09-16T13:07:18Z</time>
      </trkpt>
      <trkpt lat="43.65139" lon="2.3321">
        <ele>292.2</ele>
        <time>2025-09-16T13:07:19Z</time>
      </trkpt>
      <trkpt lat="43.65141" lon="2.33211">
        <ele>292.4</ele>
        <time>2025-09-16T13:07:20Z</time>
      </trkpt>
      <trkpt lat="43.65142" lon="2.33213">
        <ele>292.8</ele>
        <time>2025-09-16T13:07:21Z</time>
      </trkpt>
      <trkpt lat="43.65143" lon="2.33215">
        <ele>292.8</ele>
        <time>2025-09-16T13:07:22Z</time>
      </trkpt>
      <trkpt lat="43.65144" lon="2.33217">
        <ele>293</ele>
        <time>2025-09-16T13:07:23Z</time>
      </trkpt>
      <trkpt lat="43.65146" lon="2.33218">
        <ele>293.2</ele>
        <time>2025-09-16T13:07:24Z</time>
      </trkpt>
      <trkpt lat="43.65147" lon="2.33219">
        <ele>293.4</ele>
        <time>2025-09-16T13:07:25Z</time>
      </trkpt>
      <trkpt lat="43.65149" lon="2.33221">
        <ele>293.6</ele>
        <time>2025-09-16T13:07:26Z</time>
      </trkpt>
      <trkpt lat="43.65151" lon="2.33222">
        <ele>293.8</ele>
        <time>2025-09-16T13:07:27Z</time>
      </trkpt>
      <trkpt lat="43.65153" lon="2.33224">
        <ele>293.8</ele>
        <time>2025-09-16T13:07:28Z</time>
      </trkpt>
      <trkpt lat="43.65154" lon="2.33225">
        <ele>294</ele>
        <time>2025-09-16T13:07:29Z</time>
      </trkpt>
      <trkpt lat="43.65156" lon="2.33227">
        <ele>294.2</ele>
        <time>2025-09-16T13:07:30Z</time>
      </trkpt>
      <trkpt lat="43.65157" lon="2.33229">
        <ele>294.2</ele>
        <time>2025-09-16T13:07:31Z</time>
      </trkpt>
      <trkpt lat="43.65159" lon="2.33231">
        <ele>294.4</ele>
        <time>2025-09-16T13:07:32Z</time>
      </trkpt>
      <trkpt lat="43.6516" lon="2.33233">
        <ele>294.6</ele>
        <time>2025-09-16T13:07:33Z</time>
      </trkpt>
      <trkpt lat="43.65161" lon="2.33235">
        <ele>294.6</ele>
        <time>2025-09-16T13:07:34Z</time>
      </trkpt>
      <trkpt lat="43.65162" lon="2.33237">
        <ele>294.6</ele>
        <time>2025-09-16T13:07:35Z</time>
      </trkpt>
      <trkpt lat="43.65163" lon="2.33239">
        <ele>294.8</ele>
        <time>2025-09-16T13:07:36Z</time>
      </trkpt>
      <trkpt lat="43.65164" lon="2.33241">
        <ele>294.8</ele>
        <time>2025-09-16T13:07:37Z</time>
      </trkpt>
      <trkpt lat="43.65165" lon="2.33243">
        <ele>295</ele>
        <time>2025-09-16T13:07:38Z</time>
      </trkpt>
      <trkpt lat="43.65167" lon="2.33245">
        <ele>295</ele>
        <time>2025-09-16T13:07:39Z</time>
      </trkpt>
      <trkpt lat="43.65168" lon="2.33247">
        <ele>295.2</ele>
        <time>2025-09-16T13:07:40Z</time>
      </trkpt>
      <trkpt lat="43.65169" lon="2.33249">
        <ele>295.2</ele>
        <time>2025-09-16T13:07:41Z</time>
      </trkpt>
      <trkpt lat="43.6517" lon="2.33251">
        <ele>295.4</ele>
        <time>2025-09-16T13:07:42Z</time>
      </trkpt>
      <trkpt lat="43.65172" lon="2.33254">
        <ele>295.4</ele>
        <time>2025-09-16T13:07:43Z</time>
      </trkpt>
      <trkpt lat="43.65173" lon="2.33256">
        <ele>295.6</ele>
        <time>2025-09-16T13:07:44Z</time>
      </trkpt>
      <trkpt lat="43.65174" lon="2.33258">
        <ele>295.6</ele>
        <time>2025-09-16T13:07:45Z</time>
      </trkpt>
      <trkpt lat="43.65176" lon="2.3326">
        <ele>295.8</ele>
        <time>2025-09-16T13:07:46Z</time>
      </trkpt>
      <trkpt lat="43.65177" lon="2.33262">
        <ele>296</ele>
        <time>2025-09-16T13:07:47Z</time>
      </trkpt>
      <trkpt lat="43.65179" lon="2.33265">
        <ele>296</ele>
        <time>2025-09-16T13:07:48Z</time>
      </trkpt>
      <trkpt lat="43.6518" lon="2.33266">
        <ele>296.2</ele>
        <time>2025-09-16T13:07:49Z</time>
      </trkpt>
      <trkpt lat="43.65182" lon="2.33269">
        <ele>296.4</ele>
        <time>2025-09-16T13:07:50Z</time>
      </trkpt>
      <trkpt lat="43.65184" lon="2.33271">
        <ele>296.6</ele>
        <time>2025-09-16T13:07:51Z</time>
      </trkpt>
      <trkpt lat="43.65185" lon="2.33273">
        <ele>296.8</ele>
        <time>2025-09-16T13:07:52Z</time>
      </trkpt>
      <trkpt lat="43.65187" lon="2.33275">
        <ele>296.8</ele>
        <time>2025-09-16T13:07:53Z</time>
      </trkpt>
      <trkpt lat="43.65189" lon="2.33277">
        <ele>297</ele>
        <time>2025-09-16T13:07:54Z</time>
      </trkpt>
      <trkpt lat="43.65191" lon="2.3328">
        <ele>297.2</ele>
        <time>2025-09-16T13:07:55Z</time>
      </trkpt>
      <trkpt lat="43.65193" lon="2.33283">
        <ele>297.2</ele>
        <time>2025-09-16T13:07:56Z</time>
      </trkpt>
      <trkpt lat="43.65194" lon="2.33285">
        <ele>297.4</ele>
        <time>2025-09-16T13:07:57Z</time>
      </trkpt>
      <trkpt lat="43.65196" lon="2.33288">
        <ele>297.6</ele>
        <time>2025-09-16T13:07:58Z</time>
      </trkpt>
      <trkpt lat="43.65198" lon="2.3329">
        <ele>297.8</ele>
        <time>2025-09-16T13:07:59Z</time>
      </trkpt>
      <trkpt lat="43.65199" lon="2.33292">
        <ele>297.8</ele>
        <time>2025-09-16T13:08:00Z</time>
      </trkpt>
      <trkpt lat="43.65201" lon="2.33295">
        <ele>298</ele>
        <time>2025-09-16T13:08:01Z</time>
      </trkpt>
      <trkpt lat="43.65203" lon="2.33297">
        <ele>298</ele>
        <time>2025-09-16T13:08:02Z</time>
      </trkpt>
      <trkpt lat="43.65204" lon="2.33299">
        <ele>298.2</ele>
        <time>2025-09-16T13:08:03Z</time>
      </trkpt>
      <trkpt lat="43.65205" lon="2.333">
        <ele>298.4</ele>
        <time>2025-09-16T13:08:04Z</time>
      </trkpt>
      <trkpt lat="43.65207" lon="2.33303">
        <ele>298.6</ele>
        <time>2025-09-16T13:08:05Z</time>
      </trkpt>
      <trkpt lat="43.65208" lon="2.33305">
        <ele>298.6</ele>
        <time>2025-09-16T13:08:06Z</time>
      </trkpt>
      <trkpt lat="43.65208" lon="2.33307">
        <ele>298.8</ele>
        <time>2025-09-16T13:08:07Z</time>
      </trkpt>
      <trkpt lat="43.65209" lon="2.33309">
        <ele>299</ele>
        <time>2025-09-16T13:08:08Z</time>
      </trkpt>
      <trkpt lat="43.65211" lon="2.33311">
        <ele>299.2</ele>
        <time>2025-09-16T13:08:09Z</time>
      </trkpt>
      <trkpt lat="43.65212" lon="2.33313">
        <ele>299.4</ele>
        <time>2025-09-16T13:08:10Z</time>
      </trkpt>
      <trkpt lat="43.65213" lon="2.33315">
        <ele>299.6</ele>
        <time>2025-09-16T13:08:11Z</time>
      </trkpt>
      <trkpt lat="43.65214" lon="2.33317">
        <ele>299.8</ele>
        <time>2025-09-16T13:08:12Z</time>
      </trkpt>
      <trkpt lat="43.65216" lon="2.33319">
        <ele>300</ele>
        <time>2025-09-16T13:08:13Z</time>
      </trkpt>
      <trkpt lat="43.65218" lon="2.33321">
        <ele>300.2</ele>
        <time>2025-09-16T13:08:14Z</time>
      </trkpt>
      <trkpt lat="43.6522" lon="2.33323">
        <ele>300.4</ele>
        <time>2025-09-16T13:08:15Z</time>
      </trkpt>
      <trkpt lat="43.65221" lon="2.33324">
        <ele>300.6</ele>
        <time>2025-09-16T13:08:16Z</time>
      </trkpt>
      <trkpt lat="43.65222" lon="2.33326">
        <ele>300.8</ele>
        <time>2025-09-16T13:08:17Z</time>
      </trkpt>
      <trkpt lat="43.65223" lon="2.33328">
        <ele>301</ele>
        <time>2025-09-16T13:08:18Z</time>
      </trkpt>
      <trkpt lat="43.65225" lon="2.33329">
        <ele>301.2</ele>
        <time>2025-09-16T13:08:19Z</time>
      </trkpt>
      <trkpt lat="43.65227" lon="2.33329">
        <ele>301.4</ele>
        <time>2025-09-16T13:08:20Z</time>
      </trkpt>
      <trkpt lat="43.65229" lon="2.3333">
        <ele>301.4</ele>
        <time>2025-09-16T13:08:21Z</time>
      </trkpt>
      <trkpt lat="43.65232" lon="2.3333">
        <ele>301.6</ele>
        <time>2025-09-16T13:08:22Z</time>
      </trkpt>
      <trkpt lat="43.65234" lon="2.33329">
        <ele>301.6</ele>
        <time>2025-09-16T13:08:23Z</time>
      </trkpt>
      <trkpt lat="43.65236" lon="2.33329">
        <ele>301.8</ele>
        <time>2025-09-16T13:08:24Z</time>
      </trkpt>
      <trkpt lat="43.65238" lon="2.33328">
        <ele>301.8</ele>
        <time>2025-09-16T13:08:25Z</time>
      </trkpt>
      <trkpt lat="43.6524" lon="2.33327">
        <ele>302</ele>
        <time>2025-09-16T13:08:26Z</time>
      </trkpt>
      <trkpt lat="43.65241" lon="2.33325">
        <ele>302</ele>
        <time>2025-09-16T13:08:27Z</time>
      </trkpt>
      <trkpt lat="43.65241" lon="2.33322">
        <ele>302.2</ele>
        <time>2025-09-16T13:08:28Z</time>
      </trkpt>
      <trkpt lat="43.65241" lon="2.3332">
        <ele>302.4</ele>
        <time>2025-09-16T13:08:29Z</time>
      </trkpt>
      <trkpt lat="43.65241" lon="2.33317">
        <ele>302.4</ele>
        <time>2025-09-16T13:08:30Z</time>
      </trkpt>
      <trkpt lat="43.65241" lon="2.33314">
        <ele>302.6</ele>
        <time>2025-09-16T13:08:31Z</time>
      </trkpt>
      <trkpt lat="43.6524" lon="2.33311">
        <ele>302.6</ele>
        <time>2025-09-16T13:08:32Z</time>
      </trkpt>
      <trkpt lat="43.65238" lon="2.33308">
        <ele>302.6</ele>
        <time>2025-09-16T13:08:33Z</time>
      </trkpt>
      <trkpt lat="43.65237" lon="2.33306">
        <ele>302.8</ele>
        <time>2025-09-16T13:08:34Z</time>
      </trkpt>
      <trkpt lat="43.65236" lon="2.33303">
        <ele>302.8</ele>
        <time>2025-09-16T13:08:35Z</time>
      </trkpt>
      <trkpt lat="43.65235" lon="2.333">
        <ele>302.8</ele>
        <time>2025-09-16T13:08:36Z</time>
      </trkpt>
      <trkpt lat="43.65233" lon="2.33298">
        <ele>302.8</ele>
        <time>2025-09-16T13:08:37Z</time>
      </trkpt>
      <trkpt lat="43.65232" lon="2.33296">
        <ele>302.8</ele>
        <time>2025-09-16T13:08:38Z</time>
      </trkpt>
      <trkpt lat="43.65231" lon="2.33294">
        <ele>303</ele>
        <time>2025-09-16T13:08:39Z</time>
      </trkpt>
      <trkpt lat="43.6523" lon="2.33292">
        <ele>303</ele>
        <time>2025-09-16T13:08:40Z</time>
      </trkpt>
      <trkpt lat="43.65229" lon="2.33289">
        <ele>303.2</ele>
        <time>2025-09-16T13:08:41Z</time>
      </trkpt>
      <trkpt lat="43.65227" lon="2.33287">
        <ele>303.2</ele>
        <time>2025-09-16T13:08:42Z</time>
      </trkpt>
      <trkpt lat="43.65226" lon="2.33285">
        <ele>303.4</ele>
        <time>2025-09-16T13:08:43Z</time>
      </trkpt>
      <trkpt lat="43.65224" lon="2.33282">
        <ele>303.4</ele>
        <time>2025-09-16T13:08:44Z</time>
      </trkpt>
      <trkpt lat="43.65224" lon="2.33279">
        <ele>303.6</ele>
        <time>2025-09-16T13:08:45Z</time>
      </trkpt>
      <trkpt lat="43.65223" lon="2.33277">
        <ele>303.6</ele>
        <time>2025-09-16T13:08:46Z</time>
      </trkpt>
      <trkpt lat="43.65222" lon="2.33274">
        <ele>303.6</ele>
        <time>2025-09-16T13:08:47Z</time>
      </trkpt>
      <trkpt lat="43.65221" lon="2.33271">
        <ele>303.8</ele>
        <time>2025-09-16T13:08:48Z</time>
      </trkpt>
      <trkpt lat="43.6522" lon="2.33269">
        <ele>303.8</ele>
        <time>2025-09-16T13:08:49Z</time>
      </trkpt>
      <trkpt lat="43.65219" lon="2.33266">
        <ele>303.8</ele>
        <time>2025-09-16T13:08:50Z</time>
      </trkpt>
      <trkpt lat="43.65219" lon="2.33263">
        <ele>304</ele>
        <time>2025-09-16T13:08:51Z</time>
      </trkpt>
      <trkpt lat="43.65218" lon="2.33261">
        <ele>304</ele>
        <time>2025-09-16T13:08:52Z</time>
      </trkpt>
      <trkpt lat="43.65217" lon="2.33258">
        <ele>304.2</ele>
        <time>2025-09-16T13:08:53Z</time>
      </trkpt>
      <trkpt lat="43.65216" lon="2.33255">
        <ele>304.2</ele>
        <time>2025-09-16T13:08:54Z</time>
      </trkpt>
      <trkpt lat="43.65216" lon="2.33253">
        <ele>304.4</ele>
        <time>2025-09-16T13:08:55Z</time>
      </trkpt>
      <trkpt lat="43.65216" lon="2.3325">
        <ele>304.4</ele>
        <time>2025-09-16T13:08:56Z</time>
      </trkpt>
      <trkpt lat="43.65215" lon="2.33247">
        <ele>304.6</ele>
        <time>2025-09-16T13:08:57Z</time>
      </trkpt>
      <trkpt lat="43.65215" lon="2.33243">
        <ele>304.6</ele>
        <time>2025-09-16T13:08:58Z</time>
      </trkpt>
      <trkpt lat="43.65214" lon="2.33241">
        <ele>304.8</ele>
        <time>2025-09-16T13:08:59Z</time>
      </trkpt>
      <trkpt lat="43.65214" lon="2.33238">
        <ele>304.8</ele>
        <time>2025-09-16T13:09:00Z</time>
      </trkpt>
      <trkpt lat="43.65213" lon="2.33235">
        <ele>304.8</ele>
        <time>2025-09-16T13:09:01Z</time>
      </trkpt>
      <trkpt lat="43.65213" lon="2.33232">
        <ele>304.8</ele>
        <time>2025-09-16T13:09:02Z</time>
      </trkpt>
      <trkpt lat="43.65213" lon="2.33229">
        <ele>305</ele>
        <time>2025-09-16T13:09:03Z</time>
      </trkpt>
      <trkpt lat="43.65213" lon="2.33226">
        <ele>305</ele>
        <time>2025-09-16T13:09:04Z</time>
      </trkpt>
      <trkpt lat="43.65212" lon="2.33223">
        <ele>305.2</ele>
        <time>2025-09-16T13:09:05Z</time>
      </trkpt>
      <trkpt lat="43.65212" lon="2.3322">
        <ele>305.2</ele>
        <time>2025-09-16T13:09:06Z</time>
      </trkpt>
      <trkpt lat="43.65211" lon="2.33217">
        <ele>305.4</ele>
        <time>2025-09-16T13:09:07Z</time>
      </trkpt>
      <trkpt lat="43.65211" lon="2.33214">
        <ele>305.4</ele>
        <time>2025-09-16T13:09:08Z</time>
      </trkpt>
      <trkpt lat="43.65211" lon="2.33212">
        <ele>305.6</ele>
        <time>2025-09-16T13:09:09Z</time>
      </trkpt>
      <trkpt lat="43.6521" lon="2.33209">
        <ele>305.6</ele>
        <time>2025-09-16T13:09:10Z</time>
      </trkpt>
      <trkpt lat="43.6521" lon="2.33206">
        <ele>305.8</ele>
        <time>2025-09-16T13:09:11Z</time>
      </trkpt>
      <trkpt lat="43.6521" lon="2.33203">
        <ele>306</ele>
        <time>2025-09-16T13:09:12Z</time>
      </trkpt>
      <trkpt lat="43.65209" lon="2.332">
        <ele>306</ele>
        <time>2025-09-16T13:09:13Z</time>
      </trkpt>
      <trkpt lat="43.65209" lon="2.33197">
        <ele>306.2</ele>
        <time>2025-09-16T13:09:14Z</time>
      </trkpt>
      <trkpt lat="43.65209" lon="2.33193">
        <ele>306.2</ele>
        <time>2025-09-16T13:09:15Z</time>
      </trkpt>
      <trkpt lat="43.65208" lon="2.3319">
        <ele>306.4</ele>
        <time>2025-09-16T13:09:16Z</time>
      </trkpt>
      <trkpt lat="43.65208" lon="2.33187">
        <ele>306.4</ele>
        <time>2025-09-16T13:09:17Z</time>
      </trkpt>
      <trkpt lat="43.65208" lon="2.33184">
        <ele>306.4</ele>
        <time>2025-09-16T13:09:18Z</time>
      </trkpt>
      <trkpt lat="43.65207" lon="2.33181">
        <ele>306.4</ele>
        <time>2025-09-16T13:09:19Z</time>
      </trkpt>
      <trkpt lat="43.65208" lon="2.33178">
        <ele>306.6</ele>
        <time>2025-09-16T13:09:20Z</time>
      </trkpt>
      <trkpt lat="43.65209" lon="2.33176">
        <ele>306.6</ele>
        <time>2025-09-16T13:09:21Z</time>
      </trkpt>
      <trkpt lat="43.65211" lon="2.33175">
        <ele>306.8</ele>
        <time>2025-09-16T13:09:22Z</time>
      </trkpt>
      <trkpt lat="43.65213" lon="2.33174">
        <ele>306.8</ele>
        <time>2025-09-16T13:09:23Z</time>
      </trkpt>
      <trkpt lat="43.65215" lon="2.33174">
        <ele>307</ele>
        <time>2025-09-16T13:09:24Z</time>
      </trkpt>
      <trkpt lat="43.65217" lon="2.33175">
        <ele>307.2</ele>
        <time>2025-09-16T13:09:25Z</time>
      </trkpt>
      <trkpt lat="43.65219" lon="2.33174">
        <ele>307.4</ele>
        <time>2025-09-16T13:09:26Z</time>
      </trkpt>
      <trkpt lat="43.65221" lon="2.33175">
        <ele>307.6</ele>
        <time>2025-09-16T13:09:27Z</time>
      </trkpt>
      <trkpt lat="43.65222" lon="2.33175">
        <ele>307.8</ele>
        <time>2025-09-16T13:09:28Z</time>
      </trkpt>
      <trkpt lat="43.65224" lon="2.33175">
        <ele>308</ele>
        <time>2025-09-16T13:09:29Z</time>
      </trkpt>
      <trkpt lat="43.65226" lon="2.33175">
        <ele>308</ele>
        <time>2025-09-16T13:09:30Z</time>
      </trkpt>
      <trkpt lat="43.65227" lon="2.33176">
        <ele>308.2</ele>
        <time>2025-09-16T13:09:31Z</time>
      </trkpt>
      <trkpt lat="43.65229" lon="2.33176">
        <ele>308.4</ele>
        <time>2025-09-16T13:09:32Z</time>
      </trkpt>
      <trkpt lat="43.65231" lon="2.33175">
        <ele>308.6</ele>
        <time>2025-09-16T13:09:33Z</time>
      </trkpt>
      <trkpt lat="43.65232" lon="2.33175">
        <ele>308.8</ele>
        <time>2025-09-16T13:09:34Z</time>
      </trkpt>
      <trkpt lat="43.65233" lon="2.33175">
        <ele>309</ele>
        <time>2025-09-16T13:09:35Z</time>
      </trkpt>
      <trkpt lat="43.65234" lon="2.33175">
        <ele>309</ele>
        <time>2025-09-16T13:09:36Z</time>
      </trkpt>
      <trkpt lat="43.65235" lon="2.33174">
        <ele>309.2</ele>
        <time>2025-09-16T13:09:37Z</time>
      </trkpt>
      <trkpt lat="43.65237" lon="2.33174">
        <ele>309.2</ele>
        <time>2025-09-16T13:09:38Z</time>
      </trkpt>
      <trkpt lat="43.65238" lon="2.33174">
        <ele>309.4</ele>
        <time>2025-09-16T13:09:39Z</time>
      </trkpt>
      <trkpt lat="43.65239" lon="2.33174">
        <ele>309.6</ele>
        <time>2025-09-16T13:09:40Z</time>
      </trkpt>
      <trkpt lat="43.65241" lon="2.33174">
        <ele>309.6</ele>
        <time>2025-09-16T13:09:41Z</time>
      </trkpt>
      <trkpt lat="43.65243" lon="2.33173">
        <ele>309.8</ele>
        <time>2025-09-16T13:09:42Z</time>
      </trkpt>
      <trkpt lat="43.65244" lon="2.33172">
        <ele>310</ele>
        <time>2025-09-16T13:09:43Z</time>
      </trkpt>
      <trkpt lat="43.65246" lon="2.33172">
        <ele>310.2</ele>
        <time>2025-09-16T13:09:44Z</time>
      </trkpt>
      <trkpt lat="43.65247" lon="2.33171">
        <ele>310.4</ele>
        <time>2025-09-16T13:09:45Z</time>
      </trkpt>
      <trkpt lat="43.65248" lon="2.33171">
        <ele>310.4</ele>
        <time>2025-09-16T13:09:46Z</time>
      </trkpt>
      <trkpt lat="43.6525" lon="2.3317">
        <ele>310.6</ele>
        <time>2025-09-16T13:09:47Z</time>
      </trkpt>
      <trkpt lat="43.65251" lon="2.33169">
        <ele>310.8</ele>
        <time>2025-09-16T13:09:48Z</time>
      </trkpt>
      <trkpt lat="43.65253" lon="2.33168">
        <ele>310.8</ele>
        <time>2025-09-16T13:09:49Z</time>
      </trkpt>
      <trkpt lat="43.65255" lon="2.33168">
        <ele>311</ele>
        <time>2025-09-16T13:09:50Z</time>
      </trkpt>
      <trkpt lat="43.65256" lon="2.33167">
        <ele>311.2</ele>
        <time>2025-09-16T13:09:51Z</time>
      </trkpt>
      <trkpt lat="43.65257" lon="2.33167">
        <ele>311.4</ele>
        <time>2025-09-16T13:09:52Z</time>
      </trkpt>
      <trkpt lat="43.65259" lon="2.33167">
        <ele>311.4</ele>
        <time>2025-09-16T13:09:53Z</time>
      </trkpt>
      <trkpt lat="43.6526" lon="2.33166">
        <ele>311.6</ele>
        <time>2025-09-16T13:09:54Z</time>
      </trkpt>
      <trkpt lat="43.65262" lon="2.33165">
        <ele>311.8</ele>
        <time>2025-09-16T13:09:55Z</time>
      </trkpt>
      <trkpt lat="43.65263" lon="2.33164">
        <ele>311.8</ele>
        <time>2025-09-16T13:09:56Z</time>
      </trkpt>
      <trkpt lat="43.65265" lon="2.33164">
        <ele>311.8</ele>
        <time>2025-09-16T13:09:57Z</time>
      </trkpt>
      <trkpt lat="43.65267" lon="2.33164">
        <ele>312</ele>
        <time>2025-09-16T13:09:58Z</time>
      </trkpt>
      <trkpt lat="43.65269" lon="2.33164">
        <ele>312</ele>
        <time>2025-09-16T13:09:59Z</time>
      </trkpt>
      <trkpt lat="43.6527" lon="2.33165">
        <ele>312</ele>
        <time>2025-09-16T13:10:00Z</time>
      </trkpt>
      <trkpt lat="43.65272" lon="2.33166">
        <ele>312.2</ele>
        <time>2025-09-16T13:10:01Z</time>
      </trkpt>
      <trkpt lat="43.65274" lon="2.33167">
        <ele>312.4</ele>
        <time>2025-09-16T13:10:02Z</time>
      </trkpt>
      <trkpt lat="43.65275" lon="2.33168">
        <ele>312.6</ele>
        <time>2025-09-16T13:10:03Z</time>
      </trkpt>
      <trkpt lat="43.65274" lon="2.3317">
        <ele>312.8</ele>
        <time>2025-09-16T13:10:04Z</time>
      </trkpt>
      <trkpt lat="43.65273" lon="2.33171">
        <ele>312.8</ele>
        <time>2025-09-16T13:10:05Z</time>
      </trkpt>
      <trkpt lat="43.65272" lon="2.33172">
        <ele>313</ele>
        <time>2025-09-16T13:10:06Z</time>
      </trkpt>
      <trkpt lat="43.65271" lon="2.33172">
        <ele>313.2</ele>
        <time>2025-09-16T13:10:07Z</time>
      </trkpt>
      <trkpt lat="43.65269" lon="2.33172">
        <ele>313.2</ele>
        <time>2025-09-16T13:10:08Z</time>
      </trkpt>
      <trkpt lat="43.65267" lon="2.33172">
        <ele>313.4</ele>
        <time>2025-09-16T13:10:09Z</time>
      </trkpt>
      <trkpt lat="43.65266" lon="2.33171">
        <ele>313.6</ele>
        <time>2025-09-16T13:10:10Z</time>
      </trkpt>
      <trkpt lat="43.65264" lon="2.33171">
        <ele>313.6</ele>
        <time>2025-09-16T13:10:11Z</time>
      </trkpt>
      <trkpt lat="43.65263" lon="2.33171">
        <ele>313.8</ele>
        <time>2025-09-16T13:10:12Z</time>
      </trkpt>
      <trkpt lat="43.65261" lon="2.33171">
        <ele>313.8</ele>
        <time>2025-09-16T13:10:13Z</time>
      </trkpt>
      <trkpt lat="43.6526" lon="2.33172">
        <ele>314</ele>
        <time>2025-09-16T13:10:14Z</time>
      </trkpt>
      <trkpt lat="43.65259" lon="2.33173">
        <ele>314.2</ele>
        <time>2025-09-16T13:10:15Z</time>
      </trkpt>
      <trkpt lat="43.65258" lon="2.33173">
        <ele>314.4</ele>
        <time>2025-09-16T13:10:16Z</time>
      </trkpt>
      <trkpt lat="43.65256" lon="2.33175">
        <ele>314.6</ele>
        <time>2025-09-16T13:10:17Z</time>
      </trkpt>
      <trkpt lat="43.65255" lon="2.33176">
        <ele>314.8</ele>
        <time>2025-09-16T13:10:18Z</time>
      </trkpt>
      <trkpt lat="43.65254" lon="2.33177">
        <ele>314.8</ele>
        <time>2025-09-16T13:10:19Z</time>
      </trkpt>
      <trkpt lat="43.65252" lon="2.33178">
        <ele>315</ele>
        <time>2025-09-16T13:10:20Z</time>
      </trkpt>
      <trkpt lat="43.65252" lon="2.3318">
        <ele>315.2</ele>
        <time>2025-09-16T13:10:21Z</time>
      </trkpt>
      <trkpt lat="43.65251" lon="2.33181">
        <ele>315.2</ele>
        <time>2025-09-16T13:10:22Z</time>
      </trkpt>
      <trkpt lat="43.65249" lon="2.33183">
        <ele>315.4</ele>
        <time>2025-09-16T13:10:23Z</time>
      </trkpt>
      <trkpt lat="43.65248" lon="2.33184">
        <ele>315.6</ele>
        <time>2025-09-16T13:10:24Z</time>
      </trkpt>
      <trkpt lat="43.65247" lon="2.33185">
        <ele>315.8</ele>
        <time>2025-09-16T13:10:25Z</time>
      </trkpt>
      <trkpt lat="43.65245" lon="2.33186">
        <ele>316</ele>
        <time>2025-09-16T13:10:26Z</time>
      </trkpt>
      <trkpt lat="43.65244" lon="2.33187">
        <ele>316</ele>
        <time>2025-09-16T13:10:27Z</time>
      </trkpt>
      <trkpt lat="43.65243" lon="2.33187">
        <ele>316.2</ele>
        <time>2025-09-16T13:10:28Z</time>
      </trkpt>
      <trkpt lat="43.65242" lon="2.33188">
        <ele>316.4</ele>
        <time>2025-09-16T13:10:29Z</time>
      </trkpt>
      <trkpt lat="43.65241" lon="2.33189">
        <ele>316.6</ele>
        <time>2025-09-16T13:10:30Z</time>
      </trkpt>
      <trkpt lat="43.6524" lon="2.3319">
        <ele>316.8</ele>
        <time>2025-09-16T13:10:31Z</time>
      </trkpt>
      <trkpt lat="43.65239" lon="2.33192">
        <ele>317</ele>
        <time>2025-09-16T13:10:32Z</time>
      </trkpt>
      <trkpt lat="43.65238" lon="2.33194">
        <ele>317</ele>
        <time>2025-09-16T13:10:33Z</time>
      </trkpt>
      <trkpt lat="43.65238" lon="2.33195">
        <ele>317.2</ele>
        <time>2025-09-16T13:10:34Z</time>
      </trkpt>
      <trkpt lat="43.65237" lon="2.33197">
        <ele>317.2</ele>
        <time>2025-09-16T13:10:35Z</time>
      </trkpt>
      <trkpt lat="43.65237" lon="2.33199">
        <ele>317.4</ele>
        <time>2025-09-16T13:10:36Z</time>
      </trkpt>
      <trkpt lat="43.65237" lon="2.33202">
        <ele>317.6</ele>
        <time>2025-09-16T13:10:37Z</time>
      </trkpt>
      <trkpt lat="43.65237" lon="2.33204">
        <ele>317.6</ele>
        <time>2025-09-16T13:10:38Z</time>
      </trkpt>
      <trkpt lat="43.65237" lon="2.33205">
        <ele>317.8</ele>
        <time>2025-09-16T13:10:39Z</time>
      </trkpt>
      <trkpt lat="43.65237" lon="2.33207">
        <ele>318</ele>
        <time>2025-09-16T13:10:40Z</time>
      </trkpt>
      <trkpt lat="43.65238" lon="2.33209">
        <ele>318.2</ele>
        <time>2025-09-16T13:10:41Z</time>
      </trkpt>
      <trkpt lat="43.65238" lon="2.33211">
        <ele>318.4</ele>
        <time>2025-09-16T13:10:42Z</time>
      </trkpt>
      <trkpt lat="43.65238" lon="2.33213">
        <ele>318.4</ele>
        <time>2025-09-16T13:10:43Z</time>
      </trkpt>
      <trkpt lat="43.65238" lon="2.33215">
        <ele>318.6</ele>
        <time>2025-09-16T13:10:44Z</time>
      </trkpt>
      <trkpt lat="43.65238" lon="2.33217">
        <ele>318.6</ele>
        <time>2025-09-16T13:10:45Z</time>
      </trkpt>
      <trkpt lat="43.65238" lon="2.33218">
        <ele>318.8</ele>
        <time>2025-09-16T13:10:46Z</time>
      </trkpt>
      <trkpt lat="43.65238" lon="2.3322">
        <ele>318.8</ele>
        <time>2025-09-16T13:10:47Z</time>
      </trkpt>
      <trkpt lat="43.65238" lon="2.33222">
        <ele>318.8</ele>
        <time>2025-09-16T13:10:48Z</time>
      </trkpt>
      <trkpt lat="43.65238" lon="2.33224">
        <ele>319</ele>
        <time>2025-09-16T13:10:49Z</time>
      </trkpt>
      <trkpt lat="43.65239" lon="2.33226">
        <ele>319</ele>
        <time>2025-09-16T13:10:50Z</time>
      </trkpt>
      <trkpt lat="43.6524" lon="2.33228">
        <ele>319.2</ele>
        <time>2025-09-16T13:10:51Z</time>
      </trkpt>
      <trkpt lat="43.65241" lon="2.3323">
        <ele>319.4</ele>
        <time>2025-09-16T13:10:52Z</time>
      </trkpt>
      <trkpt lat="43.65241" lon="2.33231">
        <ele>319.6</ele>
        <time>2025-09-16T13:10:53Z</time>
      </trkpt>
      <trkpt lat="43.65242" lon="2.33233">
        <ele>319.8</ele>
        <time>2025-09-16T13:10:54Z</time>
      </trkpt>
      <trkpt lat="43.65242" lon="2.33235">
        <ele>320</ele>
        <time>2025-09-16T13:10:55Z</time>
      </trkpt>
      <trkpt lat="43.65243" lon="2.33236">
        <ele>320</ele>
        <time>2025-09-16T13:10:56Z</time>
      </trkpt>
      <trkpt lat="43.65245" lon="2.33237">
        <ele>320.2</ele>
        <time>2025-09-16T13:10:57Z</time>
      </trkpt>
      <trkpt lat="43.65246" lon="2.33238">
        <ele>320.4</ele>
        <time>2025-09-16T13:10:58Z</time>
      </trkpt>
      <trkpt lat="43.65246" lon="2.3324">
        <ele>320.6</ele>
        <time>2025-09-16T13:10:59Z</time>
      </trkpt>
      <trkpt lat="43.65247" lon="2.33241">
        <ele>320.8</ele>
        <time>2025-09-16T13:11:00Z</time>
      </trkpt>
      <trkpt lat="43.65247" lon="2.33243">
        <ele>321</ele>
        <time>2025-09-16T13:11:01Z</time>
      </trkpt>
      <trkpt lat="43.65248" lon="2.33245">
        <ele>321</ele>
        <time>2025-09-16T13:11:02Z</time>
      </trkpt>
      <trkpt lat="43.65249" lon="2.33246">
        <ele>321.2</ele>
        <time>2025-09-16T13:11:03Z</time>
      </trkpt>
      <trkpt lat="43.65249" lon="2.33247">
        <ele>321.4</ele>
        <time>2025-09-16T13:11:04Z</time>
      </trkpt>
      <trkpt lat="43.6525" lon="2.33249">
        <ele>321.6</ele>
        <time>2025-09-16T13:11:05Z</time>
      </trkpt>
      <trkpt lat="43.65251" lon="2.3325">
        <ele>321.8</ele>
        <time>2025-09-16T13:11:06Z</time>
      </trkpt>
      <trkpt lat="43.65252" lon="2.33251">
        <ele>321.8</ele>
        <time>2025-09-16T13:11:07Z</time>
      </trkpt>
      <trkpt lat="43.65253" lon="2.33252">
        <ele>322</ele>
        <time>2025-09-16T13:11:08Z</time>
      </trkpt>
      <trkpt lat="43.65253" lon="2.33252">
        <ele>322.2</ele>
        <time>2025-09-16T13:11:09Z</time>
      </trkpt>
      <trkpt lat="43.65255" lon="2.33253">
        <ele>322.2</ele>
        <time>2025-09-16T13:11:10Z</time>
      </trkpt>
      <trkpt lat="43.65256" lon="2.33254">
        <ele>322.4</ele>
        <time>2025-09-16T13:11:11Z</time>
      </trkpt>
      <trkpt lat="43.65257" lon="2.33255">
        <ele>322.6</ele>
        <time>2025-09-16T13:11:12Z</time>
      </trkpt>
      <trkpt lat="43.65258" lon="2.33256">
        <ele>322.8</ele>
        <time>2025-09-16T13:11:13Z</time>
      </trkpt>
      <trkpt lat="43.65259" lon="2.33258">
        <ele>322.8</ele>
        <time>2025-09-16T13:11:14Z</time>
      </trkpt>
      <trkpt lat="43.6526" lon="2.33259">
        <ele>323</ele>
        <time>2025-09-16T13:11:15Z</time>
      </trkpt>
      <trkpt lat="43.6526" lon="2.33261">
        <ele>323.2</ele>
        <time>2025-09-16T13:11:16Z</time>
      </trkpt>
      <trkpt lat="43.65261" lon="2.33262">
        <ele>323.4</ele>
        <time>2025-09-16T13:11:17Z</time>
      </trkpt>
      <trkpt lat="43.65262" lon="2.33263">
        <ele>323.6</ele>
        <time>2025-09-16T13:11:18Z</time>
      </trkpt>
      <trkpt lat="43.65263" lon="2.33265">
        <ele>323.6</ele>
        <time>2025-09-16T13:11:19Z</time>
      </trkpt>
      <trkpt lat="43.65264" lon="2.33266">
        <ele>323.8</ele>
        <time>2025-09-16T13:11:20Z</time>
      </trkpt>
      <trkpt lat="43.65264" lon="2.33267">
        <ele>324</ele>
        <time>2025-09-16T13:11:21Z</time>
      </trkpt>
      <trkpt lat="43.65266" lon="2.33268">
        <ele>324</ele>
        <time>2025-09-16T13:11:22Z</time>
      </trkpt>
      <trkpt lat="43.65267" lon="2.33269">
        <ele>324.2</ele>
        <time>2025-09-16T13:11:23Z</time>
      </trkpt>
      <trkpt lat="43.65267" lon="2.3327">
        <ele>324.4</ele>
        <time>2025-09-16T13:11:24Z</time>
      </trkpt>
      <trkpt lat="43.65268" lon="2.33272">
        <ele>324.6</ele>
        <time>2025-09-16T13:11:25Z</time>
      </trkpt>
      <trkpt lat="43.65269" lon="2.33273">
        <ele>324.6</ele>
        <time>2025-09-16T13:11:26Z</time>
      </trkpt>
      <trkpt lat="43.6527" lon="2.33274">
        <ele>324.8</ele>
        <time>2025-09-16T13:11:27Z</time>
      </trkpt>
      <trkpt lat="43.65271" lon="2.33276">
        <ele>325</ele>
        <time>2025-09-16T13:11:28Z</time>
      </trkpt>
      <trkpt lat="43.65272" lon="2.33277">
        <ele>325.2</ele>
        <time>2025-09-16T13:11:29Z</time>
      </trkpt>
      <trkpt lat="43.65273" lon="2.33278">
        <ele>325.2</ele>
        <time>2025-09-16T13:11:30Z</time>
      </trkpt>
      <trkpt lat="43.65274" lon="2.3328">
        <ele>325.4</ele>
        <time>2025-09-16T13:11:31Z</time>
      </trkpt>
      <trkpt lat="43.65274" lon="2.33282">
        <ele>325.6</ele>
        <time>2025-09-16T13:11:32Z</time>
      </trkpt>
      <trkpt lat="43.65275" lon="2.33283">
        <ele>325.6</ele>
        <time>2025-09-16T13:11:33Z</time>
      </trkpt>
      <trkpt lat="43.65276" lon="2.33285">
        <ele>325.8</ele>
        <time>2025-09-16T13:11:34Z</time>
      </trkpt>
      <trkpt lat="43.65276" lon="2.33286">
        <ele>325.8</ele>
        <time>2025-09-16T13:11:35Z</time>
      </trkpt>
      <trkpt lat="43.65277" lon="2.33288">
        <ele>326</ele>
        <time>2025-09-16T13:11:36Z</time>
      </trkpt>
      <trkpt lat="43.65278" lon="2.33289">
        <ele>326.2</ele>
        <time>2025-09-16T13:11:37Z</time>
      </trkpt>
      <trkpt lat="43.65279" lon="2.33291">
        <ele>326.4</ele>
        <time>2025-09-16T13:11:38Z</time>
      </trkpt>
      <trkpt lat="43.6528" lon="2.33292">
        <ele>326.6</ele>
        <time>2025-09-16T13:11:39Z</time>
      </trkpt>
      <trkpt lat="43.65281" lon="2.33293">
        <ele>326.6</ele>
        <time>2025-09-16T13:11:40Z</time>
      </trkpt>
      <trkpt lat="43.65282" lon="2.33295">
        <ele>327</ele>
        <time>2025-09-16T13:11:41Z</time>
      </trkpt>
      <trkpt lat="43.65283" lon="2.33296">
        <ele>327</ele>
        <time>2025-09-16T13:11:42Z</time>
      </trkpt>
      <trkpt lat="43.65284" lon="2.33298">
        <ele>327.2</ele>
        <time>2025-09-16T13:11:43Z</time>
      </trkpt>
      <trkpt lat="43.65285" lon="2.33299">
        <ele>327.4</ele>
        <time>2025-09-16T13:11:44Z</time>
      </trkpt>
      <trkpt lat="43.65285" lon="2.333">
        <ele>327.4</ele>
        <time>2025-09-16T13:11:45Z</time>
      </trkpt>
      <trkpt lat="43.65286" lon="2.33302">
        <ele>327.6</ele>
        <time>2025-09-16T13:11:46Z</time>
      </trkpt>
      <trkpt lat="43.65287" lon="2.33303">
        <ele>327.8</ele>
        <time>2025-09-16T13:11:47Z</time>
      </trkpt>
      <trkpt lat="43.65287" lon="2.33305">
        <ele>327.8</ele>
        <time>2025-09-16T13:11:48Z</time>
      </trkpt>
      <trkpt lat="43.65288" lon="2.33306">
        <ele>328</ele>
        <time>2025-09-16T13:11:49Z</time>
      </trkpt>
      <trkpt lat="43.65289" lon="2.33308">
        <ele>328.2</ele>
        <time>2025-09-16T13:11:50Z</time>
      </trkpt>
      <trkpt lat="43.6529" lon="2.33309">
        <ele>328.4</ele>
        <time>2025-09-16T13:11:51Z</time>
      </trkpt>
      <trkpt lat="43.65291" lon="2.33311">
        <ele>328.6</ele>
        <time>2025-09-16T13:11:52Z</time>
      </trkpt>
      <trkpt lat="43.65292" lon="2.33312">
        <ele>328.6</ele>
        <time>2025-09-16T13:11:53Z</time>
      </trkpt>
      <trkpt lat="43.65293" lon="2.33313">
        <ele>328.8</ele>
        <time>2025-09-16T13:11:54Z</time>
      </trkpt>
      <trkpt lat="43.65294" lon="2.33315">
        <ele>329</ele>
        <time>2025-09-16T13:11:55Z</time>
      </trkpt>
      <trkpt lat="43.65295" lon="2.33316">
        <ele>329.2</ele>
        <time>2025-09-16T13:11:56Z</time>
      </trkpt>
      <trkpt lat="43.65296" lon="2.33318">
        <ele>329.2</ele>
        <time>2025-09-16T13:11:57Z</time>
      </trkpt>
      <trkpt lat="43.65297" lon="2.33319">
        <ele>329.4</ele>
        <time>2025-09-16T13:11:58Z</time>
      </trkpt>
      <trkpt lat="43.65297" lon="2.33321">
        <ele>329.6</ele>
        <time>2025-09-16T13:11:59Z</time>
      </trkpt>
      <trkpt lat="43.65298" lon="2.33322">
        <ele>329.6</ele>
        <time>2025-09-16T13:12:00Z</time>
      </trkpt>
      <trkpt lat="43.65299" lon="2.33323">
        <ele>329.8</ele>
        <time>2025-09-16T13:12:01Z</time>
      </trkpt>
      <trkpt lat="43.653" lon="2.33325">
        <ele>329.8</ele>
        <time>2025-09-16T13:12:02Z</time>
      </trkpt>
      <trkpt lat="43.65301" lon="2.33326">
        <ele>330</ele>
        <time>2025-09-16T13:12:03Z</time>
      </trkpt>
      <trkpt lat="43.65301" lon="2.33328">
        <ele>330.2</ele>
        <time>2025-09-16T13:12:04Z</time>
      </trkpt>
      <trkpt lat="43.65302" lon="2.33329">
        <ele>330.6</ele>
        <time>2025-09-16T13:12:05Z</time>
      </trkpt>
      <trkpt lat="43.65303" lon="2.3333">
        <ele>330.6</ele>
        <time>2025-09-16T13:12:06Z</time>
      </trkpt>
      <trkpt lat="43.65303" lon="2.33332">
        <ele>330.8</ele>
        <time>2025-09-16T13:12:07Z</time>
      </trkpt>
      <trkpt lat="43.65304" lon="2.33333">
        <ele>331</ele>
        <time>2025-09-16T13:12:08Z</time>
      </trkpt>
      <trkpt lat="43.65305" lon="2.33334">
        <ele>331.2</ele>
        <time>2025-09-16T13:12:09Z</time>
      </trkpt>
      <trkpt lat="43.65306" lon="2.33336">
        <ele>331.2</ele>
        <time>2025-09-16T13:12:10Z</time>
      </trkpt>
      <trkpt lat="43.65307" lon="2.33337">
        <ele>331.4</ele>
        <time>2025-09-16T13:12:11Z</time>
      </trkpt>
      <trkpt lat="43.65307" lon="2.33338">
        <ele>331.6</ele>
        <time>2025-09-16T13:12:12Z</time>
      </trkpt>
      <trkpt lat="43.65308" lon="2.3334">
        <ele>331.8</ele>
        <time>2025-09-16T13:12:13Z</time>
      </trkpt>
      <trkpt lat="43.65309" lon="2.33341">
        <ele>332</ele>
        <time>2025-09-16T13:12:14Z</time>
      </trkpt>
      <trkpt lat="43.6531" lon="2.33341">
        <ele>332.2</ele>
        <time>2025-09-16T13:12:15Z</time>
      </trkpt>
      <trkpt lat="43.65311" lon="2.33342">
        <ele>332.2</ele>
        <time>2025-09-16T13:12:16Z</time>
      </trkpt>
      <trkpt lat="43.65312" lon="2.33343">
        <ele>332.4</ele>
        <time>2025-09-16T13:12:17Z</time>
      </trkpt>
      <trkpt lat="43.65314" lon="2.33345">
        <ele>332.6</ele>
        <time>2025-09-16T13:12:18Z</time>
      </trkpt>
      <trkpt lat="43.65314" lon="2.33346">
        <ele>332.8</ele>
        <time>2025-09-16T13:12:19Z</time>
      </trkpt>
      <trkpt lat="43.65315" lon="2.33347">
        <ele>332.8</ele>
        <time>2025-09-16T13:12:20Z</time>
      </trkpt>
      <trkpt lat="43.65316" lon="2.33348">
        <ele>333</ele>
        <time>2025-09-16T13:12:21Z</time>
      </trkpt>
      <trkpt lat="43.65317" lon="2.33349">
        <ele>333.2</ele>
        <time>2025-09-16T13:12:22Z</time>
      </trkpt>
      <trkpt lat="43.65318" lon="2.3335">
        <ele>333.4</ele>
        <time>2025-09-16T13:12:23Z</time>
      </trkpt>
      <trkpt lat="43.65319" lon="2.33351">
        <ele>333.6</ele>
        <time>2025-09-16T13:12:24Z</time>
      </trkpt>
      <trkpt lat="43.65321" lon="2.33352">
        <ele>333.6</ele>
        <time>2025-09-16T13:12:25Z</time>
      </trkpt>
      <trkpt lat="43.65322" lon="2.33353">
        <ele>333.8</ele>
        <time>2025-09-16T13:12:26Z</time>
      </trkpt>
      <trkpt lat="43.65323" lon="2.33353">
        <ele>333.8</ele>
        <time>2025-09-16T13:12:27Z</time>
      </trkpt>
      <trkpt lat="43.65325" lon="2.33354">
        <ele>334</ele>
        <time>2025-09-16T13:12:28Z</time>
      </trkpt>
      <trkpt lat="43.65326" lon="2.33354">
        <ele>334</ele>
        <time>2025-09-16T13:12:29Z</time>
      </trkpt>
      <trkpt lat="43.65328" lon="2.33355">
        <ele>334.2</ele>
        <time>2025-09-16T13:12:30Z</time>
      </trkpt>
      <trkpt lat="43.65329" lon="2.33355">
        <ele>334.4</ele>
        <time>2025-09-16T13:12:31Z</time>
      </trkpt>
      <trkpt lat="43.6533" lon="2.33356">
        <ele>334.4</ele>
        <time>2025-09-16T13:12:32Z</time>
      </trkpt>
      <trkpt lat="43.65331" lon="2.33357">
        <ele>334.6</ele>
        <time>2025-09-16T13:12:33Z</time>
      </trkpt>
      <trkpt lat="43.65332" lon="2.33358">
        <ele>334.8</ele>
        <time>2025-09-16T13:12:34Z</time>
      </trkpt>
      <trkpt lat="43.65333" lon="2.33358">
        <ele>335</ele>
        <time>2025-09-16T13:12:35Z</time>
      </trkpt>
      <trkpt lat="43.65334" lon="2.33359">
        <ele>335</ele>
        <time>2025-09-16T13:12:36Z</time>
      </trkpt>
      <trkpt lat="43.65335" lon="2.3336">
        <ele>335.2</ele>
        <time>2025-09-16T13:12:37Z</time>
      </trkpt>
      <trkpt lat="43.65336" lon="2.33359">
        <ele>335.4</ele>
        <time>2025-09-16T13:12:38Z</time>
      </trkpt>
      <trkpt lat="43.65338" lon="2.33359">
        <ele>335.6</ele>
        <time>2025-09-16T13:12:39Z</time>
      </trkpt>
      <trkpt lat="43.65339" lon="2.33358">
        <ele>335.6</ele>
        <time>2025-09-16T13:12:40Z</time>
      </trkpt>
      <trkpt lat="43.6534" lon="2.33358">
        <ele>335.8</ele>
        <time>2025-09-16T13:12:41Z</time>
      </trkpt>
      <trkpt lat="43.65341" lon="2.33359">
        <ele>336</ele>
        <time>2025-09-16T13:12:42Z</time>
      </trkpt>
      <trkpt lat="43.65342" lon="2.33359">
        <ele>336.2</ele>
        <time>2025-09-16T13:12:43Z</time>
      </trkpt>
      <trkpt lat="43.65343" lon="2.33359">
        <ele>336.4</ele>
        <time>2025-09-16T13:12:44Z</time>
      </trkpt>
      <trkpt lat="43.65344" lon="2.33358">
        <ele>336.6</ele>
        <time>2025-09-16T13:12:45Z</time>
      </trkpt>
      <trkpt lat="43.65345" lon="2.33358">
        <ele>336.6</ele>
        <time>2025-09-16T13:12:46Z</time>
      </trkpt>
      <trkpt lat="43.65347" lon="2.33358">
        <ele>336.8</ele>
        <time>2025-09-16T13:12:47Z</time>
      </trkpt>
      <trkpt lat="43.65348" lon="2.33359">
        <ele>337</ele>
        <time>2025-09-16T13:12:48Z</time>
      </trkpt>
      <trkpt lat="43.65349" lon="2.3336">
        <ele>337.2</ele>
        <time>2025-09-16T13:12:49Z</time>
      </trkpt>
      <trkpt lat="43.6535" lon="2.3336">
        <ele>337.4</ele>
        <time>2025-09-16T13:12:50Z</time>
      </trkpt>
      <trkpt lat="43.65352" lon="2.3336">
        <ele>337.6</ele>
        <time>2025-09-16T13:12:51Z</time>
      </trkpt>
      <trkpt lat="43.65353" lon="2.3336">
        <ele>337.6</ele>
        <time>2025-09-16T13:12:52Z</time>
      </trkpt>
      <trkpt lat="43.65354" lon="2.33359">
        <ele>337.8</ele>
        <time>2025-09-16T13:12:53Z</time>
      </trkpt>
      <trkpt lat="43.65355" lon="2.33359">
        <ele>338</ele>
        <time>2025-09-16T13:12:54Z</time>
      </trkpt>
      <trkpt lat="43.65357" lon="2.33359">
        <ele>338.2</ele>
        <time>2025-09-16T13:12:55Z</time>
      </trkpt>
      <trkpt lat="43.65358" lon="2.33359">
        <ele>338.4</ele>
        <time>2025-09-16T13:12:56Z</time>
      </trkpt>
      <trkpt lat="43.65359" lon="2.33359">
        <ele>338.6</ele>
        <time>2025-09-16T13:12:57Z</time>
      </trkpt>
      <trkpt lat="43.6536" lon="2.33359">
        <ele>338.8</ele>
        <time>2025-09-16T13:12:58Z</time>
      </trkpt>
      <trkpt lat="43.65361" lon="2.3336">
        <ele>338.8</ele>
        <time>2025-09-16T13:12:59Z</time>
      </trkpt>
      <trkpt lat="43.65362" lon="2.3336">
        <ele>339</ele>
        <time>2025-09-16T13:13:00Z</time>
      </trkpt>
      <trkpt lat="43.65363" lon="2.3336">
        <ele>339.2</ele>
        <time>2025-09-16T13:13:01Z</time>
      </trkpt>
      <trkpt lat="43.65364" lon="2.33361">
        <ele>339.4</ele>
        <time>2025-09-16T13:13:02Z</time>
      </trkpt>
      <trkpt lat="43.65366" lon="2.33362">
        <ele>339.6</ele>
        <time>2025-09-16T13:13:03Z</time>
      </trkpt>
      <trkpt lat="43.65367" lon="2.33361">
        <ele>339.6</ele>
        <time>2025-09-16T13:13:04Z</time>
      </trkpt>
      <trkpt lat="43.65368" lon="2.33361">
        <ele>339.8</ele>
        <time>2025-09-16T13:13:05Z</time>
      </trkpt>
      <trkpt lat="43.65369" lon="2.33362">
        <ele>340</ele>
        <time>2025-09-16T13:13:06Z</time>
      </trkpt>
      <trkpt lat="43.6537" lon="2.33362">
        <ele>340.2</ele>
        <time>2025-09-16T13:13:07Z</time>
      </trkpt>
      <trkpt lat="43.65371" lon="2.33363">
        <ele>340.2</ele>
        <time>2025-09-16T13:13:08Z</time>
      </trkpt>
      <trkpt lat="43.65373" lon="2.33363">
        <ele>340.4</ele>
        <time>2025-09-16T13:13:09Z</time>
      </trkpt>
      <trkpt lat="43.65374" lon="2.33363">
        <ele>340.6</ele>
        <time>2025-09-16T13:13:10Z</time>
      </trkpt>
      <trkpt lat="43.65376" lon="2.33364">
        <ele>340.6</ele>
        <time>2025-09-16T13:13:11Z</time>
      </trkpt>
      <trkpt lat="43.65377" lon="2.33364">
        <ele>340.8</ele>
        <time>2025-09-16T13:13:12Z</time>
      </trkpt>
      <trkpt lat="43.65378" lon="2.33365">
        <ele>341</ele>
        <time>2025-09-16T13:13:13Z</time>
      </trkpt>
      <trkpt lat="43.65379" lon="2.33365">
        <ele>341</ele>
        <time>2025-09-16T13:13:14Z</time>
      </trkpt>
      <trkpt lat="43.6538" lon="2.33366">
        <ele>341.2</ele>
        <time>2025-09-16T13:13:15Z</time>
      </trkpt>
      <trkpt lat="43.65382" lon="2.33366">
        <ele>341.2</ele>
        <time>2025-09-16T13:13:16Z</time>
      </trkpt>
      <trkpt lat="43.65383" lon="2.33366">
        <ele>341.4</ele>
        <time>2025-09-16T13:13:17Z</time>
      </trkpt>
      <trkpt lat="43.65384" lon="2.33366">
        <ele>341.6</ele>
        <time>2025-09-16T13:13:18Z</time>
      </trkpt>
      <trkpt lat="43.65385" lon="2.33367">
        <ele>341.8</ele>
        <time>2025-09-16T13:13:19Z</time>
      </trkpt>
      <trkpt lat="43.65387" lon="2.33367">
        <ele>341.8</ele>
        <time>2025-09-16T13:13:20Z</time>
      </trkpt>
      <trkpt lat="43.65388" lon="2.33368">
        <ele>342</ele>
        <time>2025-09-16T13:13:21Z</time>
      </trkpt>
      <trkpt lat="43.65389" lon="2.33368">
        <ele>342.2</ele>
        <time>2025-09-16T13:13:22Z</time>
      </trkpt>
      <trkpt lat="43.6539" lon="2.33369">
        <ele>342.4</ele>
        <time>2025-09-16T13:13:23Z</time>
      </trkpt>
      <trkpt lat="43.65391" lon="2.33369">
        <ele>342.4</ele>
        <time>2025-09-16T13:13:24Z</time>
      </trkpt>
      <trkpt lat="43.65393" lon="2.3337">
        <ele>342.6</ele>
        <time>2025-09-16T13:13:25Z</time>
      </trkpt>
      <trkpt lat="43.65394" lon="2.33371">
        <ele>342.8</ele>
        <time>2025-09-16T13:13:26Z</time>
      </trkpt>
      <trkpt lat="43.65395" lon="2.33372">
        <ele>342.8</ele>
        <time>2025-09-16T13:13:27Z</time>
      </trkpt>
      <trkpt lat="43.65396" lon="2.33372">
        <ele>343</ele>
        <time>2025-09-16T13:13:28Z</time>
      </trkpt>
      <trkpt lat="43.65398" lon="2.33373">
        <ele>343.2</ele>
        <time>2025-09-16T13:13:29Z</time>
      </trkpt>
      <trkpt lat="43.65399" lon="2.33374">
        <ele>343.4</ele>
        <time>2025-09-16T13:13:30Z</time>
      </trkpt>
      <trkpt lat="43.654" lon="2.33375">
        <ele>343.6</ele>
        <time>2025-09-16T13:13:31Z</time>
      </trkpt>
      <trkpt lat="43.65401" lon="2.33376">
        <ele>343.6</ele>
        <time>2025-09-16T13:13:32Z</time>
      </trkpt>
      <trkpt lat="43.65403" lon="2.33376">
        <ele>343.8</ele>
        <time>2025-09-16T13:13:33Z</time>
      </trkpt>
      <trkpt lat="43.65404" lon="2.33377">
        <ele>344</ele>
        <time>2025-09-16T13:13:34Z</time>
      </trkpt>
      <trkpt lat="43.65405" lon="2.33378">
        <ele>344</ele>
        <time>2025-09-16T13:13:35Z</time>
      </trkpt>
      <trkpt lat="43.65406" lon="2.33378">
        <ele>344.2</ele>
        <time>2025-09-16T13:13:36Z</time>
      </trkpt>
      <trkpt lat="43.65407" lon="2.33379">
        <ele>344.4</ele>
        <time>2025-09-16T13:13:37Z</time>
      </trkpt>
      <trkpt lat="43.65407" lon="2.3338">
        <ele>344.6</ele>
        <time>2025-09-16T13:13:38Z</time>
      </trkpt>
      <trkpt lat="43.65409" lon="2.33381">
        <ele>344.6</ele>
        <time>2025-09-16T13:13:39Z</time>
      </trkpt>
      <trkpt lat="43.6541" lon="2.33382">
        <ele>344.8</ele>
        <time>2025-09-16T13:13:40Z</time>
      </trkpt>
      <trkpt lat="43.65411" lon="2.33383">
        <ele>345</ele>
        <time>2025-09-16T13:13:41Z</time>
      </trkpt>
      <trkpt lat="43.65412" lon="2.33384">
        <ele>345.2</ele>
        <time>2025-09-16T13:13:42Z</time>
      </trkpt>
      <trkpt lat="43.65413" lon="2.33385">
        <ele>345.4</ele>
        <time>2025-09-16T13:13:43Z</time>
      </trkpt>
      <trkpt lat="43.65414" lon="2.33386">
        <ele>345.4</ele>
        <time>2025-09-16T13:13:44Z</time>
      </trkpt>
      <trkpt lat="43.65415" lon="2.33387">
        <ele>345.6</ele>
        <time>2025-09-16T13:13:45Z</time>
      </trkpt>
      <trkpt lat="43.65416" lon="2.33388">
        <ele>345.8</ele>
        <time>2025-09-16T13:13:46Z</time>
      </trkpt>
      <trkpt lat="43.65417" lon="2.33389">
        <ele>346</ele>
        <time>2025-09-16T13:13:47Z</time>
      </trkpt>
      <trkpt lat="43.65418" lon="2.3339">
        <ele>346</ele>
        <time>2025-09-16T13:13:48Z</time>
      </trkpt>
      <trkpt lat="43.6542" lon="2.33391">
        <ele>346.2</ele>
        <time>2025-09-16T13:13:49Z</time>
      </trkpt>
      <trkpt lat="43.65421" lon="2.33392">
        <ele>346.4</ele>
        <time>2025-09-16T13:13:50Z</time>
      </trkpt>
      <trkpt lat="43.65422" lon="2.33394">
        <ele>346.4</ele>
        <time>2025-09-16T13:13:51Z</time>
      </trkpt>
      <trkpt lat="43.65423" lon="2.33395">
        <ele>346.6</ele>
        <time>2025-09-16T13:13:52Z</time>
      </trkpt>
      <trkpt lat="43.65424" lon="2.33396">
        <ele>346.8</ele>
        <time>2025-09-16T13:13:53Z</time>
      </trkpt>
      <trkpt lat="43.65425" lon="2.33397">
        <ele>346.8</ele>
        <time>2025-09-16T13:13:54Z</time>
      </trkpt>
      <trkpt lat="43.65427" lon="2.33397">
        <ele>347</ele>
        <time>2025-09-16T13:13:55Z</time>
      </trkpt>
      <trkpt lat="43.65428" lon="2.33398">
        <ele>347.2</ele>
        <time>2025-09-16T13:13:56Z</time>
      </trkpt>
      <trkpt lat="43.65429" lon="2.33399">
        <ele>347.2</ele>
        <time>2025-09-16T13:13:57Z</time>
      </trkpt>
      <trkpt lat="43.6543" lon="2.334">
        <ele>347.4</ele>
        <time>2025-09-16T13:13:58Z</time>
      </trkpt>
      <trkpt lat="43.6543" lon="2.33401">
        <ele>347.4</ele>
        <time>2025-09-16T13:13:59Z</time>
      </trkpt>
      <trkpt lat="43.65431" lon="2.33403">
        <ele>347.6</ele>
        <time>2025-09-16T13:14:00Z</time>
      </trkpt>
      <trkpt lat="43.65432" lon="2.33404">
        <ele>347.8</ele>
        <time>2025-09-16T13:14:01Z</time>
      </trkpt>
      <trkpt lat="43.65434" lon="2.33405">
        <ele>347.8</ele>
        <time>2025-09-16T13:14:02Z</time>
      </trkpt>
      <trkpt lat="43.65435" lon="2.33406">
        <ele>348</ele>
        <time>2025-09-16T13:14:03Z</time>
      </trkpt>
      <trkpt lat="43.65436" lon="2.33406">
        <ele>348.2</ele>
        <time>2025-09-16T13:14:04Z</time>
      </trkpt>
      <trkpt lat="43.65437" lon="2.33407">
        <ele>348.4</ele>
        <time>2025-09-16T13:14:05Z</time>
      </trkpt>
      <trkpt lat="43.65438" lon="2.33408">
        <ele>348.4</ele>
        <time>2025-09-16T13:14:06Z</time>
      </trkpt>
      <trkpt lat="43.65439" lon="2.33409">
        <ele>348.6</ele>
        <time>2025-09-16T13:14:07Z</time>
      </trkpt>
      <trkpt lat="43.6544" lon="2.3341">
        <ele>348.8</ele>
        <time>2025-09-16T13:14:08Z</time>
      </trkpt>
      <trkpt lat="43.65441" lon="2.33411">
        <ele>348.8</ele>
        <time>2025-09-16T13:14:09Z</time>
      </trkpt>
      <trkpt lat="43.65442" lon="2.33412">
        <ele>349</ele>
        <time>2025-09-16T13:14:10Z</time>
      </trkpt>
      <trkpt lat="43.65443" lon="2.33414">
        <ele>349</ele>
        <time>2025-09-16T13:14:11Z</time>
      </trkpt>
      <trkpt lat="43.65444" lon="2.33415">
        <ele>349.2</ele>
        <time>2025-09-16T13:14:12Z</time>
      </trkpt>
      <trkpt lat="43.65444" lon="2.33416">
        <ele>349.2</ele>
        <time>2025-09-16T13:14:13Z</time>
      </trkpt>
      <trkpt lat="43.65445" lon="2.33418">
        <ele>349.2</ele>
        <time>2025-09-16T13:14:14Z</time>
      </trkpt>
      <trkpt lat="43.65446" lon="2.33419">
        <ele>349.4</ele>
        <time>2025-09-16T13:14:15Z</time>
      </trkpt>
      <trkpt lat="43.65447" lon="2.3342">
        <ele>349.6</ele>
        <time>2025-09-16T13:14:16Z</time>
      </trkpt>
      <trkpt lat="43.65448" lon="2.33422">
        <ele>349.6</ele>
        <time>2025-09-16T13:14:17Z</time>
      </trkpt>
      <trkpt lat="43.65449" lon="2.33423">
        <ele>349.8</ele>
        <time>2025-09-16T13:14:18Z</time>
      </trkpt>
      <trkpt lat="43.6545" lon="2.33425">
        <ele>350</ele>
        <time>2025-09-16T13:14:19Z</time>
      </trkpt>
      <trkpt lat="43.65451" lon="2.33426">
        <ele>350.2</ele>
        <time>2025-09-16T13:14:20Z</time>
      </trkpt>
      <trkpt lat="43.65452" lon="2.33427">
        <ele>350.2</ele>
        <time>2025-09-16T13:14:21Z</time>
      </trkpt>
      <trkpt lat="43.65452" lon="2.33428">
        <ele>350.4</ele>
        <time>2025-09-16T13:14:22Z</time>
      </trkpt>
      <trkpt lat="43.65453" lon="2.33429">
        <ele>350.6</ele>
        <time>2025-09-16T13:14:23Z</time>
      </trkpt>
      <trkpt lat="43.65453" lon="2.33431">
        <ele>350.8</ele>
        <time>2025-09-16T13:14:24Z</time>
      </trkpt>
      <trkpt lat="43.65454" lon="2.33431">
        <ele>350.8</ele>
        <time>2025-09-16T13:14:25Z</time>
      </trkpt>
      <trkpt lat="43.65455" lon="2.33432">
        <ele>351</ele>
        <time>2025-09-16T13:14:26Z</time>
      </trkpt>
      <trkpt lat="43.65456" lon="2.33434">
        <ele>351.2</ele>
        <time>2025-09-16T13:14:27Z</time>
      </trkpt>
      <trkpt lat="43.65457" lon="2.33435">
        <ele>351.4</ele>
        <time>2025-09-16T13:14:28Z</time>
      </trkpt>
      <trkpt lat="43.65458" lon="2.33436">
        <ele>351.6</ele>
        <time>2025-09-16T13:14:29Z</time>
      </trkpt>
      <trkpt lat="43.65459" lon="2.33437">
        <ele>351.6</ele>
        <time>2025-09-16T13:14:30Z</time>
      </trkpt>
      <trkpt lat="43.65459" lon="2.33439">
        <ele>351.8</ele>
        <time>2025-09-16T13:14:31Z</time>
      </trkpt>
      <trkpt lat="43.6546" lon="2.3344">
        <ele>352</ele>
        <time>2025-09-16T13:14:32Z</time>
      </trkpt>
      <trkpt lat="43.65461" lon="2.33441">
        <ele>352.2</ele>
        <time>2025-09-16T13:14:33Z</time>
      </trkpt>
      <trkpt lat="43.65462" lon="2.33443">
        <ele>352.4</ele>
        <time>2025-09-16T13:14:34Z</time>
      </trkpt>
      <trkpt lat="43.65463" lon="2.33444">
        <ele>352.4</ele>
        <time>2025-09-16T13:14:35Z</time>
      </trkpt>
      <trkpt lat="43.65464" lon="2.33445">
        <ele>352.6</ele>
        <time>2025-09-16T13:14:36Z</time>
      </trkpt>
      <trkpt lat="43.65465" lon="2.33446">
        <ele>352.8</ele>
        <time>2025-09-16T13:14:37Z</time>
      </trkpt>
      <trkpt lat="43.65467" lon="2.33447">
        <ele>353</ele>
        <time>2025-09-16T13:14:38Z</time>
      </trkpt>
      <trkpt lat="43.65468" lon="2.33449">
        <ele>353</ele>
        <time>2025-09-16T13:14:39Z</time>
      </trkpt>
      <trkpt lat="43.65469" lon="2.3345">
        <ele>353.2</ele>
        <time>2025-09-16T13:14:40Z</time>
      </trkpt>
      <trkpt lat="43.65469" lon="2.33451">
        <ele>353.2</ele>
        <time>2025-09-16T13:14:41Z</time>
      </trkpt>
      <trkpt lat="43.6547" lon="2.33452">
        <ele>353.4</ele>
        <time>2025-09-16T13:14:42Z</time>
      </trkpt>
      <trkpt lat="43.65472" lon="2.33453">
        <ele>353.4</ele>
        <time>2025-09-16T13:14:43Z</time>
      </trkpt>
      <trkpt lat="43.65472" lon="2.33454">
        <ele>353.6</ele>
        <time>2025-09-16T13:14:44Z</time>
      </trkpt>
      <trkpt lat="43.65474" lon="2.33455">
        <ele>353.8</ele>
        <time>2025-09-16T13:14:45Z</time>
      </trkpt>
      <trkpt lat="43.65475" lon="2.33456">
        <ele>353.8</ele>
        <time>2025-09-16T13:14:46Z</time>
      </trkpt>
      <trkpt lat="43.65476" lon="2.33456">
        <ele>354</ele>
        <time>2025-09-16T13:14:47Z</time>
      </trkpt>
      <trkpt lat="43.65477" lon="2.33457">
        <ele>354</ele>
        <time>2025-09-16T13:14:48Z</time>
      </trkpt>
      <trkpt lat="43.65478" lon="2.33457">
        <ele>354.2</ele>
        <time>2025-09-16T13:14:49Z</time>
      </trkpt>
      <trkpt lat="43.6548" lon="2.33458">
        <ele>354.4</ele>
        <time>2025-09-16T13:14:50Z</time>
      </trkpt>
      <trkpt lat="43.65481" lon="2.33458">
        <ele>354.6</ele>
        <time>2025-09-16T13:14:51Z</time>
      </trkpt>
      <trkpt lat="43.65482" lon="2.33459">
        <ele>354.6</ele>
        <time>2025-09-16T13:14:52Z</time>
      </trkpt>
      <trkpt lat="43.65484" lon="2.3346">
        <ele>354.8</ele>
        <time>2025-09-16T13:14:53Z</time>
      </trkpt>
      <trkpt lat="43.65485" lon="2.33461">
        <ele>354.8</ele>
        <time>2025-09-16T13:14:54Z</time>
      </trkpt>
      <trkpt lat="43.65486" lon="2.33461">
        <ele>355</ele>
        <time>2025-09-16T13:14:55Z</time>
      </trkpt>
      <trkpt lat="43.65488" lon="2.33462">
        <ele>355</ele>
        <time>2025-09-16T13:14:56Z</time>
      </trkpt>
      <trkpt lat="43.65488" lon="2.33463">
        <ele>355.2</ele>
        <time>2025-09-16T13:14:57Z</time>
      </trkpt>
      <trkpt lat="43.65489" lon="2.33463">
        <ele>355.4</ele>
        <time>2025-09-16T13:14:58Z</time>
      </trkpt>
      <trkpt lat="43.65491" lon="2.33464">
        <ele>355.4</ele>
        <time>2025-09-16T13:14:59Z</time>
      </trkpt>
      <trkpt lat="43.65492" lon="2.33465">
        <ele>355.6</ele>
        <time>2025-09-16T13:15:00Z</time>
      </trkpt>
      <trkpt lat="43.65493" lon="2.33466">
        <ele>355.6</ele>
        <time>2025-09-16T13:15:01Z</time>
      </trkpt>
      <trkpt lat="43.65494" lon="2.33467">
        <ele>355.8</ele>
        <time>2025-09-16T13:15:02Z</time>
      </trkpt>
      <trkpt lat="43.65496" lon="2.33468">
        <ele>355.8</ele>
        <time>2025-09-16T13:15:03Z</time>
      </trkpt>
      <trkpt lat="43.65497" lon="2.33469">
        <ele>356</ele>
        <time>2025-09-16T13:15:04Z</time>
      </trkpt>
      <trkpt lat="43.65497" lon="2.33469">
        <ele>356</ele>
        <time>2025-09-16T13:15:05Z</time>
      </trkpt>
      <trkpt lat="43.65498" lon="2.33469">
        <ele>356.2</ele>
        <time>2025-09-16T13:15:06Z</time>
      </trkpt>
      <trkpt lat="43.65499" lon="2.3347">
        <ele>356.4</ele>
        <time>2025-09-16T13:15:07Z</time>
      </trkpt>
      <trkpt lat="43.655" lon="2.33471">
        <ele>356.6</ele>
        <time>2025-09-16T13:15:08Z</time>
      </trkpt>
      <trkpt lat="43.65501" lon="2.33471">
        <ele>356.8</ele>
        <time>2025-09-16T13:15:09Z</time>
      </trkpt>
      <trkpt lat="43.65502" lon="2.33472">
        <ele>356.8</ele>
        <time>2025-09-16T13:15:10Z</time>
      </trkpt>
      <trkpt lat="43.65504" lon="2.33473">
        <ele>357</ele>
        <time>2025-09-16T13:15:11Z</time>
      </trkpt>
      <trkpt lat="43.65505" lon="2.33473">
        <ele>357.2</ele>
        <time>2025-09-16T13:15:12Z</time>
      </trkpt>
      <trkpt lat="43.65506" lon="2.33474">
        <ele>357.4</ele>
        <time>2025-09-16T13:15:13Z</time>
      </trkpt>
      <trkpt lat="43.65508" lon="2.33476">
        <ele>357.6</ele>
        <time>2025-09-16T13:15:14Z</time>
      </trkpt>
      <trkpt lat="43.65509" lon="2.33477">
        <ele>357.6</ele>
        <time>2025-09-16T13:15:15Z</time>
      </trkpt>
      <trkpt lat="43.6551" lon="2.33478">
        <ele>357.8</ele>
        <time>2025-09-16T13:15:16Z</time>
      </trkpt>
      <trkpt lat="43.65511" lon="2.33478">
        <ele>358</ele>
        <time>2025-09-16T13:15:17Z</time>
      </trkpt>
      <trkpt lat="43.65512" lon="2.33478">
        <ele>358</ele>
        <time>2025-09-16T13:15:18Z</time>
      </trkpt>
      <trkpt lat="43.65514" lon="2.33479">
        <ele>358.2</ele>
        <time>2025-09-16T13:15:19Z</time>
      </trkpt>
      <trkpt lat="43.65515" lon="2.3348">
        <ele>358.4</ele>
        <time>2025-09-16T13:15:20Z</time>
      </trkpt>
      <trkpt lat="43.65517" lon="2.33481">
        <ele>358.6</ele>
        <time>2025-09-16T13:15:21Z</time>
      </trkpt>
      <trkpt lat="43.65518" lon="2.33481">
        <ele>358.6</ele>
        <time>2025-09-16T13:15:22Z</time>
      </trkpt>
      <trkpt lat="43.65519" lon="2.33482">
        <ele>358.8</ele>
        <time>2025-09-16T13:15:23Z</time>
      </trkpt>
      <trkpt lat="43.65521" lon="2.33483">
        <ele>358.8</ele>
        <time>2025-09-16T13:15:24Z</time>
      </trkpt>
      <trkpt lat="43.65522" lon="2.33483">
        <ele>359</ele>
        <time>2025-09-16T13:15:25Z</time>
      </trkpt>
      <trkpt lat="43.65523" lon="2.33484">
        <ele>359.2</ele>
        <time>2025-09-16T13:15:26Z</time>
      </trkpt>
      <trkpt lat="43.65524" lon="2.33484">
        <ele>359.2</ele>
        <time>2025-09-16T13:15:27Z</time>
      </trkpt>
      <trkpt lat="43.65526" lon="2.33485">
        <ele>359.4</ele>
        <time>2025-09-16T13:15:28Z</time>
      </trkpt>
      <trkpt lat="43.65527" lon="2.33485">
        <ele>359.6</ele>
        <time>2025-09-16T13:15:29Z</time>
      </trkpt>
      <trkpt lat="43.65529" lon="2.33485">
        <ele>359.6</ele>
        <time>2025-09-16T13:15:30Z</time>
      </trkpt>
      <trkpt lat="43.6553" lon="2.33486">
        <ele>359.8</ele>
        <time>2025-09-16T13:15:31Z</time>
      </trkpt>
      <trkpt lat="43.65532" lon="2.33486">
        <ele>359.8</ele>
        <time>2025-09-16T13:15:32Z</time>
      </trkpt>
      <trkpt lat="43.65533" lon="2.33487">
        <ele>360</ele>
        <time>2025-09-16T13:15:33Z</time>
      </trkpt>
      <trkpt lat="43.65534" lon="2.33487">
        <ele>360.2</ele>
        <time>2025-09-16T13:15:34Z</time>
      </trkpt>
      <trkpt lat="43.65535" lon="2.33487">
        <ele>360.2</ele>
        <time>2025-09-16T13:15:35Z</time>
      </trkpt>
      <trkpt lat="43.65536" lon="2.33487">
        <ele>360.4</ele>
        <time>2025-09-16T13:15:36Z</time>
      </trkpt>
      <trkpt lat="43.65538" lon="2.33488">
        <ele>360.6</ele>
        <time>2025-09-16T13:15:37Z</time>
      </trkpt>
      <trkpt lat="43.65539" lon="2.33488">
        <ele>360.8</ele>
        <time>2025-09-16T13:15:38Z</time>
      </trkpt>
      <trkpt lat="43.65541" lon="2.33489">
        <ele>360.8</ele>
        <time>2025-09-16T13:15:39Z</time>
      </trkpt>
      <trkpt lat="43.65543" lon="2.33489">
        <ele>361</ele>
        <time>2025-09-16T13:15:40Z</time>
      </trkpt>
      <trkpt lat="43.65543" lon="2.3349">
        <ele>361.2</ele>
        <time>2025-09-16T13:15:41Z</time>
      </trkpt>
      <trkpt lat="43.65544" lon="2.3349">
        <ele>361.4</ele>
        <time>2025-09-16T13:15:42Z</time>
      </trkpt>
      <trkpt lat="43.65546" lon="2.3349">
        <ele>361.6</ele>
        <time>2025-09-16T13:15:43Z</time>
      </trkpt>
      <trkpt lat="43.65546" lon="2.33491">
        <ele>361.6</ele>
        <time>2025-09-16T13:15:44Z</time>
      </trkpt>
      <trkpt lat="43.65548" lon="2.33492">
        <ele>361.8</ele>
        <time>2025-09-16T13:15:45Z</time>
      </trkpt>
      <trkpt lat="43.6555" lon="2.33492">
        <ele>362</ele>
        <time>2025-09-16T13:15:46Z</time>
      </trkpt>
      <trkpt lat="43.65551" lon="2.33493">
        <ele>362</ele>
        <time>2025-09-16T13:15:47Z</time>
      </trkpt>
      <trkpt lat="43.65552" lon="2.33493">
        <ele>362.2</ele>
        <time>2025-09-16T13:15:48Z</time>
      </trkpt>
      <trkpt lat="43.65553" lon="2.33494">
        <ele>362.4</ele>
        <time>2025-09-16T13:15:49Z</time>
      </trkpt>
      <trkpt lat="43.65554" lon="2.33495">
        <ele>362.6</ele>
        <time>2025-09-16T13:15:50Z</time>
      </trkpt>
      <trkpt lat="43.65555" lon="2.33495">
        <ele>362.8</ele>
        <time>2025-09-16T13:15:51Z</time>
      </trkpt>
      <trkpt lat="43.65556" lon="2.33496">
        <ele>362.8</ele>
        <time>2025-09-16T13:15:52Z</time>
      </trkpt>
      <trkpt lat="43.65557" lon="2.33497">
        <ele>363</ele>
        <time>2025-09-16T13:15:53Z</time>
      </trkpt>
      <trkpt lat="43.65558" lon="2.33498">
        <ele>363.2</ele>
        <time>2025-09-16T13:15:54Z</time>
      </trkpt>
      <trkpt lat="43.6556" lon="2.33499">
        <ele>363.4</ele>
        <time>2025-09-16T13:15:55Z</time>
      </trkpt>
      <trkpt lat="43.6556" lon="2.335">
        <ele>363.6</ele>
        <time>2025-09-16T13:15:56Z</time>
      </trkpt>
      <trkpt lat="43.65562" lon="2.33501">
        <ele>363.6</ele>
        <time>2025-09-16T13:15:57Z</time>
      </trkpt>
      <trkpt lat="43.65563" lon="2.33502">
        <ele>363.8</ele>
        <time>2025-09-16T13:15:58Z</time>
      </trkpt>
      <trkpt lat="43.65564" lon="2.33502">
        <ele>363.8</ele>
        <time>2025-09-16T13:15:59Z</time>
      </trkpt>
      <trkpt lat="43.65566" lon="2.33504">
        <ele>364</ele>
        <time>2025-09-16T13:16:00Z</time>
      </trkpt>
      <trkpt lat="43.65567" lon="2.33504">
        <ele>364.2</ele>
        <time>2025-09-16T13:16:01Z</time>
      </trkpt>
      <trkpt lat="43.65568" lon="2.33505">
        <ele>364.2</ele>
        <time>2025-09-16T13:16:02Z</time>
      </trkpt>
      <trkpt lat="43.65569" lon="2.33505">
        <ele>364.4</ele>
        <time>2025-09-16T13:16:03Z</time>
      </trkpt>
      <trkpt lat="43.65571" lon="2.33507">
        <ele>364.6</ele>
        <time>2025-09-16T13:16:04Z</time>
      </trkpt>
      <trkpt lat="43.65572" lon="2.33508">
        <ele>364.8</ele>
        <time>2025-09-16T13:16:05Z</time>
      </trkpt>
      <trkpt lat="43.65573" lon="2.33509">
        <ele>364.8</ele>
        <time>2025-09-16T13:16:06Z</time>
      </trkpt>
      <trkpt lat="43.65574" lon="2.3351">
        <ele>365</ele>
        <time>2025-09-16T13:16:07Z</time>
      </trkpt>
      <trkpt lat="43.65575" lon="2.33511">
        <ele>365.2</ele>
        <time>2025-09-16T13:16:08Z</time>
      </trkpt>
      <trkpt lat="43.65576" lon="2.33512">
        <ele>365.2</ele>
        <time>2025-09-16T13:16:09Z</time>
      </trkpt>
      <trkpt lat="43.65577" lon="2.33513">
        <ele>365.4</ele>
        <time>2025-09-16T13:16:10Z</time>
      </trkpt>
      <trkpt lat="43.65578" lon="2.33514">
        <ele>365.6</ele>
        <time>2025-09-16T13:16:11Z</time>
      </trkpt>
      <trkpt lat="43.65579" lon="2.33515">
        <ele>365.8</ele>
        <time>2025-09-16T13:16:12Z</time>
      </trkpt>
      <trkpt lat="43.65581" lon="2.33515">
        <ele>366</ele>
        <time>2025-09-16T13:16:13Z</time>
      </trkpt>
      <trkpt lat="43.65581" lon="2.33516">
        <ele>366</ele>
        <time>2025-09-16T13:16:14Z</time>
      </trkpt>
      <trkpt lat="43.65583" lon="2.33517">
        <ele>366.2</ele>
        <time>2025-09-16T13:16:15Z</time>
      </trkpt>
      <trkpt lat="43.65584" lon="2.33519">
        <ele>366.4</ele>
        <time>2025-09-16T13:16:16Z</time>
      </trkpt>
      <trkpt lat="43.65585" lon="2.3352">
        <ele>366.6</ele>
        <time>2025-09-16T13:16:17Z</time>
      </trkpt>
      <trkpt lat="43.65586" lon="2.33521">
        <ele>366.6</ele>
        <time>2025-09-16T13:16:18Z</time>
      </trkpt>
      <trkpt lat="43.65587" lon="2.33522">
        <ele>366.8</ele>
        <time>2025-09-16T13:16:19Z</time>
      </trkpt>
      <trkpt lat="43.65588" lon="2.33523">
        <ele>367</ele>
        <time>2025-09-16T13:16:20Z</time>
      </trkpt>
      <trkpt lat="43.65589" lon="2.33524">
        <ele>367.2</ele>
        <time>2025-09-16T13:16:21Z</time>
      </trkpt>
      <trkpt lat="43.6559" lon="2.33525">
        <ele>367.4</ele>
        <time>2025-09-16T13:16:22Z</time>
      </trkpt>
      <trkpt lat="43.65591" lon="2.33527">
        <ele>367.4</ele>
        <time>2025-09-16T13:16:23Z</time>
      </trkpt>
      <trkpt lat="43.65592" lon="2.33528">
        <ele>367.6</ele>
        <time>2025-09-16T13:16:24Z</time>
      </trkpt>
      <trkpt lat="43.65593" lon="2.3353">
        <ele>367.8</ele>
        <time>2025-09-16T13:16:25Z</time>
      </trkpt>
      <trkpt lat="43.65594" lon="2.33531">
        <ele>367.8</ele>
        <time>2025-09-16T13:16:26Z</time>
      </trkpt>
      <trkpt lat="43.65594" lon="2.33532">
        <ele>368</ele>
        <time>2025-09-16T13:16:27Z</time>
      </trkpt>
      <trkpt lat="43.65595" lon="2.33534">
        <ele>368.2</ele>
        <time>2025-09-16T13:16:28Z</time>
      </trkpt>
      <trkpt lat="43.65596" lon="2.33535">
        <ele>368.2</ele>
        <time>2025-09-16T13:16:29Z</time>
      </trkpt>
      <trkpt lat="43.65596" lon="2.33536">
        <ele>368.4</ele>
        <time>2025-09-16T13:16:30Z</time>
      </trkpt>
      <trkpt lat="43.65597" lon="2.33537">
        <ele>368.6</ele>
        <time>2025-09-16T13:16:31Z</time>
      </trkpt>
      <trkpt lat="43.65598" lon="2.33538">
        <ele>368.8</ele>
        <time>2025-09-16T13:16:32Z</time>
      </trkpt>
      <trkpt lat="43.65599" lon="2.33539">
        <ele>369</ele>
        <time>2025-09-16T13:16:33Z</time>
      </trkpt>
      <trkpt lat="43.65599" lon="2.33541">
        <ele>369.2</ele>
        <time>2025-09-16T13:16:34Z</time>
      </trkpt>
      <trkpt lat="43.65599" lon="2.33542">
        <ele>369.4</ele>
        <time>2025-09-16T13:16:35Z</time>
      </trkpt>
      <trkpt lat="43.656" lon="2.33543">
        <ele>369.6</ele>
        <time>2025-09-16T13:16:36Z</time>
      </trkpt>
      <trkpt lat="43.65601" lon="2.33544">
        <ele>369.8</ele>
        <time>2025-09-16T13:16:37Z</time>
      </trkpt>
      <trkpt lat="43.65602" lon="2.33546">
        <ele>370</ele>
        <time>2025-09-16T13:16:38Z</time>
      </trkpt>
      <trkpt lat="43.65603" lon="2.33547">
        <ele>370.2</ele>
        <time>2025-09-16T13:16:39Z</time>
      </trkpt>
      <trkpt lat="43.65604" lon="2.33548">
        <ele>370.2</ele>
        <time>2025-09-16T13:16:40Z</time>
      </trkpt>
      <trkpt lat="43.65605" lon="2.33549">
        <ele>370.4</ele>
        <time>2025-09-16T13:16:41Z</time>
      </trkpt>
      <trkpt lat="43.65606" lon="2.3355">
        <ele>370.6</ele>
        <time>2025-09-16T13:16:42Z</time>
      </trkpt>
      <trkpt lat="43.65607" lon="2.33551">
        <ele>370.8</ele>
        <time>2025-09-16T13:16:43Z</time>
      </trkpt>
      <trkpt lat="43.65608" lon="2.33552">
        <ele>370.8</ele>
        <time>2025-09-16T13:16:44Z</time>
      </trkpt>
      <trkpt lat="43.65609" lon="2.33554">
        <ele>371</ele>
        <time>2025-09-16T13:16:45Z</time>
      </trkpt>
      <trkpt lat="43.65611" lon="2.33555">
        <ele>371.2</ele>
        <time>2025-09-16T13:16:46Z</time>
      </trkpt>
      <trkpt lat="43.65613" lon="2.33555">
        <ele>371.4</ele>
        <time>2025-09-16T13:16:47Z</time>
      </trkpt>
      <trkpt lat="43.65614" lon="2.33556">
        <ele>371.6</ele>
        <time>2025-09-16T13:16:48Z</time>
      </trkpt>
      <trkpt lat="43.65615" lon="2.33557">
        <ele>371.8</ele>
        <time>2025-09-16T13:16:49Z</time>
      </trkpt>
      <trkpt lat="43.65616" lon="2.33558">
        <ele>371.8</ele>
        <time>2025-09-16T13:16:50Z</time>
      </trkpt>
      <trkpt lat="43.65617" lon="2.33559">
        <ele>372</ele>
        <time>2025-09-16T13:16:51Z</time>
      </trkpt>
      <trkpt lat="43.65618" lon="2.33559">
        <ele>372.2</ele>
        <time>2025-09-16T13:16:52Z</time>
      </trkpt>
      <trkpt lat="43.65619" lon="2.3356">
        <ele>372.2</ele>
        <time>2025-09-16T13:16:53Z</time>
      </trkpt>
      <trkpt lat="43.6562" lon="2.33561">
        <ele>372.4</ele>
        <time>2025-09-16T13:16:54Z</time>
      </trkpt>
      <trkpt lat="43.65622" lon="2.33563">
        <ele>372.6</ele>
        <time>2025-09-16T13:16:55Z</time>
      </trkpt>
      <trkpt lat="43.65623" lon="2.33564">
        <ele>372.8</ele>
        <time>2025-09-16T13:16:56Z</time>
      </trkpt>
      <trkpt lat="43.65624" lon="2.33565">
        <ele>372.8</ele>
        <time>2025-09-16T13:16:57Z</time>
      </trkpt>
      <trkpt lat="43.65625" lon="2.33566">
        <ele>373</ele>
        <time>2025-09-16T13:16:58Z</time>
      </trkpt>
      <trkpt lat="43.65626" lon="2.33568">
        <ele>373.2</ele>
        <time>2025-09-16T13:16:59Z</time>
      </trkpt>
      <trkpt lat="43.65627" lon="2.33569">
        <ele>373.2</ele>
        <time>2025-09-16T13:17:00Z</time>
      </trkpt>
      <trkpt lat="43.65628" lon="2.3357">
        <ele>373.4</ele>
        <time>2025-09-16T13:17:01Z</time>
      </trkpt>
      <trkpt lat="43.65629" lon="2.33572">
        <ele>373.6</ele>
        <time>2025-09-16T13:17:02Z</time>
      </trkpt>
      <trkpt lat="43.6563" lon="2.33573">
        <ele>373.8</ele>
        <time>2025-09-16T13:17:03Z</time>
      </trkpt>
      <trkpt lat="43.65631" lon="2.33574">
        <ele>373.8</ele>
        <time>2025-09-16T13:17:04Z</time>
      </trkpt>
      <trkpt lat="43.65632" lon="2.33574">
        <ele>374</ele>
        <time>2025-09-16T13:17:05Z</time>
      </trkpt>
      <trkpt lat="43.65632" lon="2.33575">
        <ele>374.2</ele>
        <time>2025-09-16T13:17:06Z</time>
      </trkpt>
      <trkpt lat="43.65632" lon="2.33576">
        <ele>374.2</ele>
        <time>2025-09-16T13:17:07Z</time>
      </trkpt>
      <trkpt lat="43.65633" lon="2.33577">
        <ele>374.4</ele>
        <time>2025-09-16T13:17:08Z</time>
      </trkpt>
      <trkpt lat="43.65635" lon="2.33577">
        <ele>374.6</ele>
        <time>2025-09-16T13:17:09Z</time>
      </trkpt>
      <trkpt lat="43.65636" lon="2.33578">
        <ele>374.6</ele>
        <time>2025-09-16T13:17:10Z</time>
      </trkpt>
      <trkpt lat="43.65637" lon="2.33579">
        <ele>374.8</ele>
        <time>2025-09-16T13:17:11Z</time>
      </trkpt>
      <trkpt lat="43.65638" lon="2.3358">
        <ele>374.8</ele>
        <time>2025-09-16T13:17:12Z</time>
      </trkpt>
      <trkpt lat="43.65639" lon="2.33581">
        <ele>375</ele>
        <time>2025-09-16T13:17:13Z</time>
      </trkpt>
      <trkpt lat="43.6564" lon="2.33581">
        <ele>375.2</ele>
        <time>2025-09-16T13:17:14Z</time>
      </trkpt>
      <trkpt lat="43.6564" lon="2.33582">
        <ele>375.2</ele>
        <time>2025-09-16T13:17:15Z</time>
      </trkpt>
      <trkpt lat="43.65641" lon="2.33582">
        <ele>375.4</ele>
        <time>2025-09-16T13:17:16Z</time>
      </trkpt>
      <trkpt lat="43.65642" lon="2.33583">
        <ele>375.6</ele>
        <time>2025-09-16T13:17:17Z</time>
      </trkpt>
      <trkpt lat="43.65644" lon="2.33585">
        <ele>375.6</ele>
        <time>2025-09-16T13:17:18Z</time>
      </trkpt>
      <trkpt lat="43.65645" lon="2.33585">
        <ele>375.8</ele>
        <time>2025-09-16T13:17:19Z</time>
      </trkpt>
      <trkpt lat="43.65645" lon="2.33586">
        <ele>375.8</ele>
        <time>2025-09-16T13:17:20Z</time>
      </trkpt>
      <trkpt lat="43.65646" lon="2.33588">
        <ele>376</ele>
        <time>2025-09-16T13:17:21Z</time>
      </trkpt>
      <trkpt lat="43.65648" lon="2.33589">
        <ele>376</ele>
        <time>2025-09-16T13:17:22Z</time>
      </trkpt>
      <trkpt lat="43.65649" lon="2.3359">
        <ele>376.2</ele>
        <time>2025-09-16T13:17:23Z</time>
      </trkpt>
      <trkpt lat="43.65651" lon="2.3359">
        <ele>376.4</ele>
        <time>2025-09-16T13:17:24Z</time>
      </trkpt>
      <trkpt lat="43.65652" lon="2.33591">
        <ele>376.4</ele>
        <time>2025-09-16T13:17:25Z</time>
      </trkpt>
      <trkpt lat="43.65654" lon="2.33592">
        <ele>376.6</ele>
        <time>2025-09-16T13:17:26Z</time>
      </trkpt>
      <trkpt lat="43.65655" lon="2.33593">
        <ele>376.8</ele>
        <time>2025-09-16T13:17:27Z</time>
      </trkpt>
      <trkpt lat="43.65656" lon="2.33594">
        <ele>376.8</ele>
        <time>2025-09-16T13:17:28Z</time>
      </trkpt>
      <trkpt lat="43.65657" lon="2.33595">
        <ele>377</ele>
        <time>2025-09-16T13:17:29Z</time>
      </trkpt>
      <trkpt lat="43.65659" lon="2.33596">
        <ele>377.2</ele>
        <time>2025-09-16T13:17:30Z</time>
      </trkpt>
      <trkpt lat="43.6566" lon="2.33596">
        <ele>377.4</ele>
        <time>2025-09-16T13:17:31Z</time>
      </trkpt>
      <trkpt lat="43.65661" lon="2.33597">
        <ele>377.4</ele>
        <time>2025-09-16T13:17:32Z</time>
      </trkpt>
      <trkpt lat="43.65663" lon="2.33598">
        <ele>377.6</ele>
        <time>2025-09-16T13:17:33Z</time>
      </trkpt>
      <trkpt lat="43.65664" lon="2.33599">
        <ele>377.8</ele>
        <time>2025-09-16T13:17:34Z</time>
      </trkpt>
      <trkpt lat="43.65665" lon="2.336">
        <ele>378</ele>
        <time>2025-09-16T13:17:35Z</time>
      </trkpt>
      <trkpt lat="43.65666" lon="2.33601">
        <ele>378</ele>
        <time>2025-09-16T13:17:36Z</time>
      </trkpt>
      <trkpt lat="43.65666" lon="2.33602">
        <ele>378.2</ele>
        <time>2025-09-16T13:17:37Z</time>
      </trkpt>
      <trkpt lat="43.65668" lon="2.33604">
        <ele>378.4</ele>
        <time>2025-09-16T13:17:38Z</time>
      </trkpt>
      <trkpt lat="43.65669" lon="2.33605">
        <ele>378.6</ele>
        <time>2025-09-16T13:17:39Z</time>
      </trkpt>
      <trkpt lat="43.6567" lon="2.33606">
        <ele>378.6</ele>
        <time>2025-09-16T13:17:40Z</time>
      </trkpt>
      <trkpt lat="43.65671" lon="2.33607">
        <ele>378.8</ele>
        <time>2025-09-16T13:17:41Z</time>
      </trkpt>
      <trkpt lat="43.65672" lon="2.33608">
        <ele>379</ele>
        <time>2025-09-16T13:17:42Z</time>
      </trkpt>
      <trkpt lat="43.65674" lon="2.33609">
        <ele>379</ele>
        <time>2025-09-16T13:17:43Z</time>
      </trkpt>
      <trkpt lat="43.65675" lon="2.3361">
        <ele>379.2</ele>
        <time>2025-09-16T13:17:44Z</time>
      </trkpt>
      <trkpt lat="43.65676" lon="2.33611">
        <ele>379.4</ele>
        <time>2025-09-16T13:17:45Z</time>
      </trkpt>
      <trkpt lat="43.65677" lon="2.33612">
        <ele>379.6</ele>
        <time>2025-09-16T13:17:46Z</time>
      </trkpt>
      <trkpt lat="43.65678" lon="2.33612">
        <ele>379.8</ele>
        <time>2025-09-16T13:17:47Z</time>
      </trkpt>
      <trkpt lat="43.6568" lon="2.33612">
        <ele>379.8</ele>
        <time>2025-09-16T13:17:48Z</time>
      </trkpt>
      <trkpt lat="43.65681" lon="2.33613">
        <ele>380</ele>
        <time>2025-09-16T13:17:49Z</time>
      </trkpt>
      <trkpt lat="43.65682" lon="2.33613">
        <ele>380.2</ele>
        <time>2025-09-16T13:17:50Z</time>
      </trkpt>
      <trkpt lat="43.65683" lon="2.33613">
        <ele>380.4</ele>
        <time>2025-09-16T13:17:51Z</time>
      </trkpt>
      <trkpt lat="43.65684" lon="2.33614">
        <ele>380.4</ele>
        <time>2025-09-16T13:17:52Z</time>
      </trkpt>
      <trkpt lat="43.65685" lon="2.33614">
        <ele>380.6</ele>
        <time>2025-09-16T13:17:53Z</time>
      </trkpt>
      <trkpt lat="43.65686" lon="2.33614">
        <ele>380.8</ele>
        <time>2025-09-16T13:17:54Z</time>
      </trkpt>
      <trkpt lat="43.65688" lon="2.33614">
        <ele>381</ele>
        <time>2025-09-16T13:17:55Z</time>
      </trkpt>
      <trkpt lat="43.65689" lon="2.33613">
        <ele>381</ele>
        <time>2025-09-16T13:17:56Z</time>
      </trkpt>
      <trkpt lat="43.6569" lon="2.33613">
        <ele>381.2</ele>
        <time>2025-09-16T13:17:57Z</time>
      </trkpt>
      <trkpt lat="43.65691" lon="2.33613">
        <ele>381.2</ele>
        <time>2025-09-16T13:17:58Z</time>
      </trkpt>
      <trkpt lat="43.65692" lon="2.33613">
        <ele>381.4</ele>
        <time>2025-09-16T13:17:59Z</time>
      </trkpt>
      <trkpt lat="43.65693" lon="2.33613">
        <ele>381.6</ele>
        <time>2025-09-16T13:18:00Z</time>
      </trkpt>
      <trkpt lat="43.65694" lon="2.33613">
        <ele>381.8</ele>
        <time>2025-09-16T13:18:01Z</time>
      </trkpt>
      <trkpt lat="43.65695" lon="2.33614">
        <ele>381.8</ele>
        <time>2025-09-16T13:18:02Z</time>
      </trkpt>
      <trkpt lat="43.65697" lon="2.33614">
        <ele>382</ele>
        <time>2025-09-16T13:18:03Z</time>
      </trkpt>
      <trkpt lat="43.65698" lon="2.33615">
        <ele>382.2</ele>
        <time>2025-09-16T13:18:04Z</time>
      </trkpt>
      <trkpt lat="43.65699" lon="2.33615">
        <ele>382.2</ele>
        <time>2025-09-16T13:18:05Z</time>
      </trkpt>
      <trkpt lat="43.65701" lon="2.33614">
        <ele>382.4</ele>
        <time>2025-09-16T13:18:06Z</time>
      </trkpt>
      <trkpt lat="43.65702" lon="2.33614">
        <ele>382.6</ele>
        <time>2025-09-16T13:18:07Z</time>
      </trkpt>
      <trkpt lat="43.65704" lon="2.33614">
        <ele>382.6</ele>
        <time>2025-09-16T13:18:08Z</time>
      </trkpt>
      <trkpt lat="43.65705" lon="2.33613">
        <ele>382.8</ele>
        <time>2025-09-16T13:18:09Z</time>
      </trkpt>
      <trkpt lat="43.65706" lon="2.33613">
        <ele>383</ele>
        <time>2025-09-16T13:18:10Z</time>
      </trkpt>
      <trkpt lat="43.65707" lon="2.33613">
        <ele>383</ele>
        <time>2025-09-16T13:18:11Z</time>
      </trkpt>
      <trkpt lat="43.65709" lon="2.33613">
        <ele>383.2</ele>
        <time>2025-09-16T13:18:12Z</time>
      </trkpt>
      <trkpt lat="43.6571" lon="2.33613">
        <ele>383.4</ele>
        <time>2025-09-16T13:18:13Z</time>
      </trkpt>
      <trkpt lat="43.65711" lon="2.33613">
        <ele>383.4</ele>
        <time>2025-09-16T13:18:14Z</time>
      </trkpt>
      <trkpt lat="43.65712" lon="2.33613">
        <ele>383.6</ele>
        <time>2025-09-16T13:18:15Z</time>
      </trkpt>
      <trkpt lat="43.65713" lon="2.33613">
        <ele>383.6</ele>
        <time>2025-09-16T13:18:16Z</time>
      </trkpt>
      <trkpt lat="43.65714" lon="2.33613">
        <ele>383.8</ele>
        <time>2025-09-16T13:18:17Z</time>
      </trkpt>
      <trkpt lat="43.65715" lon="2.33613">
        <ele>384</ele>
        <time>2025-09-16T13:18:18Z</time>
      </trkpt>
      <trkpt lat="43.65717" lon="2.33613">
        <ele>384</ele>
        <time>2025-09-16T13:18:19Z</time>
      </trkpt>
      <trkpt lat="43.65718" lon="2.33613">
        <ele>384.2</ele>
        <time>2025-09-16T13:18:20Z</time>
      </trkpt>
      <trkpt lat="43.6572" lon="2.33614">
        <ele>384.4</ele>
        <time>2025-09-16T13:18:21Z</time>
      </trkpt>
      <trkpt lat="43.65721" lon="2.33614">
        <ele>384.4</ele>
        <time>2025-09-16T13:18:22Z</time>
      </trkpt>
      <trkpt lat="43.65723" lon="2.33614">
        <ele>384.6</ele>
        <time>2025-09-16T13:18:23Z</time>
      </trkpt>
      <trkpt lat="43.65724" lon="2.33614">
        <ele>384.8</ele>
        <time>2025-09-16T13:18:24Z</time>
      </trkpt>
      <trkpt lat="43.65726" lon="2.33613">
        <ele>385</ele>
        <time>2025-09-16T13:18:25Z</time>
      </trkpt>
      <trkpt lat="43.65727" lon="2.33613">
        <ele>385</ele>
        <time>2025-09-16T13:18:26Z</time>
      </trkpt>
      <trkpt lat="43.65729" lon="2.33614">
        <ele>385.2</ele>
        <time>2025-09-16T13:18:27Z</time>
      </trkpt>
      <trkpt lat="43.6573" lon="2.33614">
        <ele>385.4</ele>
        <time>2025-09-16T13:18:28Z</time>
      </trkpt>
      <trkpt lat="43.65731" lon="2.33615">
        <ele>385.4</ele>
        <time>2025-09-16T13:18:29Z</time>
      </trkpt>
      <trkpt lat="43.65733" lon="2.33615">
        <ele>385.6</ele>
        <time>2025-09-16T13:18:30Z</time>
      </trkpt>
      <trkpt lat="43.65734" lon="2.33616">
        <ele>385.8</ele>
        <time>2025-09-16T13:18:31Z</time>
      </trkpt>
      <trkpt lat="43.65736" lon="2.33616">
        <ele>385.8</ele>
        <time>2025-09-16T13:18:32Z</time>
      </trkpt>
      <trkpt lat="43.65737" lon="2.33616">
        <ele>386</ele>
        <time>2025-09-16T13:18:33Z</time>
      </trkpt>
      <trkpt lat="43.65739" lon="2.33615">
        <ele>386.2</ele>
        <time>2025-09-16T13:18:34Z</time>
      </trkpt>
      <trkpt lat="43.6574" lon="2.33615">
        <ele>386.2</ele>
        <time>2025-09-16T13:18:35Z</time>
      </trkpt>
      <trkpt lat="43.65742" lon="2.33615">
        <ele>386.4</ele>
        <time>2025-09-16T13:18:36Z</time>
      </trkpt>
      <trkpt lat="43.65744" lon="2.33615">
        <ele>386.6</ele>
        <time>2025-09-16T13:18:37Z</time>
      </trkpt>
      <trkpt lat="43.65745" lon="2.33614">
        <ele>386.6</ele>
        <time>2025-09-16T13:18:38Z</time>
      </trkpt>
      <trkpt lat="43.65747" lon="2.33614">
        <ele>386.8</ele>
        <time>2025-09-16T13:18:39Z</time>
      </trkpt>
      <trkpt lat="43.65748" lon="2.33614">
        <ele>387</ele>
        <time>2025-09-16T13:18:40Z</time>
      </trkpt>
      <trkpt lat="43.6575" lon="2.33614">
        <ele>387.2</ele>
        <time>2025-09-16T13:18:41Z</time>
      </trkpt>
      <trkpt lat="43.65751" lon="2.33614">
        <ele>387.2</ele>
        <time>2025-09-16T13:18:42Z</time>
      </trkpt>
      <trkpt lat="43.65752" lon="2.33614">
        <ele>387.4</ele>
        <time>2025-09-16T13:18:43Z</time>
      </trkpt>
      <trkpt lat="43.65753" lon="2.33615">
        <ele>387.6</ele>
        <time>2025-09-16T13:18:44Z</time>
      </trkpt>
      <trkpt lat="43.65754" lon="2.33614">
        <ele>387.6</ele>
        <time>2025-09-16T13:18:45Z</time>
      </trkpt>
      <trkpt lat="43.65756" lon="2.33615">
        <ele>387.8</ele>
        <time>2025-09-16T13:18:46Z</time>
      </trkpt>
      <trkpt lat="43.65757" lon="2.33615">
        <ele>388</ele>
        <time>2025-09-16T13:18:47Z</time>
      </trkpt>
      <trkpt lat="43.65758" lon="2.33615">
        <ele>388.2</ele>
        <time>2025-09-16T13:18:48Z</time>
      </trkpt>
      <trkpt lat="43.6576" lon="2.33615">
        <ele>388.4</ele>
        <time>2025-09-16T13:18:49Z</time>
      </trkpt>
      <trkpt lat="43.65762" lon="2.33616">
        <ele>388.4</ele>
        <time>2025-09-16T13:18:50Z</time>
      </trkpt>
      <trkpt lat="43.65763" lon="2.33616">
        <ele>388.6</ele>
        <time>2025-09-16T13:18:51Z</time>
      </trkpt>
      <trkpt lat="43.65764" lon="2.33617">
        <ele>388.8</ele>
        <time>2025-09-16T13:18:52Z</time>
      </trkpt>
      <trkpt lat="43.65765" lon="2.33617">
        <ele>388.8</ele>
        <time>2025-09-16T13:18:53Z</time>
      </trkpt>
      <trkpt lat="43.65766" lon="2.33618">
        <ele>389</ele>
        <time>2025-09-16T13:18:54Z</time>
      </trkpt>
      <trkpt lat="43.65768" lon="2.33618">
        <ele>389</ele>
        <time>2025-09-16T13:18:55Z</time>
      </trkpt>
      <trkpt lat="43.65769" lon="2.33619">
        <ele>389.2</ele>
        <time>2025-09-16T13:18:56Z</time>
      </trkpt>
      <trkpt lat="43.65771" lon="2.33619">
        <ele>389.4</ele>
        <time>2025-09-16T13:18:57Z</time>
      </trkpt>
      <trkpt lat="43.65772" lon="2.33619">
        <ele>389.6</ele>
        <time>2025-09-16T13:18:58Z</time>
      </trkpt>
      <trkpt lat="43.65774" lon="2.33619">
        <ele>389.6</ele>
        <time>2025-09-16T13:18:59Z</time>
      </trkpt>
      <trkpt lat="43.65775" lon="2.3362">
        <ele>389.8</ele>
        <time>2025-09-16T13:19:00Z</time>
      </trkpt>
      <trkpt lat="43.65777" lon="2.3362">
        <ele>389.8</ele>
        <time>2025-09-16T13:19:01Z</time>
      </trkpt>
      <trkpt lat="43.65778" lon="2.3362">
        <ele>390</ele>
        <time>2025-09-16T13:19:02Z</time>
      </trkpt>
      <trkpt lat="43.65779" lon="2.33621">
        <ele>390.2</ele>
        <time>2025-09-16T13:19:03Z</time>
      </trkpt>
      <trkpt lat="43.6578" lon="2.33621">
        <ele>390.2</ele>
        <time>2025-09-16T13:19:04Z</time>
      </trkpt>
      <trkpt lat="43.65781" lon="2.33621">
        <ele>390.4</ele>
        <time>2025-09-16T13:19:05Z</time>
      </trkpt>
      <trkpt lat="43.65782" lon="2.33621">
        <ele>390.6</ele>
        <time>2025-09-16T13:19:06Z</time>
      </trkpt>
      <trkpt lat="43.65784" lon="2.33621">
        <ele>390.6</ele>
        <time>2025-09-16T13:19:07Z</time>
      </trkpt>
      <trkpt lat="43.65785" lon="2.33621">
        <ele>390.8</ele>
        <time>2025-09-16T13:19:08Z</time>
      </trkpt>
      <trkpt lat="43.65786" lon="2.33621">
        <ele>391</ele>
        <time>2025-09-16T13:19:09Z</time>
      </trkpt>
      <trkpt lat="43.65787" lon="2.33621">
        <ele>391.2</ele>
        <time>2025-09-16T13:19:10Z</time>
      </trkpt>
      <trkpt lat="43.65788" lon="2.33621">
        <ele>391.2</ele>
        <time>2025-09-16T13:19:11Z</time>
      </trkpt>
      <trkpt lat="43.6579" lon="2.33621">
        <ele>391.4</ele>
        <time>2025-09-16T13:19:12Z</time>
      </trkpt>
      <trkpt lat="43.65791" lon="2.33622">
        <ele>391.6</ele>
        <time>2025-09-16T13:19:13Z</time>
      </trkpt>
      <trkpt lat="43.65792" lon="2.33622">
        <ele>391.8</ele>
        <time>2025-09-16T13:19:14Z</time>
      </trkpt>
      <trkpt lat="43.65794" lon="2.33622">
        <ele>392</ele>
        <time>2025-09-16T13:19:15Z</time>
      </trkpt>
      <trkpt lat="43.65794" lon="2.33621">
        <ele>392</ele>
        <time>2025-09-16T13:19:16Z</time>
      </trkpt>
      <trkpt lat="43.65796" lon="2.33621">
        <ele>392.2</ele>
        <time>2025-09-16T13:19:17Z</time>
      </trkpt>
      <trkpt lat="43.65797" lon="2.33621">
        <ele>392.4</ele>
        <time>2025-09-16T13:19:18Z</time>
      </trkpt>
      <trkpt lat="43.65798" lon="2.33621">
        <ele>392.4</ele>
        <time>2025-09-16T13:19:19Z</time>
      </trkpt>
      <trkpt lat="43.65799" lon="2.33621">
        <ele>392.6</ele>
        <time>2025-09-16T13:19:20Z</time>
      </trkpt>
      <trkpt lat="43.658" lon="2.33621">
        <ele>392.8</ele>
        <time>2025-09-16T13:19:21Z</time>
      </trkpt>
      <trkpt lat="43.65802" lon="2.33621">
        <ele>393</ele>
        <time>2025-09-16T13:19:22Z</time>
      </trkpt>
      <trkpt lat="43.65803" lon="2.33621">
        <ele>393</ele>
        <time>2025-09-16T13:19:23Z</time>
      </trkpt>
      <trkpt lat="43.65804" lon="2.33621">
        <ele>393.2</ele>
        <time>2025-09-16T13:19:24Z</time>
      </trkpt>
      <trkpt lat="43.65805" lon="2.3362">
        <ele>393.4</ele>
        <time>2025-09-16T13:19:25Z</time>
      </trkpt>
      <trkpt lat="43.65807" lon="2.3362">
        <ele>393.4</ele>
        <time>2025-09-16T13:19:26Z</time>
      </trkpt>
      <trkpt lat="43.65808" lon="2.3362">
        <ele>393.6</ele>
        <time>2025-09-16T13:19:27Z</time>
      </trkpt>
      <trkpt lat="43.65809" lon="2.3362">
        <ele>393.8</ele>
        <time>2025-09-16T13:19:28Z</time>
      </trkpt>
      <trkpt lat="43.65811" lon="2.33619">
        <ele>393.8</ele>
        <time>2025-09-16T13:19:29Z</time>
      </trkpt>
      <trkpt lat="43.65812" lon="2.33619">
        <ele>394</ele>
        <time>2025-09-16T13:19:30Z</time>
      </trkpt>
      <trkpt lat="43.65813" lon="2.3362">
        <ele>394</ele>
        <time>2025-09-16T13:19:31Z</time>
      </trkpt>
      <trkpt lat="43.65815" lon="2.3362">
        <ele>394.2</ele>
        <time>2025-09-16T13:19:32Z</time>
      </trkpt>
      <trkpt lat="43.65817" lon="2.33619">
        <ele>394.4</ele>
        <time>2025-09-16T13:19:33Z</time>
      </trkpt>
      <trkpt lat="43.65818" lon="2.33619">
        <ele>394.6</ele>
        <time>2025-09-16T13:19:34Z</time>
      </trkpt>
      <trkpt lat="43.65819" lon="2.3362">
        <ele>394.6</ele>
        <time>2025-09-16T13:19:35Z</time>
      </trkpt>
      <trkpt lat="43.6582" lon="2.3362">
        <ele>394.8</ele>
        <time>2025-09-16T13:19:36Z</time>
      </trkpt>
      <trkpt lat="43.65821" lon="2.3362">
        <ele>395</ele>
        <time>2025-09-16T13:19:37Z</time>
      </trkpt>
      <trkpt lat="43.65823" lon="2.33621">
        <ele>395</ele>
        <time>2025-09-16T13:19:38Z</time>
      </trkpt>
      <trkpt lat="43.65824" lon="2.33622">
        <ele>395.2</ele>
        <time>2025-09-16T13:19:39Z</time>
      </trkpt>
      <trkpt lat="43.65825" lon="2.33622">
        <ele>395.2</ele>
        <time>2025-09-16T13:19:40Z</time>
      </trkpt>
      <trkpt lat="43.65826" lon="2.33621">
        <ele>395.4</ele>
        <time>2025-09-16T13:19:41Z</time>
      </trkpt>
      <trkpt lat="43.65827" lon="2.33621">
        <ele>395.6</ele>
        <time>2025-09-16T13:19:42Z</time>
      </trkpt>
      <trkpt lat="43.65828" lon="2.33622">
        <ele>395.6</ele>
        <time>2025-09-16T13:19:43Z</time>
      </trkpt>
      <trkpt lat="43.65829" lon="2.33622">
        <ele>395.8</ele>
        <time>2025-09-16T13:19:44Z</time>
      </trkpt>
      <trkpt lat="43.65831" lon="2.33622">
        <ele>395.8</ele>
        <time>2025-09-16T13:19:45Z</time>
      </trkpt>
      <trkpt lat="43.65832" lon="2.33622">
        <ele>396</ele>
        <time>2025-09-16T13:19:46Z</time>
      </trkpt>
      <trkpt lat="43.65833" lon="2.33622">
        <ele>396</ele>
        <time>2025-09-16T13:19:47Z</time>
      </trkpt>
      <trkpt lat="43.65835" lon="2.33622">
        <ele>396.2</ele>
        <time>2025-09-16T13:19:48Z</time>
      </trkpt>
      <trkpt lat="43.65836" lon="2.33623">
        <ele>396.4</ele>
        <time>2025-09-16T13:19:49Z</time>
      </trkpt>
      <trkpt lat="43.65837" lon="2.33623">
        <ele>396.6</ele>
        <time>2025-09-16T13:19:50Z</time>
      </trkpt>
      <trkpt lat="43.65838" lon="2.33623">
        <ele>396.6</ele>
        <time>2025-09-16T13:19:51Z</time>
      </trkpt>
      <trkpt lat="43.65839" lon="2.33623">
        <ele>396.8</ele>
        <time>2025-09-16T13:19:52Z</time>
      </trkpt>
      <trkpt lat="43.6584" lon="2.33624">
        <ele>397</ele>
        <time>2025-09-16T13:19:53Z</time>
      </trkpt>
      <trkpt lat="43.65841" lon="2.33624">
        <ele>397</ele>
        <time>2025-09-16T13:19:54Z</time>
      </trkpt>
      <trkpt lat="43.65842" lon="2.33624">
        <ele>397.2</ele>
        <time>2025-09-16T13:19:55Z</time>
      </trkpt>
      <trkpt lat="43.65843" lon="2.33624">
        <ele>397.4</ele>
        <time>2025-09-16T13:19:56Z</time>
      </trkpt>
      <trkpt lat="43.65844" lon="2.33625">
        <ele>397.4</ele>
        <time>2025-09-16T13:19:57Z</time>
      </trkpt>
      <trkpt lat="43.65845" lon="2.33624">
        <ele>397.6</ele>
        <time>2025-09-16T13:19:58Z</time>
      </trkpt>
      <trkpt lat="43.65846" lon="2.33625">
        <ele>397.6</ele>
        <time>2025-09-16T13:19:59Z</time>
      </trkpt>
      <trkpt lat="43.65848" lon="2.33626">
        <ele>397.8</ele>
        <time>2025-09-16T13:20:00Z</time>
      </trkpt>
      <trkpt lat="43.65849" lon="2.33626">
        <ele>397.8</ele>
        <time>2025-09-16T13:20:01Z</time>
      </trkpt>
      <trkpt lat="43.6585" lon="2.33626">
        <ele>398</ele>
        <time>2025-09-16T13:20:02Z</time>
      </trkpt>
      <trkpt lat="43.65851" lon="2.33626">
        <ele>398.2</ele>
        <time>2025-09-16T13:20:03Z</time>
      </trkpt>
      <trkpt lat="43.65852" lon="2.33627">
        <ele>398.2</ele>
        <time>2025-09-16T13:20:04Z</time>
      </trkpt>
      <trkpt lat="43.65854" lon="2.33626">
        <ele>398.4</ele>
        <time>2025-09-16T13:20:05Z</time>
      </trkpt>
      <trkpt lat="43.65856" lon="2.33626">
        <ele>398.6</ele>
        <time>2025-09-16T13:20:06Z</time>
      </trkpt>
      <trkpt lat="43.65857" lon="2.33627">
        <ele>398.6</ele>
        <time>2025-09-16T13:20:07Z</time>
      </trkpt>
      <trkpt lat="43.65858" lon="2.33628">
        <ele>398.8</ele>
        <time>2025-09-16T13:20:08Z</time>
      </trkpt>
      <trkpt lat="43.65859" lon="2.33628">
        <ele>399</ele>
        <time>2025-09-16T13:20:09Z</time>
      </trkpt>
      <trkpt lat="43.65861" lon="2.33629">
        <ele>399</ele>
        <time>2025-09-16T13:20:10Z</time>
      </trkpt>
      <trkpt lat="43.65862" lon="2.33629">
        <ele>399.2</ele>
        <time>2025-09-16T13:20:11Z</time>
      </trkpt>
      <trkpt lat="43.65864" lon="2.3363">
        <ele>399.4</ele>
        <time>2025-09-16T13:20:12Z</time>
      </trkpt>
      <trkpt lat="43.65865" lon="2.3363">
        <ele>399.4</ele>
        <time>2025-09-16T13:20:13Z</time>
      </trkpt>
      <trkpt lat="43.65867" lon="2.33631">
        <ele>399.6</ele>
        <time>2025-09-16T13:20:14Z</time>
      </trkpt>
      <trkpt lat="43.65868" lon="2.33632">
        <ele>399.8</ele>
        <time>2025-09-16T13:20:15Z</time>
      </trkpt>
      <trkpt lat="43.65869" lon="2.33633">
        <ele>399.8</ele>
        <time>2025-09-16T13:20:16Z</time>
      </trkpt>
      <trkpt lat="43.6587" lon="2.33634">
        <ele>400</ele>
        <time>2025-09-16T13:20:17Z</time>
      </trkpt>
      <trkpt lat="43.65871" lon="2.33634">
        <ele>400.2</ele>
        <time>2025-09-16T13:20:18Z</time>
      </trkpt>
      <trkpt lat="43.65872" lon="2.33635">
        <ele>400.4</ele>
        <time>2025-09-16T13:20:19Z</time>
      </trkpt>
      <trkpt lat="43.65873" lon="2.33636">
        <ele>400.4</ele>
        <time>2025-09-16T13:20:20Z</time>
      </trkpt>
      <trkpt lat="43.65875" lon="2.33636">
        <ele>400.6</ele>
        <time>2025-09-16T13:20:21Z</time>
      </trkpt>
      <trkpt lat="43.65876" lon="2.33636">
        <ele>400.8</ele>
        <time>2025-09-16T13:20:22Z</time>
      </trkpt>
      <trkpt lat="43.65877" lon="2.33637">
        <ele>400.8</ele>
        <time>2025-09-16T13:20:23Z</time>
      </trkpt>
      <trkpt lat="43.65878" lon="2.33638">
        <ele>401</ele>
        <time>2025-09-16T13:20:24Z</time>
      </trkpt>
      <trkpt lat="43.6588" lon="2.33638">
        <ele>401.2</ele>
        <time>2025-09-16T13:20:25Z</time>
      </trkpt>
      <trkpt lat="43.6588" lon="2.33639">
        <ele>401.4</ele>
        <time>2025-09-16T13:20:26Z</time>
      </trkpt>
      <trkpt lat="43.65881" lon="2.3364">
        <ele>401.6</ele>
        <time>2025-09-16T13:20:27Z</time>
      </trkpt>
      <trkpt lat="43.65882" lon="2.3364">
        <ele>401.6</ele>
        <time>2025-09-16T13:20:28Z</time>
      </trkpt>
      <trkpt lat="43.65883" lon="2.33641">
        <ele>401.8</ele>
        <time>2025-09-16T13:20:29Z</time>
      </trkpt>
      <trkpt lat="43.65884" lon="2.33642">
        <ele>401.8</ele>
        <time>2025-09-16T13:20:30Z</time>
      </trkpt>
      <trkpt lat="43.65886" lon="2.33643">
        <ele>402</ele>
        <time>2025-09-16T13:20:31Z</time>
      </trkpt>
      <trkpt lat="43.65887" lon="2.33645">
        <ele>402.2</ele>
        <time>2025-09-16T13:20:32Z</time>
      </trkpt>
      <trkpt lat="43.65888" lon="2.33646">
        <ele>402.2</ele>
        <time>2025-09-16T13:20:33Z</time>
      </trkpt>
      <trkpt lat="43.65889" lon="2.33646">
        <ele>402.4</ele>
        <time>2025-09-16T13:20:34Z</time>
      </trkpt>
      <trkpt lat="43.6589" lon="2.33647">
        <ele>402.6</ele>
        <time>2025-09-16T13:20:35Z</time>
      </trkpt>
      <trkpt lat="43.65892" lon="2.33648">
        <ele>402.8</ele>
        <time>2025-09-16T13:20:36Z</time>
      </trkpt>
      <trkpt lat="43.65892" lon="2.33649">
        <ele>403</ele>
        <time>2025-09-16T13:20:37Z</time>
      </trkpt>
      <trkpt lat="43.65894" lon="2.3365">
        <ele>403</ele>
        <time>2025-09-16T13:20:38Z</time>
      </trkpt>
      <trkpt lat="43.65895" lon="2.33651">
        <ele>403.2</ele>
        <time>2025-09-16T13:20:39Z</time>
      </trkpt>
      <trkpt lat="43.65896" lon="2.33652">
        <ele>403.2</ele>
        <time>2025-09-16T13:20:40Z</time>
      </trkpt>
      <trkpt lat="43.65897" lon="2.33653">
        <ele>403.4</ele>
        <time>2025-09-16T13:20:41Z</time>
      </trkpt>
      <trkpt lat="43.65899" lon="2.33655">
        <ele>403.6</ele>
        <time>2025-09-16T13:20:42Z</time>
      </trkpt>
      <trkpt lat="43.659" lon="2.33655">
        <ele>403.6</ele>
        <time>2025-09-16T13:20:43Z</time>
      </trkpt>
      <trkpt lat="43.65901" lon="2.33656">
        <ele>403.8</ele>
        <time>2025-09-16T13:20:44Z</time>
      </trkpt>
      <trkpt lat="43.65902" lon="2.33657">
        <ele>403.8</ele>
        <time>2025-09-16T13:20:45Z</time>
      </trkpt>
      <trkpt lat="43.65903" lon="2.33658">
        <ele>404</ele>
        <time>2025-09-16T13:20:46Z</time>
      </trkpt>
      <trkpt lat="43.65904" lon="2.33658">
        <ele>404.2</ele>
        <time>2025-09-16T13:20:47Z</time>
      </trkpt>
      <trkpt lat="43.65905" lon="2.33659">
        <ele>404.4</ele>
        <time>2025-09-16T13:20:48Z</time>
      </trkpt>
      <trkpt lat="43.65906" lon="2.33659">
        <ele>404.4</ele>
        <time>2025-09-16T13:20:49Z</time>
      </trkpt>
      <trkpt lat="43.65908" lon="2.33661">
        <ele>404.6</ele>
        <time>2025-09-16T13:20:50Z</time>
      </trkpt>
      <trkpt lat="43.65908" lon="2.33661">
        <ele>404.8</ele>
        <time>2025-09-16T13:20:51Z</time>
      </trkpt>
      <trkpt lat="43.6591" lon="2.33663">
        <ele>404.8</ele>
        <time>2025-09-16T13:20:52Z</time>
      </trkpt>
      <trkpt lat="43.65911" lon="2.33663">
        <ele>405</ele>
        <time>2025-09-16T13:20:53Z</time>
      </trkpt>
      <trkpt lat="43.65912" lon="2.33664">
        <ele>405.2</ele>
        <time>2025-09-16T13:20:54Z</time>
      </trkpt>
      <trkpt lat="43.65913" lon="2.33665">
        <ele>405.2</ele>
        <time>2025-09-16T13:20:55Z</time>
      </trkpt>
      <trkpt lat="43.65915" lon="2.33666">
        <ele>405.4</ele>
        <time>2025-09-16T13:20:56Z</time>
      </trkpt>
      <trkpt lat="43.65916" lon="2.33667">
        <ele>405.4</ele>
        <time>2025-09-16T13:20:57Z</time>
      </trkpt>
      <trkpt lat="43.65918" lon="2.33667">
        <ele>405.6</ele>
        <time>2025-09-16T13:20:58Z</time>
      </trkpt>
      <trkpt lat="43.65919" lon="2.33668">
        <ele>405.8</ele>
        <time>2025-09-16T13:20:59Z</time>
      </trkpt>
      <trkpt lat="43.65921" lon="2.33669">
        <ele>406</ele>
        <time>2025-09-16T13:21:00Z</time>
      </trkpt>
      <trkpt lat="43.65922" lon="2.3367">
        <ele>406</ele>
        <time>2025-09-16T13:21:01Z</time>
      </trkpt>
      <trkpt lat="43.65923" lon="2.3367">
        <ele>406.2</ele>
        <time>2025-09-16T13:21:02Z</time>
      </trkpt>
      <trkpt lat="43.65924" lon="2.33671">
        <ele>406.4</ele>
        <time>2025-09-16T13:21:03Z</time>
      </trkpt>
      <trkpt lat="43.65926" lon="2.33672">
        <ele>406.4</ele>
        <time>2025-09-16T13:21:04Z</time>
      </trkpt>
      <trkpt lat="43.65928" lon="2.33672">
        <ele>406.6</ele>
        <time>2025-09-16T13:21:05Z</time>
      </trkpt>
      <trkpt lat="43.65929" lon="2.33673">
        <ele>406.6</ele>
        <time>2025-09-16T13:21:06Z</time>
      </trkpt>
      <trkpt lat="43.65931" lon="2.33675">
        <ele>406.6</ele>
        <time>2025-09-16T13:21:07Z</time>
      </trkpt>
      <trkpt lat="43.65932" lon="2.33676">
        <ele>406.8</ele>
        <time>2025-09-16T13:21:08Z</time>
      </trkpt>
      <trkpt lat="43.65932" lon="2.33676">
        <ele>407</ele>
        <time>2025-09-16T13:21:09Z</time>
      </trkpt>
      <trkpt lat="43.65934" lon="2.33677">
        <ele>407.2</ele>
        <time>2025-09-16T13:21:10Z</time>
      </trkpt>
      <trkpt lat="43.65934" lon="2.33678">
        <ele>407.4</ele>
        <time>2025-09-16T13:21:11Z</time>
      </trkpt>
      <trkpt lat="43.65935" lon="2.3368">
        <ele>407.4</ele>
        <time>2025-09-16T13:21:12Z</time>
      </trkpt>
      <trkpt lat="43.65936" lon="2.33681">
        <ele>407.6</ele>
        <time>2025-09-16T13:21:13Z</time>
      </trkpt>
      <trkpt lat="43.65937" lon="2.33682">
        <ele>407.8</ele>
        <time>2025-09-16T13:21:14Z</time>
      </trkpt>
      <trkpt lat="43.65938" lon="2.33683">
        <ele>408</ele>
        <time>2025-09-16T13:21:15Z</time>
      </trkpt>
      <trkpt lat="43.65939" lon="2.33685">
        <ele>408</ele>
        <time>2025-09-16T13:21:16Z</time>
      </trkpt>
      <trkpt lat="43.6594" lon="2.33685">
        <ele>408.2</ele>
        <time>2025-09-16T13:21:17Z</time>
      </trkpt>
      <trkpt lat="43.65941" lon="2.33686">
        <ele>408.4</ele>
        <time>2025-09-16T13:21:18Z</time>
      </trkpt>
      <trkpt lat="43.65942" lon="2.33687">
        <ele>408.4</ele>
        <time>2025-09-16T13:21:19Z</time>
      </trkpt>
      <trkpt lat="43.65944" lon="2.33687">
        <ele>408.6</ele>
        <time>2025-09-16T13:21:20Z</time>
      </trkpt>
      <trkpt lat="43.65945" lon="2.33688">
        <ele>408.6</ele>
        <time>2025-09-16T13:21:21Z</time>
      </trkpt>
      <trkpt lat="43.65946" lon="2.33689">
        <ele>408.8</ele>
        <time>2025-09-16T13:21:22Z</time>
      </trkpt>
      <trkpt lat="43.65947" lon="2.33689">
        <ele>409</ele>
        <time>2025-09-16T13:21:23Z</time>
      </trkpt>
      <trkpt lat="43.65948" lon="2.3369">
        <ele>409</ele>
        <time>2025-09-16T13:21:24Z</time>
      </trkpt>
      <trkpt lat="43.65949" lon="2.33692">
        <ele>409.2</ele>
        <time>2025-09-16T13:21:25Z</time>
      </trkpt>
      <trkpt lat="43.65951" lon="2.33692">
        <ele>409.4</ele>
        <time>2025-09-16T13:21:26Z</time>
      </trkpt>
      <trkpt lat="43.65952" lon="2.33693">
        <ele>409.4</ele>
        <time>2025-09-16T13:21:27Z</time>
      </trkpt>
      <trkpt lat="43.65953" lon="2.33694">
        <ele>409.6</ele>
        <time>2025-09-16T13:21:28Z</time>
      </trkpt>
      <trkpt lat="43.65955" lon="2.33694">
        <ele>409.6</ele>
        <time>2025-09-16T13:21:29Z</time>
      </trkpt>
      <trkpt lat="43.65956" lon="2.33695">
        <ele>409.8</ele>
        <time>2025-09-16T13:21:30Z</time>
      </trkpt>
      <trkpt lat="43.65957" lon="2.33695">
        <ele>410</ele>
        <time>2025-09-16T13:21:31Z</time>
      </trkpt>
      <trkpt lat="43.65958" lon="2.33696">
        <ele>410</ele>
        <time>2025-09-16T13:21:32Z</time>
      </trkpt>
      <trkpt lat="43.65959" lon="2.33697">
        <ele>410.2</ele>
        <time>2025-09-16T13:21:33Z</time>
      </trkpt>
      <trkpt lat="43.6596" lon="2.33698">
        <ele>410.4</ele>
        <time>2025-09-16T13:21:34Z</time>
      </trkpt>
      <trkpt lat="43.65961" lon="2.337">
        <ele>410.6</ele>
        <time>2025-09-16T13:21:35Z</time>
      </trkpt>
      <trkpt lat="43.65963" lon="2.33701">
        <ele>410.6</ele>
        <time>2025-09-16T13:21:36Z</time>
      </trkpt>
      <trkpt lat="43.65964" lon="2.33702">
        <ele>410.8</ele>
        <time>2025-09-16T13:21:37Z</time>
      </trkpt>
      <trkpt lat="43.65965" lon="2.33703">
        <ele>411</ele>
        <time>2025-09-16T13:21:38Z</time>
      </trkpt>
      <trkpt lat="43.65967" lon="2.33704">
        <ele>411</ele>
        <time>2025-09-16T13:21:39Z</time>
      </trkpt>
      <trkpt lat="43.65967" lon="2.33705">
        <ele>411.2</ele>
        <time>2025-09-16T13:21:40Z</time>
      </trkpt>
      <trkpt lat="43.65968" lon="2.33706">
        <ele>411.4</ele>
        <time>2025-09-16T13:21:41Z</time>
      </trkpt>
      <trkpt lat="43.65969" lon="2.33707">
        <ele>411.4</ele>
        <time>2025-09-16T13:21:42Z</time>
      </trkpt>
      <trkpt lat="43.6597" lon="2.33708">
        <ele>411.6</ele>
        <time>2025-09-16T13:21:43Z</time>
      </trkpt>
      <trkpt lat="43.65972" lon="2.33709">
        <ele>411.8</ele>
        <time>2025-09-16T13:21:44Z</time>
      </trkpt>
      <trkpt lat="43.65973" lon="2.3371">
        <ele>411.8</ele>
        <time>2025-09-16T13:21:45Z</time>
      </trkpt>
      <trkpt lat="43.65974" lon="2.33711">
        <ele>412</ele>
        <time>2025-09-16T13:21:46Z</time>
      </trkpt>
      <trkpt lat="43.65975" lon="2.33712">
        <ele>412</ele>
        <time>2025-09-16T13:21:47Z</time>
      </trkpt>
      <trkpt lat="43.65976" lon="2.33713">
        <ele>412</ele>
        <time>2025-09-16T13:21:48Z</time>
      </trkpt>
      <trkpt lat="43.65977" lon="2.33714">
        <ele>412.2</ele>
        <time>2025-09-16T13:21:49Z</time>
      </trkpt>
      <trkpt lat="43.65978" lon="2.33715">
        <ele>412.2</ele>
        <time>2025-09-16T13:21:50Z</time>
      </trkpt>
      <trkpt lat="43.65979" lon="2.33716">
        <ele>412.2</ele>
        <time>2025-09-16T13:21:51Z</time>
      </trkpt>
      <trkpt lat="43.6598" lon="2.33716">
        <ele>412.4</ele>
        <time>2025-09-16T13:21:52Z</time>
      </trkpt>
      <trkpt lat="43.65981" lon="2.33716">
        <ele>412.4</ele>
        <time>2025-09-16T13:21:53Z</time>
      </trkpt>
      <trkpt lat="43.65982" lon="2.33717">
        <ele>412.6</ele>
        <time>2025-09-16T13:21:54Z</time>
      </trkpt>
      <trkpt lat="43.65983" lon="2.33718">
        <ele>412.6</ele>
        <time>2025-09-16T13:21:55Z</time>
      </trkpt>
      <trkpt lat="43.65984" lon="2.33719">
        <ele>412.8</ele>
        <time>2025-09-16T13:21:56Z</time>
      </trkpt>
      <trkpt lat="43.65985" lon="2.33719">
        <ele>413</ele>
        <time>2025-09-16T13:21:57Z</time>
      </trkpt>
      <trkpt lat="43.65986" lon="2.3372">
        <ele>413</ele>
        <time>2025-09-16T13:21:58Z</time>
      </trkpt>
      <trkpt lat="43.65987" lon="2.33721">
        <ele>413.2</ele>
        <time>2025-09-16T13:21:59Z</time>
      </trkpt>
      <trkpt lat="43.65988" lon="2.33722">
        <ele>413.2</ele>
        <time>2025-09-16T13:22:00Z</time>
      </trkpt>
      <trkpt lat="43.6599" lon="2.33722">
        <ele>413.4</ele>
        <time>2025-09-16T13:22:01Z</time>
      </trkpt>
      <trkpt lat="43.65991" lon="2.33722">
        <ele>413.4</ele>
        <time>2025-09-16T13:22:02Z</time>
      </trkpt>
      <trkpt lat="43.65992" lon="2.33723">
        <ele>413.6</ele>
        <time>2025-09-16T13:22:03Z</time>
      </trkpt>
      <trkpt lat="43.65993" lon="2.33724">
        <ele>413.8</ele>
        <time>2025-09-16T13:22:04Z</time>
      </trkpt>
      <trkpt lat="43.65994" lon="2.33725">
        <ele>413.8</ele>
        <time>2025-09-16T13:22:05Z</time>
      </trkpt>
      <trkpt lat="43.65995" lon="2.33725">
        <ele>413.8</ele>
        <time>2025-09-16T13:22:06Z</time>
      </trkpt>
      <trkpt lat="43.65997" lon="2.33725">
        <ele>414</ele>
        <time>2025-09-16T13:22:07Z</time>
      </trkpt>
      <trkpt lat="43.65998" lon="2.33726">
        <ele>414</ele>
        <time>2025-09-16T13:22:08Z</time>
      </trkpt>
      <trkpt lat="43.65999" lon="2.33726">
        <ele>414</ele>
        <time>2025-09-16T13:22:09Z</time>
      </trkpt>
      <trkpt lat="43.66" lon="2.33727">
        <ele>414.2</ele>
        <time>2025-09-16T13:22:10Z</time>
      </trkpt>
      <trkpt lat="43.66001" lon="2.33727">
        <ele>414.4</ele>
        <time>2025-09-16T13:22:11Z</time>
      </trkpt>
      <trkpt lat="43.66002" lon="2.33728">
        <ele>414.4</ele>
        <time>2025-09-16T13:22:12Z</time>
      </trkpt>
      <trkpt lat="43.66004" lon="2.33729">
        <ele>414.6</ele>
        <time>2025-09-16T13:22:13Z</time>
      </trkpt>
      <trkpt lat="43.66005" lon="2.3373">
        <ele>414.8</ele>
        <time>2025-09-16T13:22:14Z</time>
      </trkpt>
      <trkpt lat="43.66006" lon="2.33731">
        <ele>415</ele>
        <time>2025-09-16T13:22:15Z</time>
      </trkpt>
      <trkpt lat="43.66007" lon="2.33731">
        <ele>415</ele>
        <time>2025-09-16T13:22:16Z</time>
      </trkpt>
      <trkpt lat="43.66009" lon="2.33731">
        <ele>415.2</ele>
        <time>2025-09-16T13:22:17Z</time>
      </trkpt>
      <trkpt lat="43.6601" lon="2.33731">
        <ele>415.4</ele>
        <time>2025-09-16T13:22:18Z</time>
      </trkpt>
      <trkpt lat="43.66011" lon="2.33732">
        <ele>415.4</ele>
        <time>2025-09-16T13:22:19Z</time>
      </trkpt>
      <trkpt lat="43.66012" lon="2.33732">
        <ele>415.6</ele>
        <time>2025-09-16T13:22:20Z</time>
      </trkpt>
      <trkpt lat="43.66013" lon="2.33733">
        <ele>415.8</ele>
        <time>2025-09-16T13:22:21Z</time>
      </trkpt>
      <trkpt lat="43.66014" lon="2.33734">
        <ele>415.8</ele>
        <time>2025-09-16T13:22:22Z</time>
      </trkpt>
      <trkpt lat="43.66015" lon="2.33734">
        <ele>416</ele>
        <time>2025-09-16T13:22:23Z</time>
      </trkpt>
      <trkpt lat="43.66017" lon="2.33735">
        <ele>416</ele>
        <time>2025-09-16T13:22:24Z</time>
      </trkpt>
      <trkpt lat="43.66018" lon="2.33735">
        <ele>416.2</ele>
        <time>2025-09-16T13:22:25Z</time>
      </trkpt>
      <trkpt lat="43.66019" lon="2.33736">
        <ele>416.4</ele>
        <time>2025-09-16T13:22:26Z</time>
      </trkpt>
      <trkpt lat="43.6602" lon="2.33737">
        <ele>416.4</ele>
        <time>2025-09-16T13:22:27Z</time>
      </trkpt>
      <trkpt lat="43.66021" lon="2.33738">
        <ele>416.6</ele>
        <time>2025-09-16T13:22:28Z</time>
      </trkpt>
      <trkpt lat="43.66023" lon="2.33739">
        <ele>416.6</ele>
        <time>2025-09-16T13:22:29Z</time>
      </trkpt>
      <trkpt lat="43.66024" lon="2.3374">
        <ele>416.8</ele>
        <time>2025-09-16T13:22:30Z</time>
      </trkpt>
      <trkpt lat="43.66025" lon="2.33741">
        <ele>417</ele>
        <time>2025-09-16T13:22:31Z</time>
      </trkpt>
      <trkpt lat="43.66027" lon="2.33741">
        <ele>417</ele>
        <time>2025-09-16T13:22:32Z</time>
      </trkpt>
      <trkpt lat="43.66027" lon="2.33742">
        <ele>417.2</ele>
        <time>2025-09-16T13:22:33Z</time>
      </trkpt>
      <trkpt lat="43.66028" lon="2.33742">
        <ele>417.4</ele>
        <time>2025-09-16T13:22:34Z</time>
      </trkpt>
      <trkpt lat="43.66029" lon="2.33743">
        <ele>417.6</ele>
        <time>2025-09-16T13:22:35Z</time>
      </trkpt>
      <trkpt lat="43.6603" lon="2.33745">
        <ele>417.6</ele>
        <time>2025-09-16T13:22:36Z</time>
      </trkpt>
      <trkpt lat="43.66032" lon="2.33746">
        <ele>417.8</ele>
        <time>2025-09-16T13:22:37Z</time>
      </trkpt>
      <trkpt lat="43.66033" lon="2.33747">
        <ele>418</ele>
        <time>2025-09-16T13:22:38Z</time>
      </trkpt>
      <trkpt lat="43.66035" lon="2.33747">
        <ele>418</ele>
        <time>2025-09-16T13:22:39Z</time>
      </trkpt>
      <trkpt lat="43.66036" lon="2.33748">
        <ele>418.2</ele>
        <time>2025-09-16T13:22:40Z</time>
      </trkpt>
      <trkpt lat="43.66037" lon="2.33749">
        <ele>418.4</ele>
        <time>2025-09-16T13:22:41Z</time>
      </trkpt>
      <trkpt lat="43.66038" lon="2.3375">
        <ele>418.4</ele>
        <time>2025-09-16T13:22:42Z</time>
      </trkpt>
      <trkpt lat="43.66039" lon="2.33751">
        <ele>418.6</ele>
        <time>2025-09-16T13:22:43Z</time>
      </trkpt>
      <trkpt lat="43.6604" lon="2.33752">
        <ele>418.6</ele>
        <time>2025-09-16T13:22:44Z</time>
      </trkpt>
      <trkpt lat="43.66042" lon="2.33754">
        <ele>418.8</ele>
        <time>2025-09-16T13:22:45Z</time>
      </trkpt>
      <trkpt lat="43.66043" lon="2.33756">
        <ele>419</ele>
        <time>2025-09-16T13:22:46Z</time>
      </trkpt>
      <trkpt lat="43.66044" lon="2.33756">
        <ele>419</ele>
        <time>2025-09-16T13:22:47Z</time>
      </trkpt>
      <trkpt lat="43.66046" lon="2.33756">
        <ele>419.2</ele>
        <time>2025-09-16T13:22:48Z</time>
      </trkpt>
      <trkpt lat="43.66047" lon="2.33756">
        <ele>419.2</ele>
        <time>2025-09-16T13:22:49Z</time>
      </trkpt>
      <trkpt lat="43.66049" lon="2.33756">
        <ele>419.4</ele>
        <time>2025-09-16T13:22:50Z</time>
      </trkpt>
      <trkpt lat="43.6605" lon="2.33756">
        <ele>419.4</ele>
        <time>2025-09-16T13:22:51Z</time>
      </trkpt>
      <trkpt lat="43.66051" lon="2.33757">
        <ele>419.6</ele>
        <time>2025-09-16T13:22:52Z</time>
      </trkpt>
      <trkpt lat="43.66052" lon="2.33758">
        <ele>419.6</ele>
        <time>2025-09-16T13:22:53Z</time>
      </trkpt>
      <trkpt lat="43.66053" lon="2.33759">
        <ele>419.8</ele>
        <time>2025-09-16T13:22:54Z</time>
      </trkpt>
      <trkpt lat="43.66054" lon="2.33759">
        <ele>419.8</ele>
        <time>2025-09-16T13:22:55Z</time>
      </trkpt>
      <trkpt lat="43.66055" lon="2.3376">
        <ele>420</ele>
        <time>2025-09-16T13:22:56Z</time>
      </trkpt>
      <trkpt lat="43.66056" lon="2.3376">
        <ele>420.2</ele>
        <time>2025-09-16T13:22:57Z</time>
      </trkpt>
      <trkpt lat="43.66057" lon="2.33761">
        <ele>420.2</ele>
        <time>2025-09-16T13:22:58Z</time>
      </trkpt>
      <trkpt lat="43.66059" lon="2.33761">
        <ele>420.4</ele>
        <time>2025-09-16T13:22:59Z</time>
      </trkpt>
      <trkpt lat="43.6606" lon="2.33762">
        <ele>420.4</ele>
        <time>2025-09-16T13:23:00Z</time>
      </trkpt>
      <trkpt lat="43.66061" lon="2.33762">
        <ele>420.6</ele>
        <time>2025-09-16T13:23:01Z</time>
      </trkpt>
      <trkpt lat="43.66062" lon="2.33763">
        <ele>420.6</ele>
        <time>2025-09-16T13:23:02Z</time>
      </trkpt>
      <trkpt lat="43.66063" lon="2.33764">
        <ele>420.8</ele>
        <time>2025-09-16T13:23:03Z</time>
      </trkpt>
      <trkpt lat="43.66065" lon="2.33764">
        <ele>420.8</ele>
        <time>2025-09-16T13:23:04Z</time>
      </trkpt>
      <trkpt lat="43.66066" lon="2.33765">
        <ele>421</ele>
        <time>2025-09-16T13:23:05Z</time>
      </trkpt>
      <trkpt lat="43.66067" lon="2.33765">
        <ele>421.2</ele>
        <time>2025-09-16T13:23:06Z</time>
      </trkpt>
      <trkpt lat="43.66068" lon="2.33766">
        <ele>421.2</ele>
        <time>2025-09-16T13:23:07Z</time>
      </trkpt>
      <trkpt lat="43.66069" lon="2.33767">
        <ele>421.4</ele>
        <time>2025-09-16T13:23:08Z</time>
      </trkpt>
      <trkpt lat="43.6607" lon="2.33768">
        <ele>421.6</ele>
        <time>2025-09-16T13:23:09Z</time>
      </trkpt>
      <trkpt lat="43.66071" lon="2.33769">
        <ele>421.6</ele>
        <time>2025-09-16T13:23:10Z</time>
      </trkpt>
      <trkpt lat="43.66072" lon="2.33769">
        <ele>421.8</ele>
        <time>2025-09-16T13:23:11Z</time>
      </trkpt>
      <trkpt lat="43.66073" lon="2.3377">
        <ele>421.8</ele>
        <time>2025-09-16T13:23:12Z</time>
      </trkpt>
      <trkpt lat="43.66075" lon="2.3377">
        <ele>422</ele>
        <time>2025-09-16T13:23:13Z</time>
      </trkpt>
      <trkpt lat="43.66076" lon="2.33771">
        <ele>422.2</ele>
        <time>2025-09-16T13:23:14Z</time>
      </trkpt>
      <trkpt lat="43.66077" lon="2.33772">
        <ele>422.2</ele>
        <time>2025-09-16T13:23:15Z</time>
      </trkpt>
      <trkpt lat="43.66078" lon="2.33773">
        <ele>422.4</ele>
        <time>2025-09-16T13:23:16Z</time>
      </trkpt>
      <trkpt lat="43.66079" lon="2.33774">
        <ele>422.4</ele>
        <time>2025-09-16T13:23:17Z</time>
      </trkpt>
      <trkpt lat="43.6608" lon="2.33775">
        <ele>422.6</ele>
        <time>2025-09-16T13:23:18Z</time>
      </trkpt>
      <trkpt lat="43.66081" lon="2.33776">
        <ele>422.6</ele>
        <time>2025-09-16T13:23:19Z</time>
      </trkpt>
      <trkpt lat="43.66082" lon="2.33777">
        <ele>422.8</ele>
        <time>2025-09-16T13:23:20Z</time>
      </trkpt>
      <trkpt lat="43.66083" lon="2.33779">
        <ele>422.8</ele>
        <time>2025-09-16T13:23:21Z</time>
      </trkpt>
      <trkpt lat="43.66084" lon="2.3378">
        <ele>423</ele>
        <time>2025-09-16T13:23:22Z</time>
      </trkpt>
      <trkpt lat="43.66085" lon="2.33781">
        <ele>423</ele>
        <time>2025-09-16T13:23:23Z</time>
      </trkpt>
      <trkpt lat="43.66086" lon="2.33782">
        <ele>423.2</ele>
        <time>2025-09-16T13:23:24Z</time>
      </trkpt>
      <trkpt lat="43.66087" lon="2.33783">
        <ele>423.2</ele>
        <time>2025-09-16T13:23:25Z</time>
      </trkpt>
      <trkpt lat="43.66088" lon="2.33783">
        <ele>423.4</ele>
        <time>2025-09-16T13:23:26Z</time>
      </trkpt>
      <trkpt lat="43.66089" lon="2.33784">
        <ele>423.6</ele>
        <time>2025-09-16T13:23:27Z</time>
      </trkpt>
      <trkpt lat="43.6609" lon="2.33784">
        <ele>423.6</ele>
        <time>2025-09-16T13:23:28Z</time>
      </trkpt>
      <trkpt lat="43.66091" lon="2.33785">
        <ele>423.8</ele>
        <time>2025-09-16T13:23:29Z</time>
      </trkpt>
      <trkpt lat="43.66092" lon="2.33786">
        <ele>424</ele>
        <time>2025-09-16T13:23:30Z</time>
      </trkpt>
      <trkpt lat="43.66094" lon="2.33787">
        <ele>424</ele>
        <time>2025-09-16T13:23:31Z</time>
      </trkpt>
      <trkpt lat="43.66095" lon="2.33788">
        <ele>424.2</ele>
        <time>2025-09-16T13:23:32Z</time>
      </trkpt>
      <trkpt lat="43.66096" lon="2.33789">
        <ele>424.2</ele>
        <time>2025-09-16T13:23:33Z</time>
      </trkpt>
      <trkpt lat="43.66097" lon="2.3379">
        <ele>424.4</ele>
        <time>2025-09-16T13:23:34Z</time>
      </trkpt>
      <trkpt lat="43.66099" lon="2.3379">
        <ele>424.4</ele>
        <time>2025-09-16T13:23:35Z</time>
      </trkpt>
      <trkpt lat="43.661" lon="2.33791">
        <ele>424.6</ele>
        <time>2025-09-16T13:23:36Z</time>
      </trkpt>
      <trkpt lat="43.661" lon="2.33793">
        <ele>424.6</ele>
        <time>2025-09-16T13:23:37Z</time>
      </trkpt>
      <trkpt lat="43.661" lon="2.33794">
        <ele>424.6</ele>
        <time>2025-09-16T13:23:38Z</time>
      </trkpt>
      <trkpt lat="43.66101" lon="2.33795">
        <ele>424.8</ele>
        <time>2025-09-16T13:23:39Z</time>
      </trkpt>
      <trkpt lat="43.66101" lon="2.33795">
        <ele>424.8</ele>
        <time>2025-09-16T13:23:40Z</time>
      </trkpt>
      <trkpt lat="43.66101" lon="2.33795">
        <ele>425</ele>
        <time>2025-09-16T13:23:41Z</time>
      </trkpt>
      <trkpt lat="43.66104" lon="2.33802">
        <ele>425.4</ele>
        <time>2025-09-16T13:25:35Z</time>
      </trkpt>
      <trkpt lat="43.66106" lon="2.33804">
        <ele>425.2</ele>
        <time>2025-09-16T13:25:36Z</time>
      </trkpt>
      <trkpt lat="43.66108" lon="2.33805">
        <ele>425</ele>
        <time>2025-09-16T13:25:37Z</time>
      </trkpt>
      <trkpt lat="43.66111" lon="2.33808">
        <ele>424.8</ele>
        <time>2025-09-16T13:25:38Z</time>
      </trkpt>
      <trkpt lat="43.66114" lon="2.3381">
        <ele>424.2</ele>
        <time>2025-09-16T13:25:39Z</time>
      </trkpt>
      <trkpt lat="43.66117" lon="2.33813">
        <ele>423.8</ele>
        <time>2025-09-16T13:25:40Z</time>
      </trkpt>
      <trkpt lat="43.6612" lon="2.33817">
        <ele>423.2</ele>
        <time>2025-09-16T13:25:41Z</time>
      </trkpt>
      <trkpt lat="43.66123" lon="2.33821">
        <ele>422.2</ele>
        <time>2025-09-16T13:25:42Z</time>
      </trkpt>
      <trkpt lat="43.66125" lon="2.33826">
        <ele>421.2</ele>
        <time>2025-09-16T13:25:43Z</time>
      </trkpt>
      <trkpt lat="43.66127" lon="2.33833">
        <ele>420.4</ele>
        <time>2025-09-16T13:25:44Z</time>
      </trkpt>
      <trkpt lat="43.66128" lon="2.3384">
        <ele>419.6</ele>
        <time>2025-09-16T13:25:45Z</time>
      </trkpt>
      <trkpt lat="43.66128" lon="2.33847">
        <ele>418.6</ele>
        <time>2025-09-16T13:25:46Z</time>
      </trkpt>
      <trkpt lat="43.66129" lon="2.33854">
        <ele>417.6</ele>
        <time>2025-09-16T13:25:47Z</time>
      </trkpt>
      <trkpt lat="43.6613" lon="2.3386">
        <ele>417</ele>
        <time>2025-09-16T13:25:48Z</time>
      </trkpt>
      <trkpt lat="43.66132" lon="2.33865">
        <ele>416.2</ele>
        <time>2025-09-16T13:25:49Z</time>
      </trkpt>
      <trkpt lat="43.66132" lon="2.33871">
        <ele>415.6</ele>
        <time>2025-09-16T13:25:50Z</time>
      </trkpt>
      <trkpt lat="43.66131" lon="2.33877">
        <ele>415</ele>
        <time>2025-09-16T13:25:51Z</time>
      </trkpt>
      <trkpt lat="43.66129" lon="2.33881">
        <ele>414.4</ele>
        <time>2025-09-16T13:25:52Z</time>
      </trkpt>
      <trkpt lat="43.66126" lon="2.33884">
        <ele>413.8</ele>
        <time>2025-09-16T13:25:53Z</time>
      </trkpt>
      <trkpt lat="43.66123" lon="2.33887">
        <ele>413.4</ele>
        <time>2025-09-16T13:25:54Z</time>
      </trkpt>
      <trkpt lat="43.66122" lon="2.33889">
        <ele>413.2</ele>
        <time>2025-09-16T13:25:55Z</time>
      </trkpt>
      <trkpt lat="43.66121" lon="2.33893">
        <ele>413</ele>
        <time>2025-09-16T13:25:56Z</time>
      </trkpt>
      <trkpt lat="43.66122" lon="2.33897">
        <ele>413</ele>
        <time>2025-09-16T13:25:57Z</time>
      </trkpt>
      <trkpt lat="43.66123" lon="2.33901">
        <ele>413</ele>
        <time>2025-09-16T13:25:58Z</time>
      </trkpt>
      <trkpt lat="43.66124" lon="2.33903">
        <ele>413.2</ele>
        <time>2025-09-16T13:25:59Z</time>
      </trkpt>
      <trkpt lat="43.66125" lon="2.33905">
        <ele>413.4</ele>
        <time>2025-09-16T13:26:00Z</time>
      </trkpt>
      <trkpt lat="43.66126" lon="2.33908">
        <ele>413.6</ele>
        <time>2025-09-16T13:26:01Z</time>
      </trkpt>
      <trkpt lat="43.66127" lon="2.3391">
        <ele>413.8</ele>
        <time>2025-09-16T13:26:02Z</time>
      </trkpt>
      <trkpt lat="43.66128" lon="2.33912">
        <ele>414</ele>
        <time>2025-09-16T13:26:03Z</time>
      </trkpt>
      <trkpt lat="43.66128" lon="2.33915">
        <ele>414</ele>
        <time>2025-09-16T13:26:04Z</time>
      </trkpt>
      <trkpt lat="43.6613" lon="2.33917">
        <ele>414.2</ele>
        <time>2025-09-16T13:26:05Z</time>
      </trkpt>
      <trkpt lat="43.66132" lon="2.3392">
        <ele>414.2</ele>
        <time>2025-09-16T13:26:06Z</time>
      </trkpt>
      <trkpt lat="43.66134" lon="2.33922">
        <ele>414.4</ele>
        <time>2025-09-16T13:26:07Z</time>
      </trkpt>
      <trkpt lat="43.66135" lon="2.33924">
        <ele>414.4</ele>
        <time>2025-09-16T13:26:08Z</time>
      </trkpt>
      <trkpt lat="43.66136" lon="2.33927">
        <ele>414.6</ele>
        <time>2025-09-16T13:26:09Z</time>
      </trkpt>
      <trkpt lat="43.66138" lon="2.3393">
        <ele>414.6</ele>
        <time>2025-09-16T13:26:10Z</time>
      </trkpt>
      <trkpt lat="43.6614" lon="2.33932">
        <ele>414.8</ele>
        <time>2025-09-16T13:26:11Z</time>
      </trkpt>
      <trkpt lat="43.66141" lon="2.33935">
        <ele>415</ele>
        <time>2025-09-16T13:26:12Z</time>
      </trkpt>
      <trkpt lat="43.66142" lon="2.33937">
        <ele>415</ele>
        <time>2025-09-16T13:26:13Z</time>
      </trkpt>
      <trkpt lat="43.66143" lon="2.33939">
        <ele>415.2</ele>
        <time>2025-09-16T13:26:14Z</time>
      </trkpt>
      <trkpt lat="43.66144" lon="2.33941">
        <ele>415.4</ele>
        <time>2025-09-16T13:26:15Z</time>
      </trkpt>
      <trkpt lat="43.66146" lon="2.33943">
        <ele>415.4</ele>
        <time>2025-09-16T13:26:16Z</time>
      </trkpt>
      <trkpt lat="43.66147" lon="2.33945">
        <ele>415.6</ele>
        <time>2025-09-16T13:26:17Z</time>
      </trkpt>
      <trkpt lat="43.66148" lon="2.33947">
        <ele>415.6</ele>
        <time>2025-09-16T13:26:18Z</time>
      </trkpt>
      <trkpt lat="43.66149" lon="2.33949">
        <ele>415.8</ele>
        <time>2025-09-16T13:26:19Z</time>
      </trkpt>
      <trkpt lat="43.6615" lon="2.33951">
        <ele>416</ele>
        <time>2025-09-16T13:26:20Z</time>
      </trkpt>
      <trkpt lat="43.66152" lon="2.33953">
        <ele>416</ele>
        <time>2025-09-16T13:26:21Z</time>
      </trkpt>
      <trkpt lat="43.66153" lon="2.33954">
        <ele>416.2</ele>
        <time>2025-09-16T13:26:22Z</time>
      </trkpt>
      <trkpt lat="43.66154" lon="2.33956">
        <ele>416.4</ele>
        <time>2025-09-16T13:26:23Z</time>
      </trkpt>
      <trkpt lat="43.66155" lon="2.33957">
        <ele>416.6</ele>
        <time>2025-09-16T13:26:24Z</time>
      </trkpt>
      <trkpt lat="43.66156" lon="2.33958">
        <ele>416.8</ele>
        <time>2025-09-16T13:26:25Z</time>
      </trkpt>
      <trkpt lat="43.66156" lon="2.33959">
        <ele>417</ele>
        <time>2025-09-16T13:26:26Z</time>
      </trkpt>
      <trkpt lat="43.66157" lon="2.33961">
        <ele>417.2</ele>
        <time>2025-09-16T13:26:27Z</time>
      </trkpt>
      <trkpt lat="43.66158" lon="2.33963">
        <ele>417.4</ele>
        <time>2025-09-16T13:26:28Z</time>
      </trkpt>
      <trkpt lat="43.66159" lon="2.33964">
        <ele>417.6</ele>
        <time>2025-09-16T13:26:29Z</time>
      </trkpt>
      <trkpt lat="43.66159" lon="2.33966">
        <ele>417.8</ele>
        <time>2025-09-16T13:26:30Z</time>
      </trkpt>
      <trkpt lat="43.6616" lon="2.33968">
        <ele>417.8</ele>
        <time>2025-09-16T13:26:31Z</time>
      </trkpt>
      <trkpt lat="43.6616" lon="2.33969">
        <ele>418</ele>
        <time>2025-09-16T13:26:32Z</time>
      </trkpt>
      <trkpt lat="43.66161" lon="2.33971">
        <ele>418.2</ele>
        <time>2025-09-16T13:26:33Z</time>
      </trkpt>
      <trkpt lat="43.66161" lon="2.33973">
        <ele>418.4</ele>
        <time>2025-09-16T13:26:34Z</time>
      </trkpt>
      <trkpt lat="43.66162" lon="2.33975">
        <ele>418.4</ele>
        <time>2025-09-16T13:26:35Z</time>
      </trkpt>
      <trkpt lat="43.66163" lon="2.33976">
        <ele>418.6</ele>
        <time>2025-09-16T13:26:36Z</time>
      </trkpt>
      <trkpt lat="43.66164" lon="2.33978">
        <ele>418.6</ele>
        <time>2025-09-16T13:26:37Z</time>
      </trkpt>
      <trkpt lat="43.66165" lon="2.3398">
        <ele>418.8</ele>
        <time>2025-09-16T13:26:38Z</time>
      </trkpt>
      <trkpt lat="43.66166" lon="2.33982">
        <ele>418.8</ele>
        <time>2025-09-16T13:26:39Z</time>
      </trkpt>
      <trkpt lat="43.66166" lon="2.33984">
        <ele>419</ele>
        <time>2025-09-16T13:26:40Z</time>
      </trkpt>
      <trkpt lat="43.66167" lon="2.33986">
        <ele>419.2</ele>
        <time>2025-09-16T13:26:41Z</time>
      </trkpt>
      <trkpt lat="43.66167" lon="2.33987">
        <ele>419.2</ele>
        <time>2025-09-16T13:26:42Z</time>
      </trkpt>
      <trkpt lat="43.66168" lon="2.33989">
        <ele>419.4</ele>
        <time>2025-09-16T13:26:43Z</time>
      </trkpt>
      <trkpt lat="43.66168" lon="2.33991">
        <ele>419.6</ele>
        <time>2025-09-16T13:26:44Z</time>
      </trkpt>
      <trkpt lat="43.66169" lon="2.33992">
        <ele>419.6</ele>
        <time>2025-09-16T13:26:45Z</time>
      </trkpt>
      <trkpt lat="43.6617" lon="2.33994">
        <ele>419.6</ele>
        <time>2025-09-16T13:26:46Z</time>
      </trkpt>
      <trkpt lat="43.6617" lon="2.33997">
        <ele>419.8</ele>
        <time>2025-09-16T13:26:47Z</time>
      </trkpt>
      <trkpt lat="43.66171" lon="2.33999">
        <ele>419.8</ele>
        <time>2025-09-16T13:26:48Z</time>
      </trkpt>
      <trkpt lat="43.66172" lon="2.34002">
        <ele>419.8</ele>
        <time>2025-09-16T13:26:49Z</time>
      </trkpt>
      <trkpt lat="43.66173" lon="2.34004">
        <ele>419.8</ele>
        <time>2025-09-16T13:26:50Z</time>
      </trkpt>
      <trkpt lat="43.66175" lon="2.34006">
        <ele>419.8</ele>
        <time>2025-09-16T13:26:51Z</time>
      </trkpt>
      <trkpt lat="43.66176" lon="2.34007">
        <ele>419.8</ele>
        <time>2025-09-16T13:26:52Z</time>
      </trkpt>
      <trkpt lat="43.66177" lon="2.34009">
        <ele>419.8</ele>
        <time>2025-09-16T13:26:53Z</time>
      </trkpt>
      <trkpt lat="43.66178" lon="2.34012">
        <ele>419.8</ele>
        <time>2025-09-16T13:26:54Z</time>
      </trkpt>
      <trkpt lat="43.66179" lon="2.34013">
        <ele>420</ele>
        <time>2025-09-16T13:26:55Z</time>
      </trkpt>
      <trkpt lat="43.66179" lon="2.34015">
        <ele>420</ele>
        <time>2025-09-16T13:26:56Z</time>
      </trkpt>
      <trkpt lat="43.6618" lon="2.34017">
        <ele>420</ele>
        <time>2025-09-16T13:26:57Z</time>
      </trkpt>
      <trkpt lat="43.66181" lon="2.34018">
        <ele>420</ele>
        <time>2025-09-16T13:26:58Z</time>
      </trkpt>
      <trkpt lat="43.66181" lon="2.3402">
        <ele>420.2</ele>
        <time>2025-09-16T13:26:59Z</time>
      </trkpt>
      <trkpt lat="43.66182" lon="2.34022">
        <ele>420.2</ele>
        <time>2025-09-16T13:27:00Z</time>
      </trkpt>
      <trkpt lat="43.66183" lon="2.34023">
        <ele>420.2</ele>
        <time>2025-09-16T13:27:01Z</time>
      </trkpt>
      <trkpt lat="43.66184" lon="2.34025">
        <ele>420.2</ele>
        <time>2025-09-16T13:27:02Z</time>
      </trkpt>
      <trkpt lat="43.66185" lon="2.34026">
        <ele>420.4</ele>
        <time>2025-09-16T13:27:03Z</time>
      </trkpt>
      <trkpt lat="43.66186" lon="2.34028">
        <ele>420.4</ele>
        <time>2025-09-16T13:27:04Z</time>
      </trkpt>
      <trkpt lat="43.66186" lon="2.34028">
        <ele>420.6</ele>
        <time>2025-09-16T13:27:05Z</time>
      </trkpt>
      <trkpt lat="43.66187" lon="2.34029">
        <ele>420.6</ele>
        <time>2025-09-16T13:27:06Z</time>
      </trkpt>
      <trkpt lat="43.66188" lon="2.34031">
        <ele>420.8</ele>
        <time>2025-09-16T13:27:07Z</time>
      </trkpt>
      <trkpt lat="43.66189" lon="2.34032">
        <ele>420.8</ele>
        <time>2025-09-16T13:27:08Z</time>
      </trkpt>
      <trkpt lat="43.6619" lon="2.34034">
        <ele>421</ele>
        <time>2025-09-16T13:27:09Z</time>
      </trkpt>
      <trkpt lat="43.66191" lon="2.34035">
        <ele>421.2</ele>
        <time>2025-09-16T13:27:10Z</time>
      </trkpt>
      <trkpt lat="43.66192" lon="2.34037">
        <ele>421.2</ele>
        <time>2025-09-16T13:27:11Z</time>
      </trkpt>
      <trkpt lat="43.66193" lon="2.34039">
        <ele>421.4</ele>
        <time>2025-09-16T13:27:12Z</time>
      </trkpt>
      <trkpt lat="43.66194" lon="2.3404">
        <ele>421.6</ele>
        <time>2025-09-16T13:27:13Z</time>
      </trkpt>
      <trkpt lat="43.66195" lon="2.34041">
        <ele>421.6</ele>
        <time>2025-09-16T13:27:14Z</time>
      </trkpt>
      <trkpt lat="43.66196" lon="2.34042">
        <ele>421.8</ele>
        <time>2025-09-16T13:27:15Z</time>
      </trkpt>
      <trkpt lat="43.66198" lon="2.34043">
        <ele>422</ele>
        <time>2025-09-16T13:27:16Z</time>
      </trkpt>
      <trkpt lat="43.66199" lon="2.34045">
        <ele>422.2</ele>
        <time>2025-09-16T13:27:17Z</time>
      </trkpt>
      <trkpt lat="43.662" lon="2.34047">
        <ele>422.2</ele>
        <time>2025-09-16T13:27:18Z</time>
      </trkpt>
      <trkpt lat="43.66201" lon="2.34049">
        <ele>422.4</ele>
        <time>2025-09-16T13:27:19Z</time>
      </trkpt>
      <trkpt lat="43.66202" lon="2.34051">
        <ele>422.4</ele>
        <time>2025-09-16T13:27:20Z</time>
      </trkpt>
      <trkpt lat="43.66203" lon="2.34053">
        <ele>422.6</ele>
        <time>2025-09-16T13:27:21Z</time>
      </trkpt>
      <trkpt lat="43.66205" lon="2.34054">
        <ele>422.6</ele>
        <time>2025-09-16T13:27:22Z</time>
      </trkpt>
      <trkpt lat="43.66206" lon="2.34057">
        <ele>422.8</ele>
        <time>2025-09-16T13:27:23Z</time>
      </trkpt>
      <trkpt lat="43.66208" lon="2.34059">
        <ele>422.8</ele>
        <time>2025-09-16T13:27:24Z</time>
      </trkpt>
      <trkpt lat="43.66209" lon="2.34061">
        <ele>422.8</ele>
        <time>2025-09-16T13:27:25Z</time>
      </trkpt>
      <trkpt lat="43.66211" lon="2.34062">
        <ele>423</ele>
        <time>2025-09-16T13:27:26Z</time>
      </trkpt>
      <trkpt lat="43.66212" lon="2.34064">
        <ele>423</ele>
        <time>2025-09-16T13:27:27Z</time>
      </trkpt>
      <trkpt lat="43.66214" lon="2.34065">
        <ele>423.2</ele>
        <time>2025-09-16T13:27:28Z</time>
      </trkpt>
      <trkpt lat="43.66215" lon="2.34067">
        <ele>423.2</ele>
        <time>2025-09-16T13:27:29Z</time>
      </trkpt>
      <trkpt lat="43.66216" lon="2.34069">
        <ele>423.4</ele>
        <time>2025-09-16T13:27:30Z</time>
      </trkpt>
      <trkpt lat="43.66217" lon="2.34071">
        <ele>423.4</ele>
        <time>2025-09-16T13:27:31Z</time>
      </trkpt>
      <trkpt lat="43.66218" lon="2.34073">
        <ele>423.6</ele>
        <time>2025-09-16T13:27:32Z</time>
      </trkpt>
      <trkpt lat="43.6622" lon="2.34075">
        <ele>423.6</ele>
        <time>2025-09-16T13:27:33Z</time>
      </trkpt>
      <trkpt lat="43.66221" lon="2.34077">
        <ele>423.8</ele>
        <time>2025-09-16T13:27:34Z</time>
      </trkpt>
      <trkpt lat="43.66222" lon="2.34079">
        <ele>423.8</ele>
        <time>2025-09-16T13:27:35Z</time>
      </trkpt>
      <trkpt lat="43.66223" lon="2.3408">
        <ele>424</ele>
        <time>2025-09-16T13:27:36Z</time>
      </trkpt>
      <trkpt lat="43.66224" lon="2.34082">
        <ele>424</ele>
        <time>2025-09-16T13:27:37Z</time>
      </trkpt>
      <trkpt lat="43.66224" lon="2.34084">
        <ele>424.2</ele>
        <time>2025-09-16T13:27:38Z</time>
      </trkpt>
      <trkpt lat="43.66225" lon="2.34086">
        <ele>424.2</ele>
        <time>2025-09-16T13:27:39Z</time>
      </trkpt>
      <trkpt lat="43.66226" lon="2.34088">
        <ele>424.4</ele>
        <time>2025-09-16T13:27:40Z</time>
      </trkpt>
      <trkpt lat="43.66227" lon="2.3409">
        <ele>424.6</ele>
        <time>2025-09-16T13:27:41Z</time>
      </trkpt>
      <trkpt lat="43.66227" lon="2.34091">
        <ele>424.8</ele>
        <time>2025-09-16T13:27:42Z</time>
      </trkpt>
      <trkpt lat="43.66227" lon="2.34093">
        <ele>425</ele>
        <time>2025-09-16T13:27:43Z</time>
      </trkpt>
      <trkpt lat="43.66228" lon="2.34094">
        <ele>425.2</ele>
        <time>2025-09-16T13:27:44Z</time>
      </trkpt>
      <trkpt lat="43.66227" lon="2.34096">
        <ele>425.2</ele>
        <time>2025-09-16T13:27:45Z</time>
      </trkpt>
      <trkpt lat="43.66227" lon="2.34098">
        <ele>425.4</ele>
        <time>2025-09-16T13:27:46Z</time>
      </trkpt>
      <trkpt lat="43.66228" lon="2.34099">
        <ele>425.6</ele>
        <time>2025-09-16T13:27:47Z</time>
      </trkpt>
      <trkpt lat="43.66229" lon="2.34101">
        <ele>425.8</ele>
        <time>2025-09-16T13:27:48Z</time>
      </trkpt>
      <trkpt lat="43.66229" lon="2.34103">
        <ele>426</ele>
        <time>2025-09-16T13:27:49Z</time>
      </trkpt>
      <trkpt lat="43.6623" lon="2.34105">
        <ele>426</ele>
        <time>2025-09-16T13:27:50Z</time>
      </trkpt>
      <trkpt lat="43.6623" lon="2.34107">
        <ele>426.2</ele>
        <time>2025-09-16T13:27:51Z</time>
      </trkpt>
      <trkpt lat="43.6623" lon="2.34109">
        <ele>426.4</ele>
        <time>2025-09-16T13:27:52Z</time>
      </trkpt>
      <trkpt lat="43.6623" lon="2.3411">
        <ele>426.6</ele>
        <time>2025-09-16T13:27:53Z</time>
      </trkpt>
      <trkpt lat="43.6623" lon="2.34112">
        <ele>426.8</ele>
        <time>2025-09-16T13:27:54Z</time>
      </trkpt>
      <trkpt lat="43.66231" lon="2.34114">
        <ele>426.8</ele>
        <time>2025-09-16T13:27:55Z</time>
      </trkpt>
      <trkpt lat="43.66231" lon="2.34116">
        <ele>427</ele>
        <time>2025-09-16T13:27:56Z</time>
      </trkpt>
      <trkpt lat="43.66232" lon="2.34118">
        <ele>427.2</ele>
        <time>2025-09-16T13:27:57Z</time>
      </trkpt>
      <trkpt lat="43.66232" lon="2.3412">
        <ele>427.4</ele>
        <time>2025-09-16T13:27:58Z</time>
      </trkpt>
      <trkpt lat="43.66232" lon="2.34122">
        <ele>427.4</ele>
        <time>2025-09-16T13:27:59Z</time>
      </trkpt>
      <trkpt lat="43.66232" lon="2.34124">
        <ele>427.6</ele>
        <time>2025-09-16T13:28:00Z</time>
      </trkpt>
      <trkpt lat="43.66233" lon="2.34126">
        <ele>427.8</ele>
        <time>2025-09-16T13:28:01Z</time>
      </trkpt>
      <trkpt lat="43.66234" lon="2.34128">
        <ele>427.8</ele>
        <time>2025-09-16T13:28:02Z</time>
      </trkpt>
      <trkpt lat="43.66235" lon="2.3413">
        <ele>428</ele>
        <time>2025-09-16T13:28:03Z</time>
      </trkpt>
      <trkpt lat="43.66235" lon="2.34132">
        <ele>428.2</ele>
        <time>2025-09-16T13:28:04Z</time>
      </trkpt>
      <trkpt lat="43.66235" lon="2.34133">
        <ele>428.4</ele>
        <time>2025-09-16T13:28:05Z</time>
      </trkpt>
      <trkpt lat="43.66236" lon="2.34135">
        <ele>428.4</ele>
        <time>2025-09-16T13:28:06Z</time>
      </trkpt>
      <trkpt lat="43.66236" lon="2.34137">
        <ele>428.6</ele>
        <time>2025-09-16T13:28:07Z</time>
      </trkpt>
      <trkpt lat="43.66236" lon="2.34139">
        <ele>428.8</ele>
        <time>2025-09-16T13:28:08Z</time>
      </trkpt>
      <trkpt lat="43.66236" lon="2.34141">
        <ele>428.8</ele>
        <time>2025-09-16T13:28:09Z</time>
      </trkpt>
      <trkpt lat="43.66237" lon="2.34142">
        <ele>429</ele>
        <time>2025-09-16T13:28:10Z</time>
      </trkpt>
      <trkpt lat="43.66236" lon="2.34143">
        <ele>429.2</ele>
        <time>2025-09-16T13:28:11Z</time>
      </trkpt>
      <trkpt lat="43.66236" lon="2.34146">
        <ele>429.2</ele>
        <time>2025-09-16T13:28:12Z</time>
      </trkpt>
      <trkpt lat="43.66236" lon="2.34147">
        <ele>429.4</ele>
        <time>2025-09-16T13:28:13Z</time>
      </trkpt>
      <trkpt lat="43.66236" lon="2.34149">
        <ele>429.6</ele>
        <time>2025-09-16T13:28:14Z</time>
      </trkpt>
      <trkpt lat="43.66237" lon="2.34151">
        <ele>429.6</ele>
        <time>2025-09-16T13:28:15Z</time>
      </trkpt>
      <trkpt lat="43.66237" lon="2.34153">
        <ele>429.8</ele>
        <time>2025-09-16T13:28:16Z</time>
      </trkpt>
      <trkpt lat="43.66237" lon="2.34155">
        <ele>429.8</ele>
        <time>2025-09-16T13:28:17Z</time>
      </trkpt>
      <trkpt lat="43.66238" lon="2.34157">
        <ele>430</ele>
        <time>2025-09-16T13:28:18Z</time>
      </trkpt>
      <trkpt lat="43.66237" lon="2.3416">
        <ele>430</ele>
        <time>2025-09-16T13:28:19Z</time>
      </trkpt>
      <trkpt lat="43.66238" lon="2.34162">
        <ele>430.2</ele>
        <time>2025-09-16T13:28:20Z</time>
      </trkpt>
      <trkpt lat="43.66238" lon="2.34165">
        <ele>430.2</ele>
        <time>2025-09-16T13:28:21Z</time>
      </trkpt>
      <trkpt lat="43.66239" lon="2.34167">
        <ele>430.4</ele>
        <time>2025-09-16T13:28:22Z</time>
      </trkpt>
      <trkpt lat="43.6624" lon="2.34169">
        <ele>430.6</ele>
        <time>2025-09-16T13:28:23Z</time>
      </trkpt>
      <trkpt lat="43.66241" lon="2.34171">
        <ele>430.6</ele>
        <time>2025-09-16T13:28:24Z</time>
      </trkpt>
      <trkpt lat="43.66242" lon="2.34173">
        <ele>430.8</ele>
        <time>2025-09-16T13:28:25Z</time>
      </trkpt>
      <trkpt lat="43.66243" lon="2.34175">
        <ele>431</ele>
        <time>2025-09-16T13:28:26Z</time>
      </trkpt>
      <trkpt lat="43.66244" lon="2.34177">
        <ele>431</ele>
        <time>2025-09-16T13:28:27Z</time>
      </trkpt>
      <trkpt lat="43.66245" lon="2.34179">
        <ele>431.2</ele>
        <time>2025-09-16T13:28:28Z</time>
      </trkpt>
      <trkpt lat="43.66246" lon="2.34181">
        <ele>431.2</ele>
        <time>2025-09-16T13:28:29Z</time>
      </trkpt>
      <trkpt lat="43.66247" lon="2.34182">
        <ele>431.4</ele>
        <time>2025-09-16T13:28:30Z</time>
      </trkpt>
      <trkpt lat="43.66247" lon="2.34183">
        <ele>431.4</ele>
        <time>2025-09-16T13:28:31Z</time>
      </trkpt>
      <trkpt lat="43.66247" lon="2.34184">
        <ele>431.6</ele>
        <time>2025-09-16T13:28:32Z</time>
      </trkpt>
      <trkpt lat="43.66247" lon="2.34186">
        <ele>431.8</ele>
        <time>2025-09-16T13:28:33Z</time>
      </trkpt>
      <trkpt lat="43.66248" lon="2.34187">
        <ele>431.8</ele>
        <time>2025-09-16T13:28:34Z</time>
      </trkpt>
      <trkpt lat="43.66248" lon="2.3419">
        <ele>432</ele>
        <time>2025-09-16T13:28:35Z</time>
      </trkpt>
      <trkpt lat="43.66247" lon="2.34192">
        <ele>432.2</ele>
        <time>2025-09-16T13:28:36Z</time>
      </trkpt>
      <trkpt lat="43.66246" lon="2.34193">
        <ele>432.2</ele>
        <time>2025-09-16T13:28:37Z</time>
      </trkpt>
      <trkpt lat="43.66244" lon="2.34194">
        <ele>432.4</ele>
        <time>2025-09-16T13:28:38Z</time>
      </trkpt>
      <trkpt lat="43.66244" lon="2.34196">
        <ele>432.4</ele>
        <time>2025-09-16T13:28:39Z</time>
      </trkpt>
      <trkpt lat="43.66243" lon="2.34197">
        <ele>432.8</ele>
        <time>2025-09-16T13:28:40Z</time>
      </trkpt>
      <trkpt lat="43.66243" lon="2.34198">
        <ele>433</ele>
        <time>2025-09-16T13:28:41Z</time>
      </trkpt>
      <trkpt lat="43.66242" lon="2.342">
        <ele>433.2</ele>
        <time>2025-09-16T13:28:42Z</time>
      </trkpt>
      <trkpt lat="43.66241" lon="2.34203">
        <ele>433.4</ele>
        <time>2025-09-16T13:28:43Z</time>
      </trkpt>
      <trkpt lat="43.66241" lon="2.34205">
        <ele>433.6</ele>
        <time>2025-09-16T13:28:44Z</time>
      </trkpt>
      <trkpt lat="43.6624" lon="2.34207">
        <ele>434</ele>
        <time>2025-09-16T13:28:45Z</time>
      </trkpt>
      <trkpt lat="43.66239" lon="2.34208">
        <ele>434.2</ele>
        <time>2025-09-16T13:28:46Z</time>
      </trkpt>
      <trkpt lat="43.66239" lon="2.34209">
        <ele>434.6</ele>
        <time>2025-09-16T13:28:47Z</time>
      </trkpt>
      <trkpt lat="43.66238" lon="2.3421">
        <ele>434.8</ele>
        <time>2025-09-16T13:28:48Z</time>
      </trkpt>
      <trkpt lat="43.66238" lon="2.3421">
        <ele>435</ele>
        <time>2025-09-16T13:28:49Z</time>
      </trkpt>
      <trkpt lat="43.6623" lon="2.34199">
        <ele>440.4</ele>
        <time>2025-09-16T13:29:43Z</time>
      </trkpt>
      <trkpt lat="43.66229" lon="2.34197">
        <ele>440.4</ele>
        <time>2025-09-16T13:29:44Z</time>
      </trkpt>
      <trkpt lat="43.66229" lon="2.34194">
        <ele>440.4</ele>
        <time>2025-09-16T13:29:45Z</time>
      </trkpt>
      <trkpt lat="43.66229" lon="2.34191">
        <ele>440.4</ele>
        <time>2025-09-16T13:29:46Z</time>
      </trkpt>
      <trkpt lat="43.66229" lon="2.34188">
        <ele>440.4</ele>
        <time>2025-09-16T13:29:47Z</time>
      </trkpt>
      <trkpt lat="43.66228" lon="2.34185">
        <ele>440.2</ele>
        <time>2025-09-16T13:29:48Z</time>
      </trkpt>
      <trkpt lat="43.66227" lon="2.34183">
        <ele>440.2</ele>
        <time>2025-09-16T13:29:49Z</time>
      </trkpt>
      <trkpt lat="43.66227" lon="2.3418">
        <ele>440.2</ele>
        <time>2025-09-16T13:29:50Z</time>
      </trkpt>
      <trkpt lat="43.66227" lon="2.34177">
        <ele>440.2</ele>
        <time>2025-09-16T13:29:51Z</time>
      </trkpt>
      <trkpt lat="43.66225" lon="2.34174">
        <ele>440.2</ele>
        <time>2025-09-16T13:29:52Z</time>
      </trkpt>
      <trkpt lat="43.66224" lon="2.3417">
        <ele>440.2</ele>
        <time>2025-09-16T13:29:53Z</time>
      </trkpt>
      <trkpt lat="43.66223" lon="2.34167">
        <ele>440.2</ele>
        <time>2025-09-16T13:29:54Z</time>
      </trkpt>
      <trkpt lat="43.66222" lon="2.34164">
        <ele>440.2</ele>
        <time>2025-09-16T13:29:55Z</time>
      </trkpt>
      <trkpt lat="43.66221" lon="2.34161">
        <ele>440.2</ele>
        <time>2025-09-16T13:29:56Z</time>
      </trkpt>
      <trkpt lat="43.6622" lon="2.34157">
        <ele>440.2</ele>
        <time>2025-09-16T13:29:57Z</time>
      </trkpt>
      <trkpt lat="43.66219" lon="2.34154">
        <ele>440.2</ele>
        <time>2025-09-16T13:29:58Z</time>
      </trkpt>
      <trkpt lat="43.66217" lon="2.34152">
        <ele>440.2</ele>
        <time>2025-09-16T13:29:59Z</time>
      </trkpt>
      <trkpt lat="43.66216" lon="2.34149">
        <ele>440.4</ele>
        <time>2025-09-16T13:30:00Z</time>
      </trkpt>
      <trkpt lat="43.66214" lon="2.34146">
        <ele>440.4</ele>
        <time>2025-09-16T13:30:01Z</time>
      </trkpt>
      <trkpt lat="43.66214" lon="2.34142">
        <ele>440.4</ele>
        <time>2025-09-16T13:30:02Z</time>
      </trkpt>
      <trkpt lat="43.66212" lon="2.34139">
        <ele>440.6</ele>
        <time>2025-09-16T13:30:03Z</time>
      </trkpt>
      <trkpt lat="43.6621" lon="2.34137">
        <ele>440.6</ele>
        <time>2025-09-16T13:30:04Z</time>
      </trkpt>
      <trkpt lat="43.66209" lon="2.34135">
        <ele>440.6</ele>
        <time>2025-09-16T13:30:05Z</time>
      </trkpt>
      <trkpt lat="43.66208" lon="2.34133">
        <ele>440.6</ele>
        <time>2025-09-16T13:30:06Z</time>
      </trkpt>
      <trkpt lat="43.66207" lon="2.3413">
        <ele>440.6</ele>
        <time>2025-09-16T13:30:07Z</time>
      </trkpt>
      <trkpt lat="43.66206" lon="2.34127">
        <ele>440.6</ele>
        <time>2025-09-16T13:30:08Z</time>
      </trkpt>
      <trkpt lat="43.66205" lon="2.34124">
        <ele>440.6</ele>
        <time>2025-09-16T13:30:09Z</time>
      </trkpt>
      <trkpt lat="43.66203" lon="2.34121">
        <ele>440.8</ele>
        <time>2025-09-16T13:30:10Z</time>
      </trkpt>
      <trkpt lat="43.66202" lon="2.34118">
        <ele>440.8</ele>
        <time>2025-09-16T13:30:11Z</time>
      </trkpt>
      <trkpt lat="43.662" lon="2.34115">
        <ele>440.8</ele>
        <time>2025-09-16T13:30:12Z</time>
      </trkpt>
      <trkpt lat="43.66197" lon="2.34113">
        <ele>440.8</ele>
        <time>2025-09-16T13:30:13Z</time>
      </trkpt>
      <trkpt lat="43.66195" lon="2.34112">
        <ele>441</ele>
        <time>2025-09-16T13:30:14Z</time>
      </trkpt>
      <trkpt lat="43.66194" lon="2.3411">
        <ele>441</ele>
        <time>2025-09-16T13:30:15Z</time>
      </trkpt>
      <trkpt lat="43.66192" lon="2.34108">
        <ele>441</ele>
        <time>2025-09-16T13:30:16Z</time>
      </trkpt>
      <trkpt lat="43.6619" lon="2.34105">
        <ele>441</ele>
        <time>2025-09-16T13:30:17Z</time>
      </trkpt>
      <trkpt lat="43.66188" lon="2.34103">
        <ele>441</ele>
        <time>2025-09-16T13:30:18Z</time>
      </trkpt>
      <trkpt lat="43.66185" lon="2.34101">
        <ele>441</ele>
        <time>2025-09-16T13:30:19Z</time>
      </trkpt>
      <trkpt lat="43.66183" lon="2.34099">
        <ele>441</ele>
        <time>2025-09-16T13:30:20Z</time>
      </trkpt>
      <trkpt lat="43.66181" lon="2.34097">
        <ele>441</ele>
        <time>2025-09-16T13:30:21Z</time>
      </trkpt>
      <trkpt lat="43.66179" lon="2.34095">
        <ele>441</ele>
        <time>2025-09-16T13:30:22Z</time>
      </trkpt>
      <trkpt lat="43.66178" lon="2.34093">
        <ele>440.8</ele>
        <time>2025-09-16T13:30:23Z</time>
      </trkpt>
      <trkpt lat="43.66176" lon="2.34091">
        <ele>440.8</ele>
        <time>2025-09-16T13:30:24Z</time>
      </trkpt>
      <trkpt lat="43.66173" lon="2.34088">
        <ele>440.8</ele>
        <time>2025-09-16T13:30:25Z</time>
      </trkpt>
      <trkpt lat="43.66171" lon="2.34085">
        <ele>440.6</ele>
        <time>2025-09-16T13:30:26Z</time>
      </trkpt>
      <trkpt lat="43.66168" lon="2.34082">
        <ele>440.6</ele>
        <time>2025-09-16T13:30:27Z</time>
      </trkpt>
      <trkpt lat="43.66165" lon="2.34079">
        <ele>440.6</ele>
        <time>2025-09-16T13:30:28Z</time>
      </trkpt>
      <trkpt lat="43.66164" lon="2.34076">
        <ele>440.6</ele>
        <time>2025-09-16T13:30:29Z</time>
      </trkpt>
      <trkpt lat="43.66161" lon="2.34074">
        <ele>440.4</ele>
        <time>2025-09-16T13:30:30Z</time>
      </trkpt>
      <trkpt lat="43.66159" lon="2.34069">
        <ele>440.4</ele>
        <time>2025-09-16T13:30:31Z</time>
      </trkpt>
      <trkpt lat="43.66157" lon="2.34065">
        <ele>440.4</ele>
        <time>2025-09-16T13:30:32Z</time>
      </trkpt>
      <trkpt lat="43.66156" lon="2.34061">
        <ele>440.4</ele>
        <time>2025-09-16T13:30:33Z</time>
      </trkpt>
      <trkpt lat="43.66154" lon="2.34058">
        <ele>440.6</ele>
        <time>2025-09-16T13:30:34Z</time>
      </trkpt>
      <trkpt lat="43.66152" lon="2.34054">
        <ele>440.6</ele>
        <time>2025-09-16T13:30:35Z</time>
      </trkpt>
      <trkpt lat="43.6615" lon="2.3405">
        <ele>440.6</ele>
        <time>2025-09-16T13:30:36Z</time>
      </trkpt>
      <trkpt lat="43.66147" lon="2.34047">
        <ele>440.4</ele>
        <time>2025-09-16T13:30:37Z</time>
      </trkpt>
      <trkpt lat="43.66145" lon="2.34043">
        <ele>440.4</ele>
        <time>2025-09-16T13:30:38Z</time>
      </trkpt>
      <trkpt lat="43.66142" lon="2.3404">
        <ele>440.4</ele>
        <time>2025-09-16T13:30:39Z</time>
      </trkpt>
      <trkpt lat="43.66142" lon="2.34037">
        <ele>440.4</ele>
        <time>2025-09-16T13:30:40Z</time>
      </trkpt>
      <trkpt lat="43.66142" lon="2.34033">
        <ele>440.6</ele>
        <time>2025-09-16T13:30:41Z</time>
      </trkpt>
      <trkpt lat="43.6614" lon="2.34028">
        <ele>440.6</ele>
        <time>2025-09-16T13:30:42Z</time>
      </trkpt>
      <trkpt lat="43.66139" lon="2.34024">
        <ele>440.4</ele>
        <time>2025-09-16T13:30:43Z</time>
      </trkpt>
      <trkpt lat="43.66134" lon="2.34019">
        <ele>440.4</ele>
        <time>2025-09-16T13:30:44Z</time>
      </trkpt>
      <trkpt lat="43.66133" lon="2.34017">
        <ele>440.4</ele>
        <time>2025-09-16T13:30:45Z</time>
      </trkpt>
      <trkpt lat="43.66131" lon="2.34014">
        <ele>440.4</ele>
        <time>2025-09-16T13:30:46Z</time>
      </trkpt>
      <trkpt lat="43.66129" lon="2.34011">
        <ele>440.2</ele>
        <time>2025-09-16T13:30:47Z</time>
      </trkpt>
      <trkpt lat="43.66127" lon="2.34008">
        <ele>440.4</ele>
        <time>2025-09-16T13:30:48Z</time>
      </trkpt>
      <trkpt lat="43.66125" lon="2.34005">
        <ele>440.4</ele>
        <time>2025-09-16T13:30:49Z</time>
      </trkpt>
      <trkpt lat="43.66124" lon="2.34003">
        <ele>440.4</ele>
        <time>2025-09-16T13:30:50Z</time>
      </trkpt>
      <trkpt lat="43.66123" lon="2.34001">
        <ele>440.4</ele>
        <time>2025-09-16T13:30:51Z</time>
      </trkpt>
      <trkpt lat="43.66122" lon="2.33998">
        <ele>440.4</ele>
        <time>2025-09-16T13:30:52Z</time>
      </trkpt>
      <trkpt lat="43.6612" lon="2.33995">
        <ele>440.4</ele>
        <time>2025-09-16T13:30:53Z</time>
      </trkpt>
      <trkpt lat="43.66118" lon="2.33992">
        <ele>440.6</ele>
        <time>2025-09-16T13:30:54Z</time>
      </trkpt>
      <trkpt lat="43.66116" lon="2.33989">
        <ele>440.6</ele>
        <time>2025-09-16T13:30:55Z</time>
      </trkpt>
      <trkpt lat="43.66114" lon="2.33986">
        <ele>440.6</ele>
        <time>2025-09-16T13:30:56Z</time>
      </trkpt>
      <trkpt lat="43.66112" lon="2.33983">
        <ele>440.6</ele>
        <time>2025-09-16T13:30:57Z</time>
      </trkpt>
      <trkpt lat="43.6611" lon="2.33979">
        <ele>440.6</ele>
        <time>2025-09-16T13:30:58Z</time>
      </trkpt>
      <trkpt lat="43.66109" lon="2.33976">
        <ele>440.6</ele>
        <time>2025-09-16T13:30:59Z</time>
      </trkpt>
      <trkpt lat="43.66107" lon="2.33972">
        <ele>440.6</ele>
        <time>2025-09-16T13:31:00Z</time>
      </trkpt>
      <trkpt lat="43.66105" lon="2.33968">
        <ele>440.6</ele>
        <time>2025-09-16T13:31:01Z</time>
      </trkpt>
      <trkpt lat="43.66103" lon="2.33964">
        <ele>440.4</ele>
        <time>2025-09-16T13:31:02Z</time>
      </trkpt>
      <trkpt lat="43.66101" lon="2.3396">
        <ele>440.4</ele>
        <time>2025-09-16T13:31:03Z</time>
      </trkpt>
      <trkpt lat="43.66099" lon="2.33956">
        <ele>440.2</ele>
        <time>2025-09-16T13:31:04Z</time>
      </trkpt>
      <trkpt lat="43.66096" lon="2.33952">
        <ele>440.2</ele>
        <time>2025-09-16T13:31:05Z</time>
      </trkpt>
      <trkpt lat="43.66094" lon="2.33948">
        <ele>440.2</ele>
        <time>2025-09-16T13:31:06Z</time>
      </trkpt>
      <trkpt lat="43.66092" lon="2.33945">
        <ele>440</ele>
        <time>2025-09-16T13:31:07Z</time>
      </trkpt>
      <trkpt lat="43.66091" lon="2.33941">
        <ele>440</ele>
        <time>2025-09-16T13:31:08Z</time>
      </trkpt>
      <trkpt lat="43.66089" lon="2.33937">
        <ele>440</ele>
        <time>2025-09-16T13:31:09Z</time>
      </trkpt>
      <trkpt lat="43.66087" lon="2.33934">
        <ele>440</ele>
        <time>2025-09-16T13:31:10Z</time>
      </trkpt>
      <trkpt lat="43.66085" lon="2.3393">
        <ele>440</ele>
        <time>2025-09-16T13:31:11Z</time>
      </trkpt>
      <trkpt lat="43.66083" lon="2.33927">
        <ele>440</ele>
        <time>2025-09-16T13:31:12Z</time>
      </trkpt>
      <trkpt lat="43.6608" lon="2.33923">
        <ele>440</ele>
        <time>2025-09-16T13:31:13Z</time>
      </trkpt>
      <trkpt lat="43.66078" lon="2.33919">
        <ele>439.8</ele>
        <time>2025-09-16T13:31:14Z</time>
      </trkpt>
      <trkpt lat="43.66075" lon="2.33915">
        <ele>439.8</ele>
        <time>2025-09-16T13:31:15Z</time>
      </trkpt>
      <trkpt lat="43.66074" lon="2.3391">
        <ele>439.6</ele>
        <time>2025-09-16T13:31:16Z</time>
      </trkpt>
      <trkpt lat="43.66071" lon="2.33907">
        <ele>439.6</ele>
        <time>2025-09-16T13:31:17Z</time>
      </trkpt>
      <trkpt lat="43.66067" lon="2.33903">
        <ele>439.6</ele>
        <time>2025-09-16T13:31:18Z</time>
      </trkpt>
      <trkpt lat="43.66063" lon="2.33898">
        <ele>439.6</ele>
        <time>2025-09-16T13:31:19Z</time>
      </trkpt>
      <trkpt lat="43.66061" lon="2.33896">
        <ele>439.6</ele>
        <time>2025-09-16T13:31:20Z</time>
      </trkpt>
      <trkpt lat="43.66059" lon="2.33893">
        <ele>439.6</ele>
        <time>2025-09-16T13:31:21Z</time>
      </trkpt>
      <trkpt lat="43.66057" lon="2.33892">
        <ele>439.6</ele>
        <time>2025-09-16T13:31:22Z</time>
      </trkpt>
      <trkpt lat="43.66055" lon="2.3389">
        <ele>439.6</ele>
        <time>2025-09-16T13:31:23Z</time>
      </trkpt>
      <trkpt lat="43.66052" lon="2.33887">
        <ele>439.6</ele>
        <time>2025-09-16T13:31:24Z</time>
      </trkpt>
      <trkpt lat="43.6605" lon="2.33885">
        <ele>439.6</ele>
        <time>2025-09-16T13:31:25Z</time>
      </trkpt>
      <trkpt lat="43.66048" lon="2.33884">
        <ele>439.6</ele>
        <time>2025-09-16T13:31:26Z</time>
      </trkpt>
      <trkpt lat="43.66046" lon="2.33882">
        <ele>439.6</ele>
        <time>2025-09-16T13:31:27Z</time>
      </trkpt>
      <trkpt lat="43.66043" lon="2.3388">
        <ele>439.6</ele>
        <time>2025-09-16T13:31:28Z</time>
      </trkpt>
      <trkpt lat="43.66041" lon="2.33879">
        <ele>439.8</ele>
        <time>2025-09-16T13:31:29Z</time>
      </trkpt>
      <trkpt lat="43.66039" lon="2.33878">
        <ele>439.8</ele>
        <time>2025-09-16T13:31:30Z</time>
      </trkpt>
      <trkpt lat="43.66037" lon="2.33877">
        <ele>440</ele>
        <time>2025-09-16T13:31:31Z</time>
      </trkpt>
      <trkpt lat="43.66035" lon="2.33877">
        <ele>440</ele>
        <time>2025-09-16T13:31:32Z</time>
      </trkpt>
      <trkpt lat="43.66033" lon="2.33876">
        <ele>440.2</ele>
        <time>2025-09-16T13:31:33Z</time>
      </trkpt>
      <trkpt lat="43.6603" lon="2.33875">
        <ele>440.2</ele>
        <time>2025-09-16T13:31:34Z</time>
      </trkpt>
      <trkpt lat="43.66028" lon="2.33874">
        <ele>440.2</ele>
        <time>2025-09-16T13:31:35Z</time>
      </trkpt>
      <trkpt lat="43.66026" lon="2.33874">
        <ele>440.4</ele>
        <time>2025-09-16T13:31:36Z</time>
      </trkpt>
      <trkpt lat="43.66024" lon="2.33874">
        <ele>440.4</ele>
        <time>2025-09-16T13:31:37Z</time>
      </trkpt>
      <trkpt lat="43.66023" lon="2.33874">
        <ele>440.6</ele>
        <time>2025-09-16T13:31:38Z</time>
      </trkpt>
      <trkpt lat="43.66021" lon="2.33875">
        <ele>440.6</ele>
        <time>2025-09-16T13:31:39Z</time>
      </trkpt>
      <trkpt lat="43.66018" lon="2.33876">
        <ele>440.8</ele>
        <time>2025-09-16T13:31:40Z</time>
      </trkpt>
      <trkpt lat="43.66016" lon="2.33877">
        <ele>441</ele>
        <time>2025-09-16T13:31:41Z</time>
      </trkpt>
      <trkpt lat="43.66015" lon="2.33879">
        <ele>441</ele>
        <time>2025-09-16T13:31:42Z</time>
      </trkpt>
      <trkpt lat="43.66013" lon="2.33881">
        <ele>441.2</ele>
        <time>2025-09-16T13:31:43Z</time>
      </trkpt>
      <trkpt lat="43.66013" lon="2.33883">
        <ele>441.2</ele>
        <time>2025-09-16T13:31:44Z</time>
      </trkpt>
      <trkpt lat="43.66012" lon="2.33886">
        <ele>441.4</ele>
        <time>2025-09-16T13:31:45Z</time>
      </trkpt>
      <trkpt lat="43.66012" lon="2.33888">
        <ele>441.4</ele>
        <time>2025-09-16T13:31:46Z</time>
      </trkpt>
      <trkpt lat="43.66013" lon="2.3389">
        <ele>441.6</ele>
        <time>2025-09-16T13:31:47Z</time>
      </trkpt>
      <trkpt lat="43.66013" lon="2.33891">
        <ele>441.8</ele>
        <time>2025-09-16T13:31:48Z</time>
      </trkpt>
      <trkpt lat="43.66013" lon="2.33892">
        <ele>442</ele>
        <time>2025-09-16T13:31:49Z</time>
      </trkpt>
      <trkpt lat="43.66013" lon="2.33895">
        <ele>442.4</ele>
        <time>2025-09-16T13:31:50Z</time>
      </trkpt>
      <trkpt lat="43.66013" lon="2.33897">
        <ele>442.6</ele>
        <time>2025-09-16T13:31:51Z</time>
      </trkpt>
      <trkpt lat="43.66013" lon="2.33898">
        <ele>443</ele>
        <time>2025-09-16T13:31:52Z</time>
      </trkpt>
      <trkpt lat="43.66013" lon="2.33899">
        <ele>443.2</ele>
        <time>2025-09-16T13:31:53Z</time>
      </trkpt>
      <trkpt lat="43.66014" lon="2.339">
        <ele>443.4</ele>
        <time>2025-09-16T13:31:54Z</time>
      </trkpt>
      <trkpt lat="43.66015" lon="2.339">
        <ele>443.6</ele>
        <time>2025-09-16T13:31:55Z</time>
      </trkpt>
      <trkpt lat="43.66016" lon="2.33902">
        <ele>443.8</ele>
        <time>2025-09-16T13:31:56Z</time>
      </trkpt>
      <trkpt lat="43.66029" lon="2.33925">
        <ele>446.8</ele>
        <time>2025-09-16T13:32:13Z</time>
      </trkpt>
      <trkpt lat="43.66029" lon="2.33926">
        <ele>446.8</ele>
        <time>2025-09-16T13:32:14Z</time>
      </trkpt>
      <trkpt lat="43.66029" lon="2.33927">
        <ele>447</ele>
        <time>2025-09-16T13:32:15Z</time>
      </trkpt>
      <trkpt lat="43.6603" lon="2.33929">
        <ele>447.4</ele>
        <time>2025-09-16T13:32:16Z</time>
      </trkpt>
      <trkpt lat="43.66031" lon="2.3393">
        <ele>447.4</ele>
        <time>2025-09-16T13:32:17Z</time>
      </trkpt>
      <trkpt lat="43.66032" lon="2.33931">
        <ele>447.6</ele>
        <time>2025-09-16T13:32:18Z</time>
      </trkpt>
      <trkpt lat="43.66033" lon="2.33932">
        <ele>447.8</ele>
        <time>2025-09-16T13:32:19Z</time>
      </trkpt>
      <trkpt lat="43.66033" lon="2.33933">
        <ele>448</ele>
        <time>2025-09-16T13:32:20Z</time>
      </trkpt>
      <trkpt lat="43.66034" lon="2.33934">
        <ele>448.2</ele>
        <time>2025-09-16T13:32:21Z</time>
      </trkpt>
      <trkpt lat="43.66034" lon="2.33936">
        <ele>448.2</ele>
        <time>2025-09-16T13:32:22Z</time>
      </trkpt>
      <trkpt lat="43.66035" lon="2.33937">
        <ele>448.4</ele>
        <time>2025-09-16T13:32:23Z</time>
      </trkpt>
      <trkpt lat="43.66036" lon="2.33939">
        <ele>448.6</ele>
        <time>2025-09-16T13:32:24Z</time>
      </trkpt>
      <trkpt lat="43.66037" lon="2.3394">
        <ele>448.6</ele>
        <time>2025-09-16T13:32:25Z</time>
      </trkpt>
      <trkpt lat="43.66038" lon="2.33942">
        <ele>448.8</ele>
        <time>2025-09-16T13:32:26Z</time>
      </trkpt>
      <trkpt lat="43.66038" lon="2.33943">
        <ele>448.8</ele>
        <time>2025-09-16T13:32:27Z</time>
      </trkpt>
      <trkpt lat="43.66039" lon="2.33945">
        <ele>449</ele>
        <time>2025-09-16T13:32:28Z</time>
      </trkpt>
      <trkpt lat="43.6604" lon="2.33946">
        <ele>449.2</ele>
        <time>2025-09-16T13:32:29Z</time>
      </trkpt>
      <trkpt lat="43.66041" lon="2.33948">
        <ele>449.2</ele>
        <time>2025-09-16T13:32:30Z</time>
      </trkpt>
      <trkpt lat="43.66041" lon="2.33949">
        <ele>449.4</ele>
        <time>2025-09-16T13:32:31Z</time>
      </trkpt>
      <trkpt lat="43.66042" lon="2.33951">
        <ele>449.4</ele>
        <time>2025-09-16T13:32:32Z</time>
      </trkpt>
      <trkpt lat="43.66042" lon="2.33953">
        <ele>449.6</ele>
        <time>2025-09-16T13:32:33Z</time>
      </trkpt>
      <trkpt lat="43.66043" lon="2.33955">
        <ele>449.8</ele>
        <time>2025-09-16T13:32:34Z</time>
      </trkpt>
      <trkpt lat="43.66044" lon="2.33957">
        <ele>449.8</ele>
        <time>2025-09-16T13:32:35Z</time>
      </trkpt>
      <trkpt lat="43.66044" lon="2.33959">
        <ele>450</ele>
        <time>2025-09-16T13:32:36Z</time>
      </trkpt>
      <trkpt lat="43.66044" lon="2.3396">
        <ele>450</ele>
        <time>2025-09-16T13:32:37Z</time>
      </trkpt>
      <trkpt lat="43.66044" lon="2.3396">
        <ele>450.2</ele>
        <time>2025-09-16T13:32:38Z</time>
      </trkpt>
      <trkpt lat="43.66045" lon="2.33962">
        <ele>450.2</ele>
        <time>2025-09-16T13:32:39Z</time>
      </trkpt>
      <trkpt lat="43.66045" lon="2.33964">
        <ele>450.4</ele>
        <time>2025-09-16T13:32:40Z</time>
      </trkpt>
      <trkpt lat="43.66046" lon="2.33966">
        <ele>450.6</ele>
        <time>2025-09-16T13:32:41Z</time>
      </trkpt>
      <trkpt lat="43.66046" lon="2.33968">
        <ele>450.6</ele>
        <time>2025-09-16T13:32:42Z</time>
      </trkpt>
      <trkpt lat="43.66047" lon="2.3397">
        <ele>450.8</ele>
        <time>2025-09-16T13:32:43Z</time>
      </trkpt>
      <trkpt lat="43.66047" lon="2.33972">
        <ele>450.8</ele>
        <time>2025-09-16T13:32:44Z</time>
      </trkpt>
      <trkpt lat="43.66048" lon="2.33974">
        <ele>450.8</ele>
        <time>2025-09-16T13:32:45Z</time>
      </trkpt>
      <trkpt lat="43.66048" lon="2.33975">
        <ele>451</ele>
        <time>2025-09-16T13:32:46Z</time>
      </trkpt>
      <trkpt lat="43.66049" lon="2.33977">
        <ele>451.2</ele>
        <time>2025-09-16T13:32:47Z</time>
      </trkpt>
      <trkpt lat="43.6605" lon="2.3398">
        <ele>451.2</ele>
        <time>2025-09-16T13:32:48Z</time>
      </trkpt>
      <trkpt lat="43.6605" lon="2.33981">
        <ele>451.4</ele>
        <time>2025-09-16T13:32:49Z</time>
      </trkpt>
      <trkpt lat="43.66051" lon="2.33983">
        <ele>451.6</ele>
        <time>2025-09-16T13:32:50Z</time>
      </trkpt>
      <trkpt lat="43.66051" lon="2.33985">
        <ele>451.6</ele>
        <time>2025-09-16T13:32:51Z</time>
      </trkpt>
      <trkpt lat="43.66052" lon="2.33988">
        <ele>451.8</ele>
        <time>2025-09-16T13:32:52Z</time>
      </trkpt>
      <trkpt lat="43.66052" lon="2.3399">
        <ele>452</ele>
        <time>2025-09-16T13:32:53Z</time>
      </trkpt>
      <trkpt lat="43.66052" lon="2.33992">
        <ele>452.2</ele>
        <time>2025-09-16T13:32:54Z</time>
      </trkpt>
      <trkpt lat="43.66053" lon="2.33994">
        <ele>452.2</ele>
        <time>2025-09-16T13:32:55Z</time>
      </trkpt>
      <trkpt lat="43.66054" lon="2.33995">
        <ele>452.4</ele>
        <time>2025-09-16T13:32:56Z</time>
      </trkpt>
      <trkpt lat="43.66054" lon="2.33997">
        <ele>452.6</ele>
        <time>2025-09-16T13:32:57Z</time>
      </trkpt>
      <trkpt lat="43.66054" lon="2.33998">
        <ele>452.8</ele>
        <time>2025-09-16T13:32:58Z</time>
      </trkpt>
      <trkpt lat="43.66055" lon="2.33999">
        <ele>452.8</ele>
        <time>2025-09-16T13:32:59Z</time>
      </trkpt>
      <trkpt lat="43.66056" lon="2.34002">
        <ele>453</ele>
        <time>2025-09-16T13:33:00Z</time>
      </trkpt>
      <trkpt lat="43.66057" lon="2.34004">
        <ele>453.2</ele>
        <time>2025-09-16T13:33:01Z</time>
      </trkpt>
      <trkpt lat="43.66058" lon="2.34006">
        <ele>453.4</ele>
        <time>2025-09-16T13:33:02Z</time>
      </trkpt>
      <trkpt lat="43.66058" lon="2.34007">
        <ele>453.4</ele>
        <time>2025-09-16T13:33:03Z</time>
      </trkpt>
      <trkpt lat="43.66059" lon="2.34008">
        <ele>453.6</ele>
        <time>2025-09-16T13:33:04Z</time>
      </trkpt>
      <trkpt lat="43.66059" lon="2.3401">
        <ele>453.8</ele>
        <time>2025-09-16T13:33:05Z</time>
      </trkpt>
      <trkpt lat="43.6606" lon="2.34012">
        <ele>454</ele>
        <time>2025-09-16T13:33:06Z</time>
      </trkpt>
      <trkpt lat="43.6606" lon="2.34013">
        <ele>454.2</ele>
        <time>2025-09-16T13:33:07Z</time>
      </trkpt>
      <trkpt lat="43.6606" lon="2.34014">
        <ele>454.2</ele>
        <time>2025-09-16T13:33:08Z</time>
      </trkpt>
      <trkpt lat="43.66061" lon="2.34016">
        <ele>454.4</ele>
        <time>2025-09-16T13:33:09Z</time>
      </trkpt>
      <trkpt lat="43.66061" lon="2.34018">
        <ele>454.6</ele>
        <time>2025-09-16T13:33:10Z</time>
      </trkpt>
      <trkpt lat="43.66061" lon="2.34019">
        <ele>454.8</ele>
        <time>2025-09-16T13:33:11Z</time>
      </trkpt>
      <trkpt lat="43.66061" lon="2.3402">
        <ele>455</ele>
        <time>2025-09-16T13:33:12Z</time>
      </trkpt>
      <trkpt lat="43.66061" lon="2.34022">
        <ele>455.2</ele>
        <time>2025-09-16T13:33:13Z</time>
      </trkpt>
      <trkpt lat="43.66061" lon="2.34023">
        <ele>455.4</ele>
        <time>2025-09-16T13:33:14Z</time>
      </trkpt>
      <trkpt lat="43.66062" lon="2.34025">
        <ele>455.4</ele>
        <time>2025-09-16T13:33:15Z</time>
      </trkpt>
      <trkpt lat="43.66063" lon="2.34026">
        <ele>455.6</ele>
        <time>2025-09-16T13:33:16Z</time>
      </trkpt>
      <trkpt lat="43.66063" lon="2.34028">
        <ele>455.8</ele>
        <time>2025-09-16T13:33:17Z</time>
      </trkpt>
      <trkpt lat="43.66064" lon="2.34029">
        <ele>456</ele>
        <time>2025-09-16T13:33:18Z</time>
      </trkpt>
      <trkpt lat="43.66065" lon="2.34031">
        <ele>456</ele>
        <time>2025-09-16T13:33:19Z</time>
      </trkpt>
      <trkpt lat="43.66065" lon="2.34033">
        <ele>456.2</ele>
        <time>2025-09-16T13:33:20Z</time>
      </trkpt>
      <trkpt lat="43.66066" lon="2.34034">
        <ele>456.4</ele>
        <time>2025-09-16T13:33:21Z</time>
      </trkpt>
      <trkpt lat="43.66066" lon="2.34036">
        <ele>456.4</ele>
        <time>2025-09-16T13:33:22Z</time>
      </trkpt>
      <trkpt lat="43.66067" lon="2.34038">
        <ele>456.6</ele>
        <time>2025-09-16T13:33:23Z</time>
      </trkpt>
      <trkpt lat="43.66067" lon="2.3404">
        <ele>456.8</ele>
        <time>2025-09-16T13:33:24Z</time>
      </trkpt>
      <trkpt lat="43.66067" lon="2.34041">
        <ele>456.8</ele>
        <time>2025-09-16T13:33:25Z</time>
      </trkpt>
      <trkpt lat="43.66068" lon="2.34044">
        <ele>457</ele>
        <time>2025-09-16T13:33:26Z</time>
      </trkpt>
      <trkpt lat="43.66069" lon="2.34045">
        <ele>457.2</ele>
        <time>2025-09-16T13:33:27Z</time>
      </trkpt>
      <trkpt lat="43.6607" lon="2.34047">
        <ele>457.4</ele>
        <time>2025-09-16T13:33:28Z</time>
      </trkpt>
      <trkpt lat="43.6607" lon="2.34049">
        <ele>457.6</ele>
        <time>2025-09-16T13:33:29Z</time>
      </trkpt>
      <trkpt lat="43.66071" lon="2.3405">
        <ele>457.8</ele>
        <time>2025-09-16T13:33:30Z</time>
      </trkpt>
      <trkpt lat="43.66072" lon="2.34051">
        <ele>457.8</ele>
        <time>2025-09-16T13:33:31Z</time>
      </trkpt>
      <trkpt lat="43.66072" lon="2.34053">
        <ele>458</ele>
        <time>2025-09-16T13:33:32Z</time>
      </trkpt>
      <trkpt lat="43.66073" lon="2.34054">
        <ele>458.2</ele>
        <time>2025-09-16T13:33:33Z</time>
      </trkpt>
      <trkpt lat="43.66073" lon="2.34056">
        <ele>458.4</ele>
        <time>2025-09-16T13:33:34Z</time>
      </trkpt>
      <trkpt lat="43.66074" lon="2.34057">
        <ele>458.4</ele>
        <time>2025-09-16T13:33:35Z</time>
      </trkpt>
      <trkpt lat="43.66075" lon="2.34059">
        <ele>458.6</ele>
        <time>2025-09-16T13:33:36Z</time>
      </trkpt>
      <trkpt lat="43.66076" lon="2.34061">
        <ele>458.8</ele>
        <time>2025-09-16T13:33:37Z</time>
      </trkpt>
      <trkpt lat="43.66076" lon="2.34062">
        <ele>458.8</ele>
        <time>2025-09-16T13:33:38Z</time>
      </trkpt>
      <trkpt lat="43.66077" lon="2.34063">
        <ele>459</ele>
        <time>2025-09-16T13:33:39Z</time>
      </trkpt>
      <trkpt lat="43.66077" lon="2.34065">
        <ele>459.2</ele>
        <time>2025-09-16T13:33:40Z</time>
      </trkpt>
      <trkpt lat="43.66078" lon="2.34066">
        <ele>459.4</ele>
        <time>2025-09-16T13:33:41Z</time>
      </trkpt>
      <trkpt lat="43.66078" lon="2.34067">
        <ele>459.4</ele>
        <time>2025-09-16T13:33:42Z</time>
      </trkpt>
      <trkpt lat="43.66079" lon="2.34069">
        <ele>459.6</ele>
        <time>2025-09-16T13:33:43Z</time>
      </trkpt>
      <trkpt lat="43.66079" lon="2.34071">
        <ele>459.6</ele>
        <time>2025-09-16T13:33:44Z</time>
      </trkpt>
      <trkpt lat="43.6608" lon="2.34072">
        <ele>459.8</ele>
        <time>2025-09-16T13:33:45Z</time>
      </trkpt>
      <trkpt lat="43.6608" lon="2.34073">
        <ele>460</ele>
        <time>2025-09-16T13:33:46Z</time>
      </trkpt>
      <trkpt lat="43.66081" lon="2.34075">
        <ele>460</ele>
        <time>2025-09-16T13:33:47Z</time>
      </trkpt>
      <trkpt lat="43.66081" lon="2.34076">
        <ele>460.2</ele>
        <time>2025-09-16T13:33:48Z</time>
      </trkpt>
      <trkpt lat="43.66081" lon="2.34077">
        <ele>460.4</ele>
        <time>2025-09-16T13:33:49Z</time>
      </trkpt>
      <trkpt lat="43.66081" lon="2.34079">
        <ele>460.4</ele>
        <time>2025-09-16T13:33:50Z</time>
      </trkpt>
      <trkpt lat="43.66082" lon="2.3408">
        <ele>460.6</ele>
        <time>2025-09-16T13:33:51Z</time>
      </trkpt>
      <trkpt lat="43.66082" lon="2.34082">
        <ele>460.6</ele>
        <time>2025-09-16T13:33:52Z</time>
      </trkpt>
      <trkpt lat="43.66083" lon="2.34083">
        <ele>460.8</ele>
        <time>2025-09-16T13:33:53Z</time>
      </trkpt>
      <trkpt lat="43.66084" lon="2.34085">
        <ele>461</ele>
        <time>2025-09-16T13:33:54Z</time>
      </trkpt>
      <trkpt lat="43.66084" lon="2.34086">
        <ele>461</ele>
        <time>2025-09-16T13:33:55Z</time>
      </trkpt>
      <trkpt lat="43.66084" lon="2.34087">
        <ele>461.2</ele>
        <time>2025-09-16T13:33:56Z</time>
      </trkpt>
      <trkpt lat="43.66085" lon="2.34089">
        <ele>461.4</ele>
        <time>2025-09-16T13:33:57Z</time>
      </trkpt>
      <trkpt lat="43.66085" lon="2.3409">
        <ele>461.4</ele>
        <time>2025-09-16T13:33:58Z</time>
      </trkpt>
      <trkpt lat="43.66086" lon="2.34092">
        <ele>461.6</ele>
        <time>2025-09-16T13:33:59Z</time>
      </trkpt>
      <trkpt lat="43.66086" lon="2.34094">
        <ele>461.8</ele>
        <time>2025-09-16T13:34:00Z</time>
      </trkpt>
      <trkpt lat="43.66087" lon="2.34096">
        <ele>461.8</ele>
        <time>2025-09-16T13:34:01Z</time>
      </trkpt>
      <trkpt lat="43.66088" lon="2.34097">
        <ele>462</ele>
        <time>2025-09-16T13:34:02Z</time>
      </trkpt>
      <trkpt lat="43.66088" lon="2.34099">
        <ele>462.2</ele>
        <time>2025-09-16T13:34:03Z</time>
      </trkpt>
      <trkpt lat="43.66088" lon="2.341">
        <ele>462.2</ele>
        <time>2025-09-16T13:34:04Z</time>
      </trkpt>
      <trkpt lat="43.66089" lon="2.34101">
        <ele>462.4</ele>
        <time>2025-09-16T13:34:05Z</time>
      </trkpt>
      <trkpt lat="43.6609" lon="2.34103">
        <ele>462.6</ele>
        <time>2025-09-16T13:34:06Z</time>
      </trkpt>
      <trkpt lat="43.6609" lon="2.34104">
        <ele>462.8</ele>
        <time>2025-09-16T13:34:07Z</time>
      </trkpt>
      <trkpt lat="43.6609" lon="2.34105">
        <ele>463</ele>
        <time>2025-09-16T13:34:08Z</time>
      </trkpt>
      <trkpt lat="43.6609" lon="2.34106">
        <ele>463</ele>
        <time>2025-09-16T13:34:09Z</time>
      </trkpt>
      <trkpt lat="43.6609" lon="2.34107">
        <ele>463.2</ele>
        <time>2025-09-16T13:34:10Z</time>
      </trkpt>
      <trkpt lat="43.66091" lon="2.34109">
        <ele>463.4</ele>
        <time>2025-09-16T13:34:11Z</time>
      </trkpt>
      <trkpt lat="43.66092" lon="2.3411">
        <ele>463.6</ele>
        <time>2025-09-16T13:34:12Z</time>
      </trkpt>
      <trkpt lat="43.66092" lon="2.34112">
        <ele>463.6</ele>
        <time>2025-09-16T13:34:13Z</time>
      </trkpt>
      <trkpt lat="43.66093" lon="2.34114">
        <ele>463.8</ele>
        <time>2025-09-16T13:34:14Z</time>
      </trkpt>
      <trkpt lat="43.66093" lon="2.34115">
        <ele>464</ele>
        <time>2025-09-16T13:34:15Z</time>
      </trkpt>
      <trkpt lat="43.66094" lon="2.34116">
        <ele>464</ele>
        <time>2025-09-16T13:34:16Z</time>
      </trkpt>
      <trkpt lat="43.66095" lon="2.34118">
        <ele>464.2</ele>
        <time>2025-09-16T13:34:17Z</time>
      </trkpt>
      <trkpt lat="43.66095" lon="2.3412">
        <ele>464.4</ele>
        <time>2025-09-16T13:34:18Z</time>
      </trkpt>
      <trkpt lat="43.66095" lon="2.34121">
        <ele>464.6</ele>
        <time>2025-09-16T13:34:19Z</time>
      </trkpt>
      <trkpt lat="43.66095" lon="2.34122">
        <ele>464.6</ele>
        <time>2025-09-16T13:34:20Z</time>
      </trkpt>
      <trkpt lat="43.66095" lon="2.34124">
        <ele>464.8</ele>
        <time>2025-09-16T13:34:21Z</time>
      </trkpt>
      <trkpt lat="43.66096" lon="2.34125">
        <ele>465</ele>
        <time>2025-09-16T13:34:22Z</time>
      </trkpt>
      <trkpt lat="43.66097" lon="2.34127">
        <ele>465.2</ele>
        <time>2025-09-16T13:34:23Z</time>
      </trkpt>
      <trkpt lat="43.66114" lon="2.34195">
        <ele>471.4</ele>
        <time>2025-09-16T13:35:04Z</time>
      </trkpt>
      <trkpt lat="43.66113" lon="2.34198">
        <ele>471.6</ele>
        <time>2025-09-16T13:35:05Z</time>
      </trkpt>
      <trkpt lat="43.66113" lon="2.34199">
        <ele>471.8</ele>
        <time>2025-09-16T13:35:06Z</time>
      </trkpt>
      <trkpt lat="43.66112" lon="2.34201">
        <ele>471.8</ele>
        <time>2025-09-16T13:35:07Z</time>
      </trkpt>
      <trkpt lat="43.66112" lon="2.34203">
        <ele>472</ele>
        <time>2025-09-16T13:35:08Z</time>
      </trkpt>
      <trkpt lat="43.66112" lon="2.34205">
        <ele>472.2</ele>
        <time>2025-09-16T13:35:09Z</time>
      </trkpt>
      <trkpt lat="43.66112" lon="2.34208">
        <ele>472.2</ele>
        <time>2025-09-16T13:35:10Z</time>
      </trkpt>
      <trkpt lat="43.66112" lon="2.34209">
        <ele>472.4</ele>
        <time>2025-09-16T13:35:11Z</time>
      </trkpt>
      <trkpt lat="43.66111" lon="2.34211">
        <ele>472.6</ele>
        <time>2025-09-16T13:35:12Z</time>
      </trkpt>
      <trkpt lat="43.66111" lon="2.34213">
        <ele>472.8</ele>
        <time>2025-09-16T13:35:13Z</time>
      </trkpt>
      <trkpt lat="43.6611" lon="2.34215">
        <ele>472.8</ele>
        <time>2025-09-16T13:35:14Z</time>
      </trkpt>
      <trkpt lat="43.6611" lon="2.34217">
        <ele>473</ele>
        <time>2025-09-16T13:35:15Z</time>
      </trkpt>
      <trkpt lat="43.66109" lon="2.34218">
        <ele>473</ele>
        <time>2025-09-16T13:35:16Z</time>
      </trkpt>
      <trkpt lat="43.66108" lon="2.34219">
        <ele>473.2</ele>
        <time>2025-09-16T13:35:17Z</time>
      </trkpt>
      <trkpt lat="43.66107" lon="2.3422">
        <ele>473.4</ele>
        <time>2025-09-16T13:35:18Z</time>
      </trkpt>
      <trkpt lat="43.66106" lon="2.34222">
        <ele>473.6</ele>
        <time>2025-09-16T13:35:19Z</time>
      </trkpt>
      <trkpt lat="43.66106" lon="2.34224">
        <ele>473.6</ele>
        <time>2025-09-16T13:35:20Z</time>
      </trkpt>
      <trkpt lat="43.66106" lon="2.34225">
        <ele>473.8</ele>
        <time>2025-09-16T13:35:21Z</time>
      </trkpt>
      <trkpt lat="43.66105" lon="2.34227">
        <ele>474</ele>
        <time>2025-09-16T13:35:22Z</time>
      </trkpt>
      <trkpt lat="43.66105" lon="2.34229">
        <ele>474</ele>
        <time>2025-09-16T13:35:23Z</time>
      </trkpt>
      <trkpt lat="43.66104" lon="2.3423">
        <ele>474.2</ele>
        <time>2025-09-16T13:35:24Z</time>
      </trkpt>
      <trkpt lat="43.66104" lon="2.34232">
        <ele>474.2</ele>
        <time>2025-09-16T13:35:25Z</time>
      </trkpt>
      <trkpt lat="43.66103" lon="2.34234">
        <ele>474.2</ele>
        <time>2025-09-16T13:35:26Z</time>
      </trkpt>
      <trkpt lat="43.66102" lon="2.34235">
        <ele>474.4</ele>
        <time>2025-09-16T13:35:27Z</time>
      </trkpt>
      <trkpt lat="43.66101" lon="2.34236">
        <ele>474.4</ele>
        <time>2025-09-16T13:35:28Z</time>
      </trkpt>
      <trkpt lat="43.661" lon="2.34237">
        <ele>474.4</ele>
        <time>2025-09-16T13:35:29Z</time>
      </trkpt>
      <trkpt lat="43.661" lon="2.34238">
        <ele>474.6</ele>
        <time>2025-09-16T13:35:30Z</time>
      </trkpt>
      <trkpt lat="43.66099" lon="2.3424">
        <ele>474.6</ele>
        <time>2025-09-16T13:35:31Z</time>
      </trkpt>
      <trkpt lat="43.66098" lon="2.34241">
        <ele>474.8</ele>
        <time>2025-09-16T13:35:32Z</time>
      </trkpt>
      <trkpt lat="43.66097" lon="2.34242">
        <ele>474.8</ele>
        <time>2025-09-16T13:35:33Z</time>
      </trkpt>
      <trkpt lat="43.66096" lon="2.34244">
        <ele>474.8</ele>
        <time>2025-09-16T13:35:34Z</time>
      </trkpt>
      <trkpt lat="43.66094" lon="2.34245">
        <ele>475</ele>
        <time>2025-09-16T13:35:35Z</time>
      </trkpt>
      <trkpt lat="43.66093" lon="2.34246">
        <ele>475</ele>
        <time>2025-09-16T13:35:36Z</time>
      </trkpt>
      <trkpt lat="43.66092" lon="2.34247">
        <ele>475</ele>
        <time>2025-09-16T13:35:37Z</time>
      </trkpt>
      <trkpt lat="43.66091" lon="2.34248">
        <ele>475.2</ele>
        <time>2025-09-16T13:35:38Z</time>
      </trkpt>
      <trkpt lat="43.6609" lon="2.3425">
        <ele>475.2</ele>
        <time>2025-09-16T13:35:39Z</time>
      </trkpt>
      <trkpt lat="43.66089" lon="2.34252">
        <ele>475.2</ele>
        <time>2025-09-16T13:35:40Z</time>
      </trkpt>
      <trkpt lat="43.66088" lon="2.34254">
        <ele>475.2</ele>
        <time>2025-09-16T13:35:41Z</time>
      </trkpt>
      <trkpt lat="43.66087" lon="2.34256">
        <ele>475.2</ele>
        <time>2025-09-16T13:35:42Z</time>
      </trkpt>
      <trkpt lat="43.66086" lon="2.34257">
        <ele>475.2</ele>
        <time>2025-09-16T13:35:43Z</time>
      </trkpt>
      <trkpt lat="43.66085" lon="2.34259">
        <ele>475.2</ele>
        <time>2025-09-16T13:35:44Z</time>
      </trkpt>
      <trkpt lat="43.66084" lon="2.3426">
        <ele>475.4</ele>
        <time>2025-09-16T13:35:45Z</time>
      </trkpt>
      <trkpt lat="43.66083" lon="2.34262">
        <ele>475.4</ele>
        <time>2025-09-16T13:35:46Z</time>
      </trkpt>
      <trkpt lat="43.66081" lon="2.34263">
        <ele>475.6</ele>
        <time>2025-09-16T13:35:47Z</time>
      </trkpt>
      <trkpt lat="43.66081" lon="2.34265">
        <ele>475.6</ele>
        <time>2025-09-16T13:35:48Z</time>
      </trkpt>
      <trkpt lat="43.6608" lon="2.34266">
        <ele>475.8</ele>
        <time>2025-09-16T13:35:49Z</time>
      </trkpt>
      <trkpt lat="43.66079" lon="2.34268">
        <ele>475.8</ele>
        <time>2025-09-16T13:35:50Z</time>
      </trkpt>
      <trkpt lat="43.66079" lon="2.3427">
        <ele>476</ele>
        <time>2025-09-16T13:35:51Z</time>
      </trkpt>
      <trkpt lat="43.66078" lon="2.34272">
        <ele>476</ele>
        <time>2025-09-16T13:35:52Z</time>
      </trkpt>
      <trkpt lat="43.66077" lon="2.34274">
        <ele>476</ele>
        <time>2025-09-16T13:35:53Z</time>
      </trkpt>
      <trkpt lat="43.66077" lon="2.34276">
        <ele>476.2</ele>
        <time>2025-09-16T13:35:54Z</time>
      </trkpt>
      <trkpt lat="43.66076" lon="2.34278">
        <ele>476.2</ele>
        <time>2025-09-16T13:35:55Z</time>
      </trkpt>
      <trkpt lat="43.66075" lon="2.34279">
        <ele>476.2</ele>
        <time>2025-09-16T13:35:56Z</time>
      </trkpt>
      <trkpt lat="43.66074" lon="2.34281">
        <ele>476.4</ele>
        <time>2025-09-16T13:35:57Z</time>
      </trkpt>
      <trkpt lat="43.66073" lon="2.34283">
        <ele>476.4</ele>
        <time>2025-09-16T13:35:58Z</time>
      </trkpt>
      <trkpt lat="43.66073" lon="2.34285">
        <ele>476.6</ele>
        <time>2025-09-16T13:35:59Z</time>
      </trkpt>
      <trkpt lat="43.66071" lon="2.34286">
        <ele>476.6</ele>
        <time>2025-09-16T13:36:00Z</time>
      </trkpt>
      <trkpt lat="43.6607" lon="2.34288">
        <ele>476.8</ele>
        <time>2025-09-16T13:36:01Z</time>
      </trkpt>
      <trkpt lat="43.66069" lon="2.3429">
        <ele>476.8</ele>
        <time>2025-09-16T13:36:02Z</time>
      </trkpt>
      <trkpt lat="43.66069" lon="2.34292">
        <ele>476.8</ele>
        <time>2025-09-16T13:36:03Z</time>
      </trkpt>
      <trkpt lat="43.66068" lon="2.34294">
        <ele>477</ele>
        <time>2025-09-16T13:36:04Z</time>
      </trkpt>
      <trkpt lat="43.66068" lon="2.34296">
        <ele>477</ele>
        <time>2025-09-16T13:36:05Z</time>
      </trkpt>
      <trkpt lat="43.66067" lon="2.34298">
        <ele>477</ele>
        <time>2025-09-16T13:36:06Z</time>
      </trkpt>
      <trkpt lat="43.66066" lon="2.343">
        <ele>477.2</ele>
        <time>2025-09-16T13:36:07Z</time>
      </trkpt>
      <trkpt lat="43.66065" lon="2.34302">
        <ele>477.2</ele>
        <time>2025-09-16T13:36:08Z</time>
      </trkpt>
      <trkpt lat="43.66064" lon="2.34304">
        <ele>477.4</ele>
        <time>2025-09-16T13:36:09Z</time>
      </trkpt>
      <trkpt lat="43.66063" lon="2.34306">
        <ele>477.4</ele>
        <time>2025-09-16T13:36:10Z</time>
      </trkpt>
      <trkpt lat="43.66063" lon="2.34308">
        <ele>477.6</ele>
        <time>2025-09-16T13:36:11Z</time>
      </trkpt>
      <trkpt lat="43.66062" lon="2.3431">
        <ele>477.6</ele>
        <time>2025-09-16T13:36:12Z</time>
      </trkpt>
      <trkpt lat="43.66061" lon="2.34312">
        <ele>477.8</ele>
        <time>2025-09-16T13:36:13Z</time>
      </trkpt>
      <trkpt lat="43.6606" lon="2.34314">
        <ele>477.8</ele>
        <time>2025-09-16T13:36:14Z</time>
      </trkpt>
      <trkpt lat="43.66058" lon="2.34316">
        <ele>478</ele>
        <time>2025-09-16T13:36:15Z</time>
      </trkpt>
      <trkpt lat="43.66058" lon="2.34318">
        <ele>478</ele>
        <time>2025-09-16T13:36:16Z</time>
      </trkpt>
      <trkpt lat="43.66057" lon="2.3432">
        <ele>478</ele>
        <time>2025-09-16T13:36:17Z</time>
      </trkpt>
      <trkpt lat="43.66056" lon="2.34322">
        <ele>478.2</ele>
        <time>2025-09-16T13:36:18Z</time>
      </trkpt>
      <trkpt lat="43.66055" lon="2.34324">
        <ele>478.2</ele>
        <time>2025-09-16T13:36:19Z</time>
      </trkpt>
      <trkpt lat="43.66054" lon="2.34326">
        <ele>478.2</ele>
        <time>2025-09-16T13:36:20Z</time>
      </trkpt>
      <trkpt lat="43.66052" lon="2.34328">
        <ele>478.2</ele>
        <time>2025-09-16T13:36:21Z</time>
      </trkpt>
      <trkpt lat="43.66051" lon="2.3433">
        <ele>478.2</ele>
        <time>2025-09-16T13:36:22Z</time>
      </trkpt>
      <trkpt lat="43.6605" lon="2.34331">
        <ele>478.2</ele>
        <time>2025-09-16T13:36:23Z</time>
      </trkpt>
      <trkpt lat="43.66048" lon="2.34333">
        <ele>478.4</ele>
        <time>2025-09-16T13:36:24Z</time>
      </trkpt>
      <trkpt lat="43.66047" lon="2.34335">
        <ele>478.4</ele>
        <time>2025-09-16T13:36:25Z</time>
      </trkpt>
      <trkpt lat="43.66045" lon="2.34336">
        <ele>478.4</ele>
        <time>2025-09-16T13:36:26Z</time>
      </trkpt>
      <trkpt lat="43.66043" lon="2.34338">
        <ele>478.4</ele>
        <time>2025-09-16T13:36:27Z</time>
      </trkpt>
      <trkpt lat="43.66041" lon="2.3434">
        <ele>478.6</ele>
        <time>2025-09-16T13:36:28Z</time>
      </trkpt>
      <trkpt lat="43.6604" lon="2.34341">
        <ele>478.6</ele>
        <time>2025-09-16T13:36:29Z</time>
      </trkpt>
      <trkpt lat="43.66038" lon="2.34343">
        <ele>478.6</ele>
        <time>2025-09-16T13:36:30Z</time>
      </trkpt>
      <trkpt lat="43.66036" lon="2.34345">
        <ele>478.8</ele>
        <time>2025-09-16T13:36:31Z</time>
      </trkpt>
      <trkpt lat="43.66035" lon="2.34346">
        <ele>478.8</ele>
        <time>2025-09-16T13:36:32Z</time>
      </trkpt>
      <trkpt lat="43.66033" lon="2.34348">
        <ele>479</ele>
        <time>2025-09-16T13:36:33Z</time>
      </trkpt>
      <trkpt lat="43.66032" lon="2.3435">
        <ele>479</ele>
        <time>2025-09-16T13:36:34Z</time>
      </trkpt>
      <trkpt lat="43.6603" lon="2.34351">
        <ele>479.2</ele>
        <time>2025-09-16T13:36:35Z</time>
      </trkpt>
      <trkpt lat="43.66029" lon="2.34353">
        <ele>479.2</ele>
        <time>2025-09-16T13:36:36Z</time>
      </trkpt>
      <trkpt lat="43.66027" lon="2.34355">
        <ele>479.4</ele>
        <time>2025-09-16T13:36:37Z</time>
      </trkpt>
      <trkpt lat="43.66026" lon="2.34357">
        <ele>479.6</ele>
        <time>2025-09-16T13:36:38Z</time>
      </trkpt>
      <trkpt lat="43.66024" lon="2.34359">
        <ele>479.8</ele>
        <time>2025-09-16T13:36:39Z</time>
      </trkpt>
      <trkpt lat="43.66023" lon="2.34361">
        <ele>479.8</ele>
        <time>2025-09-16T13:36:40Z</time>
      </trkpt>
      <trkpt lat="43.66022" lon="2.34363">
        <ele>480</ele>
        <time>2025-09-16T13:36:41Z</time>
      </trkpt>
      <trkpt lat="43.6602" lon="2.34365">
        <ele>480.2</ele>
        <time>2025-09-16T13:36:42Z</time>
      </trkpt>
      <trkpt lat="43.66019" lon="2.34367">
        <ele>480.2</ele>
        <time>2025-09-16T13:36:43Z</time>
      </trkpt>
      <trkpt lat="43.66017" lon="2.34369">
        <ele>480.4</ele>
        <time>2025-09-16T13:36:44Z</time>
      </trkpt>
      <trkpt lat="43.66016" lon="2.3437">
        <ele>480.6</ele>
        <time>2025-09-16T13:36:45Z</time>
      </trkpt>
      <trkpt lat="43.66015" lon="2.34372">
        <ele>480.6</ele>
        <time>2025-09-16T13:36:46Z</time>
      </trkpt>
      <trkpt lat="43.66013" lon="2.34374">
        <ele>480.8</ele>
        <time>2025-09-16T13:36:47Z</time>
      </trkpt>
      <trkpt lat="43.66012" lon="2.34376">
        <ele>480.8</ele>
        <time>2025-09-16T13:36:48Z</time>
      </trkpt>
      <trkpt lat="43.6601" lon="2.34378">
        <ele>481</ele>
        <time>2025-09-16T13:36:49Z</time>
      </trkpt>
      <trkpt lat="43.66009" lon="2.3438">
        <ele>481</ele>
        <time>2025-09-16T13:36:50Z</time>
      </trkpt>
      <trkpt lat="43.66007" lon="2.34382">
        <ele>481.2</ele>
        <time>2025-09-16T13:36:51Z</time>
      </trkpt>
      <trkpt lat="43.66007" lon="2.34384">
        <ele>481.2</ele>
        <time>2025-09-16T13:36:52Z</time>
      </trkpt>
      <trkpt lat="43.66005" lon="2.34387">
        <ele>481.4</ele>
        <time>2025-09-16T13:36:53Z</time>
      </trkpt>
      <trkpt lat="43.66004" lon="2.34389">
        <ele>481.4</ele>
        <time>2025-09-16T13:36:54Z</time>
      </trkpt>
      <trkpt lat="43.66003" lon="2.34391">
        <ele>481.6</ele>
        <time>2025-09-16T13:36:55Z</time>
      </trkpt>
      <trkpt lat="43.66002" lon="2.34394">
        <ele>481.6</ele>
        <time>2025-09-16T13:36:56Z</time>
      </trkpt>
      <trkpt lat="43.66001" lon="2.34396">
        <ele>481.8</ele>
        <time>2025-09-16T13:36:57Z</time>
      </trkpt>
      <trkpt lat="43.65999" lon="2.34398">
        <ele>481.8</ele>
        <time>2025-09-16T13:36:58Z</time>
      </trkpt>
      <trkpt lat="43.65998" lon="2.34401">
        <ele>482</ele>
        <time>2025-09-16T13:36:59Z</time>
      </trkpt>
      <trkpt lat="43.65998" lon="2.34403">
        <ele>482</ele>
        <time>2025-09-16T13:37:00Z</time>
      </trkpt>
      <trkpt lat="43.65997" lon="2.34406">
        <ele>482.2</ele>
        <time>2025-09-16T13:37:01Z</time>
      </trkpt>
      <trkpt lat="43.65997" lon="2.34408">
        <ele>482.4</ele>
        <time>2025-09-16T13:37:02Z</time>
      </trkpt>
      <trkpt lat="43.65998" lon="2.34411">
        <ele>482.4</ele>
        <time>2025-09-16T13:37:03Z</time>
      </trkpt>
      <trkpt lat="43.65998" lon="2.34414">
        <ele>482.4</ele>
        <time>2025-09-16T13:37:04Z</time>
      </trkpt>
      <trkpt lat="43.65998" lon="2.34417">
        <ele>482.4</ele>
        <time>2025-09-16T13:37:05Z</time>
      </trkpt>
      <trkpt lat="43.65999" lon="2.3442">
        <ele>482.4</ele>
        <time>2025-09-16T13:37:06Z</time>
      </trkpt>
      <trkpt lat="43.65999" lon="2.34422">
        <ele>482.4</ele>
        <time>2025-09-16T13:37:07Z</time>
      </trkpt>
      <trkpt lat="43.66" lon="2.34425">
        <ele>482.4</ele>
        <time>2025-09-16T13:37:08Z</time>
      </trkpt>
      <trkpt lat="43.66" lon="2.34428">
        <ele>482.4</ele>
        <time>2025-09-16T13:37:09Z</time>
      </trkpt>
      <trkpt lat="43.66001" lon="2.34431">
        <ele>482.4</ele>
        <time>2025-09-16T13:37:10Z</time>
      </trkpt>
      <trkpt lat="43.66001" lon="2.34435">
        <ele>482.4</ele>
        <time>2025-09-16T13:37:11Z</time>
      </trkpt>
      <trkpt lat="43.66001" lon="2.34438">
        <ele>482.4</ele>
        <time>2025-09-16T13:37:12Z</time>
      </trkpt>
      <trkpt lat="43.66001" lon="2.34441">
        <ele>482.4</ele>
        <time>2025-09-16T13:37:13Z</time>
      </trkpt>
      <trkpt lat="43.66002" lon="2.34445">
        <ele>482.4</ele>
        <time>2025-09-16T13:37:14Z</time>
      </trkpt>
      <trkpt lat="43.66002" lon="2.34448">
        <ele>482.4</ele>
        <time>2025-09-16T13:37:15Z</time>
      </trkpt>
      <trkpt lat="43.66002" lon="2.34451">
        <ele>482.6</ele>
        <time>2025-09-16T13:37:16Z</time>
      </trkpt>
      <trkpt lat="43.66002" lon="2.34454">
        <ele>482.6</ele>
        <time>2025-09-16T13:37:17Z</time>
      </trkpt>
      <trkpt lat="43.66003" lon="2.34457">
        <ele>482.6</ele>
        <time>2025-09-16T13:37:18Z</time>
      </trkpt>
      <trkpt lat="43.66003" lon="2.34461">
        <ele>482.8</ele>
        <time>2025-09-16T13:37:19Z</time>
      </trkpt>
      <trkpt lat="43.66004" lon="2.34464">
        <ele>483</ele>
        <time>2025-09-16T13:37:20Z</time>
      </trkpt>
      <trkpt lat="43.66004" lon="2.34467">
        <ele>483</ele>
        <time>2025-09-16T13:37:21Z</time>
      </trkpt>
      <trkpt lat="43.66004" lon="2.3447">
        <ele>483.2</ele>
        <time>2025-09-16T13:37:22Z</time>
      </trkpt>
      <trkpt lat="43.66004" lon="2.34474">
        <ele>483.4</ele>
        <time>2025-09-16T13:37:23Z</time>
      </trkpt>
      <trkpt lat="43.66004" lon="2.34477">
        <ele>483.6</ele>
        <time>2025-09-16T13:37:24Z</time>
      </trkpt>
      <trkpt lat="43.66004" lon="2.3448">
        <ele>483.8</ele>
        <time>2025-09-16T13:37:25Z</time>
      </trkpt>
      <trkpt lat="43.66003" lon="2.34483">
        <ele>484</ele>
        <time>2025-09-16T13:37:26Z</time>
      </trkpt>
      <trkpt lat="43.66003" lon="2.34486">
        <ele>484</ele>
        <time>2025-09-16T13:37:27Z</time>
      </trkpt>
      <trkpt lat="43.66003" lon="2.3449">
        <ele>484.2</ele>
        <time>2025-09-16T13:37:28Z</time>
      </trkpt>
      <trkpt lat="43.66004" lon="2.34493">
        <ele>484.2</ele>
        <time>2025-09-16T13:37:29Z</time>
      </trkpt>
      <trkpt lat="43.66004" lon="2.34496">
        <ele>484.4</ele>
        <time>2025-09-16T13:37:30Z</time>
      </trkpt>
      <trkpt lat="43.66004" lon="2.34499">
        <ele>484.4</ele>
        <time>2025-09-16T13:37:31Z</time>
      </trkpt>
      <trkpt lat="43.66004" lon="2.34503">
        <ele>484.4</ele>
        <time>2025-09-16T13:37:32Z</time>
      </trkpt>
      <trkpt lat="43.66005" lon="2.34506">
        <ele>484.4</ele>
        <time>2025-09-16T13:37:33Z</time>
      </trkpt>
      <trkpt lat="43.66005" lon="2.3451">
        <ele>484.4</ele>
        <time>2025-09-16T13:37:34Z</time>
      </trkpt>
      <trkpt lat="43.66005" lon="2.34513">
        <ele>484.6</ele>
        <time>2025-09-16T13:37:35Z</time>
      </trkpt>
      <trkpt lat="43.66004" lon="2.34516">
        <ele>484.6</ele>
        <time>2025-09-16T13:37:36Z</time>
      </trkpt>
      <trkpt lat="43.66004" lon="2.34519">
        <ele>484.6</ele>
        <time>2025-09-16T13:37:37Z</time>
      </trkpt>
      <trkpt lat="43.66003" lon="2.34522">
        <ele>484.8</ele>
        <time>2025-09-16T13:37:38Z</time>
      </trkpt>
      <trkpt lat="43.66003" lon="2.34526">
        <ele>484.8</ele>
        <time>2025-09-16T13:37:39Z</time>
      </trkpt>
      <trkpt lat="43.66003" lon="2.34529">
        <ele>484.8</ele>
        <time>2025-09-16T13:37:40Z</time>
      </trkpt>
      <trkpt lat="43.66004" lon="2.34532">
        <ele>484.8</ele>
        <time>2025-09-16T13:37:41Z</time>
      </trkpt>
      <trkpt lat="43.66004" lon="2.34536">
        <ele>484.8</ele>
        <time>2025-09-16T13:37:42Z</time>
      </trkpt>
      <trkpt lat="43.66004" lon="2.34539">
        <ele>484.8</ele>
        <time>2025-09-16T13:37:43Z</time>
      </trkpt>
      <trkpt lat="43.66005" lon="2.34542">
        <ele>484.8</ele>
        <time>2025-09-16T13:37:44Z</time>
      </trkpt>
      <trkpt lat="43.66006" lon="2.34546">
        <ele>485</ele>
        <time>2025-09-16T13:37:45Z</time>
      </trkpt>
      <trkpt lat="43.66007" lon="2.34548">
        <ele>485</ele>
        <time>2025-09-16T13:37:46Z</time>
      </trkpt>
      <trkpt lat="43.66008" lon="2.34551">
        <ele>485.2</ele>
        <time>2025-09-16T13:37:47Z</time>
      </trkpt>
      <trkpt lat="43.6601" lon="2.34553">
        <ele>485.4</ele>
        <time>2025-09-16T13:37:48Z</time>
      </trkpt>
      <trkpt lat="43.66012" lon="2.34554">
        <ele>485.6</ele>
        <time>2025-09-16T13:37:49Z</time>
      </trkpt>
      <trkpt lat="43.66015" lon="2.34556">
        <ele>485.6</ele>
        <time>2025-09-16T13:37:50Z</time>
      </trkpt>
      <trkpt lat="43.66017" lon="2.34558">
        <ele>485.8</ele>
        <time>2025-09-16T13:37:51Z</time>
      </trkpt>
      <trkpt lat="43.6602" lon="2.34558">
        <ele>485.8</ele>
        <time>2025-09-16T13:37:52Z</time>
      </trkpt>
      <trkpt lat="43.66023" lon="2.34558">
        <ele>485.8</ele>
        <time>2025-09-16T13:37:53Z</time>
      </trkpt>
      <trkpt lat="43.66025" lon="2.34557">
        <ele>485.8</ele>
        <time>2025-09-16T13:37:54Z</time>
      </trkpt>
      <trkpt lat="43.66028" lon="2.34556">
        <ele>485.8</ele>
        <time>2025-09-16T13:37:55Z</time>
      </trkpt>
      <trkpt lat="43.66031" lon="2.34555">
        <ele>485.8</ele>
        <time>2025-09-16T13:37:56Z</time>
      </trkpt>
      <trkpt lat="43.66034" lon="2.34554">
        <ele>485.8</ele>
        <time>2025-09-16T13:37:57Z</time>
      </trkpt>
      <trkpt lat="43.66038" lon="2.34554">
        <ele>485.8</ele>
        <time>2025-09-16T13:37:58Z</time>
      </trkpt>
      <trkpt lat="43.66041" lon="2.34553">
        <ele>485.6</ele>
        <time>2025-09-16T13:37:59Z</time>
      </trkpt>
      <trkpt lat="43.66045" lon="2.34552">
        <ele>485.6</ele>
        <time>2025-09-16T13:38:00Z</time>
      </trkpt>
      <trkpt lat="43.66048" lon="2.3455">
        <ele>485.4</ele>
        <time>2025-09-16T13:38:01Z</time>
      </trkpt>
      <trkpt lat="43.66052" lon="2.34549">
        <ele>485.4</ele>
        <time>2025-09-16T13:38:02Z</time>
      </trkpt>
      <trkpt lat="43.66055" lon="2.34547">
        <ele>485.2</ele>
        <time>2025-09-16T13:38:03Z</time>
      </trkpt>
      <trkpt lat="43.66059" lon="2.34546">
        <ele>485.2</ele>
        <time>2025-09-16T13:38:04Z</time>
      </trkpt>
      <trkpt lat="43.66062" lon="2.34544">
        <ele>485.2</ele>
        <time>2025-09-16T13:38:05Z</time>
      </trkpt>
      <trkpt lat="43.66066" lon="2.34542">
        <ele>485.2</ele>
        <time>2025-09-16T13:38:06Z</time>
      </trkpt>
      <trkpt lat="43.66069" lon="2.34539">
        <ele>485.2</ele>
        <time>2025-09-16T13:38:07Z</time>
      </trkpt>
      <trkpt lat="43.66072" lon="2.34537">
        <ele>485.2</ele>
        <time>2025-09-16T13:38:08Z</time>
      </trkpt>
      <trkpt lat="43.66075" lon="2.34535">
        <ele>485.2</ele>
        <time>2025-09-16T13:38:09Z</time>
      </trkpt>
      <trkpt lat="43.66078" lon="2.34533">
        <ele>485.2</ele>
        <time>2025-09-16T13:38:10Z</time>
      </trkpt>
      <trkpt lat="43.66081" lon="2.34531">
        <ele>485</ele>
        <time>2025-09-16T13:38:11Z</time>
      </trkpt>
      <trkpt lat="43.66085" lon="2.34529">
        <ele>485</ele>
        <time>2025-09-16T13:38:12Z</time>
      </trkpt>
      <trkpt lat="43.66088" lon="2.34526">
        <ele>484.8</ele>
        <time>2025-09-16T13:38:13Z</time>
      </trkpt>
      <trkpt lat="43.66091" lon="2.34524">
        <ele>484.6</ele>
        <time>2025-09-16T13:38:14Z</time>
      </trkpt>
      <trkpt lat="43.66094" lon="2.34521">
        <ele>484.6</ele>
        <time>2025-09-16T13:38:15Z</time>
      </trkpt>
      <trkpt lat="43.66098" lon="2.34518">
        <ele>484.6</ele>
        <time>2025-09-16T13:38:16Z</time>
      </trkpt>
      <trkpt lat="43.66101" lon="2.34515">
        <ele>484.8</ele>
        <time>2025-09-16T13:38:17Z</time>
      </trkpt>
      <trkpt lat="43.66104" lon="2.34513">
        <ele>484.8</ele>
        <time>2025-09-16T13:38:18Z</time>
      </trkpt>
      <trkpt lat="43.66107" lon="2.3451">
        <ele>485</ele>
        <time>2025-09-16T13:38:19Z</time>
      </trkpt>
      <trkpt lat="43.66111" lon="2.34507">
        <ele>485</ele>
        <time>2025-09-16T13:38:20Z</time>
      </trkpt>
      <trkpt lat="43.66114" lon="2.34504">
        <ele>485.2</ele>
        <time>2025-09-16T13:38:21Z</time>
      </trkpt>
      <trkpt lat="43.66118" lon="2.34502">
        <ele>485.2</ele>
        <time>2025-09-16T13:38:22Z</time>
      </trkpt>
      <trkpt lat="43.66121" lon="2.345">
        <ele>485.2</ele>
        <time>2025-09-16T13:38:23Z</time>
      </trkpt>
      <trkpt lat="43.66125" lon="2.34497">
        <ele>485.4</ele>
        <time>2025-09-16T13:38:24Z</time>
      </trkpt>
      <trkpt lat="43.66128" lon="2.34494">
        <ele>485.2</ele>
        <time>2025-09-16T13:38:25Z</time>
      </trkpt>
      <trkpt lat="43.66132" lon="2.34491">
        <ele>485.2</ele>
        <time>2025-09-16T13:38:26Z</time>
      </trkpt>
      <trkpt lat="43.66135" lon="2.34488">
        <ele>485</ele>
        <time>2025-09-16T13:38:27Z</time>
      </trkpt>
      <trkpt lat="43.66139" lon="2.34485">
        <ele>485</ele>
        <time>2025-09-16T13:38:28Z</time>
      </trkpt>
      <trkpt lat="43.66142" lon="2.34482">
        <ele>485</ele>
        <time>2025-09-16T13:38:29Z</time>
      </trkpt>
      <trkpt lat="43.66146" lon="2.3448">
        <ele>484.8</ele>
        <time>2025-09-16T13:38:30Z</time>
      </trkpt>
      <trkpt lat="43.6615" lon="2.34477">
        <ele>484.8</ele>
        <time>2025-09-16T13:38:31Z</time>
      </trkpt>
      <trkpt lat="43.66154" lon="2.34474">
        <ele>484.8</ele>
        <time>2025-09-16T13:38:32Z</time>
      </trkpt>
      <trkpt lat="43.66157" lon="2.34471">
        <ele>485</ele>
        <time>2025-09-16T13:38:33Z</time>
      </trkpt>
      <trkpt lat="43.66161" lon="2.34468">
        <ele>485</ele>
        <time>2025-09-16T13:38:34Z</time>
      </trkpt>
      <trkpt lat="43.66165" lon="2.34466">
        <ele>485</ele>
        <time>2025-09-16T13:38:35Z</time>
      </trkpt>
      <trkpt lat="43.66169" lon="2.34463">
        <ele>485</ele>
        <time>2025-09-16T13:38:36Z</time>
      </trkpt>
      <trkpt lat="43.66173" lon="2.34461">
        <ele>485</ele>
        <time>2025-09-16T13:38:37Z</time>
      </trkpt>
      <trkpt lat="43.66177" lon="2.34459">
        <ele>484.8</ele>
        <time>2025-09-16T13:38:38Z</time>
      </trkpt>
      <trkpt lat="43.66181" lon="2.34457">
        <ele>484.8</ele>
        <time>2025-09-16T13:38:39Z</time>
      </trkpt>
      <trkpt lat="43.66185" lon="2.34456">
        <ele>484.6</ele>
        <time>2025-09-16T13:38:40Z</time>
      </trkpt>
      <trkpt lat="43.6619" lon="2.34455">
        <ele>484.6</ele>
        <time>2025-09-16T13:38:41Z</time>
      </trkpt>
      <trkpt lat="43.66194" lon="2.34454">
        <ele>484.4</ele>
        <time>2025-09-16T13:38:42Z</time>
      </trkpt>
      <trkpt lat="43.66199" lon="2.34454">
        <ele>484.4</ele>
        <time>2025-09-16T13:38:43Z</time>
      </trkpt>
      <trkpt lat="43.66203" lon="2.34455">
        <ele>484.4</ele>
        <time>2025-09-16T13:38:44Z</time>
      </trkpt>
      <trkpt lat="43.66207" lon="2.34457">
        <ele>484.4</ele>
        <time>2025-09-16T13:38:45Z</time>
      </trkpt>
      <trkpt lat="43.66212" lon="2.34459">
        <ele>484.2</ele>
        <time>2025-09-16T13:38:46Z</time>
      </trkpt>
      <trkpt lat="43.66215" lon="2.34462">
        <ele>484.2</ele>
        <time>2025-09-16T13:38:47Z</time>
      </trkpt>
      <trkpt lat="43.66219" lon="2.34466">
        <ele>484.2</ele>
        <time>2025-09-16T13:38:48Z</time>
      </trkpt>
      <trkpt lat="43.66222" lon="2.3447">
        <ele>484.2</ele>
        <time>2025-09-16T13:38:49Z</time>
      </trkpt>
      <trkpt lat="43.66225" lon="2.34475">
        <ele>484</ele>
        <time>2025-09-16T13:38:50Z</time>
      </trkpt>
      <trkpt lat="43.66228" lon="2.3448">
        <ele>484</ele>
        <time>2025-09-16T13:38:51Z</time>
      </trkpt>
      <trkpt lat="43.66231" lon="2.34485">
        <ele>484</ele>
        <time>2025-09-16T13:38:52Z</time>
      </trkpt>
      <trkpt lat="43.66233" lon="2.34491">
        <ele>484</ele>
        <time>2025-09-16T13:38:53Z</time>
      </trkpt>
      <trkpt lat="43.66234" lon="2.34497">
        <ele>484</ele>
        <time>2025-09-16T13:38:54Z</time>
      </trkpt>
      <trkpt lat="43.66234" lon="2.34502">
        <ele>484</ele>
        <time>2025-09-16T13:38:55Z</time>
      </trkpt>
      <trkpt lat="43.66235" lon="2.34508">
        <ele>484</ele>
        <time>2025-09-16T13:38:56Z</time>
      </trkpt>
      <trkpt lat="43.66235" lon="2.34514">
        <ele>484.2</ele>
        <time>2025-09-16T13:38:57Z</time>
      </trkpt>
      <trkpt lat="43.66235" lon="2.34519">
        <ele>484.2</ele>
        <time>2025-09-16T13:38:58Z</time>
      </trkpt>
      <trkpt lat="43.66234" lon="2.34525">
        <ele>484.4</ele>
        <time>2025-09-16T13:38:59Z</time>
      </trkpt>
      <trkpt lat="43.66235" lon="2.3453">
        <ele>484.4</ele>
        <time>2025-09-16T13:39:00Z</time>
      </trkpt>
      <trkpt lat="43.66234" lon="2.34535">
        <ele>484.6</ele>
        <time>2025-09-16T13:39:01Z</time>
      </trkpt>
      <trkpt lat="43.66234" lon="2.3454">
        <ele>484.6</ele>
        <time>2025-09-16T13:39:02Z</time>
      </trkpt>
      <trkpt lat="43.66234" lon="2.34546">
        <ele>484.8</ele>
        <time>2025-09-16T13:39:03Z</time>
      </trkpt>
      <trkpt lat="43.66234" lon="2.34551">
        <ele>485</ele>
        <time>2025-09-16T13:39:04Z</time>
      </trkpt>
      <trkpt lat="43.66234" lon="2.34556">
        <ele>485</ele>
        <time>2025-09-16T13:39:05Z</time>
      </trkpt>
      <trkpt lat="43.66234" lon="2.34561">
        <ele>485.2</ele>
        <time>2025-09-16T13:39:06Z</time>
      </trkpt>
      <trkpt lat="43.66234" lon="2.34566">
        <ele>485.4</ele>
        <time>2025-09-16T13:39:07Z</time>
      </trkpt>
      <trkpt lat="43.66234" lon="2.34571">
        <ele>485.6</ele>
        <time>2025-09-16T13:39:08Z</time>
      </trkpt>
      <trkpt lat="43.66234" lon="2.34576">
        <ele>485.6</ele>
        <time>2025-09-16T13:39:09Z</time>
      </trkpt>
      <trkpt lat="43.66233" lon="2.34581">
        <ele>485.8</ele>
        <time>2025-09-16T13:39:10Z</time>
      </trkpt>
      <trkpt lat="43.66233" lon="2.34586">
        <ele>485.8</ele>
        <time>2025-09-16T13:39:11Z</time>
      </trkpt>
      <trkpt lat="43.66233" lon="2.34591">
        <ele>485.8</ele>
        <time>2025-09-16T13:39:12Z</time>
      </trkpt>
      <trkpt lat="43.66233" lon="2.34596">
        <ele>485.8</ele>
        <time>2025-09-16T13:39:13Z</time>
      </trkpt>
      <trkpt lat="43.66233" lon="2.34601">
        <ele>485.8</ele>
        <time>2025-09-16T13:39:14Z</time>
      </trkpt>
      <trkpt lat="43.66233" lon="2.34606">
        <ele>486</ele>
        <time>2025-09-16T13:39:15Z</time>
      </trkpt>
      <trkpt lat="43.66233" lon="2.3461">
        <ele>486</ele>
        <time>2025-09-16T13:39:16Z</time>
      </trkpt>
      <trkpt lat="43.66233" lon="2.34615">
        <ele>486.2</ele>
        <time>2025-09-16T13:39:17Z</time>
      </trkpt>
      <trkpt lat="43.66232" lon="2.3462">
        <ele>486.2</ele>
        <time>2025-09-16T13:39:18Z</time>
      </trkpt>
      <trkpt lat="43.66232" lon="2.34625">
        <ele>486.2</ele>
        <time>2025-09-16T13:39:19Z</time>
      </trkpt>
      <trkpt lat="43.66233" lon="2.34629">
        <ele>486.4</ele>
        <time>2025-09-16T13:39:20Z</time>
      </trkpt>
      <trkpt lat="43.66233" lon="2.34634">
        <ele>486.4</ele>
        <time>2025-09-16T13:39:21Z</time>
      </trkpt>
      <trkpt lat="43.66233" lon="2.34639">
        <ele>486.4</ele>
        <time>2025-09-16T13:39:22Z</time>
      </trkpt>
      <trkpt lat="43.66233" lon="2.34644">
        <ele>486.4</ele>
        <time>2025-09-16T13:39:23Z</time>
      </trkpt>
      <trkpt lat="43.66234" lon="2.34648">
        <ele>486.6</ele>
        <time>2025-09-16T13:39:24Z</time>
      </trkpt>
      <trkpt lat="43.66234" lon="2.34653">
        <ele>486.6</ele>
        <time>2025-09-16T13:39:25Z</time>
      </trkpt>
      <trkpt lat="43.66234" lon="2.34658">
        <ele>486.6</ele>
        <time>2025-09-16T13:39:26Z</time>
      </trkpt>
      <trkpt lat="43.66234" lon="2.34663">
        <ele>486.8</ele>
        <time>2025-09-16T13:39:27Z</time>
      </trkpt>
      <trkpt lat="43.66235" lon="2.34668">
        <ele>486.8</ele>
        <time>2025-09-16T13:39:28Z</time>
      </trkpt>
      <trkpt lat="43.66236" lon="2.34672">
        <ele>487</ele>
        <time>2025-09-16T13:39:29Z</time>
      </trkpt>
      <trkpt lat="43.66239" lon="2.34676">
        <ele>487</ele>
        <time>2025-09-16T13:39:30Z</time>
      </trkpt>
      <trkpt lat="43.66241" lon="2.34679">
        <ele>487.2</ele>
        <time>2025-09-16T13:39:31Z</time>
      </trkpt>
      <trkpt lat="43.66244" lon="2.34682">
        <ele>487.4</ele>
        <time>2025-09-16T13:39:32Z</time>
      </trkpt>
      <trkpt lat="43.66247" lon="2.34685">
        <ele>487.4</ele>
        <time>2025-09-16T13:39:33Z</time>
      </trkpt>
      <trkpt lat="43.66251" lon="2.34686">
        <ele>487.4</ele>
        <time>2025-09-16T13:39:34Z</time>
      </trkpt>
      <trkpt lat="43.66254" lon="2.34687">
        <ele>487.4</ele>
        <time>2025-09-16T13:39:35Z</time>
      </trkpt>
      <trkpt lat="43.66257" lon="2.34688">
        <ele>487.4</ele>
        <time>2025-09-16T13:39:36Z</time>
      </trkpt>
      <trkpt lat="43.66261" lon="2.34689">
        <ele>487.4</ele>
        <time>2025-09-16T13:39:37Z</time>
      </trkpt>
      <trkpt lat="43.66264" lon="2.34691">
        <ele>487.6</ele>
        <time>2025-09-16T13:39:38Z</time>
      </trkpt>
      <trkpt lat="43.66267" lon="2.34694">
        <ele>487.6</ele>
        <time>2025-09-16T13:39:39Z</time>
      </trkpt>
      <trkpt lat="43.6627" lon="2.34697">
        <ele>487.8</ele>
        <time>2025-09-16T13:39:40Z</time>
      </trkpt>
      <trkpt lat="43.66271" lon="2.34701">
        <ele>487.8</ele>
        <time>2025-09-16T13:39:41Z</time>
      </trkpt>
      <trkpt lat="43.66273" lon="2.34706">
        <ele>487.8</ele>
        <time>2025-09-16T13:39:42Z</time>
      </trkpt>
      <trkpt lat="43.66274" lon="2.34712">
        <ele>487.8</ele>
        <time>2025-09-16T13:39:43Z</time>
      </trkpt>
      <trkpt lat="43.66274" lon="2.34718">
        <ele>487.8</ele>
        <time>2025-09-16T13:39:44Z</time>
      </trkpt>
      <trkpt lat="43.66275" lon="2.34724">
        <ele>487.6</ele>
        <time>2025-09-16T13:39:45Z</time>
      </trkpt>
      <trkpt lat="43.66275" lon="2.3473">
        <ele>487.4</ele>
        <time>2025-09-16T13:39:46Z</time>
      </trkpt>
      <trkpt lat="43.66276" lon="2.34736">
        <ele>487.2</ele>
        <time>2025-09-16T13:39:47Z</time>
      </trkpt>
      <trkpt lat="43.66276" lon="2.34742">
        <ele>487</ele>
        <time>2025-09-16T13:39:48Z</time>
      </trkpt>
      <trkpt lat="43.66277" lon="2.34747">
        <ele>486.8</ele>
        <time>2025-09-16T13:39:49Z</time>
      </trkpt>
      <trkpt lat="43.66278" lon="2.34753">
        <ele>486.8</ele>
        <time>2025-09-16T13:39:50Z</time>
      </trkpt>
      <trkpt lat="43.66278" lon="2.34759">
        <ele>486.8</ele>
        <time>2025-09-16T13:39:51Z</time>
      </trkpt>
      <trkpt lat="43.66279" lon="2.34764">
        <ele>487</ele>
        <time>2025-09-16T13:39:52Z</time>
      </trkpt>
      <trkpt lat="43.66279" lon="2.34769">
        <ele>487.2</ele>
        <time>2025-09-16T13:39:53Z</time>
      </trkpt>
      <trkpt lat="43.66279" lon="2.34775">
        <ele>487.4</ele>
        <time>2025-09-16T13:39:54Z</time>
      </trkpt>
      <trkpt lat="43.66279" lon="2.3478">
        <ele>487.6</ele>
        <time>2025-09-16T13:39:55Z</time>
      </trkpt>
      <trkpt lat="43.66279" lon="2.34785">
        <ele>487.8</ele>
        <time>2025-09-16T13:39:56Z</time>
      </trkpt>
      <trkpt lat="43.66279" lon="2.3479">
        <ele>487.8</ele>
        <time>2025-09-16T13:39:57Z</time>
      </trkpt>
      <trkpt lat="43.66278" lon="2.34795">
        <ele>488</ele>
        <time>2025-09-16T13:39:58Z</time>
      </trkpt>
      <trkpt lat="43.66277" lon="2.348">
        <ele>488</ele>
        <time>2025-09-16T13:39:59Z</time>
      </trkpt>
      <trkpt lat="43.66277" lon="2.34805">
        <ele>488.2</ele>
        <time>2025-09-16T13:40:00Z</time>
      </trkpt>
      <trkpt lat="43.66276" lon="2.3481">
        <ele>488.2</ele>
        <time>2025-09-16T13:40:01Z</time>
      </trkpt>
      <trkpt lat="43.66275" lon="2.34816">
        <ele>488.4</ele>
        <time>2025-09-16T13:40:02Z</time>
      </trkpt>
      <trkpt lat="43.66275" lon="2.34821">
        <ele>488.4</ele>
        <time>2025-09-16T13:40:03Z</time>
      </trkpt>
      <trkpt lat="43.66275" lon="2.34826">
        <ele>488.6</ele>
        <time>2025-09-16T13:40:04Z</time>
      </trkpt>
      <trkpt lat="43.66275" lon="2.34831">
        <ele>488.6</ele>
        <time>2025-09-16T13:40:05Z</time>
      </trkpt>
      <trkpt lat="43.66274" lon="2.34836">
        <ele>488.8</ele>
        <time>2025-09-16T13:40:06Z</time>
      </trkpt>
      <trkpt lat="43.66274" lon="2.34841">
        <ele>489</ele>
        <time>2025-09-16T13:40:07Z</time>
      </trkpt>
      <trkpt lat="43.66273" lon="2.34846">
        <ele>489.2</ele>
        <time>2025-09-16T13:40:08Z</time>
      </trkpt>
      <trkpt lat="43.66272" lon="2.3485">
        <ele>489.4</ele>
        <time>2025-09-16T13:40:09Z</time>
      </trkpt>
      <trkpt lat="43.6627" lon="2.34855">
        <ele>489.4</ele>
        <time>2025-09-16T13:40:10Z</time>
      </trkpt>
      <trkpt lat="43.66269" lon="2.3486">
        <ele>489.6</ele>
        <time>2025-09-16T13:40:11Z</time>
      </trkpt>
      <trkpt lat="43.66267" lon="2.34864">
        <ele>489.6</ele>
        <time>2025-09-16T13:40:12Z</time>
      </trkpt>
      <trkpt lat="43.66266" lon="2.34869">
        <ele>489.6</ele>
        <time>2025-09-16T13:40:13Z</time>
      </trkpt>
      <trkpt lat="43.66265" lon="2.34874">
        <ele>489.8</ele>
        <time>2025-09-16T13:40:14Z</time>
      </trkpt>
      <trkpt lat="43.66263" lon="2.34878">
        <ele>489.8</ele>
        <time>2025-09-16T13:40:15Z</time>
      </trkpt>
      <trkpt lat="43.66261" lon="2.34883">
        <ele>489.8</ele>
        <time>2025-09-16T13:40:16Z</time>
      </trkpt>
      <trkpt lat="43.66259" lon="2.34887">
        <ele>490</ele>
        <time>2025-09-16T13:40:17Z</time>
      </trkpt>
      <trkpt lat="43.66257" lon="2.34892">
        <ele>490</ele>
        <time>2025-09-16T13:40:18Z</time>
      </trkpt>
      <trkpt lat="43.66255" lon="2.34896">
        <ele>490.2</ele>
        <time>2025-09-16T13:40:19Z</time>
      </trkpt>
      <trkpt lat="43.66252" lon="2.34899">
        <ele>490.2</ele>
        <time>2025-09-16T13:40:20Z</time>
      </trkpt>
      <trkpt lat="43.66249" lon="2.34901">
        <ele>490.4</ele>
        <time>2025-09-16T13:40:21Z</time>
      </trkpt>
      <trkpt lat="43.66245" lon="2.34903">
        <ele>490.4</ele>
        <time>2025-09-16T13:40:22Z</time>
      </trkpt>
      <trkpt lat="43.66241" lon="2.34905">
        <ele>490.4</ele>
        <time>2025-09-16T13:40:23Z</time>
      </trkpt>
      <trkpt lat="43.66237" lon="2.34906">
        <ele>490.6</ele>
        <time>2025-09-16T13:40:24Z</time>
      </trkpt>
      <trkpt lat="43.66234" lon="2.34906">
        <ele>490.8</ele>
        <time>2025-09-16T13:40:25Z</time>
      </trkpt>
      <trkpt lat="43.6623" lon="2.34907">
        <ele>490.8</ele>
        <time>2025-09-16T13:40:26Z</time>
      </trkpt>
      <trkpt lat="43.66227" lon="2.34909">
        <ele>490.8</ele>
        <time>2025-09-16T13:40:27Z</time>
      </trkpt>
      <trkpt lat="43.66224" lon="2.34913">
        <ele>491</ele>
        <time>2025-09-16T13:40:28Z</time>
      </trkpt>
      <trkpt lat="43.66222" lon="2.34917">
        <ele>491</ele>
        <time>2025-09-16T13:40:29Z</time>
      </trkpt>
      <trkpt lat="43.6622" lon="2.34921">
        <ele>491</ele>
        <time>2025-09-16T13:40:30Z</time>
      </trkpt>
      <trkpt lat="43.66218" lon="2.34926">
        <ele>491</ele>
        <time>2025-09-16T13:40:31Z</time>
      </trkpt>
      <trkpt lat="43.66217" lon="2.34931">
        <ele>491</ele>
        <time>2025-09-16T13:40:32Z</time>
      </trkpt>
      <trkpt lat="43.66215" lon="2.34936">
        <ele>491</ele>
        <time>2025-09-16T13:40:33Z</time>
      </trkpt>
      <trkpt lat="43.66214" lon="2.34942">
        <ele>491.2</ele>
        <time>2025-09-16T13:40:34Z</time>
      </trkpt>
      <trkpt lat="43.66213" lon="2.34947">
        <ele>491.2</ele>
        <time>2025-09-16T13:40:35Z</time>
      </trkpt>
      <trkpt lat="43.66212" lon="2.34952">
        <ele>491.2</ele>
        <time>2025-09-16T13:40:36Z</time>
      </trkpt>
      <trkpt lat="43.66212" lon="2.34957">
        <ele>491.4</ele>
        <time>2025-09-16T13:40:37Z</time>
      </trkpt>
      <trkpt lat="43.66213" lon="2.34963">
        <ele>491.2</ele>
        <time>2025-09-16T13:40:38Z</time>
      </trkpt>
      <trkpt lat="43.66215" lon="2.34968">
        <ele>491.2</ele>
        <time>2025-09-16T13:40:39Z</time>
      </trkpt>
      <trkpt lat="43.66218" lon="2.34972">
        <ele>491.2</ele>
        <time>2025-09-16T13:40:40Z</time>
      </trkpt>
      <trkpt lat="43.66221" lon="2.34975">
        <ele>491</ele>
        <time>2025-09-16T13:40:41Z</time>
      </trkpt>
      <trkpt lat="43.66226" lon="2.34975">
        <ele>490.6</ele>
        <time>2025-09-16T13:40:42Z</time>
      </trkpt>
      <trkpt lat="43.6623" lon="2.34975">
        <ele>490.4</ele>
        <time>2025-09-16T13:40:43Z</time>
      </trkpt>
      <trkpt lat="43.66234" lon="2.34974">
        <ele>490.2</ele>
        <time>2025-09-16T13:40:44Z</time>
      </trkpt>
      <trkpt lat="43.66238" lon="2.34973">
        <ele>490.2</ele>
        <time>2025-09-16T13:40:45Z</time>
      </trkpt>
      <trkpt lat="43.66242" lon="2.34972">
        <ele>490.2</ele>
        <time>2025-09-16T13:40:46Z</time>
      </trkpt>
      <trkpt lat="43.66246" lon="2.34971">
        <ele>490.4</ele>
        <time>2025-09-16T13:40:47Z</time>
      </trkpt>
      <trkpt lat="43.6625" lon="2.34969">
        <ele>490.6</ele>
        <time>2025-09-16T13:40:48Z</time>
      </trkpt>
      <trkpt lat="43.66254" lon="2.34968">
        <ele>491</ele>
        <time>2025-09-16T13:40:49Z</time>
      </trkpt>
      <trkpt lat="43.66258" lon="2.34966">
        <ele>491.4</ele>
        <time>2025-09-16T13:40:50Z</time>
      </trkpt>
      <trkpt lat="43.66261" lon="2.34964">
        <ele>491.6</ele>
        <time>2025-09-16T13:40:51Z</time>
      </trkpt>
      <trkpt lat="43.66265" lon="2.34962">
        <ele>491.8</ele>
        <time>2025-09-16T13:40:52Z</time>
      </trkpt>
      <trkpt lat="43.66268" lon="2.34961">
        <ele>492</ele>
        <time>2025-09-16T13:40:53Z</time>
      </trkpt>
      <trkpt lat="43.66271" lon="2.34959">
        <ele>492</ele>
        <time>2025-09-16T13:40:54Z</time>
      </trkpt>
      <trkpt lat="43.66275" lon="2.34958">
        <ele>492.2</ele>
        <time>2025-09-16T13:40:55Z</time>
      </trkpt>
      <trkpt lat="43.66278" lon="2.34956">
        <ele>492.4</ele>
        <time>2025-09-16T13:40:56Z</time>
      </trkpt>
      <trkpt lat="43.6628" lon="2.34953">
        <ele>492.6</ele>
        <time>2025-09-16T13:40:57Z</time>
      </trkpt>
      <trkpt lat="43.66283" lon="2.34951">
        <ele>492.8</ele>
        <time>2025-09-16T13:40:58Z</time>
      </trkpt>
      <trkpt lat="43.66286" lon="2.34949">
        <ele>493</ele>
        <time>2025-09-16T13:40:59Z</time>
      </trkpt>
      <trkpt lat="43.66288" lon="2.34947">
        <ele>493.4</ele>
        <time>2025-09-16T13:41:00Z</time>
      </trkpt>
      <trkpt lat="43.66291" lon="2.34945">
        <ele>493.6</ele>
        <time>2025-09-16T13:41:01Z</time>
      </trkpt>
      <trkpt lat="43.66293" lon="2.34942">
        <ele>494</ele>
        <time>2025-09-16T13:41:02Z</time>
      </trkpt>
      <trkpt lat="43.66295" lon="2.3494">
        <ele>494.2</ele>
        <time>2025-09-16T13:41:03Z</time>
      </trkpt>
      <trkpt lat="43.66297" lon="2.34937">
        <ele>494.2</ele>
        <time>2025-09-16T13:41:04Z</time>
      </trkpt>
      <trkpt lat="43.66299" lon="2.34935">
        <ele>494.4</ele>
        <time>2025-09-16T13:41:05Z</time>
      </trkpt>
      <trkpt lat="43.66301" lon="2.34932">
        <ele>494.6</ele>
        <time>2025-09-16T13:41:06Z</time>
      </trkpt>
      <trkpt lat="43.66303" lon="2.3493">
        <ele>494.8</ele>
        <time>2025-09-16T13:41:07Z</time>
      </trkpt>
      <trkpt lat="43.66305" lon="2.34927">
        <ele>494.8</ele>
        <time>2025-09-16T13:41:08Z</time>
      </trkpt>
      <trkpt lat="43.66307" lon="2.34925">
        <ele>494.8</ele>
        <time>2025-09-16T13:41:09Z</time>
      </trkpt>
      <trkpt lat="43.6631" lon="2.34923">
        <ele>495</ele>
        <time>2025-09-16T13:41:10Z</time>
      </trkpt>
      <trkpt lat="43.66312" lon="2.3492">
        <ele>495.2</ele>
        <time>2025-09-16T13:41:11Z</time>
      </trkpt>
      <trkpt lat="43.66314" lon="2.34918">
        <ele>495.2</ele>
        <time>2025-09-16T13:41:12Z</time>
      </trkpt>
      <trkpt lat="43.66317" lon="2.34917">
        <ele>495.6</ele>
        <time>2025-09-16T13:41:13Z</time>
      </trkpt>
      <trkpt lat="43.6632" lon="2.34916">
        <ele>495.8</ele>
        <time>2025-09-16T13:41:14Z</time>
      </trkpt>
      <trkpt lat="43.66322" lon="2.34917">
        <ele>495.8</ele>
        <time>2025-09-16T13:41:15Z</time>
      </trkpt>
      <trkpt lat="43.66325" lon="2.34917">
        <ele>496</ele>
        <time>2025-09-16T13:41:16Z</time>
      </trkpt>
      <trkpt lat="43.66328" lon="2.34919">
        <ele>496.2</ele>
        <time>2025-09-16T13:41:17Z</time>
      </trkpt>
      <trkpt lat="43.66331" lon="2.34921">
        <ele>496.6</ele>
        <time>2025-09-16T13:41:18Z</time>
      </trkpt>
      <trkpt lat="43.66333" lon="2.34923">
        <ele>497</ele>
        <time>2025-09-16T13:41:19Z</time>
      </trkpt>
      <trkpt lat="43.66335" lon="2.34925">
        <ele>497.4</ele>
        <time>2025-09-16T13:41:20Z</time>
      </trkpt>
      <trkpt lat="43.66337" lon="2.34927">
        <ele>497.6</ele>
        <time>2025-09-16T13:41:21Z</time>
      </trkpt>
      <trkpt lat="43.66339" lon="2.3493">
        <ele>498</ele>
        <time>2025-09-16T13:41:22Z</time>
      </trkpt>
      <trkpt lat="43.66342" lon="2.34933">
        <ele>498</ele>
        <time>2025-09-16T13:41:23Z</time>
      </trkpt>
      <trkpt lat="43.66344" lon="2.34936">
        <ele>498</ele>
        <time>2025-09-16T13:41:24Z</time>
      </trkpt>
      <trkpt lat="43.66346" lon="2.34939">
        <ele>497.8</ele>
        <time>2025-09-16T13:41:25Z</time>
      </trkpt>
      <trkpt lat="43.66348" lon="2.34943">
        <ele>497.6</ele>
        <time>2025-09-16T13:41:26Z</time>
      </trkpt>
      <trkpt lat="43.66349" lon="2.34946">
        <ele>497.6</ele>
        <time>2025-09-16T13:41:27Z</time>
      </trkpt>
      <trkpt lat="43.66351" lon="2.3495">
        <ele>497.6</ele>
        <time>2025-09-16T13:41:28Z</time>
      </trkpt>
      <trkpt lat="43.66353" lon="2.34954">
        <ele>497.6</ele>
        <time>2025-09-16T13:41:29Z</time>
      </trkpt>
      <trkpt lat="43.66355" lon="2.34958">
        <ele>497.6</ele>
        <time>2025-09-16T13:41:30Z</time>
      </trkpt>
      <trkpt lat="43.66356" lon="2.34962">
        <ele>497.6</ele>
        <time>2025-09-16T13:41:31Z</time>
      </trkpt>
      <trkpt lat="43.66357" lon="2.34967">
        <ele>497.6</ele>
        <time>2025-09-16T13:41:32Z</time>
      </trkpt>
      <trkpt lat="43.66358" lon="2.34971">
        <ele>497.6</ele>
        <time>2025-09-16T13:41:33Z</time>
      </trkpt>
      <trkpt lat="43.6636" lon="2.34975">
        <ele>497.6</ele>
        <time>2025-09-16T13:41:34Z</time>
      </trkpt>
      <trkpt lat="43.66361" lon="2.34979">
        <ele>497.6</ele>
        <time>2025-09-16T13:41:35Z</time>
      </trkpt>
      <trkpt lat="43.66363" lon="2.34983">
        <ele>497.6</ele>
        <time>2025-09-16T13:41:36Z</time>
      </trkpt>
      <trkpt lat="43.66364" lon="2.34987">
        <ele>497.8</ele>
        <time>2025-09-16T13:41:37Z</time>
      </trkpt>
      <trkpt lat="43.66365" lon="2.34991">
        <ele>498</ele>
        <time>2025-09-16T13:41:38Z</time>
      </trkpt>
      <trkpt lat="43.66366" lon="2.34995">
        <ele>498</ele>
        <time>2025-09-16T13:41:39Z</time>
      </trkpt>
      <trkpt lat="43.66367" lon="2.34999">
        <ele>498.2</ele>
        <time>2025-09-16T13:41:40Z</time>
      </trkpt>
      <trkpt lat="43.66368" lon="2.35004">
        <ele>498.4</ele>
        <time>2025-09-16T13:41:41Z</time>
      </trkpt>
      <trkpt lat="43.66369" lon="2.35008">
        <ele>498.4</ele>
        <time>2025-09-16T13:41:42Z</time>
      </trkpt>
      <trkpt lat="43.6637" lon="2.35013">
        <ele>498.6</ele>
        <time>2025-09-16T13:41:43Z</time>
      </trkpt>
      <trkpt lat="43.6637" lon="2.35018">
        <ele>498.6</ele>
        <time>2025-09-16T13:41:44Z</time>
      </trkpt>
      <trkpt lat="43.66371" lon="2.35022">
        <ele>498.6</ele>
        <time>2025-09-16T13:41:45Z</time>
      </trkpt>
      <trkpt lat="43.66372" lon="2.35027">
        <ele>498.4</ele>
        <time>2025-09-16T13:41:46Z</time>
      </trkpt>
      <trkpt lat="43.66372" lon="2.35032">
        <ele>498.4</ele>
        <time>2025-09-16T13:41:47Z</time>
      </trkpt>
      <trkpt lat="43.66372" lon="2.35037">
        <ele>498.4</ele>
        <time>2025-09-16T13:41:48Z</time>
      </trkpt>
      <trkpt lat="43.66373" lon="2.35042">
        <ele>498.4</ele>
        <time>2025-09-16T13:41:49Z</time>
      </trkpt>
      <trkpt lat="43.66373" lon="2.35047">
        <ele>498.2</ele>
        <time>2025-09-16T13:41:50Z</time>
      </trkpt>
      <trkpt lat="43.66372" lon="2.35052">
        <ele>498.4</ele>
        <time>2025-09-16T13:41:51Z</time>
      </trkpt>
      <trkpt lat="43.66372" lon="2.35057">
        <ele>498.4</ele>
        <time>2025-09-16T13:41:52Z</time>
      </trkpt>
      <trkpt lat="43.66371" lon="2.35062">
        <ele>498.4</ele>
        <time>2025-09-16T13:41:53Z</time>
      </trkpt>
      <trkpt lat="43.6637" lon="2.35067">
        <ele>498.6</ele>
        <time>2025-09-16T13:41:54Z</time>
      </trkpt>
      <trkpt lat="43.6637" lon="2.35072">
        <ele>498.6</ele>
        <time>2025-09-16T13:41:55Z</time>
      </trkpt>
      <trkpt lat="43.6637" lon="2.35077">
        <ele>498.8</ele>
        <time>2025-09-16T13:41:56Z</time>
      </trkpt>
      <trkpt lat="43.66369" lon="2.35082">
        <ele>498.8</ele>
        <time>2025-09-16T13:41:57Z</time>
      </trkpt>
      <trkpt lat="43.66369" lon="2.35087">
        <ele>498.8</ele>
        <time>2025-09-16T13:41:58Z</time>
      </trkpt>
      <trkpt lat="43.66368" lon="2.35092">
        <ele>498.8</ele>
        <time>2025-09-16T13:41:59Z</time>
      </trkpt>
      <trkpt lat="43.66368" lon="2.35097">
        <ele>498.8</ele>
        <time>2025-09-16T13:42:00Z</time>
      </trkpt>
      <trkpt lat="43.66369" lon="2.35102">
        <ele>498.8</ele>
        <time>2025-09-16T13:42:01Z</time>
      </trkpt>
      <trkpt lat="43.66369" lon="2.35107">
        <ele>498.8</ele>
        <time>2025-09-16T13:42:02Z</time>
      </trkpt>
      <trkpt lat="43.6637" lon="2.35111">
        <ele>498.8</ele>
        <time>2025-09-16T13:42:03Z</time>
      </trkpt>
      <trkpt lat="43.66371" lon="2.35116">
        <ele>498.8</ele>
        <time>2025-09-16T13:42:04Z</time>
      </trkpt>
      <trkpt lat="43.66372" lon="2.35121">
        <ele>498.8</ele>
        <time>2025-09-16T13:42:05Z</time>
      </trkpt>
      <trkpt lat="43.66373" lon="2.35126">
        <ele>498.8</ele>
        <time>2025-09-16T13:42:06Z</time>
      </trkpt>
      <trkpt lat="43.66374" lon="2.35131">
        <ele>498.8</ele>
        <time>2025-09-16T13:42:07Z</time>
      </trkpt>
      <trkpt lat="43.66376" lon="2.35136">
        <ele>498.8</ele>
        <time>2025-09-16T13:42:08Z</time>
      </trkpt>
      <trkpt lat="43.66377" lon="2.3514">
        <ele>499</ele>
        <time>2025-09-16T13:42:09Z</time>
      </trkpt>
      <trkpt lat="43.66379" lon="2.35144">
        <ele>499</ele>
        <time>2025-09-16T13:42:10Z</time>
      </trkpt>
      <trkpt lat="43.66381" lon="2.35149">
        <ele>499</ele>
        <time>2025-09-16T13:42:11Z</time>
      </trkpt>
      <trkpt lat="43.66384" lon="2.35152">
        <ele>499</ele>
        <time>2025-09-16T13:42:12Z</time>
      </trkpt>
      <trkpt lat="43.66386" lon="2.35156">
        <ele>499</ele>
        <time>2025-09-16T13:42:13Z</time>
      </trkpt>
      <trkpt lat="43.66389" lon="2.35159">
        <ele>499.2</ele>
        <time>2025-09-16T13:42:14Z</time>
      </trkpt>
      <trkpt lat="43.66392" lon="2.35162">
        <ele>499.2</ele>
        <time>2025-09-16T13:42:15Z</time>
      </trkpt>
      <trkpt lat="43.66395" lon="2.35165">
        <ele>499.4</ele>
        <time>2025-09-16T13:42:16Z</time>
      </trkpt>
      <trkpt lat="43.66397" lon="2.35168">
        <ele>499.4</ele>
        <time>2025-09-16T13:42:17Z</time>
      </trkpt>
      <trkpt lat="43.664" lon="2.35171">
        <ele>499.4</ele>
        <time>2025-09-16T13:42:18Z</time>
      </trkpt>
      <trkpt lat="43.66403" lon="2.35174">
        <ele>499.2</ele>
        <time>2025-09-16T13:42:19Z</time>
      </trkpt>
      <trkpt lat="43.66405" lon="2.35176">
        <ele>499.2</ele>
        <time>2025-09-16T13:42:20Z</time>
      </trkpt>
      <trkpt lat="43.66408" lon="2.35178">
        <ele>499.2</ele>
        <time>2025-09-16T13:42:21Z</time>
      </trkpt>
      <trkpt lat="43.66411" lon="2.35181">
        <ele>499.2</ele>
        <time>2025-09-16T13:42:22Z</time>
      </trkpt>
      <trkpt lat="43.66413" lon="2.35183">
        <ele>499.6</ele>
        <time>2025-09-16T13:42:23Z</time>
      </trkpt>
      <trkpt lat="43.66415" lon="2.35185">
        <ele>499.8</ele>
        <time>2025-09-16T13:42:24Z</time>
      </trkpt>
      <trkpt lat="43.66418" lon="2.35187">
        <ele>500.2</ele>
        <time>2025-09-16T13:42:25Z</time>
      </trkpt>
      <trkpt lat="43.66419" lon="2.35189">
        <ele>500.4</ele>
        <time>2025-09-16T13:42:26Z</time>
      </trkpt>
      <trkpt lat="43.66421" lon="2.35192">
        <ele>500.8</ele>
        <time>2025-09-16T13:42:27Z</time>
      </trkpt>
      <trkpt lat="43.66423" lon="2.35194">
        <ele>501</ele>
        <time>2025-09-16T13:42:28Z</time>
      </trkpt>
      <trkpt lat="43.66425" lon="2.35196">
        <ele>501.2</ele>
        <time>2025-09-16T13:42:29Z</time>
      </trkpt>
      <trkpt lat="43.66426" lon="2.35199">
        <ele>501.2</ele>
        <time>2025-09-16T13:42:30Z</time>
      </trkpt>
      <trkpt lat="43.66428" lon="2.35202">
        <ele>501.4</ele>
        <time>2025-09-16T13:42:31Z</time>
      </trkpt>
      <trkpt lat="43.6643" lon="2.35205">
        <ele>501.6</ele>
        <time>2025-09-16T13:42:32Z</time>
      </trkpt>
      <trkpt lat="43.66431" lon="2.35207">
        <ele>501.8</ele>
        <time>2025-09-16T13:42:33Z</time>
      </trkpt>
      <trkpt lat="43.66433" lon="2.3521">
        <ele>501.8</ele>
        <time>2025-09-16T13:42:34Z</time>
      </trkpt>
      <trkpt lat="43.66434" lon="2.35213">
        <ele>502</ele>
        <time>2025-09-16T13:42:35Z</time>
      </trkpt>
      <trkpt lat="43.66435" lon="2.35216">
        <ele>502</ele>
        <time>2025-09-16T13:42:36Z</time>
      </trkpt>
      <trkpt lat="43.66437" lon="2.3522">
        <ele>502</ele>
        <time>2025-09-16T13:42:37Z</time>
      </trkpt>
      <trkpt lat="43.66437" lon="2.35222">
        <ele>502</ele>
        <time>2025-09-16T13:42:38Z</time>
      </trkpt>
      <trkpt lat="43.66438" lon="2.35225">
        <ele>502</ele>
        <time>2025-09-16T13:42:39Z</time>
      </trkpt>
      <trkpt lat="43.66439" lon="2.35229">
        <ele>502.2</ele>
        <time>2025-09-16T13:42:40Z</time>
      </trkpt>
      <trkpt lat="43.6644" lon="2.35232">
        <ele>502.2</ele>
        <time>2025-09-16T13:42:41Z</time>
      </trkpt>
      <trkpt lat="43.66441" lon="2.35235">
        <ele>502.2</ele>
        <time>2025-09-16T13:42:42Z</time>
      </trkpt>
      <trkpt lat="43.66442" lon="2.35238">
        <ele>502.2</ele>
        <time>2025-09-16T13:42:43Z</time>
      </trkpt>
      <trkpt lat="43.66443" lon="2.35242">
        <ele>502.2</ele>
        <time>2025-09-16T13:42:44Z</time>
      </trkpt>
      <trkpt lat="43.66445" lon="2.35246">
        <ele>502.2</ele>
        <time>2025-09-16T13:42:45Z</time>
      </trkpt>
      <trkpt lat="43.66446" lon="2.35248">
        <ele>502.4</ele>
        <time>2025-09-16T13:42:46Z</time>
      </trkpt>
      <trkpt lat="43.66447" lon="2.35251">
        <ele>502.4</ele>
        <time>2025-09-16T13:42:47Z</time>
      </trkpt>
      <trkpt lat="43.66448" lon="2.35254">
        <ele>502.4</ele>
        <time>2025-09-16T13:42:48Z</time>
      </trkpt>
      <trkpt lat="43.66449" lon="2.35258">
        <ele>502.6</ele>
        <time>2025-09-16T13:42:49Z</time>
      </trkpt>
      <trkpt lat="43.6645" lon="2.35261">
        <ele>502.6</ele>
        <time>2025-09-16T13:42:50Z</time>
      </trkpt>
      <trkpt lat="43.66451" lon="2.35265">
        <ele>502.8</ele>
        <time>2025-09-16T13:42:51Z</time>
      </trkpt>
      <trkpt lat="43.66452" lon="2.35268">
        <ele>503</ele>
        <time>2025-09-16T13:42:52Z</time>
      </trkpt>
      <trkpt lat="43.66453" lon="2.35272">
        <ele>503.2</ele>
        <time>2025-09-16T13:42:53Z</time>
      </trkpt>
      <trkpt lat="43.66454" lon="2.35275">
        <ele>503.4</ele>
        <time>2025-09-16T13:42:54Z</time>
      </trkpt>
      <trkpt lat="43.66455" lon="2.35278">
        <ele>503.6</ele>
        <time>2025-09-16T13:42:55Z</time>
      </trkpt>
      <trkpt lat="43.66457" lon="2.35281">
        <ele>503.6</ele>
        <time>2025-09-16T13:42:56Z</time>
      </trkpt>
      <trkpt lat="43.66459" lon="2.35283">
        <ele>503.6</ele>
        <time>2025-09-16T13:42:57Z</time>
      </trkpt>
      <trkpt lat="43.66461" lon="2.35285">
        <ele>503.6</ele>
        <time>2025-09-16T13:42:58Z</time>
      </trkpt>
      <trkpt lat="43.66463" lon="2.35287">
        <ele>503.6</ele>
        <time>2025-09-16T13:42:59Z</time>
      </trkpt>
      <trkpt lat="43.66466" lon="2.35288">
        <ele>503.4</ele>
        <time>2025-09-16T13:43:00Z</time>
      </trkpt>
      <trkpt lat="43.66468" lon="2.3529">
        <ele>503.6</ele>
        <time>2025-09-16T13:43:01Z</time>
      </trkpt>
      <trkpt lat="43.6647" lon="2.35291">
        <ele>503.6</ele>
        <time>2025-09-16T13:43:02Z</time>
      </trkpt>
      <trkpt lat="43.66472" lon="2.35292">
        <ele>503.8</ele>
        <time>2025-09-16T13:43:03Z</time>
      </trkpt>
      <trkpt lat="43.66475" lon="2.35292">
        <ele>503.8</ele>
        <time>2025-09-16T13:43:04Z</time>
      </trkpt>
      <trkpt lat="43.66477" lon="2.35292">
        <ele>504</ele>
        <time>2025-09-16T13:43:05Z</time>
      </trkpt>
      <trkpt lat="43.66479" lon="2.35292">
        <ele>504.2</ele>
        <time>2025-09-16T13:43:06Z</time>
      </trkpt>
      <trkpt lat="43.66481" lon="2.35292">
        <ele>504.4</ele>
        <time>2025-09-16T13:43:07Z</time>
      </trkpt>
      <trkpt lat="43.66484" lon="2.35292">
        <ele>504.6</ele>
        <time>2025-09-16T13:43:08Z</time>
      </trkpt>
      <trkpt lat="43.66486" lon="2.35293">
        <ele>505</ele>
        <time>2025-09-16T13:43:09Z</time>
      </trkpt>
      <trkpt lat="43.66488" lon="2.35293">
        <ele>505.2</ele>
        <time>2025-09-16T13:43:10Z</time>
      </trkpt>
      <trkpt lat="43.66491" lon="2.35294">
        <ele>505.2</ele>
        <time>2025-09-16T13:43:11Z</time>
      </trkpt>
      <trkpt lat="43.66492" lon="2.35294">
        <ele>505.4</ele>
        <time>2025-09-16T13:43:12Z</time>
      </trkpt>
      <trkpt lat="43.66494" lon="2.35295">
        <ele>505.4</ele>
        <time>2025-09-16T13:43:13Z</time>
      </trkpt>
      <trkpt lat="43.66497" lon="2.35295">
        <ele>505.4</ele>
        <time>2025-09-16T13:43:14Z</time>
      </trkpt>
      <trkpt lat="43.66499" lon="2.35295">
        <ele>505.6</ele>
        <time>2025-09-16T13:43:15Z</time>
      </trkpt>
      <trkpt lat="43.66501" lon="2.35295">
        <ele>505.8</ele>
        <time>2025-09-16T13:43:16Z</time>
      </trkpt>
      <trkpt lat="43.66503" lon="2.35294">
        <ele>505.8</ele>
        <time>2025-09-16T13:43:17Z</time>
      </trkpt>
      <trkpt lat="43.66506" lon="2.35294">
        <ele>506</ele>
        <time>2025-09-16T13:43:18Z</time>
      </trkpt>
      <trkpt lat="43.66508" lon="2.35294">
        <ele>506.2</ele>
        <time>2025-09-16T13:43:19Z</time>
      </trkpt>
      <trkpt lat="43.6651" lon="2.35293">
        <ele>506.2</ele>
        <time>2025-09-16T13:43:20Z</time>
      </trkpt>
      <trkpt lat="43.66512" lon="2.35293">
        <ele>506.2</ele>
        <time>2025-09-16T13:43:21Z</time>
      </trkpt>
      <trkpt lat="43.66514" lon="2.35293">
        <ele>506.2</ele>
        <time>2025-09-16T13:43:22Z</time>
      </trkpt>
      <trkpt lat="43.66517" lon="2.35293">
        <ele>506.4</ele>
        <time>2025-09-16T13:43:23Z</time>
      </trkpt>
      <trkpt lat="43.66519" lon="2.35293">
        <ele>506.4</ele>
        <time>2025-09-16T13:43:24Z</time>
      </trkpt>
      <trkpt lat="43.66521" lon="2.35293">
        <ele>506.6</ele>
        <time>2025-09-16T13:43:25Z</time>
      </trkpt>
      <trkpt lat="43.66524" lon="2.35293">
        <ele>506.8</ele>
        <time>2025-09-16T13:43:26Z</time>
      </trkpt>
      <trkpt lat="43.66526" lon="2.35294">
        <ele>507</ele>
        <time>2025-09-16T13:43:27Z</time>
      </trkpt>
      <trkpt lat="43.66528" lon="2.35294">
        <ele>507.2</ele>
        <time>2025-09-16T13:43:28Z</time>
      </trkpt>
      <trkpt lat="43.6653" lon="2.35295">
        <ele>507.4</ele>
        <time>2025-09-16T13:43:29Z</time>
      </trkpt>
      <trkpt lat="43.66532" lon="2.35295">
        <ele>507.4</ele>
        <time>2025-09-16T13:43:30Z</time>
      </trkpt>
      <trkpt lat="43.66535" lon="2.35295">
        <ele>507.6</ele>
        <time>2025-09-16T13:43:31Z</time>
      </trkpt>
      <trkpt lat="43.66537" lon="2.35295">
        <ele>507.6</ele>
        <time>2025-09-16T13:43:32Z</time>
      </trkpt>
      <trkpt lat="43.66539" lon="2.35295">
        <ele>507.8</ele>
        <time>2025-09-16T13:43:33Z</time>
      </trkpt>
      <trkpt lat="43.66541" lon="2.35294">
        <ele>507.8</ele>
        <time>2025-09-16T13:43:34Z</time>
      </trkpt>
      <trkpt lat="43.66543" lon="2.35294">
        <ele>508</ele>
        <time>2025-09-16T13:43:35Z</time>
      </trkpt>
      <trkpt lat="43.66546" lon="2.35293">
        <ele>508</ele>
        <time>2025-09-16T13:43:36Z</time>
      </trkpt>
      <trkpt lat="43.66548" lon="2.35294">
        <ele>508.2</ele>
        <time>2025-09-16T13:43:37Z</time>
      </trkpt>
      <trkpt lat="43.6655" lon="2.35295">
        <ele>508.4</ele>
        <time>2025-09-16T13:43:38Z</time>
      </trkpt>
      <trkpt lat="43.66552" lon="2.35295">
        <ele>508.6</ele>
        <time>2025-09-16T13:43:39Z</time>
      </trkpt>
      <trkpt lat="43.66554" lon="2.35296">
        <ele>508.8</ele>
        <time>2025-09-16T13:43:40Z</time>
      </trkpt>
      <trkpt lat="43.66556" lon="2.35297">
        <ele>509</ele>
        <time>2025-09-16T13:43:41Z</time>
      </trkpt>
      <trkpt lat="43.66558" lon="2.35299">
        <ele>509</ele>
        <time>2025-09-16T13:43:42Z</time>
      </trkpt>
      <trkpt lat="43.6656" lon="2.35302">
        <ele>509.2</ele>
        <time>2025-09-16T13:43:43Z</time>
      </trkpt>
      <trkpt lat="43.66562" lon="2.35304">
        <ele>509.2</ele>
        <time>2025-09-16T13:43:44Z</time>
      </trkpt>
      <trkpt lat="43.66563" lon="2.35307">
        <ele>509.2</ele>
        <time>2025-09-16T13:43:45Z</time>
      </trkpt>
      <trkpt lat="43.66565" lon="2.35309">
        <ele>509.4</ele>
        <time>2025-09-16T13:43:46Z</time>
      </trkpt>
      <trkpt lat="43.66566" lon="2.35312">
        <ele>509.4</ele>
        <time>2025-09-16T13:43:47Z</time>
      </trkpt>
      <trkpt lat="43.66568" lon="2.35314">
        <ele>509.6</ele>
        <time>2025-09-16T13:43:48Z</time>
      </trkpt>
      <trkpt lat="43.66569" lon="2.35317">
        <ele>509.6</ele>
        <time>2025-09-16T13:43:49Z</time>
      </trkpt>
      <trkpt lat="43.66571" lon="2.35319">
        <ele>510</ele>
        <time>2025-09-16T13:43:50Z</time>
      </trkpt>
      <trkpt lat="43.66572" lon="2.35321">
        <ele>510</ele>
        <time>2025-09-16T13:43:51Z</time>
      </trkpt>
      <trkpt lat="43.66574" lon="2.35324">
        <ele>510.2</ele>
        <time>2025-09-16T13:43:52Z</time>
      </trkpt>
      <trkpt lat="43.66575" lon="2.35326">
        <ele>510.2</ele>
        <time>2025-09-16T13:43:53Z</time>
      </trkpt>
      <trkpt lat="43.66576" lon="2.35329">
        <ele>510.4</ele>
        <time>2025-09-16T13:43:54Z</time>
      </trkpt>
      <trkpt lat="43.66577" lon="2.35331">
        <ele>510.4</ele>
        <time>2025-09-16T13:43:55Z</time>
      </trkpt>
      <trkpt lat="43.66578" lon="2.35334">
        <ele>510.4</ele>
        <time>2025-09-16T13:43:56Z</time>
      </trkpt>
      <trkpt lat="43.66579" lon="2.35337">
        <ele>510.4</ele>
        <time>2025-09-16T13:43:57Z</time>
      </trkpt>
      <trkpt lat="43.6658" lon="2.3534">
        <ele>510.6</ele>
        <time>2025-09-16T13:43:58Z</time>
      </trkpt>
      <trkpt lat="43.66581" lon="2.35343">
        <ele>510.6</ele>
        <time>2025-09-16T13:43:59Z</time>
      </trkpt>
      <trkpt lat="43.66581" lon="2.35346">
        <ele>510.6</ele>
        <time>2025-09-16T13:44:00Z</time>
      </trkpt>
      <trkpt lat="43.66582" lon="2.35349">
        <ele>510.8</ele>
        <time>2025-09-16T13:44:01Z</time>
      </trkpt>
      <trkpt lat="43.66582" lon="2.35352">
        <ele>510.8</ele>
        <time>2025-09-16T13:44:02Z</time>
      </trkpt>
      <trkpt lat="43.66583" lon="2.35356">
        <ele>510.8</ele>
        <time>2025-09-16T13:44:03Z</time>
      </trkpt>
      <trkpt lat="43.66584" lon="2.3536">
        <ele>510.6</ele>
        <time>2025-09-16T13:44:04Z</time>
      </trkpt>
      <trkpt lat="43.66585" lon="2.35364">
        <ele>510.4</ele>
        <time>2025-09-16T13:44:05Z</time>
      </trkpt>
      <trkpt lat="43.66585" lon="2.35368">
        <ele>510.2</ele>
        <time>2025-09-16T13:44:06Z</time>
      </trkpt>
      <trkpt lat="43.66585" lon="2.35373">
        <ele>510.2</ele>
        <time>2025-09-16T13:44:07Z</time>
      </trkpt>
      <trkpt lat="43.66585" lon="2.35377">
        <ele>510</ele>
        <time>2025-09-16T13:44:08Z</time>
      </trkpt>
      <trkpt lat="43.66585" lon="2.35382">
        <ele>509.8</ele>
        <time>2025-09-16T13:44:09Z</time>
      </trkpt>
      <trkpt lat="43.66584" lon="2.35386">
        <ele>509.8</ele>
        <time>2025-09-16T13:44:10Z</time>
      </trkpt>
      <trkpt lat="43.66583" lon="2.35392">
        <ele>509.6</ele>
        <time>2025-09-16T13:44:11Z</time>
      </trkpt>
      <trkpt lat="43.66582" lon="2.35397">
        <ele>509.4</ele>
        <time>2025-09-16T13:44:12Z</time>
      </trkpt>
      <trkpt lat="43.6658" lon="2.35403">
        <ele>509</ele>
        <time>2025-09-16T13:44:13Z</time>
      </trkpt>
      <trkpt lat="43.66578" lon="2.35408">
        <ele>508.6</ele>
        <time>2025-09-16T13:44:14Z</time>
      </trkpt>
      <trkpt lat="43.66575" lon="2.35414">
        <ele>508.2</ele>
        <time>2025-09-16T13:44:15Z</time>
      </trkpt>
      <trkpt lat="43.66573" lon="2.3542">
        <ele>507.8</ele>
        <time>2025-09-16T13:44:16Z</time>
      </trkpt>
      <trkpt lat="43.66571" lon="2.35426">
        <ele>507.2</ele>
        <time>2025-09-16T13:44:17Z</time>
      </trkpt>
      <trkpt lat="43.66568" lon="2.35433">
        <ele>506.6</ele>
        <time>2025-09-16T13:44:18Z</time>
      </trkpt>
      <trkpt lat="43.66565" lon="2.35441">
        <ele>505.8</ele>
        <time>2025-09-16T13:44:19Z</time>
      </trkpt>
      <trkpt lat="43.66561" lon="2.35448">
        <ele>504.6</ele>
        <time>2025-09-16T13:44:20Z</time>
      </trkpt>
      <trkpt lat="43.66558" lon="2.35457">
        <ele>503.6</ele>
        <time>2025-09-16T13:44:21Z</time>
      </trkpt>
      <trkpt lat="43.66555" lon="2.35467">
        <ele>502.8</ele>
        <time>2025-09-16T13:44:22Z</time>
      </trkpt>
      <trkpt lat="43.66551" lon="2.35478">
        <ele>502.2</ele>
        <time>2025-09-16T13:44:23Z</time>
      </trkpt>
      <trkpt lat="43.66548" lon="2.3549">
        <ele>501.2</ele>
        <time>2025-09-16T13:44:24Z</time>
      </trkpt>
      <trkpt lat="43.66545" lon="2.35502">
        <ele>500</ele>
        <time>2025-09-16T13:44:25Z</time>
      </trkpt>
      <trkpt lat="43.66543" lon="2.35513">
        <ele>499</ele>
        <time>2025-09-16T13:44:26Z</time>
      </trkpt>
      <trkpt lat="43.66541" lon="2.35523">
        <ele>497.8</ele>
        <time>2025-09-16T13:44:27Z</time>
      </trkpt>
      <trkpt lat="43.66539" lon="2.35533">
        <ele>497</ele>
        <time>2025-09-16T13:44:28Z</time>
      </trkpt>
      <trkpt lat="43.66537" lon="2.35543">
        <ele>496.2</ele>
        <time>2025-09-16T13:44:29Z</time>
      </trkpt>
      <trkpt lat="43.66535" lon="2.35553">
        <ele>495.8</ele>
        <time>2025-09-16T13:44:30Z</time>
      </trkpt>
      <trkpt lat="43.66533" lon="2.35564">
        <ele>494.2</ele>
        <time>2025-09-16T13:44:31Z</time>
      </trkpt>
      <trkpt lat="43.66531" lon="2.35575">
        <ele>493</ele>
        <time>2025-09-16T13:44:32Z</time>
      </trkpt>
      <trkpt lat="43.66529" lon="2.35586">
        <ele>492.2</ele>
        <time>2025-09-16T13:44:33Z</time>
      </trkpt>
      <trkpt lat="43.66526" lon="2.35595">
        <ele>491.2</ele>
        <time>2025-09-16T13:44:34Z</time>
      </trkpt>
      <trkpt lat="43.66523" lon="2.35603">
        <ele>490.6</ele>
        <time>2025-09-16T13:44:35Z</time>
      </trkpt>
      <trkpt lat="43.6652" lon="2.3561">
        <ele>490</ele>
        <time>2025-09-16T13:44:36Z</time>
      </trkpt>
      <trkpt lat="43.66518" lon="2.35616">
        <ele>489.8</ele>
        <time>2025-09-16T13:44:37Z</time>
      </trkpt>
      <trkpt lat="43.66516" lon="2.35621">
        <ele>489.6</ele>
        <time>2025-09-16T13:44:38Z</time>
      </trkpt>
      <trkpt lat="43.66516" lon="2.35626">
        <ele>489.6</ele>
        <time>2025-09-16T13:44:39Z</time>
      </trkpt>
      <trkpt lat="43.66517" lon="2.35629">
        <ele>489.6</ele>
        <time>2025-09-16T13:44:40Z</time>
      </trkpt>
      <trkpt lat="43.66519" lon="2.35629">
        <ele>489.6</ele>
        <time>2025-09-16T13:44:41Z</time>
      </trkpt>
      <trkpt lat="43.66521" lon="2.35628">
        <ele>489.4</ele>
        <time>2025-09-16T13:44:42Z</time>
      </trkpt>
      <trkpt lat="43.66523" lon="2.35625">
        <ele>489</ele>
        <time>2025-09-16T13:44:43Z</time>
      </trkpt>
      <trkpt lat="43.66525" lon="2.35621">
        <ele>488.6</ele>
        <time>2025-09-16T13:44:44Z</time>
      </trkpt>
      <trkpt lat="43.66526" lon="2.35618">
        <ele>488</ele>
        <time>2025-09-16T13:44:45Z</time>
      </trkpt>
      <trkpt lat="43.66528" lon="2.35614">
        <ele>487.6</ele>
        <time>2025-09-16T13:44:46Z</time>
      </trkpt>
      <trkpt lat="43.66531" lon="2.3561">
        <ele>487.2</ele>
        <time>2025-09-16T13:44:47Z</time>
      </trkpt>
      <trkpt lat="43.66533" lon="2.35606">
        <ele>486.8</ele>
        <time>2025-09-16T13:44:48Z</time>
      </trkpt>
      <trkpt lat="43.66535" lon="2.35604">
        <ele>486.2</ele>
        <time>2025-09-16T13:44:49Z</time>
      </trkpt>
      <trkpt lat="43.66537" lon="2.35603">
        <ele>486.2</ele>
        <time>2025-09-16T13:44:50Z</time>
      </trkpt>
      <trkpt lat="43.66538" lon="2.35604">
        <ele>486</ele>
        <time>2025-09-16T13:44:51Z</time>
      </trkpt>
      <trkpt lat="43.66538" lon="2.35608">
        <ele>485.8</ele>
        <time>2025-09-16T13:44:52Z</time>
      </trkpt>
      <trkpt lat="43.66537" lon="2.35611">
        <ele>485.6</ele>
        <time>2025-09-16T13:44:53Z</time>
      </trkpt>
      <trkpt lat="43.66536" lon="2.35616">
        <ele>485.2</ele>
        <time>2025-09-16T13:44:54Z</time>
      </trkpt>
      <trkpt lat="43.66534" lon="2.35622">
        <ele>484.6</ele>
        <time>2025-09-16T13:44:55Z</time>
      </trkpt>
      <trkpt lat="43.66533" lon="2.35626">
        <ele>484</ele>
        <time>2025-09-16T13:44:56Z</time>
      </trkpt>
      <trkpt lat="43.66531" lon="2.35634">
        <ele>483.2</ele>
        <time>2025-09-16T13:44:57Z</time>
      </trkpt>
      <trkpt lat="43.6653" lon="2.35642">
        <ele>482.4</ele>
        <time>2025-09-16T13:44:58Z</time>
      </trkpt>
      <trkpt lat="43.66529" lon="2.35648">
        <ele>481.6</ele>
        <time>2025-09-16T13:44:59Z</time>
      </trkpt>
      <trkpt lat="43.66526" lon="2.35658">
        <ele>480.4</ele>
        <time>2025-09-16T13:45:00Z</time>
      </trkpt>
      <trkpt lat="43.66523" lon="2.35665">
        <ele>479.6</ele>
        <time>2025-09-16T13:45:01Z</time>
      </trkpt>
      <trkpt lat="43.6652" lon="2.35674">
        <ele>479</ele>
        <time>2025-09-16T13:45:02Z</time>
      </trkpt>
      <trkpt lat="43.66517" lon="2.35683">
        <ele>478.2</ele>
        <time>2025-09-16T13:45:03Z</time>
      </trkpt>
      <trkpt lat="43.66514" lon="2.35694">
        <ele>477.6</ele>
        <time>2025-09-16T13:45:04Z</time>
      </trkpt>
      <trkpt lat="43.66512" lon="2.35705">
        <ele>476.8</ele>
        <time>2025-09-16T13:45:05Z</time>
      </trkpt>
      <trkpt lat="43.6651" lon="2.35717">
        <ele>475.8</ele>
        <time>2025-09-16T13:45:06Z</time>
      </trkpt>
      <trkpt lat="43.66509" lon="2.35729">
        <ele>475.2</ele>
        <time>2025-09-16T13:45:07Z</time>
      </trkpt>
      <trkpt lat="43.66507" lon="2.3574">
        <ele>474.8</ele>
        <time>2025-09-16T13:45:08Z</time>
      </trkpt>
      <trkpt lat="43.66505" lon="2.35749">
        <ele>474.4</ele>
        <time>2025-09-16T13:45:09Z</time>
      </trkpt>
      <trkpt lat="43.66503" lon="2.35761">
        <ele>474.4</ele>
        <time>2025-09-16T13:45:10Z</time>
      </trkpt>
      <trkpt lat="43.66501" lon="2.35769">
        <ele>474.6</ele>
        <time>2025-09-16T13:45:11Z</time>
      </trkpt>
      <trkpt lat="43.66501" lon="2.35777">
        <ele>475</ele>
        <time>2025-09-16T13:45:12Z</time>
      </trkpt>
      <trkpt lat="43.66501" lon="2.35783">
        <ele>475.4</ele>
        <time>2025-09-16T13:45:13Z</time>
      </trkpt>
      <trkpt lat="43.66502" lon="2.35789">
        <ele>475.8</ele>
        <time>2025-09-16T13:45:14Z</time>
      </trkpt>
      <trkpt lat="43.66505" lon="2.35795">
        <ele>476.4</ele>
        <time>2025-09-16T13:45:15Z</time>
      </trkpt>
      <trkpt lat="43.66508" lon="2.35798">
        <ele>476.6</ele>
        <time>2025-09-16T13:45:16Z</time>
      </trkpt>
      <trkpt lat="43.6651" lon="2.35802">
        <ele>477</ele>
        <time>2025-09-16T13:45:17Z</time>
      </trkpt>
      <trkpt lat="43.66512" lon="2.35803">
        <ele>477.2</ele>
        <time>2025-09-16T13:45:18Z</time>
      </trkpt>
      <trkpt lat="43.66515" lon="2.35805">
        <ele>477.4</ele>
        <time>2025-09-16T13:45:19Z</time>
      </trkpt>
      <trkpt lat="43.66517" lon="2.35806">
        <ele>477.6</ele>
        <time>2025-09-16T13:45:20Z</time>
      </trkpt>
      <trkpt lat="43.66518" lon="2.35808">
        <ele>477.8</ele>
        <time>2025-09-16T13:45:21Z</time>
      </trkpt>
      <trkpt lat="43.6652" lon="2.35808">
        <ele>478.2</ele>
        <time>2025-09-16T13:45:22Z</time>
      </trkpt>
      <trkpt lat="43.66522" lon="2.35809">
        <ele>478.4</ele>
        <time>2025-09-16T13:45:23Z</time>
      </trkpt>
      <trkpt lat="43.66524" lon="2.35809">
        <ele>478.8</ele>
        <time>2025-09-16T13:45:24Z</time>
      </trkpt>
      <trkpt lat="43.66526" lon="2.35809">
        <ele>479</ele>
        <time>2025-09-16T13:45:25Z</time>
      </trkpt>
      <trkpt lat="43.66527" lon="2.35809">
        <ele>479.2</ele>
        <time>2025-09-16T13:45:26Z</time>
      </trkpt>
      <trkpt lat="43.66529" lon="2.35809">
        <ele>479.4</ele>
        <time>2025-09-16T13:45:27Z</time>
      </trkpt>
      <trkpt lat="43.66532" lon="2.35808">
        <ele>479.4</ele>
        <time>2025-09-16T13:45:28Z</time>
      </trkpt>
      <trkpt lat="43.66533" lon="2.35808">
        <ele>479.6</ele>
        <time>2025-09-16T13:45:29Z</time>
      </trkpt>
      <trkpt lat="43.66535" lon="2.35808">
        <ele>479.8</ele>
        <time>2025-09-16T13:45:30Z</time>
      </trkpt>
      <trkpt lat="43.66537" lon="2.35809">
        <ele>480</ele>
        <time>2025-09-16T13:45:31Z</time>
      </trkpt>
      <trkpt lat="43.66539" lon="2.35809">
        <ele>480.2</ele>
        <time>2025-09-16T13:45:32Z</time>
      </trkpt>
      <trkpt lat="43.6654" lon="2.35808">
        <ele>480.4</ele>
        <time>2025-09-16T13:45:33Z</time>
      </trkpt>
      <trkpt lat="43.66541" lon="2.35806">
        <ele>480.6</ele>
        <time>2025-09-16T13:45:34Z</time>
      </trkpt>
      <trkpt lat="43.66542" lon="2.35804">
        <ele>480.8</ele>
        <time>2025-09-16T13:45:35Z</time>
      </trkpt>
      <trkpt lat="43.66543" lon="2.35804">
        <ele>481</ele>
        <time>2025-09-16T13:45:36Z</time>
      </trkpt>
      <trkpt lat="43.66543" lon="2.35804">
        <ele>481.2</ele>
        <time>2025-09-16T13:45:37Z</time>
      </trkpt>
      <trkpt lat="43.66543" lon="2.35804">
        <ele>481.4</ele>
        <time>2025-09-16T13:45:38Z</time>
      </trkpt>
      <trkpt lat="43.6655" lon="2.35795">
        <ele>483.2</ele>
        <time>2025-09-16T13:46:23Z</time>
      </trkpt>
      <trkpt lat="43.66552" lon="2.35793">
        <ele>483.4</ele>
        <time>2025-09-16T13:46:24Z</time>
      </trkpt>
      <trkpt lat="43.66553" lon="2.35791">
        <ele>483.6</ele>
        <time>2025-09-16T13:46:25Z</time>
      </trkpt>
      <trkpt lat="43.66554" lon="2.3579">
        <ele>483.8</ele>
        <time>2025-09-16T13:46:26Z</time>
      </trkpt>
      <trkpt lat="43.66555" lon="2.35788">
        <ele>484</ele>
        <time>2025-09-16T13:46:27Z</time>
      </trkpt>
      <trkpt lat="43.66556" lon="2.35787">
        <ele>484.4</ele>
        <time>2025-09-16T13:46:28Z</time>
      </trkpt>
      <trkpt lat="43.66557" lon="2.35785">
        <ele>484.6</ele>
        <time>2025-09-16T13:46:29Z</time>
      </trkpt>
      <trkpt lat="43.66558" lon="2.35783">
        <ele>484.8</ele>
        <time>2025-09-16T13:46:30Z</time>
      </trkpt>
      <trkpt lat="43.66559" lon="2.35782">
        <ele>485</ele>
        <time>2025-09-16T13:46:31Z</time>
      </trkpt>
      <trkpt lat="43.6656" lon="2.35781">
        <ele>485.2</ele>
        <time>2025-09-16T13:46:32Z</time>
      </trkpt>
      <trkpt lat="43.66561" lon="2.35779">
        <ele>485.6</ele>
        <time>2025-09-16T13:46:33Z</time>
      </trkpt>
      <trkpt lat="43.66562" lon="2.35778">
        <ele>485.8</ele>
        <time>2025-09-16T13:46:34Z</time>
      </trkpt>
      <trkpt lat="43.66563" lon="2.35777">
        <ele>486</ele>
        <time>2025-09-16T13:46:35Z</time>
      </trkpt>
      <trkpt lat="43.66564" lon="2.35775">
        <ele>486.2</ele>
        <time>2025-09-16T13:46:36Z</time>
      </trkpt>
      <trkpt lat="43.66565" lon="2.35774">
        <ele>486.4</ele>
        <time>2025-09-16T13:46:37Z</time>
      </trkpt>
      <trkpt lat="43.66567" lon="2.35773">
        <ele>486.6</ele>
        <time>2025-09-16T13:46:38Z</time>
      </trkpt>
      <trkpt lat="43.66569" lon="2.35773">
        <ele>486.8</ele>
        <time>2025-09-16T13:46:39Z</time>
      </trkpt>
      <trkpt lat="43.6657" lon="2.35772">
        <ele>487</ele>
        <time>2025-09-16T13:46:40Z</time>
      </trkpt>
      <trkpt lat="43.66571" lon="2.35771">
        <ele>487</ele>
        <time>2025-09-16T13:46:41Z</time>
      </trkpt>
      <trkpt lat="43.66573" lon="2.3577">
        <ele>487.2</ele>
        <time>2025-09-16T13:46:42Z</time>
      </trkpt>
      <trkpt lat="43.66574" lon="2.3577">
        <ele>487.4</ele>
        <time>2025-09-16T13:46:43Z</time>
      </trkpt>
      <trkpt lat="43.66576" lon="2.35769">
        <ele>487.6</ele>
        <time>2025-09-16T13:46:44Z</time>
      </trkpt>
      <trkpt lat="43.66577" lon="2.35768">
        <ele>487.6</ele>
        <time>2025-09-16T13:46:45Z</time>
      </trkpt>
      <trkpt lat="43.66578" lon="2.35768">
        <ele>487.8</ele>
        <time>2025-09-16T13:46:46Z</time>
      </trkpt>
      <trkpt lat="43.6658" lon="2.35767">
        <ele>488</ele>
        <time>2025-09-16T13:46:47Z</time>
      </trkpt>
      <trkpt lat="43.66581" lon="2.35767">
        <ele>488</ele>
        <time>2025-09-16T13:46:48Z</time>
      </trkpt>
      <trkpt lat="43.66582" lon="2.35766">
        <ele>488.2</ele>
        <time>2025-09-16T13:46:49Z</time>
      </trkpt>
      <trkpt lat="43.66583" lon="2.35765">
        <ele>488.4</ele>
        <time>2025-09-16T13:46:50Z</time>
      </trkpt>
      <trkpt lat="43.66585" lon="2.35765">
        <ele>488.6</ele>
        <time>2025-09-16T13:46:51Z</time>
      </trkpt>
      <trkpt lat="43.66586" lon="2.35764">
        <ele>488.8</ele>
        <time>2025-09-16T13:46:52Z</time>
      </trkpt>
      <trkpt lat="43.66587" lon="2.35763">
        <ele>489</ele>
        <time>2025-09-16T13:46:53Z</time>
      </trkpt>
      <trkpt lat="43.66588" lon="2.35763">
        <ele>489</ele>
        <time>2025-09-16T13:46:54Z</time>
      </trkpt>
      <trkpt lat="43.66589" lon="2.35762">
        <ele>489.2</ele>
        <time>2025-09-16T13:46:55Z</time>
      </trkpt>
      <trkpt lat="43.6659" lon="2.35762">
        <ele>489.4</ele>
        <time>2025-09-16T13:46:56Z</time>
      </trkpt>
      <trkpt lat="43.66591" lon="2.35762">
        <ele>489.6</ele>
        <time>2025-09-16T13:46:57Z</time>
      </trkpt>
      <trkpt lat="43.66593" lon="2.35761">
        <ele>489.8</ele>
        <time>2025-09-16T13:46:58Z</time>
      </trkpt>
      <trkpt lat="43.66594" lon="2.35762">
        <ele>489.8</ele>
        <time>2025-09-16T13:46:59Z</time>
      </trkpt>
      <trkpt lat="43.66596" lon="2.35762">
        <ele>490</ele>
        <time>2025-09-16T13:47:00Z</time>
      </trkpt>
      <trkpt lat="43.66597" lon="2.35761">
        <ele>490.2</ele>
        <time>2025-09-16T13:47:01Z</time>
      </trkpt>
      <trkpt lat="43.66599" lon="2.35761">
        <ele>490.4</ele>
        <time>2025-09-16T13:47:02Z</time>
      </trkpt>
      <trkpt lat="43.666" lon="2.3576">
        <ele>490.4</ele>
        <time>2025-09-16T13:47:03Z</time>
      </trkpt>
      <trkpt lat="43.66601" lon="2.3576">
        <ele>490.6</ele>
        <time>2025-09-16T13:47:04Z</time>
      </trkpt>
      <trkpt lat="43.66602" lon="2.35759">
        <ele>490.6</ele>
        <time>2025-09-16T13:47:05Z</time>
      </trkpt>
      <trkpt lat="43.66604" lon="2.35758">
        <ele>490.8</ele>
        <time>2025-09-16T13:47:06Z</time>
      </trkpt>
      <trkpt lat="43.66605" lon="2.35757">
        <ele>490.8</ele>
        <time>2025-09-16T13:47:07Z</time>
      </trkpt>
      <trkpt lat="43.66607" lon="2.35757">
        <ele>491</ele>
        <time>2025-09-16T13:47:08Z</time>
      </trkpt>
      <trkpt lat="43.66608" lon="2.35756">
        <ele>491.2</ele>
        <time>2025-09-16T13:47:09Z</time>
      </trkpt>
      <trkpt lat="43.66609" lon="2.35755">
        <ele>491.4</ele>
        <time>2025-09-16T13:47:10Z</time>
      </trkpt>
      <trkpt lat="43.6661" lon="2.35754">
        <ele>491.4</ele>
        <time>2025-09-16T13:47:11Z</time>
      </trkpt>
      <trkpt lat="43.66611" lon="2.35754">
        <ele>491.6</ele>
        <time>2025-09-16T13:47:12Z</time>
      </trkpt>
      <trkpt lat="43.66612" lon="2.35754">
        <ele>491.8</ele>
        <time>2025-09-16T13:47:13Z</time>
      </trkpt>
      <trkpt lat="43.66613" lon="2.35753">
        <ele>492</ele>
        <time>2025-09-16T13:47:14Z</time>
      </trkpt>
      <trkpt lat="43.66615" lon="2.35753">
        <ele>492.2</ele>
        <time>2025-09-16T13:47:15Z</time>
      </trkpt>
      <trkpt lat="43.66616" lon="2.35753">
        <ele>492.4</ele>
        <time>2025-09-16T13:47:16Z</time>
      </trkpt>
      <trkpt lat="43.66618" lon="2.35752">
        <ele>492.6</ele>
        <time>2025-09-16T13:47:17Z</time>
      </trkpt>
      <trkpt lat="43.66619" lon="2.35751">
        <ele>492.8</ele>
        <time>2025-09-16T13:47:18Z</time>
      </trkpt>
      <trkpt lat="43.6662" lon="2.3575">
        <ele>493</ele>
        <time>2025-09-16T13:47:19Z</time>
      </trkpt>
      <trkpt lat="43.66622" lon="2.3575">
        <ele>493</ele>
        <time>2025-09-16T13:47:20Z</time>
      </trkpt>
      <trkpt lat="43.66623" lon="2.35749">
        <ele>493.2</ele>
        <time>2025-09-16T13:47:21Z</time>
      </trkpt>
      <trkpt lat="43.66624" lon="2.35749">
        <ele>493.4</ele>
        <time>2025-09-16T13:47:22Z</time>
      </trkpt>
      <trkpt lat="43.66625" lon="2.35749">
        <ele>493.6</ele>
        <time>2025-09-16T13:47:23Z</time>
      </trkpt>
      <trkpt lat="43.66627" lon="2.35748">
        <ele>493.8</ele>
        <time>2025-09-16T13:47:24Z</time>
      </trkpt>
      <trkpt lat="43.66628" lon="2.35747">
        <ele>493.8</ele>
        <time>2025-09-16T13:47:25Z</time>
      </trkpt>
      <trkpt lat="43.6663" lon="2.35746">
        <ele>494</ele>
        <time>2025-09-16T13:47:26Z</time>
      </trkpt>
      <trkpt lat="43.66631" lon="2.35745">
        <ele>494.2</ele>
        <time>2025-09-16T13:47:27Z</time>
      </trkpt>
      <trkpt lat="43.66633" lon="2.35744">
        <ele>494.4</ele>
        <time>2025-09-16T13:47:28Z</time>
      </trkpt>
      <trkpt lat="43.66634" lon="2.35744">
        <ele>494.6</ele>
        <time>2025-09-16T13:47:29Z</time>
      </trkpt>
      <trkpt lat="43.66636" lon="2.35743">
        <ele>494.8</ele>
        <time>2025-09-16T13:47:30Z</time>
      </trkpt>
      <trkpt lat="43.66637" lon="2.35742">
        <ele>495</ele>
        <time>2025-09-16T13:47:31Z</time>
      </trkpt>
      <trkpt lat="43.66638" lon="2.35741">
        <ele>495.2</ele>
        <time>2025-09-16T13:47:32Z</time>
      </trkpt>
      <trkpt lat="43.66639" lon="2.35741">
        <ele>495.4</ele>
        <time>2025-09-16T13:47:33Z</time>
      </trkpt>
      <trkpt lat="43.66641" lon="2.3574">
        <ele>495.6</ele>
        <time>2025-09-16T13:47:34Z</time>
      </trkpt>
      <trkpt lat="43.66642" lon="2.3574">
        <ele>495.8</ele>
        <time>2025-09-16T13:47:35Z</time>
      </trkpt>
      <trkpt lat="43.66643" lon="2.35739">
        <ele>496</ele>
        <time>2025-09-16T13:47:36Z</time>
      </trkpt>
      <trkpt lat="43.66644" lon="2.35738">
        <ele>496</ele>
        <time>2025-09-16T13:47:37Z</time>
      </trkpt>
      <trkpt lat="43.66646" lon="2.35736">
        <ele>496.2</ele>
        <time>2025-09-16T13:47:38Z</time>
      </trkpt>
      <trkpt lat="43.66646" lon="2.35736">
        <ele>496.4</ele>
        <time>2025-09-16T13:47:39Z</time>
      </trkpt>
      <trkpt lat="43.66647" lon="2.35735">
        <ele>496.8</ele>
        <time>2025-09-16T13:47:40Z</time>
      </trkpt>
      <trkpt lat="43.66649" lon="2.35735">
        <ele>497</ele>
        <time>2025-09-16T13:47:41Z</time>
      </trkpt>
      <trkpt lat="43.66651" lon="2.35735">
        <ele>497.2</ele>
        <time>2025-09-16T13:47:42Z</time>
      </trkpt>
      <trkpt lat="43.66652" lon="2.35735">
        <ele>497.2</ele>
        <time>2025-09-16T13:47:43Z</time>
      </trkpt>
      <trkpt lat="43.66653" lon="2.35734">
        <ele>497.4</ele>
        <time>2025-09-16T13:47:44Z</time>
      </trkpt>
      <trkpt lat="43.66655" lon="2.35733">
        <ele>497.6</ele>
        <time>2025-09-16T13:47:45Z</time>
      </trkpt>
      <trkpt lat="43.66656" lon="2.35732">
        <ele>498</ele>
        <time>2025-09-16T13:47:46Z</time>
      </trkpt>
      <trkpt lat="43.66657" lon="2.35731">
        <ele>498.2</ele>
        <time>2025-09-16T13:47:47Z</time>
      </trkpt>
      <trkpt lat="43.66658" lon="2.3573">
        <ele>498.4</ele>
        <time>2025-09-16T13:47:48Z</time>
      </trkpt>
      <trkpt lat="43.66659" lon="2.35729">
        <ele>498.6</ele>
        <time>2025-09-16T13:47:49Z</time>
      </trkpt>
      <trkpt lat="43.66659" lon="2.35729">
        <ele>498.8</ele>
        <time>2025-09-16T13:47:50Z</time>
      </trkpt>
      <trkpt lat="43.6666" lon="2.35728">
        <ele>499</ele>
        <time>2025-09-16T13:47:51Z</time>
      </trkpt>
      <trkpt lat="43.66662" lon="2.35728">
        <ele>499.2</ele>
        <time>2025-09-16T13:47:52Z</time>
      </trkpt>
      <trkpt lat="43.66663" lon="2.35728">
        <ele>499.4</ele>
        <time>2025-09-16T13:47:53Z</time>
      </trkpt>
      <trkpt lat="43.66664" lon="2.35727">
        <ele>499.6</ele>
        <time>2025-09-16T13:47:54Z</time>
      </trkpt>
      <trkpt lat="43.66665" lon="2.35726">
        <ele>499.6</ele>
        <time>2025-09-16T13:47:55Z</time>
      </trkpt>
      <trkpt lat="43.66667" lon="2.35726">
        <ele>499.8</ele>
        <time>2025-09-16T13:47:56Z</time>
      </trkpt>
      <trkpt lat="43.66668" lon="2.35725">
        <ele>500</ele>
        <time>2025-09-16T13:47:57Z</time>
      </trkpt>
      <trkpt lat="43.66669" lon="2.35725">
        <ele>500.2</ele>
        <time>2025-09-16T13:47:58Z</time>
      </trkpt>
      <trkpt lat="43.6667" lon="2.35725">
        <ele>500.4</ele>
        <time>2025-09-16T13:47:59Z</time>
      </trkpt>
      <trkpt lat="43.66672" lon="2.35725">
        <ele>500.4</ele>
        <time>2025-09-16T13:48:00Z</time>
      </trkpt>
      <trkpt lat="43.66673" lon="2.35724">
        <ele>500.6</ele>
        <time>2025-09-16T13:48:01Z</time>
      </trkpt>
      <trkpt lat="43.66674" lon="2.35724">
        <ele>500.6</ele>
        <time>2025-09-16T13:48:02Z</time>
      </trkpt>
      <trkpt lat="43.66675" lon="2.35723">
        <ele>500.8</ele>
        <time>2025-09-16T13:48:03Z</time>
      </trkpt>
      <trkpt lat="43.66676" lon="2.35723">
        <ele>501</ele>
        <time>2025-09-16T13:48:04Z</time>
      </trkpt>
      <trkpt lat="43.66677" lon="2.35723">
        <ele>501.2</ele>
        <time>2025-09-16T13:48:05Z</time>
      </trkpt>
      <trkpt lat="43.66679" lon="2.35722">
        <ele>501.4</ele>
        <time>2025-09-16T13:48:06Z</time>
      </trkpt>
      <trkpt lat="43.6668" lon="2.35722">
        <ele>501.6</ele>
        <time>2025-09-16T13:48:07Z</time>
      </trkpt>
      <trkpt lat="43.66681" lon="2.35722">
        <ele>501.8</ele>
        <time>2025-09-16T13:48:08Z</time>
      </trkpt>
      <trkpt lat="43.66682" lon="2.35722">
        <ele>502</ele>
        <time>2025-09-16T13:48:09Z</time>
      </trkpt>
      <trkpt lat="43.66683" lon="2.35722">
        <ele>502.2</ele>
        <time>2025-09-16T13:48:10Z</time>
      </trkpt>
      <trkpt lat="43.66684" lon="2.35722">
        <ele>502.2</ele>
        <time>2025-09-16T13:48:11Z</time>
      </trkpt>
      <trkpt lat="43.66686" lon="2.35722">
        <ele>502.4</ele>
        <time>2025-09-16T13:48:12Z</time>
      </trkpt>
      <trkpt lat="43.66687" lon="2.35722">
        <ele>502.6</ele>
        <time>2025-09-16T13:48:13Z</time>
      </trkpt>
      <trkpt lat="43.66688" lon="2.35721">
        <ele>502.8</ele>
        <time>2025-09-16T13:48:14Z</time>
      </trkpt>
      <trkpt lat="43.66689" lon="2.35721">
        <ele>502.8</ele>
        <time>2025-09-16T13:48:15Z</time>
      </trkpt>
      <trkpt lat="43.66691" lon="2.35721">
        <ele>503</ele>
        <time>2025-09-16T13:48:16Z</time>
      </trkpt>
      <trkpt lat="43.66692" lon="2.3572">
        <ele>503</ele>
        <time>2025-09-16T13:48:17Z</time>
      </trkpt>
      <trkpt lat="43.66693" lon="2.3572">
        <ele>503.2</ele>
        <time>2025-09-16T13:48:18Z</time>
      </trkpt>
      <trkpt lat="43.66693" lon="2.35719">
        <ele>503.2</ele>
        <time>2025-09-16T13:48:19Z</time>
      </trkpt>
      <trkpt lat="43.66694" lon="2.35719">
        <ele>503.4</ele>
        <time>2025-09-16T13:48:20Z</time>
      </trkpt>
      <trkpt lat="43.66695" lon="2.35719">
        <ele>503.6</ele>
        <time>2025-09-16T13:48:21Z</time>
      </trkpt>
      <trkpt lat="43.66696" lon="2.35718">
        <ele>503.6</ele>
        <time>2025-09-16T13:48:22Z</time>
      </trkpt>
      <trkpt lat="43.66698" lon="2.35718">
        <ele>503.8</ele>
        <time>2025-09-16T13:48:23Z</time>
      </trkpt>
      <trkpt lat="43.66699" lon="2.35718">
        <ele>504</ele>
        <time>2025-09-16T13:48:24Z</time>
      </trkpt>
      <trkpt lat="43.66701" lon="2.35718">
        <ele>504.2</ele>
        <time>2025-09-16T13:48:25Z</time>
      </trkpt>
      <trkpt lat="43.66702" lon="2.35718">
        <ele>504.2</ele>
        <time>2025-09-16T13:48:26Z</time>
      </trkpt>
      <trkpt lat="43.66703" lon="2.35717">
        <ele>504.6</ele>
        <time>2025-09-16T13:48:27Z</time>
      </trkpt>
      <trkpt lat="43.66703" lon="2.35716">
        <ele>504.6</ele>
        <time>2025-09-16T13:48:28Z</time>
      </trkpt>
      <trkpt lat="43.66704" lon="2.35716">
        <ele>504.8</ele>
        <time>2025-09-16T13:48:29Z</time>
      </trkpt>
      <trkpt lat="43.66704" lon="2.35716">
        <ele>505</ele>
        <time>2025-09-16T13:48:30Z</time>
      </trkpt>
      <trkpt lat="43.66705" lon="2.35716">
        <ele>505.2</ele>
        <time>2025-09-16T13:48:31Z</time>
      </trkpt>
      <trkpt lat="43.66706" lon="2.35715">
        <ele>505.4</ele>
        <time>2025-09-16T13:48:32Z</time>
      </trkpt>
      <trkpt lat="43.66707" lon="2.35715">
        <ele>505.6</ele>
        <time>2025-09-16T13:48:33Z</time>
      </trkpt>
      <trkpt lat="43.66707" lon="2.35715">
        <ele>505.8</ele>
        <time>2025-09-16T13:48:34Z</time>
      </trkpt>
      <trkpt lat="43.66708" lon="2.35715">
        <ele>506</ele>
        <time>2025-09-16T13:48:35Z</time>
      </trkpt>
      <trkpt lat="43.66799" lon="2.3576">
        <ele>517.8</ele>
        <time>2025-09-16T13:50:32Z</time>
      </trkpt>
      <trkpt lat="43.66802" lon="2.3576">
        <ele>517.8</ele>
        <time>2025-09-16T13:50:33Z</time>
      </trkpt>
      <trkpt lat="43.66805" lon="2.35759">
        <ele>517.8</ele>
        <time>2025-09-16T13:50:34Z</time>
      </trkpt>
      <trkpt lat="43.66807" lon="2.35759">
        <ele>517.8</ele>
        <time>2025-09-16T13:50:35Z</time>
      </trkpt>
      <trkpt lat="43.6681" lon="2.35759">
        <ele>517.8</ele>
        <time>2025-09-16T13:50:36Z</time>
      </trkpt>
      <trkpt lat="43.66812" lon="2.35758">
        <ele>517.8</ele>
        <time>2025-09-16T13:50:37Z</time>
      </trkpt>
      <trkpt lat="43.66815" lon="2.35756">
        <ele>517.8</ele>
        <time>2025-09-16T13:50:38Z</time>
      </trkpt>
      <trkpt lat="43.66817" lon="2.35755">
        <ele>517.8</ele>
        <time>2025-09-16T13:50:39Z</time>
      </trkpt>
      <trkpt lat="43.6682" lon="2.35754">
        <ele>517.8</ele>
        <time>2025-09-16T13:50:40Z</time>
      </trkpt>
      <trkpt lat="43.66823" lon="2.35752">
        <ele>518</ele>
        <time>2025-09-16T13:50:41Z</time>
      </trkpt>
      <trkpt lat="43.66825" lon="2.3575">
        <ele>518</ele>
        <time>2025-09-16T13:50:42Z</time>
      </trkpt>
      <trkpt lat="43.66827" lon="2.35749">
        <ele>518.2</ele>
        <time>2025-09-16T13:50:43Z</time>
      </trkpt>
      <trkpt lat="43.66829" lon="2.35748">
        <ele>518.2</ele>
        <time>2025-09-16T13:50:44Z</time>
      </trkpt>
      <trkpt lat="43.66831" lon="2.35746">
        <ele>518.4</ele>
        <time>2025-09-16T13:50:45Z</time>
      </trkpt>
      <trkpt lat="43.66833" lon="2.35744">
        <ele>518.4</ele>
        <time>2025-09-16T13:50:46Z</time>
      </trkpt>
      <trkpt lat="43.66835" lon="2.35743">
        <ele>518.6</ele>
        <time>2025-09-16T13:50:47Z</time>
      </trkpt>
      <trkpt lat="43.66836" lon="2.35741">
        <ele>518.6</ele>
        <time>2025-09-16T13:50:48Z</time>
      </trkpt>
      <trkpt lat="43.66838" lon="2.35739">
        <ele>518.6</ele>
        <time>2025-09-16T13:50:49Z</time>
      </trkpt>
      <trkpt lat="43.66839" lon="2.35737">
        <ele>518.8</ele>
        <time>2025-09-16T13:50:50Z</time>
      </trkpt>
      <trkpt lat="43.66841" lon="2.35735">
        <ele>518.8</ele>
        <time>2025-09-16T13:50:51Z</time>
      </trkpt>
      <trkpt lat="43.66843" lon="2.35732">
        <ele>518.8</ele>
        <time>2025-09-16T13:50:52Z</time>
      </trkpt>
      <trkpt lat="43.66844" lon="2.35731">
        <ele>518.8</ele>
        <time>2025-09-16T13:50:53Z</time>
      </trkpt>
      <trkpt lat="43.66845" lon="2.35729">
        <ele>519</ele>
        <time>2025-09-16T13:50:54Z</time>
      </trkpt>
      <trkpt lat="43.66846" lon="2.35727">
        <ele>519</ele>
        <time>2025-09-16T13:50:55Z</time>
      </trkpt>
      <trkpt lat="43.66848" lon="2.35725">
        <ele>519.2</ele>
        <time>2025-09-16T13:50:56Z</time>
      </trkpt>
      <trkpt lat="43.66849" lon="2.35723">
        <ele>519.4</ele>
        <time>2025-09-16T13:50:57Z</time>
      </trkpt>
      <trkpt lat="43.66851" lon="2.35721">
        <ele>519.4</ele>
        <time>2025-09-16T13:50:58Z</time>
      </trkpt>
      <trkpt lat="43.66853" lon="2.3572">
        <ele>519.6</ele>
        <time>2025-09-16T13:50:59Z</time>
      </trkpt>
      <trkpt lat="43.66854" lon="2.35718">
        <ele>519.6</ele>
        <time>2025-09-16T13:51:00Z</time>
      </trkpt>
      <trkpt lat="43.66856" lon="2.35717">
        <ele>519.8</ele>
        <time>2025-09-16T13:51:01Z</time>
      </trkpt>
      <trkpt lat="43.66858" lon="2.35715">
        <ele>519.8</ele>
        <time>2025-09-16T13:51:02Z</time>
      </trkpt>
      <trkpt lat="43.66859" lon="2.35713">
        <ele>519.6</ele>
        <time>2025-09-16T13:51:03Z</time>
      </trkpt>
      <trkpt lat="43.66861" lon="2.35711">
        <ele>519.6</ele>
        <time>2025-09-16T13:51:04Z</time>
      </trkpt>
      <trkpt lat="43.66863" lon="2.35709">
        <ele>519.6</ele>
        <time>2025-09-16T13:51:05Z</time>
      </trkpt>
      <trkpt lat="43.66864" lon="2.35708">
        <ele>519.6</ele>
        <time>2025-09-16T13:51:06Z</time>
      </trkpt>
      <trkpt lat="43.66866" lon="2.35706">
        <ele>519.6</ele>
        <time>2025-09-16T13:51:07Z</time>
      </trkpt>
      <trkpt lat="43.66867" lon="2.35704">
        <ele>519.6</ele>
        <time>2025-09-16T13:51:08Z</time>
      </trkpt>
      <trkpt lat="43.66869" lon="2.35703">
        <ele>519.8</ele>
        <time>2025-09-16T13:51:09Z</time>
      </trkpt>
      <trkpt lat="43.66871" lon="2.35701">
        <ele>519.8</ele>
        <time>2025-09-16T13:51:10Z</time>
      </trkpt>
      <trkpt lat="43.66872" lon="2.357">
        <ele>519.8</ele>
        <time>2025-09-16T13:51:11Z</time>
      </trkpt>
      <trkpt lat="43.66874" lon="2.35698">
        <ele>520</ele>
        <time>2025-09-16T13:51:12Z</time>
      </trkpt>
      <trkpt lat="43.66875" lon="2.35696">
        <ele>520</ele>
        <time>2025-09-16T13:51:13Z</time>
      </trkpt>
      <trkpt lat="43.66876" lon="2.35695">
        <ele>520.2</ele>
        <time>2025-09-16T13:51:14Z</time>
      </trkpt>
      <trkpt lat="43.66877" lon="2.35694">
        <ele>520.2</ele>
        <time>2025-09-16T13:51:15Z</time>
      </trkpt>
      <trkpt lat="43.66878" lon="2.35694">
        <ele>520.4</ele>
        <time>2025-09-16T13:51:16Z</time>
      </trkpt>
      <trkpt lat="43.66879" lon="2.35693">
        <ele>520.4</ele>
        <time>2025-09-16T13:51:17Z</time>
      </trkpt>
      <trkpt lat="43.6688" lon="2.35693">
        <ele>520.4</ele>
        <time>2025-09-16T13:51:18Z</time>
      </trkpt>
      <trkpt lat="43.66881" lon="2.35692">
        <ele>520.4</ele>
        <time>2025-09-16T13:51:19Z</time>
      </trkpt>
      <trkpt lat="43.66881" lon="2.35691">
        <ele>520.6</ele>
        <time>2025-09-16T13:51:20Z</time>
      </trkpt>
      <trkpt lat="43.66881" lon="2.3569">
        <ele>520.6</ele>
        <time>2025-09-16T13:51:21Z</time>
      </trkpt>
      <trkpt lat="43.66881" lon="2.3569">
        <ele>520.6</ele>
        <time>2025-09-16T13:51:22Z</time>
      </trkpt>
      <trkpt lat="43.66885" lon="2.35688">
        <ele>520.2</ele>
        <time>2025-09-16T13:51:45Z</time>
      </trkpt>
      <trkpt lat="43.66887" lon="2.35688">
        <ele>520.2</ele>
        <time>2025-09-16T13:51:46Z</time>
      </trkpt>
      <trkpt lat="43.66888" lon="2.35687">
        <ele>520.4</ele>
        <time>2025-09-16T13:51:47Z</time>
      </trkpt>
      <trkpt lat="43.66889" lon="2.35687">
        <ele>520.4</ele>
        <time>2025-09-16T13:51:48Z</time>
      </trkpt>
      <trkpt lat="43.66891" lon="2.35686">
        <ele>520.6</ele>
        <time>2025-09-16T13:51:49Z</time>
      </trkpt>
      <trkpt lat="43.66892" lon="2.35685">
        <ele>520.8</ele>
        <time>2025-09-16T13:51:50Z</time>
      </trkpt>
      <trkpt lat="43.66893" lon="2.35683">
        <ele>520.8</ele>
        <time>2025-09-16T13:51:51Z</time>
      </trkpt>
      <trkpt lat="43.66895" lon="2.35682">
        <ele>521</ele>
        <time>2025-09-16T13:51:52Z</time>
      </trkpt>
      <trkpt lat="43.66896" lon="2.35681">
        <ele>521</ele>
        <time>2025-09-16T13:51:53Z</time>
      </trkpt>
      <trkpt lat="43.66898" lon="2.3568">
        <ele>521.2</ele>
        <time>2025-09-16T13:51:54Z</time>
      </trkpt>
      <trkpt lat="43.66899" lon="2.35679">
        <ele>521.2</ele>
        <time>2025-09-16T13:51:55Z</time>
      </trkpt>
      <trkpt lat="43.66901" lon="2.35678">
        <ele>521.2</ele>
        <time>2025-09-16T13:51:56Z</time>
      </trkpt>
      <trkpt lat="43.66903" lon="2.35677">
        <ele>521.4</ele>
        <time>2025-09-16T13:51:57Z</time>
      </trkpt>
      <trkpt lat="43.66904" lon="2.35675">
        <ele>521.4</ele>
        <time>2025-09-16T13:51:58Z</time>
      </trkpt>
      <trkpt lat="43.66906" lon="2.35674">
        <ele>521.6</ele>
        <time>2025-09-16T13:51:59Z</time>
      </trkpt>
      <trkpt lat="43.66907" lon="2.35673">
        <ele>521.6</ele>
        <time>2025-09-16T13:52:00Z</time>
      </trkpt>
      <trkpt lat="43.66909" lon="2.35671">
        <ele>521.6</ele>
        <time>2025-09-16T13:52:01Z</time>
      </trkpt>
      <trkpt lat="43.66911" lon="2.3567">
        <ele>521.8</ele>
        <time>2025-09-16T13:52:02Z</time>
      </trkpt>
      <trkpt lat="43.66912" lon="2.35668">
        <ele>521.8</ele>
        <time>2025-09-16T13:52:03Z</time>
      </trkpt>
      <trkpt lat="43.66914" lon="2.35666">
        <ele>521.8</ele>
        <time>2025-09-16T13:52:04Z</time>
      </trkpt>
      <trkpt lat="43.66915" lon="2.35663">
        <ele>521.8</ele>
        <time>2025-09-16T13:52:05Z</time>
      </trkpt>
      <trkpt lat="43.66916" lon="2.35661">
        <ele>521.8</ele>
        <time>2025-09-16T13:52:06Z</time>
      </trkpt>
      <trkpt lat="43.66918" lon="2.35658">
        <ele>522</ele>
        <time>2025-09-16T13:52:07Z</time>
      </trkpt>
      <trkpt lat="43.66919" lon="2.35656">
        <ele>522</ele>
        <time>2025-09-16T13:52:08Z</time>
      </trkpt>
      <trkpt lat="43.6692" lon="2.35654">
        <ele>522.2</ele>
        <time>2025-09-16T13:52:09Z</time>
      </trkpt>
      <trkpt lat="43.66921" lon="2.35652">
        <ele>522.2</ele>
        <time>2025-09-16T13:52:10Z</time>
      </trkpt>
      <trkpt lat="43.66923" lon="2.3565">
        <ele>522.2</ele>
        <time>2025-09-16T13:52:11Z</time>
      </trkpt>
      <trkpt lat="43.66924" lon="2.35648">
        <ele>522.4</ele>
        <time>2025-09-16T13:52:12Z</time>
      </trkpt>
      <trkpt lat="43.66925" lon="2.35646">
        <ele>522.4</ele>
        <time>2025-09-16T13:52:13Z</time>
      </trkpt>
      <trkpt lat="43.66926" lon="2.35643">
        <ele>522.4</ele>
        <time>2025-09-16T13:52:14Z</time>
      </trkpt>
      <trkpt lat="43.66927" lon="2.3564">
        <ele>522.4</ele>
        <time>2025-09-16T13:52:15Z</time>
      </trkpt>
      <trkpt lat="43.66929" lon="2.35637">
        <ele>522.2</ele>
        <time>2025-09-16T13:52:16Z</time>
      </trkpt>
      <trkpt lat="43.6693" lon="2.35634">
        <ele>522.2</ele>
        <time>2025-09-16T13:52:17Z</time>
      </trkpt>
      <trkpt lat="43.66931" lon="2.35631">
        <ele>522</ele>
        <time>2025-09-16T13:52:18Z</time>
      </trkpt>
      <trkpt lat="43.66932" lon="2.35626">
        <ele>521.8</ele>
        <time>2025-09-16T13:52:19Z</time>
      </trkpt>
      <trkpt lat="43.66933" lon="2.35621">
        <ele>521.6</ele>
        <time>2025-09-16T13:52:20Z</time>
      </trkpt>
      <trkpt lat="43.66934" lon="2.35615">
        <ele>521.2</ele>
        <time>2025-09-16T13:52:21Z</time>
      </trkpt>
      <trkpt lat="43.66935" lon="2.35609">
        <ele>521</ele>
        <time>2025-09-16T13:52:22Z</time>
      </trkpt>
      <trkpt lat="43.66936" lon="2.35604">
        <ele>520.8</ele>
        <time>2025-09-16T13:52:23Z</time>
      </trkpt>
      <trkpt lat="43.66937" lon="2.35598">
        <ele>520.6</ele>
        <time>2025-09-16T13:52:24Z</time>
      </trkpt>
      <trkpt lat="43.66938" lon="2.35593">
        <ele>520.4</ele>
        <time>2025-09-16T13:52:25Z</time>
      </trkpt>
      <trkpt lat="43.6694" lon="2.35588">
        <ele>520.2</ele>
        <time>2025-09-16T13:52:26Z</time>
      </trkpt>
      <trkpt lat="43.66942" lon="2.35585">
        <ele>520.2</ele>
        <time>2025-09-16T13:52:27Z</time>
      </trkpt>
      <trkpt lat="43.66943" lon="2.35581">
        <ele>520.2</ele>
        <time>2025-09-16T13:52:28Z</time>
      </trkpt>
      <trkpt lat="43.66944" lon="2.35578">
        <ele>520.2</ele>
        <time>2025-09-16T13:52:29Z</time>
      </trkpt>
      <trkpt lat="43.66945" lon="2.35575">
        <ele>520.4</ele>
        <time>2025-09-16T13:52:30Z</time>
      </trkpt>
      <trkpt lat="43.66946" lon="2.35572">
        <ele>520.4</ele>
        <time>2025-09-16T13:52:31Z</time>
      </trkpt>
      <trkpt lat="43.66947" lon="2.35569">
        <ele>520.4</ele>
        <time>2025-09-16T13:52:32Z</time>
      </trkpt>
      <trkpt lat="43.66948" lon="2.35566">
        <ele>520.6</ele>
        <time>2025-09-16T13:52:33Z</time>
      </trkpt>
      <trkpt lat="43.66949" lon="2.35562">
        <ele>520.6</ele>
        <time>2025-09-16T13:52:34Z</time>
      </trkpt>
      <trkpt lat="43.6695" lon="2.35559">
        <ele>520.6</ele>
        <time>2025-09-16T13:52:35Z</time>
      </trkpt>
      <trkpt lat="43.66951" lon="2.35556">
        <ele>520.6</ele>
        <time>2025-09-16T13:52:36Z</time>
      </trkpt>
      <trkpt lat="43.66952" lon="2.35554">
        <ele>520.4</ele>
        <time>2025-09-16T13:52:37Z</time>
      </trkpt>
      <trkpt lat="43.66954" lon="2.35551">
        <ele>520.4</ele>
        <time>2025-09-16T13:52:38Z</time>
      </trkpt>
      <trkpt lat="43.66955" lon="2.35548">
        <ele>520.4</ele>
        <time>2025-09-16T13:52:39Z</time>
      </trkpt>
      <trkpt lat="43.66956" lon="2.35546">
        <ele>520.6</ele>
        <time>2025-09-16T13:52:40Z</time>
      </trkpt>
      <trkpt lat="43.66957" lon="2.35544">
        <ele>520.8</ele>
        <time>2025-09-16T13:52:41Z</time>
      </trkpt>
      <trkpt lat="43.66959" lon="2.35543">
        <ele>521</ele>
        <time>2025-09-16T13:52:42Z</time>
      </trkpt>
      <trkpt lat="43.6696" lon="2.35541">
        <ele>521.2</ele>
        <time>2025-09-16T13:52:43Z</time>
      </trkpt>
      <trkpt lat="43.6696" lon="2.35539">
        <ele>521.6</ele>
        <time>2025-09-16T13:52:44Z</time>
      </trkpt>
      <trkpt lat="43.66962" lon="2.35538">
        <ele>521.8</ele>
        <time>2025-09-16T13:52:45Z</time>
      </trkpt>
      <trkpt lat="43.66963" lon="2.35538">
        <ele>522</ele>
        <time>2025-09-16T13:52:46Z</time>
      </trkpt>
      <trkpt lat="43.66964" lon="2.35539">
        <ele>522.4</ele>
        <time>2025-09-16T13:52:47Z</time>
      </trkpt>
      <trkpt lat="43.66964" lon="2.35541">
        <ele>522.6</ele>
        <time>2025-09-16T13:52:48Z</time>
      </trkpt>
      <trkpt lat="43.66964" lon="2.35542">
        <ele>522.8</ele>
        <time>2025-09-16T13:52:49Z</time>
      </trkpt>
      <trkpt lat="43.66964" lon="2.35544">
        <ele>523</ele>
        <time>2025-09-16T13:52:50Z</time>
      </trkpt>
      <trkpt lat="43.66963" lon="2.35546">
        <ele>523.2</ele>
        <time>2025-09-16T13:52:51Z</time>
      </trkpt>
      <trkpt lat="43.66963" lon="2.35548">
        <ele>523.4</ele>
        <time>2025-09-16T13:52:52Z</time>
      </trkpt>
      <trkpt lat="43.66963" lon="2.35549">
        <ele>523.6</ele>
        <time>2025-09-16T13:52:53Z</time>
      </trkpt>
      <trkpt lat="43.66963" lon="2.35551">
        <ele>523.8</ele>
        <time>2025-09-16T13:52:54Z</time>
      </trkpt>
      <trkpt lat="43.66962" lon="2.35553">
        <ele>524</ele>
        <time>2025-09-16T13:52:55Z</time>
      </trkpt>
      <trkpt lat="43.66962" lon="2.35554">
        <ele>524.2</ele>
        <time>2025-09-16T13:52:56Z</time>
      </trkpt>
      <trkpt lat="43.66961" lon="2.35556">
        <ele>524.4</ele>
        <time>2025-09-16T13:52:57Z</time>
      </trkpt>
      <trkpt lat="43.66961" lon="2.35558">
        <ele>524.4</ele>
        <time>2025-09-16T13:52:58Z</time>
      </trkpt>
      <trkpt lat="43.6696" lon="2.35559">
        <ele>524.6</ele>
        <time>2025-09-16T13:52:59Z</time>
      </trkpt>
      <trkpt lat="43.6696" lon="2.35561">
        <ele>524.8</ele>
        <time>2025-09-16T13:53:00Z</time>
      </trkpt>
      <trkpt lat="43.6696" lon="2.35563">
        <ele>524.8</ele>
        <time>2025-09-16T13:53:01Z</time>
      </trkpt>
      <trkpt lat="43.6696" lon="2.35564">
        <ele>525</ele>
        <time>2025-09-16T13:53:02Z</time>
      </trkpt>
      <trkpt lat="43.66961" lon="2.35566">
        <ele>525.2</ele>
        <time>2025-09-16T13:53:03Z</time>
      </trkpt>
      <trkpt lat="43.66962" lon="2.35567">
        <ele>525.2</ele>
        <time>2025-09-16T13:53:04Z</time>
      </trkpt>
      <trkpt lat="43.66963" lon="2.35568">
        <ele>525.4</ele>
        <time>2025-09-16T13:53:05Z</time>
      </trkpt>
      <trkpt lat="43.66964" lon="2.35569">
        <ele>525.6</ele>
        <time>2025-09-16T13:53:06Z</time>
      </trkpt>
      <trkpt lat="43.66965" lon="2.3557">
        <ele>525.8</ele>
        <time>2025-09-16T13:53:07Z</time>
      </trkpt>
      <trkpt lat="43.66966" lon="2.35571">
        <ele>526</ele>
        <time>2025-09-16T13:53:08Z</time>
      </trkpt>
      <trkpt lat="43.66967" lon="2.35572">
        <ele>526.2</ele>
        <time>2025-09-16T13:53:09Z</time>
      </trkpt>
      <trkpt lat="43.66968" lon="2.35572">
        <ele>526.4</ele>
        <time>2025-09-16T13:53:10Z</time>
      </trkpt>
      <trkpt lat="43.66969" lon="2.35572">
        <ele>526.6</ele>
        <time>2025-09-16T13:53:11Z</time>
      </trkpt>
      <trkpt lat="43.6697" lon="2.35571">
        <ele>526.6</ele>
        <time>2025-09-16T13:53:12Z</time>
      </trkpt>
      <trkpt lat="43.66971" lon="2.3557">
        <ele>527</ele>
        <time>2025-09-16T13:53:13Z</time>
      </trkpt>
      <trkpt lat="43.66972" lon="2.35569">
        <ele>527</ele>
        <time>2025-09-16T13:53:14Z</time>
      </trkpt>
      <trkpt lat="43.66973" lon="2.35569">
        <ele>527.2</ele>
        <time>2025-09-16T13:53:15Z</time>
      </trkpt>
      <trkpt lat="43.66975" lon="2.35569">
        <ele>527.4</ele>
        <time>2025-09-16T13:53:16Z</time>
      </trkpt>
      <trkpt lat="43.66976" lon="2.35569">
        <ele>527.6</ele>
        <time>2025-09-16T13:53:17Z</time>
      </trkpt>
      <trkpt lat="43.66977" lon="2.35569">
        <ele>527.8</ele>
        <time>2025-09-16T13:53:18Z</time>
      </trkpt>
      <trkpt lat="43.66979" lon="2.35569">
        <ele>528</ele>
        <time>2025-09-16T13:53:19Z</time>
      </trkpt>
      <trkpt lat="43.6698" lon="2.35569">
        <ele>528.2</ele>
        <time>2025-09-16T13:53:20Z</time>
      </trkpt>
      <trkpt lat="43.66981" lon="2.35569">
        <ele>528.4</ele>
        <time>2025-09-16T13:53:21Z</time>
      </trkpt>
      <trkpt lat="43.66982" lon="2.3557">
        <ele>528.6</ele>
        <time>2025-09-16T13:53:22Z</time>
      </trkpt>
      <trkpt lat="43.66984" lon="2.3557">
        <ele>528.8</ele>
        <time>2025-09-16T13:53:23Z</time>
      </trkpt>
      <trkpt lat="43.66985" lon="2.3557">
        <ele>529</ele>
        <time>2025-09-16T13:53:24Z</time>
      </trkpt>
      <trkpt lat="43.66986" lon="2.35571">
        <ele>529.2</ele>
        <time>2025-09-16T13:53:25Z</time>
      </trkpt>
      <trkpt lat="43.66987" lon="2.35572">
        <ele>529.2</ele>
        <time>2025-09-16T13:53:26Z</time>
      </trkpt>
      <trkpt lat="43.66989" lon="2.35572">
        <ele>529.4</ele>
        <time>2025-09-16T13:53:27Z</time>
      </trkpt>
      <trkpt lat="43.6699" lon="2.35572">
        <ele>529.4</ele>
        <time>2025-09-16T13:53:28Z</time>
      </trkpt>
      <trkpt lat="43.66991" lon="2.35572">
        <ele>529.4</ele>
        <time>2025-09-16T13:53:29Z</time>
      </trkpt>
      <trkpt lat="43.66993" lon="2.35572">
        <ele>529.6</ele>
        <time>2025-09-16T13:53:30Z</time>
      </trkpt>
      <trkpt lat="43.66994" lon="2.35572">
        <ele>529.6</ele>
        <time>2025-09-16T13:53:31Z</time>
      </trkpt>
      <trkpt lat="43.66995" lon="2.35572">
        <ele>529.8</ele>
        <time>2025-09-16T13:53:32Z</time>
      </trkpt>
      <trkpt lat="43.66997" lon="2.35572">
        <ele>529.8</ele>
        <time>2025-09-16T13:53:33Z</time>
      </trkpt>
      <trkpt lat="43.66998" lon="2.35573">
        <ele>529.8</ele>
        <time>2025-09-16T13:53:34Z</time>
      </trkpt>
      <trkpt lat="43.67" lon="2.35573">
        <ele>530</ele>
        <time>2025-09-16T13:53:35Z</time>
      </trkpt>
      <trkpt lat="43.67001" lon="2.35574">
        <ele>530</ele>
        <time>2025-09-16T13:53:36Z</time>
      </trkpt>
      <trkpt lat="43.67002" lon="2.35573">
        <ele>530</ele>
        <time>2025-09-16T13:53:37Z</time>
      </trkpt>
      <trkpt lat="43.67003" lon="2.35573">
        <ele>530.2</ele>
        <time>2025-09-16T13:53:38Z</time>
      </trkpt>
      <trkpt lat="43.67005" lon="2.35573">
        <ele>530.2</ele>
        <time>2025-09-16T13:53:39Z</time>
      </trkpt>
      <trkpt lat="43.67006" lon="2.35573">
        <ele>530.4</ele>
        <time>2025-09-16T13:53:40Z</time>
      </trkpt>
      <trkpt lat="43.67008" lon="2.35573">
        <ele>530.6</ele>
        <time>2025-09-16T13:53:41Z</time>
      </trkpt>
      <trkpt lat="43.67009" lon="2.35574">
        <ele>530.6</ele>
        <time>2025-09-16T13:53:42Z</time>
      </trkpt>
      <trkpt lat="43.6701" lon="2.35574">
        <ele>530.8</ele>
        <time>2025-09-16T13:53:43Z</time>
      </trkpt>
      <trkpt lat="43.67012" lon="2.35575">
        <ele>531</ele>
        <time>2025-09-16T13:53:44Z</time>
      </trkpt>
      <trkpt lat="43.67014" lon="2.35576">
        <ele>531.2</ele>
        <time>2025-09-16T13:53:45Z</time>
      </trkpt>
      <trkpt lat="43.67015" lon="2.35576">
        <ele>531.2</ele>
        <time>2025-09-16T13:53:46Z</time>
      </trkpt>
      <trkpt lat="43.67017" lon="2.35576">
        <ele>531.4</ele>
        <time>2025-09-16T13:53:47Z</time>
      </trkpt>
      <trkpt lat="43.67019" lon="2.35576">
        <ele>531.4</ele>
        <time>2025-09-16T13:53:48Z</time>
      </trkpt>
      <trkpt lat="43.6702" lon="2.35577">
        <ele>531.6</ele>
        <time>2025-09-16T13:53:49Z</time>
      </trkpt>
      <trkpt lat="43.67021" lon="2.35578">
        <ele>531.8</ele>
        <time>2025-09-16T13:53:50Z</time>
      </trkpt>
      <trkpt lat="43.67022" lon="2.35578">
        <ele>531.8</ele>
        <time>2025-09-16T13:53:51Z</time>
      </trkpt>
      <trkpt lat="43.67023" lon="2.35579">
        <ele>532</ele>
        <time>2025-09-16T13:53:52Z</time>
      </trkpt>
      <trkpt lat="43.67025" lon="2.35579">
        <ele>532</ele>
        <time>2025-09-16T13:53:53Z</time>
      </trkpt>
      <trkpt lat="43.67026" lon="2.3558">
        <ele>532.2</ele>
        <time>2025-09-16T13:53:54Z</time>
      </trkpt>
      <trkpt lat="43.67027" lon="2.3558">
        <ele>532.2</ele>
        <time>2025-09-16T13:53:55Z</time>
      </trkpt>
      <trkpt lat="43.67029" lon="2.35581">
        <ele>532.4</ele>
        <time>2025-09-16T13:53:56Z</time>
      </trkpt>
      <trkpt lat="43.67031" lon="2.35581">
        <ele>532.4</ele>
        <time>2025-09-16T13:53:57Z</time>
      </trkpt>
      <trkpt lat="43.67032" lon="2.35581">
        <ele>532.4</ele>
        <time>2025-09-16T13:53:58Z</time>
      </trkpt>
      <trkpt lat="43.67033" lon="2.35582">
        <ele>532.6</ele>
        <time>2025-09-16T13:53:59Z</time>
      </trkpt>
      <trkpt lat="43.67035" lon="2.35582">
        <ele>532.6</ele>
        <time>2025-09-16T13:54:00Z</time>
      </trkpt>
      <trkpt lat="43.67036" lon="2.35583">
        <ele>532.6</ele>
        <time>2025-09-16T13:54:01Z</time>
      </trkpt>
      <trkpt lat="43.67037" lon="2.35583">
        <ele>532.8</ele>
        <time>2025-09-16T13:54:02Z</time>
      </trkpt>
      <trkpt lat="43.67038" lon="2.35584">
        <ele>532.8</ele>
        <time>2025-09-16T13:54:03Z</time>
      </trkpt>
      <trkpt lat="43.67039" lon="2.35584">
        <ele>533</ele>
        <time>2025-09-16T13:54:04Z</time>
      </trkpt>
      <trkpt lat="43.67041" lon="2.35585">
        <ele>533</ele>
        <time>2025-09-16T13:54:05Z</time>
      </trkpt>
      <trkpt lat="43.67042" lon="2.35585">
        <ele>533.2</ele>
        <time>2025-09-16T13:54:06Z</time>
      </trkpt>
      <trkpt lat="43.67043" lon="2.35586">
        <ele>533.2</ele>
        <time>2025-09-16T13:54:07Z</time>
      </trkpt>
      <trkpt lat="43.67044" lon="2.35587">
        <ele>533.4</ele>
        <time>2025-09-16T13:54:08Z</time>
      </trkpt>
      <trkpt lat="43.67045" lon="2.35588">
        <ele>533.4</ele>
        <time>2025-09-16T13:54:09Z</time>
      </trkpt>
      <trkpt lat="43.67047" lon="2.35589">
        <ele>533.6</ele>
        <time>2025-09-16T13:54:10Z</time>
      </trkpt>
      <trkpt lat="43.67049" lon="2.3559">
        <ele>533.6</ele>
        <time>2025-09-16T13:54:11Z</time>
      </trkpt>
      <trkpt lat="43.67051" lon="2.35591">
        <ele>533.8</ele>
        <time>2025-09-16T13:54:12Z</time>
      </trkpt>
      <trkpt lat="43.67052" lon="2.35591">
        <ele>534</ele>
        <time>2025-09-16T13:54:13Z</time>
      </trkpt>
      <trkpt lat="43.67053" lon="2.35592">
        <ele>534.2</ele>
        <time>2025-09-16T13:54:14Z</time>
      </trkpt>
      <trkpt lat="43.67055" lon="2.35593">
        <ele>534.2</ele>
        <time>2025-09-16T13:54:15Z</time>
      </trkpt>
      <trkpt lat="43.67057" lon="2.35594">
        <ele>534.4</ele>
        <time>2025-09-16T13:54:16Z</time>
      </trkpt>
      <trkpt lat="43.67058" lon="2.35595">
        <ele>534.4</ele>
        <time>2025-09-16T13:54:17Z</time>
      </trkpt>
      <trkpt lat="43.6706" lon="2.35596">
        <ele>534.6</ele>
        <time>2025-09-16T13:54:18Z</time>
      </trkpt>
      <trkpt lat="43.67061" lon="2.35597">
        <ele>534.8</ele>
        <time>2025-09-16T13:54:19Z</time>
      </trkpt>
      <trkpt lat="43.67062" lon="2.35599">
        <ele>534.8</ele>
        <time>2025-09-16T13:54:20Z</time>
      </trkpt>
      <trkpt lat="43.67064" lon="2.356">
        <ele>535</ele>
        <time>2025-09-16T13:54:21Z</time>
      </trkpt>
      <trkpt lat="43.67065" lon="2.35601">
        <ele>535.2</ele>
        <time>2025-09-16T13:54:22Z</time>
      </trkpt>
      <trkpt lat="43.67066" lon="2.35603">
        <ele>535.2</ele>
        <time>2025-09-16T13:54:23Z</time>
      </trkpt>
      <trkpt lat="43.67067" lon="2.35604">
        <ele>535.4</ele>
        <time>2025-09-16T13:54:24Z</time>
      </trkpt>
      <trkpt lat="43.67069" lon="2.35606">
        <ele>535.6</ele>
        <time>2025-09-16T13:54:25Z</time>
      </trkpt>
      <trkpt lat="43.6707" lon="2.35607">
        <ele>535.6</ele>
        <time>2025-09-16T13:54:26Z</time>
      </trkpt>
      <trkpt lat="43.67072" lon="2.35608">
        <ele>535.8</ele>
        <time>2025-09-16T13:54:27Z</time>
      </trkpt>
      <trkpt lat="43.67073" lon="2.3561">
        <ele>535.8</ele>
        <time>2025-09-16T13:54:28Z</time>
      </trkpt>
      <trkpt lat="43.67074" lon="2.35612">
        <ele>536</ele>
        <time>2025-09-16T13:54:29Z</time>
      </trkpt>
      <trkpt lat="43.67075" lon="2.35613">
        <ele>536</ele>
        <time>2025-09-16T13:54:30Z</time>
      </trkpt>
      <trkpt lat="43.67076" lon="2.35615">
        <ele>536.2</ele>
        <time>2025-09-16T13:54:31Z</time>
      </trkpt>
      <trkpt lat="43.67077" lon="2.35617">
        <ele>536.2</ele>
        <time>2025-09-16T13:54:32Z</time>
      </trkpt>
      <trkpt lat="43.67078" lon="2.35619">
        <ele>536.4</ele>
        <time>2025-09-16T13:54:33Z</time>
      </trkpt>
      <trkpt lat="43.67078" lon="2.3562">
        <ele>536.4</ele>
        <time>2025-09-16T13:54:34Z</time>
      </trkpt>
      <trkpt lat="43.67079" lon="2.35622">
        <ele>536.6</ele>
        <time>2025-09-16T13:54:35Z</time>
      </trkpt>
      <trkpt lat="43.6708" lon="2.35624">
        <ele>536.6</ele>
        <time>2025-09-16T13:54:36Z</time>
      </trkpt>
      <trkpt lat="43.67082" lon="2.35627">
        <ele>536.8</ele>
        <time>2025-09-16T13:54:37Z</time>
      </trkpt>
      <trkpt lat="43.67083" lon="2.35629">
        <ele>536.8</ele>
        <time>2025-09-16T13:54:38Z</time>
      </trkpt>
      <trkpt lat="43.67084" lon="2.35632">
        <ele>536.8</ele>
        <time>2025-09-16T13:54:39Z</time>
      </trkpt>
      <trkpt lat="43.67085" lon="2.35634">
        <ele>537</ele>
        <time>2025-09-16T13:54:40Z</time>
      </trkpt>
      <trkpt lat="43.67086" lon="2.35637">
        <ele>537</ele>
        <time>2025-09-16T13:54:41Z</time>
      </trkpt>
      <trkpt lat="43.67087" lon="2.35641">
        <ele>537</ele>
        <time>2025-09-16T13:54:42Z</time>
      </trkpt>
      <trkpt lat="43.67088" lon="2.35644">
        <ele>537</ele>
        <time>2025-09-16T13:54:43Z</time>
      </trkpt>
      <trkpt lat="43.67089" lon="2.35647">
        <ele>537</ele>
        <time>2025-09-16T13:54:44Z</time>
      </trkpt>
      <trkpt lat="43.6709" lon="2.3565">
        <ele>537</ele>
        <time>2025-09-16T13:54:45Z</time>
      </trkpt>
      <trkpt lat="43.67091" lon="2.35653">
        <ele>537</ele>
        <time>2025-09-16T13:54:46Z</time>
      </trkpt>
      <trkpt lat="43.67093" lon="2.35657">
        <ele>537</ele>
        <time>2025-09-16T13:54:47Z</time>
      </trkpt>
      <trkpt lat="43.67093" lon="2.3566">
        <ele>537</ele>
        <time>2025-09-16T13:54:48Z</time>
      </trkpt>
      <trkpt lat="43.67094" lon="2.35664">
        <ele>537</ele>
        <time>2025-09-16T13:54:49Z</time>
      </trkpt>
      <trkpt lat="43.67094" lon="2.35668">
        <ele>537</ele>
        <time>2025-09-16T13:54:50Z</time>
      </trkpt>
      <trkpt lat="43.67094" lon="2.35671">
        <ele>537</ele>
        <time>2025-09-16T13:54:51Z</time>
      </trkpt>
      <trkpt lat="43.67094" lon="2.35674">
        <ele>537</ele>
        <time>2025-09-16T13:54:52Z</time>
      </trkpt>
      <trkpt lat="43.67094" lon="2.35678">
        <ele>537</ele>
        <time>2025-09-16T13:54:53Z</time>
      </trkpt>
      <trkpt lat="43.67094" lon="2.35681">
        <ele>537.2</ele>
        <time>2025-09-16T13:54:54Z</time>
      </trkpt>
      <trkpt lat="43.67093" lon="2.35684">
        <ele>537.2</ele>
        <time>2025-09-16T13:54:55Z</time>
      </trkpt>
      <trkpt lat="43.67092" lon="2.35687">
        <ele>537.2</ele>
        <time>2025-09-16T13:54:56Z</time>
      </trkpt>
      <trkpt lat="43.67091" lon="2.3569">
        <ele>537.4</ele>
        <time>2025-09-16T13:54:57Z</time>
      </trkpt>
      <trkpt lat="43.6709" lon="2.35693">
        <ele>537.4</ele>
        <time>2025-09-16T13:54:58Z</time>
      </trkpt>
      <trkpt lat="43.67089" lon="2.35696">
        <ele>537.4</ele>
        <time>2025-09-16T13:54:59Z</time>
      </trkpt>
      <trkpt lat="43.67088" lon="2.35699">
        <ele>537.6</ele>
        <time>2025-09-16T13:55:00Z</time>
      </trkpt>
      <trkpt lat="43.67087" lon="2.35701">
        <ele>537.6</ele>
        <time>2025-09-16T13:55:01Z</time>
      </trkpt>
      <trkpt lat="43.67086" lon="2.35704">
        <ele>537.8</ele>
        <time>2025-09-16T13:55:02Z</time>
      </trkpt>
      <trkpt lat="43.67084" lon="2.35706">
        <ele>537.8</ele>
        <time>2025-09-16T13:55:03Z</time>
      </trkpt>
      <trkpt lat="43.67083" lon="2.35708">
        <ele>538</ele>
        <time>2025-09-16T13:55:04Z</time>
      </trkpt>
      <trkpt lat="43.67082" lon="2.35709">
        <ele>538.2</ele>
        <time>2025-09-16T13:55:05Z</time>
      </trkpt>
      <trkpt lat="43.6708" lon="2.35711">
        <ele>538.2</ele>
        <time>2025-09-16T13:55:06Z</time>
      </trkpt>
      <trkpt lat="43.67079" lon="2.35712">
        <ele>538.4</ele>
        <time>2025-09-16T13:55:07Z</time>
      </trkpt>
      <trkpt lat="43.67077" lon="2.35713">
        <ele>538.6</ele>
        <time>2025-09-16T13:55:08Z</time>
      </trkpt>
      <trkpt lat="43.67075" lon="2.35713">
        <ele>538.8</ele>
        <time>2025-09-16T13:55:09Z</time>
      </trkpt>
      <trkpt lat="43.67074" lon="2.35714">
        <ele>539</ele>
        <time>2025-09-16T13:55:10Z</time>
      </trkpt>
      <trkpt lat="43.67072" lon="2.35715">
        <ele>539.2</ele>
        <time>2025-09-16T13:55:11Z</time>
      </trkpt>
      <trkpt lat="43.67071" lon="2.35716">
        <ele>539.6</ele>
        <time>2025-09-16T13:55:12Z</time>
      </trkpt>
      <trkpt lat="43.6707" lon="2.35716">
        <ele>539.8</ele>
        <time>2025-09-16T13:55:13Z</time>
      </trkpt>
      <trkpt lat="43.67068" lon="2.35716">
        <ele>540</ele>
        <time>2025-09-16T13:55:14Z</time>
      </trkpt>
      <trkpt lat="43.67067" lon="2.35717">
        <ele>540.2</ele>
        <time>2025-09-16T13:55:15Z</time>
      </trkpt>
      <trkpt lat="43.67065" lon="2.35717">
        <ele>540.4</ele>
        <time>2025-09-16T13:55:16Z</time>
      </trkpt>
      <trkpt lat="43.67064" lon="2.35717">
        <ele>540.6</ele>
        <time>2025-09-16T13:55:17Z</time>
      </trkpt>
      <trkpt lat="43.67062" lon="2.35718">
        <ele>541</ele>
        <time>2025-09-16T13:55:18Z</time>
      </trkpt>
      <trkpt lat="43.67061" lon="2.35718">
        <ele>541.2</ele>
        <time>2025-09-16T13:55:19Z</time>
      </trkpt>
      <trkpt lat="43.67059" lon="2.35719">
        <ele>541.2</ele>
        <time>2025-09-16T13:55:20Z</time>
      </trkpt>
      <trkpt lat="43.67058" lon="2.35719">
        <ele>541.4</ele>
        <time>2025-09-16T13:55:21Z</time>
      </trkpt>
      <trkpt lat="43.67056" lon="2.35719">
        <ele>541.6</ele>
        <time>2025-09-16T13:55:22Z</time>
      </trkpt>
      <trkpt lat="43.67055" lon="2.3572">
        <ele>541.8</ele>
        <time>2025-09-16T13:55:23Z</time>
      </trkpt>
      <trkpt lat="43.67054" lon="2.3572">
        <ele>542</ele>
        <time>2025-09-16T13:55:24Z</time>
      </trkpt>
      <trkpt lat="43.67052" lon="2.35721">
        <ele>542.2</ele>
        <time>2025-09-16T13:55:25Z</time>
      </trkpt>
      <trkpt lat="43.67051" lon="2.35721">
        <ele>542.4</ele>
        <time>2025-09-16T13:55:26Z</time>
      </trkpt>
      <trkpt lat="43.67049" lon="2.35721">
        <ele>542.6</ele>
        <time>2025-09-16T13:55:27Z</time>
      </trkpt>
      <trkpt lat="43.67048" lon="2.35721">
        <ele>542.8</ele>
        <time>2025-09-16T13:55:28Z</time>
      </trkpt>
      <trkpt lat="43.67047" lon="2.35721">
        <ele>543</ele>
        <time>2025-09-16T13:55:29Z</time>
      </trkpt>
      <trkpt lat="43.67046" lon="2.35722">
        <ele>543.2</ele>
        <time>2025-09-16T13:55:30Z</time>
      </trkpt>
      <trkpt lat="43.67044" lon="2.35722">
        <ele>543.2</ele>
        <time>2025-09-16T13:55:31Z</time>
      </trkpt>
      <trkpt lat="43.67043" lon="2.35722">
        <ele>543.4</ele>
        <time>2025-09-16T13:55:32Z</time>
      </trkpt>
      <trkpt lat="43.67042" lon="2.35723">
        <ele>543.6</ele>
        <time>2025-09-16T13:55:33Z</time>
      </trkpt>
      <trkpt lat="43.67041" lon="2.35723">
        <ele>543.6</ele>
        <time>2025-09-16T13:55:34Z</time>
      </trkpt>
      <trkpt lat="43.6704" lon="2.35725">
        <ele>543.8</ele>
        <time>2025-09-16T13:55:35Z</time>
      </trkpt>
      <trkpt lat="43.67039" lon="2.35726">
        <ele>544</ele>
        <time>2025-09-16T13:55:36Z</time>
      </trkpt>
      <trkpt lat="43.67038" lon="2.35727">
        <ele>544.2</ele>
        <time>2025-09-16T13:55:37Z</time>
      </trkpt>
      <trkpt lat="43.67037" lon="2.35728">
        <ele>544.2</ele>
        <time>2025-09-16T13:55:38Z</time>
      </trkpt>
      <trkpt lat="43.67036" lon="2.35729">
        <ele>544.4</ele>
        <time>2025-09-16T13:55:39Z</time>
      </trkpt>
      <trkpt lat="43.67035" lon="2.3573">
        <ele>544.6</ele>
        <time>2025-09-16T13:55:40Z</time>
      </trkpt>
      <trkpt lat="43.67033" lon="2.35731">
        <ele>544.8</ele>
        <time>2025-09-16T13:55:41Z</time>
      </trkpt>
      <trkpt lat="43.67032" lon="2.35733">
        <ele>544.8</ele>
        <time>2025-09-16T13:55:42Z</time>
      </trkpt>
      <trkpt lat="43.67031" lon="2.35734">
        <ele>545</ele>
        <time>2025-09-16T13:55:43Z</time>
      </trkpt>
      <trkpt lat="43.67029" lon="2.35735">
        <ele>545</ele>
        <time>2025-09-16T13:55:44Z</time>
      </trkpt>
      <trkpt lat="43.67029" lon="2.35736">
        <ele>545.2</ele>
        <time>2025-09-16T13:55:45Z</time>
      </trkpt>
      <trkpt lat="43.67028" lon="2.35738">
        <ele>545.2</ele>
        <time>2025-09-16T13:55:46Z</time>
      </trkpt>
      <trkpt lat="43.67027" lon="2.35739">
        <ele>545.4</ele>
        <time>2025-09-16T13:55:47Z</time>
      </trkpt>
      <trkpt lat="43.67027" lon="2.35741">
        <ele>545.6</ele>
        <time>2025-09-16T13:55:48Z</time>
      </trkpt>
      <trkpt lat="43.67026" lon="2.35742">
        <ele>545.6</ele>
        <time>2025-09-16T13:55:49Z</time>
      </trkpt>
      <trkpt lat="43.67025" lon="2.35744">
        <ele>545.8</ele>
        <time>2025-09-16T13:55:50Z</time>
      </trkpt>
      <trkpt lat="43.67024" lon="2.35745">
        <ele>546</ele>
        <time>2025-09-16T13:55:51Z</time>
      </trkpt>
      <trkpt lat="43.67024" lon="2.35746">
        <ele>546</ele>
        <time>2025-09-16T13:55:52Z</time>
      </trkpt>
      <trkpt lat="43.67023" lon="2.35747">
        <ele>546.2</ele>
        <time>2025-09-16T13:55:53Z</time>
      </trkpt>
      <trkpt lat="43.67022" lon="2.35748">
        <ele>546.4</ele>
        <time>2025-09-16T13:55:54Z</time>
      </trkpt>
      <trkpt lat="43.67021" lon="2.3575">
        <ele>546.4</ele>
        <time>2025-09-16T13:55:55Z</time>
      </trkpt>
      <trkpt lat="43.6702" lon="2.35751">
        <ele>546.6</ele>
        <time>2025-09-16T13:55:56Z</time>
      </trkpt>
      <trkpt lat="43.67019" lon="2.35754">
        <ele>546.6</ele>
        <time>2025-09-16T13:55:57Z</time>
      </trkpt>
      <trkpt lat="43.67019" lon="2.35755">
        <ele>546.6</ele>
        <time>2025-09-16T13:55:58Z</time>
      </trkpt>
      <trkpt lat="43.67018" lon="2.35757">
        <ele>546.8</ele>
        <time>2025-09-16T13:55:59Z</time>
      </trkpt>
      <trkpt lat="43.67017" lon="2.35758">
        <ele>547</ele>
        <time>2025-09-16T13:56:00Z</time>
      </trkpt>
      <trkpt lat="43.67016" lon="2.35759">
        <ele>547</ele>
        <time>2025-09-16T13:56:01Z</time>
      </trkpt>
      <trkpt lat="43.67015" lon="2.35761">
        <ele>547.2</ele>
        <time>2025-09-16T13:56:02Z</time>
      </trkpt>
      <trkpt lat="43.67015" lon="2.35762">
        <ele>547.4</ele>
        <time>2025-09-16T13:56:03Z</time>
      </trkpt>
      <trkpt lat="43.67014" lon="2.35763">
        <ele>547.4</ele>
        <time>2025-09-16T13:56:04Z</time>
      </trkpt>
      <trkpt lat="43.67013" lon="2.35764">
        <ele>547.6</ele>
        <time>2025-09-16T13:56:05Z</time>
      </trkpt>
      <trkpt lat="43.67012" lon="2.35766">
        <ele>547.8</ele>
        <time>2025-09-16T13:56:06Z</time>
      </trkpt>
      <trkpt lat="43.67011" lon="2.35768">
        <ele>547.8</ele>
        <time>2025-09-16T13:56:07Z</time>
      </trkpt>
      <trkpt lat="43.6701" lon="2.35769">
        <ele>548</ele>
        <time>2025-09-16T13:56:08Z</time>
      </trkpt>
      <trkpt lat="43.6701" lon="2.3577">
        <ele>548</ele>
        <time>2025-09-16T13:56:09Z</time>
      </trkpt>
      <trkpt lat="43.67009" lon="2.35771">
        <ele>548.2</ele>
        <time>2025-09-16T13:56:10Z</time>
      </trkpt>
      <trkpt lat="43.67007" lon="2.35772">
        <ele>548.4</ele>
        <time>2025-09-16T13:56:11Z</time>
      </trkpt>
      <trkpt lat="43.67006" lon="2.35774">
        <ele>548.4</ele>
        <time>2025-09-16T13:56:12Z</time>
      </trkpt>
      <trkpt lat="43.67006" lon="2.35776">
        <ele>548.6</ele>
        <time>2025-09-16T13:56:13Z</time>
      </trkpt>
      <trkpt lat="43.67005" lon="2.35777">
        <ele>548.6</ele>
        <time>2025-09-16T13:56:14Z</time>
      </trkpt>
      <trkpt lat="43.67005" lon="2.35777">
        <ele>548.8</ele>
        <time>2025-09-16T13:56:15Z</time>
      </trkpt>
      <trkpt lat="43.67004" lon="2.35779">
        <ele>548.8</ele>
        <time>2025-09-16T13:56:16Z</time>
      </trkpt>
      <trkpt lat="43.67003" lon="2.35781">
        <ele>549</ele>
        <time>2025-09-16T13:56:17Z</time>
      </trkpt>
      <trkpt lat="43.67002" lon="2.35782">
        <ele>549.2</ele>
        <time>2025-09-16T13:56:18Z</time>
      </trkpt>
      <trkpt lat="43.67001" lon="2.35783">
        <ele>549.2</ele>
        <time>2025-09-16T13:56:19Z</time>
      </trkpt>
      <trkpt lat="43.67" lon="2.35784">
        <ele>549.4</ele>
        <time>2025-09-16T13:56:20Z</time>
      </trkpt>
      <trkpt lat="43.67" lon="2.35784">
        <ele>549.6</ele>
        <time>2025-09-16T13:56:21Z</time>
      </trkpt>
      <trkpt lat="43.67" lon="2.35784">
        <ele>549.6</ele>
        <time>2025-09-16T13:56:22Z</time>
      </trkpt>
      <trkpt lat="43.67" lon="2.35784">
        <ele>549.6</ele>
        <time>2025-09-16T13:56:23Z</time>
      </trkpt>
      <trkpt lat="43.66994" lon="2.35794">
        <ele>550.2</ele>
        <time>2025-09-16T13:56:49Z</time>
      </trkpt>
      <trkpt lat="43.66993" lon="2.35796">
        <ele>550.2</ele>
        <time>2025-09-16T13:56:50Z</time>
      </trkpt>
      <trkpt lat="43.66993" lon="2.35798">
        <ele>550.4</ele>
        <time>2025-09-16T13:56:51Z</time>
      </trkpt>
      <trkpt lat="43.66991" lon="2.35801">
        <ele>550.4</ele>
        <time>2025-09-16T13:56:52Z</time>
      </trkpt>
      <trkpt lat="43.6699" lon="2.35803">
        <ele>550.4</ele>
        <time>2025-09-16T13:56:53Z</time>
      </trkpt>
      <trkpt lat="43.66988" lon="2.35806">
        <ele>550.4</ele>
        <time>2025-09-16T13:56:54Z</time>
      </trkpt>
      <trkpt lat="43.66987" lon="2.35808">
        <ele>550.6</ele>
        <time>2025-09-16T13:56:55Z</time>
      </trkpt>
      <trkpt lat="43.66985" lon="2.3581">
        <ele>550.6</ele>
        <time>2025-09-16T13:56:56Z</time>
      </trkpt>
      <trkpt lat="43.66984" lon="2.35812">
        <ele>550.6</ele>
        <time>2025-09-16T13:56:57Z</time>
      </trkpt>
      <trkpt lat="43.66982" lon="2.35815">
        <ele>550.6</ele>
        <time>2025-09-16T13:56:58Z</time>
      </trkpt>
      <trkpt lat="43.66981" lon="2.35818">
        <ele>550.6</ele>
        <time>2025-09-16T13:56:59Z</time>
      </trkpt>
      <trkpt lat="43.6698" lon="2.35821">
        <ele>550.8</ele>
        <time>2025-09-16T13:57:00Z</time>
      </trkpt>
      <trkpt lat="43.66979" lon="2.35824">
        <ele>550.8</ele>
        <time>2025-09-16T13:57:01Z</time>
      </trkpt>
      <trkpt lat="43.66979" lon="2.35827">
        <ele>551</ele>
        <time>2025-09-16T13:57:02Z</time>
      </trkpt>
      <trkpt lat="43.66979" lon="2.35829">
        <ele>551</ele>
        <time>2025-09-16T13:57:03Z</time>
      </trkpt>
      <trkpt lat="43.6698" lon="2.35832">
        <ele>551</ele>
        <time>2025-09-16T13:57:04Z</time>
      </trkpt>
      <trkpt lat="43.66981" lon="2.35834">
        <ele>551.2</ele>
        <time>2025-09-16T13:57:05Z</time>
      </trkpt>
      <trkpt lat="43.66982" lon="2.35837">
        <ele>551.2</ele>
        <time>2025-09-16T13:57:06Z</time>
      </trkpt>
      <trkpt lat="43.66982" lon="2.35839">
        <ele>551.2</ele>
        <time>2025-09-16T13:57:07Z</time>
      </trkpt>
      <trkpt lat="43.66984" lon="2.35841">
        <ele>551.2</ele>
        <time>2025-09-16T13:57:08Z</time>
      </trkpt>
      <trkpt lat="43.66985" lon="2.35843">
        <ele>551.2</ele>
        <time>2025-09-16T13:57:09Z</time>
      </trkpt>
      <trkpt lat="43.66987" lon="2.35844">
        <ele>551</ele>
        <time>2025-09-16T13:57:10Z</time>
      </trkpt>
      <trkpt lat="43.66989" lon="2.35847">
        <ele>550.8</ele>
        <time>2025-09-16T13:57:11Z</time>
      </trkpt>
      <trkpt lat="43.66992" lon="2.35849">
        <ele>550.6</ele>
        <time>2025-09-16T13:57:12Z</time>
      </trkpt>
      <trkpt lat="43.66995" lon="2.35852">
        <ele>550.2</ele>
        <time>2025-09-16T13:57:13Z</time>
      </trkpt>
      <trkpt lat="43.66998" lon="2.35856">
        <ele>550</ele>
        <time>2025-09-16T13:57:14Z</time>
      </trkpt>
      <trkpt lat="43.67001" lon="2.35861">
        <ele>549.6</ele>
        <time>2025-09-16T13:57:15Z</time>
      </trkpt>
      <trkpt lat="43.67004" lon="2.35867">
        <ele>549.2</ele>
        <time>2025-09-16T13:57:16Z</time>
      </trkpt>
      <trkpt lat="43.67008" lon="2.35874">
        <ele>548.4</ele>
        <time>2025-09-16T13:57:17Z</time>
      </trkpt>
      <trkpt lat="43.67011" lon="2.35881">
        <ele>547.4</ele>
        <time>2025-09-16T13:57:18Z</time>
      </trkpt>
      <trkpt lat="43.67013" lon="2.35889">
        <ele>546.4</ele>
        <time>2025-09-16T13:57:19Z</time>
      </trkpt>
      <trkpt lat="43.67015" lon="2.35897">
        <ele>545.4</ele>
        <time>2025-09-16T13:57:20Z</time>
      </trkpt>
      <trkpt lat="43.67017" lon="2.35906">
        <ele>544.6</ele>
        <time>2025-09-16T13:57:21Z</time>
      </trkpt>
      <trkpt lat="43.67018" lon="2.35916">
        <ele>543.6</ele>
        <time>2025-09-16T13:57:22Z</time>
      </trkpt>
      <trkpt lat="43.6702" lon="2.35927">
        <ele>542.4</ele>
        <time>2025-09-16T13:57:23Z</time>
      </trkpt>
      <trkpt lat="43.67023" lon="2.35938">
        <ele>540.8</ele>
        <time>2025-09-16T13:57:24Z</time>
      </trkpt>
      <trkpt lat="43.67026" lon="2.35951">
        <ele>538.8</ele>
        <time>2025-09-16T13:57:25Z</time>
      </trkpt>
      <trkpt lat="43.67029" lon="2.35965">
        <ele>537</ele>
        <time>2025-09-16T13:57:26Z</time>
      </trkpt>
      <trkpt lat="43.67032" lon="2.3598">
        <ele>534.6</ele>
        <time>2025-09-16T13:57:27Z</time>
      </trkpt>
      <trkpt lat="43.67034" lon="2.35995">
        <ele>532.2</ele>
        <time>2025-09-16T13:57:28Z</time>
      </trkpt>
      <trkpt lat="43.67037" lon="2.36011">
        <ele>530.2</ele>
        <time>2025-09-16T13:57:29Z</time>
      </trkpt>
      <trkpt lat="43.6704" lon="2.36027">
        <ele>528.6</ele>
        <time>2025-09-16T13:57:30Z</time>
      </trkpt>
      <trkpt lat="43.67043" lon="2.36043">
        <ele>527.4</ele>
        <time>2025-09-16T13:57:31Z</time>
      </trkpt>
      <trkpt lat="43.67046" lon="2.36058">
        <ele>525.8</ele>
        <time>2025-09-16T13:57:32Z</time>
      </trkpt>
      <trkpt lat="43.67048" lon="2.36073">
        <ele>524.6</ele>
        <time>2025-09-16T13:57:33Z</time>
      </trkpt>
      <trkpt lat="43.67051" lon="2.36086">
        <ele>523.8</ele>
        <time>2025-09-16T13:57:34Z</time>
      </trkpt>
      <trkpt lat="43.67053" lon="2.36096">
        <ele>523.4</ele>
        <time>2025-09-16T13:57:35Z</time>
      </trkpt>
      <trkpt lat="43.67055" lon="2.36104">
        <ele>523</ele>
        <time>2025-09-16T13:57:36Z</time>
      </trkpt>
      <trkpt lat="43.67058" lon="2.36111">
        <ele>523.2</ele>
        <time>2025-09-16T13:57:37Z</time>
      </trkpt>
      <trkpt lat="43.67061" lon="2.36115">
        <ele>523.2</ele>
        <time>2025-09-16T13:57:38Z</time>
      </trkpt>
      <trkpt lat="43.67065" lon="2.36118">
        <ele>522.8</ele>
        <time>2025-09-16T13:57:39Z</time>
      </trkpt>
      <trkpt lat="43.6707" lon="2.3612">
        <ele>522.4</ele>
        <time>2025-09-16T13:57:40Z</time>
      </trkpt>
      <trkpt lat="43.67074" lon="2.36117">
        <ele>521.6</ele>
        <time>2025-09-16T13:57:41Z</time>
      </trkpt>
      <trkpt lat="43.67078" lon="2.36114">
        <ele>521</ele>
        <time>2025-09-16T13:57:42Z</time>
      </trkpt>
      <trkpt lat="43.67081" lon="2.3611">
        <ele>520.4</ele>
        <time>2025-09-16T13:57:43Z</time>
      </trkpt>
      <trkpt lat="43.67085" lon="2.36107">
        <ele>520</ele>
        <time>2025-09-16T13:57:44Z</time>
      </trkpt>
      <trkpt lat="43.67088" lon="2.36104">
        <ele>519.4</ele>
        <time>2025-09-16T13:57:45Z</time>
      </trkpt>
      <trkpt lat="43.67092" lon="2.36103">
        <ele>519</ele>
        <time>2025-09-16T13:57:46Z</time>
      </trkpt>
      <trkpt lat="43.67093" lon="2.36105">
        <ele>518.6</ele>
        <time>2025-09-16T13:57:47Z</time>
      </trkpt>
      <trkpt lat="43.67094" lon="2.36107">
        <ele>518.4</ele>
        <time>2025-09-16T13:57:48Z</time>
      </trkpt>
      <trkpt lat="43.67093" lon="2.3611">
        <ele>518.2</ele>
        <time>2025-09-16T13:57:49Z</time>
      </trkpt>
      <trkpt lat="43.67092" lon="2.36112">
        <ele>518</ele>
        <time>2025-09-16T13:57:50Z</time>
      </trkpt>
      <trkpt lat="43.6709" lon="2.36115">
        <ele>517.8</ele>
        <time>2025-09-16T13:57:51Z</time>
      </trkpt>
      <trkpt lat="43.67088" lon="2.36117">
        <ele>517.6</ele>
        <time>2025-09-16T13:57:52Z</time>
      </trkpt>
      <trkpt lat="43.67086" lon="2.36119">
        <ele>517.4</ele>
        <time>2025-09-16T13:57:53Z</time>
      </trkpt>
      <trkpt lat="43.67084" lon="2.36121">
        <ele>517.4</ele>
        <time>2025-09-16T13:57:54Z</time>
      </trkpt>
      <trkpt lat="43.67082" lon="2.36125">
        <ele>517.2</ele>
        <time>2025-09-16T13:57:55Z</time>
      </trkpt>
      <trkpt lat="43.6708" lon="2.36129">
        <ele>517</ele>
        <time>2025-09-16T13:57:56Z</time>
      </trkpt>
      <trkpt lat="43.67077" lon="2.36132">
        <ele>516.8</ele>
        <time>2025-09-16T13:57:57Z</time>
      </trkpt>
      <trkpt lat="43.67073" lon="2.36134">
        <ele>516.8</ele>
        <time>2025-09-16T13:57:58Z</time>
      </trkpt>
      <trkpt lat="43.67069" lon="2.36137">
        <ele>516.4</ele>
        <time>2025-09-16T13:57:59Z</time>
      </trkpt>
      <trkpt lat="43.67066" lon="2.3614">
        <ele>516.2</ele>
        <time>2025-09-16T13:58:00Z</time>
      </trkpt>
      <trkpt lat="43.67062" lon="2.36142">
        <ele>516</ele>
        <time>2025-09-16T13:58:01Z</time>
      </trkpt>
      <trkpt lat="43.67058" lon="2.36144">
        <ele>515.6</ele>
        <time>2025-09-16T13:58:02Z</time>
      </trkpt>
      <trkpt lat="43.67053" lon="2.36147">
        <ele>515.4</ele>
        <time>2025-09-16T13:58:03Z</time>
      </trkpt>
      <trkpt lat="43.67049" lon="2.3615">
        <ele>515</ele>
        <time>2025-09-16T13:58:04Z</time>
      </trkpt>
      <trkpt lat="43.67044" lon="2.36154">
        <ele>514.4</ele>
        <time>2025-09-16T13:58:05Z</time>
      </trkpt>
      <trkpt lat="43.6704" lon="2.3616">
        <ele>513.8</ele>
        <time>2025-09-16T13:58:06Z</time>
      </trkpt>
      <trkpt lat="43.67035" lon="2.36166">
        <ele>513.2</ele>
        <time>2025-09-16T13:58:07Z</time>
      </trkpt>
      <trkpt lat="43.6703" lon="2.36175">
        <ele>512.4</ele>
        <time>2025-09-16T13:58:08Z</time>
      </trkpt>
      <trkpt lat="43.67026" lon="2.36183">
        <ele>511.8</ele>
        <time>2025-09-16T13:58:09Z</time>
      </trkpt>
      <trkpt lat="43.67024" lon="2.36193">
        <ele>511</ele>
        <time>2025-09-16T13:58:10Z</time>
      </trkpt>
      <trkpt lat="43.67023" lon="2.36202">
        <ele>510.4</ele>
        <time>2025-09-16T13:58:11Z</time>
      </trkpt>
      <trkpt lat="43.67024" lon="2.3621">
        <ele>510.2</ele>
        <time>2025-09-16T13:58:12Z</time>
      </trkpt>
      <trkpt lat="43.67027" lon="2.36215">
        <ele>510</ele>
        <time>2025-09-16T13:58:13Z</time>
      </trkpt>
      <trkpt lat="43.67031" lon="2.36219">
        <ele>510</ele>
        <time>2025-09-16T13:58:14Z</time>
      </trkpt>
      <trkpt lat="43.67034" lon="2.36223">
        <ele>510</ele>
        <time>2025-09-16T13:58:15Z</time>
      </trkpt>
      <trkpt lat="43.67038" lon="2.36226">
        <ele>510</ele>
        <time>2025-09-16T13:58:16Z</time>
      </trkpt>
      <trkpt lat="43.67042" lon="2.36229">
        <ele>510</ele>
        <time>2025-09-16T13:58:17Z</time>
      </trkpt>
      <trkpt lat="43.67045" lon="2.36232">
        <ele>510.2</ele>
        <time>2025-09-16T13:58:18Z</time>
      </trkpt>
      <trkpt lat="43.67049" lon="2.36235">
        <ele>510.2</ele>
        <time>2025-09-16T13:58:19Z</time>
      </trkpt>
      <trkpt lat="43.67053" lon="2.36238">
        <ele>510.2</ele>
        <time>2025-09-16T13:58:20Z</time>
      </trkpt>
      <trkpt lat="43.67057" lon="2.36242">
        <ele>510.2</ele>
        <time>2025-09-16T13:58:21Z</time>
      </trkpt>
      <trkpt lat="43.67061" lon="2.36247">
        <ele>510</ele>
        <time>2025-09-16T13:58:22Z</time>
      </trkpt>
      <trkpt lat="43.67064" lon="2.36253">
        <ele>509.8</ele>
        <time>2025-09-16T13:58:23Z</time>
      </trkpt>
      <trkpt lat="43.67065" lon="2.36259">
        <ele>509.6</ele>
        <time>2025-09-16T13:58:24Z</time>
      </trkpt>
      <trkpt lat="43.67066" lon="2.36265">
        <ele>509.6</ele>
        <time>2025-09-16T13:58:25Z</time>
      </trkpt>
      <trkpt lat="43.67067" lon="2.36271">
        <ele>509.6</ele>
        <time>2025-09-16T13:58:26Z</time>
      </trkpt>
      <trkpt lat="43.67067" lon="2.36275">
        <ele>509.8</ele>
        <time>2025-09-16T13:58:27Z</time>
      </trkpt>
      <trkpt lat="43.67067" lon="2.36279">
        <ele>510.2</ele>
        <time>2025-09-16T13:58:28Z</time>
      </trkpt>
      <trkpt lat="43.67067" lon="2.36281">
        <ele>510.6</ele>
        <time>2025-09-16T13:58:29Z</time>
      </trkpt>
      <trkpt lat="43.67066" lon="2.36283">
        <ele>511</ele>
        <time>2025-09-16T13:58:30Z</time>
      </trkpt>
      <trkpt lat="43.67065" lon="2.36286">
        <ele>511.4</ele>
        <time>2025-09-16T13:58:31Z</time>
      </trkpt>
      <trkpt lat="43.67065" lon="2.36289">
        <ele>511.6</ele>
        <time>2025-09-16T13:58:32Z</time>
      </trkpt>
      <trkpt lat="43.67064" lon="2.36291">
        <ele>512</ele>
        <time>2025-09-16T13:58:33Z</time>
      </trkpt>
      <trkpt lat="43.67064" lon="2.36293">
        <ele>512.2</ele>
        <time>2025-09-16T13:58:34Z</time>
      </trkpt>
      <trkpt lat="43.67064" lon="2.36296">
        <ele>512.2</ele>
        <time>2025-09-16T13:58:35Z</time>
      </trkpt>
      <trkpt lat="43.67063" lon="2.36298">
        <ele>512.6</ele>
        <time>2025-09-16T13:58:36Z</time>
      </trkpt>
      <trkpt lat="43.67062" lon="2.363">
        <ele>512.8</ele>
        <time>2025-09-16T13:58:37Z</time>
      </trkpt>
      <trkpt lat="43.67062" lon="2.36303">
        <ele>512.8</ele>
        <time>2025-09-16T13:58:38Z</time>
      </trkpt>
      <trkpt lat="43.67061" lon="2.36305">
        <ele>513</ele>
        <time>2025-09-16T13:58:39Z</time>
      </trkpt>
      <trkpt lat="43.67061" lon="2.36308">
        <ele>513.2</ele>
        <time>2025-09-16T13:58:40Z</time>
      </trkpt>
      <trkpt lat="43.67061" lon="2.36311">
        <ele>513.4</ele>
        <time>2025-09-16T13:58:41Z</time>
      </trkpt>
      <trkpt lat="43.6706" lon="2.36314">
        <ele>513.6</ele>
        <time>2025-09-16T13:58:42Z</time>
      </trkpt>
      <trkpt lat="43.67059" lon="2.36316">
        <ele>513.6</ele>
        <time>2025-09-16T13:58:43Z</time>
      </trkpt>
      <trkpt lat="43.67058" lon="2.36319">
        <ele>513.8</ele>
        <time>2025-09-16T13:58:44Z</time>
      </trkpt>
      <trkpt lat="43.67056" lon="2.36322">
        <ele>514</ele>
        <time>2025-09-16T13:58:45Z</time>
      </trkpt>
      <trkpt lat="43.67055" lon="2.36325">
        <ele>514</ele>
        <time>2025-09-16T13:58:46Z</time>
      </trkpt>
      <trkpt lat="43.67055" lon="2.36328">
        <ele>514.2</ele>
        <time>2025-09-16T13:58:47Z</time>
      </trkpt>
      <trkpt lat="43.67054" lon="2.36331">
        <ele>514.4</ele>
        <time>2025-09-16T13:58:48Z</time>
      </trkpt>
      <trkpt lat="43.67053" lon="2.36333">
        <ele>514.6</ele>
        <time>2025-09-16T13:58:49Z</time>
      </trkpt>
      <trkpt lat="43.67053" lon="2.36335">
        <ele>514.6</ele>
        <time>2025-09-16T13:58:50Z</time>
      </trkpt>
      <trkpt lat="43.67052" lon="2.36338">
        <ele>514.8</ele>
        <time>2025-09-16T13:58:51Z</time>
      </trkpt>
      <trkpt lat="43.67052" lon="2.36342">
        <ele>514.8</ele>
        <time>2025-09-16T13:58:52Z</time>
      </trkpt>
      <trkpt lat="43.6705" lon="2.36345">
        <ele>515</ele>
        <time>2025-09-16T13:58:53Z</time>
      </trkpt>
      <trkpt lat="43.67048" lon="2.36348">
        <ele>515.2</ele>
        <time>2025-09-16T13:58:54Z</time>
      </trkpt>
      <trkpt lat="43.67047" lon="2.3635">
        <ele>515.2</ele>
        <time>2025-09-16T13:58:55Z</time>
      </trkpt>
      <trkpt lat="43.67045" lon="2.36353">
        <ele>515.4</ele>
        <time>2025-09-16T13:58:56Z</time>
      </trkpt>
      <trkpt lat="43.67044" lon="2.36355">
        <ele>515.4</ele>
        <time>2025-09-16T13:58:57Z</time>
      </trkpt>
      <trkpt lat="43.67043" lon="2.36358">
        <ele>515.6</ele>
        <time>2025-09-16T13:58:58Z</time>
      </trkpt>
      <trkpt lat="43.67041" lon="2.3636">
        <ele>515.8</ele>
        <time>2025-09-16T13:58:59Z</time>
      </trkpt>
      <trkpt lat="43.6704" lon="2.36363">
        <ele>516</ele>
        <time>2025-09-16T13:59:00Z</time>
      </trkpt>
      <trkpt lat="43.67038" lon="2.36366">
        <ele>516.2</ele>
        <time>2025-09-16T13:59:01Z</time>
      </trkpt>
      <trkpt lat="43.67036" lon="2.36368">
        <ele>516.4</ele>
        <time>2025-09-16T13:59:02Z</time>
      </trkpt>
      <trkpt lat="43.67034" lon="2.3637">
        <ele>516.6</ele>
        <time>2025-09-16T13:59:03Z</time>
      </trkpt>
      <trkpt lat="43.67033" lon="2.36372">
        <ele>516.6</ele>
        <time>2025-09-16T13:59:04Z</time>
      </trkpt>
      <trkpt lat="43.67032" lon="2.36375">
        <ele>517</ele>
        <time>2025-09-16T13:59:05Z</time>
      </trkpt>
      <trkpt lat="43.6703" lon="2.36377">
        <ele>517.2</ele>
        <time>2025-09-16T13:59:06Z</time>
      </trkpt>
      <trkpt lat="43.67029" lon="2.36378">
        <ele>517.4</ele>
        <time>2025-09-16T13:59:07Z</time>
      </trkpt>
      <trkpt lat="43.67028" lon="2.36378">
        <ele>517.6</ele>
        <time>2025-09-16T13:59:08Z</time>
      </trkpt>
      <trkpt lat="43.67026" lon="2.36379">
        <ele>517.8</ele>
        <time>2025-09-16T13:59:09Z</time>
      </trkpt>
      <trkpt lat="43.67024" lon="2.3638">
        <ele>517.8</ele>
        <time>2025-09-16T13:59:10Z</time>
      </trkpt>
      <trkpt lat="43.67022" lon="2.36381">
        <ele>518</ele>
        <time>2025-09-16T13:59:11Z</time>
      </trkpt>
      <trkpt lat="43.67022" lon="2.36382">
        <ele>518</ele>
        <time>2025-09-16T13:59:12Z</time>
      </trkpt>
      <trkpt lat="43.6702" lon="2.36382">
        <ele>518.2</ele>
        <time>2025-09-16T13:59:13Z</time>
      </trkpt>
      <trkpt lat="43.67019" lon="2.36383">
        <ele>518.4</ele>
        <time>2025-09-16T13:59:14Z</time>
      </trkpt>
      <trkpt lat="43.67017" lon="2.36383">
        <ele>518.6</ele>
        <time>2025-09-16T13:59:15Z</time>
      </trkpt>
      <trkpt lat="43.67016" lon="2.36384">
        <ele>518.8</ele>
        <time>2025-09-16T13:59:16Z</time>
      </trkpt>
      <trkpt lat="43.67014" lon="2.36384">
        <ele>518.8</ele>
        <time>2025-09-16T13:59:17Z</time>
      </trkpt>
      <trkpt lat="43.67012" lon="2.36385">
        <ele>519</ele>
        <time>2025-09-16T13:59:18Z</time>
      </trkpt>
      <trkpt lat="43.67011" lon="2.36386">
        <ele>519.2</ele>
        <time>2025-09-16T13:59:19Z</time>
      </trkpt>
      <trkpt lat="43.67009" lon="2.36386">
        <ele>519.4</ele>
        <time>2025-09-16T13:59:20Z</time>
      </trkpt>
      <trkpt lat="43.67008" lon="2.36387">
        <ele>519.4</ele>
        <time>2025-09-16T13:59:21Z</time>
      </trkpt>
      <trkpt lat="43.67007" lon="2.36387">
        <ele>519.6</ele>
        <time>2025-09-16T13:59:22Z</time>
      </trkpt>
      <trkpt lat="43.67005" lon="2.36387">
        <ele>519.8</ele>
        <time>2025-09-16T13:59:23Z</time>
      </trkpt>
      <trkpt lat="43.67004" lon="2.36388">
        <ele>520</ele>
        <time>2025-09-16T13:59:24Z</time>
      </trkpt>
      <trkpt lat="43.67003" lon="2.36388">
        <ele>520.2</ele>
        <time>2025-09-16T13:59:25Z</time>
      </trkpt>
      <trkpt lat="43.67002" lon="2.36389">
        <ele>520.2</ele>
        <time>2025-09-16T13:59:26Z</time>
      </trkpt>
      <trkpt lat="43.67" lon="2.36389">
        <ele>520.4</ele>
        <time>2025-09-16T13:59:27Z</time>
      </trkpt>
      <trkpt lat="43.66999" lon="2.3639">
        <ele>520.6</ele>
        <time>2025-09-16T13:59:28Z</time>
      </trkpt>
      <trkpt lat="43.66998" lon="2.36391">
        <ele>520.6</ele>
        <time>2025-09-16T13:59:29Z</time>
      </trkpt>
      <trkpt lat="43.66997" lon="2.36391">
        <ele>520.8</ele>
        <time>2025-09-16T13:59:30Z</time>
      </trkpt>
      <trkpt lat="43.66995" lon="2.36392">
        <ele>521</ele>
        <time>2025-09-16T13:59:31Z</time>
      </trkpt>
      <trkpt lat="43.66993" lon="2.36392">
        <ele>521.2</ele>
        <time>2025-09-16T13:59:32Z</time>
      </trkpt>
      <trkpt lat="43.66992" lon="2.36392">
        <ele>521.2</ele>
        <time>2025-09-16T13:59:33Z</time>
      </trkpt>
      <trkpt lat="43.66991" lon="2.36392">
        <ele>521.4</ele>
        <time>2025-09-16T13:59:34Z</time>
      </trkpt>
      <trkpt lat="43.6699" lon="2.36392">
        <ele>521.6</ele>
        <time>2025-09-16T13:59:35Z</time>
      </trkpt>
      <trkpt lat="43.66989" lon="2.36393">
        <ele>521.8</ele>
        <time>2025-09-16T13:59:36Z</time>
      </trkpt>
      <trkpt lat="43.66988" lon="2.36393">
        <ele>522</ele>
        <time>2025-09-16T13:59:37Z</time>
      </trkpt>
      <trkpt lat="43.66987" lon="2.36394">
        <ele>522</ele>
        <time>2025-09-16T13:59:38Z</time>
      </trkpt>
      <trkpt lat="43.66986" lon="2.36395">
        <ele>522.2</ele>
        <time>2025-09-16T13:59:39Z</time>
      </trkpt>
      <trkpt lat="43.66985" lon="2.36396">
        <ele>522.4</ele>
        <time>2025-09-16T13:59:40Z</time>
      </trkpt>
      <trkpt lat="43.66984" lon="2.36397">
        <ele>522.4</ele>
        <time>2025-09-16T13:59:41Z</time>
      </trkpt>
      <trkpt lat="43.66982" lon="2.36398">
        <ele>522.6</ele>
        <time>2025-09-16T13:59:42Z</time>
      </trkpt>
      <trkpt lat="43.66981" lon="2.36399">
        <ele>522.6</ele>
        <time>2025-09-16T13:59:43Z</time>
      </trkpt>
      <trkpt lat="43.6698" lon="2.364">
        <ele>522.8</ele>
        <time>2025-09-16T13:59:44Z</time>
      </trkpt>
      <trkpt lat="43.66979" lon="2.36401">
        <ele>522.8</ele>
        <time>2025-09-16T13:59:45Z</time>
      </trkpt>
      <trkpt lat="43.66977" lon="2.36401">
        <ele>523</ele>
        <time>2025-09-16T13:59:46Z</time>
      </trkpt>
      <trkpt lat="43.66975" lon="2.36402">
        <ele>523.2</ele>
        <time>2025-09-16T13:59:47Z</time>
      </trkpt>
      <trkpt lat="43.66974" lon="2.36404">
        <ele>523.2</ele>
        <time>2025-09-16T13:59:48Z</time>
      </trkpt>
      <trkpt lat="43.66973" lon="2.36404">
        <ele>523.4</ele>
        <time>2025-09-16T13:59:49Z</time>
      </trkpt>
      <trkpt lat="43.66971" lon="2.36406">
        <ele>523.6</ele>
        <time>2025-09-16T13:59:50Z</time>
      </trkpt>
      <trkpt lat="43.6697" lon="2.36407">
        <ele>523.6</ele>
        <time>2025-09-16T13:59:51Z</time>
      </trkpt>
      <trkpt lat="43.66969" lon="2.36408">
        <ele>523.8</ele>
        <time>2025-09-16T13:59:52Z</time>
      </trkpt>
      <trkpt lat="43.66968" lon="2.3641">
        <ele>524</ele>
        <time>2025-09-16T13:59:53Z</time>
      </trkpt>
      <trkpt lat="43.66967" lon="2.36411">
        <ele>524.2</ele>
        <time>2025-09-16T13:59:54Z</time>
      </trkpt>
      <trkpt lat="43.66966" lon="2.36412">
        <ele>524.2</ele>
        <time>2025-09-16T13:59:55Z</time>
      </trkpt>
      <trkpt lat="43.66965" lon="2.36413">
        <ele>524.4</ele>
        <time>2025-09-16T13:59:56Z</time>
      </trkpt>
      <trkpt lat="43.66963" lon="2.36415">
        <ele>524.6</ele>
        <time>2025-09-16T13:59:57Z</time>
      </trkpt>
      <trkpt lat="43.66962" lon="2.36416">
        <ele>524.6</ele>
        <time>2025-09-16T13:59:58Z</time>
      </trkpt>
      <trkpt lat="43.66961" lon="2.36418">
        <ele>524.8</ele>
        <time>2025-09-16T13:59:59Z</time>
      </trkpt>
      <trkpt lat="43.66961" lon="2.3642">
        <ele>525</ele>
        <time>2025-09-16T14:00:00Z</time>
      </trkpt>
      <trkpt lat="43.6696" lon="2.36421">
        <ele>525</ele>
        <time>2025-09-16T14:00:01Z</time>
      </trkpt>
      <trkpt lat="43.6696" lon="2.36423">
        <ele>525.2</ele>
        <time>2025-09-16T14:00:02Z</time>
      </trkpt>
      <trkpt lat="43.66959" lon="2.36425">
        <ele>525.2</ele>
        <time>2025-09-16T14:00:03Z</time>
      </trkpt>
      <trkpt lat="43.66958" lon="2.36426">
        <ele>525.4</ele>
        <time>2025-09-16T14:00:04Z</time>
      </trkpt>
      <trkpt lat="43.66959" lon="2.36427">
        <ele>525.4</ele>
        <time>2025-09-16T14:00:05Z</time>
      </trkpt>
      <trkpt lat="43.66958" lon="2.3643">
        <ele>525.6</ele>
        <time>2025-09-16T14:00:06Z</time>
      </trkpt>
      <trkpt lat="43.66957" lon="2.36433">
        <ele>525.8</ele>
        <time>2025-09-16T14:00:07Z</time>
      </trkpt>
      <trkpt lat="43.66955" lon="2.36434">
        <ele>525.8</ele>
        <time>2025-09-16T14:00:08Z</time>
      </trkpt>
      <trkpt lat="43.66955" lon="2.36434">
        <ele>526</ele>
        <time>2025-09-16T14:00:09Z</time>
      </trkpt>
      <trkpt lat="43.66955" lon="2.36436">
        <ele>526.2</ele>
        <time>2025-09-16T14:00:10Z</time>
      </trkpt>
      <trkpt lat="43.66954" lon="2.36437">
        <ele>526.4</ele>
        <time>2025-09-16T14:00:11Z</time>
      </trkpt>
      <trkpt lat="43.66954" lon="2.36439">
        <ele>526.4</ele>
        <time>2025-09-16T14:00:12Z</time>
      </trkpt>
      <trkpt lat="43.66954" lon="2.36442">
        <ele>526.6</ele>
        <time>2025-09-16T14:00:13Z</time>
      </trkpt>
      <trkpt lat="43.66953" lon="2.36442">
        <ele>526.8</ele>
        <time>2025-09-16T14:00:14Z</time>
      </trkpt>
      <trkpt lat="43.66953" lon="2.36444">
        <ele>526.8</ele>
        <time>2025-09-16T14:00:15Z</time>
      </trkpt>
      <trkpt lat="43.66952" lon="2.36446">
        <ele>527</ele>
        <time>2025-09-16T14:00:16Z</time>
      </trkpt>
      <trkpt lat="43.66952" lon="2.36448">
        <ele>527</ele>
        <time>2025-09-16T14:00:17Z</time>
      </trkpt>
      <trkpt lat="43.66951" lon="2.3645">
        <ele>527.2</ele>
        <time>2025-09-16T14:00:18Z</time>
      </trkpt>
      <trkpt lat="43.6695" lon="2.36452">
        <ele>527.4</ele>
        <time>2025-09-16T14:00:19Z</time>
      </trkpt>
      <trkpt lat="43.66949" lon="2.36453">
        <ele>527.6</ele>
        <time>2025-09-16T14:00:20Z</time>
      </trkpt>
      <trkpt lat="43.66948" lon="2.36455">
        <ele>527.6</ele>
        <time>2025-09-16T14:00:21Z</time>
      </trkpt>
      <trkpt lat="43.66947" lon="2.36456">
        <ele>527.8</ele>
        <time>2025-09-16T14:00:22Z</time>
      </trkpt>
      <trkpt lat="43.66946" lon="2.36457">
        <ele>528</ele>
        <time>2025-09-16T14:00:23Z</time>
      </trkpt>
      <trkpt lat="43.66946" lon="2.36458">
        <ele>528.2</ele>
        <time>2025-09-16T14:00:24Z</time>
      </trkpt>
      <trkpt lat="43.66945" lon="2.3646">
        <ele>528.4</ele>
        <time>2025-09-16T14:00:25Z</time>
      </trkpt>
      <trkpt lat="43.66945" lon="2.36461">
        <ele>528.4</ele>
        <time>2025-09-16T14:00:26Z</time>
      </trkpt>
      <trkpt lat="43.66944" lon="2.36462">
        <ele>528.6</ele>
        <time>2025-09-16T14:00:27Z</time>
      </trkpt>
      <trkpt lat="43.66944" lon="2.36463">
        <ele>528.8</ele>
        <time>2025-09-16T14:00:28Z</time>
      </trkpt>
      <trkpt lat="43.66943" lon="2.36465">
        <ele>528.8</ele>
        <time>2025-09-16T14:00:29Z</time>
      </trkpt>
      <trkpt lat="43.66943" lon="2.36467">
        <ele>529</ele>
        <time>2025-09-16T14:00:30Z</time>
      </trkpt>
      <trkpt lat="43.66942" lon="2.36468">
        <ele>529.2</ele>
        <time>2025-09-16T14:00:31Z</time>
      </trkpt>
      <trkpt lat="43.66942" lon="2.36469">
        <ele>529.4</ele>
        <time>2025-09-16T14:00:32Z</time>
      </trkpt>
      <trkpt lat="43.66942" lon="2.3647">
        <ele>529.6</ele>
        <time>2025-09-16T14:00:33Z</time>
      </trkpt>
      <trkpt lat="43.66941" lon="2.36472">
        <ele>529.6</ele>
        <time>2025-09-16T14:00:34Z</time>
      </trkpt>
      <trkpt lat="43.66941" lon="2.36473">
        <ele>529.8</ele>
        <time>2025-09-16T14:00:35Z</time>
      </trkpt>
      <trkpt lat="43.66941" lon="2.36473">
        <ele>530</ele>
        <time>2025-09-16T14:00:36Z</time>
      </trkpt>
      <trkpt lat="43.6694" lon="2.36474">
        <ele>530.2</ele>
        <time>2025-09-16T14:00:37Z</time>
      </trkpt>
      <trkpt lat="43.66939" lon="2.36475">
        <ele>530.4</ele>
        <time>2025-09-16T14:00:38Z</time>
      </trkpt>
      <trkpt lat="43.66939" lon="2.36477">
        <ele>530.4</ele>
        <time>2025-09-16T14:00:39Z</time>
      </trkpt>
      <trkpt lat="43.66938" lon="2.36479">
        <ele>530.6</ele>
        <time>2025-09-16T14:00:40Z</time>
      </trkpt>
      <trkpt lat="43.66938" lon="2.3648">
        <ele>530.8</ele>
        <time>2025-09-16T14:00:41Z</time>
      </trkpt>
      <trkpt lat="43.66937" lon="2.36483">
        <ele>530.8</ele>
        <time>2025-09-16T14:00:42Z</time>
      </trkpt>
      <trkpt lat="43.66936" lon="2.36484">
        <ele>531</ele>
        <time>2025-09-16T14:00:43Z</time>
      </trkpt>
      <trkpt lat="43.66936" lon="2.36487">
        <ele>531.2</ele>
        <time>2025-09-16T14:00:44Z</time>
      </trkpt>
      <trkpt lat="43.66935" lon="2.36488">
        <ele>531.4</ele>
        <time>2025-09-16T14:00:45Z</time>
      </trkpt>
      <trkpt lat="43.66935" lon="2.3649">
        <ele>531.4</ele>
        <time>2025-09-16T14:00:46Z</time>
      </trkpt>
      <trkpt lat="43.66934" lon="2.36493">
        <ele>531.6</ele>
        <time>2025-09-16T14:00:47Z</time>
      </trkpt>
      <trkpt lat="43.66933" lon="2.36494">
        <ele>531.8</ele>
        <time>2025-09-16T14:00:48Z</time>
      </trkpt>
      <trkpt lat="43.66932" lon="2.36496">
        <ele>531.8</ele>
        <time>2025-09-16T14:00:49Z</time>
      </trkpt>
      <trkpt lat="43.66931" lon="2.36497">
        <ele>532</ele>
        <time>2025-09-16T14:00:50Z</time>
      </trkpt>
      <trkpt lat="43.6693" lon="2.36499">
        <ele>532.2</ele>
        <time>2025-09-16T14:00:51Z</time>
      </trkpt>
      <trkpt lat="43.6693" lon="2.36501">
        <ele>532.4</ele>
        <time>2025-09-16T14:00:52Z</time>
      </trkpt>
      <trkpt lat="43.66928" lon="2.36502">
        <ele>532.4</ele>
        <time>2025-09-16T14:00:53Z</time>
      </trkpt>
      <trkpt lat="43.66928" lon="2.36503">
        <ele>532.6</ele>
        <time>2025-09-16T14:00:54Z</time>
      </trkpt>
      <trkpt lat="43.66927" lon="2.36505">
        <ele>532.8</ele>
        <time>2025-09-16T14:00:55Z</time>
      </trkpt>
      <trkpt lat="43.66926" lon="2.36506">
        <ele>533</ele>
        <time>2025-09-16T14:00:56Z</time>
      </trkpt>
      <trkpt lat="43.66925" lon="2.36508">
        <ele>533</ele>
        <time>2025-09-16T14:00:57Z</time>
      </trkpt>
      <trkpt lat="43.66925" lon="2.36509">
        <ele>533.2</ele>
        <time>2025-09-16T14:00:58Z</time>
      </trkpt>
      <trkpt lat="43.66924" lon="2.36511">
        <ele>533.4</ele>
        <time>2025-09-16T14:00:59Z</time>
      </trkpt>
      <trkpt lat="43.66923" lon="2.36512">
        <ele>533.4</ele>
        <time>2025-09-16T14:01:00Z</time>
      </trkpt>
      <trkpt lat="43.66922" lon="2.36514">
        <ele>533.6</ele>
        <time>2025-09-16T14:01:01Z</time>
      </trkpt>
      <trkpt lat="43.66921" lon="2.36515">
        <ele>533.8</ele>
        <time>2025-09-16T14:01:02Z</time>
      </trkpt>
      <trkpt lat="43.66921" lon="2.36517">
        <ele>533.8</ele>
        <time>2025-09-16T14:01:03Z</time>
      </trkpt>
      <trkpt lat="43.6692" lon="2.36519">
        <ele>534</ele>
        <time>2025-09-16T14:01:04Z</time>
      </trkpt>
      <trkpt lat="43.6692" lon="2.36521">
        <ele>534</ele>
        <time>2025-09-16T14:01:05Z</time>
      </trkpt>
      <trkpt lat="43.6692" lon="2.36522">
        <ele>534.2</ele>
        <time>2025-09-16T14:01:06Z</time>
      </trkpt>
      <trkpt lat="43.66919" lon="2.36523">
        <ele>534.4</ele>
        <time>2025-09-16T14:01:07Z</time>
      </trkpt>
      <trkpt lat="43.66917" lon="2.36524">
        <ele>534.4</ele>
        <time>2025-09-16T14:01:08Z</time>
      </trkpt>
      <trkpt lat="43.66916" lon="2.36525">
        <ele>534.6</ele>
        <time>2025-09-16T14:01:09Z</time>
      </trkpt>
      <trkpt lat="43.66915" lon="2.36526">
        <ele>534.6</ele>
        <time>2025-09-16T14:01:10Z</time>
      </trkpt>
      <trkpt lat="43.66914" lon="2.36528">
        <ele>534.8</ele>
        <time>2025-09-16T14:01:11Z</time>
      </trkpt>
      <trkpt lat="43.66914" lon="2.36529">
        <ele>535</ele>
        <time>2025-09-16T14:01:12Z</time>
      </trkpt>
      <trkpt lat="43.66913" lon="2.3653">
        <ele>535</ele>
        <time>2025-09-16T14:01:13Z</time>
      </trkpt>
      <trkpt lat="43.66913" lon="2.36532">
        <ele>535.2</ele>
        <time>2025-09-16T14:01:14Z</time>
      </trkpt>
      <trkpt lat="43.66913" lon="2.36533">
        <ele>535.2</ele>
        <time>2025-09-16T14:01:15Z</time>
      </trkpt>
      <trkpt lat="43.66912" lon="2.36535">
        <ele>535.4</ele>
        <time>2025-09-16T14:01:16Z</time>
      </trkpt>
      <trkpt lat="43.66912" lon="2.36536">
        <ele>535.6</ele>
        <time>2025-09-16T14:01:17Z</time>
      </trkpt>
      <trkpt lat="43.6691" lon="2.36537">
        <ele>535.6</ele>
        <time>2025-09-16T14:01:18Z</time>
      </trkpt>
      <trkpt lat="43.66909" lon="2.36538">
        <ele>535.8</ele>
        <time>2025-09-16T14:01:19Z</time>
      </trkpt>
      <trkpt lat="43.66909" lon="2.36539">
        <ele>536</ele>
        <time>2025-09-16T14:01:20Z</time>
      </trkpt>
      <trkpt lat="43.66908" lon="2.36541">
        <ele>536.2</ele>
        <time>2025-09-16T14:01:21Z</time>
      </trkpt>
      <trkpt lat="43.66907" lon="2.36542">
        <ele>536.2</ele>
        <time>2025-09-16T14:01:22Z</time>
      </trkpt>
      <trkpt lat="43.66906" lon="2.36543">
        <ele>536.4</ele>
        <time>2025-09-16T14:01:23Z</time>
      </trkpt>
      <trkpt lat="43.66905" lon="2.36544">
        <ele>536.6</ele>
        <time>2025-09-16T14:01:24Z</time>
      </trkpt>
      <trkpt lat="43.66904" lon="2.36545">
        <ele>536.6</ele>
        <time>2025-09-16T14:01:25Z</time>
      </trkpt>
      <trkpt lat="43.66904" lon="2.36546">
        <ele>536.8</ele>
        <time>2025-09-16T14:01:26Z</time>
      </trkpt>
      <trkpt lat="43.66903" lon="2.36547">
        <ele>537</ele>
        <time>2025-09-16T14:01:27Z</time>
      </trkpt>
      <trkpt lat="43.66902" lon="2.36549">
        <ele>537</ele>
        <time>2025-09-16T14:01:28Z</time>
      </trkpt>
      <trkpt lat="43.66901" lon="2.36551">
        <ele>537.2</ele>
        <time>2025-09-16T14:01:29Z</time>
      </trkpt>
      <trkpt lat="43.66901" lon="2.36553">
        <ele>537.2</ele>
        <time>2025-09-16T14:01:30Z</time>
      </trkpt>
      <trkpt lat="43.669" lon="2.36555">
        <ele>537.4</ele>
        <time>2025-09-16T14:01:31Z</time>
      </trkpt>
      <trkpt lat="43.66899" lon="2.36556">
        <ele>537.4</ele>
        <time>2025-09-16T14:01:32Z</time>
      </trkpt>
      <trkpt lat="43.66898" lon="2.36557">
        <ele>537.6</ele>
        <time>2025-09-16T14:01:33Z</time>
      </trkpt>
      <trkpt lat="43.66898" lon="2.36558">
        <ele>537.8</ele>
        <time>2025-09-16T14:01:34Z</time>
      </trkpt>
      <trkpt lat="43.66897" lon="2.36559">
        <ele>538</ele>
        <time>2025-09-16T14:01:35Z</time>
      </trkpt>
      <trkpt lat="43.66896" lon="2.36561">
        <ele>538</ele>
        <time>2025-09-16T14:01:36Z</time>
      </trkpt>
      <trkpt lat="43.66895" lon="2.36563">
        <ele>538.2</ele>
        <time>2025-09-16T14:01:37Z</time>
      </trkpt>
      <trkpt lat="43.66895" lon="2.36565">
        <ele>538.4</ele>
        <time>2025-09-16T14:01:38Z</time>
      </trkpt>
      <trkpt lat="43.66894" lon="2.36566">
        <ele>538.6</ele>
        <time>2025-09-16T14:01:39Z</time>
      </trkpt>
      <trkpt lat="43.66893" lon="2.36568">
        <ele>538.6</ele>
        <time>2025-09-16T14:01:40Z</time>
      </trkpt>
      <trkpt lat="43.66893" lon="2.36569">
        <ele>538.8</ele>
        <time>2025-09-16T14:01:41Z</time>
      </trkpt>
      <trkpt lat="43.66892" lon="2.3657">
        <ele>539</ele>
        <time>2025-09-16T14:01:42Z</time>
      </trkpt>
      <trkpt lat="43.66891" lon="2.36571">
        <ele>539</ele>
        <time>2025-09-16T14:01:43Z</time>
      </trkpt>
      <trkpt lat="43.6689" lon="2.36573">
        <ele>539.2</ele>
        <time>2025-09-16T14:01:44Z</time>
      </trkpt>
      <trkpt lat="43.6689" lon="2.36574">
        <ele>539.4</ele>
        <time>2025-09-16T14:01:45Z</time>
      </trkpt>
      <trkpt lat="43.66889" lon="2.36577">
        <ele>539.4</ele>
        <time>2025-09-16T14:01:46Z</time>
      </trkpt>
      <trkpt lat="43.66889" lon="2.36579">
        <ele>539.6</ele>
        <time>2025-09-16T14:01:47Z</time>
      </trkpt>
      <trkpt lat="43.66888" lon="2.3658">
        <ele>539.6</ele>
        <time>2025-09-16T14:01:48Z</time>
      </trkpt>
      <trkpt lat="43.66888" lon="2.36582">
        <ele>539.8</ele>
        <time>2025-09-16T14:01:49Z</time>
      </trkpt>
      <trkpt lat="43.66887" lon="2.36583">
        <ele>540</ele>
        <time>2025-09-16T14:01:50Z</time>
      </trkpt>
      <trkpt lat="43.66886" lon="2.36585">
        <ele>540</ele>
        <time>2025-09-16T14:01:51Z</time>
      </trkpt>
      <trkpt lat="43.66885" lon="2.36586">
        <ele>540.2</ele>
        <time>2025-09-16T14:01:52Z</time>
      </trkpt>
      <trkpt lat="43.66885" lon="2.36588">
        <ele>540.4</ele>
        <time>2025-09-16T14:01:53Z</time>
      </trkpt>
      <trkpt lat="43.66884" lon="2.3659">
        <ele>540.4</ele>
        <time>2025-09-16T14:01:54Z</time>
      </trkpt>
      <trkpt lat="43.66884" lon="2.36592">
        <ele>540.6</ele>
        <time>2025-09-16T14:01:55Z</time>
      </trkpt>
      <trkpt lat="43.66883" lon="2.36594">
        <ele>540.8</ele>
        <time>2025-09-16T14:01:56Z</time>
      </trkpt>
      <trkpt lat="43.66883" lon="2.36595">
        <ele>540.8</ele>
        <time>2025-09-16T14:01:57Z</time>
      </trkpt>
      <trkpt lat="43.66882" lon="2.36597">
        <ele>541</ele>
        <time>2025-09-16T14:01:58Z</time>
      </trkpt>
      <trkpt lat="43.66882" lon="2.36599">
        <ele>541.2</ele>
        <time>2025-09-16T14:01:59Z</time>
      </trkpt>
      <trkpt lat="43.66881" lon="2.366">
        <ele>541.2</ele>
        <time>2025-09-16T14:02:00Z</time>
      </trkpt>
      <trkpt lat="43.66881" lon="2.36601">
        <ele>541.4</ele>
        <time>2025-09-16T14:02:01Z</time>
      </trkpt>
      <trkpt lat="43.6688" lon="2.36603">
        <ele>541.4</ele>
        <time>2025-09-16T14:02:02Z</time>
      </trkpt>
      <trkpt lat="43.66879" lon="2.36605">
        <ele>541.6</ele>
        <time>2025-09-16T14:02:03Z</time>
      </trkpt>
      <trkpt lat="43.66879" lon="2.36607">
        <ele>541.8</ele>
        <time>2025-09-16T14:02:04Z</time>
      </trkpt>
      <trkpt lat="43.66878" lon="2.36608">
        <ele>541.8</ele>
        <time>2025-09-16T14:02:05Z</time>
      </trkpt>
      <trkpt lat="43.66878" lon="2.3661">
        <ele>542</ele>
        <time>2025-09-16T14:02:06Z</time>
      </trkpt>
      <trkpt lat="43.66877" lon="2.36612">
        <ele>542</ele>
        <time>2025-09-16T14:02:07Z</time>
      </trkpt>
      <trkpt lat="43.66876" lon="2.36613">
        <ele>542.2</ele>
        <time>2025-09-16T14:02:08Z</time>
      </trkpt>
      <trkpt lat="43.66876" lon="2.36615">
        <ele>542.2</ele>
        <time>2025-09-16T14:02:09Z</time>
      </trkpt>
      <trkpt lat="43.66875" lon="2.36617">
        <ele>542.4</ele>
        <time>2025-09-16T14:02:10Z</time>
      </trkpt>
      <trkpt lat="43.66874" lon="2.36619">
        <ele>542.6</ele>
        <time>2025-09-16T14:02:11Z</time>
      </trkpt>
      <trkpt lat="43.66873" lon="2.36621">
        <ele>542.6</ele>
        <time>2025-09-16T14:02:12Z</time>
      </trkpt>
      <trkpt lat="43.66872" lon="2.36622">
        <ele>542.8</ele>
        <time>2025-09-16T14:02:13Z</time>
      </trkpt>
      <trkpt lat="43.66871" lon="2.36624">
        <ele>542.8</ele>
        <time>2025-09-16T14:02:14Z</time>
      </trkpt>
      <trkpt lat="43.6687" lon="2.36625">
        <ele>543</ele>
        <time>2025-09-16T14:02:15Z</time>
      </trkpt>
      <trkpt lat="43.66869" lon="2.36626">
        <ele>543.2</ele>
        <time>2025-09-16T14:02:16Z</time>
      </trkpt>
      <trkpt lat="43.66869" lon="2.36627">
        <ele>543.2</ele>
        <time>2025-09-16T14:02:17Z</time>
      </trkpt>
      <trkpt lat="43.66868" lon="2.36629">
        <ele>543.4</ele>
        <time>2025-09-16T14:02:18Z</time>
      </trkpt>
      <trkpt lat="43.66868" lon="2.3663">
        <ele>543.4</ele>
        <time>2025-09-16T14:02:19Z</time>
      </trkpt>
      <trkpt lat="43.66868" lon="2.36632">
        <ele>543.6</ele>
        <time>2025-09-16T14:02:20Z</time>
      </trkpt>
      <trkpt lat="43.66867" lon="2.36633">
        <ele>543.6</ele>
        <time>2025-09-16T14:02:21Z</time>
      </trkpt>
      <trkpt lat="43.66867" lon="2.36635">
        <ele>543.8</ele>
        <time>2025-09-16T14:02:22Z</time>
      </trkpt>
      <trkpt lat="43.66866" lon="2.36638">
        <ele>543.8</ele>
        <time>2025-09-16T14:02:23Z</time>
      </trkpt>
      <trkpt lat="43.66865" lon="2.3664">
        <ele>544</ele>
        <time>2025-09-16T14:02:24Z</time>
      </trkpt>
      <trkpt lat="43.66864" lon="2.36641">
        <ele>544.2</ele>
        <time>2025-09-16T14:02:25Z</time>
      </trkpt>
      <trkpt lat="43.66863" lon="2.36643">
        <ele>544.2</ele>
        <time>2025-09-16T14:02:26Z</time>
      </trkpt>
      <trkpt lat="43.66862" lon="2.36645">
        <ele>544.2</ele>
        <time>2025-09-16T14:02:27Z</time>
      </trkpt>
      <trkpt lat="43.66861" lon="2.36647">
        <ele>544.4</ele>
        <time>2025-09-16T14:02:28Z</time>
      </trkpt>
      <trkpt lat="43.6686" lon="2.36649">
        <ele>544.4</ele>
        <time>2025-09-16T14:02:29Z</time>
      </trkpt>
      <trkpt lat="43.66859" lon="2.36651">
        <ele>544.6</ele>
        <time>2025-09-16T14:02:30Z</time>
      </trkpt>
      <trkpt lat="43.66858" lon="2.36653">
        <ele>544.6</ele>
        <time>2025-09-16T14:02:31Z</time>
      </trkpt>
      <trkpt lat="43.66858" lon="2.36656">
        <ele>544.8</ele>
        <time>2025-09-16T14:02:32Z</time>
      </trkpt>
      <trkpt lat="43.66857" lon="2.36657">
        <ele>545</ele>
        <time>2025-09-16T14:02:33Z</time>
      </trkpt>
      <trkpt lat="43.66857" lon="2.36659">
        <ele>545</ele>
        <time>2025-09-16T14:02:34Z</time>
      </trkpt>
      <trkpt lat="43.66856" lon="2.3666">
        <ele>545</ele>
        <time>2025-09-16T14:02:35Z</time>
      </trkpt>
      <trkpt lat="43.66855" lon="2.36662">
        <ele>545.2</ele>
        <time>2025-09-16T14:02:36Z</time>
      </trkpt>
      <trkpt lat="43.66855" lon="2.36664">
        <ele>545.2</ele>
        <time>2025-09-16T14:02:37Z</time>
      </trkpt>
      <trkpt lat="43.66854" lon="2.36665">
        <ele>545.4</ele>
        <time>2025-09-16T14:02:38Z</time>
      </trkpt>
      <trkpt lat="43.66853" lon="2.36667">
        <ele>545.4</ele>
        <time>2025-09-16T14:02:39Z</time>
      </trkpt>
      <trkpt lat="43.66852" lon="2.36669">
        <ele>545.4</ele>
        <time>2025-09-16T14:02:40Z</time>
      </trkpt>
      <trkpt lat="43.66851" lon="2.36671">
        <ele>545.6</ele>
        <time>2025-09-16T14:02:41Z</time>
      </trkpt>
      <trkpt lat="43.66851" lon="2.36673">
        <ele>545.6</ele>
        <time>2025-09-16T14:02:42Z</time>
      </trkpt>
      <trkpt lat="43.6685" lon="2.36675">
        <ele>545.6</ele>
        <time>2025-09-16T14:02:43Z</time>
      </trkpt>
      <trkpt lat="43.6685" lon="2.36678">
        <ele>545.8</ele>
        <time>2025-09-16T14:02:44Z</time>
      </trkpt>
      <trkpt lat="43.66849" lon="2.3668">
        <ele>545.8</ele>
        <time>2025-09-16T14:02:45Z</time>
      </trkpt>
      <trkpt lat="43.66849" lon="2.36682">
        <ele>545.8</ele>
        <time>2025-09-16T14:02:46Z</time>
      </trkpt>
      <trkpt lat="43.66848" lon="2.36684">
        <ele>546</ele>
        <time>2025-09-16T14:02:47Z</time>
      </trkpt>
      <trkpt lat="43.66848" lon="2.36686">
        <ele>546</ele>
        <time>2025-09-16T14:02:48Z</time>
      </trkpt>
      <trkpt lat="43.66847" lon="2.36688">
        <ele>546.2</ele>
        <time>2025-09-16T14:02:49Z</time>
      </trkpt>
      <trkpt lat="43.66847" lon="2.36689">
        <ele>546.2</ele>
        <time>2025-09-16T14:02:50Z</time>
      </trkpt>
      <trkpt lat="43.66846" lon="2.36691">
        <ele>546.4</ele>
        <time>2025-09-16T14:02:51Z</time>
      </trkpt>
      <trkpt lat="43.66846" lon="2.36693">
        <ele>546.4</ele>
        <time>2025-09-16T14:02:52Z</time>
      </trkpt>
      <trkpt lat="43.66845" lon="2.36695">
        <ele>546.6</ele>
        <time>2025-09-16T14:02:53Z</time>
      </trkpt>
      <trkpt lat="43.66845" lon="2.36696">
        <ele>546.6</ele>
        <time>2025-09-16T14:02:54Z</time>
      </trkpt>
      <trkpt lat="43.66845" lon="2.36698">
        <ele>546.8</ele>
        <time>2025-09-16T14:02:55Z</time>
      </trkpt>
      <trkpt lat="43.66845" lon="2.367">
        <ele>546.8</ele>
        <time>2025-09-16T14:02:56Z</time>
      </trkpt>
      <trkpt lat="43.66844" lon="2.36702">
        <ele>547</ele>
        <time>2025-09-16T14:02:57Z</time>
      </trkpt>
      <trkpt lat="43.66844" lon="2.36703">
        <ele>547.2</ele>
        <time>2025-09-16T14:02:58Z</time>
      </trkpt>
      <trkpt lat="43.66843" lon="2.36705">
        <ele>547.2</ele>
        <time>2025-09-16T14:02:59Z</time>
      </trkpt>
      <trkpt lat="43.66843" lon="2.36706">
        <ele>547.4</ele>
        <time>2025-09-16T14:03:00Z</time>
      </trkpt>
      <trkpt lat="43.66843" lon="2.36708">
        <ele>547.4</ele>
        <time>2025-09-16T14:03:01Z</time>
      </trkpt>
      <trkpt lat="43.66842" lon="2.3671">
        <ele>547.6</ele>
        <time>2025-09-16T14:03:02Z</time>
      </trkpt>
      <trkpt lat="43.66842" lon="2.36712">
        <ele>547.8</ele>
        <time>2025-09-16T14:03:03Z</time>
      </trkpt>
      <trkpt lat="43.66841" lon="2.36714">
        <ele>547.8</ele>
        <time>2025-09-16T14:03:04Z</time>
      </trkpt>
      <trkpt lat="43.66841" lon="2.36715">
        <ele>548</ele>
        <time>2025-09-16T14:03:05Z</time>
      </trkpt>
      <trkpt lat="43.6684" lon="2.36717">
        <ele>548.2</ele>
        <time>2025-09-16T14:03:06Z</time>
      </trkpt>
      <trkpt lat="43.6684" lon="2.36718">
        <ele>548.2</ele>
        <time>2025-09-16T14:03:07Z</time>
      </trkpt>
      <trkpt lat="43.66839" lon="2.36719">
        <ele>548.4</ele>
        <time>2025-09-16T14:03:08Z</time>
      </trkpt>
      <trkpt lat="43.66838" lon="2.3672">
        <ele>548.4</ele>
        <time>2025-09-16T14:03:09Z</time>
      </trkpt>
      <trkpt lat="43.66838" lon="2.36722">
        <ele>548.6</ele>
        <time>2025-09-16T14:03:10Z</time>
      </trkpt>
      <trkpt lat="43.66837" lon="2.36724">
        <ele>548.8</ele>
        <time>2025-09-16T14:03:11Z</time>
      </trkpt>
      <trkpt lat="43.66836" lon="2.36726">
        <ele>548.8</ele>
        <time>2025-09-16T14:03:12Z</time>
      </trkpt>
      <trkpt lat="43.66836" lon="2.36728">
        <ele>549</ele>
        <time>2025-09-16T14:03:13Z</time>
      </trkpt>
      <trkpt lat="43.66835" lon="2.36729">
        <ele>549</ele>
        <time>2025-09-16T14:03:14Z</time>
      </trkpt>
      <trkpt lat="43.66834" lon="2.36731">
        <ele>549.2</ele>
        <time>2025-09-16T14:03:15Z</time>
      </trkpt>
      <trkpt lat="43.66834" lon="2.36732">
        <ele>549.2</ele>
        <time>2025-09-16T14:03:16Z</time>
      </trkpt>
      <trkpt lat="43.66834" lon="2.36734">
        <ele>549.4</ele>
        <time>2025-09-16T14:03:17Z</time>
      </trkpt>
      <trkpt lat="43.66833" lon="2.36736">
        <ele>549.4</ele>
        <time>2025-09-16T14:03:18Z</time>
      </trkpt>
      <trkpt lat="43.66833" lon="2.36738">
        <ele>549.6</ele>
        <time>2025-09-16T14:03:19Z</time>
      </trkpt>
      <trkpt lat="43.66833" lon="2.3674">
        <ele>549.6</ele>
        <time>2025-09-16T14:03:20Z</time>
      </trkpt>
      <trkpt lat="43.66833" lon="2.36742">
        <ele>549.8</ele>
        <time>2025-09-16T14:03:21Z</time>
      </trkpt>
      <trkpt lat="43.66833" lon="2.36744">
        <ele>549.8</ele>
        <time>2025-09-16T14:03:22Z</time>
      </trkpt>
      <trkpt lat="43.66833" lon="2.36746">
        <ele>550</ele>
        <time>2025-09-16T14:03:23Z</time>
      </trkpt>
      <trkpt lat="43.66832" lon="2.36747">
        <ele>550</ele>
        <time>2025-09-16T14:03:24Z</time>
      </trkpt>
      <trkpt lat="43.66831" lon="2.36749">
        <ele>550</ele>
        <time>2025-09-16T14:03:25Z</time>
      </trkpt>
      <trkpt lat="43.66831" lon="2.36752">
        <ele>550.2</ele>
        <time>2025-09-16T14:03:26Z</time>
      </trkpt>
      <trkpt lat="43.66831" lon="2.36756">
        <ele>550.2</ele>
        <time>2025-09-16T14:03:27Z</time>
      </trkpt>
      <trkpt lat="43.66831" lon="2.36758">
        <ele>550.4</ele>
        <time>2025-09-16T14:03:28Z</time>
      </trkpt>
      <trkpt lat="43.6683" lon="2.3676">
        <ele>550.4</ele>
        <time>2025-09-16T14:03:29Z</time>
      </trkpt>
      <trkpt lat="43.6683" lon="2.36763">
        <ele>550.6</ele>
        <time>2025-09-16T14:03:30Z</time>
      </trkpt>
      <trkpt lat="43.6683" lon="2.36764">
        <ele>550.6</ele>
        <time>2025-09-16T14:03:31Z</time>
      </trkpt>
      <trkpt lat="43.6683" lon="2.36766">
        <ele>550.8</ele>
        <time>2025-09-16T14:03:32Z</time>
      </trkpt>
      <trkpt lat="43.66829" lon="2.36769">
        <ele>550.8</ele>
        <time>2025-09-16T14:03:33Z</time>
      </trkpt>
      <trkpt lat="43.66829" lon="2.36772">
        <ele>551</ele>
        <time>2025-09-16T14:03:34Z</time>
      </trkpt>
      <trkpt lat="43.66829" lon="2.36774">
        <ele>551</ele>
        <time>2025-09-16T14:03:35Z</time>
      </trkpt>
      <trkpt lat="43.66828" lon="2.36776">
        <ele>551.2</ele>
        <time>2025-09-16T14:03:36Z</time>
      </trkpt>
      <trkpt lat="43.66827" lon="2.36778">
        <ele>551.2</ele>
        <time>2025-09-16T14:03:37Z</time>
      </trkpt>
      <trkpt lat="43.66826" lon="2.3678">
        <ele>551.4</ele>
        <time>2025-09-16T14:03:38Z</time>
      </trkpt>
      <trkpt lat="43.66825" lon="2.36783">
        <ele>551.4</ele>
        <time>2025-09-16T14:03:39Z</time>
      </trkpt>
      <trkpt lat="43.66825" lon="2.36786">
        <ele>551.6</ele>
        <time>2025-09-16T14:03:40Z</time>
      </trkpt>
      <trkpt lat="43.66825" lon="2.36787">
        <ele>551.6</ele>
        <time>2025-09-16T14:03:41Z</time>
      </trkpt>
      <trkpt lat="43.66825" lon="2.36789">
        <ele>551.8</ele>
        <time>2025-09-16T14:03:42Z</time>
      </trkpt>
      <trkpt lat="43.66825" lon="2.36792">
        <ele>551.8</ele>
        <time>2025-09-16T14:03:43Z</time>
      </trkpt>
      <trkpt lat="43.66825" lon="2.36794">
        <ele>552</ele>
        <time>2025-09-16T14:03:44Z</time>
      </trkpt>
      <trkpt lat="43.66825" lon="2.36796">
        <ele>552</ele>
        <time>2025-09-16T14:03:45Z</time>
      </trkpt>
      <trkpt lat="43.66824" lon="2.36798">
        <ele>552.2</ele>
        <time>2025-09-16T14:03:46Z</time>
      </trkpt>
      <trkpt lat="43.66824" lon="2.368">
        <ele>552.2</ele>
        <time>2025-09-16T14:03:47Z</time>
      </trkpt>
      <trkpt lat="43.66823" lon="2.36802">
        <ele>552.4</ele>
        <time>2025-09-16T14:03:48Z</time>
      </trkpt>
      <trkpt lat="43.66823" lon="2.36804">
        <ele>552.4</ele>
        <time>2025-09-16T14:03:49Z</time>
      </trkpt>
      <trkpt lat="43.66822" lon="2.36806">
        <ele>552.6</ele>
        <time>2025-09-16T14:03:50Z</time>
      </trkpt>
      <trkpt lat="43.66822" lon="2.36808">
        <ele>552.6</ele>
        <time>2025-09-16T14:03:51Z</time>
      </trkpt>
      <trkpt lat="43.66822" lon="2.3681">
        <ele>552.8</ele>
        <time>2025-09-16T14:03:52Z</time>
      </trkpt>
      <trkpt lat="43.66821" lon="2.36812">
        <ele>553</ele>
        <time>2025-09-16T14:03:53Z</time>
      </trkpt>
      <trkpt lat="43.66821" lon="2.36814">
        <ele>553</ele>
        <time>2025-09-16T14:03:54Z</time>
      </trkpt>
      <trkpt lat="43.66821" lon="2.36815">
        <ele>553.2</ele>
        <time>2025-09-16T14:03:55Z</time>
      </trkpt>
      <trkpt lat="43.6682" lon="2.36817">
        <ele>553.2</ele>
        <time>2025-09-16T14:03:56Z</time>
      </trkpt>
      <trkpt lat="43.6682" lon="2.36819">
        <ele>553.4</ele>
        <time>2025-09-16T14:03:57Z</time>
      </trkpt>
      <trkpt lat="43.6682" lon="2.3682">
        <ele>553.4</ele>
        <time>2025-09-16T14:03:58Z</time>
      </trkpt>
      <trkpt lat="43.66819" lon="2.36822">
        <ele>553.6</ele>
        <time>2025-09-16T14:03:59Z</time>
      </trkpt>
      <trkpt lat="43.66819" lon="2.36823">
        <ele>553.6</ele>
        <time>2025-09-16T14:04:00Z</time>
      </trkpt>
      <trkpt lat="43.66819" lon="2.36824">
        <ele>553.8</ele>
        <time>2025-09-16T14:04:01Z</time>
      </trkpt>
      <trkpt lat="43.66818" lon="2.36826">
        <ele>554</ele>
        <time>2025-09-16T14:04:02Z</time>
      </trkpt>
      <trkpt lat="43.66818" lon="2.36827">
        <ele>554</ele>
        <time>2025-09-16T14:04:03Z</time>
      </trkpt>
      <trkpt lat="43.66817" lon="2.36829">
        <ele>554.2</ele>
        <time>2025-09-16T14:04:04Z</time>
      </trkpt>
      <trkpt lat="43.66816" lon="2.3683">
        <ele>554.4</ele>
        <time>2025-09-16T14:04:05Z</time>
      </trkpt>
      <trkpt lat="43.66816" lon="2.36832">
        <ele>554.6</ele>
        <time>2025-09-16T14:04:06Z</time>
      </trkpt>
      <trkpt lat="43.66816" lon="2.36834">
        <ele>554.8</ele>
        <time>2025-09-16T14:04:07Z</time>
      </trkpt>
      <trkpt lat="43.66816" lon="2.36836">
        <ele>555</ele>
        <time>2025-09-16T14:04:08Z</time>
      </trkpt>
      <trkpt lat="43.66816" lon="2.36839">
        <ele>555.2</ele>
        <time>2025-09-16T14:04:09Z</time>
      </trkpt>
      <trkpt lat="43.66816" lon="2.36841">
        <ele>555.4</ele>
        <time>2025-09-16T14:04:10Z</time>
      </trkpt>
      <trkpt lat="43.66815" lon="2.36843">
        <ele>555.6</ele>
        <time>2025-09-16T14:04:11Z</time>
      </trkpt>
      <trkpt lat="43.66814" lon="2.36844">
        <ele>555.8</ele>
        <time>2025-09-16T14:04:12Z</time>
      </trkpt>
      <trkpt lat="43.66813" lon="2.36845">
        <ele>556</ele>
        <time>2025-09-16T14:04:13Z</time>
      </trkpt>
      <trkpt lat="43.66812" lon="2.36846">
        <ele>556.2</ele>
        <time>2025-09-16T14:04:14Z</time>
      </trkpt>
      <trkpt lat="43.66811" lon="2.36847">
        <ele>556.4</ele>
        <time>2025-09-16T14:04:15Z</time>
      </trkpt>
      <trkpt lat="43.66809" lon="2.36847">
        <ele>556.6</ele>
        <time>2025-09-16T14:04:16Z</time>
      </trkpt>
      <trkpt lat="43.66808" lon="2.36846">
        <ele>556.8</ele>
        <time>2025-09-16T14:04:17Z</time>
      </trkpt>
      <trkpt lat="43.66808" lon="2.36845">
        <ele>557</ele>
        <time>2025-09-16T14:04:18Z</time>
      </trkpt>
      <trkpt lat="43.66807" lon="2.36843">
        <ele>557</ele>
        <time>2025-09-16T14:04:19Z</time>
      </trkpt>
      <trkpt lat="43.66806" lon="2.36841">
        <ele>557.2</ele>
        <time>2025-09-16T14:04:20Z</time>
      </trkpt>
      <trkpt lat="43.66807" lon="2.3684">
        <ele>557.2</ele>
        <time>2025-09-16T14:04:21Z</time>
      </trkpt>
      <trkpt lat="43.66807" lon="2.36838">
        <ele>557.2</ele>
        <time>2025-09-16T14:04:22Z</time>
      </trkpt>
      <trkpt lat="43.66807" lon="2.36836">
        <ele>557.4</ele>
        <time>2025-09-16T14:04:23Z</time>
      </trkpt>
      <trkpt lat="43.66808" lon="2.36834">
        <ele>557.4</ele>
        <time>2025-09-16T14:04:24Z</time>
      </trkpt>
      <trkpt lat="43.66808" lon="2.36832">
        <ele>557.4</ele>
        <time>2025-09-16T14:04:25Z</time>
      </trkpt>
      <trkpt lat="43.66808" lon="2.3683">
        <ele>557.6</ele>
        <time>2025-09-16T14:04:26Z</time>
      </trkpt>
      <trkpt lat="43.66808" lon="2.36828">
        <ele>557.6</ele>
        <time>2025-09-16T14:04:27Z</time>
      </trkpt>
      <trkpt lat="43.66808" lon="2.36827">
        <ele>557.6</ele>
        <time>2025-09-16T14:04:28Z</time>
      </trkpt>
      <trkpt lat="43.66808" lon="2.36825">
        <ele>557.8</ele>
        <time>2025-09-16T14:04:29Z</time>
      </trkpt>
      <trkpt lat="43.66807" lon="2.36823">
        <ele>557.8</ele>
        <time>2025-09-16T14:04:30Z</time>
      </trkpt>
      <trkpt lat="43.66807" lon="2.36821">
        <ele>557.8</ele>
        <time>2025-09-16T14:04:31Z</time>
      </trkpt>
      <trkpt lat="43.66806" lon="2.36819">
        <ele>558</ele>
        <time>2025-09-16T14:04:32Z</time>
      </trkpt>
      <trkpt lat="43.66803" lon="2.36816">
        <ele>558</ele>
        <time>2025-09-16T14:04:33Z</time>
      </trkpt>
      <trkpt lat="43.66802" lon="2.36814">
        <ele>558.2</ele>
        <time>2025-09-16T14:04:34Z</time>
      </trkpt>
      <trkpt lat="43.66802" lon="2.36813">
        <ele>558.4</ele>
        <time>2025-09-16T14:04:35Z</time>
      </trkpt>
      <trkpt lat="43.66801" lon="2.36812">
        <ele>558.8</ele>
        <time>2025-09-16T14:04:36Z</time>
      </trkpt>
      <trkpt lat="43.66801" lon="2.36811">
        <ele>559.2</ele>
        <time>2025-09-16T14:04:37Z</time>
      </trkpt>
      <trkpt lat="43.66801" lon="2.36809">
        <ele>559.4</ele>
        <time>2025-09-16T14:04:38Z</time>
      </trkpt>
      <trkpt lat="43.66801" lon="2.36806">
        <ele>559.8</ele>
        <time>2025-09-16T14:04:39Z</time>
      </trkpt>
      <trkpt lat="43.66801" lon="2.36804">
        <ele>560.2</ele>
        <time>2025-09-16T14:04:40Z</time>
      </trkpt>
      <trkpt lat="43.66801" lon="2.36801">
        <ele>560.4</ele>
        <time>2025-09-16T14:04:41Z</time>
      </trkpt>
      <trkpt lat="43.66801" lon="2.368">
        <ele>560.6</ele>
        <time>2025-09-16T14:04:42Z</time>
      </trkpt>
      <trkpt lat="43.66801" lon="2.36799">
        <ele>561</ele>
        <time>2025-09-16T14:04:43Z</time>
      </trkpt>
      <trkpt lat="43.668" lon="2.36798">
        <ele>561.2</ele>
        <time>2025-09-16T14:04:44Z</time>
      </trkpt>
      <trkpt lat="43.668" lon="2.36795">
        <ele>561.4</ele>
        <time>2025-09-16T14:04:45Z</time>
      </trkpt>
      <trkpt lat="43.668" lon="2.36794">
        <ele>561.4</ele>
        <time>2025-09-16T14:04:46Z</time>
      </trkpt>
      <trkpt lat="43.66799" lon="2.36792">
        <ele>561.6</ele>
        <time>2025-09-16T14:04:47Z</time>
      </trkpt>
      <trkpt lat="43.66799" lon="2.36791">
        <ele>561.8</ele>
        <time>2025-09-16T14:04:48Z</time>
      </trkpt>
      <trkpt lat="43.66799" lon="2.36789">
        <ele>562</ele>
        <time>2025-09-16T14:04:49Z</time>
      </trkpt>
      <trkpt lat="43.66798" lon="2.36787">
        <ele>562.2</ele>
        <time>2025-09-16T14:04:50Z</time>
      </trkpt>
      <trkpt lat="43.66798" lon="2.36786">
        <ele>562.4</ele>
        <time>2025-09-16T14:04:51Z</time>
      </trkpt>
      <trkpt lat="43.66797" lon="2.36784">
        <ele>562.6</ele>
        <time>2025-09-16T14:04:52Z</time>
      </trkpt>
      <trkpt lat="43.66797" lon="2.36782">
        <ele>562.8</ele>
        <time>2025-09-16T14:04:53Z</time>
      </trkpt>
      <trkpt lat="43.66797" lon="2.3678">
        <ele>563</ele>
        <time>2025-09-16T14:04:54Z</time>
      </trkpt>
      <trkpt lat="43.66797" lon="2.36777">
        <ele>563.2</ele>
        <time>2025-09-16T14:04:55Z</time>
      </trkpt>
      <trkpt lat="43.66797" lon="2.36776">
        <ele>563.2</ele>
        <time>2025-09-16T14:04:56Z</time>
      </trkpt>
      <trkpt lat="43.66796" lon="2.36774">
        <ele>563.4</ele>
        <time>2025-09-16T14:04:57Z</time>
      </trkpt>
      <trkpt lat="43.66794" lon="2.36772">
        <ele>563.4</ele>
        <time>2025-09-16T14:04:58Z</time>
      </trkpt>
      <trkpt lat="43.66794" lon="2.36771">
        <ele>563.6</ele>
        <time>2025-09-16T14:04:59Z</time>
      </trkpt>
      <trkpt lat="43.66794" lon="2.3677">
        <ele>563.8</ele>
        <time>2025-09-16T14:05:00Z</time>
      </trkpt>
      <trkpt lat="43.66778" lon="2.36644">
        <ele>574.4</ele>
        <time>2025-09-16T14:06:18Z</time>
      </trkpt>
      <trkpt lat="43.66777" lon="2.36643">
        <ele>574.4</ele>
        <time>2025-09-16T14:06:19Z</time>
      </trkpt>
      <trkpt lat="43.66775" lon="2.36643">
        <ele>574.6</ele>
        <time>2025-09-16T14:06:20Z</time>
      </trkpt>
      <trkpt lat="43.66774" lon="2.36643">
        <ele>574.8</ele>
        <time>2025-09-16T14:06:21Z</time>
      </trkpt>
      <trkpt lat="43.66774" lon="2.36644">
        <ele>574.8</ele>
        <time>2025-09-16T14:06:22Z</time>
      </trkpt>
      <trkpt lat="43.66773" lon="2.36645">
        <ele>575</ele>
        <time>2025-09-16T14:06:23Z</time>
      </trkpt>
      <trkpt lat="43.66773" lon="2.36647">
        <ele>575.2</ele>
        <time>2025-09-16T14:06:24Z</time>
      </trkpt>
      <trkpt lat="43.66773" lon="2.36649">
        <ele>575.2</ele>
        <time>2025-09-16T14:06:25Z</time>
      </trkpt>
      <trkpt lat="43.66773" lon="2.36651">
        <ele>575.4</ele>
        <time>2025-09-16T14:06:26Z</time>
      </trkpt>
      <trkpt lat="43.66772" lon="2.36653">
        <ele>575.4</ele>
        <time>2025-09-16T14:06:27Z</time>
      </trkpt>
      <trkpt lat="43.66771" lon="2.36655">
        <ele>575.4</ele>
        <time>2025-09-16T14:06:28Z</time>
      </trkpt>
      <trkpt lat="43.66771" lon="2.36656">
        <ele>575.6</ele>
        <time>2025-09-16T14:06:29Z</time>
      </trkpt>
      <trkpt lat="43.6677" lon="2.36658">
        <ele>575.6</ele>
        <time>2025-09-16T14:06:30Z</time>
      </trkpt>
      <trkpt lat="43.66769" lon="2.3666">
        <ele>575.6</ele>
        <time>2025-09-16T14:06:31Z</time>
      </trkpt>
      <trkpt lat="43.66769" lon="2.36662">
        <ele>575.8</ele>
        <time>2025-09-16T14:06:32Z</time>
      </trkpt>
      <trkpt lat="43.66768" lon="2.36664">
        <ele>575.8</ele>
        <time>2025-09-16T14:06:33Z</time>
      </trkpt>
      <trkpt lat="43.66767" lon="2.36666">
        <ele>576</ele>
        <time>2025-09-16T14:06:34Z</time>
      </trkpt>
      <trkpt lat="43.66766" lon="2.36668">
        <ele>576.2</ele>
        <time>2025-09-16T14:06:35Z</time>
      </trkpt>
      <trkpt lat="43.66766" lon="2.3667">
        <ele>576.2</ele>
        <time>2025-09-16T14:06:36Z</time>
      </trkpt>
      <trkpt lat="43.66765" lon="2.36672">
        <ele>576.4</ele>
        <time>2025-09-16T14:06:37Z</time>
      </trkpt>
      <trkpt lat="43.66764" lon="2.36674">
        <ele>576.4</ele>
        <time>2025-09-16T14:06:38Z</time>
      </trkpt>
      <trkpt lat="43.66763" lon="2.36676">
        <ele>576.6</ele>
        <time>2025-09-16T14:06:39Z</time>
      </trkpt>
      <trkpt lat="43.66762" lon="2.36678">
        <ele>576.8</ele>
        <time>2025-09-16T14:06:40Z</time>
      </trkpt>
      <trkpt lat="43.66761" lon="2.3668">
        <ele>576.8</ele>
        <time>2025-09-16T14:06:41Z</time>
      </trkpt>
      <trkpt lat="43.6676" lon="2.36682">
        <ele>576.8</ele>
        <time>2025-09-16T14:06:42Z</time>
      </trkpt>
      <trkpt lat="43.66759" lon="2.36683">
        <ele>577</ele>
        <time>2025-09-16T14:06:43Z</time>
      </trkpt>
      <trkpt lat="43.66759" lon="2.36684">
        <ele>577</ele>
        <time>2025-09-16T14:06:44Z</time>
      </trkpt>
      <trkpt lat="43.66758" lon="2.36686">
        <ele>577.2</ele>
        <time>2025-09-16T14:06:45Z</time>
      </trkpt>
      <trkpt lat="43.66757" lon="2.36688">
        <ele>577.2</ele>
        <time>2025-09-16T14:06:46Z</time>
      </trkpt>
      <trkpt lat="43.66756" lon="2.36689">
        <ele>577.4</ele>
        <time>2025-09-16T14:06:47Z</time>
      </trkpt>
      <trkpt lat="43.66756" lon="2.3669">
        <ele>577.6</ele>
        <time>2025-09-16T14:06:48Z</time>
      </trkpt>
      <trkpt lat="43.66755" lon="2.36692">
        <ele>577.6</ele>
        <time>2025-09-16T14:06:49Z</time>
      </trkpt>
      <trkpt lat="43.66754" lon="2.36694">
        <ele>577.8</ele>
        <time>2025-09-16T14:06:50Z</time>
      </trkpt>
      <trkpt lat="43.66753" lon="2.36695">
        <ele>577.8</ele>
        <time>2025-09-16T14:06:51Z</time>
      </trkpt>
      <trkpt lat="43.66753" lon="2.36696">
        <ele>577.8</ele>
        <time>2025-09-16T14:06:52Z</time>
      </trkpt>
      <trkpt lat="43.66752" lon="2.36698">
        <ele>578</ele>
        <time>2025-09-16T14:06:53Z</time>
      </trkpt>
      <trkpt lat="43.66751" lon="2.367">
        <ele>578.2</ele>
        <time>2025-09-16T14:06:54Z</time>
      </trkpt>
      <trkpt lat="43.6675" lon="2.36701">
        <ele>578.2</ele>
        <time>2025-09-16T14:06:55Z</time>
      </trkpt>
      <trkpt lat="43.66749" lon="2.36703">
        <ele>578.4</ele>
        <time>2025-09-16T14:06:56Z</time>
      </trkpt>
      <trkpt lat="43.66748" lon="2.36705">
        <ele>578.4</ele>
        <time>2025-09-16T14:06:57Z</time>
      </trkpt>
      <trkpt lat="43.66748" lon="2.36706">
        <ele>578.6</ele>
        <time>2025-09-16T14:06:58Z</time>
      </trkpt>
      <trkpt lat="43.66747" lon="2.36708">
        <ele>578.8</ele>
        <time>2025-09-16T14:06:59Z</time>
      </trkpt>
      <trkpt lat="43.66746" lon="2.3671">
        <ele>578.8</ele>
        <time>2025-09-16T14:07:00Z</time>
      </trkpt>
      <trkpt lat="43.66745" lon="2.36711">
        <ele>579</ele>
        <time>2025-09-16T14:07:01Z</time>
      </trkpt>
      <trkpt lat="43.66744" lon="2.36713">
        <ele>579.2</ele>
        <time>2025-09-16T14:07:02Z</time>
      </trkpt>
      <trkpt lat="43.66744" lon="2.36715">
        <ele>579.2</ele>
        <time>2025-09-16T14:07:03Z</time>
      </trkpt>
      <trkpt lat="43.66743" lon="2.36716">
        <ele>579.4</ele>
        <time>2025-09-16T14:07:04Z</time>
      </trkpt>
      <trkpt lat="43.66742" lon="2.36718">
        <ele>579.6</ele>
        <time>2025-09-16T14:07:05Z</time>
      </trkpt>
      <trkpt lat="43.66741" lon="2.36719">
        <ele>579.8</ele>
        <time>2025-09-16T14:07:06Z</time>
      </trkpt>
      <trkpt lat="43.66741" lon="2.36721">
        <ele>579.8</ele>
        <time>2025-09-16T14:07:07Z</time>
      </trkpt>
      <trkpt lat="43.66739" lon="2.36722">
        <ele>580</ele>
        <time>2025-09-16T14:07:08Z</time>
      </trkpt>
      <trkpt lat="43.66738" lon="2.36724">
        <ele>580.2</ele>
        <time>2025-09-16T14:07:09Z</time>
      </trkpt>
      <trkpt lat="43.66737" lon="2.36725">
        <ele>580.4</ele>
        <time>2025-09-16T14:07:10Z</time>
      </trkpt>
      <trkpt lat="43.66737" lon="2.36727">
        <ele>580.6</ele>
        <time>2025-09-16T14:07:11Z</time>
      </trkpt>
      <trkpt lat="43.66737" lon="2.36729">
        <ele>580.6</ele>
        <time>2025-09-16T14:07:12Z</time>
      </trkpt>
      <trkpt lat="43.66736" lon="2.36731">
        <ele>580.8</ele>
        <time>2025-09-16T14:07:13Z</time>
      </trkpt>
      <trkpt lat="43.66735" lon="2.36733">
        <ele>581</ele>
        <time>2025-09-16T14:07:14Z</time>
      </trkpt>
      <trkpt lat="43.66734" lon="2.36734">
        <ele>581.2</ele>
        <time>2025-09-16T14:07:15Z</time>
      </trkpt>
      <trkpt lat="43.66733" lon="2.36736">
        <ele>581.2</ele>
        <time>2025-09-16T14:07:16Z</time>
      </trkpt>
      <trkpt lat="43.66733" lon="2.36737">
        <ele>581.4</ele>
        <time>2025-09-16T14:07:17Z</time>
      </trkpt>
      <trkpt lat="43.66733" lon="2.36739">
        <ele>581.6</ele>
        <time>2025-09-16T14:07:18Z</time>
      </trkpt>
      <trkpt lat="43.66733" lon="2.3674">
        <ele>581.6</ele>
        <time>2025-09-16T14:07:19Z</time>
      </trkpt>
      <trkpt lat="43.66732" lon="2.36742">
        <ele>581.8</ele>
        <time>2025-09-16T14:07:20Z</time>
      </trkpt>
      <trkpt lat="43.66732" lon="2.36743">
        <ele>582</ele>
        <time>2025-09-16T14:07:21Z</time>
      </trkpt>
      <trkpt lat="43.66731" lon="2.36745">
        <ele>582</ele>
        <time>2025-09-16T14:07:22Z</time>
      </trkpt>
      <trkpt lat="43.6673" lon="2.36746">
        <ele>582.2</ele>
        <time>2025-09-16T14:07:23Z</time>
      </trkpt>
      <trkpt lat="43.66729" lon="2.36747">
        <ele>582.4</ele>
        <time>2025-09-16T14:07:24Z</time>
      </trkpt>
      <trkpt lat="43.66728" lon="2.36747">
        <ele>582.6</ele>
        <time>2025-09-16T14:07:25Z</time>
      </trkpt>
      <trkpt lat="43.66728" lon="2.36749">
        <ele>582.6</ele>
        <time>2025-09-16T14:07:26Z</time>
      </trkpt>
      <trkpt lat="43.66727" lon="2.36751">
        <ele>582.8</ele>
        <time>2025-09-16T14:07:27Z</time>
      </trkpt>
      <trkpt lat="43.66726" lon="2.36752">
        <ele>583</ele>
        <time>2025-09-16T14:07:28Z</time>
      </trkpt>
      <trkpt lat="43.66725" lon="2.36754">
        <ele>583</ele>
        <time>2025-09-16T14:07:29Z</time>
      </trkpt>
      <trkpt lat="43.66724" lon="2.36755">
        <ele>583.2</ele>
        <time>2025-09-16T14:07:30Z</time>
      </trkpt>
      <trkpt lat="43.66723" lon="2.36757">
        <ele>583.4</ele>
        <time>2025-09-16T14:07:31Z</time>
      </trkpt>
      <trkpt lat="43.66722" lon="2.36758">
        <ele>583.4</ele>
        <time>2025-09-16T14:07:32Z</time>
      </trkpt>
      <trkpt lat="43.66721" lon="2.3676">
        <ele>583.6</ele>
        <time>2025-09-16T14:07:33Z</time>
      </trkpt>
      <trkpt lat="43.6672" lon="2.36761">
        <ele>583.8</ele>
        <time>2025-09-16T14:07:34Z</time>
      </trkpt>
      <trkpt lat="43.6672" lon="2.36763">
        <ele>584</ele>
        <time>2025-09-16T14:07:35Z</time>
      </trkpt>
      <trkpt lat="43.66718" lon="2.36764">
        <ele>584.2</ele>
        <time>2025-09-16T14:07:36Z</time>
      </trkpt>
      <trkpt lat="43.66717" lon="2.36766">
        <ele>584.4</ele>
        <time>2025-09-16T14:07:37Z</time>
      </trkpt>
      <trkpt lat="43.66716" lon="2.36768">
        <ele>584.4</ele>
        <time>2025-09-16T14:07:38Z</time>
      </trkpt>
      <trkpt lat="43.66715" lon="2.36769">
        <ele>584.6</ele>
        <time>2025-09-16T14:07:39Z</time>
      </trkpt>
      <trkpt lat="43.66714" lon="2.36771">
        <ele>584.8</ele>
        <time>2025-09-16T14:07:40Z</time>
      </trkpt>
      <trkpt lat="43.66714" lon="2.36772">
        <ele>585</ele>
        <time>2025-09-16T14:07:41Z</time>
      </trkpt>
      <trkpt lat="43.66713" lon="2.36773">
        <ele>585</ele>
        <time>2025-09-16T14:07:42Z</time>
      </trkpt>
      <trkpt lat="43.66712" lon="2.36774">
        <ele>585.2</ele>
        <time>2025-09-16T14:07:43Z</time>
      </trkpt>
      <trkpt lat="43.66711" lon="2.36775">
        <ele>585.4</ele>
        <time>2025-09-16T14:07:44Z</time>
      </trkpt>
      <trkpt lat="43.6671" lon="2.36777">
        <ele>585.4</ele>
        <time>2025-09-16T14:07:45Z</time>
      </trkpt>
      <trkpt lat="43.66709" lon="2.36779">
        <ele>585.6</ele>
        <time>2025-09-16T14:07:46Z</time>
      </trkpt>
      <trkpt lat="43.66708" lon="2.3678">
        <ele>585.8</ele>
        <time>2025-09-16T14:07:47Z</time>
      </trkpt>
      <trkpt lat="43.66708" lon="2.36782">
        <ele>585.8</ele>
        <time>2025-09-16T14:07:48Z</time>
      </trkpt>
      <trkpt lat="43.66707" lon="2.36783">
        <ele>586</ele>
        <time>2025-09-16T14:07:49Z</time>
      </trkpt>
      <trkpt lat="43.66706" lon="2.36785">
        <ele>586</ele>
        <time>2025-09-16T14:07:50Z</time>
      </trkpt>
      <trkpt lat="43.66705" lon="2.36786">
        <ele>586.2</ele>
        <time>2025-09-16T14:07:51Z</time>
      </trkpt>
      <trkpt lat="43.66704" lon="2.36788">
        <ele>586.2</ele>
        <time>2025-09-16T14:07:52Z</time>
      </trkpt>
      <trkpt lat="43.66704" lon="2.3679">
        <ele>586.4</ele>
        <time>2025-09-16T14:07:53Z</time>
      </trkpt>
      <trkpt lat="43.66703" lon="2.36791">
        <ele>586.6</ele>
        <time>2025-09-16T14:07:54Z</time>
      </trkpt>
      <trkpt lat="43.66702" lon="2.36793">
        <ele>586.8</ele>
        <time>2025-09-16T14:07:55Z</time>
      </trkpt>
      <trkpt lat="43.66701" lon="2.36794">
        <ele>586.8</ele>
        <time>2025-09-16T14:07:56Z</time>
      </trkpt>
      <trkpt lat="43.66701" lon="2.36795">
        <ele>587</ele>
        <time>2025-09-16T14:07:57Z</time>
      </trkpt>
      <trkpt lat="43.667" lon="2.36797">
        <ele>587</ele>
        <time>2025-09-16T14:07:58Z</time>
      </trkpt>
      <trkpt lat="43.66699" lon="2.36799">
        <ele>587.2</ele>
        <time>2025-09-16T14:07:59Z</time>
      </trkpt>
      <trkpt lat="43.66698" lon="2.368">
        <ele>587.4</ele>
        <time>2025-09-16T14:08:00Z</time>
      </trkpt>
      <trkpt lat="43.66697" lon="2.36802">
        <ele>587.6</ele>
        <time>2025-09-16T14:08:01Z</time>
      </trkpt>
      <trkpt lat="43.66697" lon="2.36803">
        <ele>587.6</ele>
        <time>2025-09-16T14:08:02Z</time>
      </trkpt>
      <trkpt lat="43.66696" lon="2.36805">
        <ele>587.8</ele>
        <time>2025-09-16T14:08:03Z</time>
      </trkpt>
      <trkpt lat="43.66695" lon="2.36806">
        <ele>588</ele>
        <time>2025-09-16T14:08:04Z</time>
      </trkpt>
      <trkpt lat="43.66694" lon="2.36808">
        <ele>588</ele>
        <time>2025-09-16T14:08:05Z</time>
      </trkpt>
      <trkpt lat="43.66693" lon="2.36809">
        <ele>588.2</ele>
        <time>2025-09-16T14:08:06Z</time>
      </trkpt>
      <trkpt lat="43.66693" lon="2.36811">
        <ele>588.4</ele>
        <time>2025-09-16T14:08:07Z</time>
      </trkpt>
      <trkpt lat="43.66692" lon="2.36812">
        <ele>588.4</ele>
        <time>2025-09-16T14:08:08Z</time>
      </trkpt>
      <trkpt lat="43.66691" lon="2.36813">
        <ele>588.6</ele>
        <time>2025-09-16T14:08:09Z</time>
      </trkpt>
      <trkpt lat="43.6669" lon="2.36814">
        <ele>588.6</ele>
        <time>2025-09-16T14:08:10Z</time>
      </trkpt>
      <trkpt lat="43.6669" lon="2.36816">
        <ele>588.8</ele>
        <time>2025-09-16T14:08:11Z</time>
      </trkpt>
      <trkpt lat="43.66689" lon="2.36818">
        <ele>589</ele>
        <time>2025-09-16T14:08:12Z</time>
      </trkpt>
      <trkpt lat="43.66688" lon="2.36819">
        <ele>589</ele>
        <time>2025-09-16T14:08:13Z</time>
      </trkpt>
      <trkpt lat="43.66688" lon="2.36821">
        <ele>589.2</ele>
        <time>2025-09-16T14:08:14Z</time>
      </trkpt>
      <trkpt lat="43.66687" lon="2.36822">
        <ele>589.2</ele>
        <time>2025-09-16T14:08:15Z</time>
      </trkpt>
      <trkpt lat="43.66686" lon="2.36824">
        <ele>589.4</ele>
        <time>2025-09-16T14:08:16Z</time>
      </trkpt>
      <trkpt lat="43.66685" lon="2.36825">
        <ele>589.6</ele>
        <time>2025-09-16T14:08:17Z</time>
      </trkpt>
      <trkpt lat="43.66685" lon="2.36827">
        <ele>589.6</ele>
        <time>2025-09-16T14:08:18Z</time>
      </trkpt>
      <trkpt lat="43.66684" lon="2.36828">
        <ele>589.8</ele>
        <time>2025-09-16T14:08:19Z</time>
      </trkpt>
      <trkpt lat="43.66683" lon="2.3683">
        <ele>590</ele>
        <time>2025-09-16T14:08:20Z</time>
      </trkpt>
      <trkpt lat="43.66683" lon="2.36831">
        <ele>590</ele>
        <time>2025-09-16T14:08:21Z</time>
      </trkpt>
      <trkpt lat="43.66682" lon="2.36832">
        <ele>590.2</ele>
        <time>2025-09-16T14:08:22Z</time>
      </trkpt>
      <trkpt lat="43.66681" lon="2.36833">
        <ele>590.4</ele>
        <time>2025-09-16T14:08:23Z</time>
      </trkpt>
      <trkpt lat="43.6668" lon="2.36835">
        <ele>590.6</ele>
        <time>2025-09-16T14:08:24Z</time>
      </trkpt>
      <trkpt lat="43.6668" lon="2.36836">
        <ele>590.6</ele>
        <time>2025-09-16T14:08:25Z</time>
      </trkpt>
      <trkpt lat="43.66679" lon="2.36838">
        <ele>590.8</ele>
        <time>2025-09-16T14:08:26Z</time>
      </trkpt>
      <trkpt lat="43.66678" lon="2.36839">
        <ele>591</ele>
        <time>2025-09-16T14:08:27Z</time>
      </trkpt>
      <trkpt lat="43.66677" lon="2.3684">
        <ele>591</ele>
        <time>2025-09-16T14:08:28Z</time>
      </trkpt>
      <trkpt lat="43.66676" lon="2.36842">
        <ele>591.2</ele>
        <time>2025-09-16T14:08:29Z</time>
      </trkpt>
      <trkpt lat="43.66675" lon="2.36843">
        <ele>591.4</ele>
        <time>2025-09-16T14:08:30Z</time>
      </trkpt>
      <trkpt lat="43.66674" lon="2.36843">
        <ele>591.6</ele>
        <time>2025-09-16T14:08:31Z</time>
      </trkpt>
      <trkpt lat="43.66673" lon="2.36844">
        <ele>591.6</ele>
        <time>2025-09-16T14:08:32Z</time>
      </trkpt>
      <trkpt lat="43.66671" lon="2.36845">
        <ele>591.8</ele>
        <time>2025-09-16T14:08:33Z</time>
      </trkpt>
      <trkpt lat="43.66671" lon="2.36847">
        <ele>592</ele>
        <time>2025-09-16T14:08:34Z</time>
      </trkpt>
      <trkpt lat="43.6667" lon="2.36849">
        <ele>592</ele>
        <time>2025-09-16T14:08:35Z</time>
      </trkpt>
      <trkpt lat="43.66669" lon="2.3685">
        <ele>592.2</ele>
        <time>2025-09-16T14:08:36Z</time>
      </trkpt>
      <trkpt lat="43.66668" lon="2.36851">
        <ele>592.4</ele>
        <time>2025-09-16T14:08:37Z</time>
      </trkpt>
      <trkpt lat="43.66667" lon="2.36853">
        <ele>592.6</ele>
        <time>2025-09-16T14:08:38Z</time>
      </trkpt>
      <trkpt lat="43.66666" lon="2.36855">
        <ele>592.8</ele>
        <time>2025-09-16T14:08:39Z</time>
      </trkpt>
      <trkpt lat="43.66664" lon="2.36856">
        <ele>592.8</ele>
        <time>2025-09-16T14:08:40Z</time>
      </trkpt>
      <trkpt lat="43.66663" lon="2.36857">
        <ele>593</ele>
        <time>2025-09-16T14:08:41Z</time>
      </trkpt>
      <trkpt lat="43.66662" lon="2.36858">
        <ele>593.2</ele>
        <time>2025-09-16T14:08:42Z</time>
      </trkpt>
      <trkpt lat="43.66661" lon="2.36859">
        <ele>593.4</ele>
        <time>2025-09-16T14:08:43Z</time>
      </trkpt>
      <trkpt lat="43.6666" lon="2.36859">
        <ele>593.4</ele>
        <time>2025-09-16T14:08:44Z</time>
      </trkpt>
      <trkpt lat="43.66659" lon="2.3686">
        <ele>593.6</ele>
        <time>2025-09-16T14:08:45Z</time>
      </trkpt>
      <trkpt lat="43.66657" lon="2.36861">
        <ele>593.6</ele>
        <time>2025-09-16T14:08:46Z</time>
      </trkpt>
      <trkpt lat="43.66656" lon="2.36862">
        <ele>593.8</ele>
        <time>2025-09-16T14:08:47Z</time>
      </trkpt>
      <trkpt lat="43.66655" lon="2.36863">
        <ele>593.8</ele>
        <time>2025-09-16T14:08:48Z</time>
      </trkpt>
      <trkpt lat="43.66653" lon="2.36863">
        <ele>594</ele>
        <time>2025-09-16T14:08:49Z</time>
      </trkpt>
      <trkpt lat="43.66652" lon="2.36864">
        <ele>594</ele>
        <time>2025-09-16T14:08:50Z</time>
      </trkpt>
      <trkpt lat="43.66651" lon="2.36864">
        <ele>594.2</ele>
        <time>2025-09-16T14:08:51Z</time>
      </trkpt>
      <trkpt lat="43.6665" lon="2.36864">
        <ele>594.2</ele>
        <time>2025-09-16T14:08:52Z</time>
      </trkpt>
      <trkpt lat="43.66648" lon="2.36865">
        <ele>594.4</ele>
        <time>2025-09-16T14:08:53Z</time>
      </trkpt>
      <trkpt lat="43.66647" lon="2.36866">
        <ele>594.4</ele>
        <time>2025-09-16T14:08:54Z</time>
      </trkpt>
      <trkpt lat="43.66646" lon="2.36867">
        <ele>594.6</ele>
        <time>2025-09-16T14:08:55Z</time>
      </trkpt>
      <trkpt lat="43.66645" lon="2.36868">
        <ele>594.8</ele>
        <time>2025-09-16T14:08:56Z</time>
      </trkpt>
      <trkpt lat="43.66643" lon="2.36868">
        <ele>594.8</ele>
        <time>2025-09-16T14:08:57Z</time>
      </trkpt>
      <trkpt lat="43.66642" lon="2.36869">
        <ele>595</ele>
        <time>2025-09-16T14:08:58Z</time>
      </trkpt>
      <trkpt lat="43.6664" lon="2.36869">
        <ele>595.2</ele>
        <time>2025-09-16T14:08:59Z</time>
      </trkpt>
      <trkpt lat="43.66639" lon="2.3687">
        <ele>595.2</ele>
        <time>2025-09-16T14:09:00Z</time>
      </trkpt>
      <trkpt lat="43.66638" lon="2.36871">
        <ele>595.4</ele>
        <time>2025-09-16T14:09:01Z</time>
      </trkpt>
      <trkpt lat="43.66636" lon="2.36871">
        <ele>595.6</ele>
        <time>2025-09-16T14:09:02Z</time>
      </trkpt>
      <trkpt lat="43.66635" lon="2.36871">
        <ele>595.6</ele>
        <time>2025-09-16T14:09:03Z</time>
      </trkpt>
      <trkpt lat="43.66634" lon="2.36872">
        <ele>595.8</ele>
        <time>2025-09-16T14:09:04Z</time>
      </trkpt>
      <trkpt lat="43.66633" lon="2.36872">
        <ele>595.8</ele>
        <time>2025-09-16T14:09:05Z</time>
      </trkpt>
      <trkpt lat="43.66631" lon="2.36873">
        <ele>596</ele>
        <time>2025-09-16T14:09:06Z</time>
      </trkpt>
      <trkpt lat="43.6663" lon="2.36873">
        <ele>596</ele>
        <time>2025-09-16T14:09:07Z</time>
      </trkpt>
      <trkpt lat="43.66628" lon="2.36873">
        <ele>596.2</ele>
        <time>2025-09-16T14:09:08Z</time>
      </trkpt>
      <trkpt lat="43.66627" lon="2.36874">
        <ele>596.2</ele>
        <time>2025-09-16T14:09:09Z</time>
      </trkpt>
      <trkpt lat="43.66626" lon="2.36874">
        <ele>596.4</ele>
        <time>2025-09-16T14:09:10Z</time>
      </trkpt>
      <trkpt lat="43.66624" lon="2.36874">
        <ele>596.6</ele>
        <time>2025-09-16T14:09:11Z</time>
      </trkpt>
      <trkpt lat="43.66623" lon="2.36874">
        <ele>596.6</ele>
        <time>2025-09-16T14:09:12Z</time>
      </trkpt>
      <trkpt lat="43.66622" lon="2.36874">
        <ele>596.8</ele>
        <time>2025-09-16T14:09:13Z</time>
      </trkpt>
      <trkpt lat="43.66621" lon="2.36875">
        <ele>597</ele>
        <time>2025-09-16T14:09:14Z</time>
      </trkpt>
      <trkpt lat="43.6662" lon="2.36875">
        <ele>597</ele>
        <time>2025-09-16T14:09:15Z</time>
      </trkpt>
      <trkpt lat="43.66618" lon="2.36874">
        <ele>597.2</ele>
        <time>2025-09-16T14:09:16Z</time>
      </trkpt>
      <trkpt lat="43.66617" lon="2.36875">
        <ele>597.2</ele>
        <time>2025-09-16T14:09:17Z</time>
      </trkpt>
      <trkpt lat="43.66616" lon="2.36875">
        <ele>597.4</ele>
        <time>2025-09-16T14:09:18Z</time>
      </trkpt>
      <trkpt lat="43.66614" lon="2.36875">
        <ele>597.6</ele>
        <time>2025-09-16T14:09:19Z</time>
      </trkpt>
      <trkpt lat="43.66613" lon="2.36875">
        <ele>597.6</ele>
        <time>2025-09-16T14:09:20Z</time>
      </trkpt>
      <trkpt lat="43.66611" lon="2.36875">
        <ele>597.8</ele>
        <time>2025-09-16T14:09:21Z</time>
      </trkpt>
      <trkpt lat="43.6661" lon="2.36875">
        <ele>597.8</ele>
        <time>2025-09-16T14:09:22Z</time>
      </trkpt>
      <trkpt lat="43.66608" lon="2.36876">
        <ele>598</ele>
        <time>2025-09-16T14:09:23Z</time>
      </trkpt>
      <trkpt lat="43.66606" lon="2.36876">
        <ele>598</ele>
        <time>2025-09-16T14:09:24Z</time>
      </trkpt>
      <trkpt lat="43.66605" lon="2.36876">
        <ele>598.2</ele>
        <time>2025-09-16T14:09:25Z</time>
      </trkpt>
      <trkpt lat="43.66605" lon="2.36876">
        <ele>598.4</ele>
        <time>2025-09-16T14:09:26Z</time>
      </trkpt>
      <trkpt lat="43.66604" lon="2.36876">
        <ele>598.4</ele>
        <time>2025-09-16T14:09:27Z</time>
      </trkpt>
      <trkpt lat="43.66602" lon="2.36876">
        <ele>598.6</ele>
        <time>2025-09-16T14:09:28Z</time>
      </trkpt>
      <trkpt lat="43.666" lon="2.36876">
        <ele>598.6</ele>
        <time>2025-09-16T14:09:29Z</time>
      </trkpt>
      <trkpt lat="43.66598" lon="2.36876">
        <ele>598.6</ele>
        <time>2025-09-16T14:09:30Z</time>
      </trkpt>
      <trkpt lat="43.66597" lon="2.36876">
        <ele>598.8</ele>
        <time>2025-09-16T14:09:31Z</time>
      </trkpt>
      <trkpt lat="43.66595" lon="2.36876">
        <ele>598.8</ele>
        <time>2025-09-16T14:09:32Z</time>
      </trkpt>
      <trkpt lat="43.66594" lon="2.36875">
        <ele>599</ele>
        <time>2025-09-16T14:09:33Z</time>
      </trkpt>
      <trkpt lat="43.66592" lon="2.36875">
        <ele>599.2</ele>
        <time>2025-09-16T14:09:34Z</time>
      </trkpt>
      <trkpt lat="43.6659" lon="2.36875">
        <ele>599.2</ele>
        <time>2025-09-16T14:09:35Z</time>
      </trkpt>
      <trkpt lat="43.66589" lon="2.36876">
        <ele>599.4</ele>
        <time>2025-09-16T14:09:36Z</time>
      </trkpt>
      <trkpt lat="43.66587" lon="2.36875">
        <ele>599.4</ele>
        <time>2025-09-16T14:09:37Z</time>
      </trkpt>
      <trkpt lat="43.66585" lon="2.36875">
        <ele>599.4</ele>
        <time>2025-09-16T14:09:38Z</time>
      </trkpt>
      <trkpt lat="43.66583" lon="2.36876">
        <ele>599.6</ele>
        <time>2025-09-16T14:09:39Z</time>
      </trkpt>
      <trkpt lat="43.66582" lon="2.36877">
        <ele>599.6</ele>
        <time>2025-09-16T14:09:40Z</time>
      </trkpt>
      <trkpt lat="43.6658" lon="2.36877">
        <ele>599.8</ele>
        <time>2025-09-16T14:09:41Z</time>
      </trkpt>
      <trkpt lat="43.66578" lon="2.36877">
        <ele>599.8</ele>
        <time>2025-09-16T14:09:42Z</time>
      </trkpt>
      <trkpt lat="43.66577" lon="2.36878">
        <ele>600</ele>
        <time>2025-09-16T14:09:43Z</time>
      </trkpt>
      <trkpt lat="43.66575" lon="2.36879">
        <ele>600</ele>
        <time>2025-09-16T14:09:44Z</time>
      </trkpt>
      <trkpt lat="43.66573" lon="2.36879">
        <ele>600</ele>
        <time>2025-09-16T14:09:45Z</time>
      </trkpt>
      <trkpt lat="43.66571" lon="2.3688">
        <ele>600.2</ele>
        <time>2025-09-16T14:09:46Z</time>
      </trkpt>
      <trkpt lat="43.66569" lon="2.3688">
        <ele>600.2</ele>
        <time>2025-09-16T14:09:47Z</time>
      </trkpt>
      <trkpt lat="43.66567" lon="2.3688">
        <ele>600.2</ele>
        <time>2025-09-16T14:09:48Z</time>
      </trkpt>
      <trkpt lat="43.66566" lon="2.3688">
        <ele>600.2</ele>
        <time>2025-09-16T14:09:49Z</time>
      </trkpt>
      <trkpt lat="43.66564" lon="2.36881">
        <ele>600.4</ele>
        <time>2025-09-16T14:09:50Z</time>
      </trkpt>
      <trkpt lat="43.66561" lon="2.36881">
        <ele>600.4</ele>
        <time>2025-09-16T14:09:51Z</time>
      </trkpt>
      <trkpt lat="43.66559" lon="2.36882">
        <ele>600.4</ele>
        <time>2025-09-16T14:09:52Z</time>
      </trkpt>
      <trkpt lat="43.66556" lon="2.36882">
        <ele>600.4</ele>
        <time>2025-09-16T14:09:53Z</time>
      </trkpt>
      <trkpt lat="43.66554" lon="2.36883">
        <ele>600.6</ele>
        <time>2025-09-16T14:09:54Z</time>
      </trkpt>
      <trkpt lat="43.66551" lon="2.36883">
        <ele>600.6</ele>
        <time>2025-09-16T14:09:55Z</time>
      </trkpt>
      <trkpt lat="43.66549" lon="2.36883">
        <ele>600.6</ele>
        <time>2025-09-16T14:09:56Z</time>
      </trkpt>
      <trkpt lat="43.66546" lon="2.36883">
        <ele>600.6</ele>
        <time>2025-09-16T14:09:57Z</time>
      </trkpt>
      <trkpt lat="43.66545" lon="2.36884">
        <ele>600.6</ele>
        <time>2025-09-16T14:09:58Z</time>
      </trkpt>
      <trkpt lat="43.66542" lon="2.36884">
        <ele>600.6</ele>
        <time>2025-09-16T14:09:59Z</time>
      </trkpt>
      <trkpt lat="43.6654" lon="2.36884">
        <ele>600.6</ele>
        <time>2025-09-16T14:10:00Z</time>
      </trkpt>
      <trkpt lat="43.66538" lon="2.36885">
        <ele>600.6</ele>
        <time>2025-09-16T14:10:01Z</time>
      </trkpt>
      <trkpt lat="43.66536" lon="2.36885">
        <ele>600.6</ele>
        <time>2025-09-16T14:10:02Z</time>
      </trkpt>
      <trkpt lat="43.66534" lon="2.36886">
        <ele>600.6</ele>
        <time>2025-09-16T14:10:03Z</time>
      </trkpt>
      <trkpt lat="43.66531" lon="2.36886">
        <ele>600.6</ele>
        <time>2025-09-16T14:10:04Z</time>
      </trkpt>
      <trkpt lat="43.66529" lon="2.36886">
        <ele>600.6</ele>
        <time>2025-09-16T14:10:05Z</time>
      </trkpt>
      <trkpt lat="43.66527" lon="2.36886">
        <ele>600.8</ele>
        <time>2025-09-16T14:10:06Z</time>
      </trkpt>
      <trkpt lat="43.66525" lon="2.36885">
        <ele>600.8</ele>
        <time>2025-09-16T14:10:07Z</time>
      </trkpt>
      <trkpt lat="43.66523" lon="2.36885">
        <ele>600.8</ele>
        <time>2025-09-16T14:10:08Z</time>
      </trkpt>
      <trkpt lat="43.66521" lon="2.36885">
        <ele>600.8</ele>
        <time>2025-09-16T14:10:09Z</time>
      </trkpt>
      <trkpt lat="43.66518" lon="2.36885">
        <ele>600.8</ele>
        <time>2025-09-16T14:10:10Z</time>
      </trkpt>
      <trkpt lat="43.66516" lon="2.36885">
        <ele>600.6</ele>
        <time>2025-09-16T14:10:11Z</time>
      </trkpt>
      <trkpt lat="43.66514" lon="2.36886">
        <ele>600.6</ele>
        <time>2025-09-16T14:10:12Z</time>
      </trkpt>
      <trkpt lat="43.66511" lon="2.36886">
        <ele>600.4</ele>
        <time>2025-09-16T14:10:13Z</time>
      </trkpt>
      <trkpt lat="43.66508" lon="2.36886">
        <ele>600.2</ele>
        <time>2025-09-16T14:10:14Z</time>
      </trkpt>
      <trkpt lat="43.66505" lon="2.36887">
        <ele>600</ele>
        <time>2025-09-16T14:10:15Z</time>
      </trkpt>
      <trkpt lat="43.66501" lon="2.36888">
        <ele>599.6</ele>
        <time>2025-09-16T14:10:16Z</time>
      </trkpt>
      <trkpt lat="43.66497" lon="2.3689">
        <ele>599.2</ele>
        <time>2025-09-16T14:10:17Z</time>
      </trkpt>
      <trkpt lat="43.66493" lon="2.36892">
        <ele>598.8</ele>
        <time>2025-09-16T14:10:18Z</time>
      </trkpt>
      <trkpt lat="43.66489" lon="2.36893">
        <ele>598.4</ele>
        <time>2025-09-16T14:10:19Z</time>
      </trkpt>
      <trkpt lat="43.66484" lon="2.36895">
        <ele>598.2</ele>
        <time>2025-09-16T14:10:20Z</time>
      </trkpt>
      <trkpt lat="43.66481" lon="2.36896">
        <ele>598</ele>
        <time>2025-09-16T14:10:21Z</time>
      </trkpt>
      <trkpt lat="43.66477" lon="2.36897">
        <ele>597.6</ele>
        <time>2025-09-16T14:10:22Z</time>
      </trkpt>
      <trkpt lat="43.66473" lon="2.36897">
        <ele>597.4</ele>
        <time>2025-09-16T14:10:23Z</time>
      </trkpt>
      <trkpt lat="43.66468" lon="2.36897">
        <ele>597.2</ele>
        <time>2025-09-16T14:10:24Z</time>
      </trkpt>
      <trkpt lat="43.66463" lon="2.36897">
        <ele>596.8</ele>
        <time>2025-09-16T14:10:25Z</time>
      </trkpt>
      <trkpt lat="43.66458" lon="2.36898">
        <ele>596.4</ele>
        <time>2025-09-16T14:10:26Z</time>
      </trkpt>
      <trkpt lat="43.66452" lon="2.369">
        <ele>596.2</ele>
        <time>2025-09-16T14:10:27Z</time>
      </trkpt>
      <trkpt lat="43.66447" lon="2.36902">
        <ele>595.8</ele>
        <time>2025-09-16T14:10:28Z</time>
      </trkpt>
      <trkpt lat="43.66442" lon="2.36904">
        <ele>595.6</ele>
        <time>2025-09-16T14:10:29Z</time>
      </trkpt>
      <trkpt lat="43.66436" lon="2.36906">
        <ele>595.4</ele>
        <time>2025-09-16T14:10:30Z</time>
      </trkpt>
      <trkpt lat="43.66431" lon="2.36908">
        <ele>595.2</ele>
        <time>2025-09-16T14:10:31Z</time>
      </trkpt>
      <trkpt lat="43.66426" lon="2.36909">
        <ele>595</ele>
        <time>2025-09-16T14:10:32Z</time>
      </trkpt>
      <trkpt lat="43.6642" lon="2.36908">
        <ele>594.6</ele>
        <time>2025-09-16T14:10:33Z</time>
      </trkpt>
      <trkpt lat="43.66415" lon="2.36909">
        <ele>594.6</ele>
        <time>2025-09-16T14:10:34Z</time>
      </trkpt>
      <trkpt lat="43.66409" lon="2.36907">
        <ele>594.2</ele>
        <time>2025-09-16T14:10:35Z</time>
      </trkpt>
      <trkpt lat="43.66403" lon="2.36905">
        <ele>594</ele>
        <time>2025-09-16T14:10:36Z</time>
      </trkpt>
      <trkpt lat="43.66397" lon="2.36905">
        <ele>593.8</ele>
        <time>2025-09-16T14:10:37Z</time>
      </trkpt>
      <trkpt lat="43.66391" lon="2.36906">
        <ele>593.8</ele>
        <time>2025-09-16T14:10:38Z</time>
      </trkpt>
      <trkpt lat="43.66386" lon="2.36907">
        <ele>593.6</ele>
        <time>2025-09-16T14:10:39Z</time>
      </trkpt>
      <trkpt lat="43.66382" lon="2.3691">
        <ele>593.6</ele>
        <time>2025-09-16T14:10:40Z</time>
      </trkpt>
      <trkpt lat="43.66378" lon="2.36912">
        <ele>593.6</ele>
        <time>2025-09-16T14:10:41Z</time>
      </trkpt>
      <trkpt lat="43.66376" lon="2.36915">
        <ele>593.6</ele>
        <time>2025-09-16T14:10:42Z</time>
      </trkpt>
      <trkpt lat="43.66373" lon="2.36917">
        <ele>593.8</ele>
        <time>2025-09-16T14:10:43Z</time>
      </trkpt>
      <trkpt lat="43.66371" lon="2.36918">
        <ele>594</ele>
        <time>2025-09-16T14:10:44Z</time>
      </trkpt>
      <trkpt lat="43.66368" lon="2.3692">
        <ele>594.2</ele>
        <time>2025-09-16T14:10:45Z</time>
      </trkpt>
      <trkpt lat="43.66365" lon="2.36921">
        <ele>594.2</ele>
        <time>2025-09-16T14:10:46Z</time>
      </trkpt>
      <trkpt lat="43.66363" lon="2.36923">
        <ele>594.4</ele>
        <time>2025-09-16T14:10:47Z</time>
      </trkpt>
      <trkpt lat="43.66361" lon="2.36925">
        <ele>594.4</ele>
        <time>2025-09-16T14:10:48Z</time>
      </trkpt>
      <trkpt lat="43.66359" lon="2.36928">
        <ele>594.4</ele>
        <time>2025-09-16T14:10:49Z</time>
      </trkpt>
      <trkpt lat="43.66356" lon="2.36931">
        <ele>594.2</ele>
        <time>2025-09-16T14:10:50Z</time>
      </trkpt>
      <trkpt lat="43.66354" lon="2.36935">
        <ele>594</ele>
        <time>2025-09-16T14:10:51Z</time>
      </trkpt>
      <trkpt lat="43.66353" lon="2.36938">
        <ele>594</ele>
        <time>2025-09-16T14:10:52Z</time>
      </trkpt>
      <trkpt lat="43.66351" lon="2.36942">
        <ele>593.8</ele>
        <time>2025-09-16T14:10:53Z</time>
      </trkpt>
      <trkpt lat="43.6635" lon="2.36946">
        <ele>593.6</ele>
        <time>2025-09-16T14:10:54Z</time>
      </trkpt>
      <trkpt lat="43.66349" lon="2.36951">
        <ele>593.4</ele>
        <time>2025-09-16T14:10:55Z</time>
      </trkpt>
      <trkpt lat="43.66348" lon="2.36956">
        <ele>593.4</ele>
        <time>2025-09-16T14:10:56Z</time>
      </trkpt>
      <trkpt lat="43.66348" lon="2.36961">
        <ele>593.2</ele>
        <time>2025-09-16T14:10:57Z</time>
      </trkpt>
      <trkpt lat="43.66347" lon="2.36965">
        <ele>593.2</ele>
        <time>2025-09-16T14:10:58Z</time>
      </trkpt>
      <trkpt lat="43.66345" lon="2.3697">
        <ele>593.2</ele>
        <time>2025-09-16T14:10:59Z</time>
      </trkpt>
      <trkpt lat="43.66344" lon="2.36974">
        <ele>593</ele>
        <time>2025-09-16T14:11:00Z</time>
      </trkpt>
      <trkpt lat="43.66343" lon="2.36978">
        <ele>593</ele>
        <time>2025-09-16T14:11:01Z</time>
      </trkpt>
      <trkpt lat="43.66342" lon="2.36982">
        <ele>593</ele>
        <time>2025-09-16T14:11:02Z</time>
      </trkpt>
      <trkpt lat="43.66341" lon="2.36986">
        <ele>593</ele>
        <time>2025-09-16T14:11:03Z</time>
      </trkpt>
      <trkpt lat="43.66339" lon="2.36991">
        <ele>592.8</ele>
        <time>2025-09-16T14:11:04Z</time>
      </trkpt>
      <trkpt lat="43.66338" lon="2.36995">
        <ele>592.8</ele>
        <time>2025-09-16T14:11:05Z</time>
      </trkpt>
      <trkpt lat="43.66336" lon="2.36998">
        <ele>592.8</ele>
        <time>2025-09-16T14:11:06Z</time>
      </trkpt>
      <trkpt lat="43.66335" lon="2.37001">
        <ele>592.8</ele>
        <time>2025-09-16T14:11:07Z</time>
      </trkpt>
      <trkpt lat="43.66334" lon="2.37005">
        <ele>592.8</ele>
        <time>2025-09-16T14:11:08Z</time>
      </trkpt>
      <trkpt lat="43.66332" lon="2.37009">
        <ele>592.8</ele>
        <time>2025-09-16T14:11:09Z</time>
      </trkpt>
      <trkpt lat="43.66331" lon="2.37013">
        <ele>592.8</ele>
        <time>2025-09-16T14:11:10Z</time>
      </trkpt>
      <trkpt lat="43.66331" lon="2.37017">
        <ele>592.8</ele>
        <time>2025-09-16T14:11:11Z</time>
      </trkpt>
      <trkpt lat="43.66331" lon="2.37021">
        <ele>592.8</ele>
        <time>2025-09-16T14:11:12Z</time>
      </trkpt>
      <trkpt lat="43.66329" lon="2.37027">
        <ele>592.8</ele>
        <time>2025-09-16T14:11:13Z</time>
      </trkpt>
      <trkpt lat="43.66328" lon="2.37032">
        <ele>592.6</ele>
        <time>2025-09-16T14:11:14Z</time>
      </trkpt>
      <trkpt lat="43.66327" lon="2.37038">
        <ele>592.6</ele>
        <time>2025-09-16T14:11:15Z</time>
      </trkpt>
      <trkpt lat="43.66327" lon="2.37043">
        <ele>592.6</ele>
        <time>2025-09-16T14:11:16Z</time>
      </trkpt>
      <trkpt lat="43.66328" lon="2.3705">
        <ele>592.4</ele>
        <time>2025-09-16T14:11:17Z</time>
      </trkpt>
      <trkpt lat="43.66327" lon="2.37055">
        <ele>592.4</ele>
        <time>2025-09-16T14:11:18Z</time>
      </trkpt>
      <trkpt lat="43.66325" lon="2.37061">
        <ele>592.4</ele>
        <time>2025-09-16T14:11:19Z</time>
      </trkpt>
      <trkpt lat="43.66325" lon="2.37065">
        <ele>592.2</ele>
        <time>2025-09-16T14:11:20Z</time>
      </trkpt>
      <trkpt lat="43.66325" lon="2.37071">
        <ele>592.2</ele>
        <time>2025-09-16T14:11:21Z</time>
      </trkpt>
      <trkpt lat="43.66325" lon="2.37075">
        <ele>592.2</ele>
        <time>2025-09-16T14:11:22Z</time>
      </trkpt>
      <trkpt lat="43.66324" lon="2.3708">
        <ele>592.2</ele>
        <time>2025-09-16T14:11:23Z</time>
      </trkpt>
      <trkpt lat="43.66323" lon="2.37086">
        <ele>592.2</ele>
        <time>2025-09-16T14:11:24Z</time>
      </trkpt>
      <trkpt lat="43.66322" lon="2.3709">
        <ele>592.2</ele>
        <time>2025-09-16T14:11:25Z</time>
      </trkpt>
      <trkpt lat="43.66321" lon="2.37095">
        <ele>592.2</ele>
        <time>2025-09-16T14:11:26Z</time>
      </trkpt>
      <trkpt lat="43.66321" lon="2.371">
        <ele>592.2</ele>
        <time>2025-09-16T14:11:27Z</time>
      </trkpt>
      <trkpt lat="43.66319" lon="2.37105">
        <ele>592.2</ele>
        <time>2025-09-16T14:11:28Z</time>
      </trkpt>
      <trkpt lat="43.66319" lon="2.37109">
        <ele>592.2</ele>
        <time>2025-09-16T14:11:29Z</time>
      </trkpt>
      <trkpt lat="43.66319" lon="2.37115">
        <ele>592.2</ele>
        <time>2025-09-16T14:11:30Z</time>
      </trkpt>
      <trkpt lat="43.66318" lon="2.3712">
        <ele>592</ele>
        <time>2025-09-16T14:11:31Z</time>
      </trkpt>
      <trkpt lat="43.66317" lon="2.37125">
        <ele>592</ele>
        <time>2025-09-16T14:11:32Z</time>
      </trkpt>
      <trkpt lat="43.66316" lon="2.3713">
        <ele>592</ele>
        <time>2025-09-16T14:11:33Z</time>
      </trkpt>
      <trkpt lat="43.66315" lon="2.37135">
        <ele>591.8</ele>
        <time>2025-09-16T14:11:34Z</time>
      </trkpt>
      <trkpt lat="43.66314" lon="2.37138">
        <ele>591.8</ele>
        <time>2025-09-16T14:11:35Z</time>
      </trkpt>
      <trkpt lat="43.66314" lon="2.37142">
        <ele>591.8</ele>
        <time>2025-09-16T14:11:36Z</time>
      </trkpt>
      <trkpt lat="43.66313" lon="2.37148">
        <ele>592</ele>
        <time>2025-09-16T14:11:37Z</time>
      </trkpt>
      <trkpt lat="43.66312" lon="2.37152">
        <ele>592</ele>
        <time>2025-09-16T14:11:38Z</time>
      </trkpt>
      <trkpt lat="43.66312" lon="2.37156">
        <ele>592</ele>
        <time>2025-09-16T14:11:39Z</time>
      </trkpt>
      <trkpt lat="43.66311" lon="2.3716">
        <ele>592</ele>
        <time>2025-09-16T14:11:40Z</time>
      </trkpt>
      <trkpt lat="43.66311" lon="2.37164">
        <ele>592</ele>
        <time>2025-09-16T14:11:41Z</time>
      </trkpt>
      <trkpt lat="43.66311" lon="2.37169">
        <ele>591.8</ele>
        <time>2025-09-16T14:11:42Z</time>
      </trkpt>
      <trkpt lat="43.6631" lon="2.37173">
        <ele>591.8</ele>
        <time>2025-09-16T14:11:43Z</time>
      </trkpt>
      <trkpt lat="43.6631" lon="2.37177">
        <ele>591.8</ele>
        <time>2025-09-16T14:11:44Z</time>
      </trkpt>
      <trkpt lat="43.66309" lon="2.37182">
        <ele>591.8</ele>
        <time>2025-09-16T14:11:45Z</time>
      </trkpt>
      <trkpt lat="43.66309" lon="2.37187">
        <ele>591.8</ele>
        <time>2025-09-16T14:11:46Z</time>
      </trkpt>
      <trkpt lat="43.66309" lon="2.37193">
        <ele>591.6</ele>
        <time>2025-09-16T14:11:47Z</time>
      </trkpt>
      <trkpt lat="43.66308" lon="2.37197">
        <ele>591.6</ele>
        <time>2025-09-16T14:11:48Z</time>
      </trkpt>
      <trkpt lat="43.66307" lon="2.37201">
        <ele>591.6</ele>
        <time>2025-09-16T14:11:49Z</time>
      </trkpt>
      <trkpt lat="43.66306" lon="2.37204">
        <ele>591.6</ele>
        <time>2025-09-16T14:11:50Z</time>
      </trkpt>
      <trkpt lat="43.66306" lon="2.37208">
        <ele>591.6</ele>
        <time>2025-09-16T14:11:51Z</time>
      </trkpt>
      <trkpt lat="43.66306" lon="2.37211">
        <ele>591.8</ele>
        <time>2025-09-16T14:11:52Z</time>
      </trkpt>
      <trkpt lat="43.66305" lon="2.37213">
        <ele>591.8</ele>
        <time>2025-09-16T14:11:53Z</time>
      </trkpt>
      <trkpt lat="43.66304" lon="2.37216">
        <ele>591.8</ele>
        <time>2025-09-16T14:11:54Z</time>
      </trkpt>
      <trkpt lat="43.66302" lon="2.37219">
        <ele>592</ele>
        <time>2025-09-16T14:11:55Z</time>
      </trkpt>
      <trkpt lat="43.66301" lon="2.37222">
        <ele>592</ele>
        <time>2025-09-16T14:11:56Z</time>
      </trkpt>
      <trkpt lat="43.66299" lon="2.37224">
        <ele>592</ele>
        <time>2025-09-16T14:11:57Z</time>
      </trkpt>
      <trkpt lat="43.66296" lon="2.37227">
        <ele>592.2</ele>
        <time>2025-09-16T14:11:58Z</time>
      </trkpt>
      <trkpt lat="43.66294" lon="2.3723">
        <ele>592.2</ele>
        <time>2025-09-16T14:11:59Z</time>
      </trkpt>
      <trkpt lat="43.66292" lon="2.37233">
        <ele>592.2</ele>
        <time>2025-09-16T14:12:00Z</time>
      </trkpt>
      <trkpt lat="43.6629" lon="2.37237">
        <ele>592.4</ele>
        <time>2025-09-16T14:12:01Z</time>
      </trkpt>
      <trkpt lat="43.66287" lon="2.3724">
        <ele>592.4</ele>
        <time>2025-09-16T14:12:02Z</time>
      </trkpt>
      <trkpt lat="43.66285" lon="2.37242">
        <ele>592.4</ele>
        <time>2025-09-16T14:12:03Z</time>
      </trkpt>
      <trkpt lat="43.66282" lon="2.37244">
        <ele>592.6</ele>
        <time>2025-09-16T14:12:04Z</time>
      </trkpt>
      <trkpt lat="43.66279" lon="2.37245">
        <ele>592.8</ele>
        <time>2025-09-16T14:12:05Z</time>
      </trkpt>
      <trkpt lat="43.66278" lon="2.37246">
        <ele>593</ele>
        <time>2025-09-16T14:12:06Z</time>
      </trkpt>
      <trkpt lat="43.66277" lon="2.37247">
        <ele>593.2</ele>
        <time>2025-09-16T14:12:07Z</time>
      </trkpt>
      <trkpt lat="43.66276" lon="2.37249">
        <ele>593.4</ele>
        <time>2025-09-16T14:12:08Z</time>
      </trkpt>
      <trkpt lat="43.66274" lon="2.37251">
        <ele>593.4</ele>
        <time>2025-09-16T14:12:09Z</time>
      </trkpt>
      <trkpt lat="43.66272" lon="2.37254">
        <ele>593.4</ele>
        <time>2025-09-16T14:12:10Z</time>
      </trkpt>
      <trkpt lat="43.6627" lon="2.37258">
        <ele>593.6</ele>
        <time>2025-09-16T14:12:11Z</time>
      </trkpt>
      <trkpt lat="43.66268" lon="2.37261">
        <ele>593.8</ele>
        <time>2025-09-16T14:12:12Z</time>
      </trkpt>
      <trkpt lat="43.66266" lon="2.37265">
        <ele>593.8</ele>
        <time>2025-09-16T14:12:13Z</time>
      </trkpt>
      <trkpt lat="43.66264" lon="2.37269">
        <ele>594</ele>
        <time>2025-09-16T14:12:14Z</time>
      </trkpt>
      <trkpt lat="43.66263" lon="2.3727">
        <ele>594</ele>
        <time>2025-09-16T14:12:15Z</time>
      </trkpt>
      <trkpt lat="43.6626" lon="2.37271">
        <ele>594</ele>
        <time>2025-09-16T14:12:16Z</time>
      </trkpt>
      <trkpt lat="43.66259" lon="2.37272">
        <ele>594</ele>
        <time>2025-09-16T14:12:17Z</time>
      </trkpt>
      <trkpt lat="43.66258" lon="2.37271">
        <ele>594</ele>
        <time>2025-09-16T14:12:18Z</time>
      </trkpt>
      <trkpt lat="43.66256" lon="2.37271">
        <ele>594.2</ele>
        <time>2025-09-16T14:12:19Z</time>
      </trkpt>
      <trkpt lat="43.66255" lon="2.37271">
        <ele>594.2</ele>
        <time>2025-09-16T14:12:20Z</time>
      </trkpt>
      <trkpt lat="43.66253" lon="2.37271">
        <ele>594.2</ele>
        <time>2025-09-16T14:12:21Z</time>
      </trkpt>
      <trkpt lat="43.66251" lon="2.37273">
        <ele>594.2</ele>
        <time>2025-09-16T14:12:22Z</time>
      </trkpt>
      <trkpt lat="43.66249" lon="2.37276">
        <ele>594.2</ele>
        <time>2025-09-16T14:12:23Z</time>
      </trkpt>
      <trkpt lat="43.66248" lon="2.3728">
        <ele>594.2</ele>
        <time>2025-09-16T14:12:24Z</time>
      </trkpt>
      <trkpt lat="43.66246" lon="2.37282">
        <ele>594.2</ele>
        <time>2025-09-16T14:12:25Z</time>
      </trkpt>
      <trkpt lat="43.66245" lon="2.37284">
        <ele>594.4</ele>
        <time>2025-09-16T14:12:26Z</time>
      </trkpt>
      <trkpt lat="43.66244" lon="2.37286">
        <ele>594.4</ele>
        <time>2025-09-16T14:12:27Z</time>
      </trkpt>
      <trkpt lat="43.66242" lon="2.37287">
        <ele>594.6</ele>
        <time>2025-09-16T14:12:28Z</time>
      </trkpt>
      <trkpt lat="43.66241" lon="2.37289">
        <ele>594.6</ele>
        <time>2025-09-16T14:12:29Z</time>
      </trkpt>
      <trkpt lat="43.66239" lon="2.37291">
        <ele>594.8</ele>
        <time>2025-09-16T14:12:30Z</time>
      </trkpt>
      <trkpt lat="43.66237" lon="2.37294">
        <ele>594.8</ele>
        <time>2025-09-16T14:12:31Z</time>
      </trkpt>
      <trkpt lat="43.66235" lon="2.37296">
        <ele>595</ele>
        <time>2025-09-16T14:12:32Z</time>
      </trkpt>
      <trkpt lat="43.66235" lon="2.373">
        <ele>595</ele>
        <time>2025-09-16T14:12:33Z</time>
      </trkpt>
      <trkpt lat="43.66234" lon="2.37303">
        <ele>595.2</ele>
        <time>2025-09-16T14:12:34Z</time>
      </trkpt>
      <trkpt lat="43.66233" lon="2.37306">
        <ele>595.2</ele>
        <time>2025-09-16T14:12:35Z</time>
      </trkpt>
      <trkpt lat="43.66231" lon="2.37308">
        <ele>595.4</ele>
        <time>2025-09-16T14:12:36Z</time>
      </trkpt>
      <trkpt lat="43.66229" lon="2.37311">
        <ele>595.4</ele>
        <time>2025-09-16T14:12:37Z</time>
      </trkpt>
      <trkpt lat="43.66227" lon="2.37314">
        <ele>595.4</ele>
        <time>2025-09-16T14:12:38Z</time>
      </trkpt>
      <trkpt lat="43.66225" lon="2.37318">
        <ele>595.6</ele>
        <time>2025-09-16T14:12:39Z</time>
      </trkpt>
      <trkpt lat="43.66224" lon="2.37321">
        <ele>595.6</ele>
        <time>2025-09-16T14:12:40Z</time>
      </trkpt>
      <trkpt lat="43.66223" lon="2.37325">
        <ele>595.8</ele>
        <time>2025-09-16T14:12:41Z</time>
      </trkpt>
      <trkpt lat="43.66222" lon="2.37328">
        <ele>596</ele>
        <time>2025-09-16T14:12:42Z</time>
      </trkpt>
      <trkpt lat="43.6622" lon="2.37332">
        <ele>596</ele>
        <time>2025-09-16T14:12:43Z</time>
      </trkpt>
      <trkpt lat="43.66219" lon="2.37335">
        <ele>596.2</ele>
        <time>2025-09-16T14:12:44Z</time>
      </trkpt>
      <trkpt lat="43.66219" lon="2.37337">
        <ele>596.4</ele>
        <time>2025-09-16T14:12:45Z</time>
      </trkpt>
      <trkpt lat="43.66218" lon="2.37339">
        <ele>596.6</ele>
        <time>2025-09-16T14:12:46Z</time>
      </trkpt>
      <trkpt lat="43.66218" lon="2.37342">
        <ele>596.8</ele>
        <time>2025-09-16T14:12:47Z</time>
      </trkpt>
      <trkpt lat="43.66218" lon="2.37344">
        <ele>596.8</ele>
        <time>2025-09-16T14:12:48Z</time>
      </trkpt>
      <trkpt lat="43.66217" lon="2.37348">
        <ele>597</ele>
        <time>2025-09-16T14:12:49Z</time>
      </trkpt>
      <trkpt lat="43.66216" lon="2.37351">
        <ele>597</ele>
        <time>2025-09-16T14:12:50Z</time>
      </trkpt>
      <trkpt lat="43.66215" lon="2.37353">
        <ele>597</ele>
        <time>2025-09-16T14:12:51Z</time>
      </trkpt>
      <trkpt lat="43.66214" lon="2.37356">
        <ele>597.2</ele>
        <time>2025-09-16T14:12:52Z</time>
      </trkpt>
      <trkpt lat="43.66212" lon="2.37359">
        <ele>597.2</ele>
        <time>2025-09-16T14:12:53Z</time>
      </trkpt>
      <trkpt lat="43.66211" lon="2.37362">
        <ele>597.4</ele>
        <time>2025-09-16T14:12:54Z</time>
      </trkpt>
      <trkpt lat="43.66212" lon="2.37365">
        <ele>597.4</ele>
        <time>2025-09-16T14:12:55Z</time>
      </trkpt>
      <trkpt lat="43.66212" lon="2.37369">
        <ele>597.6</ele>
        <time>2025-09-16T14:12:56Z</time>
      </trkpt>
      <trkpt lat="43.66213" lon="2.37374">
        <ele>597.8</ele>
        <time>2025-09-16T14:12:57Z</time>
      </trkpt>
      <trkpt lat="43.66213" lon="2.37377">
        <ele>597.8</ele>
        <time>2025-09-16T14:12:58Z</time>
      </trkpt>
      <trkpt lat="43.66214" lon="2.37379">
        <ele>598</ele>
        <time>2025-09-16T14:12:59Z</time>
      </trkpt>
      <trkpt lat="43.66214" lon="2.37384">
        <ele>598</ele>
        <time>2025-09-16T14:13:00Z</time>
      </trkpt>
      <trkpt lat="43.66213" lon="2.37389">
        <ele>598.2</ele>
        <time>2025-09-16T14:13:01Z</time>
      </trkpt>
      <trkpt lat="43.66211" lon="2.37393">
        <ele>598.2</ele>
        <time>2025-09-16T14:13:02Z</time>
      </trkpt>
      <trkpt lat="43.66209" lon="2.37396">
        <ele>598.4</ele>
        <time>2025-09-16T14:13:03Z</time>
      </trkpt>
      <trkpt lat="43.66207" lon="2.374">
        <ele>598.6</ele>
        <time>2025-09-16T14:13:04Z</time>
      </trkpt>
      <trkpt lat="43.66205" lon="2.37403">
        <ele>598.8</ele>
        <time>2025-09-16T14:13:05Z</time>
      </trkpt>
      <trkpt lat="43.66202" lon="2.37406">
        <ele>599</ele>
        <time>2025-09-16T14:13:06Z</time>
      </trkpt>
      <trkpt lat="43.66202" lon="2.37409">
        <ele>599.2</ele>
        <time>2025-09-16T14:13:07Z</time>
      </trkpt>
      <trkpt lat="43.66201" lon="2.37412">
        <ele>599.4</ele>
        <time>2025-09-16T14:13:08Z</time>
      </trkpt>
      <trkpt lat="43.66199" lon="2.37414">
        <ele>599.6</ele>
        <time>2025-09-16T14:13:09Z</time>
      </trkpt>
      <trkpt lat="43.66198" lon="2.37417">
        <ele>599.8</ele>
        <time>2025-09-16T14:13:10Z</time>
      </trkpt>
      <trkpt lat="43.66197" lon="2.3742">
        <ele>599.8</ele>
        <time>2025-09-16T14:13:11Z</time>
      </trkpt>
      <trkpt lat="43.66196" lon="2.37423">
        <ele>599.8</ele>
        <time>2025-09-16T14:13:12Z</time>
      </trkpt>
      <trkpt lat="43.66194" lon="2.37425">
        <ele>600</ele>
        <time>2025-09-16T14:13:13Z</time>
      </trkpt>
      <trkpt lat="43.66194" lon="2.37426">
        <ele>600</ele>
        <time>2025-09-16T14:13:14Z</time>
      </trkpt>
      <trkpt lat="43.66193" lon="2.37428">
        <ele>600.2</ele>
        <time>2025-09-16T14:13:15Z</time>
      </trkpt>
      <trkpt lat="43.66192" lon="2.3743">
        <ele>600.2</ele>
        <time>2025-09-16T14:13:16Z</time>
      </trkpt>
      <trkpt lat="43.66192" lon="2.37432">
        <ele>600.2</ele>
        <time>2025-09-16T14:13:17Z</time>
      </trkpt>
      <trkpt lat="43.66192" lon="2.37435">
        <ele>600.4</ele>
        <time>2025-09-16T14:13:18Z</time>
      </trkpt>
      <trkpt lat="43.66192" lon="2.37438">
        <ele>600.4</ele>
        <time>2025-09-16T14:13:19Z</time>
      </trkpt>
      <trkpt lat="43.66191" lon="2.3744">
        <ele>600.6</ele>
        <time>2025-09-16T14:13:20Z</time>
      </trkpt>
      <trkpt lat="43.66191" lon="2.37443">
        <ele>600.6</ele>
        <time>2025-09-16T14:13:21Z</time>
      </trkpt>
      <trkpt lat="43.6619" lon="2.37444">
        <ele>600.6</ele>
        <time>2025-09-16T14:13:22Z</time>
      </trkpt>
      <trkpt lat="43.6619" lon="2.37447">
        <ele>600.8</ele>
        <time>2025-09-16T14:13:23Z</time>
      </trkpt>
      <trkpt lat="43.66189" lon="2.3745">
        <ele>600.6</ele>
        <time>2025-09-16T14:13:24Z</time>
      </trkpt>
      <trkpt lat="43.66188" lon="2.37454">
        <ele>600.6</ele>
        <time>2025-09-16T14:13:25Z</time>
      </trkpt>
      <trkpt lat="43.66187" lon="2.37457">
        <ele>600.4</ele>
        <time>2025-09-16T14:13:26Z</time>
      </trkpt>
      <trkpt lat="43.66186" lon="2.3746">
        <ele>600.4</ele>
        <time>2025-09-16T14:13:27Z</time>
      </trkpt>
      <trkpt lat="43.66184" lon="2.37463">
        <ele>600.2</ele>
        <time>2025-09-16T14:13:28Z</time>
      </trkpt>
      <trkpt lat="43.66182" lon="2.37466">
        <ele>600.2</ele>
        <time>2025-09-16T14:13:29Z</time>
      </trkpt>
      <trkpt lat="43.6618" lon="2.3747">
        <ele>600.2</ele>
        <time>2025-09-16T14:13:30Z</time>
      </trkpt>
      <trkpt lat="43.66178" lon="2.37473">
        <ele>600</ele>
        <time>2025-09-16T14:13:31Z</time>
      </trkpt>
      <trkpt lat="43.66175" lon="2.37476">
        <ele>600</ele>
        <time>2025-09-16T14:13:32Z</time>
      </trkpt>
      <trkpt lat="43.66173" lon="2.37479">
        <ele>600</ele>
        <time>2025-09-16T14:13:33Z</time>
      </trkpt>
      <trkpt lat="43.66171" lon="2.37483">
        <ele>599.8</ele>
        <time>2025-09-16T14:13:34Z</time>
      </trkpt>
      <trkpt lat="43.66168" lon="2.37487">
        <ele>599.6</ele>
        <time>2025-09-16T14:13:35Z</time>
      </trkpt>
      <trkpt lat="43.66166" lon="2.37491">
        <ele>599.6</ele>
        <time>2025-09-16T14:13:36Z</time>
      </trkpt>
      <trkpt lat="43.66163" lon="2.37495">
        <ele>599.4</ele>
        <time>2025-09-16T14:13:37Z</time>
      </trkpt>
      <trkpt lat="43.66161" lon="2.37499">
        <ele>599.4</ele>
        <time>2025-09-16T14:13:38Z</time>
      </trkpt>
      <trkpt lat="43.66158" lon="2.37504">
        <ele>599.2</ele>
        <time>2025-09-16T14:13:39Z</time>
      </trkpt>
      <trkpt lat="43.66156" lon="2.37506">
        <ele>599</ele>
        <time>2025-09-16T14:13:40Z</time>
      </trkpt>
      <trkpt lat="43.66154" lon="2.37509">
        <ele>598.8</ele>
        <time>2025-09-16T14:13:41Z</time>
      </trkpt>
      <trkpt lat="43.66153" lon="2.37514">
        <ele>598.4</ele>
        <time>2025-09-16T14:13:42Z</time>
      </trkpt>
      <trkpt lat="43.6615" lon="2.37521">
        <ele>598</ele>
        <time>2025-09-16T14:13:43Z</time>
      </trkpt>
      <trkpt lat="43.66146" lon="2.37527">
        <ele>597.6</ele>
        <time>2025-09-16T14:13:44Z</time>
      </trkpt>
      <trkpt lat="43.66142" lon="2.37532">
        <ele>597.2</ele>
        <time>2025-09-16T14:13:45Z</time>
      </trkpt>
      <trkpt lat="43.66139" lon="2.37535">
        <ele>596.8</ele>
        <time>2025-09-16T14:13:46Z</time>
      </trkpt>
      <trkpt lat="43.66136" lon="2.37539">
        <ele>596.6</ele>
        <time>2025-09-16T14:13:47Z</time>
      </trkpt>
      <trkpt lat="43.66132" lon="2.37545">
        <ele>596.4</ele>
        <time>2025-09-16T14:13:48Z</time>
      </trkpt>
      <trkpt lat="43.6613" lon="2.3755">
        <ele>596.4</ele>
        <time>2025-09-16T14:13:49Z</time>
      </trkpt>
      <trkpt lat="43.66127" lon="2.37554">
        <ele>596.4</ele>
        <time>2025-09-16T14:13:50Z</time>
      </trkpt>
      <trkpt lat="43.66126" lon="2.37559">
        <ele>596.4</ele>
        <time>2025-09-16T14:13:51Z</time>
      </trkpt>
      <trkpt lat="43.66125" lon="2.37566">
        <ele>596.4</ele>
        <time>2025-09-16T14:13:52Z</time>
      </trkpt>
      <trkpt lat="43.66125" lon="2.37569">
        <ele>596.6</ele>
        <time>2025-09-16T14:13:53Z</time>
      </trkpt>
      <trkpt lat="43.66124" lon="2.37574">
        <ele>596.6</ele>
        <time>2025-09-16T14:13:54Z</time>
      </trkpt>
      <trkpt lat="43.66125" lon="2.37579">
        <ele>596.8</ele>
        <time>2025-09-16T14:13:55Z</time>
      </trkpt>
      <trkpt lat="43.66125" lon="2.37584">
        <ele>596.8</ele>
        <time>2025-09-16T14:13:56Z</time>
      </trkpt>
      <trkpt lat="43.66125" lon="2.37589">
        <ele>596.6</ele>
        <time>2025-09-16T14:13:57Z</time>
      </trkpt>
      <trkpt lat="43.66124" lon="2.37593">
        <ele>596.4</ele>
        <time>2025-09-16T14:13:58Z</time>
      </trkpt>
      <trkpt lat="43.6612" lon="2.37598">
        <ele>596.2</ele>
        <time>2025-09-16T14:13:59Z</time>
      </trkpt>
      <trkpt lat="43.66116" lon="2.37602">
        <ele>595.8</ele>
        <time>2025-09-16T14:14:00Z</time>
      </trkpt>
      <trkpt lat="43.66112" lon="2.37604">
        <ele>595.4</ele>
        <time>2025-09-16T14:14:01Z</time>
      </trkpt>
      <trkpt lat="43.66108" lon="2.37607">
        <ele>595</ele>
        <time>2025-09-16T14:14:02Z</time>
      </trkpt>
      <trkpt lat="43.66105" lon="2.37611">
        <ele>594.8</ele>
        <time>2025-09-16T14:14:03Z</time>
      </trkpt>
      <trkpt lat="43.66101" lon="2.37616">
        <ele>594.6</ele>
        <time>2025-09-16T14:14:04Z</time>
      </trkpt>
      <trkpt lat="43.66098" lon="2.37619">
        <ele>594.4</ele>
        <time>2025-09-16T14:14:05Z</time>
      </trkpt>
      <trkpt lat="43.66096" lon="2.37621">
        <ele>594.4</ele>
        <time>2025-09-16T14:14:06Z</time>
      </trkpt>
      <trkpt lat="43.66092" lon="2.37623">
        <ele>594.4</ele>
        <time>2025-09-16T14:14:07Z</time>
      </trkpt>
      <trkpt lat="43.6609" lon="2.37626">
        <ele>594.4</ele>
        <time>2025-09-16T14:14:08Z</time>
      </trkpt>
      <trkpt lat="43.66088" lon="2.37626">
        <ele>594.4</ele>
        <time>2025-09-16T14:14:09Z</time>
      </trkpt>
      <trkpt lat="43.66086" lon="2.37625">
        <ele>594.6</ele>
        <time>2025-09-16T14:14:10Z</time>
      </trkpt>
      <trkpt lat="43.66084" lon="2.37624">
        <ele>594.8</ele>
        <time>2025-09-16T14:14:11Z</time>
      </trkpt>
      <trkpt lat="43.66082" lon="2.37625">
        <ele>595</ele>
        <time>2025-09-16T14:14:12Z</time>
      </trkpt>
      <trkpt lat="43.6608" lon="2.37624">
        <ele>595.4</ele>
        <time>2025-09-16T14:14:13Z</time>
      </trkpt>
      <trkpt lat="43.66078" lon="2.37623">
        <ele>595.6</ele>
        <time>2025-09-16T14:14:14Z</time>
      </trkpt>
      <trkpt lat="43.66076" lon="2.37624">
        <ele>596</ele>
        <time>2025-09-16T14:14:15Z</time>
      </trkpt>
      <trkpt lat="43.66074" lon="2.37625">
        <ele>596.2</ele>
        <time>2025-09-16T14:14:16Z</time>
      </trkpt>
      <trkpt lat="43.66073" lon="2.37626">
        <ele>596.6</ele>
        <time>2025-09-16T14:14:17Z</time>
      </trkpt>
      <trkpt lat="43.66071" lon="2.37627">
        <ele>596.8</ele>
        <time>2025-09-16T14:14:18Z</time>
      </trkpt>
      <trkpt lat="43.66069" lon="2.37628">
        <ele>597</ele>
        <time>2025-09-16T14:14:19Z</time>
      </trkpt>
      <trkpt lat="43.66067" lon="2.37629">
        <ele>597.2</ele>
        <time>2025-09-16T14:14:20Z</time>
      </trkpt>
      <trkpt lat="43.66065" lon="2.3763">
        <ele>597.4</ele>
        <time>2025-09-16T14:14:21Z</time>
      </trkpt>
      <trkpt lat="43.66063" lon="2.3763">
        <ele>597.6</ele>
        <time>2025-09-16T14:14:22Z</time>
      </trkpt>
      <trkpt lat="43.66061" lon="2.37631">
        <ele>597.8</ele>
        <time>2025-09-16T14:14:23Z</time>
      </trkpt>
      <trkpt lat="43.66059" lon="2.37631">
        <ele>598.2</ele>
        <time>2025-09-16T14:14:24Z</time>
      </trkpt>
      <trkpt lat="43.66057" lon="2.37631">
        <ele>598.4</ele>
        <time>2025-09-16T14:14:25Z</time>
      </trkpt>
      <trkpt lat="43.66056" lon="2.37631">
        <ele>598.8</ele>
        <time>2025-09-16T14:14:26Z</time>
      </trkpt>
      <trkpt lat="43.66054" lon="2.37631">
        <ele>599</ele>
        <time>2025-09-16T14:14:27Z</time>
      </trkpt>
      <trkpt lat="43.66053" lon="2.37632">
        <ele>599.4</ele>
        <time>2025-09-16T14:14:28Z</time>
      </trkpt>
      <trkpt lat="43.66051" lon="2.37632">
        <ele>599.6</ele>
        <time>2025-09-16T14:14:29Z</time>
      </trkpt>
      <trkpt lat="43.66049" lon="2.37631">
        <ele>599.8</ele>
        <time>2025-09-16T14:14:30Z</time>
      </trkpt>
      <trkpt lat="43.66047" lon="2.37632">
        <ele>600</ele>
        <time>2025-09-16T14:14:31Z</time>
      </trkpt>
      <trkpt lat="43.66045" lon="2.37632">
        <ele>600.2</ele>
        <time>2025-09-16T14:14:32Z</time>
      </trkpt>
      <trkpt lat="43.66043" lon="2.37631">
        <ele>600.4</ele>
        <time>2025-09-16T14:14:33Z</time>
      </trkpt>
      <trkpt lat="43.6604" lon="2.37631">
        <ele>600.6</ele>
        <time>2025-09-16T14:14:34Z</time>
      </trkpt>
      <trkpt lat="43.66039" lon="2.37631">
        <ele>600.8</ele>
        <time>2025-09-16T14:14:35Z</time>
      </trkpt>
      <trkpt lat="43.66037" lon="2.37631">
        <ele>601</ele>
        <time>2025-09-16T14:14:36Z</time>
      </trkpt>
      <trkpt lat="43.66035" lon="2.37631">
        <ele>601.2</ele>
        <time>2025-09-16T14:14:37Z</time>
      </trkpt>
      <trkpt lat="43.66033" lon="2.37631">
        <ele>601.6</ele>
        <time>2025-09-16T14:14:38Z</time>
      </trkpt>
      <trkpt lat="43.66031" lon="2.3763">
        <ele>601.8</ele>
        <time>2025-09-16T14:14:39Z</time>
      </trkpt>
      <trkpt lat="43.66029" lon="2.37629">
        <ele>602</ele>
        <time>2025-09-16T14:14:40Z</time>
      </trkpt>
      <trkpt lat="43.66028" lon="2.37628">
        <ele>602.2</ele>
        <time>2025-09-16T14:14:41Z</time>
      </trkpt>
      <trkpt lat="43.66026" lon="2.37628">
        <ele>602.6</ele>
        <time>2025-09-16T14:14:42Z</time>
      </trkpt>
      <trkpt lat="43.66025" lon="2.37628">
        <ele>603</ele>
        <time>2025-09-16T14:14:43Z</time>
      </trkpt>
      <trkpt lat="43.66023" lon="2.37629">
        <ele>603.2</ele>
        <time>2025-09-16T14:14:44Z</time>
      </trkpt>
      <trkpt lat="43.66021" lon="2.37628">
        <ele>603.6</ele>
        <time>2025-09-16T14:14:45Z</time>
      </trkpt>
      <trkpt lat="43.6602" lon="2.37629">
        <ele>603.8</ele>
        <time>2025-09-16T14:14:46Z</time>
      </trkpt>
      <trkpt lat="43.66019" lon="2.3763">
        <ele>604</ele>
        <time>2025-09-16T14:14:47Z</time>
      </trkpt>
      <trkpt lat="43.66018" lon="2.3763">
        <ele>604.4</ele>
        <time>2025-09-16T14:14:48Z</time>
      </trkpt>
      <trkpt lat="43.66016" lon="2.3763">
        <ele>604.6</ele>
        <time>2025-09-16T14:14:49Z</time>
      </trkpt>
      <trkpt lat="43.66015" lon="2.37631">
        <ele>604.8</ele>
        <time>2025-09-16T14:14:50Z</time>
      </trkpt>
      <trkpt lat="43.66014" lon="2.37631">
        <ele>605</ele>
        <time>2025-09-16T14:14:51Z</time>
      </trkpt>
      <trkpt lat="43.66012" lon="2.37631">
        <ele>605</ele>
        <time>2025-09-16T14:14:52Z</time>
      </trkpt>
      <trkpt lat="43.66011" lon="2.37631">
        <ele>605.2</ele>
        <time>2025-09-16T14:14:53Z</time>
      </trkpt>
      <trkpt lat="43.66009" lon="2.37631">
        <ele>605.2</ele>
        <time>2025-09-16T14:14:54Z</time>
      </trkpt>
      <trkpt lat="43.66008" lon="2.37631">
        <ele>605.4</ele>
        <time>2025-09-16T14:14:55Z</time>
      </trkpt>
      <trkpt lat="43.66007" lon="2.3763">
        <ele>605.4</ele>
        <time>2025-09-16T14:14:56Z</time>
      </trkpt>
      <trkpt lat="43.66006" lon="2.37629">
        <ele>605.6</ele>
        <time>2025-09-16T14:14:57Z</time>
      </trkpt>
      <trkpt lat="43.66004" lon="2.37629">
        <ele>605.6</ele>
        <time>2025-09-16T14:14:58Z</time>
      </trkpt>
      <trkpt lat="43.66003" lon="2.37629">
        <ele>605.6</ele>
        <time>2025-09-16T14:14:59Z</time>
      </trkpt>
      <trkpt lat="43.66002" lon="2.37631">
        <ele>605.6</ele>
        <time>2025-09-16T14:15:00Z</time>
      </trkpt>
      <trkpt lat="43.66001" lon="2.37633">
        <ele>605.8</ele>
        <time>2025-09-16T14:15:01Z</time>
      </trkpt>
      <trkpt lat="43.66" lon="2.37635">
        <ele>605.8</ele>
        <time>2025-09-16T14:15:02Z</time>
      </trkpt>
      <trkpt lat="43.65999" lon="2.37637">
        <ele>605.8</ele>
        <time>2025-09-16T14:15:03Z</time>
      </trkpt>
      <trkpt lat="43.65999" lon="2.37639">
        <ele>605.6</ele>
        <time>2025-09-16T14:15:04Z</time>
      </trkpt>
      <trkpt lat="43.65999" lon="2.37642">
        <ele>605.6</ele>
        <time>2025-09-16T14:15:05Z</time>
      </trkpt>
      <trkpt lat="43.65998" lon="2.37644">
        <ele>605.6</ele>
        <time>2025-09-16T14:15:06Z</time>
      </trkpt>
      <trkpt lat="43.65997" lon="2.37646">
        <ele>605.4</ele>
        <time>2025-09-16T14:15:07Z</time>
      </trkpt>
      <trkpt lat="43.65996" lon="2.37648">
        <ele>605.4</ele>
        <time>2025-09-16T14:15:08Z</time>
      </trkpt>
      <trkpt lat="43.65996" lon="2.37651">
        <ele>605.4</ele>
        <time>2025-09-16T14:15:09Z</time>
      </trkpt>
      <trkpt lat="43.65995" lon="2.37654">
        <ele>605.4</ele>
        <time>2025-09-16T14:15:10Z</time>
      </trkpt>
      <trkpt lat="43.65994" lon="2.37656">
        <ele>605.4</ele>
        <time>2025-09-16T14:15:11Z</time>
      </trkpt>
      <trkpt lat="43.65992" lon="2.37659">
        <ele>605.2</ele>
        <time>2025-09-16T14:15:12Z</time>
      </trkpt>
      <trkpt lat="43.65991" lon="2.37663">
        <ele>605.2</ele>
        <time>2025-09-16T14:15:13Z</time>
      </trkpt>
      <trkpt lat="43.65989" lon="2.37667">
        <ele>605</ele>
        <time>2025-09-16T14:15:14Z</time>
      </trkpt>
      <trkpt lat="43.65988" lon="2.37671">
        <ele>604.8</ele>
        <time>2025-09-16T14:15:15Z</time>
      </trkpt>
      <trkpt lat="43.65988" lon="2.37674">
        <ele>604.8</ele>
        <time>2025-09-16T14:15:16Z</time>
      </trkpt>
      <trkpt lat="43.65989" lon="2.37678">
        <ele>604.8</ele>
        <time>2025-09-16T14:15:17Z</time>
      </trkpt>
      <trkpt lat="43.65991" lon="2.37681">
        <ele>604.8</ele>
        <time>2025-09-16T14:15:18Z</time>
      </trkpt>
      <trkpt lat="43.65992" lon="2.37684">
        <ele>604.8</ele>
        <time>2025-09-16T14:15:19Z</time>
      </trkpt>
      <trkpt lat="43.65993" lon="2.37687">
        <ele>604.8</ele>
        <time>2025-09-16T14:15:20Z</time>
      </trkpt>
      <trkpt lat="43.65994" lon="2.3769">
        <ele>605</ele>
        <time>2025-09-16T14:15:21Z</time>
      </trkpt>
      <trkpt lat="43.65995" lon="2.37692">
        <ele>605</ele>
        <time>2025-09-16T14:15:22Z</time>
      </trkpt>
      <trkpt lat="43.65995" lon="2.37695">
        <ele>605</ele>
        <time>2025-09-16T14:15:23Z</time>
      </trkpt>
      <trkpt lat="43.65996" lon="2.37697">
        <ele>605.2</ele>
        <time>2025-09-16T14:15:24Z</time>
      </trkpt>
      <trkpt lat="43.65995" lon="2.377">
        <ele>605.2</ele>
        <time>2025-09-16T14:15:25Z</time>
      </trkpt>
      <trkpt lat="43.65994" lon="2.37703">
        <ele>605.2</ele>
        <time>2025-09-16T14:15:26Z</time>
      </trkpt>
      <trkpt lat="43.65994" lon="2.37707">
        <ele>605.4</ele>
        <time>2025-09-16T14:15:27Z</time>
      </trkpt>
      <trkpt lat="43.65993" lon="2.3771">
        <ele>605.4</ele>
        <time>2025-09-16T14:15:28Z</time>
      </trkpt>
      <trkpt lat="43.65993" lon="2.37713">
        <ele>605.6</ele>
        <time>2025-09-16T14:15:29Z</time>
      </trkpt>
      <trkpt lat="43.65992" lon="2.37715">
        <ele>605.6</ele>
        <time>2025-09-16T14:15:30Z</time>
      </trkpt>
      <trkpt lat="43.65992" lon="2.37717">
        <ele>605.6</ele>
        <time>2025-09-16T14:15:31Z</time>
      </trkpt>
      <trkpt lat="43.65992" lon="2.37719">
        <ele>605.8</ele>
        <time>2025-09-16T14:15:32Z</time>
      </trkpt>
      <trkpt lat="43.65991" lon="2.37722">
        <ele>605.8</ele>
        <time>2025-09-16T14:15:33Z</time>
      </trkpt>
      <trkpt lat="43.65991" lon="2.37724">
        <ele>606</ele>
        <time>2025-09-16T14:15:34Z</time>
      </trkpt>
      <trkpt lat="43.65991" lon="2.37726">
        <ele>606</ele>
        <time>2025-09-16T14:15:35Z</time>
      </trkpt>
      <trkpt lat="43.65991" lon="2.37728">
        <ele>606.2</ele>
        <time>2025-09-16T14:15:36Z</time>
      </trkpt>
      <trkpt lat="43.65991" lon="2.3773">
        <ele>606.2</ele>
        <time>2025-09-16T14:15:37Z</time>
      </trkpt>
      <trkpt lat="43.6599" lon="2.37732">
        <ele>606.2</ele>
        <time>2025-09-16T14:15:38Z</time>
      </trkpt>
      <trkpt lat="43.6599" lon="2.37734">
        <ele>606.4</ele>
        <time>2025-09-16T14:15:39Z</time>
      </trkpt>
      <trkpt lat="43.65989" lon="2.37736">
        <ele>606.6</ele>
        <time>2025-09-16T14:15:40Z</time>
      </trkpt>
      <trkpt lat="43.65989" lon="2.37739">
        <ele>606.6</ele>
        <time>2025-09-16T14:15:41Z</time>
      </trkpt>
      <trkpt lat="43.65989" lon="2.37742">
        <ele>606.8</ele>
        <time>2025-09-16T14:15:42Z</time>
      </trkpt>
      <trkpt lat="43.65989" lon="2.37744">
        <ele>607</ele>
        <time>2025-09-16T14:15:43Z</time>
      </trkpt>
      <trkpt lat="43.65989" lon="2.37747">
        <ele>607</ele>
        <time>2025-09-16T14:15:44Z</time>
      </trkpt>
      <trkpt lat="43.65989" lon="2.3775">
        <ele>607.2</ele>
        <time>2025-09-16T14:15:45Z</time>
      </trkpt>
      <trkpt lat="43.65988" lon="2.37752">
        <ele>607.4</ele>
        <time>2025-09-16T14:15:46Z</time>
      </trkpt>
      <trkpt lat="43.65988" lon="2.37755">
        <ele>607.6</ele>
        <time>2025-09-16T14:15:47Z</time>
      </trkpt>
      <trkpt lat="43.65989" lon="2.37759">
        <ele>607.6</ele>
        <time>2025-09-16T14:15:48Z</time>
      </trkpt>
      <trkpt lat="43.65989" lon="2.37763">
        <ele>607.8</ele>
        <time>2025-09-16T14:15:49Z</time>
      </trkpt>
      <trkpt lat="43.65989" lon="2.37766">
        <ele>608</ele>
        <time>2025-09-16T14:15:50Z</time>
      </trkpt>
      <trkpt lat="43.65989" lon="2.37769">
        <ele>608</ele>
        <time>2025-09-16T14:15:51Z</time>
      </trkpt>
      <trkpt lat="43.65989" lon="2.3777">
        <ele>608.4</ele>
        <time>2025-09-16T14:15:52Z</time>
      </trkpt>
      <trkpt lat="43.65989" lon="2.37772">
        <ele>608.6</ele>
        <time>2025-09-16T14:15:53Z</time>
      </trkpt>
      <trkpt lat="43.65989" lon="2.37775">
        <ele>608.8</ele>
        <time>2025-09-16T14:15:54Z</time>
      </trkpt>
      <trkpt lat="43.65989" lon="2.37778">
        <ele>609</ele>
        <time>2025-09-16T14:15:55Z</time>
      </trkpt>
      <trkpt lat="43.6599" lon="2.37781">
        <ele>609.2</ele>
        <time>2025-09-16T14:15:56Z</time>
      </trkpt>
      <trkpt lat="43.65989" lon="2.37783">
        <ele>609.4</ele>
        <time>2025-09-16T14:15:57Z</time>
      </trkpt>
      <trkpt lat="43.65989" lon="2.37785">
        <ele>609.4</ele>
        <time>2025-09-16T14:15:58Z</time>
      </trkpt>
      <trkpt lat="43.65988" lon="2.37787">
        <ele>609.6</ele>
        <time>2025-09-16T14:15:59Z</time>
      </trkpt>
      <trkpt lat="43.65987" lon="2.37789">
        <ele>609.8</ele>
        <time>2025-09-16T14:16:00Z</time>
      </trkpt>
      <trkpt lat="43.65985" lon="2.37792">
        <ele>610</ele>
        <time>2025-09-16T14:16:01Z</time>
      </trkpt>
      <trkpt lat="43.65984" lon="2.37795">
        <ele>610.2</ele>
        <time>2025-09-16T14:16:02Z</time>
      </trkpt>
      <trkpt lat="43.65984" lon="2.37798">
        <ele>610.4</ele>
        <time>2025-09-16T14:16:03Z</time>
      </trkpt>
      <trkpt lat="43.65984" lon="2.37801">
        <ele>610.4</ele>
        <time>2025-09-16T14:16:04Z</time>
      </trkpt>
      <trkpt lat="43.65983" lon="2.37805">
        <ele>610.8</ele>
        <time>2025-09-16T14:16:05Z</time>
      </trkpt>
      <trkpt lat="43.65983" lon="2.37805">
        <ele>611</ele>
        <time>2025-09-16T14:16:06Z</time>
      </trkpt>
      <trkpt lat="43.65983" lon="2.37805">
        <ele>611.2</ele>
        <time>2025-09-16T14:16:07Z</time>
      </trkpt>
      <trkpt lat="43.65983" lon="2.37805">
        <ele>611.2</ele>
        <time>2025-09-16T14:16:08Z</time>
      </trkpt>
      <trkpt lat="43.65977" lon="2.37811">
        <ele>612.4</ele>
        <time>2025-09-16T14:16:38Z</time>
      </trkpt>
      <trkpt lat="43.65976" lon="2.37813">
        <ele>612.6</ele>
        <time>2025-09-16T14:16:39Z</time>
      </trkpt>
      <trkpt lat="43.65975" lon="2.37816">
        <ele>612.8</ele>
        <time>2025-09-16T14:16:40Z</time>
      </trkpt>
      <trkpt lat="43.65975" lon="2.37819">
        <ele>612.8</ele>
        <time>2025-09-16T14:16:41Z</time>
      </trkpt>
      <trkpt lat="43.65975" lon="2.37821">
        <ele>613</ele>
        <time>2025-09-16T14:16:42Z</time>
      </trkpt>
      <trkpt lat="43.65975" lon="2.37825">
        <ele>613.2</ele>
        <time>2025-09-16T14:16:43Z</time>
      </trkpt>
      <trkpt lat="43.65974" lon="2.37827">
        <ele>613.4</ele>
        <time>2025-09-16T14:16:44Z</time>
      </trkpt>
      <trkpt lat="43.65973" lon="2.37829">
        <ele>613.4</ele>
        <time>2025-09-16T14:16:45Z</time>
      </trkpt>
      <trkpt lat="43.65972" lon="2.37832">
        <ele>613.6</ele>
        <time>2025-09-16T14:16:46Z</time>
      </trkpt>
      <trkpt lat="43.65971" lon="2.37834">
        <ele>613.8</ele>
        <time>2025-09-16T14:16:47Z</time>
      </trkpt>
      <trkpt lat="43.6597" lon="2.37837">
        <ele>613.8</ele>
        <time>2025-09-16T14:16:48Z</time>
      </trkpt>
      <trkpt lat="43.6597" lon="2.37839">
        <ele>614</ele>
        <time>2025-09-16T14:16:49Z</time>
      </trkpt>
      <trkpt lat="43.6597" lon="2.37841">
        <ele>614.2</ele>
        <time>2025-09-16T14:16:50Z</time>
      </trkpt>
      <trkpt lat="43.6597" lon="2.37844">
        <ele>614.2</ele>
        <time>2025-09-16T14:16:51Z</time>
      </trkpt>
      <trkpt lat="43.6597" lon="2.37846">
        <ele>614.4</ele>
        <time>2025-09-16T14:16:52Z</time>
      </trkpt>
      <trkpt lat="43.65969" lon="2.37848">
        <ele>614.6</ele>
        <time>2025-09-16T14:16:53Z</time>
      </trkpt>
      <trkpt lat="43.65969" lon="2.37851">
        <ele>614.6</ele>
        <time>2025-09-16T14:16:54Z</time>
      </trkpt>
      <trkpt lat="43.65968" lon="2.37852">
        <ele>614.8</ele>
        <time>2025-09-16T14:16:55Z</time>
      </trkpt>
      <trkpt lat="43.65967" lon="2.37855">
        <ele>615</ele>
        <time>2025-09-16T14:16:56Z</time>
      </trkpt>
      <trkpt lat="43.65966" lon="2.37857">
        <ele>615</ele>
        <time>2025-09-16T14:16:57Z</time>
      </trkpt>
      <trkpt lat="43.65966" lon="2.37859">
        <ele>615.2</ele>
        <time>2025-09-16T14:16:58Z</time>
      </trkpt>
      <trkpt lat="43.65965" lon="2.37861">
        <ele>615.4</ele>
        <time>2025-09-16T14:16:59Z</time>
      </trkpt>
      <trkpt lat="43.65965" lon="2.37863">
        <ele>615.6</ele>
        <time>2025-09-16T14:17:00Z</time>
      </trkpt>
      <trkpt lat="43.65965" lon="2.37866">
        <ele>615.8</ele>
        <time>2025-09-16T14:17:01Z</time>
      </trkpt>
      <trkpt lat="43.65965" lon="2.37868">
        <ele>615.8</ele>
        <time>2025-09-16T14:17:02Z</time>
      </trkpt>
      <trkpt lat="43.65965" lon="2.3787">
        <ele>616</ele>
        <time>2025-09-16T14:17:03Z</time>
      </trkpt>
      <trkpt lat="43.65965" lon="2.37872">
        <ele>616</ele>
        <time>2025-09-16T14:17:04Z</time>
      </trkpt>
      <trkpt lat="43.65964" lon="2.37874">
        <ele>616.2</ele>
        <time>2025-09-16T14:17:05Z</time>
      </trkpt>
      <trkpt lat="43.65964" lon="2.37876">
        <ele>616.2</ele>
        <time>2025-09-16T14:17:06Z</time>
      </trkpt>
      <trkpt lat="43.65964" lon="2.37878">
        <ele>616.4</ele>
        <time>2025-09-16T14:17:07Z</time>
      </trkpt>
      <trkpt lat="43.65963" lon="2.37881">
        <ele>616.6</ele>
        <time>2025-09-16T14:17:08Z</time>
      </trkpt>
      <trkpt lat="43.65963" lon="2.37883">
        <ele>616.6</ele>
        <time>2025-09-16T14:17:09Z</time>
      </trkpt>
      <trkpt lat="43.65962" lon="2.37885">
        <ele>616.8</ele>
        <time>2025-09-16T14:17:10Z</time>
      </trkpt>
      <trkpt lat="43.65961" lon="2.37887">
        <ele>616.8</ele>
        <time>2025-09-16T14:17:11Z</time>
      </trkpt>
      <trkpt lat="43.6596" lon="2.37889">
        <ele>617</ele>
        <time>2025-09-16T14:17:12Z</time>
      </trkpt>
      <trkpt lat="43.65959" lon="2.37891">
        <ele>617</ele>
        <time>2025-09-16T14:17:13Z</time>
      </trkpt>
      <trkpt lat="43.65958" lon="2.37892">
        <ele>617.2</ele>
        <time>2025-09-16T14:17:14Z</time>
      </trkpt>
      <trkpt lat="43.65957" lon="2.37893">
        <ele>617.2</ele>
        <time>2025-09-16T14:17:15Z</time>
      </trkpt>
      <trkpt lat="43.65956" lon="2.37895">
        <ele>617.4</ele>
        <time>2025-09-16T14:17:16Z</time>
      </trkpt>
      <trkpt lat="43.65955" lon="2.37896">
        <ele>617.6</ele>
        <time>2025-09-16T14:17:17Z</time>
      </trkpt>
      <trkpt lat="43.65953" lon="2.37897">
        <ele>617.6</ele>
        <time>2025-09-16T14:17:18Z</time>
      </trkpt>
      <trkpt lat="43.65952" lon="2.37899">
        <ele>617.8</ele>
        <time>2025-09-16T14:17:19Z</time>
      </trkpt>
      <trkpt lat="43.65951" lon="2.379">
        <ele>618</ele>
        <time>2025-09-16T14:17:20Z</time>
      </trkpt>
      <trkpt lat="43.6595" lon="2.37902">
        <ele>618</ele>
        <time>2025-09-16T14:17:21Z</time>
      </trkpt>
      <trkpt lat="43.65949" lon="2.37904">
        <ele>618.2</ele>
        <time>2025-09-16T14:17:22Z</time>
      </trkpt>
      <trkpt lat="43.65948" lon="2.37906">
        <ele>618.2</ele>
        <time>2025-09-16T14:17:23Z</time>
      </trkpt>
      <trkpt lat="43.65947" lon="2.37908">
        <ele>618.4</ele>
        <time>2025-09-16T14:17:24Z</time>
      </trkpt>
      <trkpt lat="43.65947" lon="2.3791">
        <ele>618.6</ele>
        <time>2025-09-16T14:17:25Z</time>
      </trkpt>
      <trkpt lat="43.65946" lon="2.37913">
        <ele>618.6</ele>
        <time>2025-09-16T14:17:26Z</time>
      </trkpt>
      <trkpt lat="43.65946" lon="2.37915">
        <ele>618.8</ele>
        <time>2025-09-16T14:17:27Z</time>
      </trkpt>
      <trkpt lat="43.65945" lon="2.37917">
        <ele>618.8</ele>
        <time>2025-09-16T14:17:28Z</time>
      </trkpt>
      <trkpt lat="43.65944" lon="2.37919">
        <ele>619</ele>
        <time>2025-09-16T14:17:29Z</time>
      </trkpt>
      <trkpt lat="43.65944" lon="2.37922">
        <ele>619.2</ele>
        <time>2025-09-16T14:17:30Z</time>
      </trkpt>
      <trkpt lat="43.65943" lon="2.37924">
        <ele>619.4</ele>
        <time>2025-09-16T14:17:31Z</time>
      </trkpt>
      <trkpt lat="43.65943" lon="2.37925">
        <ele>619.6</ele>
        <time>2025-09-16T14:17:32Z</time>
      </trkpt>
      <trkpt lat="43.65943" lon="2.37927">
        <ele>619.8</ele>
        <time>2025-09-16T14:17:33Z</time>
      </trkpt>
      <trkpt lat="43.65944" lon="2.3793">
        <ele>620</ele>
        <time>2025-09-16T14:17:34Z</time>
      </trkpt>
      <trkpt lat="43.65943" lon="2.37932">
        <ele>620</ele>
        <time>2025-09-16T14:17:35Z</time>
      </trkpt>
      <trkpt lat="43.65943" lon="2.37934">
        <ele>620.2</ele>
        <time>2025-09-16T14:17:36Z</time>
      </trkpt>
      <trkpt lat="43.65942" lon="2.37936">
        <ele>620.4</ele>
        <time>2025-09-16T14:17:37Z</time>
      </trkpt>
      <trkpt lat="43.65941" lon="2.37938">
        <ele>620.4</ele>
        <time>2025-09-16T14:17:38Z</time>
      </trkpt>
      <trkpt lat="43.6594" lon="2.3794">
        <ele>620.6</ele>
        <time>2025-09-16T14:17:39Z</time>
      </trkpt>
      <trkpt lat="43.6594" lon="2.37941">
        <ele>620.6</ele>
        <time>2025-09-16T14:17:40Z</time>
      </trkpt>
      <trkpt lat="43.65939" lon="2.37943">
        <ele>620.8</ele>
        <time>2025-09-16T14:17:41Z</time>
      </trkpt>
      <trkpt lat="43.65938" lon="2.37945">
        <ele>620.8</ele>
        <time>2025-09-16T14:17:42Z</time>
      </trkpt>
      <trkpt lat="43.65937" lon="2.37946">
        <ele>620.8</ele>
        <time>2025-09-16T14:17:43Z</time>
      </trkpt>
      <trkpt lat="43.65936" lon="2.37948">
        <ele>621</ele>
        <time>2025-09-16T14:17:44Z</time>
      </trkpt>
      <trkpt lat="43.65935" lon="2.3795">
        <ele>621</ele>
        <time>2025-09-16T14:17:45Z</time>
      </trkpt>
      <trkpt lat="43.65935" lon="2.37953">
        <ele>621.2</ele>
        <time>2025-09-16T14:17:46Z</time>
      </trkpt>
      <trkpt lat="43.65934" lon="2.37956">
        <ele>621.2</ele>
        <time>2025-09-16T14:17:47Z</time>
      </trkpt>
      <trkpt lat="43.65934" lon="2.37958">
        <ele>621.4</ele>
        <time>2025-09-16T14:17:48Z</time>
      </trkpt>
      <trkpt lat="43.65933" lon="2.3796">
        <ele>621.4</ele>
        <time>2025-09-16T14:17:49Z</time>
      </trkpt>
      <trkpt lat="43.65933" lon="2.37961">
        <ele>621.6</ele>
        <time>2025-09-16T14:17:50Z</time>
      </trkpt>
      <trkpt lat="43.65933" lon="2.37961">
        <ele>621.8</ele>
        <time>2025-09-16T14:17:51Z</time>
      </trkpt>
      <trkpt lat="43.6593" lon="2.37969">
        <ele>622.6</ele>
        <time>2025-09-16T14:18:25Z</time>
      </trkpt>
      <trkpt lat="43.65929" lon="2.37971">
        <ele>622.6</ele>
        <time>2025-09-16T14:18:26Z</time>
      </trkpt>
      <trkpt lat="43.65928" lon="2.37973">
        <ele>622.8</ele>
        <time>2025-09-16T14:18:27Z</time>
      </trkpt>
      <trkpt lat="43.65927" lon="2.37975">
        <ele>623</ele>
        <time>2025-09-16T14:18:28Z</time>
      </trkpt>
      <trkpt lat="43.65927" lon="2.37977">
        <ele>623.2</ele>
        <time>2025-09-16T14:18:29Z</time>
      </trkpt>
      <trkpt lat="43.65926" lon="2.37979">
        <ele>623.4</ele>
        <time>2025-09-16T14:18:30Z</time>
      </trkpt>
      <trkpt lat="43.65925" lon="2.37981">
        <ele>623.6</ele>
        <time>2025-09-16T14:18:31Z</time>
      </trkpt>
      <trkpt lat="43.65925" lon="2.37983">
        <ele>623.8</ele>
        <time>2025-09-16T14:18:32Z</time>
      </trkpt>
      <trkpt lat="43.65925" lon="2.37985">
        <ele>623.8</ele>
        <time>2025-09-16T14:18:33Z</time>
      </trkpt>
      <trkpt lat="43.65924" lon="2.37987">
        <ele>624</ele>
        <time>2025-09-16T14:18:34Z</time>
      </trkpt>
      <trkpt lat="43.65924" lon="2.37989">
        <ele>624.2</ele>
        <time>2025-09-16T14:18:35Z</time>
      </trkpt>
      <trkpt lat="43.65924" lon="2.37991">
        <ele>624.2</ele>
        <time>2025-09-16T14:18:36Z</time>
      </trkpt>
      <trkpt lat="43.65923" lon="2.37993">
        <ele>624.4</ele>
        <time>2025-09-16T14:18:37Z</time>
      </trkpt>
      <trkpt lat="43.65922" lon="2.37995">
        <ele>624.4</ele>
        <time>2025-09-16T14:18:38Z</time>
      </trkpt>
      <trkpt lat="43.65922" lon="2.37997">
        <ele>624.6</ele>
        <time>2025-09-16T14:18:39Z</time>
      </trkpt>
      <trkpt lat="43.65921" lon="2.38">
        <ele>624.6</ele>
        <time>2025-09-16T14:18:40Z</time>
      </trkpt>
      <trkpt lat="43.6592" lon="2.38002">
        <ele>624.8</ele>
        <time>2025-09-16T14:18:41Z</time>
      </trkpt>
      <trkpt lat="43.6592" lon="2.38004">
        <ele>624.8</ele>
        <time>2025-09-16T14:18:42Z</time>
      </trkpt>
      <trkpt lat="43.65918" lon="2.38005">
        <ele>624.8</ele>
        <time>2025-09-16T14:18:43Z</time>
      </trkpt>
      <trkpt lat="43.65917" lon="2.38007">
        <ele>625</ele>
        <time>2025-09-16T14:18:44Z</time>
      </trkpt>
      <trkpt lat="43.65916" lon="2.38009">
        <ele>625.2</ele>
        <time>2025-09-16T14:18:45Z</time>
      </trkpt>
      <trkpt lat="43.65915" lon="2.38011">
        <ele>625.2</ele>
        <time>2025-09-16T14:18:46Z</time>
      </trkpt>
      <trkpt lat="43.65914" lon="2.38013">
        <ele>625.6</ele>
        <time>2025-09-16T14:18:47Z</time>
      </trkpt>
      <trkpt lat="43.65913" lon="2.38014">
        <ele>625.6</ele>
        <time>2025-09-16T14:18:48Z</time>
      </trkpt>
      <trkpt lat="43.65912" lon="2.38016">
        <ele>626</ele>
        <time>2025-09-16T14:18:49Z</time>
      </trkpt>
      <trkpt lat="43.65911" lon="2.38018">
        <ele>626.2</ele>
        <time>2025-09-16T14:18:50Z</time>
      </trkpt>
      <trkpt lat="43.65911" lon="2.3802">
        <ele>626.4</ele>
        <time>2025-09-16T14:18:51Z</time>
      </trkpt>
      <trkpt lat="43.6591" lon="2.38022">
        <ele>626.6</ele>
        <time>2025-09-16T14:18:52Z</time>
      </trkpt>
      <trkpt lat="43.65909" lon="2.38024">
        <ele>626.8</ele>
        <time>2025-09-16T14:18:53Z</time>
      </trkpt>
      <trkpt lat="43.65907" lon="2.38025">
        <ele>627.2</ele>
        <time>2025-09-16T14:18:54Z</time>
      </trkpt>
      <trkpt lat="43.65906" lon="2.38027">
        <ele>627.4</ele>
        <time>2025-09-16T14:18:55Z</time>
      </trkpt>
      <trkpt lat="43.65905" lon="2.38029">
        <ele>627.4</ele>
        <time>2025-09-16T14:18:56Z</time>
      </trkpt>
      <trkpt lat="43.65904" lon="2.38031">
        <ele>627.6</ele>
        <time>2025-09-16T14:18:57Z</time>
      </trkpt>
      <trkpt lat="43.65903" lon="2.38032">
        <ele>627.8</ele>
        <time>2025-09-16T14:18:58Z</time>
      </trkpt>
      <trkpt lat="43.65902" lon="2.38033">
        <ele>628</ele>
        <time>2025-09-16T14:18:59Z</time>
      </trkpt>
      <trkpt lat="43.65901" lon="2.38035">
        <ele>628.2</ele>
        <time>2025-09-16T14:19:00Z</time>
      </trkpt>
      <trkpt lat="43.659" lon="2.38036">
        <ele>628.4</ele>
        <time>2025-09-16T14:19:01Z</time>
      </trkpt>
      <trkpt lat="43.65899" lon="2.38037">
        <ele>628.6</ele>
        <time>2025-09-16T14:19:02Z</time>
      </trkpt>
      <trkpt lat="43.65898" lon="2.38038">
        <ele>628.8</ele>
        <time>2025-09-16T14:19:03Z</time>
      </trkpt>
      <trkpt lat="43.65897" lon="2.38039">
        <ele>628.8</ele>
        <time>2025-09-16T14:19:04Z</time>
      </trkpt>
      <trkpt lat="43.65896" lon="2.3804">
        <ele>629</ele>
        <time>2025-09-16T14:19:05Z</time>
      </trkpt>
      <trkpt lat="43.65894" lon="2.3804">
        <ele>629.2</ele>
        <time>2025-09-16T14:19:06Z</time>
      </trkpt>
      <trkpt lat="43.65893" lon="2.3804">
        <ele>629.2</ele>
        <time>2025-09-16T14:19:07Z</time>
      </trkpt>
      <trkpt lat="43.65892" lon="2.3804">
        <ele>629.4</ele>
        <time>2025-09-16T14:19:08Z</time>
      </trkpt>
      <trkpt lat="43.65891" lon="2.38041">
        <ele>629.6</ele>
        <time>2025-09-16T14:19:09Z</time>
      </trkpt>
      <trkpt lat="43.6589" lon="2.38041">
        <ele>629.8</ele>
        <time>2025-09-16T14:19:10Z</time>
      </trkpt>
      <trkpt lat="43.65889" lon="2.38041">
        <ele>630</ele>
        <time>2025-09-16T14:19:11Z</time>
      </trkpt>
      <trkpt lat="43.65887" lon="2.38041">
        <ele>630.2</ele>
        <time>2025-09-16T14:19:12Z</time>
      </trkpt>
      <trkpt lat="43.65886" lon="2.38041">
        <ele>630.4</ele>
        <time>2025-09-16T14:19:13Z</time>
      </trkpt>
      <trkpt lat="43.65885" lon="2.38042">
        <ele>630.6</ele>
        <time>2025-09-16T14:19:14Z</time>
      </trkpt>
      <trkpt lat="43.65884" lon="2.38042">
        <ele>630.8</ele>
        <time>2025-09-16T14:19:15Z</time>
      </trkpt>
      <trkpt lat="43.65883" lon="2.38043">
        <ele>630.8</ele>
        <time>2025-09-16T14:19:16Z</time>
      </trkpt>
      <trkpt lat="43.65883" lon="2.38044">
        <ele>631</ele>
        <time>2025-09-16T14:19:17Z</time>
      </trkpt>
      <trkpt lat="43.65881" lon="2.38045">
        <ele>631.2</ele>
        <time>2025-09-16T14:19:18Z</time>
      </trkpt>
      <trkpt lat="43.65881" lon="2.38046">
        <ele>631.6</ele>
        <time>2025-09-16T14:19:19Z</time>
      </trkpt>
      <trkpt lat="43.6588" lon="2.38047">
        <ele>631.8</ele>
        <time>2025-09-16T14:19:20Z</time>
      </trkpt>
      <trkpt lat="43.65879" lon="2.38048">
        <ele>631.8</ele>
        <time>2025-09-16T14:19:21Z</time>
      </trkpt>
      <trkpt lat="43.65878" lon="2.38049">
        <ele>632</ele>
        <time>2025-09-16T14:19:22Z</time>
      </trkpt>
      <trkpt lat="43.65877" lon="2.38049">
        <ele>632.2</ele>
        <time>2025-09-16T14:19:23Z</time>
      </trkpt>
      <trkpt lat="43.65876" lon="2.3805">
        <ele>632.4</ele>
        <time>2025-09-16T14:19:24Z</time>
      </trkpt>
      <trkpt lat="43.65876" lon="2.38051">
        <ele>632.6</ele>
        <time>2025-09-16T14:19:25Z</time>
      </trkpt>
      <trkpt lat="43.65875" lon="2.38052">
        <ele>632.8</ele>
        <time>2025-09-16T14:19:26Z</time>
      </trkpt>
      <trkpt lat="43.65874" lon="2.38053">
        <ele>633</ele>
        <time>2025-09-16T14:19:27Z</time>
      </trkpt>
      <trkpt lat="43.65873" lon="2.38055">
        <ele>633</ele>
        <time>2025-09-16T14:19:28Z</time>
      </trkpt>
      <trkpt lat="43.65872" lon="2.38056">
        <ele>633.2</ele>
        <time>2025-09-16T14:19:29Z</time>
      </trkpt>
      <trkpt lat="43.65871" lon="2.38057">
        <ele>633.2</ele>
        <time>2025-09-16T14:19:30Z</time>
      </trkpt>
      <trkpt lat="43.6587" lon="2.38058">
        <ele>633.4</ele>
        <time>2025-09-16T14:19:31Z</time>
      </trkpt>
      <trkpt lat="43.65869" lon="2.38059">
        <ele>633.6</ele>
        <time>2025-09-16T14:19:32Z</time>
      </trkpt>
      <trkpt lat="43.65869" lon="2.38059">
        <ele>633.6</ele>
        <time>2025-09-16T14:19:33Z</time>
      </trkpt>
      <trkpt lat="43.65868" lon="2.38061">
        <ele>633.8</ele>
        <time>2025-09-16T14:19:34Z</time>
      </trkpt>
      <trkpt lat="43.65867" lon="2.38062">
        <ele>633.8</ele>
        <time>2025-09-16T14:19:35Z</time>
      </trkpt>
      <trkpt lat="43.65866" lon="2.38064">
        <ele>634</ele>
        <time>2025-09-16T14:19:36Z</time>
      </trkpt>
      <trkpt lat="43.65866" lon="2.38066">
        <ele>634.2</ele>
        <time>2025-09-16T14:19:37Z</time>
      </trkpt>
      <trkpt lat="43.65865" lon="2.38068">
        <ele>634.2</ele>
        <time>2025-09-16T14:19:38Z</time>
      </trkpt>
      <trkpt lat="43.65864" lon="2.3807">
        <ele>634.4</ele>
        <time>2025-09-16T14:19:39Z</time>
      </trkpt>
      <trkpt lat="43.65864" lon="2.38071">
        <ele>634.4</ele>
        <time>2025-09-16T14:19:40Z</time>
      </trkpt>
      <trkpt lat="43.65864" lon="2.38074">
        <ele>634.4</ele>
        <time>2025-09-16T14:19:41Z</time>
      </trkpt>
      <trkpt lat="43.65863" lon="2.38076">
        <ele>634.4</ele>
        <time>2025-09-16T14:19:42Z</time>
      </trkpt>
      <trkpt lat="43.65863" lon="2.38077">
        <ele>634.6</ele>
        <time>2025-09-16T14:19:43Z</time>
      </trkpt>
      <trkpt lat="43.65863" lon="2.38078">
        <ele>634.6</ele>
        <time>2025-09-16T14:19:44Z</time>
      </trkpt>
      <trkpt lat="43.65863" lon="2.3808">
        <ele>634.8</ele>
        <time>2025-09-16T14:19:45Z</time>
      </trkpt>
      <trkpt lat="43.65863" lon="2.38081">
        <ele>634.8</ele>
        <time>2025-09-16T14:19:46Z</time>
      </trkpt>
      <trkpt lat="43.65862" lon="2.38082">
        <ele>635</ele>
        <time>2025-09-16T14:19:47Z</time>
      </trkpt>
      <trkpt lat="43.65862" lon="2.38084">
        <ele>635</ele>
        <time>2025-09-16T14:19:48Z</time>
      </trkpt>
      <trkpt lat="43.65862" lon="2.38085">
        <ele>635.2</ele>
        <time>2025-09-16T14:19:49Z</time>
      </trkpt>
      <trkpt lat="43.65862" lon="2.38086">
        <ele>635.2</ele>
        <time>2025-09-16T14:19:50Z</time>
      </trkpt>
      <trkpt lat="43.65863" lon="2.38088">
        <ele>635.4</ele>
        <time>2025-09-16T14:19:51Z</time>
      </trkpt>
      <trkpt lat="43.65863" lon="2.3809">
        <ele>635.4</ele>
        <time>2025-09-16T14:19:52Z</time>
      </trkpt>
      <trkpt lat="43.65864" lon="2.38092">
        <ele>635.6</ele>
        <time>2025-09-16T14:19:53Z</time>
      </trkpt>
      <trkpt lat="43.65864" lon="2.38093">
        <ele>635.6</ele>
        <time>2025-09-16T14:19:54Z</time>
      </trkpt>
      <trkpt lat="43.65864" lon="2.38094">
        <ele>635.8</ele>
        <time>2025-09-16T14:19:55Z</time>
      </trkpt>
      <trkpt lat="43.65864" lon="2.38096">
        <ele>636</ele>
        <time>2025-09-16T14:19:56Z</time>
      </trkpt>
      <trkpt lat="43.65862" lon="2.38109">
        <ele>638</ele>
        <time>2025-09-16T14:20:05Z</time>
      </trkpt>
      <trkpt lat="43.65862" lon="2.38109">
        <ele>638.2</ele>
        <time>2025-09-16T14:20:06Z</time>
      </trkpt>
      <trkpt lat="43.65862" lon="2.38109">
        <ele>638.4</ele>
        <time>2025-09-16T14:20:07Z</time>
      </trkpt>
      <trkpt lat="43.65862" lon="2.38109">
        <ele>638.6</ele>
        <time>2025-09-16T14:20:08Z</time>
      </trkpt>
      <trkpt lat="43.6586" lon="2.38116">
        <ele>638.8</ele>
        <time>2025-09-16T14:20:20Z</time>
      </trkpt>
      <trkpt lat="43.65859" lon="2.38119">
        <ele>639</ele>
        <time>2025-09-16T14:20:21Z</time>
      </trkpt>
      <trkpt lat="43.65858" lon="2.38121">
        <ele>639</ele>
        <time>2025-09-16T14:20:22Z</time>
      </trkpt>
      <trkpt lat="43.65858" lon="2.38123">
        <ele>639.2</ele>
        <time>2025-09-16T14:20:23Z</time>
      </trkpt>
      <trkpt lat="43.65859" lon="2.38124">
        <ele>639.4</ele>
        <time>2025-09-16T14:20:24Z</time>
      </trkpt>
      <trkpt lat="43.65859" lon="2.38126">
        <ele>639.4</ele>
        <time>2025-09-16T14:20:25Z</time>
      </trkpt>
      <trkpt lat="43.65859" lon="2.38128">
        <ele>639.6</ele>
        <time>2025-09-16T14:20:26Z</time>
      </trkpt>
      <trkpt lat="43.65859" lon="2.3813">
        <ele>639.6</ele>
        <time>2025-09-16T14:20:27Z</time>
      </trkpt>
      <trkpt lat="43.65859" lon="2.38132">
        <ele>639.8</ele>
        <time>2025-09-16T14:20:28Z</time>
      </trkpt>
      <trkpt lat="43.6586" lon="2.38134">
        <ele>639.8</ele>
        <time>2025-09-16T14:20:29Z</time>
      </trkpt>
      <trkpt lat="43.6586" lon="2.38136">
        <ele>640</ele>
        <time>2025-09-16T14:20:30Z</time>
      </trkpt>
      <trkpt lat="43.6586" lon="2.38137">
        <ele>640</ele>
        <time>2025-09-16T14:20:31Z</time>
      </trkpt>
      <trkpt lat="43.65861" lon="2.38139">
        <ele>640.2</ele>
        <time>2025-09-16T14:20:32Z</time>
      </trkpt>
      <trkpt lat="43.65861" lon="2.38141">
        <ele>640.4</ele>
        <time>2025-09-16T14:20:33Z</time>
      </trkpt>
      <trkpt lat="43.65861" lon="2.38142">
        <ele>640.6</ele>
        <time>2025-09-16T14:20:34Z</time>
      </trkpt>
      <trkpt lat="43.65861" lon="2.38142">
        <ele>640.6</ele>
        <time>2025-09-16T14:20:35Z</time>
      </trkpt>
      <trkpt lat="43.65861" lon="2.38151">
        <ele>641.4</ele>
        <time>2025-09-16T14:20:52Z</time>
      </trkpt>
      <trkpt lat="43.65861" lon="2.38153">
        <ele>641.4</ele>
        <time>2025-09-16T14:20:53Z</time>
      </trkpt>
      <trkpt lat="43.65861" lon="2.38154">
        <ele>641.6</ele>
        <time>2025-09-16T14:20:54Z</time>
      </trkpt>
      <trkpt lat="43.65861" lon="2.38154">
        <ele>641.8</ele>
        <time>2025-09-16T14:20:55Z</time>
      </trkpt>
      <trkpt lat="43.65862" lon="2.38194">
        <ele>644.2</ele>
        <time>2025-09-16T14:21:22Z</time>
      </trkpt>
      <trkpt lat="43.65862" lon="2.38196">
        <ele>644.4</ele>
        <time>2025-09-16T14:21:23Z</time>
      </trkpt>
      <trkpt lat="43.65861" lon="2.38199">
        <ele>644.4</ele>
        <time>2025-09-16T14:21:24Z</time>
      </trkpt>
      <trkpt lat="43.65861" lon="2.38202">
        <ele>644.4</ele>
        <time>2025-09-16T14:21:25Z</time>
      </trkpt>
      <trkpt lat="43.65861" lon="2.38205">
        <ele>644.6</ele>
        <time>2025-09-16T14:21:26Z</time>
      </trkpt>
      <trkpt lat="43.65861" lon="2.38208">
        <ele>644.6</ele>
        <time>2025-09-16T14:21:27Z</time>
      </trkpt>
      <trkpt lat="43.65861" lon="2.38211">
        <ele>644.6</ele>
        <time>2025-09-16T14:21:28Z</time>
      </trkpt>
      <trkpt lat="43.6586" lon="2.38213">
        <ele>644.6</ele>
        <time>2025-09-16T14:21:29Z</time>
      </trkpt>
      <trkpt lat="43.65859" lon="2.38216">
        <ele>644.6</ele>
        <time>2025-09-16T14:21:30Z</time>
      </trkpt>
      <trkpt lat="43.65858" lon="2.38219">
        <ele>644.6</ele>
        <time>2025-09-16T14:21:31Z</time>
      </trkpt>
      <trkpt lat="43.65857" lon="2.38221">
        <ele>644.8</ele>
        <time>2025-09-16T14:21:32Z</time>
      </trkpt>
      <trkpt lat="43.65856" lon="2.38224">
        <ele>644.8</ele>
        <time>2025-09-16T14:21:33Z</time>
      </trkpt>
      <trkpt lat="43.65855" lon="2.38226">
        <ele>645</ele>
        <time>2025-09-16T14:21:34Z</time>
      </trkpt>
      <trkpt lat="43.65854" lon="2.38228">
        <ele>645</ele>
        <time>2025-09-16T14:21:35Z</time>
      </trkpt>
      <trkpt lat="43.65853" lon="2.3823">
        <ele>645.2</ele>
        <time>2025-09-16T14:21:36Z</time>
      </trkpt>
      <trkpt lat="43.65851" lon="2.38232">
        <ele>645.2</ele>
        <time>2025-09-16T14:21:37Z</time>
      </trkpt>
      <trkpt lat="43.6585" lon="2.38234">
        <ele>645.4</ele>
        <time>2025-09-16T14:21:38Z</time>
      </trkpt>
      <trkpt lat="43.65849" lon="2.38235">
        <ele>645.4</ele>
        <time>2025-09-16T14:21:39Z</time>
      </trkpt>
      <trkpt lat="43.65847" lon="2.38237">
        <ele>645.4</ele>
        <time>2025-09-16T14:21:40Z</time>
      </trkpt>
      <trkpt lat="43.65846" lon="2.38239">
        <ele>645.6</ele>
        <time>2025-09-16T14:21:41Z</time>
      </trkpt>
      <trkpt lat="43.65844" lon="2.38241">
        <ele>645.6</ele>
        <time>2025-09-16T14:21:42Z</time>
      </trkpt>
      <trkpt lat="43.65843" lon="2.38243">
        <ele>645.8</ele>
        <time>2025-09-16T14:21:43Z</time>
      </trkpt>
      <trkpt lat="43.65842" lon="2.38245">
        <ele>645.8</ele>
        <time>2025-09-16T14:21:44Z</time>
      </trkpt>
      <trkpt lat="43.65841" lon="2.38247">
        <ele>645.8</ele>
        <time>2025-09-16T14:21:45Z</time>
      </trkpt>
      <trkpt lat="43.65841" lon="2.38249">
        <ele>646</ele>
        <time>2025-09-16T14:21:46Z</time>
      </trkpt>
      <trkpt lat="43.65841" lon="2.38251">
        <ele>646.2</ele>
        <time>2025-09-16T14:21:47Z</time>
      </trkpt>
      <trkpt lat="43.65841" lon="2.38253">
        <ele>646.2</ele>
        <time>2025-09-16T14:21:48Z</time>
      </trkpt>
      <trkpt lat="43.65841" lon="2.38255">
        <ele>646.4</ele>
        <time>2025-09-16T14:21:49Z</time>
      </trkpt>
      <trkpt lat="43.6584" lon="2.38258">
        <ele>646.4</ele>
        <time>2025-09-16T14:21:50Z</time>
      </trkpt>
      <trkpt lat="43.6584" lon="2.38261">
        <ele>646.6</ele>
        <time>2025-09-16T14:21:51Z</time>
      </trkpt>
      <trkpt lat="43.65839" lon="2.38264">
        <ele>646.6</ele>
        <time>2025-09-16T14:21:52Z</time>
      </trkpt>
      <trkpt lat="43.65838" lon="2.38267">
        <ele>646.6</ele>
        <time>2025-09-16T14:21:53Z</time>
      </trkpt>
      <trkpt lat="43.65838" lon="2.3827">
        <ele>646.6</ele>
        <time>2025-09-16T14:21:54Z</time>
      </trkpt>
      <trkpt lat="43.65837" lon="2.38273">
        <ele>646.6</ele>
        <time>2025-09-16T14:21:55Z</time>
      </trkpt>
      <trkpt lat="43.65837" lon="2.38276">
        <ele>646.8</ele>
        <time>2025-09-16T14:21:56Z</time>
      </trkpt>
      <trkpt lat="43.65837" lon="2.38279">
        <ele>646.8</ele>
        <time>2025-09-16T14:21:57Z</time>
      </trkpt>
      <trkpt lat="43.65837" lon="2.38282">
        <ele>646.8</ele>
        <time>2025-09-16T14:21:58Z</time>
      </trkpt>
      <trkpt lat="43.65837" lon="2.38285">
        <ele>647</ele>
        <time>2025-09-16T14:21:59Z</time>
      </trkpt>
      <trkpt lat="43.65838" lon="2.38288">
        <ele>647</ele>
        <time>2025-09-16T14:22:00Z</time>
      </trkpt>
      <trkpt lat="43.65837" lon="2.38291">
        <ele>647.2</ele>
        <time>2025-09-16T14:22:01Z</time>
      </trkpt>
      <trkpt lat="43.65838" lon="2.38294">
        <ele>647.2</ele>
        <time>2025-09-16T14:22:02Z</time>
      </trkpt>
      <trkpt lat="43.65838" lon="2.38297">
        <ele>647.4</ele>
        <time>2025-09-16T14:22:03Z</time>
      </trkpt>
      <trkpt lat="43.65839" lon="2.383">
        <ele>647.4</ele>
        <time>2025-09-16T14:22:04Z</time>
      </trkpt>
      <trkpt lat="43.65839" lon="2.38303">
        <ele>647.6</ele>
        <time>2025-09-16T14:22:05Z</time>
      </trkpt>
      <trkpt lat="43.6584" lon="2.38306">
        <ele>647.6</ele>
        <time>2025-09-16T14:22:06Z</time>
      </trkpt>
      <trkpt lat="43.6584" lon="2.38309">
        <ele>647.6</ele>
        <time>2025-09-16T14:22:07Z</time>
      </trkpt>
      <trkpt lat="43.6584" lon="2.38312">
        <ele>647.8</ele>
        <time>2025-09-16T14:22:08Z</time>
      </trkpt>
      <trkpt lat="43.6584" lon="2.38315">
        <ele>647.8</ele>
        <time>2025-09-16T14:22:09Z</time>
      </trkpt>
      <trkpt lat="43.65841" lon="2.38317">
        <ele>647.8</ele>
        <time>2025-09-16T14:22:10Z</time>
      </trkpt>
      <trkpt lat="43.65841" lon="2.3832">
        <ele>648</ele>
        <time>2025-09-16T14:22:11Z</time>
      </trkpt>
      <trkpt lat="43.65841" lon="2.38323">
        <ele>648</ele>
        <time>2025-09-16T14:22:12Z</time>
      </trkpt>
      <trkpt lat="43.65841" lon="2.38326">
        <ele>648</ele>
        <time>2025-09-16T14:22:13Z</time>
      </trkpt>
      <trkpt lat="43.65841" lon="2.3833">
        <ele>647.8</ele>
        <time>2025-09-16T14:22:14Z</time>
      </trkpt>
      <trkpt lat="43.6584" lon="2.38334">
        <ele>647.8</ele>
        <time>2025-09-16T14:22:15Z</time>
      </trkpt>
      <trkpt lat="43.65839" lon="2.38338">
        <ele>647.8</ele>
        <time>2025-09-16T14:22:16Z</time>
      </trkpt>
      <trkpt lat="43.65838" lon="2.38342">
        <ele>647.6</ele>
        <time>2025-09-16T14:22:17Z</time>
      </trkpt>
      <trkpt lat="43.65837" lon="2.38346">
        <ele>647.6</ele>
        <time>2025-09-16T14:22:18Z</time>
      </trkpt>
      <trkpt lat="43.65836" lon="2.3835">
        <ele>647.6</ele>
        <time>2025-09-16T14:22:19Z</time>
      </trkpt>
      <trkpt lat="43.65836" lon="2.38354">
        <ele>647.4</ele>
        <time>2025-09-16T14:22:20Z</time>
      </trkpt>
      <trkpt lat="43.65835" lon="2.38358">
        <ele>647.6</ele>
        <time>2025-09-16T14:22:21Z</time>
      </trkpt>
      <trkpt lat="43.65834" lon="2.38362">
        <ele>647.4</ele>
        <time>2025-09-16T14:22:22Z</time>
      </trkpt>
      <trkpt lat="43.65834" lon="2.38367">
        <ele>647.2</ele>
        <time>2025-09-16T14:22:23Z</time>
      </trkpt>
      <trkpt lat="43.65833" lon="2.38371">
        <ele>647.2</ele>
        <time>2025-09-16T14:22:24Z</time>
      </trkpt>
      <trkpt lat="43.65832" lon="2.38375">
        <ele>647.2</ele>
        <time>2025-09-16T14:22:25Z</time>
      </trkpt>
      <trkpt lat="43.65832" lon="2.38379">
        <ele>647</ele>
        <time>2025-09-16T14:22:26Z</time>
      </trkpt>
      <trkpt lat="43.65831" lon="2.38382">
        <ele>646.8</ele>
        <time>2025-09-16T14:22:27Z</time>
      </trkpt>
      <trkpt lat="43.65831" lon="2.38386">
        <ele>646.8</ele>
        <time>2025-09-16T14:22:28Z</time>
      </trkpt>
      <trkpt lat="43.65831" lon="2.3839">
        <ele>646.8</ele>
        <time>2025-09-16T14:22:29Z</time>
      </trkpt>
      <trkpt lat="43.65832" lon="2.38394">
        <ele>646.4</ele>
        <time>2025-09-16T14:22:30Z</time>
      </trkpt>
      <trkpt lat="43.65832" lon="2.38398">
        <ele>646.2</ele>
        <time>2025-09-16T14:22:31Z</time>
      </trkpt>
      <trkpt lat="43.65831" lon="2.38403">
        <ele>646</ele>
        <time>2025-09-16T14:22:32Z</time>
      </trkpt>
      <trkpt lat="43.65831" lon="2.38408">
        <ele>646</ele>
        <time>2025-09-16T14:22:33Z</time>
      </trkpt>
      <trkpt lat="43.6583" lon="2.38413">
        <ele>645.8</ele>
        <time>2025-09-16T14:22:34Z</time>
      </trkpt>
      <trkpt lat="43.6583" lon="2.38418">
        <ele>645.8</ele>
        <time>2025-09-16T14:22:35Z</time>
      </trkpt>
      <trkpt lat="43.6583" lon="2.38422">
        <ele>645.8</ele>
        <time>2025-09-16T14:22:36Z</time>
      </trkpt>
      <trkpt lat="43.6583" lon="2.38427">
        <ele>645.8</ele>
        <time>2025-09-16T14:22:37Z</time>
      </trkpt>
      <trkpt lat="43.6583" lon="2.38431">
        <ele>645.8</ele>
        <time>2025-09-16T14:22:38Z</time>
      </trkpt>
      <trkpt lat="43.6583" lon="2.38436">
        <ele>645.8</ele>
        <time>2025-09-16T14:22:39Z</time>
      </trkpt>
      <trkpt lat="43.6583" lon="2.38441">
        <ele>645.8</ele>
        <time>2025-09-16T14:22:40Z</time>
      </trkpt>
      <trkpt lat="43.65831" lon="2.38445">
        <ele>645.8</ele>
        <time>2025-09-16T14:22:41Z</time>
      </trkpt>
      <trkpt lat="43.65832" lon="2.38449">
        <ele>645.8</ele>
        <time>2025-09-16T14:22:42Z</time>
      </trkpt>
      <trkpt lat="43.65832" lon="2.38453">
        <ele>645.8</ele>
        <time>2025-09-16T14:22:43Z</time>
      </trkpt>
      <trkpt lat="43.65833" lon="2.38457">
        <ele>645.8</ele>
        <time>2025-09-16T14:22:44Z</time>
      </trkpt>
      <trkpt lat="43.65835" lon="2.38461">
        <ele>645.8</ele>
        <time>2025-09-16T14:22:45Z</time>
      </trkpt>
      <trkpt lat="43.65836" lon="2.38464">
        <ele>645.8</ele>
        <time>2025-09-16T14:22:46Z</time>
      </trkpt>
      <trkpt lat="43.65838" lon="2.38468">
        <ele>646</ele>
        <time>2025-09-16T14:22:47Z</time>
      </trkpt>
      <trkpt lat="43.65839" lon="2.38472">
        <ele>646</ele>
        <time>2025-09-16T14:22:48Z</time>
      </trkpt>
      <trkpt lat="43.6584" lon="2.38475">
        <ele>646.2</ele>
        <time>2025-09-16T14:22:49Z</time>
      </trkpt>
      <trkpt lat="43.6584" lon="2.38478">
        <ele>646.2</ele>
        <time>2025-09-16T14:22:50Z</time>
      </trkpt>
      <trkpt lat="43.65841" lon="2.38481">
        <ele>646.4</ele>
        <time>2025-09-16T14:22:51Z</time>
      </trkpt>
      <trkpt lat="43.65841" lon="2.38485">
        <ele>646.6</ele>
        <time>2025-09-16T14:22:52Z</time>
      </trkpt>
      <trkpt lat="43.65843" lon="2.38489">
        <ele>646.8</ele>
        <time>2025-09-16T14:22:53Z</time>
      </trkpt>
      <trkpt lat="43.65845" lon="2.38493">
        <ele>647</ele>
        <time>2025-09-16T14:22:54Z</time>
      </trkpt>
      <trkpt lat="43.65847" lon="2.38495">
        <ele>647.4</ele>
        <time>2025-09-16T14:22:55Z</time>
      </trkpt>
      <trkpt lat="43.65848" lon="2.38498">
        <ele>647.6</ele>
        <time>2025-09-16T14:22:56Z</time>
      </trkpt>
      <trkpt lat="43.65849" lon="2.38502">
        <ele>647.8</ele>
        <time>2025-09-16T14:22:57Z</time>
      </trkpt>
      <trkpt lat="43.6585" lon="2.38505">
        <ele>648</ele>
        <time>2025-09-16T14:22:58Z</time>
      </trkpt>
      <trkpt lat="43.65851" lon="2.38508">
        <ele>648.4</ele>
        <time>2025-09-16T14:22:59Z</time>
      </trkpt>
      <trkpt lat="43.65852" lon="2.38512">
        <ele>648.6</ele>
        <time>2025-09-16T14:23:00Z</time>
      </trkpt>
      <trkpt lat="43.65854" lon="2.38515">
        <ele>648.8</ele>
        <time>2025-09-16T14:23:01Z</time>
      </trkpt>
      <trkpt lat="43.65856" lon="2.38518">
        <ele>649</ele>
        <time>2025-09-16T14:23:02Z</time>
      </trkpt>
      <trkpt lat="43.65857" lon="2.38521">
        <ele>649.4</ele>
        <time>2025-09-16T14:23:03Z</time>
      </trkpt>
      <trkpt lat="43.65857" lon="2.38524">
        <ele>649.6</ele>
        <time>2025-09-16T14:23:04Z</time>
      </trkpt>
      <trkpt lat="43.65859" lon="2.38525">
        <ele>649.8</ele>
        <time>2025-09-16T14:23:05Z</time>
      </trkpt>
      <trkpt lat="43.6586" lon="2.38528">
        <ele>650</ele>
        <time>2025-09-16T14:23:06Z</time>
      </trkpt>
      <trkpt lat="43.6586" lon="2.3853">
        <ele>650.2</ele>
        <time>2025-09-16T14:23:07Z</time>
      </trkpt>
      <trkpt lat="43.65861" lon="2.38533">
        <ele>650.6</ele>
        <time>2025-09-16T14:23:08Z</time>
      </trkpt>
      <trkpt lat="43.65862" lon="2.38535">
        <ele>650.8</ele>
        <time>2025-09-16T14:23:09Z</time>
      </trkpt>
      <trkpt lat="43.65862" lon="2.38537">
        <ele>651</ele>
        <time>2025-09-16T14:23:10Z</time>
      </trkpt>
      <trkpt lat="43.65863" lon="2.3854">
        <ele>651.2</ele>
        <time>2025-09-16T14:23:11Z</time>
      </trkpt>
      <trkpt lat="43.65864" lon="2.38542">
        <ele>651.4</ele>
        <time>2025-09-16T14:23:12Z</time>
      </trkpt>
      <trkpt lat="43.65864" lon="2.38544">
        <ele>651.6</ele>
        <time>2025-09-16T14:23:13Z</time>
      </trkpt>
      <trkpt lat="43.65865" lon="2.38546">
        <ele>651.8</ele>
        <time>2025-09-16T14:23:14Z</time>
      </trkpt>
      <trkpt lat="43.65866" lon="2.38548">
        <ele>652</ele>
        <time>2025-09-16T14:23:15Z</time>
      </trkpt>
      <trkpt lat="43.65867" lon="2.3855">
        <ele>652.2</ele>
        <time>2025-09-16T14:23:16Z</time>
      </trkpt>
      <trkpt lat="43.65869" lon="2.38551">
        <ele>652.2</ele>
        <time>2025-09-16T14:23:17Z</time>
      </trkpt>
      <trkpt lat="43.65869" lon="2.38553">
        <ele>652.4</ele>
        <time>2025-09-16T14:23:18Z</time>
      </trkpt>
      <trkpt lat="43.6587" lon="2.38555">
        <ele>652.6</ele>
        <time>2025-09-16T14:23:19Z</time>
      </trkpt>
      <trkpt lat="43.65871" lon="2.38557">
        <ele>652.6</ele>
        <time>2025-09-16T14:23:20Z</time>
      </trkpt>
      <trkpt lat="43.65872" lon="2.3856">
        <ele>652.8</ele>
        <time>2025-09-16T14:23:21Z</time>
      </trkpt>
      <trkpt lat="43.65872" lon="2.38562">
        <ele>653</ele>
        <time>2025-09-16T14:23:22Z</time>
      </trkpt>
      <trkpt lat="43.65873" lon="2.38564">
        <ele>653</ele>
        <time>2025-09-16T14:23:23Z</time>
      </trkpt>
      <trkpt lat="43.65874" lon="2.38566">
        <ele>653.2</ele>
        <time>2025-09-16T14:23:24Z</time>
      </trkpt>
      <trkpt lat="43.65874" lon="2.38568">
        <ele>653.4</ele>
        <time>2025-09-16T14:23:25Z</time>
      </trkpt>
      <trkpt lat="43.65875" lon="2.38571">
        <ele>653.4</ele>
        <time>2025-09-16T14:23:26Z</time>
      </trkpt>
      <trkpt lat="43.65875" lon="2.38573">
        <ele>653.6</ele>
        <time>2025-09-16T14:23:27Z</time>
      </trkpt>
      <trkpt lat="43.65876" lon="2.38575">
        <ele>653.8</ele>
        <time>2025-09-16T14:23:28Z</time>
      </trkpt>
      <trkpt lat="43.65877" lon="2.38577">
        <ele>653.8</ele>
        <time>2025-09-16T14:23:29Z</time>
      </trkpt>
      <trkpt lat="43.65878" lon="2.3858">
        <ele>654</ele>
        <time>2025-09-16T14:23:30Z</time>
      </trkpt>
      <trkpt lat="43.65879" lon="2.38582">
        <ele>654</ele>
        <time>2025-09-16T14:23:31Z</time>
      </trkpt>
      <trkpt lat="43.6588" lon="2.38584">
        <ele>654.2</ele>
        <time>2025-09-16T14:23:32Z</time>
      </trkpt>
      <trkpt lat="43.65881" lon="2.38586">
        <ele>654.4</ele>
        <time>2025-09-16T14:23:33Z</time>
      </trkpt>
      <trkpt lat="43.65882" lon="2.38588">
        <ele>654.6</ele>
        <time>2025-09-16T14:23:34Z</time>
      </trkpt>
      <trkpt lat="43.65882" lon="2.38591">
        <ele>654.6</ele>
        <time>2025-09-16T14:23:35Z</time>
      </trkpt>
      <trkpt lat="43.65883" lon="2.38593">
        <ele>654.8</ele>
        <time>2025-09-16T14:23:36Z</time>
      </trkpt>
      <trkpt lat="43.65883" lon="2.38595">
        <ele>655</ele>
        <time>2025-09-16T14:23:37Z</time>
      </trkpt>
      <trkpt lat="43.65884" lon="2.38596">
        <ele>655.2</ele>
        <time>2025-09-16T14:23:38Z</time>
      </trkpt>
      <trkpt lat="43.65885" lon="2.38598">
        <ele>655.4</ele>
        <time>2025-09-16T14:23:39Z</time>
      </trkpt>
      <trkpt lat="43.65886" lon="2.38599">
        <ele>655.4</ele>
        <time>2025-09-16T14:23:40Z</time>
      </trkpt>
      <trkpt lat="43.65887" lon="2.38601">
        <ele>655.6</ele>
        <time>2025-09-16T14:23:41Z</time>
      </trkpt>
      <trkpt lat="43.65888" lon="2.38603">
        <ele>655.6</ele>
        <time>2025-09-16T14:23:42Z</time>
      </trkpt>
      <trkpt lat="43.65889" lon="2.38605">
        <ele>655.6</ele>
        <time>2025-09-16T14:23:43Z</time>
      </trkpt>
      <trkpt lat="43.6589" lon="2.38607">
        <ele>655.8</ele>
        <time>2025-09-16T14:23:44Z</time>
      </trkpt>
      <trkpt lat="43.65891" lon="2.38608">
        <ele>656</ele>
        <time>2025-09-16T14:23:45Z</time>
      </trkpt>
      <trkpt lat="43.65892" lon="2.3861">
        <ele>656</ele>
        <time>2025-09-16T14:23:46Z</time>
      </trkpt>
      <trkpt lat="43.65893" lon="2.38611">
        <ele>656.2</ele>
        <time>2025-09-16T14:23:47Z</time>
      </trkpt>
      <trkpt lat="43.65894" lon="2.38613">
        <ele>656.2</ele>
        <time>2025-09-16T14:23:48Z</time>
      </trkpt>
      <trkpt lat="43.65894" lon="2.38615">
        <ele>656.4</ele>
        <time>2025-09-16T14:23:49Z</time>
      </trkpt>
      <trkpt lat="43.65894" lon="2.38617">
        <ele>656.6</ele>
        <time>2025-09-16T14:23:50Z</time>
      </trkpt>
      <trkpt lat="43.65895" lon="2.3862">
        <ele>656.6</ele>
        <time>2025-09-16T14:23:51Z</time>
      </trkpt>
      <trkpt lat="43.65896" lon="2.38622">
        <ele>656.8</ele>
        <time>2025-09-16T14:23:52Z</time>
      </trkpt>
      <trkpt lat="43.65897" lon="2.38625">
        <ele>656.8</ele>
        <time>2025-09-16T14:23:53Z</time>
      </trkpt>
      <trkpt lat="43.65898" lon="2.38628">
        <ele>657</ele>
        <time>2025-09-16T14:23:54Z</time>
      </trkpt>
      <trkpt lat="43.65899" lon="2.3863">
        <ele>657</ele>
        <time>2025-09-16T14:23:55Z</time>
      </trkpt>
      <trkpt lat="43.659" lon="2.38632">
        <ele>657.2</ele>
        <time>2025-09-16T14:23:56Z</time>
      </trkpt>
      <trkpt lat="43.659" lon="2.38634">
        <ele>657.4</ele>
        <time>2025-09-16T14:23:57Z</time>
      </trkpt>
      <trkpt lat="43.65901" lon="2.38635">
        <ele>657.4</ele>
        <time>2025-09-16T14:23:58Z</time>
      </trkpt>
      <trkpt lat="43.65902" lon="2.38638">
        <ele>657.6</ele>
        <time>2025-09-16T14:23:59Z</time>
      </trkpt>
      <trkpt lat="43.65903" lon="2.38641">
        <ele>657.8</ele>
        <time>2025-09-16T14:24:00Z</time>
      </trkpt>
      <trkpt lat="43.65904" lon="2.38644">
        <ele>657.8</ele>
        <time>2025-09-16T14:24:01Z</time>
      </trkpt>
      <trkpt lat="43.65904" lon="2.38645">
        <ele>658</ele>
        <time>2025-09-16T14:24:02Z</time>
      </trkpt>
      <trkpt lat="43.65904" lon="2.38647">
        <ele>658</ele>
        <time>2025-09-16T14:24:03Z</time>
      </trkpt>
      <trkpt lat="43.65905" lon="2.38649">
        <ele>658.2</ele>
        <time>2025-09-16T14:24:04Z</time>
      </trkpt>
      <trkpt lat="43.65905" lon="2.38652">
        <ele>658.4</ele>
        <time>2025-09-16T14:24:05Z</time>
      </trkpt>
      <trkpt lat="43.65906" lon="2.38654">
        <ele>658.4</ele>
        <time>2025-09-16T14:24:06Z</time>
      </trkpt>
      <trkpt lat="43.65907" lon="2.38657">
        <ele>658.6</ele>
        <time>2025-09-16T14:24:07Z</time>
      </trkpt>
      <trkpt lat="43.65907" lon="2.38659">
        <ele>658.6</ele>
        <time>2025-09-16T14:24:08Z</time>
      </trkpt>
      <trkpt lat="43.65907" lon="2.38662">
        <ele>658.8</ele>
        <time>2025-09-16T14:24:09Z</time>
      </trkpt>
      <trkpt lat="43.65908" lon="2.38664">
        <ele>658.8</ele>
        <time>2025-09-16T14:24:10Z</time>
      </trkpt>
      <trkpt lat="43.65909" lon="2.38666">
        <ele>659</ele>
        <time>2025-09-16T14:24:11Z</time>
      </trkpt>
      <trkpt lat="43.65909" lon="2.3867">
        <ele>659</ele>
        <time>2025-09-16T14:24:12Z</time>
      </trkpt>
      <trkpt lat="43.6591" lon="2.38674">
        <ele>659.2</ele>
        <time>2025-09-16T14:24:13Z</time>
      </trkpt>
      <trkpt lat="43.6591" lon="2.38676">
        <ele>659.2</ele>
        <time>2025-09-16T14:24:14Z</time>
      </trkpt>
      <trkpt lat="43.6591" lon="2.38679">
        <ele>659.4</ele>
        <time>2025-09-16T14:24:15Z</time>
      </trkpt>
      <trkpt lat="43.65911" lon="2.38681">
        <ele>659.4</ele>
        <time>2025-09-16T14:24:16Z</time>
      </trkpt>
      <trkpt lat="43.65912" lon="2.38683">
        <ele>659.6</ele>
        <time>2025-09-16T14:24:17Z</time>
      </trkpt>
      <trkpt lat="43.65912" lon="2.38686">
        <ele>659.6</ele>
        <time>2025-09-16T14:24:18Z</time>
      </trkpt>
      <trkpt lat="43.65913" lon="2.38689">
        <ele>659.6</ele>
        <time>2025-09-16T14:24:19Z</time>
      </trkpt>
      <trkpt lat="43.65913" lon="2.38692">
        <ele>659.8</ele>
        <time>2025-09-16T14:24:20Z</time>
      </trkpt>
      <trkpt lat="43.65914" lon="2.38695">
        <ele>659.8</ele>
        <time>2025-09-16T14:24:21Z</time>
      </trkpt>
      <trkpt lat="43.65915" lon="2.38697">
        <ele>660</ele>
        <time>2025-09-16T14:24:22Z</time>
      </trkpt>
      <trkpt lat="43.65915" lon="2.387">
        <ele>660</ele>
        <time>2025-09-16T14:24:23Z</time>
      </trkpt>
      <trkpt lat="43.65916" lon="2.38702">
        <ele>660</ele>
        <time>2025-09-16T14:24:24Z</time>
      </trkpt>
      <trkpt lat="43.65917" lon="2.38704">
        <ele>660.2</ele>
        <time>2025-09-16T14:24:25Z</time>
      </trkpt>
      <trkpt lat="43.65918" lon="2.38706">
        <ele>660.2</ele>
        <time>2025-09-16T14:24:26Z</time>
      </trkpt>
      <trkpt lat="43.65919" lon="2.38708">
        <ele>660.4</ele>
        <time>2025-09-16T14:24:27Z</time>
      </trkpt>
      <trkpt lat="43.6592" lon="2.38711">
        <ele>660.6</ele>
        <time>2025-09-16T14:24:28Z</time>
      </trkpt>
      <trkpt lat="43.6592" lon="2.38712">
        <ele>660.6</ele>
        <time>2025-09-16T14:24:29Z</time>
      </trkpt>
      <trkpt lat="43.6592" lon="2.38714">
        <ele>660.8</ele>
        <time>2025-09-16T14:24:30Z</time>
      </trkpt>
      <trkpt lat="43.65919" lon="2.38716">
        <ele>661</ele>
        <time>2025-09-16T14:24:31Z</time>
      </trkpt>
      <trkpt lat="43.65919" lon="2.38719">
        <ele>661.2</ele>
        <time>2025-09-16T14:24:32Z</time>
      </trkpt>
      <trkpt lat="43.65919" lon="2.38721">
        <ele>661.2</ele>
        <time>2025-09-16T14:24:33Z</time>
      </trkpt>
      <trkpt lat="43.65919" lon="2.38724">
        <ele>661.4</ele>
        <time>2025-09-16T14:24:34Z</time>
      </trkpt>
      <trkpt lat="43.65919" lon="2.38726">
        <ele>661.4</ele>
        <time>2025-09-16T14:24:35Z</time>
      </trkpt>
      <trkpt lat="43.65919" lon="2.38729">
        <ele>661.6</ele>
        <time>2025-09-16T14:24:36Z</time>
      </trkpt>
      <trkpt lat="43.6592" lon="2.38731">
        <ele>661.8</ele>
        <time>2025-09-16T14:24:37Z</time>
      </trkpt>
      <trkpt lat="43.6592" lon="2.38733">
        <ele>662</ele>
        <time>2025-09-16T14:24:38Z</time>
      </trkpt>
      <trkpt lat="43.65921" lon="2.38735">
        <ele>662.2</ele>
        <time>2025-09-16T14:24:39Z</time>
      </trkpt>
      <trkpt lat="43.65921" lon="2.38737">
        <ele>662.4</ele>
        <time>2025-09-16T14:24:40Z</time>
      </trkpt>
      <trkpt lat="43.65921" lon="2.3874">
        <ele>662.6</ele>
        <time>2025-09-16T14:24:41Z</time>
      </trkpt>
      <trkpt lat="43.65922" lon="2.38742">
        <ele>662.8</ele>
        <time>2025-09-16T14:24:42Z</time>
      </trkpt>
      <trkpt lat="43.65922" lon="2.38744">
        <ele>663</ele>
        <time>2025-09-16T14:24:43Z</time>
      </trkpt>
      <trkpt lat="43.65922" lon="2.38747">
        <ele>663</ele>
        <time>2025-09-16T14:24:44Z</time>
      </trkpt>
      <trkpt lat="43.65921" lon="2.38749">
        <ele>663.2</ele>
        <time>2025-09-16T14:24:45Z</time>
      </trkpt>
      <trkpt lat="43.65921" lon="2.38752">
        <ele>663.4</ele>
        <time>2025-09-16T14:24:46Z</time>
      </trkpt>
      <trkpt lat="43.65922" lon="2.38754">
        <ele>663.6</ele>
        <time>2025-09-16T14:24:47Z</time>
      </trkpt>
      <trkpt lat="43.65922" lon="2.38756">
        <ele>663.6</ele>
        <time>2025-09-16T14:24:48Z</time>
      </trkpt>
      <trkpt lat="43.65923" lon="2.38758">
        <ele>663.8</ele>
        <time>2025-09-16T14:24:49Z</time>
      </trkpt>
      <trkpt lat="43.65923" lon="2.38761">
        <ele>663.8</ele>
        <time>2025-09-16T14:24:50Z</time>
      </trkpt>
      <trkpt lat="43.65924" lon="2.38762">
        <ele>664</ele>
        <time>2025-09-16T14:24:51Z</time>
      </trkpt>
      <trkpt lat="43.65924" lon="2.38764">
        <ele>664.2</ele>
        <time>2025-09-16T14:24:52Z</time>
      </trkpt>
      <trkpt lat="43.65924" lon="2.38766">
        <ele>664.4</ele>
        <time>2025-09-16T14:24:53Z</time>
      </trkpt>
      <trkpt lat="43.65924" lon="2.38768">
        <ele>664.6</ele>
        <time>2025-09-16T14:24:54Z</time>
      </trkpt>
      <trkpt lat="43.65923" lon="2.3877">
        <ele>664.8</ele>
        <time>2025-09-16T14:24:55Z</time>
      </trkpt>
      <trkpt lat="43.65923" lon="2.38772">
        <ele>665</ele>
        <time>2025-09-16T14:24:56Z</time>
      </trkpt>
      <trkpt lat="43.65923" lon="2.38774">
        <ele>665</ele>
        <time>2025-09-16T14:24:57Z</time>
      </trkpt>
      <trkpt lat="43.65923" lon="2.38775">
        <ele>665.2</ele>
        <time>2025-09-16T14:24:58Z</time>
      </trkpt>
      <trkpt lat="43.65923" lon="2.38777">
        <ele>665.4</ele>
        <time>2025-09-16T14:24:59Z</time>
      </trkpt>
      <trkpt lat="43.65924" lon="2.3878">
        <ele>665.6</ele>
        <time>2025-09-16T14:25:00Z</time>
      </trkpt>
      <trkpt lat="43.65924" lon="2.38782">
        <ele>665.6</ele>
        <time>2025-09-16T14:25:01Z</time>
      </trkpt>
      <trkpt lat="43.65924" lon="2.38785">
        <ele>665.8</ele>
        <time>2025-09-16T14:25:02Z</time>
      </trkpt>
      <trkpt lat="43.65925" lon="2.38787">
        <ele>666</ele>
        <time>2025-09-16T14:25:03Z</time>
      </trkpt>
      <trkpt lat="43.65925" lon="2.38789">
        <ele>666</ele>
        <time>2025-09-16T14:25:04Z</time>
      </trkpt>
      <trkpt lat="43.65925" lon="2.38791">
        <ele>666.2</ele>
        <time>2025-09-16T14:25:05Z</time>
      </trkpt>
      <trkpt lat="43.65925" lon="2.38793">
        <ele>666.4</ele>
        <time>2025-09-16T14:25:06Z</time>
      </trkpt>
      <trkpt lat="43.65925" lon="2.38795">
        <ele>666.6</ele>
        <time>2025-09-16T14:25:07Z</time>
      </trkpt>
      <trkpt lat="43.65925" lon="2.38798">
        <ele>666.6</ele>
        <time>2025-09-16T14:25:08Z</time>
      </trkpt>
      <trkpt lat="43.65924" lon="2.388">
        <ele>666.8</ele>
        <time>2025-09-16T14:25:09Z</time>
      </trkpt>
      <trkpt lat="43.65924" lon="2.38802">
        <ele>666.8</ele>
        <time>2025-09-16T14:25:10Z</time>
      </trkpt>
      <trkpt lat="43.65925" lon="2.38805">
        <ele>666.8</ele>
        <time>2025-09-16T14:25:11Z</time>
      </trkpt>
      <trkpt lat="43.65926" lon="2.38807">
        <ele>667</ele>
        <time>2025-09-16T14:25:12Z</time>
      </trkpt>
      <trkpt lat="43.65927" lon="2.3881">
        <ele>667</ele>
        <time>2025-09-16T14:25:13Z</time>
      </trkpt>
      <trkpt lat="43.65928" lon="2.38812">
        <ele>667.2</ele>
        <time>2025-09-16T14:25:14Z</time>
      </trkpt>
      <trkpt lat="43.65929" lon="2.38815">
        <ele>667.2</ele>
        <time>2025-09-16T14:25:15Z</time>
      </trkpt>
      <trkpt lat="43.6593" lon="2.38817">
        <ele>667.2</ele>
        <time>2025-09-16T14:25:16Z</time>
      </trkpt>
      <trkpt lat="43.65931" lon="2.38819">
        <ele>667.4</ele>
        <time>2025-09-16T14:25:17Z</time>
      </trkpt>
      <trkpt lat="43.65931" lon="2.38821">
        <ele>667.6</ele>
        <time>2025-09-16T14:25:18Z</time>
      </trkpt>
      <trkpt lat="43.65932" lon="2.38824">
        <ele>667.6</ele>
        <time>2025-09-16T14:25:19Z</time>
      </trkpt>
      <trkpt lat="43.65933" lon="2.38826">
        <ele>667.8</ele>
        <time>2025-09-16T14:25:20Z</time>
      </trkpt>
      <trkpt lat="43.65934" lon="2.38828">
        <ele>668</ele>
        <time>2025-09-16T14:25:21Z</time>
      </trkpt>
      <trkpt lat="43.65934" lon="2.38831">
        <ele>668</ele>
        <time>2025-09-16T14:25:22Z</time>
      </trkpt>
      <trkpt lat="43.65934" lon="2.38833">
        <ele>668.2</ele>
        <time>2025-09-16T14:25:23Z</time>
      </trkpt>
      <trkpt lat="43.65934" lon="2.38835">
        <ele>668.2</ele>
        <time>2025-09-16T14:25:24Z</time>
      </trkpt>
      <trkpt lat="43.65933" lon="2.38837">
        <ele>668.4</ele>
        <time>2025-09-16T14:25:25Z</time>
      </trkpt>
      <trkpt lat="43.65933" lon="2.38839">
        <ele>668.4</ele>
        <time>2025-09-16T14:25:26Z</time>
      </trkpt>
      <trkpt lat="43.65934" lon="2.38841">
        <ele>668.6</ele>
        <time>2025-09-16T14:25:27Z</time>
      </trkpt>
      <trkpt lat="43.65934" lon="2.38842">
        <ele>668.8</ele>
        <time>2025-09-16T14:25:28Z</time>
      </trkpt>
      <trkpt lat="43.65934" lon="2.38844">
        <ele>668.8</ele>
        <time>2025-09-16T14:25:29Z</time>
      </trkpt>
      <trkpt lat="43.65934" lon="2.38846">
        <ele>669</ele>
        <time>2025-09-16T14:25:30Z</time>
      </trkpt>
      <trkpt lat="43.65935" lon="2.38849">
        <ele>669</ele>
        <time>2025-09-16T14:25:31Z</time>
      </trkpt>
      <trkpt lat="43.65935" lon="2.38851">
        <ele>669.2</ele>
        <time>2025-09-16T14:25:32Z</time>
      </trkpt>
      <trkpt lat="43.65935" lon="2.38854">
        <ele>669.2</ele>
        <time>2025-09-16T14:25:33Z</time>
      </trkpt>
      <trkpt lat="43.65936" lon="2.38856">
        <ele>669.4</ele>
        <time>2025-09-16T14:25:34Z</time>
      </trkpt>
      <trkpt lat="43.65936" lon="2.38859">
        <ele>669.4</ele>
        <time>2025-09-16T14:25:35Z</time>
      </trkpt>
      <trkpt lat="43.65936" lon="2.38862">
        <ele>669.6</ele>
        <time>2025-09-16T14:25:36Z</time>
      </trkpt>
      <trkpt lat="43.65936" lon="2.38865">
        <ele>669.6</ele>
        <time>2025-09-16T14:25:37Z</time>
      </trkpt>
      <trkpt lat="43.65937" lon="2.38868">
        <ele>669.6</ele>
        <time>2025-09-16T14:25:38Z</time>
      </trkpt>
      <trkpt lat="43.65938" lon="2.38871">
        <ele>669.4</ele>
        <time>2025-09-16T14:25:39Z</time>
      </trkpt>
      <trkpt lat="43.65939" lon="2.38874">
        <ele>669.4</ele>
        <time>2025-09-16T14:25:40Z</time>
      </trkpt>
      <trkpt lat="43.65939" lon="2.38877">
        <ele>669.4</ele>
        <time>2025-09-16T14:25:41Z</time>
      </trkpt>
      <trkpt lat="43.6594" lon="2.38881">
        <ele>669.2</ele>
        <time>2025-09-16T14:25:42Z</time>
      </trkpt>
      <trkpt lat="43.65941" lon="2.38885">
        <ele>669.2</ele>
        <time>2025-09-16T14:25:43Z</time>
      </trkpt>
      <trkpt lat="43.65941" lon="2.38888">
        <ele>669.2</ele>
        <time>2025-09-16T14:25:44Z</time>
      </trkpt>
      <trkpt lat="43.65942" lon="2.38892">
        <ele>669</ele>
        <time>2025-09-16T14:25:45Z</time>
      </trkpt>
      <trkpt lat="43.65942" lon="2.38896">
        <ele>669</ele>
        <time>2025-09-16T14:25:46Z</time>
      </trkpt>
      <trkpt lat="43.65942" lon="2.38899">
        <ele>669</ele>
        <time>2025-09-16T14:25:47Z</time>
      </trkpt>
      <trkpt lat="43.65942" lon="2.38902">
        <ele>669</ele>
        <time>2025-09-16T14:25:48Z</time>
      </trkpt>
      <trkpt lat="43.65942" lon="2.38905">
        <ele>668.8</ele>
        <time>2025-09-16T14:25:49Z</time>
      </trkpt>
      <trkpt lat="43.65943" lon="2.38909">
        <ele>668.8</ele>
        <time>2025-09-16T14:25:50Z</time>
      </trkpt>
      <trkpt lat="43.65944" lon="2.38913">
        <ele>668.6</ele>
        <time>2025-09-16T14:25:51Z</time>
      </trkpt>
      <trkpt lat="43.65945" lon="2.38917">
        <ele>668.4</ele>
        <time>2025-09-16T14:25:52Z</time>
      </trkpt>
      <trkpt lat="43.65946" lon="2.38921">
        <ele>668.4</ele>
        <time>2025-09-16T14:25:53Z</time>
      </trkpt>
      <trkpt lat="43.65947" lon="2.38924">
        <ele>668.2</ele>
        <time>2025-09-16T14:25:54Z</time>
      </trkpt>
      <trkpt lat="43.65948" lon="2.38929">
        <ele>667.8</ele>
        <time>2025-09-16T14:25:55Z</time>
      </trkpt>
      <trkpt lat="43.65949" lon="2.38934">
        <ele>667.6</ele>
        <time>2025-09-16T14:25:56Z</time>
      </trkpt>
      <trkpt lat="43.65949" lon="2.3894">
        <ele>667.4</ele>
        <time>2025-09-16T14:25:57Z</time>
      </trkpt>
      <trkpt lat="43.65948" lon="2.38945">
        <ele>667.4</ele>
        <time>2025-09-16T14:25:58Z</time>
      </trkpt>
      <trkpt lat="43.65946" lon="2.38949">
        <ele>667.2</ele>
        <time>2025-09-16T14:25:59Z</time>
      </trkpt>
      <trkpt lat="43.65945" lon="2.38952">
        <ele>667.4</ele>
        <time>2025-09-16T14:26:00Z</time>
      </trkpt>
      <trkpt lat="43.65943" lon="2.38955">
        <ele>667.6</ele>
        <time>2025-09-16T14:26:01Z</time>
      </trkpt>
      <trkpt lat="43.65942" lon="2.38958">
        <ele>668</ele>
        <time>2025-09-16T14:26:02Z</time>
      </trkpt>
      <trkpt lat="43.65941" lon="2.38961">
        <ele>668.2</ele>
        <time>2025-09-16T14:26:03Z</time>
      </trkpt>
      <trkpt lat="43.6594" lon="2.38964">
        <ele>668.4</ele>
        <time>2025-09-16T14:26:04Z</time>
      </trkpt>
      <trkpt lat="43.65938" lon="2.38967">
        <ele>668.4</ele>
        <time>2025-09-16T14:26:05Z</time>
      </trkpt>
      <trkpt lat="43.65937" lon="2.3897">
        <ele>668.4</ele>
        <time>2025-09-16T14:26:06Z</time>
      </trkpt>
      <trkpt lat="43.65935" lon="2.38975">
        <ele>668.4</ele>
        <time>2025-09-16T14:26:07Z</time>
      </trkpt>
      <trkpt lat="43.65934" lon="2.38979">
        <ele>668.6</ele>
        <time>2025-09-16T14:26:08Z</time>
      </trkpt>
      <trkpt lat="43.65932" lon="2.38982">
        <ele>668.6</ele>
        <time>2025-09-16T14:26:09Z</time>
      </trkpt>
      <trkpt lat="43.6593" lon="2.38985">
        <ele>668.6</ele>
        <time>2025-09-16T14:26:10Z</time>
      </trkpt>
      <trkpt lat="43.65928" lon="2.38988">
        <ele>668.8</ele>
        <time>2025-09-16T14:26:11Z</time>
      </trkpt>
      <trkpt lat="43.65927" lon="2.3899">
        <ele>669</ele>
        <time>2025-09-16T14:26:12Z</time>
      </trkpt>
      <trkpt lat="43.65926" lon="2.38994">
        <ele>669</ele>
        <time>2025-09-16T14:26:13Z</time>
      </trkpt>
      <trkpt lat="43.65925" lon="2.38998">
        <ele>669</ele>
        <time>2025-09-16T14:26:14Z</time>
      </trkpt>
      <trkpt lat="43.65925" lon="2.39002">
        <ele>669</ele>
        <time>2025-09-16T14:26:15Z</time>
      </trkpt>
      <trkpt lat="43.65925" lon="2.39006">
        <ele>669</ele>
        <time>2025-09-16T14:26:16Z</time>
      </trkpt>
      <trkpt lat="43.65925" lon="2.39011">
        <ele>668.8</ele>
        <time>2025-09-16T14:26:17Z</time>
      </trkpt>
      <trkpt lat="43.65924" lon="2.39016">
        <ele>668.6</ele>
        <time>2025-09-16T14:26:18Z</time>
      </trkpt>
      <trkpt lat="43.65923" lon="2.39021">
        <ele>668.4</ele>
        <time>2025-09-16T14:26:19Z</time>
      </trkpt>
      <trkpt lat="43.65923" lon="2.39025">
        <ele>668.2</ele>
        <time>2025-09-16T14:26:20Z</time>
      </trkpt>
      <trkpt lat="43.65922" lon="2.3903">
        <ele>668.2</ele>
        <time>2025-09-16T14:26:21Z</time>
      </trkpt>
      <trkpt lat="43.65923" lon="2.39035">
        <ele>668.2</ele>
        <time>2025-09-16T14:26:22Z</time>
      </trkpt>
      <trkpt lat="43.65923" lon="2.39039">
        <ele>668</ele>
        <time>2025-09-16T14:26:23Z</time>
      </trkpt>
      <trkpt lat="43.65923" lon="2.39043">
        <ele>668</ele>
        <time>2025-09-16T14:26:24Z</time>
      </trkpt>
      <trkpt lat="43.65922" lon="2.39049">
        <ele>667.8</ele>
        <time>2025-09-16T14:26:25Z</time>
      </trkpt>
      <trkpt lat="43.65922" lon="2.39054">
        <ele>667.8</ele>
        <time>2025-09-16T14:26:26Z</time>
      </trkpt>
      <trkpt lat="43.65922" lon="2.39059">
        <ele>667.6</ele>
        <time>2025-09-16T14:26:27Z</time>
      </trkpt>
      <trkpt lat="43.65923" lon="2.39064">
        <ele>667.6</ele>
        <time>2025-09-16T14:26:28Z</time>
      </trkpt>
      <trkpt lat="43.65922" lon="2.39069">
        <ele>667.4</ele>
        <time>2025-09-16T14:26:29Z</time>
      </trkpt>
      <trkpt lat="43.65921" lon="2.39074">
        <ele>667.2</ele>
        <time>2025-09-16T14:26:30Z</time>
      </trkpt>
      <trkpt lat="43.6592" lon="2.39079">
        <ele>667</ele>
        <time>2025-09-16T14:26:31Z</time>
      </trkpt>
      <trkpt lat="43.65919" lon="2.39084">
        <ele>667</ele>
        <time>2025-09-16T14:26:32Z</time>
      </trkpt>
      <trkpt lat="43.65917" lon="2.39089">
        <ele>667</ele>
        <time>2025-09-16T14:26:33Z</time>
      </trkpt>
      <trkpt lat="43.65915" lon="2.39094">
        <ele>667</ele>
        <time>2025-09-16T14:26:34Z</time>
      </trkpt>
      <trkpt lat="43.65913" lon="2.39099">
        <ele>667</ele>
        <time>2025-09-16T14:26:35Z</time>
      </trkpt>
      <trkpt lat="43.65911" lon="2.39105">
        <ele>666.8</ele>
        <time>2025-09-16T14:26:36Z</time>
      </trkpt>
      <trkpt lat="43.6591" lon="2.39111">
        <ele>666.8</ele>
        <time>2025-09-16T14:26:37Z</time>
      </trkpt>
      <trkpt lat="43.65909" lon="2.39116">
        <ele>666.8</ele>
        <time>2025-09-16T14:26:38Z</time>
      </trkpt>
      <trkpt lat="43.65908" lon="2.39121">
        <ele>666.8</ele>
        <time>2025-09-16T14:26:39Z</time>
      </trkpt>
      <trkpt lat="43.65905" lon="2.39124">
        <ele>667</ele>
        <time>2025-09-16T14:26:40Z</time>
      </trkpt>
      <trkpt lat="43.65903" lon="2.39127">
        <ele>667</ele>
        <time>2025-09-16T14:26:41Z</time>
      </trkpt>
      <trkpt lat="43.65902" lon="2.39132">
        <ele>667.2</ele>
        <time>2025-09-16T14:26:42Z</time>
      </trkpt>
      <trkpt lat="43.659" lon="2.39137">
        <ele>667.2</ele>
        <time>2025-09-16T14:26:43Z</time>
      </trkpt>
      <trkpt lat="43.65898" lon="2.39141">
        <ele>667.2</ele>
        <time>2025-09-16T14:26:44Z</time>
      </trkpt>
      <trkpt lat="43.65896" lon="2.39146">
        <ele>667.2</ele>
        <time>2025-09-16T14:26:45Z</time>
      </trkpt>
      <trkpt lat="43.65893" lon="2.3915">
        <ele>667</ele>
        <time>2025-09-16T14:26:46Z</time>
      </trkpt>
      <trkpt lat="43.6589" lon="2.39156">
        <ele>667</ele>
        <time>2025-09-16T14:26:47Z</time>
      </trkpt>
      <trkpt lat="43.65888" lon="2.39161">
        <ele>666.8</ele>
        <time>2025-09-16T14:26:48Z</time>
      </trkpt>
      <trkpt lat="43.65886" lon="2.39166">
        <ele>666.6</ele>
        <time>2025-09-16T14:26:49Z</time>
      </trkpt>
      <trkpt lat="43.65884" lon="2.3917">
        <ele>666.4</ele>
        <time>2025-09-16T14:26:50Z</time>
      </trkpt>
      <trkpt lat="43.65883" lon="2.39175">
        <ele>666.2</ele>
        <time>2025-09-16T14:26:51Z</time>
      </trkpt>
      <trkpt lat="43.65882" lon="2.39178">
        <ele>666.2</ele>
        <time>2025-09-16T14:26:52Z</time>
      </trkpt>
      <trkpt lat="43.65882" lon="2.39182">
        <ele>666</ele>
        <time>2025-09-16T14:26:53Z</time>
      </trkpt>
      <trkpt lat="43.65882" lon="2.39186">
        <ele>665.8</ele>
        <time>2025-09-16T14:26:54Z</time>
      </trkpt>
      <trkpt lat="43.65883" lon="2.39191">
        <ele>665.6</ele>
        <time>2025-09-16T14:26:55Z</time>
      </trkpt>
      <trkpt lat="43.65883" lon="2.39196">
        <ele>665.2</ele>
        <time>2025-09-16T14:26:56Z</time>
      </trkpt>
      <trkpt lat="43.65884" lon="2.39201">
        <ele>664.8</ele>
        <time>2025-09-16T14:26:57Z</time>
      </trkpt>
      <trkpt lat="43.65886" lon="2.39206">
        <ele>664.2</ele>
        <time>2025-09-16T14:26:58Z</time>
      </trkpt>
      <trkpt lat="43.65888" lon="2.39211">
        <ele>664</ele>
        <time>2025-09-16T14:26:59Z</time>
      </trkpt>
      <trkpt lat="43.6589" lon="2.39216">
        <ele>663.6</ele>
        <time>2025-09-16T14:27:00Z</time>
      </trkpt>
      <trkpt lat="43.65891" lon="2.3922">
        <ele>663.4</ele>
        <time>2025-09-16T14:27:01Z</time>
      </trkpt>
      <trkpt lat="43.65891" lon="2.39225">
        <ele>663.2</ele>
        <time>2025-09-16T14:27:02Z</time>
      </trkpt>
      <trkpt lat="43.6589" lon="2.3923">
        <ele>663.2</ele>
        <time>2025-09-16T14:27:03Z</time>
      </trkpt>
      <trkpt lat="43.6589" lon="2.39234">
        <ele>663.4</ele>
        <time>2025-09-16T14:27:04Z</time>
      </trkpt>
      <trkpt lat="43.65889" lon="2.39238">
        <ele>663.4</ele>
        <time>2025-09-16T14:27:05Z</time>
      </trkpt>
      <trkpt lat="43.65889" lon="2.39241">
        <ele>663.6</ele>
        <time>2025-09-16T14:27:06Z</time>
      </trkpt>
      <trkpt lat="43.65889" lon="2.39244">
        <ele>663.8</ele>
        <time>2025-09-16T14:27:07Z</time>
      </trkpt>
      <trkpt lat="43.6589" lon="2.39248">
        <ele>664</ele>
        <time>2025-09-16T14:27:08Z</time>
      </trkpt>
      <trkpt lat="43.65892" lon="2.39252">
        <ele>664.2</ele>
        <time>2025-09-16T14:27:09Z</time>
      </trkpt>
      <trkpt lat="43.65892" lon="2.39256">
        <ele>664.2</ele>
        <time>2025-09-16T14:27:10Z</time>
      </trkpt>
      <trkpt lat="43.65893" lon="2.39261">
        <ele>664.2</ele>
        <time>2025-09-16T14:27:11Z</time>
      </trkpt>
      <trkpt lat="43.65895" lon="2.39266">
        <ele>664.2</ele>
        <time>2025-09-16T14:27:12Z</time>
      </trkpt>
      <trkpt lat="43.65897" lon="2.39271">
        <ele>664</ele>
        <time>2025-09-16T14:27:13Z</time>
      </trkpt>
      <trkpt lat="43.659" lon="2.39276">
        <ele>664</ele>
        <time>2025-09-16T14:27:14Z</time>
      </trkpt>
      <trkpt lat="43.65901" lon="2.3928">
        <ele>664</ele>
        <time>2025-09-16T14:27:15Z</time>
      </trkpt>
      <trkpt lat="43.65903" lon="2.39284">
        <ele>664</ele>
        <time>2025-09-16T14:27:16Z</time>
      </trkpt>
      <trkpt lat="43.65904" lon="2.39288">
        <ele>664</ele>
        <time>2025-09-16T14:27:17Z</time>
      </trkpt>
      <trkpt lat="43.65905" lon="2.39293">
        <ele>664.2</ele>
        <time>2025-09-16T14:27:18Z</time>
      </trkpt>
      <trkpt lat="43.65906" lon="2.39297">
        <ele>664.2</ele>
        <time>2025-09-16T14:27:19Z</time>
      </trkpt>
      <trkpt lat="43.65906" lon="2.39301">
        <ele>664.4</ele>
        <time>2025-09-16T14:27:20Z</time>
      </trkpt>
      <trkpt lat="43.65906" lon="2.39305">
        <ele>664.4</ele>
        <time>2025-09-16T14:27:21Z</time>
      </trkpt>
      <trkpt lat="43.65905" lon="2.3931">
        <ele>664.6</ele>
        <time>2025-09-16T14:27:22Z</time>
      </trkpt>
      <trkpt lat="43.65904" lon="2.39314">
        <ele>664.6</ele>
        <time>2025-09-16T14:27:23Z</time>
      </trkpt>
      <trkpt lat="43.65903" lon="2.39318">
        <ele>664.6</ele>
        <time>2025-09-16T14:27:24Z</time>
      </trkpt>
      <trkpt lat="43.65903" lon="2.39324">
        <ele>664.6</ele>
        <time>2025-09-16T14:27:25Z</time>
      </trkpt>
      <trkpt lat="43.65901" lon="2.39329">
        <ele>664.6</ele>
        <time>2025-09-16T14:27:26Z</time>
      </trkpt>
      <trkpt lat="43.65899" lon="2.39334">
        <ele>664.6</ele>
        <time>2025-09-16T14:27:27Z</time>
      </trkpt>
      <trkpt lat="43.65897" lon="2.39339">
        <ele>664.4</ele>
        <time>2025-09-16T14:27:28Z</time>
      </trkpt>
      <trkpt lat="43.65896" lon="2.39345">
        <ele>664.2</ele>
        <time>2025-09-16T14:27:29Z</time>
      </trkpt>
      <trkpt lat="43.65895" lon="2.39351">
        <ele>664</ele>
        <time>2025-09-16T14:27:30Z</time>
      </trkpt>
      <trkpt lat="43.65895" lon="2.39357">
        <ele>663.8</ele>
        <time>2025-09-16T14:27:31Z</time>
      </trkpt>
      <trkpt lat="43.65895" lon="2.39361">
        <ele>663.8</ele>
        <time>2025-09-16T14:27:32Z</time>
      </trkpt>
      <trkpt lat="43.65894" lon="2.39366">
        <ele>663.8</ele>
        <time>2025-09-16T14:27:33Z</time>
      </trkpt>
      <trkpt lat="43.65893" lon="2.3937">
        <ele>663.6</ele>
        <time>2025-09-16T14:27:34Z</time>
      </trkpt>
      <trkpt lat="43.65893" lon="2.39373">
        <ele>663.6</ele>
        <time>2025-09-16T14:27:35Z</time>
      </trkpt>
      <trkpt lat="43.65892" lon="2.39376">
        <ele>663.8</ele>
        <time>2025-09-16T14:27:36Z</time>
      </trkpt>
      <trkpt lat="43.6589" lon="2.3938">
        <ele>663.8</ele>
        <time>2025-09-16T14:27:37Z</time>
      </trkpt>
      <trkpt lat="43.65889" lon="2.39383">
        <ele>664</ele>
        <time>2025-09-16T14:27:38Z</time>
      </trkpt>
      <trkpt lat="43.65888" lon="2.39386">
        <ele>664.2</ele>
        <time>2025-09-16T14:27:39Z</time>
      </trkpt>
      <trkpt lat="43.65886" lon="2.39388">
        <ele>664.4</ele>
        <time>2025-09-16T14:27:40Z</time>
      </trkpt>
      <trkpt lat="43.65885" lon="2.39392">
        <ele>664.4</ele>
        <time>2025-09-16T14:27:41Z</time>
      </trkpt>
      <trkpt lat="43.65884" lon="2.39395">
        <ele>664.6</ele>
        <time>2025-09-16T14:27:42Z</time>
      </trkpt>
      <trkpt lat="43.65882" lon="2.39399">
        <ele>664.6</ele>
        <time>2025-09-16T14:27:43Z</time>
      </trkpt>
      <trkpt lat="43.6588" lon="2.39403">
        <ele>664.6</ele>
        <time>2025-09-16T14:27:44Z</time>
      </trkpt>
      <trkpt lat="43.65879" lon="2.39407">
        <ele>664.6</ele>
        <time>2025-09-16T14:27:45Z</time>
      </trkpt>
      <trkpt lat="43.65878" lon="2.39411">
        <ele>664.8</ele>
        <time>2025-09-16T14:27:46Z</time>
      </trkpt>
      <trkpt lat="43.65878" lon="2.39415">
        <ele>664.8</ele>
        <time>2025-09-16T14:27:47Z</time>
      </trkpt>
      <trkpt lat="43.65877" lon="2.39419">
        <ele>664.8</ele>
        <time>2025-09-16T14:27:48Z</time>
      </trkpt>
      <trkpt lat="43.65876" lon="2.39423">
        <ele>664.8</ele>
        <time>2025-09-16T14:27:49Z</time>
      </trkpt>
      <trkpt lat="43.65875" lon="2.39427">
        <ele>664.8</ele>
        <time>2025-09-16T14:27:50Z</time>
      </trkpt>
      <trkpt lat="43.65874" lon="2.39432">
        <ele>664.8</ele>
        <time>2025-09-16T14:27:51Z</time>
      </trkpt>
      <trkpt lat="43.65873" lon="2.39437">
        <ele>664.6</ele>
        <time>2025-09-16T14:27:52Z</time>
      </trkpt>
      <trkpt lat="43.65873" lon="2.39442">
        <ele>664.6</ele>
        <time>2025-09-16T14:27:53Z</time>
      </trkpt>
      <trkpt lat="43.65872" lon="2.39447">
        <ele>664.6</ele>
        <time>2025-09-16T14:27:54Z</time>
      </trkpt>
      <trkpt lat="43.65871" lon="2.39451">
        <ele>664.6</ele>
        <time>2025-09-16T14:27:55Z</time>
      </trkpt>
      <trkpt lat="43.6587" lon="2.39455">
        <ele>664.4</ele>
        <time>2025-09-16T14:27:56Z</time>
      </trkpt>
      <trkpt lat="43.6587" lon="2.3946">
        <ele>664.4</ele>
        <time>2025-09-16T14:27:57Z</time>
      </trkpt>
      <trkpt lat="43.65868" lon="2.39465">
        <ele>664.2</ele>
        <time>2025-09-16T14:27:58Z</time>
      </trkpt>
      <trkpt lat="43.65867" lon="2.3947">
        <ele>664</ele>
        <time>2025-09-16T14:27:59Z</time>
      </trkpt>
      <trkpt lat="43.65865" lon="2.39474">
        <ele>663.8</ele>
        <time>2025-09-16T14:28:00Z</time>
      </trkpt>
      <trkpt lat="43.65864" lon="2.39478">
        <ele>663.6</ele>
        <time>2025-09-16T14:28:01Z</time>
      </trkpt>
      <trkpt lat="43.65864" lon="2.39483">
        <ele>663.4</ele>
        <time>2025-09-16T14:28:02Z</time>
      </trkpt>
      <trkpt lat="43.65863" lon="2.39489">
        <ele>663.2</ele>
        <time>2025-09-16T14:28:03Z</time>
      </trkpt>
      <trkpt lat="43.65861" lon="2.39495">
        <ele>663</ele>
        <time>2025-09-16T14:28:04Z</time>
      </trkpt>
      <trkpt lat="43.6586" lon="2.395">
        <ele>662.8</ele>
        <time>2025-09-16T14:28:05Z</time>
      </trkpt>
      <trkpt lat="43.65859" lon="2.39505">
        <ele>662.4</ele>
        <time>2025-09-16T14:28:06Z</time>
      </trkpt>
      <trkpt lat="43.65857" lon="2.39511">
        <ele>662.2</ele>
        <time>2025-09-16T14:28:07Z</time>
      </trkpt>
      <trkpt lat="43.65855" lon="2.39517">
        <ele>662</ele>
        <time>2025-09-16T14:28:08Z</time>
      </trkpt>
      <trkpt lat="43.65854" lon="2.39523">
        <ele>661.8</ele>
        <time>2025-09-16T14:28:09Z</time>
      </trkpt>
      <trkpt lat="43.65852" lon="2.3953">
        <ele>661.6</ele>
        <time>2025-09-16T14:28:10Z</time>
      </trkpt>
      <trkpt lat="43.6585" lon="2.39537">
        <ele>661.4</ele>
        <time>2025-09-16T14:28:11Z</time>
      </trkpt>
      <trkpt lat="43.65849" lon="2.39544">
        <ele>661.4</ele>
        <time>2025-09-16T14:28:12Z</time>
      </trkpt>
      <trkpt lat="43.65848" lon="2.39549">
        <ele>661.2</ele>
        <time>2025-09-16T14:28:13Z</time>
      </trkpt>
      <trkpt lat="43.65847" lon="2.39555">
        <ele>661.2</ele>
        <time>2025-09-16T14:28:14Z</time>
      </trkpt>
      <trkpt lat="43.65845" lon="2.39563">
        <ele>661.2</ele>
        <time>2025-09-16T14:28:15Z</time>
      </trkpt>
      <trkpt lat="43.65844" lon="2.3957">
        <ele>661.2</ele>
        <time>2025-09-16T14:28:16Z</time>
      </trkpt>
      <trkpt lat="43.65844" lon="2.39576">
        <ele>661.2</ele>
        <time>2025-09-16T14:28:17Z</time>
      </trkpt>
      <trkpt lat="43.65843" lon="2.39581">
        <ele>661.2</ele>
        <time>2025-09-16T14:28:18Z</time>
      </trkpt>
      <trkpt lat="43.65841" lon="2.39586">
        <ele>661.2</ele>
        <time>2025-09-16T14:28:19Z</time>
      </trkpt>
      <trkpt lat="43.65841" lon="2.39592">
        <ele>661.2</ele>
        <time>2025-09-16T14:28:20Z</time>
      </trkpt>
      <trkpt lat="43.65838" lon="2.39597">
        <ele>661.2</ele>
        <time>2025-09-16T14:28:21Z</time>
      </trkpt>
      <trkpt lat="43.65835" lon="2.39602">
        <ele>661.2</ele>
        <time>2025-09-16T14:28:22Z</time>
      </trkpt>
      <trkpt lat="43.65835" lon="2.39607">
        <ele>661.2</ele>
        <time>2025-09-16T14:28:23Z</time>
      </trkpt>
      <trkpt lat="43.65834" lon="2.39612">
        <ele>661</ele>
        <time>2025-09-16T14:28:24Z</time>
      </trkpt>
      <trkpt lat="43.65833" lon="2.39617">
        <ele>661</ele>
        <time>2025-09-16T14:28:25Z</time>
      </trkpt>
      <trkpt lat="43.65833" lon="2.39621">
        <ele>661.2</ele>
        <time>2025-09-16T14:28:26Z</time>
      </trkpt>
      <trkpt lat="43.65831" lon="2.39625">
        <ele>661.2</ele>
        <time>2025-09-16T14:28:27Z</time>
      </trkpt>
      <trkpt lat="43.6583" lon="2.39628">
        <ele>661.2</ele>
        <time>2025-09-16T14:28:28Z</time>
      </trkpt>
      <trkpt lat="43.65829" lon="2.39632">
        <ele>661.4</ele>
        <time>2025-09-16T14:28:29Z</time>
      </trkpt>
      <trkpt lat="43.65827" lon="2.39637">
        <ele>661.4</ele>
        <time>2025-09-16T14:28:30Z</time>
      </trkpt>
      <trkpt lat="43.65826" lon="2.39641">
        <ele>661.6</ele>
        <time>2025-09-16T14:28:31Z</time>
      </trkpt>
      <trkpt lat="43.65824" lon="2.39645">
        <ele>661.6</ele>
        <time>2025-09-16T14:28:32Z</time>
      </trkpt>
      <trkpt lat="43.65824" lon="2.39649">
        <ele>661.8</ele>
        <time>2025-09-16T14:28:33Z</time>
      </trkpt>
      <trkpt lat="43.65822" lon="2.39653">
        <ele>662</ele>
        <time>2025-09-16T14:28:34Z</time>
      </trkpt>
      <trkpt lat="43.6582" lon="2.39657">
        <ele>662.2</ele>
        <time>2025-09-16T14:28:35Z</time>
      </trkpt>
      <trkpt lat="43.6582" lon="2.39661">
        <ele>662.4</ele>
        <time>2025-09-16T14:28:36Z</time>
      </trkpt>
      <trkpt lat="43.65819" lon="2.39665">
        <ele>662.6</ele>
        <time>2025-09-16T14:28:37Z</time>
      </trkpt>
      <trkpt lat="43.65819" lon="2.39669">
        <ele>663</ele>
        <time>2025-09-16T14:28:38Z</time>
      </trkpt>
      <trkpt lat="43.65817" lon="2.39673">
        <ele>663.2</ele>
        <time>2025-09-16T14:28:39Z</time>
      </trkpt>
      <trkpt lat="43.65816" lon="2.39676">
        <ele>663.4</ele>
        <time>2025-09-16T14:28:40Z</time>
      </trkpt>
      <trkpt lat="43.65815" lon="2.39679">
        <ele>663.6</ele>
        <time>2025-09-16T14:28:41Z</time>
      </trkpt>
      <trkpt lat="43.65815" lon="2.39681">
        <ele>663.8</ele>
        <time>2025-09-16T14:28:42Z</time>
      </trkpt>
      <trkpt lat="43.65815" lon="2.39685">
        <ele>664</ele>
        <time>2025-09-16T14:28:43Z</time>
      </trkpt>
      <trkpt lat="43.65814" lon="2.39689">
        <ele>664.4</ele>
        <time>2025-09-16T14:28:44Z</time>
      </trkpt>
      <trkpt lat="43.65813" lon="2.39692">
        <ele>664.8</ele>
        <time>2025-09-16T14:28:45Z</time>
      </trkpt>
      <trkpt lat="43.65813" lon="2.39696">
        <ele>665</ele>
        <time>2025-09-16T14:28:46Z</time>
      </trkpt>
      <trkpt lat="43.65813" lon="2.39699">
        <ele>665.4</ele>
        <time>2025-09-16T14:28:47Z</time>
      </trkpt>
      <trkpt lat="43.65812" lon="2.39703">
        <ele>665.6</ele>
        <time>2025-09-16T14:28:48Z</time>
      </trkpt>
      <trkpt lat="43.65812" lon="2.39707">
        <ele>665.8</ele>
        <time>2025-09-16T14:28:49Z</time>
      </trkpt>
      <trkpt lat="43.65812" lon="2.3971">
        <ele>666.2</ele>
        <time>2025-09-16T14:28:50Z</time>
      </trkpt>
      <trkpt lat="43.65813" lon="2.39713">
        <ele>666.2</ele>
        <time>2025-09-16T14:28:51Z</time>
      </trkpt>
      <trkpt lat="43.65813" lon="2.39717">
        <ele>666.6</ele>
        <time>2025-09-16T14:28:52Z</time>
      </trkpt>
      <trkpt lat="43.65813" lon="2.3972">
        <ele>666.8</ele>
        <time>2025-09-16T14:28:53Z</time>
      </trkpt>
      <trkpt lat="43.65813" lon="2.39723">
        <ele>666.8</ele>
        <time>2025-09-16T14:28:54Z</time>
      </trkpt>
      <trkpt lat="43.65813" lon="2.39728">
        <ele>667</ele>
        <time>2025-09-16T14:28:55Z</time>
      </trkpt>
      <trkpt lat="43.65813" lon="2.39732">
        <ele>667</ele>
        <time>2025-09-16T14:28:56Z</time>
      </trkpt>
      <trkpt lat="43.65814" lon="2.39735">
        <ele>667.2</ele>
        <time>2025-09-16T14:28:57Z</time>
      </trkpt>
      <trkpt lat="43.65815" lon="2.39739">
        <ele>667.2</ele>
        <time>2025-09-16T14:28:58Z</time>
      </trkpt>
      <trkpt lat="43.65814" lon="2.39742">
        <ele>667.4</ele>
        <time>2025-09-16T14:28:59Z</time>
      </trkpt>
      <trkpt lat="43.65815" lon="2.39746">
        <ele>667.6</ele>
        <time>2025-09-16T14:29:00Z</time>
      </trkpt>
      <trkpt lat="43.65817" lon="2.39749">
        <ele>667.6</ele>
        <time>2025-09-16T14:29:01Z</time>
      </trkpt>
      <trkpt lat="43.65819" lon="2.39752">
        <ele>667.6</ele>
        <time>2025-09-16T14:29:02Z</time>
      </trkpt>
      <trkpt lat="43.6582" lon="2.39755">
        <ele>667.8</ele>
        <time>2025-09-16T14:29:03Z</time>
      </trkpt>
      <trkpt lat="43.65821" lon="2.39757">
        <ele>667.8</ele>
        <time>2025-09-16T14:29:04Z</time>
      </trkpt>
      <trkpt lat="43.65822" lon="2.39759">
        <ele>667.8</ele>
        <time>2025-09-16T14:29:05Z</time>
      </trkpt>
      <trkpt lat="43.65824" lon="2.39762">
        <ele>668</ele>
        <time>2025-09-16T14:29:06Z</time>
      </trkpt>
      <trkpt lat="43.65825" lon="2.39765">
        <ele>667.8</ele>
        <time>2025-09-16T14:29:07Z</time>
      </trkpt>
      <trkpt lat="43.65827" lon="2.39768">
        <ele>667.8</ele>
        <time>2025-09-16T14:29:08Z</time>
      </trkpt>
      <trkpt lat="43.65829" lon="2.39771">
        <ele>667.6</ele>
        <time>2025-09-16T14:29:09Z</time>
      </trkpt>
      <trkpt lat="43.6583" lon="2.39774">
        <ele>667.2</ele>
        <time>2025-09-16T14:29:10Z</time>
      </trkpt>
      <trkpt lat="43.65832" lon="2.39778">
        <ele>667</ele>
        <time>2025-09-16T14:29:11Z</time>
      </trkpt>
      <trkpt lat="43.65834" lon="2.39782">
        <ele>666.6</ele>
        <time>2025-09-16T14:29:12Z</time>
      </trkpt>
      <trkpt lat="43.65836" lon="2.39785">
        <ele>666.4</ele>
        <time>2025-09-16T14:29:13Z</time>
      </trkpt>
      <trkpt lat="43.65837" lon="2.39789">
        <ele>666.2</ele>
        <time>2025-09-16T14:29:14Z</time>
      </trkpt>
      <trkpt lat="43.65838" lon="2.39793">
        <ele>666</ele>
        <time>2025-09-16T14:29:15Z</time>
      </trkpt>
      <trkpt lat="43.65839" lon="2.39798">
        <ele>665.8</ele>
        <time>2025-09-16T14:29:16Z</time>
      </trkpt>
      <trkpt lat="43.65841" lon="2.39803">
        <ele>665.8</ele>
        <time>2025-09-16T14:29:17Z</time>
      </trkpt>
      <trkpt lat="43.65841" lon="2.39806">
        <ele>665.8</ele>
        <time>2025-09-16T14:29:18Z</time>
      </trkpt>
      <trkpt lat="43.65841" lon="2.39809">
        <ele>666</ele>
        <time>2025-09-16T14:29:19Z</time>
      </trkpt>
      <trkpt lat="43.65843" lon="2.39813">
        <ele>666</ele>
        <time>2025-09-16T14:29:20Z</time>
      </trkpt>
      <trkpt lat="43.65844" lon="2.39816">
        <ele>666.2</ele>
        <time>2025-09-16T14:29:21Z</time>
      </trkpt>
      <trkpt lat="43.65845" lon="2.3982">
        <ele>666.2</ele>
        <time>2025-09-16T14:29:22Z</time>
      </trkpt>
      <trkpt lat="43.65847" lon="2.39823">
        <ele>666.2</ele>
        <time>2025-09-16T14:29:23Z</time>
      </trkpt>
      <trkpt lat="43.65849" lon="2.39827">
        <ele>666.2</ele>
        <time>2025-09-16T14:29:24Z</time>
      </trkpt>
      <trkpt lat="43.65851" lon="2.39832">
        <ele>666.2</ele>
        <time>2025-09-16T14:29:25Z</time>
      </trkpt>
      <trkpt lat="43.65853" lon="2.39836">
        <ele>666.2</ele>
        <time>2025-09-16T14:29:26Z</time>
      </trkpt>
      <trkpt lat="43.65856" lon="2.3984">
        <ele>666.2</ele>
        <time>2025-09-16T14:29:27Z</time>
      </trkpt>
      <trkpt lat="43.65858" lon="2.39844">
        <ele>666</ele>
        <time>2025-09-16T14:29:28Z</time>
      </trkpt>
      <trkpt lat="43.65859" lon="2.39849">
        <ele>666</ele>
        <time>2025-09-16T14:29:29Z</time>
      </trkpt>
      <trkpt lat="43.6586" lon="2.39852">
        <ele>666</ele>
        <time>2025-09-16T14:29:30Z</time>
      </trkpt>
      <trkpt lat="43.65862" lon="2.39856">
        <ele>666</ele>
        <time>2025-09-16T14:29:31Z</time>
      </trkpt>
      <trkpt lat="43.65864" lon="2.3986">
        <ele>666.2</ele>
        <time>2025-09-16T14:29:32Z</time>
      </trkpt>
      <trkpt lat="43.65865" lon="2.39863">
        <ele>666.2</ele>
        <time>2025-09-16T14:29:33Z</time>
      </trkpt>
      <trkpt lat="43.65867" lon="2.39865">
        <ele>666</ele>
        <time>2025-09-16T14:29:34Z</time>
      </trkpt>
      <trkpt lat="43.65869" lon="2.39868">
        <ele>666</ele>
        <time>2025-09-16T14:29:35Z</time>
      </trkpt>
      <trkpt lat="43.65872" lon="2.39871">
        <ele>665.8</ele>
        <time>2025-09-16T14:29:36Z</time>
      </trkpt>
      <trkpt lat="43.65875" lon="2.39875">
        <ele>665.6</ele>
        <time>2025-09-16T14:29:37Z</time>
      </trkpt>
      <trkpt lat="43.65877" lon="2.39879">
        <ele>665.4</ele>
        <time>2025-09-16T14:29:38Z</time>
      </trkpt>
      <trkpt lat="43.6588" lon="2.39883">
        <ele>665.2</ele>
        <time>2025-09-16T14:29:39Z</time>
      </trkpt>
      <trkpt lat="43.65883" lon="2.39886">
        <ele>664.8</ele>
        <time>2025-09-16T14:29:40Z</time>
      </trkpt>
      <trkpt lat="43.65886" lon="2.39889">
        <ele>664.6</ele>
        <time>2025-09-16T14:29:41Z</time>
      </trkpt>
      <trkpt lat="43.65889" lon="2.39892">
        <ele>664.2</ele>
        <time>2025-09-16T14:29:42Z</time>
      </trkpt>
      <trkpt lat="43.65892" lon="2.39896">
        <ele>664</ele>
        <time>2025-09-16T14:29:43Z</time>
      </trkpt>
      <trkpt lat="43.65896" lon="2.399">
        <ele>663.8</ele>
        <time>2025-09-16T14:29:44Z</time>
      </trkpt>
      <trkpt lat="43.65899" lon="2.39902">
        <ele>663.4</ele>
        <time>2025-09-16T14:29:45Z</time>
      </trkpt>
      <trkpt lat="43.65902" lon="2.39906">
        <ele>663</ele>
        <time>2025-09-16T14:29:46Z</time>
      </trkpt>
      <trkpt lat="43.65904" lon="2.39909">
        <ele>662.6</ele>
        <time>2025-09-16T14:29:47Z</time>
      </trkpt>
      <trkpt lat="43.65908" lon="2.39912">
        <ele>662</ele>
        <time>2025-09-16T14:29:48Z</time>
      </trkpt>
      <trkpt lat="43.65911" lon="2.39915">
        <ele>661.8</ele>
        <time>2025-09-16T14:29:49Z</time>
      </trkpt>
      <trkpt lat="43.65916" lon="2.39919">
        <ele>661.4</ele>
        <time>2025-09-16T14:29:50Z</time>
      </trkpt>
      <trkpt lat="43.65919" lon="2.39921">
        <ele>661.2</ele>
        <time>2025-09-16T14:29:51Z</time>
      </trkpt>
      <trkpt lat="43.65922" lon="2.39923">
        <ele>661</ele>
        <time>2025-09-16T14:29:52Z</time>
      </trkpt>
      <trkpt lat="43.65924" lon="2.39925">
        <ele>660.8</ele>
        <time>2025-09-16T14:29:53Z</time>
      </trkpt>
      <trkpt lat="43.65927" lon="2.39927">
        <ele>660.6</ele>
        <time>2025-09-16T14:29:54Z</time>
      </trkpt>
      <trkpt lat="43.6593" lon="2.39929">
        <ele>660.2</ele>
        <time>2025-09-16T14:29:55Z</time>
      </trkpt>
      <trkpt lat="43.65933" lon="2.3993">
        <ele>660</ele>
        <time>2025-09-16T14:29:56Z</time>
      </trkpt>
      <trkpt lat="43.65936" lon="2.39931">
        <ele>659.8</ele>
        <time>2025-09-16T14:29:57Z</time>
      </trkpt>
      <trkpt lat="43.65938" lon="2.39931">
        <ele>659.8</ele>
        <time>2025-09-16T14:29:58Z</time>
      </trkpt>
      <trkpt lat="43.65942" lon="2.39933">
        <ele>659.6</ele>
        <time>2025-09-16T14:29:59Z</time>
      </trkpt>
      <trkpt lat="43.65945" lon="2.39935">
        <ele>659.4</ele>
        <time>2025-09-16T14:30:00Z</time>
      </trkpt>
      <trkpt lat="43.65948" lon="2.39934">
        <ele>659.2</ele>
        <time>2025-09-16T14:30:01Z</time>
      </trkpt>
      <trkpt lat="43.65951" lon="2.39933">
        <ele>659</ele>
        <time>2025-09-16T14:30:02Z</time>
      </trkpt>
      <trkpt lat="43.65955" lon="2.39932">
        <ele>659</ele>
        <time>2025-09-16T14:30:03Z</time>
      </trkpt>
      <trkpt lat="43.65957" lon="2.39931">
        <ele>659</ele>
        <time>2025-09-16T14:30:04Z</time>
      </trkpt>
      <trkpt lat="43.6596" lon="2.3993">
        <ele>658.8</ele>
        <time>2025-09-16T14:30:05Z</time>
      </trkpt>
      <trkpt lat="43.65962" lon="2.39929">
        <ele>658.8</ele>
        <time>2025-09-16T14:30:06Z</time>
      </trkpt>
      <trkpt lat="43.65964" lon="2.39928">
        <ele>659</ele>
        <time>2025-09-16T14:30:07Z</time>
      </trkpt>
      <trkpt lat="43.65967" lon="2.39928">
        <ele>659</ele>
        <time>2025-09-16T14:30:08Z</time>
      </trkpt>
      <trkpt lat="43.65969" lon="2.39927">
        <ele>659</ele>
        <time>2025-09-16T14:30:09Z</time>
      </trkpt>
      <trkpt lat="43.65972" lon="2.39926">
        <ele>659</ele>
        <time>2025-09-16T14:30:10Z</time>
      </trkpt>
      <trkpt lat="43.65974" lon="2.39926">
        <ele>659.2</ele>
        <time>2025-09-16T14:30:11Z</time>
      </trkpt>
      <trkpt lat="43.65977" lon="2.39925">
        <ele>659.2</ele>
        <time>2025-09-16T14:30:12Z</time>
      </trkpt>
      <trkpt lat="43.65979" lon="2.39924">
        <ele>659.2</ele>
        <time>2025-09-16T14:30:13Z</time>
      </trkpt>
      <trkpt lat="43.6598" lon="2.39923">
        <ele>659.4</ele>
        <time>2025-09-16T14:30:14Z</time>
      </trkpt>
      <trkpt lat="43.65982" lon="2.39922">
        <ele>659.6</ele>
        <time>2025-09-16T14:30:15Z</time>
      </trkpt>
      <trkpt lat="43.65985" lon="2.39921">
        <ele>659.8</ele>
        <time>2025-09-16T14:30:16Z</time>
      </trkpt>
      <trkpt lat="43.65987" lon="2.39921">
        <ele>660.2</ele>
        <time>2025-09-16T14:30:17Z</time>
      </trkpt>
      <trkpt lat="43.65989" lon="2.3992">
        <ele>660.4</ele>
        <time>2025-09-16T14:30:18Z</time>
      </trkpt>
      <trkpt lat="43.65992" lon="2.3992">
        <ele>660.8</ele>
        <time>2025-09-16T14:30:19Z</time>
      </trkpt>
      <trkpt lat="43.65995" lon="2.3992">
        <ele>661</ele>
        <time>2025-09-16T14:30:20Z</time>
      </trkpt>
      <trkpt lat="43.65997" lon="2.3992">
        <ele>661.2</ele>
        <time>2025-09-16T14:30:21Z</time>
      </trkpt>
      <trkpt lat="43.66" lon="2.3992">
        <ele>661.4</ele>
        <time>2025-09-16T14:30:22Z</time>
      </trkpt>
      <trkpt lat="43.66002" lon="2.39919">
        <ele>661.4</ele>
        <time>2025-09-16T14:30:23Z</time>
      </trkpt>
      <trkpt lat="43.66005" lon="2.39919">
        <ele>661.6</ele>
        <time>2025-09-16T14:30:24Z</time>
      </trkpt>
      <trkpt lat="43.66007" lon="2.39917">
        <ele>661.6</ele>
        <time>2025-09-16T14:30:25Z</time>
      </trkpt>
      <trkpt lat="43.6601" lon="2.39915">
        <ele>661.8</ele>
        <time>2025-09-16T14:30:26Z</time>
      </trkpt>
      <trkpt lat="43.66013" lon="2.39913">
        <ele>661.8</ele>
        <time>2025-09-16T14:30:27Z</time>
      </trkpt>
      <trkpt lat="43.66015" lon="2.39911">
        <ele>661.8</ele>
        <time>2025-09-16T14:30:28Z</time>
      </trkpt>
      <trkpt lat="43.66018" lon="2.3991">
        <ele>661.8</ele>
        <time>2025-09-16T14:30:29Z</time>
      </trkpt>
      <trkpt lat="43.66021" lon="2.3991">
        <ele>661.8</ele>
        <time>2025-09-16T14:30:30Z</time>
      </trkpt>
      <trkpt lat="43.66024" lon="2.3991">
        <ele>662</ele>
        <time>2025-09-16T14:30:31Z</time>
      </trkpt>
      <trkpt lat="43.66026" lon="2.3991">
        <ele>662</ele>
        <time>2025-09-16T14:30:32Z</time>
      </trkpt>
      <trkpt lat="43.66029" lon="2.39908">
        <ele>662</ele>
        <time>2025-09-16T14:30:33Z</time>
      </trkpt>
      <trkpt lat="43.66031" lon="2.39904">
        <ele>662</ele>
        <time>2025-09-16T14:30:34Z</time>
      </trkpt>
      <trkpt lat="43.66034" lon="2.39902">
        <ele>662</ele>
        <time>2025-09-16T14:30:35Z</time>
      </trkpt>
      <trkpt lat="43.66038" lon="2.39902">
        <ele>662</ele>
        <time>2025-09-16T14:30:36Z</time>
      </trkpt>
      <trkpt lat="43.66043" lon="2.39904">
        <ele>662</ele>
        <time>2025-09-16T14:30:37Z</time>
      </trkpt>
      <trkpt lat="43.66046" lon="2.39903">
        <ele>661.8</ele>
        <time>2025-09-16T14:30:38Z</time>
      </trkpt>
      <trkpt lat="43.66051" lon="2.39903">
        <ele>661.4</ele>
        <time>2025-09-16T14:30:39Z</time>
      </trkpt>
      <trkpt lat="43.66056" lon="2.39905">
        <ele>661.2</ele>
        <time>2025-09-16T14:30:40Z</time>
      </trkpt>
      <trkpt lat="43.6606" lon="2.39908">
        <ele>660.8</ele>
        <time>2025-09-16T14:30:41Z</time>
      </trkpt>
      <trkpt lat="43.66063" lon="2.3991">
        <ele>660.4</ele>
        <time>2025-09-16T14:30:42Z</time>
      </trkpt>
      <trkpt lat="43.66066" lon="2.39911">
        <ele>660.2</ele>
        <time>2025-09-16T14:30:43Z</time>
      </trkpt>
      <trkpt lat="43.6607" lon="2.39912">
        <ele>659.8</ele>
        <time>2025-09-16T14:30:44Z</time>
      </trkpt>
      <trkpt lat="43.66074" lon="2.39914">
        <ele>659.4</ele>
        <time>2025-09-16T14:30:45Z</time>
      </trkpt>
      <trkpt lat="43.66081" lon="2.39914">
        <ele>659.2</ele>
        <time>2025-09-16T14:30:46Z</time>
      </trkpt>
      <trkpt lat="43.66087" lon="2.39916">
        <ele>658.8</ele>
        <time>2025-09-16T14:30:47Z</time>
      </trkpt>
      <trkpt lat="43.66091" lon="2.39919">
        <ele>658.8</ele>
        <time>2025-09-16T14:30:48Z</time>
      </trkpt>
      <trkpt lat="43.66096" lon="2.39922">
        <ele>658.6</ele>
        <time>2025-09-16T14:30:49Z</time>
      </trkpt>
      <trkpt lat="43.66104" lon="2.39931">
        <ele>658.6</ele>
        <time>2025-09-16T14:30:50Z</time>
      </trkpt>
      <trkpt lat="43.66107" lon="2.39932">
        <ele>658.6</ele>
        <time>2025-09-16T14:30:51Z</time>
      </trkpt>
      <trkpt lat="43.6611" lon="2.39932">
        <ele>658.8</ele>
        <time>2025-09-16T14:30:52Z</time>
      </trkpt>
      <trkpt lat="43.66113" lon="2.39933">
        <ele>658.8</ele>
        <time>2025-09-16T14:30:53Z</time>
      </trkpt>
      <trkpt lat="43.66116" lon="2.39934">
        <ele>659</ele>
        <time>2025-09-16T14:30:54Z</time>
      </trkpt>
      <trkpt lat="43.66119" lon="2.39935">
        <ele>659</ele>
        <time>2025-09-16T14:30:55Z</time>
      </trkpt>
      <trkpt lat="43.66121" lon="2.39936">
        <ele>659.2</ele>
        <time>2025-09-16T14:30:56Z</time>
      </trkpt>
      <trkpt lat="43.66124" lon="2.39937">
        <ele>659.2</ele>
        <time>2025-09-16T14:30:57Z</time>
      </trkpt>
      <trkpt lat="43.66127" lon="2.39938">
        <ele>659.4</ele>
        <time>2025-09-16T14:30:58Z</time>
      </trkpt>
      <trkpt lat="43.6613" lon="2.39938">
        <ele>659.4</ele>
        <time>2025-09-16T14:30:59Z</time>
      </trkpt>
      <trkpt lat="43.66132" lon="2.39939">
        <ele>659.6</ele>
        <time>2025-09-16T14:31:00Z</time>
      </trkpt>
      <trkpt lat="43.66134" lon="2.3994">
        <ele>659.6</ele>
        <time>2025-09-16T14:31:01Z</time>
      </trkpt>
      <trkpt lat="43.66137" lon="2.39941">
        <ele>659.8</ele>
        <time>2025-09-16T14:31:02Z</time>
      </trkpt>
      <trkpt lat="43.66138" lon="2.39942">
        <ele>660</ele>
        <time>2025-09-16T14:31:03Z</time>
      </trkpt>
      <trkpt lat="43.6614" lon="2.39943">
        <ele>660</ele>
        <time>2025-09-16T14:31:04Z</time>
      </trkpt>
      <trkpt lat="43.66142" lon="2.39944">
        <ele>660</ele>
        <time>2025-09-16T14:31:05Z</time>
      </trkpt>
      <trkpt lat="43.66144" lon="2.39946">
        <ele>660</ele>
        <time>2025-09-16T14:31:06Z</time>
      </trkpt>
      <trkpt lat="43.66146" lon="2.39948">
        <ele>659.8</ele>
        <time>2025-09-16T14:31:07Z</time>
      </trkpt>
      <trkpt lat="43.66148" lon="2.39951">
        <ele>659.6</ele>
        <time>2025-09-16T14:31:08Z</time>
      </trkpt>
      <trkpt lat="43.6615" lon="2.39954">
        <ele>659.4</ele>
        <time>2025-09-16T14:31:09Z</time>
      </trkpt>
      <trkpt lat="43.66153" lon="2.39957">
        <ele>659.2</ele>
        <time>2025-09-16T14:31:10Z</time>
      </trkpt>
      <trkpt lat="43.66156" lon="2.39959">
        <ele>658.8</ele>
        <time>2025-09-16T14:31:11Z</time>
      </trkpt>
      <trkpt lat="43.66162" lon="2.39963">
        <ele>658.6</ele>
        <time>2025-09-16T14:31:12Z</time>
      </trkpt>
      <trkpt lat="43.66167" lon="2.39966">
        <ele>658.2</ele>
        <time>2025-09-16T14:31:13Z</time>
      </trkpt>
      <trkpt lat="43.66172" lon="2.3997">
        <ele>658</ele>
        <time>2025-09-16T14:31:14Z</time>
      </trkpt>
      <trkpt lat="43.66178" lon="2.39972">
        <ele>657.8</ele>
        <time>2025-09-16T14:31:15Z</time>
      </trkpt>
      <trkpt lat="43.66183" lon="2.39974">
        <ele>657.6</ele>
        <time>2025-09-16T14:31:16Z</time>
      </trkpt>
      <trkpt lat="43.66188" lon="2.39975">
        <ele>657.4</ele>
        <time>2025-09-16T14:31:17Z</time>
      </trkpt>
      <trkpt lat="43.66192" lon="2.39975">
        <ele>657.4</ele>
        <time>2025-09-16T14:31:18Z</time>
      </trkpt>
      <trkpt lat="43.66195" lon="2.39974">
        <ele>657.6</ele>
        <time>2025-09-16T14:31:19Z</time>
      </trkpt>
      <trkpt lat="43.66197" lon="2.39973">
        <ele>657.6</ele>
        <time>2025-09-16T14:31:20Z</time>
      </trkpt>
      <trkpt lat="43.662" lon="2.39972">
        <ele>657.8</ele>
        <time>2025-09-16T14:31:21Z</time>
      </trkpt>
      <trkpt lat="43.66203" lon="2.39972">
        <ele>657.8</ele>
        <time>2025-09-16T14:31:22Z</time>
      </trkpt>
      <trkpt lat="43.66206" lon="2.39971">
        <ele>657.8</ele>
        <time>2025-09-16T14:31:23Z</time>
      </trkpt>
      <trkpt lat="43.66208" lon="2.39971">
        <ele>658</ele>
        <time>2025-09-16T14:31:24Z</time>
      </trkpt>
      <trkpt lat="43.66211" lon="2.39969">
        <ele>658</ele>
        <time>2025-09-16T14:31:25Z</time>
      </trkpt>
      <trkpt lat="43.66213" lon="2.39968">
        <ele>658</ele>
        <time>2025-09-16T14:31:26Z</time>
      </trkpt>
      <trkpt lat="43.66215" lon="2.39966">
        <ele>658.2</ele>
        <time>2025-09-16T14:31:27Z</time>
      </trkpt>
      <trkpt lat="43.66218" lon="2.39963">
        <ele>658.2</ele>
        <time>2025-09-16T14:31:28Z</time>
      </trkpt>
      <trkpt lat="43.6622" lon="2.3996">
        <ele>658.2</ele>
        <time>2025-09-16T14:31:29Z</time>
      </trkpt>
      <trkpt lat="43.66223" lon="2.39958">
        <ele>658.4</ele>
        <time>2025-09-16T14:31:30Z</time>
      </trkpt>
      <trkpt lat="43.66225" lon="2.39955">
        <ele>658.4</ele>
        <time>2025-09-16T14:31:31Z</time>
      </trkpt>
      <trkpt lat="43.66228" lon="2.39953">
        <ele>658.6</ele>
        <time>2025-09-16T14:31:32Z</time>
      </trkpt>
      <trkpt lat="43.66231" lon="2.39952">
        <ele>658.6</ele>
        <time>2025-09-16T14:31:33Z</time>
      </trkpt>
      <trkpt lat="43.66234" lon="2.3995">
        <ele>658.8</ele>
        <time>2025-09-16T14:31:34Z</time>
      </trkpt>
      <trkpt lat="43.66237" lon="2.39948">
        <ele>658.8</ele>
        <time>2025-09-16T14:31:35Z</time>
      </trkpt>
      <trkpt lat="43.66239" lon="2.39946">
        <ele>659</ele>
        <time>2025-09-16T14:31:36Z</time>
      </trkpt>
      <trkpt lat="43.66242" lon="2.39944">
        <ele>659.2</ele>
        <time>2025-09-16T14:31:37Z</time>
      </trkpt>
      <trkpt lat="43.66245" lon="2.39942">
        <ele>659.4</ele>
        <time>2025-09-16T14:31:38Z</time>
      </trkpt>
      <trkpt lat="43.66248" lon="2.39939">
        <ele>659.6</ele>
        <time>2025-09-16T14:31:39Z</time>
      </trkpt>
      <trkpt lat="43.6625" lon="2.39935">
        <ele>659.8</ele>
        <time>2025-09-16T14:31:40Z</time>
      </trkpt>
      <trkpt lat="43.66253" lon="2.39932">
        <ele>659.8</ele>
        <time>2025-09-16T14:31:41Z</time>
      </trkpt>
      <trkpt lat="43.66256" lon="2.39928">
        <ele>660</ele>
        <time>2025-09-16T14:31:42Z</time>
      </trkpt>
      <trkpt lat="43.6626" lon="2.39925">
        <ele>660</ele>
        <time>2025-09-16T14:31:43Z</time>
      </trkpt>
      <trkpt lat="43.66263" lon="2.39922">
        <ele>660</ele>
        <time>2025-09-16T14:31:44Z</time>
      </trkpt>
      <trkpt lat="43.66267" lon="2.3992">
        <ele>660.2</ele>
        <time>2025-09-16T14:31:45Z</time>
      </trkpt>
      <trkpt lat="43.66269" lon="2.39918">
        <ele>660.4</ele>
        <time>2025-09-16T14:31:46Z</time>
      </trkpt>
      <trkpt lat="43.66271" lon="2.39915">
        <ele>660.8</ele>
        <time>2025-09-16T14:31:47Z</time>
      </trkpt>
      <trkpt lat="43.66272" lon="2.39913">
        <ele>661.2</ele>
        <time>2025-09-16T14:31:48Z</time>
      </trkpt>
      <trkpt lat="43.66274" lon="2.3991">
        <ele>661.4</ele>
        <time>2025-09-16T14:31:49Z</time>
      </trkpt>
      <trkpt lat="43.66276" lon="2.39907">
        <ele>661.6</ele>
        <time>2025-09-16T14:31:50Z</time>
      </trkpt>
      <trkpt lat="43.66279" lon="2.39903">
        <ele>661.6</ele>
        <time>2025-09-16T14:31:51Z</time>
      </trkpt>
      <trkpt lat="43.66281" lon="2.39899">
        <ele>661.6</ele>
        <time>2025-09-16T14:31:52Z</time>
      </trkpt>
      <trkpt lat="43.66285" lon="2.39896">
        <ele>661.6</ele>
        <time>2025-09-16T14:31:53Z</time>
      </trkpt>
      <trkpt lat="43.66287" lon="2.39892">
        <ele>661.6</ele>
        <time>2025-09-16T14:31:54Z</time>
      </trkpt>
      <trkpt lat="43.66288" lon="2.39887">
        <ele>661.8</ele>
        <time>2025-09-16T14:31:55Z</time>
      </trkpt>
      <trkpt lat="43.6629" lon="2.39884">
        <ele>661.8</ele>
        <time>2025-09-16T14:31:56Z</time>
      </trkpt>
      <trkpt lat="43.66291" lon="2.3988">
        <ele>662</ele>
        <time>2025-09-16T14:31:57Z</time>
      </trkpt>
      <trkpt lat="43.66293" lon="2.39878">
        <ele>662</ele>
        <time>2025-09-16T14:31:58Z</time>
      </trkpt>
      <trkpt lat="43.66296" lon="2.39873">
        <ele>662.2</ele>
        <time>2025-09-16T14:31:59Z</time>
      </trkpt>
      <trkpt lat="43.66297" lon="2.3987">
        <ele>662.4</ele>
        <time>2025-09-16T14:32:00Z</time>
      </trkpt>
      <trkpt lat="43.66298" lon="2.39867">
        <ele>662.4</ele>
        <time>2025-09-16T14:32:01Z</time>
      </trkpt>
      <trkpt lat="43.663" lon="2.39863">
        <ele>662.4</ele>
        <time>2025-09-16T14:32:02Z</time>
      </trkpt>
      <trkpt lat="43.66302" lon="2.39859">
        <ele>662.4</ele>
        <time>2025-09-16T14:32:03Z</time>
      </trkpt>
      <trkpt lat="43.66303" lon="2.39854">
        <ele>662.4</ele>
        <time>2025-09-16T14:32:04Z</time>
      </trkpt>
      <trkpt lat="43.66303" lon="2.39851">
        <ele>662.4</ele>
        <time>2025-09-16T14:32:05Z</time>
      </trkpt>
      <trkpt lat="43.66304" lon="2.39849">
        <ele>662.4</ele>
        <time>2025-09-16T14:32:06Z</time>
      </trkpt>
      <trkpt lat="43.66305" lon="2.39846">
        <ele>662.4</ele>
        <time>2025-09-16T14:32:07Z</time>
      </trkpt>
      <trkpt lat="43.66306" lon="2.39843">
        <ele>662.4</ele>
        <time>2025-09-16T14:32:08Z</time>
      </trkpt>
      <trkpt lat="43.66308" lon="2.39839">
        <ele>662.4</ele>
        <time>2025-09-16T14:32:09Z</time>
      </trkpt>
      <trkpt lat="43.6631" lon="2.39834">
        <ele>662.4</ele>
        <time>2025-09-16T14:32:10Z</time>
      </trkpt>
      <trkpt lat="43.66312" lon="2.3983">
        <ele>662.6</ele>
        <time>2025-09-16T14:32:11Z</time>
      </trkpt>
      <trkpt lat="43.66314" lon="2.39828">
        <ele>662.6</ele>
        <time>2025-09-16T14:32:12Z</time>
      </trkpt>
      <trkpt lat="43.66315" lon="2.39825">
        <ele>662.8</ele>
        <time>2025-09-16T14:32:13Z</time>
      </trkpt>
      <trkpt lat="43.66316" lon="2.39822">
        <ele>662.8</ele>
        <time>2025-09-16T14:32:14Z</time>
      </trkpt>
      <trkpt lat="43.66318" lon="2.3982">
        <ele>663</ele>
        <time>2025-09-16T14:32:15Z</time>
      </trkpt>
      <trkpt lat="43.6632" lon="2.39818">
        <ele>663</ele>
        <time>2025-09-16T14:32:16Z</time>
      </trkpt>
      <trkpt lat="43.6632" lon="2.39814">
        <ele>663</ele>
        <time>2025-09-16T14:32:17Z</time>
      </trkpt>
      <trkpt lat="43.66322" lon="2.3981">
        <ele>663.2</ele>
        <time>2025-09-16T14:32:18Z</time>
      </trkpt>
      <trkpt lat="43.66324" lon="2.39808">
        <ele>663.2</ele>
        <time>2025-09-16T14:32:19Z</time>
      </trkpt>
      <trkpt lat="43.66326" lon="2.39803">
        <ele>663.4</ele>
        <time>2025-09-16T14:32:20Z</time>
      </trkpt>
      <trkpt lat="43.66328" lon="2.398">
        <ele>663.4</ele>
        <time>2025-09-16T14:32:21Z</time>
      </trkpt>
      <trkpt lat="43.66329" lon="2.39797">
        <ele>663.4</ele>
        <time>2025-09-16T14:32:22Z</time>
      </trkpt>
      <trkpt lat="43.66331" lon="2.39794">
        <ele>663.4</ele>
        <time>2025-09-16T14:32:23Z</time>
      </trkpt>
      <trkpt lat="43.66332" lon="2.3979">
        <ele>663.4</ele>
        <time>2025-09-16T14:32:24Z</time>
      </trkpt>
      <trkpt lat="43.66334" lon="2.39788">
        <ele>663.4</ele>
        <time>2025-09-16T14:32:25Z</time>
      </trkpt>
      <trkpt lat="43.66335" lon="2.39784">
        <ele>663.4</ele>
        <time>2025-09-16T14:32:26Z</time>
      </trkpt>
      <trkpt lat="43.66337" lon="2.39781">
        <ele>663.6</ele>
        <time>2025-09-16T14:32:27Z</time>
      </trkpt>
      <trkpt lat="43.66338" lon="2.39778">
        <ele>663.6</ele>
        <time>2025-09-16T14:32:28Z</time>
      </trkpt>
      <trkpt lat="43.6634" lon="2.39775">
        <ele>663.6</ele>
        <time>2025-09-16T14:32:29Z</time>
      </trkpt>
      <trkpt lat="43.66341" lon="2.39773">
        <ele>663.8</ele>
        <time>2025-09-16T14:32:30Z</time>
      </trkpt>
      <trkpt lat="43.66342" lon="2.39772">
        <ele>663.8</ele>
        <time>2025-09-16T14:32:31Z</time>
      </trkpt>
      <trkpt lat="43.66344" lon="2.3977">
        <ele>664</ele>
        <time>2025-09-16T14:32:32Z</time>
      </trkpt>
      <trkpt lat="43.66345" lon="2.39769">
        <ele>664.2</ele>
        <time>2025-09-16T14:32:33Z</time>
      </trkpt>
      <trkpt lat="43.66346" lon="2.39769">
        <ele>664.2</ele>
        <time>2025-09-16T14:32:34Z</time>
      </trkpt>
      <trkpt lat="43.66347" lon="2.39767">
        <ele>664.2</ele>
        <time>2025-09-16T14:32:35Z</time>
      </trkpt>
      <trkpt lat="43.66347" lon="2.39767">
        <ele>664.2</ele>
        <time>2025-09-16T14:32:36Z</time>
      </trkpt>
      <trkpt lat="43.66347" lon="2.39767">
        <ele>664.2</ele>
        <time>2025-09-16T14:32:37Z</time>
      </trkpt>
      <trkpt lat="43.66346" lon="2.39767">
        <ele>664.2</ele>
        <time>2025-09-16T14:32:38Z</time>
      </trkpt>
      <trkpt lat="43.66345" lon="2.39768">
        <ele>664.2</ele>
        <time>2025-09-16T14:32:39Z</time>
      </trkpt>
      <trkpt lat="43.66344" lon="2.3977">
        <ele>664.2</ele>
        <time>2025-09-16T14:32:40Z</time>
      </trkpt>
      <trkpt lat="43.66344" lon="2.39772">
        <ele>664.2</ele>
        <time>2025-09-16T14:32:41Z</time>
      </trkpt>
      <trkpt lat="43.66343" lon="2.39774">
        <ele>664.2</ele>
        <time>2025-09-16T14:32:42Z</time>
      </trkpt>
      <trkpt lat="43.66343" lon="2.39776">
        <ele>664.2</ele>
        <time>2025-09-16T14:32:43Z</time>
      </trkpt>
      <trkpt lat="43.66343" lon="2.39779">
        <ele>664.2</ele>
        <time>2025-09-16T14:32:44Z</time>
      </trkpt>
      <trkpt lat="43.66342" lon="2.39782">
        <ele>664.2</ele>
        <time>2025-09-16T14:32:45Z</time>
      </trkpt>
      <trkpt lat="43.66341" lon="2.39784">
        <ele>664.2</ele>
        <time>2025-09-16T14:32:46Z</time>
      </trkpt>
      <trkpt lat="43.66341" lon="2.39787">
        <ele>664.2</ele>
        <time>2025-09-16T14:32:47Z</time>
      </trkpt>
      <trkpt lat="43.66341" lon="2.3979">
        <ele>664.4</ele>
        <time>2025-09-16T14:32:48Z</time>
      </trkpt>
      <trkpt lat="43.66341" lon="2.39794">
        <ele>664.4</ele>
        <time>2025-09-16T14:32:49Z</time>
      </trkpt>
      <trkpt lat="43.66341" lon="2.39797">
        <ele>664.4</ele>
        <time>2025-09-16T14:32:50Z</time>
      </trkpt>
      <trkpt lat="43.6634" lon="2.39801">
        <ele>664.6</ele>
        <time>2025-09-16T14:32:51Z</time>
      </trkpt>
      <trkpt lat="43.66339" lon="2.39804">
        <ele>664.6</ele>
        <time>2025-09-16T14:32:52Z</time>
      </trkpt>
      <trkpt lat="43.66338" lon="2.39807">
        <ele>664.6</ele>
        <time>2025-09-16T14:32:53Z</time>
      </trkpt>
      <trkpt lat="43.66337" lon="2.39809">
        <ele>664.8</ele>
        <time>2025-09-16T14:32:54Z</time>
      </trkpt>
      <trkpt lat="43.66336" lon="2.39812">
        <ele>665</ele>
        <time>2025-09-16T14:32:55Z</time>
      </trkpt>
      <trkpt lat="43.66335" lon="2.39816">
        <ele>665</ele>
        <time>2025-09-16T14:32:56Z</time>
      </trkpt>
      <trkpt lat="43.66334" lon="2.39819">
        <ele>665.2</ele>
        <time>2025-09-16T14:32:57Z</time>
      </trkpt>
      <trkpt lat="43.66333" lon="2.39822">
        <ele>665.4</ele>
        <time>2025-09-16T14:32:58Z</time>
      </trkpt>
      <trkpt lat="43.66332" lon="2.39825">
        <ele>665.4</ele>
        <time>2025-09-16T14:32:59Z</time>
      </trkpt>
      <trkpt lat="43.66331" lon="2.39829">
        <ele>665.4</ele>
        <time>2025-09-16T14:33:00Z</time>
      </trkpt>
      <trkpt lat="43.66331" lon="2.39833">
        <ele>665.4</ele>
        <time>2025-09-16T14:33:01Z</time>
      </trkpt>
      <trkpt lat="43.6633" lon="2.39837">
        <ele>665.6</ele>
        <time>2025-09-16T14:33:02Z</time>
      </trkpt>
      <trkpt lat="43.6633" lon="2.3984">
        <ele>665.6</ele>
        <time>2025-09-16T14:33:03Z</time>
      </trkpt>
      <trkpt lat="43.66329" lon="2.39844">
        <ele>665.8</ele>
        <time>2025-09-16T14:33:04Z</time>
      </trkpt>
      <trkpt lat="43.66328" lon="2.39848">
        <ele>666</ele>
        <time>2025-09-16T14:33:05Z</time>
      </trkpt>
      <trkpt lat="43.66327" lon="2.39851">
        <ele>666</ele>
        <time>2025-09-16T14:33:06Z</time>
      </trkpt>
      <trkpt lat="43.66327" lon="2.39855">
        <ele>666.2</ele>
        <time>2025-09-16T14:33:07Z</time>
      </trkpt>
      <trkpt lat="43.66325" lon="2.39859">
        <ele>666.4</ele>
        <time>2025-09-16T14:33:08Z</time>
      </trkpt>
      <trkpt lat="43.66324" lon="2.39862">
        <ele>666.6</ele>
        <time>2025-09-16T14:33:09Z</time>
      </trkpt>
      <trkpt lat="43.66323" lon="2.39866">
        <ele>666.6</ele>
        <time>2025-09-16T14:33:10Z</time>
      </trkpt>
      <trkpt lat="43.66322" lon="2.3987">
        <ele>666.8</ele>
        <time>2025-09-16T14:33:11Z</time>
      </trkpt>
      <trkpt lat="43.6632" lon="2.39874">
        <ele>666.8</ele>
        <time>2025-09-16T14:33:12Z</time>
      </trkpt>
      <trkpt lat="43.66319" lon="2.39878">
        <ele>667</ele>
        <time>2025-09-16T14:33:13Z</time>
      </trkpt>
      <trkpt lat="43.66318" lon="2.39882">
        <ele>667</ele>
        <time>2025-09-16T14:33:14Z</time>
      </trkpt>
      <trkpt lat="43.66317" lon="2.39886">
        <ele>667</ele>
        <time>2025-09-16T14:33:15Z</time>
      </trkpt>
      <trkpt lat="43.66315" lon="2.39891">
        <ele>667.2</ele>
        <time>2025-09-16T14:33:16Z</time>
      </trkpt>
      <trkpt lat="43.66313" lon="2.39895">
        <ele>667.2</ele>
        <time>2025-09-16T14:33:17Z</time>
      </trkpt>
      <trkpt lat="43.66312" lon="2.399">
        <ele>667</ele>
        <time>2025-09-16T14:33:18Z</time>
      </trkpt>
      <trkpt lat="43.66311" lon="2.39905">
        <ele>667</ele>
        <time>2025-09-16T14:33:19Z</time>
      </trkpt>
      <trkpt lat="43.66309" lon="2.39909">
        <ele>667</ele>
        <time>2025-09-16T14:33:20Z</time>
      </trkpt>
      <trkpt lat="43.66307" lon="2.39914">
        <ele>667</ele>
        <time>2025-09-16T14:33:21Z</time>
      </trkpt>
      <trkpt lat="43.66306" lon="2.39918">
        <ele>667.2</ele>
        <time>2025-09-16T14:33:22Z</time>
      </trkpt>
      <trkpt lat="43.66305" lon="2.39921">
        <ele>667.4</ele>
        <time>2025-09-16T14:33:23Z</time>
      </trkpt>
      <trkpt lat="43.66304" lon="2.39925">
        <ele>667.4</ele>
        <time>2025-09-16T14:33:24Z</time>
      </trkpt>
      <trkpt lat="43.66303" lon="2.39929">
        <ele>667.4</ele>
        <time>2025-09-16T14:33:25Z</time>
      </trkpt>
      <trkpt lat="43.66302" lon="2.39934">
        <ele>667.4</ele>
        <time>2025-09-16T14:33:26Z</time>
      </trkpt>
      <trkpt lat="43.66301" lon="2.39939">
        <ele>667.4</ele>
        <time>2025-09-16T14:33:27Z</time>
      </trkpt>
      <trkpt lat="43.66299" lon="2.39944">
        <ele>667.2</ele>
        <time>2025-09-16T14:33:28Z</time>
      </trkpt>
      <trkpt lat="43.66298" lon="2.3995">
        <ele>667</ele>
        <time>2025-09-16T14:33:29Z</time>
      </trkpt>
      <trkpt lat="43.66297" lon="2.39956">
        <ele>666.8</ele>
        <time>2025-09-16T14:33:30Z</time>
      </trkpt>
      <trkpt lat="43.66297" lon="2.39961">
        <ele>666.8</ele>
        <time>2025-09-16T14:33:31Z</time>
      </trkpt>
      <trkpt lat="43.66295" lon="2.39966">
        <ele>666.8</ele>
        <time>2025-09-16T14:33:32Z</time>
      </trkpt>
      <trkpt lat="43.66293" lon="2.39972">
        <ele>667</ele>
        <time>2025-09-16T14:33:33Z</time>
      </trkpt>
      <trkpt lat="43.66291" lon="2.39977">
        <ele>667.2</ele>
        <time>2025-09-16T14:33:34Z</time>
      </trkpt>
      <trkpt lat="43.6629" lon="2.39981">
        <ele>667.4</ele>
        <time>2025-09-16T14:33:35Z</time>
      </trkpt>
      <trkpt lat="43.66289" lon="2.39984">
        <ele>667.6</ele>
        <time>2025-09-16T14:33:36Z</time>
      </trkpt>
      <trkpt lat="43.66287" lon="2.39988">
        <ele>668</ele>
        <time>2025-09-16T14:33:37Z</time>
      </trkpt>
      <trkpt lat="43.66285" lon="2.39992">
        <ele>668.2</ele>
        <time>2025-09-16T14:33:38Z</time>
      </trkpt>
      <trkpt lat="43.66284" lon="2.39996">
        <ele>668.2</ele>
        <time>2025-09-16T14:33:39Z</time>
      </trkpt>
      <trkpt lat="43.66283" lon="2.40001">
        <ele>668.4</ele>
        <time>2025-09-16T14:33:40Z</time>
      </trkpt>
      <trkpt lat="43.66281" lon="2.40005">
        <ele>668.6</ele>
        <time>2025-09-16T14:33:41Z</time>
      </trkpt>
      <trkpt lat="43.6628" lon="2.40009">
        <ele>668.8</ele>
        <time>2025-09-16T14:33:42Z</time>
      </trkpt>
      <trkpt lat="43.66279" lon="2.40013">
        <ele>669</ele>
        <time>2025-09-16T14:33:43Z</time>
      </trkpt>
      <trkpt lat="43.66278" lon="2.40018">
        <ele>669.2</ele>
        <time>2025-09-16T14:33:44Z</time>
      </trkpt>
      <trkpt lat="43.66276" lon="2.40022">
        <ele>669.2</ele>
        <time>2025-09-16T14:33:45Z</time>
      </trkpt>
      <trkpt lat="43.66277" lon="2.40025">
        <ele>669.4</ele>
        <time>2025-09-16T14:33:46Z</time>
      </trkpt>
      <trkpt lat="43.66276" lon="2.40028">
        <ele>669.6</ele>
        <time>2025-09-16T14:33:47Z</time>
      </trkpt>
      <trkpt lat="43.66275" lon="2.40031">
        <ele>669.8</ele>
        <time>2025-09-16T14:33:48Z</time>
      </trkpt>
      <trkpt lat="43.66273" lon="2.40034">
        <ele>670</ele>
        <time>2025-09-16T14:33:49Z</time>
      </trkpt>
      <trkpt lat="43.66271" lon="2.40039">
        <ele>670</ele>
        <time>2025-09-16T14:33:50Z</time>
      </trkpt>
      <trkpt lat="43.6627" lon="2.40044">
        <ele>670</ele>
        <time>2025-09-16T14:33:51Z</time>
      </trkpt>
      <trkpt lat="43.66268" lon="2.40049">
        <ele>670</ele>
        <time>2025-09-16T14:33:52Z</time>
      </trkpt>
      <trkpt lat="43.66267" lon="2.40054">
        <ele>669.8</ele>
        <time>2025-09-16T14:33:53Z</time>
      </trkpt>
      <trkpt lat="43.66265" lon="2.40058">
        <ele>669.8</ele>
        <time>2025-09-16T14:33:54Z</time>
      </trkpt>
      <trkpt lat="43.66263" lon="2.40063">
        <ele>669.8</ele>
        <time>2025-09-16T14:33:55Z</time>
      </trkpt>
      <trkpt lat="43.66262" lon="2.40068">
        <ele>669.8</ele>
        <time>2025-09-16T14:33:56Z</time>
      </trkpt>
      <trkpt lat="43.66261" lon="2.40072">
        <ele>670</ele>
        <time>2025-09-16T14:33:57Z</time>
      </trkpt>
      <trkpt lat="43.6626" lon="2.40077">
        <ele>670</ele>
        <time>2025-09-16T14:33:58Z</time>
      </trkpt>
      <trkpt lat="43.66259" lon="2.40081">
        <ele>670.2</ele>
        <time>2025-09-16T14:33:59Z</time>
      </trkpt>
      <trkpt lat="43.66257" lon="2.40085">
        <ele>670.2</ele>
        <time>2025-09-16T14:34:00Z</time>
      </trkpt>
      <trkpt lat="43.66255" lon="2.40089">
        <ele>670.2</ele>
        <time>2025-09-16T14:34:01Z</time>
      </trkpt>
      <trkpt lat="43.66252" lon="2.40093">
        <ele>670.2</ele>
        <time>2025-09-16T14:34:02Z</time>
      </trkpt>
      <trkpt lat="43.6625" lon="2.40096">
        <ele>670.2</ele>
        <time>2025-09-16T14:34:03Z</time>
      </trkpt>
      <trkpt lat="43.66249" lon="2.40099">
        <ele>670.4</ele>
        <time>2025-09-16T14:34:04Z</time>
      </trkpt>
      <trkpt lat="43.66247" lon="2.40102">
        <ele>670.4</ele>
        <time>2025-09-16T14:34:05Z</time>
      </trkpt>
      <trkpt lat="43.66245" lon="2.40106">
        <ele>670.4</ele>
        <time>2025-09-16T14:34:06Z</time>
      </trkpt>
      <trkpt lat="43.66243" lon="2.4011">
        <ele>670.4</ele>
        <time>2025-09-16T14:34:07Z</time>
      </trkpt>
      <trkpt lat="43.66241" lon="2.40113">
        <ele>670.6</ele>
        <time>2025-09-16T14:34:08Z</time>
      </trkpt>
      <trkpt lat="43.6624" lon="2.40116">
        <ele>670.6</ele>
        <time>2025-09-16T14:34:09Z</time>
      </trkpt>
      <trkpt lat="43.66238" lon="2.40119">
        <ele>670.6</ele>
        <time>2025-09-16T14:34:10Z</time>
      </trkpt>
      <trkpt lat="43.66237" lon="2.40123">
        <ele>670.6</ele>
        <time>2025-09-16T14:34:11Z</time>
      </trkpt>
      <trkpt lat="43.66236" lon="2.40127">
        <ele>670.8</ele>
        <time>2025-09-16T14:34:12Z</time>
      </trkpt>
      <trkpt lat="43.66234" lon="2.40131">
        <ele>670.8</ele>
        <time>2025-09-16T14:34:13Z</time>
      </trkpt>
      <trkpt lat="43.66234" lon="2.40135">
        <ele>671</ele>
        <time>2025-09-16T14:34:14Z</time>
      </trkpt>
      <trkpt lat="43.66232" lon="2.40139">
        <ele>671</ele>
        <time>2025-09-16T14:34:15Z</time>
      </trkpt>
      <trkpt lat="43.66231" lon="2.40142">
        <ele>671.2</ele>
        <time>2025-09-16T14:34:16Z</time>
      </trkpt>
      <trkpt lat="43.6623" lon="2.40145">
        <ele>671.2</ele>
        <time>2025-09-16T14:34:17Z</time>
      </trkpt>
      <trkpt lat="43.66228" lon="2.40149">
        <ele>671.4</ele>
        <time>2025-09-16T14:34:18Z</time>
      </trkpt>
      <trkpt lat="43.66227" lon="2.40152">
        <ele>671.4</ele>
        <time>2025-09-16T14:34:19Z</time>
      </trkpt>
      <trkpt lat="43.66226" lon="2.40156">
        <ele>671.4</ele>
        <time>2025-09-16T14:34:20Z</time>
      </trkpt>
      <trkpt lat="43.66225" lon="2.4016">
        <ele>671.4</ele>
        <time>2025-09-16T14:34:21Z</time>
      </trkpt>
      <trkpt lat="43.66223" lon="2.40164">
        <ele>671.4</ele>
        <time>2025-09-16T14:34:22Z</time>
      </trkpt>
      <trkpt lat="43.66222" lon="2.40167">
        <ele>671.4</ele>
        <time>2025-09-16T14:34:23Z</time>
      </trkpt>
      <trkpt lat="43.66219" lon="2.40171">
        <ele>671.4</ele>
        <time>2025-09-16T14:34:24Z</time>
      </trkpt>
      <trkpt lat="43.66217" lon="2.40174">
        <ele>671.4</ele>
        <time>2025-09-16T14:34:25Z</time>
      </trkpt>
      <trkpt lat="43.66216" lon="2.40176">
        <ele>671.4</ele>
        <time>2025-09-16T14:34:26Z</time>
      </trkpt>
      <trkpt lat="43.66214" lon="2.40179">
        <ele>671.4</ele>
        <time>2025-09-16T14:34:27Z</time>
      </trkpt>
      <trkpt lat="43.66211" lon="2.40182">
        <ele>671.4</ele>
        <time>2025-09-16T14:34:28Z</time>
      </trkpt>
      <trkpt lat="43.66208" lon="2.40186">
        <ele>671.4</ele>
        <time>2025-09-16T14:34:29Z</time>
      </trkpt>
      <trkpt lat="43.66206" lon="2.40188">
        <ele>671.4</ele>
        <time>2025-09-16T14:34:30Z</time>
      </trkpt>
      <trkpt lat="43.66204" lon="2.4019">
        <ele>671.4</ele>
        <time>2025-09-16T14:34:31Z</time>
      </trkpt>
      <trkpt lat="43.66202" lon="2.40192">
        <ele>671.4</ele>
        <time>2025-09-16T14:34:32Z</time>
      </trkpt>
      <trkpt lat="43.662" lon="2.40194">
        <ele>671.4</ele>
        <time>2025-09-16T14:34:33Z</time>
      </trkpt>
      <trkpt lat="43.66197" lon="2.40196">
        <ele>671.6</ele>
        <time>2025-09-16T14:34:34Z</time>
      </trkpt>
      <trkpt lat="43.66194" lon="2.40198">
        <ele>671.6</ele>
        <time>2025-09-16T14:34:35Z</time>
      </trkpt>
      <trkpt lat="43.66191" lon="2.40201">
        <ele>671.6</ele>
        <time>2025-09-16T14:34:36Z</time>
      </trkpt>
      <trkpt lat="43.66189" lon="2.40203">
        <ele>671.6</ele>
        <time>2025-09-16T14:34:37Z</time>
      </trkpt>
      <trkpt lat="43.66186" lon="2.40206">
        <ele>671.6</ele>
        <time>2025-09-16T14:34:38Z</time>
      </trkpt>
      <trkpt lat="43.66183" lon="2.40208">
        <ele>671.6</ele>
        <time>2025-09-16T14:34:39Z</time>
      </trkpt>
      <trkpt lat="43.66181" lon="2.40211">
        <ele>671.6</ele>
        <time>2025-09-16T14:34:40Z</time>
      </trkpt>
      <trkpt lat="43.66178" lon="2.40213">
        <ele>671.6</ele>
        <time>2025-09-16T14:34:41Z</time>
      </trkpt>
      <trkpt lat="43.66176" lon="2.40216">
        <ele>671.8</ele>
        <time>2025-09-16T14:34:42Z</time>
      </trkpt>
      <trkpt lat="43.66173" lon="2.40219">
        <ele>671.8</ele>
        <time>2025-09-16T14:34:43Z</time>
      </trkpt>
      <trkpt lat="43.66171" lon="2.40222">
        <ele>671.8</ele>
        <time>2025-09-16T14:34:44Z</time>
      </trkpt>
      <trkpt lat="43.66168" lon="2.40225">
        <ele>671.8</ele>
        <time>2025-09-16T14:34:45Z</time>
      </trkpt>
      <trkpt lat="43.66165" lon="2.40227">
        <ele>672</ele>
        <time>2025-09-16T14:34:46Z</time>
      </trkpt>
      <trkpt lat="43.66163" lon="2.4023">
        <ele>672</ele>
        <time>2025-09-16T14:34:47Z</time>
      </trkpt>
      <trkpt lat="43.6616" lon="2.40232">
        <ele>672.2</ele>
        <time>2025-09-16T14:34:48Z</time>
      </trkpt>
      <trkpt lat="43.66157" lon="2.40234">
        <ele>672.2</ele>
        <time>2025-09-16T14:34:49Z</time>
      </trkpt>
      <trkpt lat="43.66154" lon="2.40236">
        <ele>672.4</ele>
        <time>2025-09-16T14:34:50Z</time>
      </trkpt>
      <trkpt lat="43.66152" lon="2.40238">
        <ele>672.6</ele>
        <time>2025-09-16T14:34:51Z</time>
      </trkpt>
      <trkpt lat="43.6615" lon="2.40241">
        <ele>672.6</ele>
        <time>2025-09-16T14:34:52Z</time>
      </trkpt>
      <trkpt lat="43.66148" lon="2.40244">
        <ele>672.8</ele>
        <time>2025-09-16T14:34:53Z</time>
      </trkpt>
      <trkpt lat="43.66145" lon="2.40245">
        <ele>673</ele>
        <time>2025-09-16T14:34:54Z</time>
      </trkpt>
      <trkpt lat="43.66143" lon="2.40247">
        <ele>673.2</ele>
        <time>2025-09-16T14:34:55Z</time>
      </trkpt>
      <trkpt lat="43.6614" lon="2.40247">
        <ele>673.2</ele>
        <time>2025-09-16T14:34:56Z</time>
      </trkpt>
      <trkpt lat="43.66137" lon="2.40249">
        <ele>673.4</ele>
        <time>2025-09-16T14:34:57Z</time>
      </trkpt>
      <trkpt lat="43.66135" lon="2.40249">
        <ele>673.4</ele>
        <time>2025-09-16T14:34:58Z</time>
      </trkpt>
      <trkpt lat="43.66132" lon="2.40251">
        <ele>673.4</ele>
        <time>2025-09-16T14:34:59Z</time>
      </trkpt>
      <trkpt lat="43.66129" lon="2.40252">
        <ele>673.4</ele>
        <time>2025-09-16T14:35:00Z</time>
      </trkpt>
      <trkpt lat="43.66126" lon="2.40253">
        <ele>673.6</ele>
        <time>2025-09-16T14:35:01Z</time>
      </trkpt>
      <trkpt lat="43.66124" lon="2.40254">
        <ele>673.6</ele>
        <time>2025-09-16T14:35:02Z</time>
      </trkpt>
      <trkpt lat="43.66122" lon="2.40256">
        <ele>673.8</ele>
        <time>2025-09-16T14:35:03Z</time>
      </trkpt>
      <trkpt lat="43.66119" lon="2.40257">
        <ele>674</ele>
        <time>2025-09-16T14:35:04Z</time>
      </trkpt>
      <trkpt lat="43.66117" lon="2.40259">
        <ele>674.2</ele>
        <time>2025-09-16T14:35:05Z</time>
      </trkpt>
      <trkpt lat="43.66115" lon="2.40261">
        <ele>674.4</ele>
        <time>2025-09-16T14:35:06Z</time>
      </trkpt>
      <trkpt lat="43.66113" lon="2.40264">
        <ele>674.6</ele>
        <time>2025-09-16T14:35:07Z</time>
      </trkpt>
      <trkpt lat="43.6611" lon="2.40266">
        <ele>674.8</ele>
        <time>2025-09-16T14:35:08Z</time>
      </trkpt>
      <trkpt lat="43.66107" lon="2.40268">
        <ele>675</ele>
        <time>2025-09-16T14:35:09Z</time>
      </trkpt>
      <trkpt lat="43.66103" lon="2.40269">
        <ele>675.2</ele>
        <time>2025-09-16T14:35:10Z</time>
      </trkpt>
      <trkpt lat="43.66101" lon="2.40271">
        <ele>675.2</ele>
        <time>2025-09-16T14:35:11Z</time>
      </trkpt>
      <trkpt lat="43.66098" lon="2.40273">
        <ele>675.4</ele>
        <time>2025-09-16T14:35:12Z</time>
      </trkpt>
      <trkpt lat="43.66096" lon="2.40275">
        <ele>675.6</ele>
        <time>2025-09-16T14:35:13Z</time>
      </trkpt>
      <trkpt lat="43.66093" lon="2.40277">
        <ele>675.8</ele>
        <time>2025-09-16T14:35:14Z</time>
      </trkpt>
      <trkpt lat="43.6609" lon="2.40279">
        <ele>675.8</ele>
        <time>2025-09-16T14:35:15Z</time>
      </trkpt>
      <trkpt lat="43.66087" lon="2.40281">
        <ele>676</ele>
        <time>2025-09-16T14:35:16Z</time>
      </trkpt>
      <trkpt lat="43.66084" lon="2.40282">
        <ele>676</ele>
        <time>2025-09-16T14:35:17Z</time>
      </trkpt>
      <trkpt lat="43.66082" lon="2.40284">
        <ele>676</ele>
        <time>2025-09-16T14:35:18Z</time>
      </trkpt>
      <trkpt lat="43.66079" lon="2.40286">
        <ele>676</ele>
        <time>2025-09-16T14:35:19Z</time>
      </trkpt>
      <trkpt lat="43.66075" lon="2.40288">
        <ele>676</ele>
        <time>2025-09-16T14:35:20Z</time>
      </trkpt>
      <trkpt lat="43.66072" lon="2.4029">
        <ele>676</ele>
        <time>2025-09-16T14:35:21Z</time>
      </trkpt>
      <trkpt lat="43.66069" lon="2.40292">
        <ele>675.8</ele>
        <time>2025-09-16T14:35:22Z</time>
      </trkpt>
      <trkpt lat="43.66065" lon="2.40295">
        <ele>675.8</ele>
        <time>2025-09-16T14:35:23Z</time>
      </trkpt>
      <trkpt lat="43.66061" lon="2.40296">
        <ele>675.6</ele>
        <time>2025-09-16T14:35:24Z</time>
      </trkpt>
      <trkpt lat="43.66057" lon="2.40298">
        <ele>675.2</ele>
        <time>2025-09-16T14:35:25Z</time>
      </trkpt>
      <trkpt lat="43.66054" lon="2.403">
        <ele>675</ele>
        <time>2025-09-16T14:35:26Z</time>
      </trkpt>
      <trkpt lat="43.66051" lon="2.40303">
        <ele>674.8</ele>
        <time>2025-09-16T14:35:27Z</time>
      </trkpt>
      <trkpt lat="43.66048" lon="2.40307">
        <ele>674.6</ele>
        <time>2025-09-16T14:35:28Z</time>
      </trkpt>
      <trkpt lat="43.66044" lon="2.4031">
        <ele>674.4</ele>
        <time>2025-09-16T14:35:29Z</time>
      </trkpt>
      <trkpt lat="43.66039" lon="2.40313">
        <ele>674.2</ele>
        <time>2025-09-16T14:35:30Z</time>
      </trkpt>
      <trkpt lat="43.66035" lon="2.40315">
        <ele>674</ele>
        <time>2025-09-16T14:35:31Z</time>
      </trkpt>
      <trkpt lat="43.66032" lon="2.40319">
        <ele>674</ele>
        <time>2025-09-16T14:35:32Z</time>
      </trkpt>
      <trkpt lat="43.66028" lon="2.40323">
        <ele>674</ele>
        <time>2025-09-16T14:35:33Z</time>
      </trkpt>
      <trkpt lat="43.66024" lon="2.40326">
        <ele>674</ele>
        <time>2025-09-16T14:35:34Z</time>
      </trkpt>
      <trkpt lat="43.66021" lon="2.40331">
        <ele>674.2</ele>
        <time>2025-09-16T14:35:35Z</time>
      </trkpt>
      <trkpt lat="43.66018" lon="2.40334">
        <ele>674.2</ele>
        <time>2025-09-16T14:35:36Z</time>
      </trkpt>
      <trkpt lat="43.66015" lon="2.40337">
        <ele>674.2</ele>
        <time>2025-09-16T14:35:37Z</time>
      </trkpt>
      <trkpt lat="43.66011" lon="2.40342">
        <ele>674.4</ele>
        <time>2025-09-16T14:35:38Z</time>
      </trkpt>
      <trkpt lat="43.66008" lon="2.40348">
        <ele>674.4</ele>
        <time>2025-09-16T14:35:39Z</time>
      </trkpt>
      <trkpt lat="43.66005" lon="2.40351">
        <ele>674.4</ele>
        <time>2025-09-16T14:35:40Z</time>
      </trkpt>
      <trkpt lat="43.66001" lon="2.40354">
        <ele>674.6</ele>
        <time>2025-09-16T14:35:41Z</time>
      </trkpt>
      <trkpt lat="43.65998" lon="2.40357">
        <ele>674.6</ele>
        <time>2025-09-16T14:35:42Z</time>
      </trkpt>
      <trkpt lat="43.65994" lon="2.40361">
        <ele>674.8</ele>
        <time>2025-09-16T14:35:43Z</time>
      </trkpt>
      <trkpt lat="43.65992" lon="2.40364">
        <ele>674.8</ele>
        <time>2025-09-16T14:35:44Z</time>
      </trkpt>
      <trkpt lat="43.65989" lon="2.40367">
        <ele>675</ele>
        <time>2025-09-16T14:35:45Z</time>
      </trkpt>
      <trkpt lat="43.65986" lon="2.40371">
        <ele>675.2</ele>
        <time>2025-09-16T14:35:46Z</time>
      </trkpt>
      <trkpt lat="43.65983" lon="2.40374">
        <ele>675.2</ele>
        <time>2025-09-16T14:35:47Z</time>
      </trkpt>
      <trkpt lat="43.65981" lon="2.40378">
        <ele>675.4</ele>
        <time>2025-09-16T14:35:48Z</time>
      </trkpt>
      <trkpt lat="43.65979" lon="2.40381">
        <ele>675.6</ele>
        <time>2025-09-16T14:35:49Z</time>
      </trkpt>
      <trkpt lat="43.65976" lon="2.40385">
        <ele>675.6</ele>
        <time>2025-09-16T14:35:50Z</time>
      </trkpt>
      <trkpt lat="43.65974" lon="2.40388">
        <ele>675.8</ele>
        <time>2025-09-16T14:35:51Z</time>
      </trkpt>
      <trkpt lat="43.65972" lon="2.40392">
        <ele>676</ele>
        <time>2025-09-16T14:35:52Z</time>
      </trkpt>
      <trkpt lat="43.6597" lon="2.40395">
        <ele>676.2</ele>
        <time>2025-09-16T14:35:53Z</time>
      </trkpt>
      <trkpt lat="43.65968" lon="2.40398">
        <ele>676.4</ele>
        <time>2025-09-16T14:35:54Z</time>
      </trkpt>
      <trkpt lat="43.65966" lon="2.40402">
        <ele>676.4</ele>
        <time>2025-09-16T14:35:55Z</time>
      </trkpt>
      <trkpt lat="43.65964" lon="2.40406">
        <ele>676.6</ele>
        <time>2025-09-16T14:35:56Z</time>
      </trkpt>
      <trkpt lat="43.65962" lon="2.4041">
        <ele>676.6</ele>
        <time>2025-09-16T14:35:57Z</time>
      </trkpt>
      <trkpt lat="43.65959" lon="2.40415">
        <ele>676.6</ele>
        <time>2025-09-16T14:35:58Z</time>
      </trkpt>
      <trkpt lat="43.65957" lon="2.40419">
        <ele>676.6</ele>
        <time>2025-09-16T14:35:59Z</time>
      </trkpt>
      <trkpt lat="43.65955" lon="2.40423">
        <ele>676.6</ele>
        <time>2025-09-16T14:36:00Z</time>
      </trkpt>
      <trkpt lat="43.65952" lon="2.40428">
        <ele>676.4</ele>
        <time>2025-09-16T14:36:01Z</time>
      </trkpt>
      <trkpt lat="43.65949" lon="2.40432">
        <ele>676.4</ele>
        <time>2025-09-16T14:36:02Z</time>
      </trkpt>
      <trkpt lat="43.65947" lon="2.40437">
        <ele>676.4</ele>
        <time>2025-09-16T14:36:03Z</time>
      </trkpt>
      <trkpt lat="43.65945" lon="2.40442">
        <ele>676.2</ele>
        <time>2025-09-16T14:36:04Z</time>
      </trkpt>
      <trkpt lat="43.65942" lon="2.40448">
        <ele>676.2</ele>
        <time>2025-09-16T14:36:05Z</time>
      </trkpt>
      <trkpt lat="43.65939" lon="2.40453">
        <ele>676</ele>
        <time>2025-09-16T14:36:06Z</time>
      </trkpt>
      <trkpt lat="43.65936" lon="2.40458">
        <ele>676</ele>
        <time>2025-09-16T14:36:07Z</time>
      </trkpt>
      <trkpt lat="43.65932" lon="2.40464">
        <ele>676</ele>
        <time>2025-09-16T14:36:08Z</time>
      </trkpt>
      <trkpt lat="43.6593" lon="2.4047">
        <ele>676</ele>
        <time>2025-09-16T14:36:09Z</time>
      </trkpt>
      <trkpt lat="43.65928" lon="2.40476">
        <ele>676</ele>
        <time>2025-09-16T14:36:10Z</time>
      </trkpt>
      <trkpt lat="43.65927" lon="2.40481">
        <ele>675.8</ele>
        <time>2025-09-16T14:36:11Z</time>
      </trkpt>
      <trkpt lat="43.65924" lon="2.40486">
        <ele>675.8</ele>
        <time>2025-09-16T14:36:12Z</time>
      </trkpt>
      <trkpt lat="43.65921" lon="2.4049">
        <ele>675.8</ele>
        <time>2025-09-16T14:36:13Z</time>
      </trkpt>
      <trkpt lat="43.65917" lon="2.40493">
        <ele>675.6</ele>
        <time>2025-09-16T14:36:14Z</time>
      </trkpt>
      <trkpt lat="43.65913" lon="2.40496">
        <ele>675.4</ele>
        <time>2025-09-16T14:36:15Z</time>
      </trkpt>
      <trkpt lat="43.65909" lon="2.40499">
        <ele>675.2</ele>
        <time>2025-09-16T14:36:16Z</time>
      </trkpt>
      <trkpt lat="43.65904" lon="2.40503">
        <ele>674.8</ele>
        <time>2025-09-16T14:36:17Z</time>
      </trkpt>
      <trkpt lat="43.65899" lon="2.40506">
        <ele>674.4</ele>
        <time>2025-09-16T14:36:18Z</time>
      </trkpt>
      <trkpt lat="43.65894" lon="2.40509">
        <ele>674.2</ele>
        <time>2025-09-16T14:36:19Z</time>
      </trkpt>
      <trkpt lat="43.65889" lon="2.40509">
        <ele>673.8</ele>
        <time>2025-09-16T14:36:20Z</time>
      </trkpt>
      <trkpt lat="43.65885" lon="2.40508">
        <ele>673.6</ele>
        <time>2025-09-16T14:36:21Z</time>
      </trkpt>
      <trkpt lat="43.6588" lon="2.40506">
        <ele>673.4</ele>
        <time>2025-09-16T14:36:22Z</time>
      </trkpt>
      <trkpt lat="43.65875" lon="2.40504">
        <ele>673.2</ele>
        <time>2025-09-16T14:36:23Z</time>
      </trkpt>
      <trkpt lat="43.6587" lon="2.40501">
        <ele>673.2</ele>
        <time>2025-09-16T14:36:24Z</time>
      </trkpt>
      <trkpt lat="43.65865" lon="2.405">
        <ele>673</ele>
        <time>2025-09-16T14:36:25Z</time>
      </trkpt>
      <trkpt lat="43.6586" lon="2.405">
        <ele>673</ele>
        <time>2025-09-16T14:36:26Z</time>
      </trkpt>
      <trkpt lat="43.65856" lon="2.40499">
        <ele>672.8</ele>
        <time>2025-09-16T14:36:27Z</time>
      </trkpt>
      <trkpt lat="43.65853" lon="2.40498">
        <ele>673</ele>
        <time>2025-09-16T14:36:28Z</time>
      </trkpt>
      <trkpt lat="43.65849" lon="2.40497">
        <ele>673</ele>
        <time>2025-09-16T14:36:29Z</time>
      </trkpt>
      <trkpt lat="43.65846" lon="2.40495">
        <ele>673</ele>
        <time>2025-09-16T14:36:30Z</time>
      </trkpt>
      <trkpt lat="43.65843" lon="2.40494">
        <ele>673.2</ele>
        <time>2025-09-16T14:36:31Z</time>
      </trkpt>
      <trkpt lat="43.6584" lon="2.40492">
        <ele>673.2</ele>
        <time>2025-09-16T14:36:32Z</time>
      </trkpt>
      <trkpt lat="43.65838" lon="2.4049">
        <ele>673</ele>
        <time>2025-09-16T14:36:33Z</time>
      </trkpt>
      <trkpt lat="43.65834" lon="2.40489">
        <ele>673</ele>
        <time>2025-09-16T14:36:34Z</time>
      </trkpt>
      <trkpt lat="43.65831" lon="2.40488">
        <ele>672.8</ele>
        <time>2025-09-16T14:36:35Z</time>
      </trkpt>
      <trkpt lat="43.65827" lon="2.40487">
        <ele>672.6</ele>
        <time>2025-09-16T14:36:36Z</time>
      </trkpt>
      <trkpt lat="43.65824" lon="2.40486">
        <ele>672.6</ele>
        <time>2025-09-16T14:36:37Z</time>
      </trkpt>
      <trkpt lat="43.65821" lon="2.40483">
        <ele>672.2</ele>
        <time>2025-09-16T14:36:38Z</time>
      </trkpt>
      <trkpt lat="43.65818" lon="2.4048">
        <ele>672</ele>
        <time>2025-09-16T14:36:39Z</time>
      </trkpt>
      <trkpt lat="43.65814" lon="2.40476">
        <ele>671.6</ele>
        <time>2025-09-16T14:36:40Z</time>
      </trkpt>
      <trkpt lat="43.65811" lon="2.40472">
        <ele>671</ele>
        <time>2025-09-16T14:36:41Z</time>
      </trkpt>
      <trkpt lat="43.65808" lon="2.40466">
        <ele>670.6</ele>
        <time>2025-09-16T14:36:42Z</time>
      </trkpt>
      <trkpt lat="43.65805" lon="2.40461">
        <ele>670.2</ele>
        <time>2025-09-16T14:36:43Z</time>
      </trkpt>
      <trkpt lat="43.658" lon="2.40455">
        <ele>669.6</ele>
        <time>2025-09-16T14:36:44Z</time>
      </trkpt>
      <trkpt lat="43.65796" lon="2.40451">
        <ele>669</ele>
        <time>2025-09-16T14:36:45Z</time>
      </trkpt>
      <trkpt lat="43.65792" lon="2.40446">
        <ele>668.4</ele>
        <time>2025-09-16T14:36:46Z</time>
      </trkpt>
      <trkpt lat="43.65787" lon="2.40442">
        <ele>667.8</ele>
        <time>2025-09-16T14:36:47Z</time>
      </trkpt>
      <trkpt lat="43.65784" lon="2.40438">
        <ele>667.4</ele>
        <time>2025-09-16T14:36:48Z</time>
      </trkpt>
      <trkpt lat="43.6578" lon="2.40435">
        <ele>667.2</ele>
        <time>2025-09-16T14:36:49Z</time>
      </trkpt>
      <trkpt lat="43.65776" lon="2.40434">
        <ele>667</ele>
        <time>2025-09-16T14:36:50Z</time>
      </trkpt>
      <trkpt lat="43.65773" lon="2.40432">
        <ele>666.8</ele>
        <time>2025-09-16T14:36:51Z</time>
      </trkpt>
      <trkpt lat="43.6577" lon="2.40431">
        <ele>666.8</ele>
        <time>2025-09-16T14:36:52Z</time>
      </trkpt>
      <trkpt lat="43.65767" lon="2.4043">
        <ele>666.6</ele>
        <time>2025-09-16T14:36:53Z</time>
      </trkpt>
      <trkpt lat="43.65765" lon="2.40429">
        <ele>666.4</ele>
        <time>2025-09-16T14:36:54Z</time>
      </trkpt>
      <trkpt lat="43.65763" lon="2.40428">
        <ele>666.2</ele>
        <time>2025-09-16T14:36:55Z</time>
      </trkpt>
      <trkpt lat="43.6576" lon="2.40427">
        <ele>666.2</ele>
        <time>2025-09-16T14:36:56Z</time>
      </trkpt>
      <trkpt lat="43.65758" lon="2.40427">
        <ele>666</ele>
        <time>2025-09-16T14:36:57Z</time>
      </trkpt>
      <trkpt lat="43.65757" lon="2.40427">
        <ele>665.8</ele>
        <time>2025-09-16T14:36:58Z</time>
      </trkpt>
      <trkpt lat="43.65756" lon="2.40428">
        <ele>665.8</ele>
        <time>2025-09-16T14:36:59Z</time>
      </trkpt>
      <trkpt lat="43.65756" lon="2.40429">
        <ele>665.8</ele>
        <time>2025-09-16T14:37:00Z</time>
      </trkpt>
      <trkpt lat="43.65756" lon="2.40431">
        <ele>665.8</ele>
        <time>2025-09-16T14:37:01Z</time>
      </trkpt>
      <trkpt lat="43.65756" lon="2.40432">
        <ele>665.8</ele>
        <time>2025-09-16T14:37:02Z</time>
      </trkpt>
      <trkpt lat="43.65757" lon="2.40435">
        <ele>665.6</ele>
        <time>2025-09-16T14:37:03Z</time>
      </trkpt>
      <trkpt lat="43.65757" lon="2.40438">
        <ele>665.6</ele>
        <time>2025-09-16T14:37:04Z</time>
      </trkpt>
      <trkpt lat="43.65757" lon="2.40442">
        <ele>665.4</ele>
        <time>2025-09-16T14:37:05Z</time>
      </trkpt>
      <trkpt lat="43.65756" lon="2.40446">
        <ele>665.4</ele>
        <time>2025-09-16T14:37:06Z</time>
      </trkpt>
      <trkpt lat="43.65756" lon="2.4045">
        <ele>665.2</ele>
        <time>2025-09-16T14:37:07Z</time>
      </trkpt>
      <trkpt lat="43.65756" lon="2.40455">
        <ele>665.2</ele>
        <time>2025-09-16T14:37:08Z</time>
      </trkpt>
      <trkpt lat="43.65757" lon="2.40459">
        <ele>665.2</ele>
        <time>2025-09-16T14:37:09Z</time>
      </trkpt>
      <trkpt lat="43.65757" lon="2.40463">
        <ele>665</ele>
        <time>2025-09-16T14:37:10Z</time>
      </trkpt>
      <trkpt lat="43.65757" lon="2.40468">
        <ele>664.8</ele>
        <time>2025-09-16T14:37:11Z</time>
      </trkpt>
      <trkpt lat="43.65757" lon="2.40473">
        <ele>664.6</ele>
        <time>2025-09-16T14:37:12Z</time>
      </trkpt>
      <trkpt lat="43.65758" lon="2.40478">
        <ele>664.4</ele>
        <time>2025-09-16T14:37:13Z</time>
      </trkpt>
      <trkpt lat="43.65758" lon="2.40483">
        <ele>664.2</ele>
        <time>2025-09-16T14:37:14Z</time>
      </trkpt>
      <trkpt lat="43.65759" lon="2.40487">
        <ele>664.2</ele>
        <time>2025-09-16T14:37:15Z</time>
      </trkpt>
      <trkpt lat="43.6576" lon="2.40493">
        <ele>664</ele>
        <time>2025-09-16T14:37:16Z</time>
      </trkpt>
      <trkpt lat="43.65761" lon="2.40497">
        <ele>663.8</ele>
        <time>2025-09-16T14:37:17Z</time>
      </trkpt>
      <trkpt lat="43.65763" lon="2.40502">
        <ele>663.8</ele>
        <time>2025-09-16T14:37:18Z</time>
      </trkpt>
      <trkpt lat="43.65764" lon="2.40505">
        <ele>663.6</ele>
        <time>2025-09-16T14:37:19Z</time>
      </trkpt>
      <trkpt lat="43.65767" lon="2.40509">
        <ele>663.6</ele>
        <time>2025-09-16T14:37:20Z</time>
      </trkpt>
      <trkpt lat="43.65768" lon="2.40513">
        <ele>663.4</ele>
        <time>2025-09-16T14:37:21Z</time>
      </trkpt>
      <trkpt lat="43.6577" lon="2.40518">
        <ele>663.2</ele>
        <time>2025-09-16T14:37:22Z</time>
      </trkpt>
      <trkpt lat="43.65772" lon="2.40522">
        <ele>662.8</ele>
        <time>2025-09-16T14:37:23Z</time>
      </trkpt>
      <trkpt lat="43.65774" lon="2.40526">
        <ele>662.4</ele>
        <time>2025-09-16T14:37:24Z</time>
      </trkpt>
      <trkpt lat="43.65776" lon="2.40529">
        <ele>662</ele>
        <time>2025-09-16T14:37:25Z</time>
      </trkpt>
      <trkpt lat="43.65779" lon="2.40533">
        <ele>661.6</ele>
        <time>2025-09-16T14:37:26Z</time>
      </trkpt>
      <trkpt lat="43.65782" lon="2.40538">
        <ele>661.2</ele>
        <time>2025-09-16T14:37:27Z</time>
      </trkpt>
      <trkpt lat="43.65784" lon="2.40543">
        <ele>661</ele>
        <time>2025-09-16T14:37:28Z</time>
      </trkpt>
      <trkpt lat="43.65787" lon="2.40546">
        <ele>660.6</ele>
        <time>2025-09-16T14:37:29Z</time>
      </trkpt>
      <trkpt lat="43.6579" lon="2.40551">
        <ele>660.4</ele>
        <time>2025-09-16T14:37:30Z</time>
      </trkpt>
      <trkpt lat="43.65793" lon="2.40555">
        <ele>660.4</ele>
        <time>2025-09-16T14:37:31Z</time>
      </trkpt>
      <trkpt lat="43.65794" lon="2.40558">
        <ele>660.4</ele>
        <time>2025-09-16T14:37:32Z</time>
      </trkpt>
      <trkpt lat="43.65795" lon="2.4056">
        <ele>660.2</ele>
        <time>2025-09-16T14:37:33Z</time>
      </trkpt>
      <trkpt lat="43.65794" lon="2.40563">
        <ele>660.2</ele>
        <time>2025-09-16T14:37:34Z</time>
      </trkpt>
      <trkpt lat="43.65792" lon="2.40564">
        <ele>660.2</ele>
        <time>2025-09-16T14:37:35Z</time>
      </trkpt>
      <trkpt lat="43.65791" lon="2.40566">
        <ele>660</ele>
        <time>2025-09-16T14:37:36Z</time>
      </trkpt>
      <trkpt lat="43.65789" lon="2.40567">
        <ele>659.8</ele>
        <time>2025-09-16T14:37:37Z</time>
      </trkpt>
      <trkpt lat="43.65789" lon="2.4057">
        <ele>659.6</ele>
        <time>2025-09-16T14:37:38Z</time>
      </trkpt>
      <trkpt lat="43.65789" lon="2.40575">
        <ele>659.2</ele>
        <time>2025-09-16T14:37:39Z</time>
      </trkpt>
      <trkpt lat="43.65789" lon="2.40581">
        <ele>658.6</ele>
        <time>2025-09-16T14:37:40Z</time>
      </trkpt>
      <trkpt lat="43.6579" lon="2.40587">
        <ele>658</ele>
        <time>2025-09-16T14:37:41Z</time>
      </trkpt>
      <trkpt lat="43.65789" lon="2.40593">
        <ele>657.4</ele>
        <time>2025-09-16T14:37:42Z</time>
      </trkpt>
      <trkpt lat="43.65788" lon="2.40597">
        <ele>657</ele>
        <time>2025-09-16T14:37:43Z</time>
      </trkpt>
      <trkpt lat="43.65786" lon="2.40602">
        <ele>656.6</ele>
        <time>2025-09-16T14:37:44Z</time>
      </trkpt>
      <trkpt lat="43.65785" lon="2.40607">
        <ele>656.2</ele>
        <time>2025-09-16T14:37:45Z</time>
      </trkpt>
      <trkpt lat="43.65784" lon="2.4061">
        <ele>656.2</ele>
        <time>2025-09-16T14:37:46Z</time>
      </trkpt>
      <trkpt lat="43.65782" lon="2.40612">
        <ele>656</ele>
        <time>2025-09-16T14:37:47Z</time>
      </trkpt>
      <trkpt lat="43.65779" lon="2.40615">
        <ele>656</ele>
        <time>2025-09-16T14:37:48Z</time>
      </trkpt>
      <trkpt lat="43.65776" lon="2.40617">
        <ele>656</ele>
        <time>2025-09-16T14:37:49Z</time>
      </trkpt>
      <trkpt lat="43.65773" lon="2.40619">
        <ele>655.6</ele>
        <time>2025-09-16T14:37:50Z</time>
      </trkpt>
      <trkpt lat="43.65769" lon="2.40621">
        <ele>655.4</ele>
        <time>2025-09-16T14:37:51Z</time>
      </trkpt>
      <trkpt lat="43.65765" lon="2.40621">
        <ele>655</ele>
        <time>2025-09-16T14:37:52Z</time>
      </trkpt>
      <trkpt lat="43.65762" lon="2.40624">
        <ele>654.8</ele>
        <time>2025-09-16T14:37:53Z</time>
      </trkpt>
      <trkpt lat="43.6576" lon="2.40627">
        <ele>654.8</ele>
        <time>2025-09-16T14:37:54Z</time>
      </trkpt>
      <trkpt lat="43.6576" lon="2.40629">
        <ele>654.8</ele>
        <time>2025-09-16T14:37:55Z</time>
      </trkpt>
      <trkpt lat="43.65759" lon="2.4063">
        <ele>655</ele>
        <time>2025-09-16T14:37:56Z</time>
      </trkpt>
      <trkpt lat="43.65758" lon="2.40631">
        <ele>655.4</ele>
        <time>2025-09-16T14:37:57Z</time>
      </trkpt>
      <trkpt lat="43.65757" lon="2.40632">
        <ele>655.6</ele>
        <time>2025-09-16T14:37:58Z</time>
      </trkpt>
      <trkpt lat="43.65756" lon="2.40634">
        <ele>656</ele>
        <time>2025-09-16T14:37:59Z</time>
      </trkpt>
      <trkpt lat="43.65755" lon="2.40636">
        <ele>656.2</ele>
        <time>2025-09-16T14:38:00Z</time>
      </trkpt>
      <trkpt lat="43.65754" lon="2.40638">
        <ele>656.4</ele>
        <time>2025-09-16T14:38:01Z</time>
      </trkpt>
      <trkpt lat="43.65752" lon="2.40639">
        <ele>656.6</ele>
        <time>2025-09-16T14:38:02Z</time>
      </trkpt>
      <trkpt lat="43.65752" lon="2.4064">
        <ele>657</ele>
        <time>2025-09-16T14:38:03Z</time>
      </trkpt>
      <trkpt lat="43.65751" lon="2.40642">
        <ele>657.2</ele>
        <time>2025-09-16T14:38:04Z</time>
      </trkpt>
      <trkpt lat="43.6575" lon="2.40644">
        <ele>657.4</ele>
        <time>2025-09-16T14:38:05Z</time>
      </trkpt>
      <trkpt lat="43.6575" lon="2.40646">
        <ele>657.8</ele>
        <time>2025-09-16T14:38:06Z</time>
      </trkpt>
      <trkpt lat="43.65749" lon="2.40648">
        <ele>658</ele>
        <time>2025-09-16T14:38:07Z</time>
      </trkpt>
      <trkpt lat="43.65749" lon="2.4065">
        <ele>658.4</ele>
        <time>2025-09-16T14:38:08Z</time>
      </trkpt>
      <trkpt lat="43.65749" lon="2.40651">
        <ele>658.6</ele>
        <time>2025-09-16T14:38:09Z</time>
      </trkpt>
      <trkpt lat="43.65749" lon="2.40653">
        <ele>658.8</ele>
        <time>2025-09-16T14:38:10Z</time>
      </trkpt>
      <trkpt lat="43.6575" lon="2.40655">
        <ele>659</ele>
        <time>2025-09-16T14:38:11Z</time>
      </trkpt>
      <trkpt lat="43.6575" lon="2.40659">
        <ele>659.2</ele>
        <time>2025-09-16T14:38:12Z</time>
      </trkpt>
      <trkpt lat="43.6575" lon="2.40662">
        <ele>659.4</ele>
        <time>2025-09-16T14:38:13Z</time>
      </trkpt>
      <trkpt lat="43.6575" lon="2.40664">
        <ele>659.4</ele>
        <time>2025-09-16T14:38:14Z</time>
      </trkpt>
      <trkpt lat="43.6575" lon="2.40666">
        <ele>659.4</ele>
        <time>2025-09-16T14:38:15Z</time>
      </trkpt>
      <trkpt lat="43.6575" lon="2.40668">
        <ele>659.6</ele>
        <time>2025-09-16T14:38:16Z</time>
      </trkpt>
      <trkpt lat="43.65749" lon="2.4067">
        <ele>659.8</ele>
        <time>2025-09-16T14:38:17Z</time>
      </trkpt>
      <trkpt lat="43.65749" lon="2.40672">
        <ele>659.8</ele>
        <time>2025-09-16T14:38:18Z</time>
      </trkpt>
      <trkpt lat="43.65748" lon="2.40674">
        <ele>660</ele>
        <time>2025-09-16T14:38:19Z</time>
      </trkpt>
      <trkpt lat="43.65748" lon="2.40677">
        <ele>660</ele>
        <time>2025-09-16T14:38:20Z</time>
      </trkpt>
      <trkpt lat="43.65747" lon="2.4068">
        <ele>660.2</ele>
        <time>2025-09-16T14:38:21Z</time>
      </trkpt>
      <trkpt lat="43.65747" lon="2.40683">
        <ele>660.2</ele>
        <time>2025-09-16T14:38:22Z</time>
      </trkpt>
      <trkpt lat="43.65747" lon="2.40685">
        <ele>660.4</ele>
        <time>2025-09-16T14:38:23Z</time>
      </trkpt>
      <trkpt lat="43.65747" lon="2.40687">
        <ele>660.6</ele>
        <time>2025-09-16T14:38:24Z</time>
      </trkpt>
      <trkpt lat="43.65746" lon="2.40689">
        <ele>660.6</ele>
        <time>2025-09-16T14:38:25Z</time>
      </trkpt>
      <trkpt lat="43.65746" lon="2.40692">
        <ele>660.8</ele>
        <time>2025-09-16T14:38:26Z</time>
      </trkpt>
      <trkpt lat="43.65746" lon="2.40696">
        <ele>661</ele>
        <time>2025-09-16T14:38:27Z</time>
      </trkpt>
      <trkpt lat="43.65745" lon="2.40699">
        <ele>661.2</ele>
        <time>2025-09-16T14:38:28Z</time>
      </trkpt>
      <trkpt lat="43.65745" lon="2.40702">
        <ele>661.4</ele>
        <time>2025-09-16T14:38:29Z</time>
      </trkpt>
      <trkpt lat="43.65744" lon="2.40705">
        <ele>661.6</ele>
        <time>2025-09-16T14:38:30Z</time>
      </trkpt>
      <trkpt lat="43.65744" lon="2.40708">
        <ele>661.8</ele>
        <time>2025-09-16T14:38:31Z</time>
      </trkpt>
      <trkpt lat="43.65744" lon="2.40711">
        <ele>662</ele>
        <time>2025-09-16T14:38:32Z</time>
      </trkpt>
      <trkpt lat="43.65744" lon="2.40713">
        <ele>662.2</ele>
        <time>2025-09-16T14:38:33Z</time>
      </trkpt>
      <trkpt lat="43.65744" lon="2.40715">
        <ele>662.4</ele>
        <time>2025-09-16T14:38:34Z</time>
      </trkpt>
      <trkpt lat="43.65744" lon="2.40717">
        <ele>662.4</ele>
        <time>2025-09-16T14:38:35Z</time>
      </trkpt>
      <trkpt lat="43.65744" lon="2.40719">
        <ele>662.6</ele>
        <time>2025-09-16T14:38:36Z</time>
      </trkpt>
      <trkpt lat="43.65744" lon="2.40722">
        <ele>662.8</ele>
        <time>2025-09-16T14:38:37Z</time>
      </trkpt>
      <trkpt lat="43.65745" lon="2.40725">
        <ele>663</ele>
        <time>2025-09-16T14:38:38Z</time>
      </trkpt>
      <trkpt lat="43.65745" lon="2.40726">
        <ele>663</ele>
        <time>2025-09-16T14:38:39Z</time>
      </trkpt>
      <trkpt lat="43.65745" lon="2.40729">
        <ele>663.2</ele>
        <time>2025-09-16T14:38:40Z</time>
      </trkpt>
      <trkpt lat="43.65745" lon="2.40731">
        <ele>663.2</ele>
        <time>2025-09-16T14:38:41Z</time>
      </trkpt>
      <trkpt lat="43.65745" lon="2.40733">
        <ele>663.4</ele>
        <time>2025-09-16T14:38:42Z</time>
      </trkpt>
      <trkpt lat="43.65746" lon="2.40735">
        <ele>663.6</ele>
        <time>2025-09-16T14:38:43Z</time>
      </trkpt>
      <trkpt lat="43.65746" lon="2.40739">
        <ele>663.8</ele>
        <time>2025-09-16T14:38:44Z</time>
      </trkpt>
      <trkpt lat="43.65747" lon="2.40742">
        <ele>664</ele>
        <time>2025-09-16T14:38:45Z</time>
      </trkpt>
      <trkpt lat="43.65748" lon="2.40743">
        <ele>664</ele>
        <time>2025-09-16T14:38:46Z</time>
      </trkpt>
      <trkpt lat="43.65747" lon="2.40745">
        <ele>664.2</ele>
        <time>2025-09-16T14:38:47Z</time>
      </trkpt>
      <trkpt lat="43.65746" lon="2.40746">
        <ele>664.4</ele>
        <time>2025-09-16T14:38:48Z</time>
      </trkpt>
      <trkpt lat="43.65746" lon="2.40749">
        <ele>664.6</ele>
        <time>2025-09-16T14:38:49Z</time>
      </trkpt>
      <trkpt lat="43.65746" lon="2.4075">
        <ele>664.6</ele>
        <time>2025-09-16T14:38:50Z</time>
      </trkpt>
      <trkpt lat="43.65745" lon="2.40752">
        <ele>664.8</ele>
        <time>2025-09-16T14:38:51Z</time>
      </trkpt>
      <trkpt lat="43.65745" lon="2.40754">
        <ele>665</ele>
        <time>2025-09-16T14:38:52Z</time>
      </trkpt>
      <trkpt lat="43.65744" lon="2.40755">
        <ele>665.4</ele>
        <time>2025-09-16T14:38:53Z</time>
      </trkpt>
      <trkpt lat="43.65744" lon="2.40756">
        <ele>665.6</ele>
        <time>2025-09-16T14:38:54Z</time>
      </trkpt>
      <trkpt lat="43.65743" lon="2.40758">
        <ele>665.8</ele>
        <time>2025-09-16T14:38:55Z</time>
      </trkpt>
      <trkpt lat="43.65742" lon="2.40759">
        <ele>666.2</ele>
        <time>2025-09-16T14:38:56Z</time>
      </trkpt>
      <trkpt lat="43.6572" lon="2.40785">
        <ele>669.4</ele>
        <time>2025-09-16T14:39:17Z</time>
      </trkpt>
      <trkpt lat="43.65719" lon="2.40788">
        <ele>669.4</ele>
        <time>2025-09-16T14:39:18Z</time>
      </trkpt>
      <trkpt lat="43.65718" lon="2.40789">
        <ele>669.4</ele>
        <time>2025-09-16T14:39:19Z</time>
      </trkpt>
      <trkpt lat="43.65716" lon="2.4079">
        <ele>669.4</ele>
        <time>2025-09-16T14:39:20Z</time>
      </trkpt>
      <trkpt lat="43.65713" lon="2.40792">
        <ele>669.4</ele>
        <time>2025-09-16T14:39:21Z</time>
      </trkpt>
      <trkpt lat="43.65711" lon="2.40794">
        <ele>669.4</ele>
        <time>2025-09-16T14:39:22Z</time>
      </trkpt>
      <trkpt lat="43.65709" lon="2.40795">
        <ele>669.2</ele>
        <time>2025-09-16T14:39:23Z</time>
      </trkpt>
      <trkpt lat="43.65707" lon="2.40796">
        <ele>669.2</ele>
        <time>2025-09-16T14:39:24Z</time>
      </trkpt>
      <trkpt lat="43.65704" lon="2.40799">
        <ele>669</ele>
        <time>2025-09-16T14:39:25Z</time>
      </trkpt>
      <trkpt lat="43.65701" lon="2.40802">
        <ele>669</ele>
        <time>2025-09-16T14:39:26Z</time>
      </trkpt>
      <trkpt lat="43.657" lon="2.40804">
        <ele>668.8</ele>
        <time>2025-09-16T14:39:27Z</time>
      </trkpt>
      <trkpt lat="43.65698" lon="2.40806">
        <ele>668.4</ele>
        <time>2025-09-16T14:39:28Z</time>
      </trkpt>
      <trkpt lat="43.65695" lon="2.4081">
        <ele>668.2</ele>
        <time>2025-09-16T14:39:29Z</time>
      </trkpt>
      <trkpt lat="43.65694" lon="2.40813">
        <ele>668</ele>
        <time>2025-09-16T14:39:30Z</time>
      </trkpt>
      <trkpt lat="43.65693" lon="2.40815">
        <ele>668</ele>
        <time>2025-09-16T14:39:31Z</time>
      </trkpt>
      <trkpt lat="43.65692" lon="2.40815">
        <ele>667.8</ele>
        <time>2025-09-16T14:39:32Z</time>
      </trkpt>
      <trkpt lat="43.6569" lon="2.40817">
        <ele>667.4</ele>
        <time>2025-09-16T14:39:33Z</time>
      </trkpt>
      <trkpt lat="43.65688" lon="2.40819">
        <ele>667.2</ele>
        <time>2025-09-16T14:39:34Z</time>
      </trkpt>
      <trkpt lat="43.65685" lon="2.40822">
        <ele>666.6</ele>
        <time>2025-09-16T14:39:35Z</time>
      </trkpt>
      <trkpt lat="43.65683" lon="2.40825">
        <ele>666</ele>
        <time>2025-09-16T14:39:36Z</time>
      </trkpt>
      <trkpt lat="43.65678" lon="2.40828">
        <ele>665.6</ele>
        <time>2025-09-16T14:39:37Z</time>
      </trkpt>
      <trkpt lat="43.65676" lon="2.40829">
        <ele>665.2</ele>
        <time>2025-09-16T14:39:38Z</time>
      </trkpt>
      <trkpt lat="43.65673" lon="2.40829">
        <ele>664.6</ele>
        <time>2025-09-16T14:39:39Z</time>
      </trkpt>
      <trkpt lat="43.65669" lon="2.4083">
        <ele>664.2</ele>
        <time>2025-09-16T14:39:40Z</time>
      </trkpt>
      <trkpt lat="43.65666" lon="2.40831">
        <ele>663.6</ele>
        <time>2025-09-16T14:39:41Z</time>
      </trkpt>
      <trkpt lat="43.65663" lon="2.40831">
        <ele>663</ele>
        <time>2025-09-16T14:39:42Z</time>
      </trkpt>
      <trkpt lat="43.6566" lon="2.40831">
        <ele>662.2</ele>
        <time>2025-09-16T14:39:43Z</time>
      </trkpt>
      <trkpt lat="43.65655" lon="2.40834">
        <ele>661.2</ele>
        <time>2025-09-16T14:39:44Z</time>
      </trkpt>
      <trkpt lat="43.65649" lon="2.40838">
        <ele>660.4</ele>
        <time>2025-09-16T14:39:45Z</time>
      </trkpt>
      <trkpt lat="43.65644" lon="2.40841">
        <ele>659.4</ele>
        <time>2025-09-16T14:39:46Z</time>
      </trkpt>
      <trkpt lat="43.65639" lon="2.40844">
        <ele>658.8</ele>
        <time>2025-09-16T14:39:47Z</time>
      </trkpt>
      <trkpt lat="43.65634" lon="2.40846">
        <ele>658</ele>
        <time>2025-09-16T14:39:48Z</time>
      </trkpt>
      <trkpt lat="43.65628" lon="2.40848">
        <ele>657.2</ele>
        <time>2025-09-16T14:39:49Z</time>
      </trkpt>
      <trkpt lat="43.65623" lon="2.4085">
        <ele>656.8</ele>
        <time>2025-09-16T14:39:50Z</time>
      </trkpt>
      <trkpt lat="43.6562" lon="2.40853">
        <ele>656.4</ele>
        <time>2025-09-16T14:39:51Z</time>
      </trkpt>
      <trkpt lat="43.65617" lon="2.40856">
        <ele>655.8</ele>
        <time>2025-09-16T14:39:52Z</time>
      </trkpt>
      <trkpt lat="43.65615" lon="2.40857">
        <ele>655.4</ele>
        <time>2025-09-16T14:39:53Z</time>
      </trkpt>
      <trkpt lat="43.6561" lon="2.40862">
        <ele>655.2</ele>
        <time>2025-09-16T14:39:54Z</time>
      </trkpt>
      <trkpt lat="43.65607" lon="2.40865">
        <ele>654.8</ele>
        <time>2025-09-16T14:39:55Z</time>
      </trkpt>
      <trkpt lat="43.65605" lon="2.40868">
        <ele>654.6</ele>
        <time>2025-09-16T14:39:56Z</time>
      </trkpt>
      <trkpt lat="43.65603" lon="2.4087">
        <ele>654.4</ele>
        <time>2025-09-16T14:39:57Z</time>
      </trkpt>
      <trkpt lat="43.65602" lon="2.40871">
        <ele>654.4</ele>
        <time>2025-09-16T14:39:58Z</time>
      </trkpt>
      <trkpt lat="43.65602" lon="2.40871">
        <ele>654.4</ele>
        <time>2025-09-16T14:39:59Z</time>
      </trkpt>
      <trkpt lat="43.65602" lon="2.40871">
        <ele>654.6</ele>
        <time>2025-09-16T14:40:00Z</time>
      </trkpt>
      <trkpt lat="43.656" lon="2.40875">
        <ele>654.8</ele>
        <time>2025-09-16T14:40:03Z</time>
      </trkpt>
      <trkpt lat="43.65599" lon="2.40877">
        <ele>654.6</ele>
        <time>2025-09-16T14:40:04Z</time>
      </trkpt>
      <trkpt lat="43.65597" lon="2.40879">
        <ele>654.6</ele>
        <time>2025-09-16T14:40:05Z</time>
      </trkpt>
      <trkpt lat="43.65596" lon="2.4088">
        <ele>654.4</ele>
        <time>2025-09-16T14:40:06Z</time>
      </trkpt>
      <trkpt lat="43.65594" lon="2.40882">
        <ele>654.4</ele>
        <time>2025-09-16T14:40:07Z</time>
      </trkpt>
      <trkpt lat="43.65593" lon="2.40884">
        <ele>654.4</ele>
        <time>2025-09-16T14:40:08Z</time>
      </trkpt>
      <trkpt lat="43.65592" lon="2.40886">
        <ele>654.6</ele>
        <time>2025-09-16T14:40:09Z</time>
      </trkpt>
      <trkpt lat="43.65591" lon="2.40889">
        <ele>654.8</ele>
        <time>2025-09-16T14:40:10Z</time>
      </trkpt>
      <trkpt lat="43.6559" lon="2.40891">
        <ele>654.8</ele>
        <time>2025-09-16T14:40:11Z</time>
      </trkpt>
      <trkpt lat="43.65588" lon="2.40894">
        <ele>655</ele>
        <time>2025-09-16T14:40:12Z</time>
      </trkpt>
      <trkpt lat="43.65587" lon="2.40896">
        <ele>655</ele>
        <time>2025-09-16T14:40:13Z</time>
      </trkpt>
      <trkpt lat="43.65586" lon="2.40898">
        <ele>655.2</ele>
        <time>2025-09-16T14:40:14Z</time>
      </trkpt>
      <trkpt lat="43.65585" lon="2.409">
        <ele>655.4</ele>
        <time>2025-09-16T14:40:15Z</time>
      </trkpt>
      <trkpt lat="43.65584" lon="2.40902">
        <ele>655.4</ele>
        <time>2025-09-16T14:40:16Z</time>
      </trkpt>
      <trkpt lat="43.65583" lon="2.40905">
        <ele>655.6</ele>
        <time>2025-09-16T14:40:17Z</time>
      </trkpt>
      <trkpt lat="43.65582" lon="2.40908">
        <ele>655.8</ele>
        <time>2025-09-16T14:40:18Z</time>
      </trkpt>
      <trkpt lat="43.65581" lon="2.40911">
        <ele>656</ele>
        <time>2025-09-16T14:40:19Z</time>
      </trkpt>
      <trkpt lat="43.6558" lon="2.40913">
        <ele>656</ele>
        <time>2025-09-16T14:40:20Z</time>
      </trkpt>
      <trkpt lat="43.6558" lon="2.40916">
        <ele>656.2</ele>
        <time>2025-09-16T14:40:21Z</time>
      </trkpt>
      <trkpt lat="43.65578" lon="2.40918">
        <ele>656.4</ele>
        <time>2025-09-16T14:40:22Z</time>
      </trkpt>
      <trkpt lat="43.65577" lon="2.40921">
        <ele>656.4</ele>
        <time>2025-09-16T14:40:23Z</time>
      </trkpt>
      <trkpt lat="43.65576" lon="2.40925">
        <ele>656.6</ele>
        <time>2025-09-16T14:40:24Z</time>
      </trkpt>
      <trkpt lat="43.65574" lon="2.40928">
        <ele>656.6</ele>
        <time>2025-09-16T14:40:25Z</time>
      </trkpt>
      <trkpt lat="43.65572" lon="2.40931">
        <ele>656.6</ele>
        <time>2025-09-16T14:40:26Z</time>
      </trkpt>
      <trkpt lat="43.65571" lon="2.40934">
        <ele>656.6</ele>
        <time>2025-09-16T14:40:27Z</time>
      </trkpt>
      <trkpt lat="43.65569" lon="2.40937">
        <ele>656.6</ele>
        <time>2025-09-16T14:40:28Z</time>
      </trkpt>
      <trkpt lat="43.65568" lon="2.40941">
        <ele>656.6</ele>
        <time>2025-09-16T14:40:29Z</time>
      </trkpt>
      <trkpt lat="43.65566" lon="2.40943">
        <ele>656.6</ele>
        <time>2025-09-16T14:40:30Z</time>
      </trkpt>
      <trkpt lat="43.65565" lon="2.40946">
        <ele>656.4</ele>
        <time>2025-09-16T14:40:31Z</time>
      </trkpt>
      <trkpt lat="43.65565" lon="2.40949">
        <ele>656.4</ele>
        <time>2025-09-16T14:40:32Z</time>
      </trkpt>
      <trkpt lat="43.65565" lon="2.40952">
        <ele>656.2</ele>
        <time>2025-09-16T14:40:33Z</time>
      </trkpt>
      <trkpt lat="43.65564" lon="2.40955">
        <ele>655.8</ele>
        <time>2025-09-16T14:40:34Z</time>
      </trkpt>
      <trkpt lat="43.65563" lon="2.40957">
        <ele>655.6</ele>
        <time>2025-09-16T14:40:35Z</time>
      </trkpt>
      <trkpt lat="43.65562" lon="2.40961">
        <ele>655.2</ele>
        <time>2025-09-16T14:40:36Z</time>
      </trkpt>
      <trkpt lat="43.65561" lon="2.40967">
        <ele>654.8</ele>
        <time>2025-09-16T14:40:37Z</time>
      </trkpt>
      <trkpt lat="43.6556" lon="2.40972">
        <ele>654.4</ele>
        <time>2025-09-16T14:40:38Z</time>
      </trkpt>
      <trkpt lat="43.65559" lon="2.40976">
        <ele>654.2</ele>
        <time>2025-09-16T14:40:39Z</time>
      </trkpt>
      <trkpt lat="43.65557" lon="2.4098">
        <ele>653.8</ele>
        <time>2025-09-16T14:40:40Z</time>
      </trkpt>
      <trkpt lat="43.65555" lon="2.40985">
        <ele>653.6</ele>
        <time>2025-09-16T14:40:41Z</time>
      </trkpt>
      <trkpt lat="43.65554" lon="2.40987">
        <ele>653.4</ele>
        <time>2025-09-16T14:40:42Z</time>
      </trkpt>
      <trkpt lat="43.65553" lon="2.4099">
        <ele>653</ele>
        <time>2025-09-16T14:40:43Z</time>
      </trkpt>
      <trkpt lat="43.65552" lon="2.40994">
        <ele>653</ele>
        <time>2025-09-16T14:40:44Z</time>
      </trkpt>
      <trkpt lat="43.6555" lon="2.40996">
        <ele>652.8</ele>
        <time>2025-09-16T14:40:45Z</time>
      </trkpt>
      <trkpt lat="43.65548" lon="2.40998">
        <ele>652.6</ele>
        <time>2025-09-16T14:40:46Z</time>
      </trkpt>
      <trkpt lat="43.65547" lon="2.41">
        <ele>652.4</ele>
        <time>2025-09-16T14:40:47Z</time>
      </trkpt>
      <trkpt lat="43.65544" lon="2.41005">
        <ele>652</ele>
        <time>2025-09-16T14:40:48Z</time>
      </trkpt>
      <trkpt lat="43.65543" lon="2.41009">
        <ele>651.6</ele>
        <time>2025-09-16T14:40:49Z</time>
      </trkpt>
      <trkpt lat="43.65543" lon="2.41013">
        <ele>651.2</ele>
        <time>2025-09-16T14:40:50Z</time>
      </trkpt>
      <trkpt lat="43.65541" lon="2.41016">
        <ele>650.6</ele>
        <time>2025-09-16T14:40:51Z</time>
      </trkpt>
      <trkpt lat="43.65538" lon="2.41021">
        <ele>650.2</ele>
        <time>2025-09-16T14:40:52Z</time>
      </trkpt>
      <trkpt lat="43.65536" lon="2.41025">
        <ele>649.8</ele>
        <time>2025-09-16T14:40:53Z</time>
      </trkpt>
      <trkpt lat="43.65535" lon="2.41029">
        <ele>649.4</ele>
        <time>2025-09-16T14:40:54Z</time>
      </trkpt>
      <trkpt lat="43.65535" lon="2.41032">
        <ele>649.2</ele>
        <time>2025-09-16T14:40:55Z</time>
      </trkpt>
      <trkpt lat="43.65536" lon="2.41036">
        <ele>649</ele>
        <time>2025-09-16T14:40:56Z</time>
      </trkpt>
      <trkpt lat="43.65539" lon="2.41042">
        <ele>648.8</ele>
        <time>2025-09-16T14:40:57Z</time>
      </trkpt>
      <trkpt lat="43.65541" lon="2.41048">
        <ele>648.4</ele>
        <time>2025-09-16T14:40:58Z</time>
      </trkpt>
      <trkpt lat="43.65544" lon="2.41054">
        <ele>648.2</ele>
        <time>2025-09-16T14:40:59Z</time>
      </trkpt>
      <trkpt lat="43.65544" lon="2.41058">
        <ele>647.6</ele>
        <time>2025-09-16T14:41:00Z</time>
      </trkpt>
      <trkpt lat="43.65546" lon="2.41061">
        <ele>647.2</ele>
        <time>2025-09-16T14:41:01Z</time>
      </trkpt>
      <trkpt lat="43.65546" lon="2.41066">
        <ele>646.4</ele>
        <time>2025-09-16T14:41:02Z</time>
      </trkpt>
      <trkpt lat="43.65548" lon="2.41071">
        <ele>645.8</ele>
        <time>2025-09-16T14:41:03Z</time>
      </trkpt>
      <trkpt lat="43.65548" lon="2.41077">
        <ele>645</ele>
        <time>2025-09-16T14:41:04Z</time>
      </trkpt>
      <trkpt lat="43.65549" lon="2.41082">
        <ele>644</ele>
        <time>2025-09-16T14:41:05Z</time>
      </trkpt>
      <trkpt lat="43.6555" lon="2.41088">
        <ele>643.4</ele>
        <time>2025-09-16T14:41:06Z</time>
      </trkpt>
      <trkpt lat="43.65552" lon="2.41095">
        <ele>642.8</ele>
        <time>2025-09-16T14:41:07Z</time>
      </trkpt>
      <trkpt lat="43.65553" lon="2.411">
        <ele>642.2</ele>
        <time>2025-09-16T14:41:08Z</time>
      </trkpt>
      <trkpt lat="43.65553" lon="2.41105">
        <ele>641.6</ele>
        <time>2025-09-16T14:41:09Z</time>
      </trkpt>
      <trkpt lat="43.65552" lon="2.41108">
        <ele>640.8</ele>
        <time>2025-09-16T14:41:10Z</time>
      </trkpt>
      <trkpt lat="43.65552" lon="2.41113">
        <ele>640</ele>
        <time>2025-09-16T14:41:11Z</time>
      </trkpt>
      <trkpt lat="43.65551" lon="2.4112">
        <ele>639.2</ele>
        <time>2025-09-16T14:41:12Z</time>
      </trkpt>
      <trkpt lat="43.65548" lon="2.41127">
        <ele>638.6</ele>
        <time>2025-09-16T14:41:13Z</time>
      </trkpt>
      <trkpt lat="43.65545" lon="2.41135">
        <ele>637.8</ele>
        <time>2025-09-16T14:41:14Z</time>
      </trkpt>
      <trkpt lat="43.65542" lon="2.41139">
        <ele>637.4</ele>
        <time>2025-09-16T14:41:15Z</time>
      </trkpt>
      <trkpt lat="43.65538" lon="2.41142">
        <ele>637</ele>
        <time>2025-09-16T14:41:16Z</time>
      </trkpt>
      <trkpt lat="43.65533" lon="2.41144">
        <ele>637</ele>
        <time>2025-09-16T14:41:17Z</time>
      </trkpt>
      <trkpt lat="43.65529" lon="2.41147">
        <ele>637</ele>
        <time>2025-09-16T14:41:18Z</time>
      </trkpt>
      <trkpt lat="43.65525" lon="2.41148">
        <ele>637.2</ele>
        <time>2025-09-16T14:41:19Z</time>
      </trkpt>
      <trkpt lat="43.65522" lon="2.41149">
        <ele>637.2</ele>
        <time>2025-09-16T14:41:20Z</time>
      </trkpt>
      <trkpt lat="43.6552" lon="2.4115">
        <ele>637.4</ele>
        <time>2025-09-16T14:41:21Z</time>
      </trkpt>
      <trkpt lat="43.65516" lon="2.41153">
        <ele>637.2</ele>
        <time>2025-09-16T14:41:22Z</time>
      </trkpt>
      <trkpt lat="43.65513" lon="2.41155">
        <ele>637</ele>
        <time>2025-09-16T14:41:23Z</time>
      </trkpt>
      <trkpt lat="43.6551" lon="2.41156">
        <ele>636.6</ele>
        <time>2025-09-16T14:41:24Z</time>
      </trkpt>
      <trkpt lat="43.65505" lon="2.41157">
        <ele>636.2</ele>
        <time>2025-09-16T14:41:25Z</time>
      </trkpt>
      <trkpt lat="43.65501" lon="2.41157">
        <ele>635.8</ele>
        <time>2025-09-16T14:41:26Z</time>
      </trkpt>
      <trkpt lat="43.65496" lon="2.41157">
        <ele>635.4</ele>
        <time>2025-09-16T14:41:27Z</time>
      </trkpt>
      <trkpt lat="43.65491" lon="2.41157">
        <ele>634.8</ele>
        <time>2025-09-16T14:41:28Z</time>
      </trkpt>
      <trkpt lat="43.65486" lon="2.41156">
        <ele>634.2</ele>
        <time>2025-09-16T14:41:29Z</time>
      </trkpt>
      <trkpt lat="43.6548" lon="2.41155">
        <ele>633.6</ele>
        <time>2025-09-16T14:41:30Z</time>
      </trkpt>
      <trkpt lat="43.65475" lon="2.41154">
        <ele>633.2</ele>
        <time>2025-09-16T14:41:31Z</time>
      </trkpt>
      <trkpt lat="43.6547" lon="2.41154">
        <ele>632.8</ele>
        <time>2025-09-16T14:41:32Z</time>
      </trkpt>
      <trkpt lat="43.65465" lon="2.41154">
        <ele>632.6</ele>
        <time>2025-09-16T14:41:33Z</time>
      </trkpt>
      <trkpt lat="43.65459" lon="2.41153">
        <ele>632.4</ele>
        <time>2025-09-16T14:41:34Z</time>
      </trkpt>
      <trkpt lat="43.65454" lon="2.41154">
        <ele>632.2</ele>
        <time>2025-09-16T14:41:35Z</time>
      </trkpt>
      <trkpt lat="43.65449" lon="2.41157">
        <ele>632</ele>
        <time>2025-09-16T14:41:36Z</time>
      </trkpt>
      <trkpt lat="43.65444" lon="2.41161">
        <ele>631.6</ele>
        <time>2025-09-16T14:41:37Z</time>
      </trkpt>
      <trkpt lat="43.65437" lon="2.41165">
        <ele>631.4</ele>
        <time>2025-09-16T14:41:38Z</time>
      </trkpt>
      <trkpt lat="43.65431" lon="2.41169">
        <ele>631</ele>
        <time>2025-09-16T14:41:39Z</time>
      </trkpt>
      <trkpt lat="43.65424" lon="2.41173">
        <ele>630.4</ele>
        <time>2025-09-16T14:41:40Z</time>
      </trkpt>
      <trkpt lat="43.65417" lon="2.41175">
        <ele>629.8</ele>
        <time>2025-09-16T14:41:41Z</time>
      </trkpt>
      <trkpt lat="43.65411" lon="2.41178">
        <ele>629.2</ele>
        <time>2025-09-16T14:41:42Z</time>
      </trkpt>
      <trkpt lat="43.65405" lon="2.41181">
        <ele>628.8</ele>
        <time>2025-09-16T14:41:43Z</time>
      </trkpt>
      <trkpt lat="43.65398" lon="2.41184">
        <ele>628.6</ele>
        <time>2025-09-16T14:41:44Z</time>
      </trkpt>
      <trkpt lat="43.65392" lon="2.41187">
        <ele>628.4</ele>
        <time>2025-09-16T14:41:45Z</time>
      </trkpt>
      <trkpt lat="43.65386" lon="2.4119">
        <ele>628.4</ele>
        <time>2025-09-16T14:41:46Z</time>
      </trkpt>
      <trkpt lat="43.65381" lon="2.41192">
        <ele>628.4</ele>
        <time>2025-09-16T14:41:47Z</time>
      </trkpt>
      <trkpt lat="43.65377" lon="2.41197">
        <ele>628.4</ele>
        <time>2025-09-16T14:41:48Z</time>
      </trkpt>
      <trkpt lat="43.65375" lon="2.41199">
        <ele>628.4</ele>
        <time>2025-09-16T14:41:49Z</time>
      </trkpt>
      <trkpt lat="43.65373" lon="2.41202">
        <ele>628.4</ele>
        <time>2025-09-16T14:41:50Z</time>
      </trkpt>
      <trkpt lat="43.65369" lon="2.41205">
        <ele>628.2</ele>
        <time>2025-09-16T14:41:51Z</time>
      </trkpt>
      <trkpt lat="43.65362" lon="2.41211">
        <ele>628</ele>
        <time>2025-09-16T14:41:52Z</time>
      </trkpt>
      <trkpt lat="43.65357" lon="2.41215">
        <ele>627.6</ele>
        <time>2025-09-16T14:41:53Z</time>
      </trkpt>
      <trkpt lat="43.65353" lon="2.4122">
        <ele>627</ele>
        <time>2025-09-16T14:41:54Z</time>
      </trkpt>
      <trkpt lat="43.65349" lon="2.41224">
        <ele>626.6</ele>
        <time>2025-09-16T14:41:55Z</time>
      </trkpt>
      <trkpt lat="43.65346" lon="2.41228">
        <ele>626.2</ele>
        <time>2025-09-16T14:41:56Z</time>
      </trkpt>
      <trkpt lat="43.65342" lon="2.41232">
        <ele>626</ele>
        <time>2025-09-16T14:41:57Z</time>
      </trkpt>
      <trkpt lat="43.65338" lon="2.41236">
        <ele>625.4</ele>
        <time>2025-09-16T14:41:58Z</time>
      </trkpt>
      <trkpt lat="43.65335" lon="2.41237">
        <ele>624.8</ele>
        <time>2025-09-16T14:41:59Z</time>
      </trkpt>
      <trkpt lat="43.65329" lon="2.41239">
        <ele>624.2</ele>
        <time>2025-09-16T14:42:00Z</time>
      </trkpt>
      <trkpt lat="43.65323" lon="2.41242">
        <ele>623.4</ele>
        <time>2025-09-16T14:42:01Z</time>
      </trkpt>
      <trkpt lat="43.65316" lon="2.41245">
        <ele>622.6</ele>
        <time>2025-09-16T14:42:02Z</time>
      </trkpt>
      <trkpt lat="43.6531" lon="2.41248">
        <ele>621.6</ele>
        <time>2025-09-16T14:42:03Z</time>
      </trkpt>
      <trkpt lat="43.65303" lon="2.41249">
        <ele>620.8</ele>
        <time>2025-09-16T14:42:04Z</time>
      </trkpt>
      <trkpt lat="43.65296" lon="2.4125">
        <ele>619.8</ele>
        <time>2025-09-16T14:42:05Z</time>
      </trkpt>
      <trkpt lat="43.65291" lon="2.41249">
        <ele>618.8</ele>
        <time>2025-09-16T14:42:06Z</time>
      </trkpt>
      <trkpt lat="43.65284" lon="2.41249">
        <ele>618.2</ele>
        <time>2025-09-16T14:42:07Z</time>
      </trkpt>
      <trkpt lat="43.65276" lon="2.4125">
        <ele>617.8</ele>
        <time>2025-09-16T14:42:08Z</time>
      </trkpt>
      <trkpt lat="43.65269" lon="2.41249">
        <ele>617.6</ele>
        <time>2025-09-16T14:42:09Z</time>
      </trkpt>
      <trkpt lat="43.65264" lon="2.41246">
        <ele>617.8</ele>
        <time>2025-09-16T14:42:10Z</time>
      </trkpt>
      <trkpt lat="43.65259" lon="2.41244">
        <ele>618</ele>
        <time>2025-09-16T14:42:11Z</time>
      </trkpt>
      <trkpt lat="43.65255" lon="2.41242">
        <ele>618</ele>
        <time>2025-09-16T14:42:12Z</time>
      </trkpt>
      <trkpt lat="43.65249" lon="2.41239">
        <ele>617.8</ele>
        <time>2025-09-16T14:42:13Z</time>
      </trkpt>
      <trkpt lat="43.65243" lon="2.41238">
        <ele>617.6</ele>
        <time>2025-09-16T14:42:14Z</time>
      </trkpt>
      <trkpt lat="43.65237" lon="2.41238">
        <ele>617.2</ele>
        <time>2025-09-16T14:42:15Z</time>
      </trkpt>
      <trkpt lat="43.65232" lon="2.41235">
        <ele>616.8</ele>
        <time>2025-09-16T14:42:16Z</time>
      </trkpt>
      <trkpt lat="43.65226" lon="2.41237">
        <ele>616.4</ele>
        <time>2025-09-16T14:42:17Z</time>
      </trkpt>
      <trkpt lat="43.6522" lon="2.41239">
        <ele>616</ele>
        <time>2025-09-16T14:42:18Z</time>
      </trkpt>
      <trkpt lat="43.65214" lon="2.4124">
        <ele>615.6</ele>
        <time>2025-09-16T14:42:19Z</time>
      </trkpt>
      <trkpt lat="43.65208" lon="2.41241">
        <ele>615</ele>
        <time>2025-09-16T14:42:20Z</time>
      </trkpt>
      <trkpt lat="43.65201" lon="2.41242">
        <ele>614.6</ele>
        <time>2025-09-16T14:42:21Z</time>
      </trkpt>
      <trkpt lat="43.65194" lon="2.41245">
        <ele>614.2</ele>
        <time>2025-09-16T14:42:22Z</time>
      </trkpt>
      <trkpt lat="43.65187" lon="2.41248">
        <ele>613.6</ele>
        <time>2025-09-16T14:42:23Z</time>
      </trkpt>
      <trkpt lat="43.65181" lon="2.41251">
        <ele>613.2</ele>
        <time>2025-09-16T14:42:24Z</time>
      </trkpt>
      <trkpt lat="43.65175" lon="2.41253">
        <ele>612.8</ele>
        <time>2025-09-16T14:42:25Z</time>
      </trkpt>
      <trkpt lat="43.6517" lon="2.41257">
        <ele>612.2</ele>
        <time>2025-09-16T14:42:26Z</time>
      </trkpt>
      <trkpt lat="43.65165" lon="2.41259">
        <ele>611.8</ele>
        <time>2025-09-16T14:42:27Z</time>
      </trkpt>
      <trkpt lat="43.65161" lon="2.41261">
        <ele>611.2</ele>
        <time>2025-09-16T14:42:28Z</time>
      </trkpt>
      <trkpt lat="43.65155" lon="2.41264">
        <ele>610.6</ele>
        <time>2025-09-16T14:42:29Z</time>
      </trkpt>
      <trkpt lat="43.6515" lon="2.41267">
        <ele>610.2</ele>
        <time>2025-09-16T14:42:30Z</time>
      </trkpt>
      <trkpt lat="43.65147" lon="2.4127">
        <ele>609.6</ele>
        <time>2025-09-16T14:42:31Z</time>
      </trkpt>
      <trkpt lat="43.65144" lon="2.41272">
        <ele>609.2</ele>
        <time>2025-09-16T14:42:32Z</time>
      </trkpt>
      <trkpt lat="43.65141" lon="2.41272">
        <ele>608.8</ele>
        <time>2025-09-16T14:42:33Z</time>
      </trkpt>
      <trkpt lat="43.65139" lon="2.41272">
        <ele>608.6</ele>
        <time>2025-09-16T14:42:34Z</time>
      </trkpt>
      <trkpt lat="43.65136" lon="2.41272">
        <ele>608.4</ele>
        <time>2025-09-16T14:42:35Z</time>
      </trkpt>
      <trkpt lat="43.65132" lon="2.41273">
        <ele>608</ele>
        <time>2025-09-16T14:42:36Z</time>
      </trkpt>
      <trkpt lat="43.65129" lon="2.41274">
        <ele>607.8</ele>
        <time>2025-09-16T14:42:37Z</time>
      </trkpt>
      <trkpt lat="43.65124" lon="2.41274">
        <ele>607.2</ele>
        <time>2025-09-16T14:42:38Z</time>
      </trkpt>
      <trkpt lat="43.65121" lon="2.41274">
        <ele>606.8</ele>
        <time>2025-09-16T14:42:39Z</time>
      </trkpt>
      <trkpt lat="43.65118" lon="2.41272">
        <ele>606.6</ele>
        <time>2025-09-16T14:42:40Z</time>
      </trkpt>
      <trkpt lat="43.65117" lon="2.41272">
        <ele>606.4</ele>
        <time>2025-09-16T14:42:41Z</time>
      </trkpt>
      <trkpt lat="43.65115" lon="2.41268">
        <ele>606.6</ele>
        <time>2025-09-16T14:42:42Z</time>
      </trkpt>
      <trkpt lat="43.65114" lon="2.41267">
        <ele>606.6</ele>
        <time>2025-09-16T14:42:43Z</time>
      </trkpt>
      <trkpt lat="43.65114" lon="2.41266">
        <ele>606.8</ele>
        <time>2025-09-16T14:42:44Z</time>
      </trkpt>
      <trkpt lat="43.65114" lon="2.41264">
        <ele>607.2</ele>
        <time>2025-09-16T14:42:45Z</time>
      </trkpt>
      <trkpt lat="43.65114" lon="2.41263">
        <ele>607.4</ele>
        <time>2025-09-16T14:42:46Z</time>
      </trkpt>
      <trkpt lat="43.65114" lon="2.41262">
        <ele>607.6</ele>
        <time>2025-09-16T14:42:47Z</time>
      </trkpt>
      <trkpt lat="43.65115" lon="2.41262">
        <ele>607.8</ele>
        <time>2025-09-16T14:42:48Z</time>
      </trkpt>
      <trkpt lat="43.65115" lon="2.41265">
        <ele>608</ele>
        <time>2025-09-16T14:46:53Z</time>
      </trkpt>
      <trkpt lat="43.65115" lon="2.41265">
        <ele>607.6</ele>
        <time>2025-09-16T14:46:54Z</time>
      </trkpt>
      <trkpt lat="43.65115" lon="2.41264">
        <ele>607.8</ele>
        <time>2025-09-16T14:46:55Z</time>
      </trkpt>
      <trkpt lat="43.65114" lon="2.4125">
        <ele>608.8</ele>
        <time>2025-09-16T14:47:02Z</time>
      </trkpt>
      <trkpt lat="43.65114" lon="2.41248">
        <ele>608.8</ele>
        <time>2025-09-16T14:47:03Z</time>
      </trkpt>
      <trkpt lat="43.65114" lon="2.41246">
        <ele>609</ele>
        <time>2025-09-16T14:47:04Z</time>
      </trkpt>
      <trkpt lat="43.65114" lon="2.41245">
        <ele>609.2</ele>
        <time>2025-09-16T14:47:05Z</time>
      </trkpt>
      <trkpt lat="43.65114" lon="2.41243">
        <ele>609.4</ele>
        <time>2025-09-16T14:47:06Z</time>
      </trkpt>
      <trkpt lat="43.65113" lon="2.4124">
        <ele>609.6</ele>
        <time>2025-09-16T14:47:07Z</time>
      </trkpt>
      <trkpt lat="43.65113" lon="2.41238">
        <ele>609.8</ele>
        <time>2025-09-16T14:47:08Z</time>
      </trkpt>
      <trkpt lat="43.65113" lon="2.41236">
        <ele>610</ele>
        <time>2025-09-16T14:47:09Z</time>
      </trkpt>
      <trkpt lat="43.65113" lon="2.41234">
        <ele>610.2</ele>
        <time>2025-09-16T14:47:10Z</time>
      </trkpt>
      <trkpt lat="43.65112" lon="2.41232">
        <ele>610.2</ele>
        <time>2025-09-16T14:47:11Z</time>
      </trkpt>
      <trkpt lat="43.65111" lon="2.4123">
        <ele>610.4</ele>
        <time>2025-09-16T14:47:12Z</time>
      </trkpt>
      <trkpt lat="43.65111" lon="2.41228">
        <ele>610.6</ele>
        <time>2025-09-16T14:47:13Z</time>
      </trkpt>
      <trkpt lat="43.6511" lon="2.41226">
        <ele>610.6</ele>
        <time>2025-09-16T14:47:14Z</time>
      </trkpt>
      <trkpt lat="43.65108" lon="2.41225">
        <ele>610.8</ele>
        <time>2025-09-16T14:47:15Z</time>
      </trkpt>
      <trkpt lat="43.65107" lon="2.41224">
        <ele>610.8</ele>
        <time>2025-09-16T14:47:16Z</time>
      </trkpt>
      <trkpt lat="43.65105" lon="2.41222">
        <ele>610.8</ele>
        <time>2025-09-16T14:47:17Z</time>
      </trkpt>
      <trkpt lat="43.65104" lon="2.41219">
        <ele>610.8</ele>
        <time>2025-09-16T14:47:18Z</time>
      </trkpt>
      <trkpt lat="43.65101" lon="2.41215">
        <ele>610.8</ele>
        <time>2025-09-16T14:47:19Z</time>
      </trkpt>
      <trkpt lat="43.65099" lon="2.41212">
        <ele>610.8</ele>
        <time>2025-09-16T14:47:20Z</time>
      </trkpt>
      <trkpt lat="43.65097" lon="2.41209">
        <ele>610.8</ele>
        <time>2025-09-16T14:47:21Z</time>
      </trkpt>
      <trkpt lat="43.65096" lon="2.41207">
        <ele>610.8</ele>
        <time>2025-09-16T14:47:22Z</time>
      </trkpt>
      <trkpt lat="43.65094" lon="2.41205">
        <ele>610.8</ele>
        <time>2025-09-16T14:47:23Z</time>
      </trkpt>
      <trkpt lat="43.65094" lon="2.41204">
        <ele>610.8</ele>
        <time>2025-09-16T14:47:24Z</time>
      </trkpt>
      <trkpt lat="43.65093" lon="2.41203">
        <ele>610.8</ele>
        <time>2025-09-16T14:47:25Z</time>
      </trkpt>
      <trkpt lat="43.65092" lon="2.412">
        <ele>610.8</ele>
        <time>2025-09-16T14:47:26Z</time>
      </trkpt>
      <trkpt lat="43.65091" lon="2.41198">
        <ele>610.8</ele>
        <time>2025-09-16T14:47:27Z</time>
      </trkpt>
      <trkpt lat="43.65089" lon="2.41197">
        <ele>611</ele>
        <time>2025-09-16T14:47:28Z</time>
      </trkpt>
      <trkpt lat="43.65088" lon="2.41195">
        <ele>611</ele>
        <time>2025-09-16T14:47:29Z</time>
      </trkpt>
      <trkpt lat="43.65087" lon="2.41194">
        <ele>611</ele>
        <time>2025-09-16T14:47:30Z</time>
      </trkpt>
      <trkpt lat="43.65085" lon="2.41192">
        <ele>611</ele>
        <time>2025-09-16T14:47:31Z</time>
      </trkpt>
      <trkpt lat="43.65083" lon="2.4119">
        <ele>611</ele>
        <time>2025-09-16T14:47:32Z</time>
      </trkpt>
      <trkpt lat="43.65082" lon="2.41187">
        <ele>611.2</ele>
        <time>2025-09-16T14:47:33Z</time>
      </trkpt>
      <trkpt lat="43.6508" lon="2.41185">
        <ele>611.2</ele>
        <time>2025-09-16T14:47:34Z</time>
      </trkpt>
      <trkpt lat="43.65079" lon="2.41183">
        <ele>611.2</ele>
        <time>2025-09-16T14:47:35Z</time>
      </trkpt>
      <trkpt lat="43.65077" lon="2.41181">
        <ele>611.2</ele>
        <time>2025-09-16T14:47:36Z</time>
      </trkpt>
      <trkpt lat="43.65074" lon="2.4118">
        <ele>611.4</ele>
        <time>2025-09-16T14:47:37Z</time>
      </trkpt>
      <trkpt lat="43.65073" lon="2.41181">
        <ele>611.4</ele>
        <time>2025-09-16T14:47:38Z</time>
      </trkpt>
      <trkpt lat="43.65072" lon="2.41181">
        <ele>611.4</ele>
        <time>2025-09-16T14:47:39Z</time>
      </trkpt>
      <trkpt lat="43.6507" lon="2.41181">
        <ele>611.4</ele>
        <time>2025-09-16T14:47:40Z</time>
      </trkpt>
      <trkpt lat="43.65068" lon="2.41182">
        <ele>611.4</ele>
        <time>2025-09-16T14:47:41Z</time>
      </trkpt>
      <trkpt lat="43.65067" lon="2.41183">
        <ele>611.6</ele>
        <time>2025-09-16T14:47:42Z</time>
      </trkpt>
      <trkpt lat="43.65065" lon="2.41184">
        <ele>611.6</ele>
        <time>2025-09-16T14:47:43Z</time>
      </trkpt>
      <trkpt lat="43.65064" lon="2.41186">
        <ele>611.8</ele>
        <time>2025-09-16T14:47:44Z</time>
      </trkpt>
      <trkpt lat="43.65063" lon="2.41187">
        <ele>612</ele>
        <time>2025-09-16T14:47:45Z</time>
      </trkpt>
      <trkpt lat="43.65062" lon="2.41188">
        <ele>612.2</ele>
        <time>2025-09-16T14:47:46Z</time>
      </trkpt>
      <trkpt lat="43.6506" lon="2.41188">
        <ele>612.4</ele>
        <time>2025-09-16T14:47:47Z</time>
      </trkpt>
      <trkpt lat="43.65058" lon="2.41188">
        <ele>612.6</ele>
        <time>2025-09-16T14:47:48Z</time>
      </trkpt>
      <trkpt lat="43.65056" lon="2.41188">
        <ele>612.6</ele>
        <time>2025-09-16T14:47:49Z</time>
      </trkpt>
      <trkpt lat="43.65053" lon="2.41187">
        <ele>612.8</ele>
        <time>2025-09-16T14:47:50Z</time>
      </trkpt>
      <trkpt lat="43.65051" lon="2.41187">
        <ele>613</ele>
        <time>2025-09-16T14:47:51Z</time>
      </trkpt>
      <trkpt lat="43.6505" lon="2.41187">
        <ele>613</ele>
        <time>2025-09-16T14:47:52Z</time>
      </trkpt>
      <trkpt lat="43.65048" lon="2.41186">
        <ele>613.2</ele>
        <time>2025-09-16T14:47:53Z</time>
      </trkpt>
      <trkpt lat="43.65047" lon="2.41185">
        <ele>613.4</ele>
        <time>2025-09-16T14:47:54Z</time>
      </trkpt>
      <trkpt lat="43.65046" lon="2.41185">
        <ele>613.4</ele>
        <time>2025-09-16T14:47:55Z</time>
      </trkpt>
      <trkpt lat="43.65045" lon="2.41185">
        <ele>613.6</ele>
        <time>2025-09-16T14:47:56Z</time>
      </trkpt>
      <trkpt lat="43.65043" lon="2.41186">
        <ele>613.6</ele>
        <time>2025-09-16T14:47:57Z</time>
      </trkpt>
      <trkpt lat="43.65042" lon="2.41187">
        <ele>613.8</ele>
        <time>2025-09-16T14:47:58Z</time>
      </trkpt>
      <trkpt lat="43.65041" lon="2.41187">
        <ele>614</ele>
        <time>2025-09-16T14:47:59Z</time>
      </trkpt>
      <trkpt lat="43.65039" lon="2.41188">
        <ele>614</ele>
        <time>2025-09-16T14:48:00Z</time>
      </trkpt>
      <trkpt lat="43.65038" lon="2.41188">
        <ele>614.2</ele>
        <time>2025-09-16T14:48:01Z</time>
      </trkpt>
      <trkpt lat="43.65037" lon="2.41188">
        <ele>614.4</ele>
        <time>2025-09-16T14:48:02Z</time>
      </trkpt>
      <trkpt lat="43.65036" lon="2.4119">
        <ele>614.6</ele>
        <time>2025-09-16T14:48:03Z</time>
      </trkpt>
      <trkpt lat="43.65035" lon="2.4119">
        <ele>614.8</ele>
        <time>2025-09-16T14:48:04Z</time>
      </trkpt>
      <trkpt lat="43.65034" lon="2.41191">
        <ele>615</ele>
        <time>2025-09-16T14:48:05Z</time>
      </trkpt>
      <trkpt lat="43.65033" lon="2.41191">
        <ele>615</ele>
        <time>2025-09-16T14:48:06Z</time>
      </trkpt>
      <trkpt lat="43.65032" lon="2.41191">
        <ele>615.2</ele>
        <time>2025-09-16T14:48:07Z</time>
      </trkpt>
      <trkpt lat="43.65031" lon="2.41191">
        <ele>615.4</ele>
        <time>2025-09-16T14:48:08Z</time>
      </trkpt>
      <trkpt lat="43.6503" lon="2.41191">
        <ele>615.6</ele>
        <time>2025-09-16T14:48:09Z</time>
      </trkpt>
      <trkpt lat="43.65029" lon="2.41191">
        <ele>615.8</ele>
        <time>2025-09-16T14:48:10Z</time>
      </trkpt>
      <trkpt lat="43.65027" lon="2.41191">
        <ele>616</ele>
        <time>2025-09-16T14:48:11Z</time>
      </trkpt>
      <trkpt lat="43.65026" lon="2.4119">
        <ele>616.4</ele>
        <time>2025-09-16T14:48:12Z</time>
      </trkpt>
      <trkpt lat="43.65025" lon="2.41189">
        <ele>616.6</ele>
        <time>2025-09-16T14:48:13Z</time>
      </trkpt>
      <trkpt lat="43.65024" lon="2.41189">
        <ele>617</ele>
        <time>2025-09-16T14:48:14Z</time>
      </trkpt>
      <trkpt lat="43.65023" lon="2.41188">
        <ele>617.2</ele>
        <time>2025-09-16T14:48:15Z</time>
      </trkpt>
      <trkpt lat="43.65023" lon="2.41187">
        <ele>617.4</ele>
        <time>2025-09-16T14:48:16Z</time>
      </trkpt>
      <trkpt lat="43.65022" lon="2.41186">
        <ele>617.6</ele>
        <time>2025-09-16T14:48:17Z</time>
      </trkpt>
      <trkpt lat="43.6502" lon="2.41185">
        <ele>617.8</ele>
        <time>2025-09-16T14:48:18Z</time>
      </trkpt>
      <trkpt lat="43.65019" lon="2.41184">
        <ele>618</ele>
        <time>2025-09-16T14:48:19Z</time>
      </trkpt>
      <trkpt lat="43.65017" lon="2.41184">
        <ele>618.2</ele>
        <time>2025-09-16T14:48:20Z</time>
      </trkpt>
      <trkpt lat="43.65016" lon="2.41183">
        <ele>618.4</ele>
        <time>2025-09-16T14:48:21Z</time>
      </trkpt>
      <trkpt lat="43.65016" lon="2.41182">
        <ele>618.6</ele>
        <time>2025-09-16T14:48:22Z</time>
      </trkpt>
      <trkpt lat="43.65016" lon="2.41182">
        <ele>618.6</ele>
        <time>2025-09-16T14:48:23Z</time>
      </trkpt>
      <trkpt lat="43.65002" lon="2.41174">
        <ele>620.2</ele>
        <time>2025-09-16T14:48:55Z</time>
      </trkpt>
      <trkpt lat="43.65001" lon="2.41174">
        <ele>620.2</ele>
        <time>2025-09-16T14:48:56Z</time>
      </trkpt>
      <trkpt lat="43.64999" lon="2.41174">
        <ele>620.4</ele>
        <time>2025-09-16T14:48:57Z</time>
      </trkpt>
      <trkpt lat="43.64998" lon="2.41174">
        <ele>620.4</ele>
        <time>2025-09-16T14:48:58Z</time>
      </trkpt>
      <trkpt lat="43.64996" lon="2.41174">
        <ele>620.6</ele>
        <time>2025-09-16T14:48:59Z</time>
      </trkpt>
      <trkpt lat="43.64994" lon="2.41174">
        <ele>620.8</ele>
        <time>2025-09-16T14:49:00Z</time>
      </trkpt>
      <trkpt lat="43.64993" lon="2.41174">
        <ele>621</ele>
        <time>2025-09-16T14:49:01Z</time>
      </trkpt>
      <trkpt lat="43.64991" lon="2.41174">
        <ele>621.2</ele>
        <time>2025-09-16T14:49:02Z</time>
      </trkpt>
      <trkpt lat="43.6499" lon="2.41175">
        <ele>621.4</ele>
        <time>2025-09-16T14:49:03Z</time>
      </trkpt>
      <trkpt lat="43.64989" lon="2.41175">
        <ele>621.6</ele>
        <time>2025-09-16T14:49:04Z</time>
      </trkpt>
      <trkpt lat="43.64987" lon="2.41175">
        <ele>621.8</ele>
        <time>2025-09-16T14:49:05Z</time>
      </trkpt>
      <trkpt lat="43.64986" lon="2.41175">
        <ele>622</ele>
        <time>2025-09-16T14:49:06Z</time>
      </trkpt>
      <trkpt lat="43.64985" lon="2.41175">
        <ele>622</ele>
        <time>2025-09-16T14:49:07Z</time>
      </trkpt>
      <trkpt lat="43.64985" lon="2.41175">
        <ele>622.2</ele>
        <time>2025-09-16T14:49:08Z</time>
      </trkpt>
      <trkpt lat="43.64985" lon="2.41175">
        <ele>622.4</ele>
        <time>2025-09-16T14:49:09Z</time>
      </trkpt>
      <trkpt lat="43.64969" lon="2.41115">
        <ele>630.4</ele>
        <time>2025-09-16T14:50:36Z</time>
      </trkpt>
      <trkpt lat="43.64969" lon="2.41113">
        <ele>630.6</ele>
        <time>2025-09-16T14:50:37Z</time>
      </trkpt>
      <trkpt lat="43.64969" lon="2.4111">
        <ele>630.6</ele>
        <time>2025-09-16T14:50:38Z</time>
      </trkpt>
      <trkpt lat="43.64969" lon="2.41107">
        <ele>630.6</ele>
        <time>2025-09-16T14:50:39Z</time>
      </trkpt>
      <trkpt lat="43.64969" lon="2.41105">
        <ele>630.8</ele>
        <time>2025-09-16T14:50:40Z</time>
      </trkpt>
      <trkpt lat="43.6497" lon="2.41103">
        <ele>631</ele>
        <time>2025-09-16T14:50:41Z</time>
      </trkpt>
      <trkpt lat="43.6497" lon="2.41101">
        <ele>631.2</ele>
        <time>2025-09-16T14:50:42Z</time>
      </trkpt>
      <trkpt lat="43.64971" lon="2.41099">
        <ele>631.4</ele>
        <time>2025-09-16T14:50:43Z</time>
      </trkpt>
      <trkpt lat="43.64971" lon="2.41096">
        <ele>631.6</ele>
        <time>2025-09-16T14:50:44Z</time>
      </trkpt>
      <trkpt lat="43.64971" lon="2.41094">
        <ele>631.6</ele>
        <time>2025-09-16T14:50:45Z</time>
      </trkpt>
      <trkpt lat="43.64971" lon="2.41092">
        <ele>631.8</ele>
        <time>2025-09-16T14:50:46Z</time>
      </trkpt>
      <trkpt lat="43.64971" lon="2.4109">
        <ele>632</ele>
        <time>2025-09-16T14:50:47Z</time>
      </trkpt>
      <trkpt lat="43.64972" lon="2.41088">
        <ele>632.2</ele>
        <time>2025-09-16T14:50:48Z</time>
      </trkpt>
      <trkpt lat="43.64972" lon="2.41086">
        <ele>632.2</ele>
        <time>2025-09-16T14:50:49Z</time>
      </trkpt>
      <trkpt lat="43.64972" lon="2.41084">
        <ele>632.4</ele>
        <time>2025-09-16T14:50:50Z</time>
      </trkpt>
      <trkpt lat="43.64973" lon="2.41082">
        <ele>632.4</ele>
        <time>2025-09-16T14:50:51Z</time>
      </trkpt>
      <trkpt lat="43.64974" lon="2.41079">
        <ele>632.6</ele>
        <time>2025-09-16T14:50:52Z</time>
      </trkpt>
      <trkpt lat="43.64975" lon="2.41077">
        <ele>632.8</ele>
        <time>2025-09-16T14:50:53Z</time>
      </trkpt>
      <trkpt lat="43.64976" lon="2.41075">
        <ele>633</ele>
        <time>2025-09-16T14:50:54Z</time>
      </trkpt>
      <trkpt lat="43.64977" lon="2.41073">
        <ele>633.2</ele>
        <time>2025-09-16T14:50:55Z</time>
      </trkpt>
      <trkpt lat="43.64978" lon="2.41071">
        <ele>633.2</ele>
        <time>2025-09-16T14:50:56Z</time>
      </trkpt>
      <trkpt lat="43.64978" lon="2.41069">
        <ele>633.4</ele>
        <time>2025-09-16T14:50:57Z</time>
      </trkpt>
      <trkpt lat="43.6498" lon="2.41067">
        <ele>633.6</ele>
        <time>2025-09-16T14:50:58Z</time>
      </trkpt>
      <trkpt lat="43.6498" lon="2.41065">
        <ele>633.8</ele>
        <time>2025-09-16T14:50:59Z</time>
      </trkpt>
      <trkpt lat="43.64981" lon="2.41062">
        <ele>634</ele>
        <time>2025-09-16T14:51:00Z</time>
      </trkpt>
      <trkpt lat="43.64982" lon="2.4106">
        <ele>634</ele>
        <time>2025-09-16T14:51:01Z</time>
      </trkpt>
      <trkpt lat="43.64982" lon="2.41058">
        <ele>634.2</ele>
        <time>2025-09-16T14:51:02Z</time>
      </trkpt>
      <trkpt lat="43.64983" lon="2.41055">
        <ele>634.2</ele>
        <time>2025-09-16T14:51:03Z</time>
      </trkpt>
      <trkpt lat="43.64984" lon="2.41053">
        <ele>634.4</ele>
        <time>2025-09-16T14:51:04Z</time>
      </trkpt>
      <trkpt lat="43.64985" lon="2.4105">
        <ele>634.4</ele>
        <time>2025-09-16T14:51:05Z</time>
      </trkpt>
      <trkpt lat="43.64985" lon="2.41048">
        <ele>634.6</ele>
        <time>2025-09-16T14:51:06Z</time>
      </trkpt>
      <trkpt lat="43.64986" lon="2.41046">
        <ele>634.8</ele>
        <time>2025-09-16T14:51:07Z</time>
      </trkpt>
      <trkpt lat="43.64987" lon="2.41044">
        <ele>634.8</ele>
        <time>2025-09-16T14:51:08Z</time>
      </trkpt>
      <trkpt lat="43.64988" lon="2.41042">
        <ele>635</ele>
        <time>2025-09-16T14:51:09Z</time>
      </trkpt>
      <trkpt lat="43.64989" lon="2.4104">
        <ele>635.2</ele>
        <time>2025-09-16T14:51:10Z</time>
      </trkpt>
      <trkpt lat="43.6499" lon="2.41038">
        <ele>635.2</ele>
        <time>2025-09-16T14:51:11Z</time>
      </trkpt>
      <trkpt lat="43.6499" lon="2.41036">
        <ele>635.4</ele>
        <time>2025-09-16T14:51:12Z</time>
      </trkpt>
      <trkpt lat="43.64991" lon="2.41034">
        <ele>635.6</ele>
        <time>2025-09-16T14:51:13Z</time>
      </trkpt>
      <trkpt lat="43.64991" lon="2.41032">
        <ele>635.6</ele>
        <time>2025-09-16T14:51:14Z</time>
      </trkpt>
      <trkpt lat="43.64992" lon="2.4103">
        <ele>635.8</ele>
        <time>2025-09-16T14:51:15Z</time>
      </trkpt>
      <trkpt lat="43.64992" lon="2.41027">
        <ele>636</ele>
        <time>2025-09-16T14:51:16Z</time>
      </trkpt>
      <trkpt lat="43.64992" lon="2.41026">
        <ele>636.2</ele>
        <time>2025-09-16T14:51:17Z</time>
      </trkpt>
      <trkpt lat="43.64992" lon="2.41026">
        <ele>636.4</ele>
        <time>2025-09-16T14:51:18Z</time>
      </trkpt>
      <trkpt lat="43.64994" lon="2.41022">
        <ele>636.8</ele>
        <time>2025-09-16T14:51:21Z</time>
      </trkpt>
      <trkpt lat="43.64994" lon="2.4102">
        <ele>637</ele>
        <time>2025-09-16T14:51:22Z</time>
      </trkpt>
      <trkpt lat="43.64995" lon="2.41018">
        <ele>637</ele>
        <time>2025-09-16T14:51:23Z</time>
      </trkpt>
      <trkpt lat="43.64996" lon="2.41017">
        <ele>637.2</ele>
        <time>2025-09-16T14:51:24Z</time>
      </trkpt>
      <trkpt lat="43.64996" lon="2.41015">
        <ele>637.4</ele>
        <time>2025-09-16T14:51:25Z</time>
      </trkpt>
      <trkpt lat="43.64996" lon="2.41013">
        <ele>637.6</ele>
        <time>2025-09-16T14:51:26Z</time>
      </trkpt>
      <trkpt lat="43.64997" lon="2.41011">
        <ele>637.6</ele>
        <time>2025-09-16T14:51:27Z</time>
      </trkpt>
      <trkpt lat="43.64997" lon="2.41009">
        <ele>637.8</ele>
        <time>2025-09-16T14:51:28Z</time>
      </trkpt>
      <trkpt lat="43.64998" lon="2.41007">
        <ele>638</ele>
        <time>2025-09-16T14:51:29Z</time>
      </trkpt>
      <trkpt lat="43.64999" lon="2.41005">
        <ele>638</ele>
        <time>2025-09-16T14:51:30Z</time>
      </trkpt>
      <trkpt lat="43.65" lon="2.41003">
        <ele>638.2</ele>
        <time>2025-09-16T14:51:31Z</time>
      </trkpt>
      <trkpt lat="43.65001" lon="2.41002">
        <ele>638.2</ele>
        <time>2025-09-16T14:51:32Z</time>
      </trkpt>
      <trkpt lat="43.65002" lon="2.41">
        <ele>638.4</ele>
        <time>2025-09-16T14:51:33Z</time>
      </trkpt>
      <trkpt lat="43.65002" lon="2.40999">
        <ele>638.4</ele>
        <time>2025-09-16T14:51:34Z</time>
      </trkpt>
      <trkpt lat="43.65003" lon="2.40997">
        <ele>638.6</ele>
        <time>2025-09-16T14:51:35Z</time>
      </trkpt>
      <trkpt lat="43.65003" lon="2.40996">
        <ele>638.8</ele>
        <time>2025-09-16T14:51:36Z</time>
      </trkpt>
      <trkpt lat="43.65004" lon="2.40994">
        <ele>638.8</ele>
        <time>2025-09-16T14:51:37Z</time>
      </trkpt>
      <trkpt lat="43.65005" lon="2.40992">
        <ele>639</ele>
        <time>2025-09-16T14:51:38Z</time>
      </trkpt>
      <trkpt lat="43.65006" lon="2.40991">
        <ele>639.2</ele>
        <time>2025-09-16T14:51:39Z</time>
      </trkpt>
      <trkpt lat="43.65006" lon="2.40988">
        <ele>639.2</ele>
        <time>2025-09-16T14:51:40Z</time>
      </trkpt>
      <trkpt lat="43.65007" lon="2.40986">
        <ele>639.4</ele>
        <time>2025-09-16T14:51:41Z</time>
      </trkpt>
      <trkpt lat="43.65008" lon="2.40984">
        <ele>639.4</ele>
        <time>2025-09-16T14:51:42Z</time>
      </trkpt>
      <trkpt lat="43.65009" lon="2.40982">
        <ele>639.4</ele>
        <time>2025-09-16T14:51:43Z</time>
      </trkpt>
      <trkpt lat="43.65009" lon="2.4098">
        <ele>639.6</ele>
        <time>2025-09-16T14:51:44Z</time>
      </trkpt>
      <trkpt lat="43.6501" lon="2.40978">
        <ele>639.8</ele>
        <time>2025-09-16T14:51:45Z</time>
      </trkpt>
      <trkpt lat="43.65011" lon="2.40976">
        <ele>640</ele>
        <time>2025-09-16T14:51:46Z</time>
      </trkpt>
      <trkpt lat="43.65012" lon="2.40975">
        <ele>640</ele>
        <time>2025-09-16T14:51:47Z</time>
      </trkpt>
      <trkpt lat="43.65013" lon="2.40973">
        <ele>640.2</ele>
        <time>2025-09-16T14:51:48Z</time>
      </trkpt>
      <trkpt lat="43.65014" lon="2.40972">
        <ele>640.4</ele>
        <time>2025-09-16T14:51:49Z</time>
      </trkpt>
      <trkpt lat="43.65014" lon="2.4097">
        <ele>640.6</ele>
        <time>2025-09-16T14:51:50Z</time>
      </trkpt>
      <trkpt lat="43.65015" lon="2.40968">
        <ele>640.6</ele>
        <time>2025-09-16T14:51:51Z</time>
      </trkpt>
      <trkpt lat="43.65015" lon="2.40967">
        <ele>640.8</ele>
        <time>2025-09-16T14:51:52Z</time>
      </trkpt>
      <trkpt lat="43.65016" lon="2.40965">
        <ele>641</ele>
        <time>2025-09-16T14:51:53Z</time>
      </trkpt>
      <trkpt lat="43.65017" lon="2.40963">
        <ele>641.2</ele>
        <time>2025-09-16T14:51:54Z</time>
      </trkpt>
      <trkpt lat="43.65017" lon="2.40961">
        <ele>641.2</ele>
        <time>2025-09-16T14:51:55Z</time>
      </trkpt>
      <trkpt lat="43.65017" lon="2.4096">
        <ele>641.6</ele>
        <time>2025-09-16T14:51:56Z</time>
      </trkpt>
      <trkpt lat="43.65017" lon="2.40958">
        <ele>641.6</ele>
        <time>2025-09-16T14:51:57Z</time>
      </trkpt>
      <trkpt lat="43.65018" lon="2.40957">
        <ele>641.8</ele>
        <time>2025-09-16T14:51:58Z</time>
      </trkpt>
      <trkpt lat="43.65018" lon="2.40955">
        <ele>642</ele>
        <time>2025-09-16T14:51:59Z</time>
      </trkpt>
      <trkpt lat="43.65018" lon="2.40954">
        <ele>642.2</ele>
        <time>2025-09-16T14:52:00Z</time>
      </trkpt>
      <trkpt lat="43.65018" lon="2.40953">
        <ele>642.4</ele>
        <time>2025-09-16T14:52:01Z</time>
      </trkpt>
      <trkpt lat="43.65018" lon="2.40951">
        <ele>642.6</ele>
        <time>2025-09-16T14:52:02Z</time>
      </trkpt>
      <trkpt lat="43.65019" lon="2.4095">
        <ele>642.8</ele>
        <time>2025-09-16T14:52:03Z</time>
      </trkpt>
      <trkpt lat="43.6502" lon="2.40949">
        <ele>643</ele>
        <time>2025-09-16T14:52:04Z</time>
      </trkpt>
      <trkpt lat="43.65021" lon="2.40949">
        <ele>643.2</ele>
        <time>2025-09-16T14:52:05Z</time>
      </trkpt>
      <trkpt lat="43.65021" lon="2.40948">
        <ele>643.2</ele>
        <time>2025-09-16T14:52:06Z</time>
      </trkpt>
      <trkpt lat="43.65028" lon="2.40917">
        <ele>648.6</ele>
        <time>2025-09-16T14:53:30Z</time>
      </trkpt>
      <trkpt lat="43.65029" lon="2.40915">
        <ele>648.8</ele>
        <time>2025-09-16T14:53:31Z</time>
      </trkpt>
      <trkpt lat="43.65029" lon="2.40913">
        <ele>648.8</ele>
        <time>2025-09-16T14:53:32Z</time>
      </trkpt>
      <trkpt lat="43.65029" lon="2.40912">
        <ele>649</ele>
        <time>2025-09-16T14:53:33Z</time>
      </trkpt>
      <trkpt lat="43.65029" lon="2.40909">
        <ele>649.2</ele>
        <time>2025-09-16T14:53:34Z</time>
      </trkpt>
      <trkpt lat="43.65029" lon="2.40907">
        <ele>649.4</ele>
        <time>2025-09-16T14:53:35Z</time>
      </trkpt>
      <trkpt lat="43.6503" lon="2.40905">
        <ele>649.6</ele>
        <time>2025-09-16T14:53:36Z</time>
      </trkpt>
      <trkpt lat="43.6503" lon="2.40904">
        <ele>649.8</ele>
        <time>2025-09-16T14:53:37Z</time>
      </trkpt>
      <trkpt lat="43.65029" lon="2.40903">
        <ele>650.2</ele>
        <time>2025-09-16T14:53:38Z</time>
      </trkpt>
      <trkpt lat="43.65021" lon="2.4088">
        <ele>651.8</ele>
        <time>2025-09-16T14:53:49Z</time>
      </trkpt>
      <trkpt lat="43.65019" lon="2.40877">
        <ele>652</ele>
        <time>2025-09-16T14:53:50Z</time>
      </trkpt>
      <trkpt lat="43.65018" lon="2.40874">
        <ele>652.2</ele>
        <time>2025-09-16T14:53:51Z</time>
      </trkpt>
      <trkpt lat="43.65017" lon="2.40871">
        <ele>652.2</ele>
        <time>2025-09-16T14:53:52Z</time>
      </trkpt>
      <trkpt lat="43.65017" lon="2.40868">
        <ele>652.4</ele>
        <time>2025-09-16T14:53:53Z</time>
      </trkpt>
      <trkpt lat="43.65016" lon="2.40867">
        <ele>652.6</ele>
        <time>2025-09-16T14:53:54Z</time>
      </trkpt>
      <trkpt lat="43.65016" lon="2.40865">
        <ele>652.8</ele>
        <time>2025-09-16T14:53:55Z</time>
      </trkpt>
      <trkpt lat="43.65015" lon="2.40863">
        <ele>653</ele>
        <time>2025-09-16T14:53:56Z</time>
      </trkpt>
      <trkpt lat="43.65014" lon="2.40861">
        <ele>653.2</ele>
        <time>2025-09-16T14:53:57Z</time>
      </trkpt>
      <trkpt lat="43.65013" lon="2.40859">
        <ele>653.4</ele>
        <time>2025-09-16T14:53:58Z</time>
      </trkpt>
      <trkpt lat="43.65013" lon="2.40856">
        <ele>653.4</ele>
        <time>2025-09-16T14:53:59Z</time>
      </trkpt>
      <trkpt lat="43.65012" lon="2.40854">
        <ele>653.6</ele>
        <time>2025-09-16T14:54:00Z</time>
      </trkpt>
      <trkpt lat="43.65011" lon="2.40852">
        <ele>653.8</ele>
        <time>2025-09-16T14:54:01Z</time>
      </trkpt>
      <trkpt lat="43.6501" lon="2.40851">
        <ele>654</ele>
        <time>2025-09-16T14:54:02Z</time>
      </trkpt>
      <trkpt lat="43.6501" lon="2.4085">
        <ele>654.2</ele>
        <time>2025-09-16T14:54:03Z</time>
      </trkpt>
      <trkpt lat="43.65008" lon="2.40848">
        <ele>654.2</ele>
        <time>2025-09-16T14:54:04Z</time>
      </trkpt>
      <trkpt lat="43.65008" lon="2.40846">
        <ele>654.4</ele>
        <time>2025-09-16T14:54:05Z</time>
      </trkpt>
      <trkpt lat="43.65007" lon="2.40843">
        <ele>654.6</ele>
        <time>2025-09-16T14:54:06Z</time>
      </trkpt>
      <trkpt lat="43.65004" lon="2.40841">
        <ele>654.6</ele>
        <time>2025-09-16T14:54:07Z</time>
      </trkpt>
      <trkpt lat="43.65004" lon="2.40838">
        <ele>654.8</ele>
        <time>2025-09-16T14:54:08Z</time>
      </trkpt>
      <trkpt lat="43.65004" lon="2.40836">
        <ele>655</ele>
        <time>2025-09-16T14:54:09Z</time>
      </trkpt>
      <trkpt lat="43.65003" lon="2.40834">
        <ele>655.2</ele>
        <time>2025-09-16T14:54:10Z</time>
      </trkpt>
      <trkpt lat="43.65002" lon="2.40833">
        <ele>655.2</ele>
        <time>2025-09-16T14:54:11Z</time>
      </trkpt>
      <trkpt lat="43.65001" lon="2.40833">
        <ele>655.4</ele>
        <time>2025-09-16T14:54:12Z</time>
      </trkpt>
      <trkpt lat="43.65" lon="2.40832">
        <ele>655.6</ele>
        <time>2025-09-16T14:54:13Z</time>
      </trkpt>
      <trkpt lat="43.65" lon="2.4083">
        <ele>655.6</ele>
        <time>2025-09-16T14:54:14Z</time>
      </trkpt>
      <trkpt lat="43.65" lon="2.40829">
        <ele>655.8</ele>
        <time>2025-09-16T14:54:15Z</time>
      </trkpt>
      <trkpt lat="43.65" lon="2.40828">
        <ele>656</ele>
        <time>2025-09-16T14:54:16Z</time>
      </trkpt>
      <trkpt lat="43.64999" lon="2.40827">
        <ele>656</ele>
        <time>2025-09-16T14:54:17Z</time>
      </trkpt>
      <trkpt lat="43.64998" lon="2.40825">
        <ele>656.2</ele>
        <time>2025-09-16T14:54:18Z</time>
      </trkpt>
      <trkpt lat="43.64997" lon="2.40825">
        <ele>656.4</ele>
        <time>2025-09-16T14:54:19Z</time>
      </trkpt>
      <trkpt lat="43.64996" lon="2.40823">
        <ele>656.4</ele>
        <time>2025-09-16T14:54:20Z</time>
      </trkpt>
      <trkpt lat="43.64995" lon="2.40822">
        <ele>656.6</ele>
        <time>2025-09-16T14:54:21Z</time>
      </trkpt>
      <trkpt lat="43.64995" lon="2.40821">
        <ele>656.6</ele>
        <time>2025-09-16T14:54:22Z</time>
      </trkpt>
      <trkpt lat="43.64995" lon="2.4082">
        <ele>656.8</ele>
        <time>2025-09-16T14:54:23Z</time>
      </trkpt>
      <trkpt lat="43.64995" lon="2.40819">
        <ele>656.8</ele>
        <time>2025-09-16T14:54:24Z</time>
      </trkpt>
      <trkpt lat="43.64994" lon="2.40819">
        <ele>657</ele>
        <time>2025-09-16T14:54:25Z</time>
      </trkpt>
      <trkpt lat="43.64989" lon="2.40809">
        <ele>657.6</ele>
        <time>2025-09-16T14:54:31Z</time>
      </trkpt>
      <trkpt lat="43.64988" lon="2.40807">
        <ele>657.8</ele>
        <time>2025-09-16T14:54:32Z</time>
      </trkpt>
      <trkpt lat="43.64987" lon="2.40804">
        <ele>658</ele>
        <time>2025-09-16T14:54:33Z</time>
      </trkpt>
      <trkpt lat="43.64985" lon="2.40801">
        <ele>658.2</ele>
        <time>2025-09-16T14:54:34Z</time>
      </trkpt>
      <trkpt lat="43.64983" lon="2.40799">
        <ele>658.2</ele>
        <time>2025-09-16T14:54:35Z</time>
      </trkpt>
      <trkpt lat="43.64982" lon="2.40797">
        <ele>658.2</ele>
        <time>2025-09-16T14:54:36Z</time>
      </trkpt>
      <trkpt lat="43.64981" lon="2.40795">
        <ele>658.4</ele>
        <time>2025-09-16T14:54:37Z</time>
      </trkpt>
      <trkpt lat="43.6498" lon="2.40793">
        <ele>658.4</ele>
        <time>2025-09-16T14:54:38Z</time>
      </trkpt>
      <trkpt lat="43.64979" lon="2.40791">
        <ele>658.6</ele>
        <time>2025-09-16T14:54:39Z</time>
      </trkpt>
      <trkpt lat="43.64979" lon="2.40791">
        <ele>658.8</ele>
        <time>2025-09-16T14:54:40Z</time>
      </trkpt>
      <trkpt lat="43.64979" lon="2.40791">
        <ele>659</ele>
        <time>2025-09-16T14:54:41Z</time>
      </trkpt>
      <trkpt lat="43.64979" lon="2.4079">
        <ele>659</ele>
        <time>2025-09-16T14:54:42Z</time>
      </trkpt>
      <trkpt lat="43.6497" lon="2.40779">
        <ele>660</ele>
        <time>2025-09-16T14:54:50Z</time>
      </trkpt>
      <trkpt lat="43.64969" lon="2.40778">
        <ele>660</ele>
        <time>2025-09-16T14:54:51Z</time>
      </trkpt>
      <trkpt lat="43.64968" lon="2.40777">
        <ele>660</ele>
        <time>2025-09-16T14:54:52Z</time>
      </trkpt>
      <trkpt lat="43.64967" lon="2.40775">
        <ele>660.2</ele>
        <time>2025-09-16T14:54:53Z</time>
      </trkpt>
      <trkpt lat="43.64966" lon="2.40774">
        <ele>660.2</ele>
        <time>2025-09-16T14:54:54Z</time>
      </trkpt>
      <trkpt lat="43.64965" lon="2.40772">
        <ele>660.2</ele>
        <time>2025-09-16T14:54:55Z</time>
      </trkpt>
      <trkpt lat="43.64964" lon="2.40771">
        <ele>660.4</ele>
        <time>2025-09-16T14:54:56Z</time>
      </trkpt>
      <trkpt lat="43.64962" lon="2.40769">
        <ele>660.4</ele>
        <time>2025-09-16T14:54:57Z</time>
      </trkpt>
      <trkpt lat="43.64961" lon="2.40768">
        <ele>660.6</ele>
        <time>2025-09-16T14:54:58Z</time>
      </trkpt>
      <trkpt lat="43.64959" lon="2.40767">
        <ele>660.6</ele>
        <time>2025-09-16T14:54:59Z</time>
      </trkpt>
      <trkpt lat="43.64957" lon="2.40765">
        <ele>660.6</ele>
        <time>2025-09-16T14:55:00Z</time>
      </trkpt>
      <trkpt lat="43.64955" lon="2.40764">
        <ele>660.8</ele>
        <time>2025-09-16T14:55:01Z</time>
      </trkpt>
      <trkpt lat="43.64953" lon="2.40763">
        <ele>660.8</ele>
        <time>2025-09-16T14:55:02Z</time>
      </trkpt>
      <trkpt lat="43.64951" lon="2.40761">
        <ele>661</ele>
        <time>2025-09-16T14:55:03Z</time>
      </trkpt>
      <trkpt lat="43.6495" lon="2.4076">
        <ele>661</ele>
        <time>2025-09-16T14:55:04Z</time>
      </trkpt>
      <trkpt lat="43.64947" lon="2.40758">
        <ele>661</ele>
        <time>2025-09-16T14:55:05Z</time>
      </trkpt>
      <trkpt lat="43.64945" lon="2.40758">
        <ele>661</ele>
        <time>2025-09-16T14:55:06Z</time>
      </trkpt>
      <trkpt lat="43.64943" lon="2.40757">
        <ele>661.2</ele>
        <time>2025-09-16T14:55:07Z</time>
      </trkpt>
      <trkpt lat="43.64941" lon="2.40758">
        <ele>661</ele>
        <time>2025-09-16T14:55:08Z</time>
      </trkpt>
      <trkpt lat="43.64939" lon="2.40757">
        <ele>661</ele>
        <time>2025-09-16T14:55:09Z</time>
      </trkpt>
      <trkpt lat="43.64937" lon="2.40758">
        <ele>661</ele>
        <time>2025-09-16T14:55:10Z</time>
      </trkpt>
      <trkpt lat="43.64935" lon="2.40759">
        <ele>660.8</ele>
        <time>2025-09-16T14:55:11Z</time>
      </trkpt>
      <trkpt lat="43.64933" lon="2.40759">
        <ele>660.6</ele>
        <time>2025-09-16T14:55:12Z</time>
      </trkpt>
      <trkpt lat="43.6493" lon="2.4076">
        <ele>660.2</ele>
        <time>2025-09-16T14:55:13Z</time>
      </trkpt>
      <trkpt lat="43.64926" lon="2.40761">
        <ele>660</ele>
        <time>2025-09-16T14:55:14Z</time>
      </trkpt>
      <trkpt lat="43.64922" lon="2.40764">
        <ele>659.8</ele>
        <time>2025-09-16T14:55:15Z</time>
      </trkpt>
      <trkpt lat="43.64919" lon="2.40766">
        <ele>659.6</ele>
        <time>2025-09-16T14:55:16Z</time>
      </trkpt>
      <trkpt lat="43.64916" lon="2.40768">
        <ele>659.6</ele>
        <time>2025-09-16T14:55:17Z</time>
      </trkpt>
      <trkpt lat="43.64914" lon="2.4077">
        <ele>659.4</ele>
        <time>2025-09-16T14:55:18Z</time>
      </trkpt>
      <trkpt lat="43.6491" lon="2.40774">
        <ele>659.2</ele>
        <time>2025-09-16T14:55:19Z</time>
      </trkpt>
      <trkpt lat="43.64906" lon="2.40778">
        <ele>659</ele>
        <time>2025-09-16T14:55:20Z</time>
      </trkpt>
      <trkpt lat="43.64903" lon="2.40781">
        <ele>658.8</ele>
        <time>2025-09-16T14:55:21Z</time>
      </trkpt>
      <trkpt lat="43.649" lon="2.40785">
        <ele>658.6</ele>
        <time>2025-09-16T14:55:22Z</time>
      </trkpt>
      <trkpt lat="43.64898" lon="2.40789">
        <ele>658.4</ele>
        <time>2025-09-16T14:55:23Z</time>
      </trkpt>
      <trkpt lat="43.64895" lon="2.40793">
        <ele>658.2</ele>
        <time>2025-09-16T14:55:24Z</time>
      </trkpt>
      <trkpt lat="43.64893" lon="2.40796">
        <ele>658.2</ele>
        <time>2025-09-16T14:55:25Z</time>
      </trkpt>
      <trkpt lat="43.6489" lon="2.40799">
        <ele>658.2</ele>
        <time>2025-09-16T14:55:26Z</time>
      </trkpt>
      <trkpt lat="43.64888" lon="2.40801">
        <ele>658.2</ele>
        <time>2025-09-16T14:55:27Z</time>
      </trkpt>
      <trkpt lat="43.64886" lon="2.40801">
        <ele>658.4</ele>
        <time>2025-09-16T14:55:28Z</time>
      </trkpt>
      <trkpt lat="43.64884" lon="2.40801">
        <ele>658.4</ele>
        <time>2025-09-16T14:55:29Z</time>
      </trkpt>
      <trkpt lat="43.64883" lon="2.408">
        <ele>658.6</ele>
        <time>2025-09-16T14:55:30Z</time>
      </trkpt>
      <trkpt lat="43.64881" lon="2.40799">
        <ele>658.6</ele>
        <time>2025-09-16T14:55:31Z</time>
      </trkpt>
      <trkpt lat="43.64879" lon="2.40798">
        <ele>658.8</ele>
        <time>2025-09-16T14:55:32Z</time>
      </trkpt>
      <trkpt lat="43.64877" lon="2.40796">
        <ele>659</ele>
        <time>2025-09-16T14:55:33Z</time>
      </trkpt>
      <trkpt lat="43.64876" lon="2.40795">
        <ele>659.2</ele>
        <time>2025-09-16T14:55:34Z</time>
      </trkpt>
      <trkpt lat="43.64875" lon="2.40793">
        <ele>659.6</ele>
        <time>2025-09-16T14:55:35Z</time>
      </trkpt>
      <trkpt lat="43.64874" lon="2.40792">
        <ele>660</ele>
        <time>2025-09-16T14:55:36Z</time>
      </trkpt>
      <trkpt lat="43.64872" lon="2.4079">
        <ele>660.2</ele>
        <time>2025-09-16T14:55:37Z</time>
      </trkpt>
      <trkpt lat="43.64871" lon="2.40789">
        <ele>660.6</ele>
        <time>2025-09-16T14:55:38Z</time>
      </trkpt>
      <trkpt lat="43.64871" lon="2.40789">
        <ele>660.8</ele>
        <time>2025-09-16T14:55:39Z</time>
      </trkpt>
      <trkpt lat="43.6487" lon="2.40788">
        <ele>661</ele>
        <time>2025-09-16T14:55:40Z</time>
      </trkpt>
      <trkpt lat="43.64868" lon="2.40782">
        <ele>661.8</ele>
        <time>2025-09-16T14:55:43Z</time>
      </trkpt>
      <trkpt lat="43.64867" lon="2.4078">
        <ele>662</ele>
        <time>2025-09-16T14:55:44Z</time>
      </trkpt>
      <trkpt lat="43.64866" lon="2.40778">
        <ele>662.2</ele>
        <time>2025-09-16T14:55:45Z</time>
      </trkpt>
      <trkpt lat="43.64866" lon="2.40777">
        <ele>662.4</ele>
        <time>2025-09-16T14:55:46Z</time>
      </trkpt>
      <trkpt lat="43.64865" lon="2.40775">
        <ele>662.6</ele>
        <time>2025-09-16T14:55:47Z</time>
      </trkpt>
      <trkpt lat="43.64865" lon="2.40773">
        <ele>662.6</ele>
        <time>2025-09-16T14:55:48Z</time>
      </trkpt>
      <trkpt lat="43.64865" lon="2.4077">
        <ele>662.8</ele>
        <time>2025-09-16T14:55:49Z</time>
      </trkpt>
      <trkpt lat="43.64865" lon="2.40769">
        <ele>663</ele>
        <time>2025-09-16T14:55:50Z</time>
      </trkpt>
      <trkpt lat="43.64865" lon="2.40767">
        <ele>663.2</ele>
        <time>2025-09-16T14:55:51Z</time>
      </trkpt>
      <trkpt lat="43.64865" lon="2.40765">
        <ele>663.4</ele>
        <time>2025-09-16T14:55:52Z</time>
      </trkpt>
      <trkpt lat="43.64864" lon="2.40762">
        <ele>663.6</ele>
        <time>2025-09-16T14:55:53Z</time>
      </trkpt>
      <trkpt lat="43.64864" lon="2.4076">
        <ele>663.8</ele>
        <time>2025-09-16T14:55:54Z</time>
      </trkpt>
      <trkpt lat="43.64864" lon="2.40759">
        <ele>664</ele>
        <time>2025-09-16T14:55:55Z</time>
      </trkpt>
      <trkpt lat="43.64864" lon="2.40757">
        <ele>664.2</ele>
        <time>2025-09-16T14:55:56Z</time>
      </trkpt>
      <trkpt lat="43.64864" lon="2.40755">
        <ele>664.4</ele>
        <time>2025-09-16T14:55:57Z</time>
      </trkpt>
      <trkpt lat="43.64864" lon="2.40754">
        <ele>664.6</ele>
        <time>2025-09-16T14:55:58Z</time>
      </trkpt>
      <trkpt lat="43.64864" lon="2.40752">
        <ele>664.8</ele>
        <time>2025-09-16T14:55:59Z</time>
      </trkpt>
      <trkpt lat="43.64864" lon="2.40751">
        <ele>665</ele>
        <time>2025-09-16T14:56:00Z</time>
      </trkpt>
      <trkpt lat="43.64864" lon="2.4075">
        <ele>665</ele>
        <time>2025-09-16T14:56:01Z</time>
      </trkpt>
      <trkpt lat="43.64865" lon="2.40749">
        <ele>665.2</ele>
        <time>2025-09-16T14:56:02Z</time>
      </trkpt>
      <trkpt lat="43.64864" lon="2.40749">
        <ele>665.4</ele>
        <time>2025-09-16T14:56:03Z</time>
      </trkpt>
      <trkpt lat="43.6482" lon="2.40713">
        <ele>673</ele>
        <time>2025-09-16T14:57:00Z</time>
      </trkpt>
      <trkpt lat="43.64819" lon="2.40714">
        <ele>673</ele>
        <time>2025-09-16T14:57:01Z</time>
      </trkpt>
      <trkpt lat="43.64818" lon="2.40714">
        <ele>673.2</ele>
        <time>2025-09-16T14:57:02Z</time>
      </trkpt>
      <trkpt lat="43.64816" lon="2.40716">
        <ele>673.2</ele>
        <time>2025-09-16T14:57:03Z</time>
      </trkpt>
      <trkpt lat="43.64815" lon="2.40716">
        <ele>673.4</ele>
        <time>2025-09-16T14:57:04Z</time>
      </trkpt>
      <trkpt lat="43.64813" lon="2.40717">
        <ele>673.4</ele>
        <time>2025-09-16T14:57:05Z</time>
      </trkpt>
      <trkpt lat="43.64812" lon="2.40718">
        <ele>673.4</ele>
        <time>2025-09-16T14:57:06Z</time>
      </trkpt>
      <trkpt lat="43.6481" lon="2.40718">
        <ele>673.6</ele>
        <time>2025-09-16T14:57:07Z</time>
      </trkpt>
      <trkpt lat="43.64808" lon="2.40719">
        <ele>673.6</ele>
        <time>2025-09-16T14:57:08Z</time>
      </trkpt>
      <trkpt lat="43.64807" lon="2.40719">
        <ele>673.8</ele>
        <time>2025-09-16T14:57:09Z</time>
      </trkpt>
      <trkpt lat="43.64805" lon="2.40719">
        <ele>674</ele>
        <time>2025-09-16T14:57:10Z</time>
      </trkpt>
      <trkpt lat="43.64803" lon="2.40719">
        <ele>674</ele>
        <time>2025-09-16T14:57:11Z</time>
      </trkpt>
      <trkpt lat="43.64802" lon="2.40719">
        <ele>674</ele>
        <time>2025-09-16T14:57:12Z</time>
      </trkpt>
      <trkpt lat="43.648" lon="2.4072">
        <ele>674.2</ele>
        <time>2025-09-16T14:57:13Z</time>
      </trkpt>
      <trkpt lat="43.64799" lon="2.4072">
        <ele>674.2</ele>
        <time>2025-09-16T14:57:14Z</time>
      </trkpt>
      <trkpt lat="43.64797" lon="2.40721">
        <ele>674.2</ele>
        <time>2025-09-16T14:57:15Z</time>
      </trkpt>
      <trkpt lat="43.64795" lon="2.40721">
        <ele>674.4</ele>
        <time>2025-09-16T14:57:16Z</time>
      </trkpt>
      <trkpt lat="43.64793" lon="2.40722">
        <ele>674.4</ele>
        <time>2025-09-16T14:57:17Z</time>
      </trkpt>
      <trkpt lat="43.64792" lon="2.40722">
        <ele>674.4</ele>
        <time>2025-09-16T14:57:18Z</time>
      </trkpt>
      <trkpt lat="43.6479" lon="2.40722">
        <ele>674.6</ele>
        <time>2025-09-16T14:57:19Z</time>
      </trkpt>
      <trkpt lat="43.64789" lon="2.40722">
        <ele>674.6</ele>
        <time>2025-09-16T14:57:20Z</time>
      </trkpt>
      <trkpt lat="43.64787" lon="2.40723">
        <ele>674.8</ele>
        <time>2025-09-16T14:57:21Z</time>
      </trkpt>
      <trkpt lat="43.64786" lon="2.40724">
        <ele>674.8</ele>
        <time>2025-09-16T14:57:22Z</time>
      </trkpt>
      <trkpt lat="43.64785" lon="2.40726">
        <ele>674.8</ele>
        <time>2025-09-16T14:57:23Z</time>
      </trkpt>
      <trkpt lat="43.64783" lon="2.40727">
        <ele>674.8</ele>
        <time>2025-09-16T14:57:24Z</time>
      </trkpt>
      <trkpt lat="43.64782" lon="2.40729">
        <ele>674.8</ele>
        <time>2025-09-16T14:57:25Z</time>
      </trkpt>
      <trkpt lat="43.6478" lon="2.4073">
        <ele>674.8</ele>
        <time>2025-09-16T14:57:26Z</time>
      </trkpt>
      <trkpt lat="43.64778" lon="2.40731">
        <ele>674.6</ele>
        <time>2025-09-16T14:57:27Z</time>
      </trkpt>
      <trkpt lat="43.64775" lon="2.40732">
        <ele>674.4</ele>
        <time>2025-09-16T14:57:28Z</time>
      </trkpt>
      <trkpt lat="43.64773" lon="2.40732">
        <ele>674.2</ele>
        <time>2025-09-16T14:57:29Z</time>
      </trkpt>
      <trkpt lat="43.6477" lon="2.40734">
        <ele>674</ele>
        <time>2025-09-16T14:57:30Z</time>
      </trkpt>
      <trkpt lat="43.64767" lon="2.40734">
        <ele>673.8</ele>
        <time>2025-09-16T14:57:31Z</time>
      </trkpt>
      <trkpt lat="43.64764" lon="2.40734">
        <ele>673.8</ele>
        <time>2025-09-16T14:57:32Z</time>
      </trkpt>
      <trkpt lat="43.64761" lon="2.40734">
        <ele>673.6</ele>
        <time>2025-09-16T14:57:33Z</time>
      </trkpt>
      <trkpt lat="43.64758" lon="2.40733">
        <ele>673.4</ele>
        <time>2025-09-16T14:57:34Z</time>
      </trkpt>
      <trkpt lat="43.64755" lon="2.40733">
        <ele>673.2</ele>
        <time>2025-09-16T14:57:35Z</time>
      </trkpt>
      <trkpt lat="43.64752" lon="2.40733">
        <ele>672.8</ele>
        <time>2025-09-16T14:57:36Z</time>
      </trkpt>
      <trkpt lat="43.64749" lon="2.40732">
        <ele>672.4</ele>
        <time>2025-09-16T14:57:37Z</time>
      </trkpt>
      <trkpt lat="43.64746" lon="2.40732">
        <ele>672</ele>
        <time>2025-09-16T14:57:38Z</time>
      </trkpt>
      <trkpt lat="43.64743" lon="2.40732">
        <ele>671.4</ele>
        <time>2025-09-16T14:57:39Z</time>
      </trkpt>
      <trkpt lat="43.6474" lon="2.40731">
        <ele>671</ele>
        <time>2025-09-16T14:57:40Z</time>
      </trkpt>
      <trkpt lat="43.64737" lon="2.40731">
        <ele>670.4</ele>
        <time>2025-09-16T14:57:41Z</time>
      </trkpt>
      <trkpt lat="43.64734" lon="2.40731">
        <ele>670</ele>
        <time>2025-09-16T14:57:42Z</time>
      </trkpt>
      <trkpt lat="43.64731" lon="2.40731">
        <ele>669.4</ele>
        <time>2025-09-16T14:57:43Z</time>
      </trkpt>
      <trkpt lat="43.64727" lon="2.40731">
        <ele>668.8</ele>
        <time>2025-09-16T14:57:44Z</time>
      </trkpt>
      <trkpt lat="43.64723" lon="2.40732">
        <ele>668.2</ele>
        <time>2025-09-16T14:57:45Z</time>
      </trkpt>
      <trkpt lat="43.64718" lon="2.40733">
        <ele>667.8</ele>
        <time>2025-09-16T14:57:46Z</time>
      </trkpt>
      <trkpt lat="43.64713" lon="2.40735">
        <ele>667.4</ele>
        <time>2025-09-16T14:57:47Z</time>
      </trkpt>
      <trkpt lat="43.64709" lon="2.40737">
        <ele>667.2</ele>
        <time>2025-09-16T14:57:48Z</time>
      </trkpt>
      <trkpt lat="43.64704" lon="2.4074">
        <ele>666.8</ele>
        <time>2025-09-16T14:57:49Z</time>
      </trkpt>
      <trkpt lat="43.64701" lon="2.40741">
        <ele>666.8</ele>
        <time>2025-09-16T14:57:50Z</time>
      </trkpt>
      <trkpt lat="43.64698" lon="2.40742">
        <ele>666.6</ele>
        <time>2025-09-16T14:57:51Z</time>
      </trkpt>
      <trkpt lat="43.64694" lon="2.40743">
        <ele>666.6</ele>
        <time>2025-09-16T14:57:52Z</time>
      </trkpt>
      <trkpt lat="43.64692" lon="2.40744">
        <ele>666.6</ele>
        <time>2025-09-16T14:57:53Z</time>
      </trkpt>
      <trkpt lat="43.64689" lon="2.40745">
        <ele>666.6</ele>
        <time>2025-09-16T14:57:54Z</time>
      </trkpt>
      <trkpt lat="43.64687" lon="2.40745">
        <ele>666.6</ele>
        <time>2025-09-16T14:57:55Z</time>
      </trkpt>
      <trkpt lat="43.64683" lon="2.40747">
        <ele>666.4</ele>
        <time>2025-09-16T14:57:56Z</time>
      </trkpt>
      <trkpt lat="43.64678" lon="2.4075">
        <ele>666</ele>
        <time>2025-09-16T14:57:57Z</time>
      </trkpt>
      <trkpt lat="43.64673" lon="2.40751">
        <ele>665.6</ele>
        <time>2025-09-16T14:57:58Z</time>
      </trkpt>
      <trkpt lat="43.64667" lon="2.40751">
        <ele>665</ele>
        <time>2025-09-16T14:57:59Z</time>
      </trkpt>
      <trkpt lat="43.64662" lon="2.40752">
        <ele>664.8</ele>
        <time>2025-09-16T14:58:00Z</time>
      </trkpt>
      <trkpt lat="43.64659" lon="2.40751">
        <ele>664.8</ele>
        <time>2025-09-16T14:58:01Z</time>
      </trkpt>
      <trkpt lat="43.64656" lon="2.40751">
        <ele>665.2</ele>
        <time>2025-09-16T14:58:02Z</time>
      </trkpt>
      <trkpt lat="43.64653" lon="2.4075">
        <ele>665.6</ele>
        <time>2025-09-16T14:58:03Z</time>
      </trkpt>
      <trkpt lat="43.64651" lon="2.4075">
        <ele>666</ele>
        <time>2025-09-16T14:58:04Z</time>
      </trkpt>
      <trkpt lat="43.64649" lon="2.40749">
        <ele>666.6</ele>
        <time>2025-09-16T14:58:05Z</time>
      </trkpt>
      <trkpt lat="43.64648" lon="2.40749">
        <ele>666.8</ele>
        <time>2025-09-16T14:58:06Z</time>
      </trkpt>
      <trkpt lat="43.64646" lon="2.40749">
        <ele>667.2</ele>
        <time>2025-09-16T14:58:07Z</time>
      </trkpt>
      <trkpt lat="43.64644" lon="2.40748">
        <ele>667.6</ele>
        <time>2025-09-16T14:58:08Z</time>
      </trkpt>
      <trkpt lat="43.64642" lon="2.40749">
        <ele>668</ele>
        <time>2025-09-16T14:58:09Z</time>
      </trkpt>
      <trkpt lat="43.64639" lon="2.40749">
        <ele>668.2</ele>
        <time>2025-09-16T14:58:10Z</time>
      </trkpt>
      <trkpt lat="43.64638" lon="2.40749">
        <ele>668.6</ele>
        <time>2025-09-16T14:58:11Z</time>
      </trkpt>
      <trkpt lat="43.64637" lon="2.40749">
        <ele>669</ele>
        <time>2025-09-16T14:58:12Z</time>
      </trkpt>
      <trkpt lat="43.64635" lon="2.40749">
        <ele>669.2</ele>
        <time>2025-09-16T14:58:13Z</time>
      </trkpt>
      <trkpt lat="43.64633" lon="2.40749">
        <ele>669.4</ele>
        <time>2025-09-16T14:58:14Z</time>
      </trkpt>
      <trkpt lat="43.6463" lon="2.4075">
        <ele>669.6</ele>
        <time>2025-09-16T14:58:15Z</time>
      </trkpt>
      <trkpt lat="43.64629" lon="2.4075">
        <ele>669.8</ele>
        <time>2025-09-16T14:58:16Z</time>
      </trkpt>
      <trkpt lat="43.64628" lon="2.4075">
        <ele>670</ele>
        <time>2025-09-16T14:58:17Z</time>
      </trkpt>
      <trkpt lat="43.64627" lon="2.40751">
        <ele>670.2</ele>
        <time>2025-09-16T14:58:18Z</time>
      </trkpt>
      <trkpt lat="43.64626" lon="2.40752">
        <ele>670.2</ele>
        <time>2025-09-16T14:58:19Z</time>
      </trkpt>
      <trkpt lat="43.64624" lon="2.40754">
        <ele>670.4</ele>
        <time>2025-09-16T14:58:20Z</time>
      </trkpt>
      <trkpt lat="43.64622" lon="2.40753">
        <ele>670.6</ele>
        <time>2025-09-16T14:58:21Z</time>
      </trkpt>
      <trkpt lat="43.64619" lon="2.40753">
        <ele>670.8</ele>
        <time>2025-09-16T14:58:22Z</time>
      </trkpt>
      <trkpt lat="43.64617" lon="2.40753">
        <ele>671</ele>
        <time>2025-09-16T14:58:23Z</time>
      </trkpt>
      <trkpt lat="43.64616" lon="2.40753">
        <ele>671.2</ele>
        <time>2025-09-16T14:58:24Z</time>
      </trkpt>
      <trkpt lat="43.64612" lon="2.40753">
        <ele>671.4</ele>
        <time>2025-09-16T14:58:25Z</time>
      </trkpt>
      <trkpt lat="43.64611" lon="2.40752">
        <ele>671.4</ele>
        <time>2025-09-16T14:58:26Z</time>
      </trkpt>
      <trkpt lat="43.6461" lon="2.40752">
        <ele>671.6</ele>
        <time>2025-09-16T14:58:27Z</time>
      </trkpt>
      <trkpt lat="43.64609" lon="2.40752">
        <ele>671.6</ele>
        <time>2025-09-16T14:58:28Z</time>
      </trkpt>
      <trkpt lat="43.64607" lon="2.40752">
        <ele>671.8</ele>
        <time>2025-09-16T14:58:29Z</time>
      </trkpt>
      <trkpt lat="43.64606" lon="2.40751">
        <ele>672</ele>
        <time>2025-09-16T14:58:30Z</time>
      </trkpt>
      <trkpt lat="43.64605" lon="2.4075">
        <ele>672</ele>
        <time>2025-09-16T14:58:31Z</time>
      </trkpt>
      <trkpt lat="43.64604" lon="2.4075">
        <ele>672.2</ele>
        <time>2025-09-16T14:58:32Z</time>
      </trkpt>
      <trkpt lat="43.64602" lon="2.4075">
        <ele>672.2</ele>
        <time>2025-09-16T14:58:33Z</time>
      </trkpt>
      <trkpt lat="43.64601" lon="2.4075">
        <ele>672.4</ele>
        <time>2025-09-16T14:58:34Z</time>
      </trkpt>
      <trkpt lat="43.64599" lon="2.4075">
        <ele>672.6</ele>
        <time>2025-09-16T14:58:35Z</time>
      </trkpt>
      <trkpt lat="43.64598" lon="2.4075">
        <ele>672.8</ele>
        <time>2025-09-16T14:58:36Z</time>
      </trkpt>
      <trkpt lat="43.64597" lon="2.4075">
        <ele>673</ele>
        <time>2025-09-16T14:58:37Z</time>
      </trkpt>
      <trkpt lat="43.64595" lon="2.40751">
        <ele>673</ele>
        <time>2025-09-16T14:58:38Z</time>
      </trkpt>
      <trkpt lat="43.64594" lon="2.40753">
        <ele>673.2</ele>
        <time>2025-09-16T14:58:39Z</time>
      </trkpt>
      <trkpt lat="43.64592" lon="2.40754">
        <ele>673.2</ele>
        <time>2025-09-16T14:58:40Z</time>
      </trkpt>
      <trkpt lat="43.64589" lon="2.40758">
        <ele>673.2</ele>
        <time>2025-09-16T14:58:41Z</time>
      </trkpt>
      <trkpt lat="43.64588" lon="2.40761">
        <ele>673.2</ele>
        <time>2025-09-16T14:58:42Z</time>
      </trkpt>
      <trkpt lat="43.64586" lon="2.40764">
        <ele>673</ele>
        <time>2025-09-16T14:58:43Z</time>
      </trkpt>
      <trkpt lat="43.64585" lon="2.40766">
        <ele>673</ele>
        <time>2025-09-16T14:58:44Z</time>
      </trkpt>
      <trkpt lat="43.64584" lon="2.40768">
        <ele>672.8</ele>
        <time>2025-09-16T14:58:45Z</time>
      </trkpt>
      <trkpt lat="43.64583" lon="2.40769">
        <ele>672.8</ele>
        <time>2025-09-16T14:58:46Z</time>
      </trkpt>
      <trkpt lat="43.64582" lon="2.40771">
        <ele>672.8</ele>
        <time>2025-09-16T14:58:47Z</time>
      </trkpt>
      <trkpt lat="43.64581" lon="2.40774">
        <ele>672.8</ele>
        <time>2025-09-16T14:58:48Z</time>
      </trkpt>
      <trkpt lat="43.64579" lon="2.40778">
        <ele>672.4</ele>
        <time>2025-09-16T14:58:49Z</time>
      </trkpt>
      <trkpt lat="43.64577" lon="2.40781">
        <ele>672.2</ele>
        <time>2025-09-16T14:58:50Z</time>
      </trkpt>
      <trkpt lat="43.64575" lon="2.40786">
        <ele>671.8</ele>
        <time>2025-09-16T14:58:51Z</time>
      </trkpt>
      <trkpt lat="43.64573" lon="2.4079">
        <ele>671.4</ele>
        <time>2025-09-16T14:58:52Z</time>
      </trkpt>
      <trkpt lat="43.64572" lon="2.40792">
        <ele>671.2</ele>
        <time>2025-09-16T14:58:53Z</time>
      </trkpt>
      <trkpt lat="43.64572" lon="2.40796">
        <ele>670.8</ele>
        <time>2025-09-16T14:58:54Z</time>
      </trkpt>
      <trkpt lat="43.6457" lon="2.40803">
        <ele>670.6</ele>
        <time>2025-09-16T14:58:55Z</time>
      </trkpt>
      <trkpt lat="43.64568" lon="2.40809">
        <ele>670.6</ele>
        <time>2025-09-16T14:58:56Z</time>
      </trkpt>
      <trkpt lat="43.64567" lon="2.40815">
        <ele>670.6</ele>
        <time>2025-09-16T14:58:57Z</time>
      </trkpt>
      <trkpt lat="43.64566" lon="2.40819">
        <ele>670.8</ele>
        <time>2025-09-16T14:58:58Z</time>
      </trkpt>
      <trkpt lat="43.64565" lon="2.40824">
        <ele>671</ele>
        <time>2025-09-16T14:58:59Z</time>
      </trkpt>
      <trkpt lat="43.64564" lon="2.40827">
        <ele>671.2</ele>
        <time>2025-09-16T14:59:00Z</time>
      </trkpt>
      <trkpt lat="43.64563" lon="2.4083">
        <ele>671.4</ele>
        <time>2025-09-16T14:59:01Z</time>
      </trkpt>
      <trkpt lat="43.64563" lon="2.40831">
        <ele>671.8</ele>
        <time>2025-09-16T14:59:02Z</time>
      </trkpt>
      <trkpt lat="43.64563" lon="2.40832">
        <ele>672</ele>
        <time>2025-09-16T14:59:03Z</time>
      </trkpt>
      <trkpt lat="43.64562" lon="2.40832">
        <ele>672.4</ele>
        <time>2025-09-16T14:59:04Z</time>
      </trkpt>
      <trkpt lat="43.64561" lon="2.40833">
        <ele>672.6</ele>
        <time>2025-09-16T14:59:05Z</time>
      </trkpt>
      <trkpt lat="43.64559" lon="2.40834">
        <ele>672.8</ele>
        <time>2025-09-16T14:59:06Z</time>
      </trkpt>
      <trkpt lat="43.64558" lon="2.40835">
        <ele>673.2</ele>
        <time>2025-09-16T14:59:07Z</time>
      </trkpt>
      <trkpt lat="43.64557" lon="2.40837">
        <ele>673.4</ele>
        <time>2025-09-16T14:59:08Z</time>
      </trkpt>
      <trkpt lat="43.64556" lon="2.40838">
        <ele>673.8</ele>
        <time>2025-09-16T14:59:09Z</time>
      </trkpt>
      <trkpt lat="43.64555" lon="2.4084">
        <ele>673.8</ele>
        <time>2025-09-16T14:59:10Z</time>
      </trkpt>
      <trkpt lat="43.64555" lon="2.40841">
        <ele>674</ele>
        <time>2025-09-16T14:59:11Z</time>
      </trkpt>
      <trkpt lat="43.64555" lon="2.40843">
        <ele>674.2</ele>
        <time>2025-09-16T14:59:12Z</time>
      </trkpt>
      <trkpt lat="43.64555" lon="2.40846">
        <ele>674.2</ele>
        <time>2025-09-16T14:59:13Z</time>
      </trkpt>
      <trkpt lat="43.64555" lon="2.40849">
        <ele>674.2</ele>
        <time>2025-09-16T14:59:14Z</time>
      </trkpt>
      <trkpt lat="43.64555" lon="2.40851">
        <ele>674.2</ele>
        <time>2025-09-16T14:59:15Z</time>
      </trkpt>
      <trkpt lat="43.64554" lon="2.40853">
        <ele>674.2</ele>
        <time>2025-09-16T14:59:16Z</time>
      </trkpt>
      <trkpt lat="43.64554" lon="2.40855">
        <ele>674.4</ele>
        <time>2025-09-16T14:59:17Z</time>
      </trkpt>
      <trkpt lat="43.64554" lon="2.40858">
        <ele>674.4</ele>
        <time>2025-09-16T14:59:18Z</time>
      </trkpt>
      <trkpt lat="43.64554" lon="2.40861">
        <ele>674.6</ele>
        <time>2025-09-16T14:59:19Z</time>
      </trkpt>
      <trkpt lat="43.64554" lon="2.40863">
        <ele>674.8</ele>
        <time>2025-09-16T14:59:20Z</time>
      </trkpt>
      <trkpt lat="43.64554" lon="2.40866">
        <ele>675</ele>
        <time>2025-09-16T14:59:21Z</time>
      </trkpt>
      <trkpt lat="43.64554" lon="2.40868">
        <ele>675.2</ele>
        <time>2025-09-16T14:59:22Z</time>
      </trkpt>
      <trkpt lat="43.64554" lon="2.40871">
        <ele>675.2</ele>
        <time>2025-09-16T14:59:23Z</time>
      </trkpt>
      <trkpt lat="43.64553" lon="2.40873">
        <ele>675.4</ele>
        <time>2025-09-16T14:59:24Z</time>
      </trkpt>
      <trkpt lat="43.64553" lon="2.40876">
        <ele>675.6</ele>
        <time>2025-09-16T14:59:25Z</time>
      </trkpt>
      <trkpt lat="43.64552" lon="2.40878">
        <ele>675.8</ele>
        <time>2025-09-16T14:59:26Z</time>
      </trkpt>
      <trkpt lat="43.64552" lon="2.4088">
        <ele>676.2</ele>
        <time>2025-09-16T14:59:27Z</time>
      </trkpt>
      <trkpt lat="43.64552" lon="2.40881">
        <ele>676.4</ele>
        <time>2025-09-16T14:59:28Z</time>
      </trkpt>
      <trkpt lat="43.64552" lon="2.40882">
        <ele>676.6</ele>
        <time>2025-09-16T14:59:29Z</time>
      </trkpt>
      <trkpt lat="43.64551" lon="2.40884">
        <ele>677</ele>
        <time>2025-09-16T14:59:30Z</time>
      </trkpt>
      <trkpt lat="43.6455" lon="2.40886">
        <ele>677.2</ele>
        <time>2025-09-16T14:59:31Z</time>
      </trkpt>
      <trkpt lat="43.6455" lon="2.40887">
        <ele>677.6</ele>
        <time>2025-09-16T14:59:32Z</time>
      </trkpt>
      <trkpt lat="43.64549" lon="2.40888">
        <ele>678</ele>
        <time>2025-09-16T14:59:33Z</time>
      </trkpt>
      <trkpt lat="43.64548" lon="2.40889">
        <ele>678.2</ele>
        <time>2025-09-16T14:59:34Z</time>
      </trkpt>
      <trkpt lat="43.64548" lon="2.4089">
        <ele>678.4</ele>
        <time>2025-09-16T14:59:35Z</time>
      </trkpt>
      <trkpt lat="43.64547" lon="2.40891">
        <ele>678.6</ele>
        <time>2025-09-16T14:59:36Z</time>
      </trkpt>
      <trkpt lat="43.64546" lon="2.40891">
        <ele>678.8</ele>
        <time>2025-09-16T14:59:37Z</time>
      </trkpt>
      <trkpt lat="43.64544" lon="2.40894">
        <ele>679</ele>
        <time>2025-09-16T14:59:38Z</time>
      </trkpt>
      <trkpt lat="43.64542" lon="2.40904">
        <ele>681</ele>
        <time>2025-09-16T14:59:47Z</time>
      </trkpt>
      <trkpt lat="43.64542" lon="2.40905">
        <ele>681.2</ele>
        <time>2025-09-16T14:59:48Z</time>
      </trkpt>
      <trkpt lat="43.64541" lon="2.40907">
        <ele>681.4</ele>
        <time>2025-09-16T14:59:49Z</time>
      </trkpt>
      <trkpt lat="43.64449" lon="2.4098">
        <ele>691</ele>
        <time>2025-09-16T15:01:10Z</time>
      </trkpt>
      <trkpt lat="43.64446" lon="2.4098">
        <ele>691</ele>
        <time>2025-09-16T15:01:11Z</time>
      </trkpt>
      <trkpt lat="43.64443" lon="2.40981">
        <ele>690.8</ele>
        <time>2025-09-16T15:01:12Z</time>
      </trkpt>
      <trkpt lat="43.6444" lon="2.40982">
        <ele>690.8</ele>
        <time>2025-09-16T15:01:13Z</time>
      </trkpt>
      <trkpt lat="43.64439" lon="2.40983">
        <ele>690.8</ele>
        <time>2025-09-16T15:01:14Z</time>
      </trkpt>
      <trkpt lat="43.64437" lon="2.40984">
        <ele>690.8</ele>
        <time>2025-09-16T15:01:15Z</time>
      </trkpt>
      <trkpt lat="43.64435" lon="2.40987">
        <ele>690.8</ele>
        <time>2025-09-16T15:01:16Z</time>
      </trkpt>
      <trkpt lat="43.64432" lon="2.40988">
        <ele>690.6</ele>
        <time>2025-09-16T15:01:17Z</time>
      </trkpt>
      <trkpt lat="43.64429" lon="2.40989">
        <ele>690.6</ele>
        <time>2025-09-16T15:01:18Z</time>
      </trkpt>
      <trkpt lat="43.64427" lon="2.40991">
        <ele>690.6</ele>
        <time>2025-09-16T15:01:19Z</time>
      </trkpt>
      <trkpt lat="43.64424" lon="2.40992">
        <ele>690.6</ele>
        <time>2025-09-16T15:01:20Z</time>
      </trkpt>
      <trkpt lat="43.64421" lon="2.40995">
        <ele>690.6</ele>
        <time>2025-09-16T15:01:21Z</time>
      </trkpt>
      <trkpt lat="43.64418" lon="2.40997">
        <ele>690.4</ele>
        <time>2025-09-16T15:01:22Z</time>
      </trkpt>
      <trkpt lat="43.64415" lon="2.40999">
        <ele>690.4</ele>
        <time>2025-09-16T15:01:23Z</time>
      </trkpt>
      <trkpt lat="43.6441" lon="2.41002">
        <ele>690.4</ele>
        <time>2025-09-16T15:01:24Z</time>
      </trkpt>
      <trkpt lat="43.64408" lon="2.41004">
        <ele>690.2</ele>
        <time>2025-09-16T15:01:25Z</time>
      </trkpt>
      <trkpt lat="43.64405" lon="2.41007">
        <ele>690.2</ele>
        <time>2025-09-16T15:01:26Z</time>
      </trkpt>
      <trkpt lat="43.64403" lon="2.41008">
        <ele>690</ele>
        <time>2025-09-16T15:01:27Z</time>
      </trkpt>
      <trkpt lat="43.64399" lon="2.41011">
        <ele>689.6</ele>
        <time>2025-09-16T15:01:28Z</time>
      </trkpt>
      <trkpt lat="43.64395" lon="2.41013">
        <ele>689.4</ele>
        <time>2025-09-16T15:01:29Z</time>
      </trkpt>
      <trkpt lat="43.64391" lon="2.41015">
        <ele>689</ele>
        <time>2025-09-16T15:01:30Z</time>
      </trkpt>
      <trkpt lat="43.64387" lon="2.41015">
        <ele>688.8</ele>
        <time>2025-09-16T15:01:31Z</time>
      </trkpt>
      <trkpt lat="43.64384" lon="2.41017">
        <ele>688.2</ele>
        <time>2025-09-16T15:01:32Z</time>
      </trkpt>
      <trkpt lat="43.64382" lon="2.41019">
        <ele>687.8</ele>
        <time>2025-09-16T15:01:33Z</time>
      </trkpt>
      <trkpt lat="43.64379" lon="2.41021">
        <ele>687.2</ele>
        <time>2025-09-16T15:01:34Z</time>
      </trkpt>
      <trkpt lat="43.64374" lon="2.41024">
        <ele>686.6</ele>
        <time>2025-09-16T15:01:35Z</time>
      </trkpt>
      <trkpt lat="43.6437" lon="2.41026">
        <ele>686</ele>
        <time>2025-09-16T15:01:36Z</time>
      </trkpt>
      <trkpt lat="43.64366" lon="2.41027">
        <ele>685.6</ele>
        <time>2025-09-16T15:01:37Z</time>
      </trkpt>
      <trkpt lat="43.64362" lon="2.41026">
        <ele>684.8</ele>
        <time>2025-09-16T15:01:38Z</time>
      </trkpt>
      <trkpt lat="43.64358" lon="2.41025">
        <ele>684.2</ele>
        <time>2025-09-16T15:01:39Z</time>
      </trkpt>
      <trkpt lat="43.64354" lon="2.41023">
        <ele>683.8</ele>
        <time>2025-09-16T15:01:40Z</time>
      </trkpt>
      <trkpt lat="43.64351" lon="2.41021">
        <ele>683.6</ele>
        <time>2025-09-16T15:01:41Z</time>
      </trkpt>
      <trkpt lat="43.64349" lon="2.41019">
        <ele>683.4</ele>
        <time>2025-09-16T15:01:42Z</time>
      </trkpt>
      <trkpt lat="43.64346" lon="2.41017">
        <ele>683.4</ele>
        <time>2025-09-16T15:01:43Z</time>
      </trkpt>
      <trkpt lat="43.64344" lon="2.41016">
        <ele>683.6</ele>
        <time>2025-09-16T15:01:44Z</time>
      </trkpt>
      <trkpt lat="43.64342" lon="2.41015">
        <ele>683.8</ele>
        <time>2025-09-16T15:01:45Z</time>
      </trkpt>
      <trkpt lat="43.6434" lon="2.41014">
        <ele>684</ele>
        <time>2025-09-16T15:01:46Z</time>
      </trkpt>
      <trkpt lat="43.64338" lon="2.41013">
        <ele>684.2</ele>
        <time>2025-09-16T15:01:47Z</time>
      </trkpt>
      <trkpt lat="43.64336" lon="2.41012">
        <ele>684.4</ele>
        <time>2025-09-16T15:01:48Z</time>
      </trkpt>
      <trkpt lat="43.64334" lon="2.41012">
        <ele>684.4</ele>
        <time>2025-09-16T15:01:49Z</time>
      </trkpt>
      <trkpt lat="43.64332" lon="2.41011">
        <ele>684.6</ele>
        <time>2025-09-16T15:01:50Z</time>
      </trkpt>
      <trkpt lat="43.6433" lon="2.41011">
        <ele>684.8</ele>
        <time>2025-09-16T15:01:51Z</time>
      </trkpt>
      <trkpt lat="43.64329" lon="2.4101">
        <ele>685</ele>
        <time>2025-09-16T15:01:52Z</time>
      </trkpt>
      <trkpt lat="43.64327" lon="2.41009">
        <ele>685.2</ele>
        <time>2025-09-16T15:01:53Z</time>
      </trkpt>
      <trkpt lat="43.64326" lon="2.41008">
        <ele>685.4</ele>
        <time>2025-09-16T15:01:54Z</time>
      </trkpt>
      <trkpt lat="43.64324" lon="2.41007">
        <ele>685.4</ele>
        <time>2025-09-16T15:01:55Z</time>
      </trkpt>
      <trkpt lat="43.64322" lon="2.41006">
        <ele>685.6</ele>
        <time>2025-09-16T15:01:56Z</time>
      </trkpt>
      <trkpt lat="43.6432" lon="2.41004">
        <ele>685.6</ele>
        <time>2025-09-16T15:01:57Z</time>
      </trkpt>
      <trkpt lat="43.64317" lon="2.41003">
        <ele>685.4</ele>
        <time>2025-09-16T15:01:58Z</time>
      </trkpt>
      <trkpt lat="43.64314" lon="2.41001">
        <ele>685.2</ele>
        <time>2025-09-16T15:01:59Z</time>
      </trkpt>
      <trkpt lat="43.6431" lon="2.40999">
        <ele>685</ele>
        <time>2025-09-16T15:02:00Z</time>
      </trkpt>
      <trkpt lat="43.64306" lon="2.40998">
        <ele>684.8</ele>
        <time>2025-09-16T15:02:01Z</time>
      </trkpt>
      <trkpt lat="43.64302" lon="2.40997">
        <ele>684.6</ele>
        <time>2025-09-16T15:02:02Z</time>
      </trkpt>
      <trkpt lat="43.64298" lon="2.40997">
        <ele>684.4</ele>
        <time>2025-09-16T15:02:03Z</time>
      </trkpt>
      <trkpt lat="43.64294" lon="2.40996">
        <ele>684.2</ele>
        <time>2025-09-16T15:02:04Z</time>
      </trkpt>
      <trkpt lat="43.6429" lon="2.40996">
        <ele>684</ele>
        <time>2025-09-16T15:02:05Z</time>
      </trkpt>
      <trkpt lat="43.64286" lon="2.40995">
        <ele>683.8</ele>
        <time>2025-09-16T15:02:06Z</time>
      </trkpt>
      <trkpt lat="43.64282" lon="2.40994">
        <ele>683.8</ele>
        <time>2025-09-16T15:02:07Z</time>
      </trkpt>
      <trkpt lat="43.64278" lon="2.40994">
        <ele>683.8</ele>
        <time>2025-09-16T15:02:08Z</time>
      </trkpt>
      <trkpt lat="43.64275" lon="2.40993">
        <ele>683.6</ele>
        <time>2025-09-16T15:02:09Z</time>
      </trkpt>
      <trkpt lat="43.64271" lon="2.40993">
        <ele>683.6</ele>
        <time>2025-09-16T15:02:10Z</time>
      </trkpt>
      <trkpt lat="43.64268" lon="2.40991">
        <ele>683.8</ele>
        <time>2025-09-16T15:02:11Z</time>
      </trkpt>
      <trkpt lat="43.64265" lon="2.4099">
        <ele>683.8</ele>
        <time>2025-09-16T15:02:12Z</time>
      </trkpt>
      <trkpt lat="43.64262" lon="2.40988">
        <ele>684</ele>
        <time>2025-09-16T15:02:13Z</time>
      </trkpt>
      <trkpt lat="43.6426" lon="2.40986">
        <ele>684.4</ele>
        <time>2025-09-16T15:02:14Z</time>
      </trkpt>
      <trkpt lat="43.64257" lon="2.40984">
        <ele>684.6</ele>
        <time>2025-09-16T15:02:15Z</time>
      </trkpt>
      <trkpt lat="43.64255" lon="2.40983">
        <ele>685.2</ele>
        <time>2025-09-16T15:02:16Z</time>
      </trkpt>
      <trkpt lat="43.64252" lon="2.40982">
        <ele>685.6</ele>
        <time>2025-09-16T15:02:17Z</time>
      </trkpt>
      <trkpt lat="43.6425" lon="2.40981">
        <ele>685.8</ele>
        <time>2025-09-16T15:02:18Z</time>
      </trkpt>
      <trkpt lat="43.64247" lon="2.40981">
        <ele>686.2</ele>
        <time>2025-09-16T15:02:19Z</time>
      </trkpt>
      <trkpt lat="43.64245" lon="2.40981">
        <ele>686.4</ele>
        <time>2025-09-16T15:02:20Z</time>
      </trkpt>
      <trkpt lat="43.64242" lon="2.40981">
        <ele>686.8</ele>
        <time>2025-09-16T15:02:21Z</time>
      </trkpt>
      <trkpt lat="43.6424" lon="2.40982">
        <ele>687</ele>
        <time>2025-09-16T15:02:22Z</time>
      </trkpt>
      <trkpt lat="43.64238" lon="2.40982">
        <ele>687.4</ele>
        <time>2025-09-16T15:02:23Z</time>
      </trkpt>
      <trkpt lat="43.64235" lon="2.40983">
        <ele>687.4</ele>
        <time>2025-09-16T15:02:24Z</time>
      </trkpt>
      <trkpt lat="43.64232" lon="2.40984">
        <ele>687.6</ele>
        <time>2025-09-16T15:02:25Z</time>
      </trkpt>
      <trkpt lat="43.64229" lon="2.40984">
        <ele>687.8</ele>
        <time>2025-09-16T15:02:26Z</time>
      </trkpt>
      <trkpt lat="43.64227" lon="2.40984">
        <ele>688</ele>
        <time>2025-09-16T15:02:27Z</time>
      </trkpt>
      <trkpt lat="43.64225" lon="2.40985">
        <ele>688</ele>
        <time>2025-09-16T15:02:28Z</time>
      </trkpt>
      <trkpt lat="43.64222" lon="2.40985">
        <ele>688.2</ele>
        <time>2025-09-16T15:02:29Z</time>
      </trkpt>
      <trkpt lat="43.6422" lon="2.40986">
        <ele>688.4</ele>
        <time>2025-09-16T15:02:30Z</time>
      </trkpt>
      <trkpt lat="43.64218" lon="2.40985">
        <ele>688.6</ele>
        <time>2025-09-16T15:02:31Z</time>
      </trkpt>
      <trkpt lat="43.64216" lon="2.40985">
        <ele>688.8</ele>
        <time>2025-09-16T15:02:32Z</time>
      </trkpt>
      <trkpt lat="43.64213" lon="2.40985">
        <ele>689</ele>
        <time>2025-09-16T15:02:33Z</time>
      </trkpt>
      <trkpt lat="43.64211" lon="2.40986">
        <ele>689.2</ele>
        <time>2025-09-16T15:02:34Z</time>
      </trkpt>
      <trkpt lat="43.64209" lon="2.40986">
        <ele>689.4</ele>
        <time>2025-09-16T15:02:35Z</time>
      </trkpt>
      <trkpt lat="43.64207" lon="2.40986">
        <ele>689.6</ele>
        <time>2025-09-16T15:02:36Z</time>
      </trkpt>
      <trkpt lat="43.64205" lon="2.40986">
        <ele>689.6</ele>
        <time>2025-09-16T15:02:37Z</time>
      </trkpt>
      <trkpt lat="43.64202" lon="2.40987">
        <ele>689.6</ele>
        <time>2025-09-16T15:02:38Z</time>
      </trkpt>
      <trkpt lat="43.642" lon="2.40988">
        <ele>689.8</ele>
        <time>2025-09-16T15:02:39Z</time>
      </trkpt>
      <trkpt lat="43.64197" lon="2.40988">
        <ele>689.8</ele>
        <time>2025-09-16T15:02:40Z</time>
      </trkpt>
      <trkpt lat="43.64195" lon="2.40989">
        <ele>689.8</ele>
        <time>2025-09-16T15:02:41Z</time>
      </trkpt>
      <trkpt lat="43.64193" lon="2.40991">
        <ele>689.8</ele>
        <time>2025-09-16T15:02:42Z</time>
      </trkpt>
      <trkpt lat="43.64191" lon="2.40993">
        <ele>689.8</ele>
        <time>2025-09-16T15:02:43Z</time>
      </trkpt>
      <trkpt lat="43.64189" lon="2.40996">
        <ele>689.8</ele>
        <time>2025-09-16T15:02:44Z</time>
      </trkpt>
      <trkpt lat="43.64188" lon="2.40999">
        <ele>689.6</ele>
        <time>2025-09-16T15:02:45Z</time>
      </trkpt>
      <trkpt lat="43.64188" lon="2.41003">
        <ele>689.6</ele>
        <time>2025-09-16T15:02:46Z</time>
      </trkpt>
      <trkpt lat="43.64187" lon="2.41008">
        <ele>689.4</ele>
        <time>2025-09-16T15:02:47Z</time>
      </trkpt>
      <trkpt lat="43.64187" lon="2.41013">
        <ele>689</ele>
        <time>2025-09-16T15:02:48Z</time>
      </trkpt>
      <trkpt lat="43.64187" lon="2.4102">
        <ele>688.4</ele>
        <time>2025-09-16T15:02:49Z</time>
      </trkpt>
      <trkpt lat="43.64187" lon="2.41028">
        <ele>687.8</ele>
        <time>2025-09-16T15:02:50Z</time>
      </trkpt>
      <trkpt lat="43.64187" lon="2.41037">
        <ele>687</ele>
        <time>2025-09-16T15:02:51Z</time>
      </trkpt>
      <trkpt lat="43.64187" lon="2.41047">
        <ele>686.2</ele>
        <time>2025-09-16T15:02:52Z</time>
      </trkpt>
      <trkpt lat="43.64186" lon="2.41057">
        <ele>685.8</ele>
        <time>2025-09-16T15:02:53Z</time>
      </trkpt>
      <trkpt lat="43.64184" lon="2.41062">
        <ele>685.4</ele>
        <time>2025-09-16T15:02:54Z</time>
      </trkpt>
      <trkpt lat="43.64181" lon="2.41066">
        <ele>685.2</ele>
        <time>2025-09-16T15:02:55Z</time>
      </trkpt>
      <trkpt lat="43.64177" lon="2.41069">
        <ele>685.2</ele>
        <time>2025-09-16T15:02:56Z</time>
      </trkpt>
      <trkpt lat="43.64174" lon="2.41072">
        <ele>685.2</ele>
        <time>2025-09-16T15:02:57Z</time>
      </trkpt>
      <trkpt lat="43.6417" lon="2.41075">
        <ele>685.2</ele>
        <time>2025-09-16T15:02:58Z</time>
      </trkpt>
      <trkpt lat="43.64166" lon="2.41078">
        <ele>685</ele>
        <time>2025-09-16T15:02:59Z</time>
      </trkpt>
      <trkpt lat="43.64161" lon="2.41081">
        <ele>684.6</ele>
        <time>2025-09-16T15:03:00Z</time>
      </trkpt>
      <trkpt lat="43.64156" lon="2.41085">
        <ele>684.2</ele>
        <time>2025-09-16T15:03:01Z</time>
      </trkpt>
      <trkpt lat="43.64151" lon="2.41089">
        <ele>683.8</ele>
        <time>2025-09-16T15:03:02Z</time>
      </trkpt>
      <trkpt lat="43.64146" lon="2.41095">
        <ele>683.2</ele>
        <time>2025-09-16T15:03:03Z</time>
      </trkpt>
      <trkpt lat="43.6414" lon="2.41101">
        <ele>682.6</ele>
        <time>2025-09-16T15:03:04Z</time>
      </trkpt>
      <trkpt lat="43.64136" lon="2.41105">
        <ele>682.2</ele>
        <time>2025-09-16T15:03:05Z</time>
      </trkpt>
      <trkpt lat="43.64129" lon="2.4111">
        <ele>681.6</ele>
        <time>2025-09-16T15:03:06Z</time>
      </trkpt>
      <trkpt lat="43.64123" lon="2.41113">
        <ele>681.4</ele>
        <time>2025-09-16T15:03:07Z</time>
      </trkpt>
      <trkpt lat="43.64118" lon="2.41115">
        <ele>681.2</ele>
        <time>2025-09-16T15:03:08Z</time>
      </trkpt>
      <trkpt lat="43.64112" lon="2.41118">
        <ele>681</ele>
        <time>2025-09-16T15:03:09Z</time>
      </trkpt>
      <trkpt lat="43.64107" lon="2.41121">
        <ele>681.2</ele>
        <time>2025-09-16T15:03:10Z</time>
      </trkpt>
      <trkpt lat="43.64101" lon="2.41123">
        <ele>681.2</ele>
        <time>2025-09-16T15:03:11Z</time>
      </trkpt>
      <trkpt lat="43.64098" lon="2.41124">
        <ele>681.6</ele>
        <time>2025-09-16T15:03:12Z</time>
      </trkpt>
      <trkpt lat="43.64095" lon="2.41126">
        <ele>681.8</ele>
        <time>2025-09-16T15:03:13Z</time>
      </trkpt>
      <trkpt lat="43.64092" lon="2.41127">
        <ele>682.2</ele>
        <time>2025-09-16T15:03:14Z</time>
      </trkpt>
      <trkpt lat="43.64089" lon="2.41127">
        <ele>682.2</ele>
        <time>2025-09-16T15:03:15Z</time>
      </trkpt>
      <trkpt lat="43.64087" lon="2.41127">
        <ele>682.4</ele>
        <time>2025-09-16T15:03:16Z</time>
      </trkpt>
      <trkpt lat="43.64086" lon="2.41128">
        <ele>682.6</ele>
        <time>2025-09-16T15:03:17Z</time>
      </trkpt>
      <trkpt lat="43.64086" lon="2.41128">
        <ele>682.6</ele>
        <time>2025-09-16T15:03:18Z</time>
      </trkpt>
      <trkpt lat="43.64086" lon="2.41128">
        <ele>682.8</ele>
        <time>2025-09-16T15:03:19Z</time>
      </trkpt>
      <trkpt lat="43.64085" lon="2.41128">
        <ele>682.8</ele>
        <time>2025-09-16T15:03:20Z</time>
      </trkpt>
      <trkpt lat="43.64083" lon="2.41134">
        <ele>682.6</ele>
        <time>2025-09-16T15:03:31Z</time>
      </trkpt>
      <trkpt lat="43.64083" lon="2.41137">
        <ele>682.2</ele>
        <time>2025-09-16T15:03:32Z</time>
      </trkpt>
      <trkpt lat="43.64081" lon="2.4114">
        <ele>682.2</ele>
        <time>2025-09-16T15:03:33Z</time>
      </trkpt>
      <trkpt lat="43.64079" lon="2.41143">
        <ele>682</ele>
        <time>2025-09-16T15:03:34Z</time>
      </trkpt>
      <trkpt lat="43.64077" lon="2.41146">
        <ele>681.6</ele>
        <time>2025-09-16T15:03:35Z</time>
      </trkpt>
      <trkpt lat="43.64075" lon="2.41149">
        <ele>681.4</ele>
        <time>2025-09-16T15:03:36Z</time>
      </trkpt>
      <trkpt lat="43.64072" lon="2.41152">
        <ele>681.2</ele>
        <time>2025-09-16T15:03:37Z</time>
      </trkpt>
      <trkpt lat="43.6407" lon="2.41155">
        <ele>681</ele>
        <time>2025-09-16T15:03:38Z</time>
      </trkpt>
      <trkpt lat="43.64067" lon="2.41158">
        <ele>680.8</ele>
        <time>2025-09-16T15:03:39Z</time>
      </trkpt>
      <trkpt lat="43.64064" lon="2.41161">
        <ele>680.8</ele>
        <time>2025-09-16T15:03:40Z</time>
      </trkpt>
      <trkpt lat="43.64061" lon="2.41164">
        <ele>680.6</ele>
        <time>2025-09-16T15:03:41Z</time>
      </trkpt>
      <trkpt lat="43.64059" lon="2.41166">
        <ele>680.6</ele>
        <time>2025-09-16T15:03:42Z</time>
      </trkpt>
      <trkpt lat="43.64056" lon="2.41169">
        <ele>680.6</ele>
        <time>2025-09-16T15:03:43Z</time>
      </trkpt>
      <trkpt lat="43.64053" lon="2.41171">
        <ele>680.4</ele>
        <time>2025-09-16T15:03:44Z</time>
      </trkpt>
      <trkpt lat="43.64049" lon="2.41173">
        <ele>680.2</ele>
        <time>2025-09-16T15:03:45Z</time>
      </trkpt>
      <trkpt lat="43.64045" lon="2.41175">
        <ele>680.2</ele>
        <time>2025-09-16T15:03:46Z</time>
      </trkpt>
      <trkpt lat="43.64041" lon="2.41178">
        <ele>680</ele>
        <time>2025-09-16T15:03:47Z</time>
      </trkpt>
      <trkpt lat="43.64038" lon="2.41181">
        <ele>679.8</ele>
        <time>2025-09-16T15:03:48Z</time>
      </trkpt>
      <trkpt lat="43.64034" lon="2.41183">
        <ele>679.8</ele>
        <time>2025-09-16T15:03:49Z</time>
      </trkpt>
      <trkpt lat="43.6403" lon="2.41187">
        <ele>679.6</ele>
        <time>2025-09-16T15:03:50Z</time>
      </trkpt>
      <trkpt lat="43.64026" lon="2.4119">
        <ele>679.4</ele>
        <time>2025-09-16T15:03:51Z</time>
      </trkpt>
      <trkpt lat="43.64023" lon="2.41192">
        <ele>679.4</ele>
        <time>2025-09-16T15:03:52Z</time>
      </trkpt>
      <trkpt lat="43.64019" lon="2.41194">
        <ele>679.4</ele>
        <time>2025-09-16T15:03:53Z</time>
      </trkpt>
      <trkpt lat="43.64015" lon="2.41196">
        <ele>679.4</ele>
        <time>2025-09-16T15:03:54Z</time>
      </trkpt>
      <trkpt lat="43.64012" lon="2.41199">
        <ele>679.6</ele>
        <time>2025-09-16T15:03:55Z</time>
      </trkpt>
      <trkpt lat="43.64008" lon="2.41201">
        <ele>679.6</ele>
        <time>2025-09-16T15:03:56Z</time>
      </trkpt>
      <trkpt lat="43.64005" lon="2.41203">
        <ele>679.6</ele>
        <time>2025-09-16T15:03:57Z</time>
      </trkpt>
      <trkpt lat="43.64001" lon="2.41205">
        <ele>679.8</ele>
        <time>2025-09-16T15:03:58Z</time>
      </trkpt>
      <trkpt lat="43.63997" lon="2.41207">
        <ele>679.8</ele>
        <time>2025-09-16T15:03:59Z</time>
      </trkpt>
      <trkpt lat="43.63993" lon="2.4121">
        <ele>679.8</ele>
        <time>2025-09-16T15:04:00Z</time>
      </trkpt>
      <trkpt lat="43.6399" lon="2.41213">
        <ele>679.6</ele>
        <time>2025-09-16T15:04:01Z</time>
      </trkpt>
      <trkpt lat="43.63987" lon="2.41215">
        <ele>679.6</ele>
        <time>2025-09-16T15:04:02Z</time>
      </trkpt>
      <trkpt lat="43.63983" lon="2.41219">
        <ele>679.4</ele>
        <time>2025-09-16T15:04:03Z</time>
      </trkpt>
      <trkpt lat="43.6398" lon="2.41223">
        <ele>679.2</ele>
        <time>2025-09-16T15:04:04Z</time>
      </trkpt>
      <trkpt lat="43.63977" lon="2.41227">
        <ele>679</ele>
        <time>2025-09-16T15:04:05Z</time>
      </trkpt>
      <trkpt lat="43.63973" lon="2.41232">
        <ele>678.8</ele>
        <time>2025-09-16T15:04:06Z</time>
      </trkpt>
      <trkpt lat="43.63969" lon="2.41237">
        <ele>678.4</ele>
        <time>2025-09-16T15:04:07Z</time>
      </trkpt>
      <trkpt lat="43.63964" lon="2.41243">
        <ele>678</ele>
        <time>2025-09-16T15:04:08Z</time>
      </trkpt>
      <trkpt lat="43.6396" lon="2.41249">
        <ele>677.4</ele>
        <time>2025-09-16T15:04:09Z</time>
      </trkpt>
      <trkpt lat="43.63957" lon="2.41255">
        <ele>676.8</ele>
        <time>2025-09-16T15:04:10Z</time>
      </trkpt>
      <trkpt lat="43.63954" lon="2.41262">
        <ele>676.2</ele>
        <time>2025-09-16T15:04:11Z</time>
      </trkpt>
      <trkpt lat="43.63951" lon="2.41269">
        <ele>675.8</ele>
        <time>2025-09-16T15:04:12Z</time>
      </trkpt>
      <trkpt lat="43.63949" lon="2.41276">
        <ele>675.4</ele>
        <time>2025-09-16T15:04:13Z</time>
      </trkpt>
      <trkpt lat="43.63948" lon="2.41283">
        <ele>675.2</ele>
        <time>2025-09-16T15:04:14Z</time>
      </trkpt>
      <trkpt lat="43.63946" lon="2.41289">
        <ele>674.8</ele>
        <time>2025-09-16T15:04:15Z</time>
      </trkpt>
      <trkpt lat="43.63945" lon="2.41296">
        <ele>674.6</ele>
        <time>2025-09-16T15:04:16Z</time>
      </trkpt>
      <trkpt lat="43.63944" lon="2.41301">
        <ele>674.6</ele>
        <time>2025-09-16T15:04:17Z</time>
      </trkpt>
      <trkpt lat="43.63942" lon="2.41305">
        <ele>674.4</ele>
        <time>2025-09-16T15:04:18Z</time>
      </trkpt>
      <trkpt lat="43.6394" lon="2.41306">
        <ele>674.4</ele>
        <time>2025-09-16T15:04:19Z</time>
      </trkpt>
      <trkpt lat="43.63936" lon="2.41305">
        <ele>674.4</ele>
        <time>2025-09-16T15:04:20Z</time>
      </trkpt>
      <trkpt lat="43.63934" lon="2.41302">
        <ele>674.2</ele>
        <time>2025-09-16T15:04:21Z</time>
      </trkpt>
      <trkpt lat="43.63932" lon="2.41297">
        <ele>673.8</ele>
        <time>2025-09-16T15:04:22Z</time>
      </trkpt>
      <trkpt lat="43.63931" lon="2.41292">
        <ele>673.4</ele>
        <time>2025-09-16T15:04:23Z</time>
      </trkpt>
      <trkpt lat="43.6393" lon="2.41286">
        <ele>673</ele>
        <time>2025-09-16T15:04:24Z</time>
      </trkpt>
      <trkpt lat="43.63929" lon="2.41279">
        <ele>672.6</ele>
        <time>2025-09-16T15:04:25Z</time>
      </trkpt>
      <trkpt lat="43.63926" lon="2.41273">
        <ele>672.2</ele>
        <time>2025-09-16T15:04:26Z</time>
      </trkpt>
      <trkpt lat="43.63924" lon="2.41266">
        <ele>671.6</ele>
        <time>2025-09-16T15:04:27Z</time>
      </trkpt>
      <trkpt lat="43.63921" lon="2.4126">
        <ele>671.2</ele>
        <time>2025-09-16T15:04:28Z</time>
      </trkpt>
      <trkpt lat="43.63919" lon="2.41253">
        <ele>670.6</ele>
        <time>2025-09-16T15:04:29Z</time>
      </trkpt>
      <trkpt lat="43.63916" lon="2.41245">
        <ele>670.2</ele>
        <time>2025-09-16T15:04:30Z</time>
      </trkpt>
      <trkpt lat="43.63914" lon="2.41238">
        <ele>669.6</ele>
        <time>2025-09-16T15:04:31Z</time>
      </trkpt>
      <trkpt lat="43.63911" lon="2.4123">
        <ele>669.2</ele>
        <time>2025-09-16T15:04:32Z</time>
      </trkpt>
      <trkpt lat="43.63908" lon="2.41222">
        <ele>668.8</ele>
        <time>2025-09-16T15:04:33Z</time>
      </trkpt>
      <trkpt lat="43.63906" lon="2.41215">
        <ele>668.6</ele>
        <time>2025-09-16T15:04:34Z</time>
      </trkpt>
      <trkpt lat="43.63904" lon="2.41207">
        <ele>668.4</ele>
        <time>2025-09-16T15:04:35Z</time>
      </trkpt>
      <trkpt lat="43.63902" lon="2.41199">
        <ele>668.2</ele>
        <time>2025-09-16T15:04:36Z</time>
      </trkpt>
      <trkpt lat="43.63899" lon="2.41191">
        <ele>668</ele>
        <time>2025-09-16T15:04:37Z</time>
      </trkpt>
      <trkpt lat="43.63897" lon="2.41183">
        <ele>667.8</ele>
        <time>2025-09-16T15:04:38Z</time>
      </trkpt>
      <trkpt lat="43.63894" lon="2.41175">
        <ele>667.6</ele>
        <time>2025-09-16T15:04:39Z</time>
      </trkpt>
      <trkpt lat="43.63891" lon="2.41168">
        <ele>667.4</ele>
        <time>2025-09-16T15:04:40Z</time>
      </trkpt>
      <trkpt lat="43.63888" lon="2.4116">
        <ele>667.2</ele>
        <time>2025-09-16T15:04:41Z</time>
      </trkpt>
      <trkpt lat="43.63885" lon="2.41152">
        <ele>667</ele>
        <time>2025-09-16T15:04:42Z</time>
      </trkpt>
      <trkpt lat="43.63881" lon="2.41145">
        <ele>666.6</ele>
        <time>2025-09-16T15:04:43Z</time>
      </trkpt>
      <trkpt lat="43.63877" lon="2.41138">
        <ele>666.4</ele>
        <time>2025-09-16T15:04:44Z</time>
      </trkpt>
      <trkpt lat="43.63874" lon="2.41131">
        <ele>666.2</ele>
        <time>2025-09-16T15:04:45Z</time>
      </trkpt>
      <trkpt lat="43.63871" lon="2.41124">
        <ele>665.8</ele>
        <time>2025-09-16T15:04:46Z</time>
      </trkpt>
      <trkpt lat="43.63868" lon="2.41117">
        <ele>665.6</ele>
        <time>2025-09-16T15:04:47Z</time>
      </trkpt>
      <trkpt lat="43.63866" lon="2.41109">
        <ele>665.4</ele>
        <time>2025-09-16T15:04:48Z</time>
      </trkpt>
      <trkpt lat="43.63866" lon="2.41103">
        <ele>665.4</ele>
        <time>2025-09-16T15:04:49Z</time>
      </trkpt>
      <trkpt lat="43.63865" lon="2.41096">
        <ele>665.6</ele>
        <time>2025-09-16T15:04:50Z</time>
      </trkpt>
      <trkpt lat="43.63865" lon="2.41089">
        <ele>665.6</ele>
        <time>2025-09-16T15:04:51Z</time>
      </trkpt>
      <trkpt lat="43.63866" lon="2.41083">
        <ele>665.8</ele>
        <time>2025-09-16T15:04:52Z</time>
      </trkpt>
      <trkpt lat="43.63867" lon="2.41077">
        <ele>666</ele>
        <time>2025-09-16T15:04:53Z</time>
      </trkpt>
      <trkpt lat="43.63869" lon="2.41071">
        <ele>666.4</ele>
        <time>2025-09-16T15:04:54Z</time>
      </trkpt>
      <trkpt lat="43.63871" lon="2.41065">
        <ele>666.6</ele>
        <time>2025-09-16T15:04:55Z</time>
      </trkpt>
      <trkpt lat="43.63873" lon="2.4106">
        <ele>666.8</ele>
        <time>2025-09-16T15:04:56Z</time>
      </trkpt>
      <trkpt lat="43.63874" lon="2.41054">
        <ele>667</ele>
        <time>2025-09-16T15:04:57Z</time>
      </trkpt>
      <trkpt lat="43.63876" lon="2.41049">
        <ele>667.2</ele>
        <time>2025-09-16T15:04:58Z</time>
      </trkpt>
      <trkpt lat="43.63876" lon="2.41044">
        <ele>667.4</ele>
        <time>2025-09-16T15:04:59Z</time>
      </trkpt>
      <trkpt lat="43.63876" lon="2.41038">
        <ele>667.8</ele>
        <time>2025-09-16T15:05:00Z</time>
      </trkpt>
      <trkpt lat="43.63876" lon="2.41033">
        <ele>668</ele>
        <time>2025-09-16T15:05:01Z</time>
      </trkpt>
      <trkpt lat="43.63876" lon="2.41029">
        <ele>668.2</ele>
        <time>2025-09-16T15:05:02Z</time>
      </trkpt>
      <trkpt lat="43.63876" lon="2.41025">
        <ele>668.2</ele>
        <time>2025-09-16T15:05:03Z</time>
      </trkpt>
      <trkpt lat="43.63875" lon="2.41021">
        <ele>668.4</ele>
        <time>2025-09-16T15:05:04Z</time>
      </trkpt>
      <trkpt lat="43.63875" lon="2.41017">
        <ele>668.6</ele>
        <time>2025-09-16T15:05:05Z</time>
      </trkpt>
      <trkpt lat="43.63875" lon="2.41013">
        <ele>669</ele>
        <time>2025-09-16T15:05:06Z</time>
      </trkpt>
      <trkpt lat="43.63875" lon="2.41009">
        <ele>669.4</ele>
        <time>2025-09-16T15:05:07Z</time>
      </trkpt>
      <trkpt lat="43.63875" lon="2.41005">
        <ele>669.6</ele>
        <time>2025-09-16T15:05:08Z</time>
      </trkpt>
      <trkpt lat="43.63875" lon="2.41002">
        <ele>670</ele>
        <time>2025-09-16T15:05:09Z</time>
      </trkpt>
      <trkpt lat="43.63877" lon="2.40999">
        <ele>670.4</ele>
        <time>2025-09-16T15:05:10Z</time>
      </trkpt>
      <trkpt lat="43.63878" lon="2.40996">
        <ele>670.6</ele>
        <time>2025-09-16T15:05:11Z</time>
      </trkpt>
      <trkpt lat="43.6388" lon="2.40993">
        <ele>671</ele>
        <time>2025-09-16T15:05:12Z</time>
      </trkpt>
      <trkpt lat="43.63881" lon="2.40991">
        <ele>671.4</ele>
        <time>2025-09-16T15:05:13Z</time>
      </trkpt>
      <trkpt lat="43.63883" lon="2.40989">
        <ele>671.8</ele>
        <time>2025-09-16T15:05:14Z</time>
      </trkpt>
      <trkpt lat="43.63884" lon="2.40986">
        <ele>672</ele>
        <time>2025-09-16T15:05:15Z</time>
      </trkpt>
      <trkpt lat="43.63886" lon="2.40983">
        <ele>672.2</ele>
        <time>2025-09-16T15:05:16Z</time>
      </trkpt>
      <trkpt lat="43.63886" lon="2.4098">
        <ele>672.2</ele>
        <time>2025-09-16T15:05:17Z</time>
      </trkpt>
      <trkpt lat="43.63886" lon="2.40976">
        <ele>672.2</ele>
        <time>2025-09-16T15:05:18Z</time>
      </trkpt>
      <trkpt lat="43.63884" lon="2.40973">
        <ele>672.2</ele>
        <time>2025-09-16T15:05:19Z</time>
      </trkpt>
      <trkpt lat="43.63882" lon="2.4097">
        <ele>672.2</ele>
        <time>2025-09-16T15:05:20Z</time>
      </trkpt>
      <trkpt lat="43.63879" lon="2.40968">
        <ele>672.2</ele>
        <time>2025-09-16T15:05:21Z</time>
      </trkpt>
      <trkpt lat="43.63876" lon="2.40966">
        <ele>672.2</ele>
        <time>2025-09-16T15:05:22Z</time>
      </trkpt>
      <trkpt lat="43.63874" lon="2.40964">
        <ele>672.4</ele>
        <time>2025-09-16T15:05:23Z</time>
      </trkpt>
      <trkpt lat="43.63872" lon="2.40962">
        <ele>672.4</ele>
        <time>2025-09-16T15:05:24Z</time>
      </trkpt>
      <trkpt lat="43.6387" lon="2.4096">
        <ele>672.8</ele>
        <time>2025-09-16T15:05:25Z</time>
      </trkpt>
      <trkpt lat="43.63868" lon="2.40959">
        <ele>673</ele>
        <time>2025-09-16T15:05:26Z</time>
      </trkpt>
      <trkpt lat="43.63866" lon="2.40958">
        <ele>673</ele>
        <time>2025-09-16T15:05:27Z</time>
      </trkpt>
      <trkpt lat="43.63864" lon="2.40956">
        <ele>673.2</ele>
        <time>2025-09-16T15:05:28Z</time>
      </trkpt>
      <trkpt lat="43.63862" lon="2.40953">
        <ele>673.2</ele>
        <time>2025-09-16T15:05:29Z</time>
      </trkpt>
      <trkpt lat="43.6386" lon="2.4095">
        <ele>673.2</ele>
        <time>2025-09-16T15:05:30Z</time>
      </trkpt>
      <trkpt lat="43.63857" lon="2.40947">
        <ele>673.2</ele>
        <time>2025-09-16T15:05:31Z</time>
      </trkpt>
      <trkpt lat="43.63855" lon="2.40943">
        <ele>673</ele>
        <time>2025-09-16T15:05:32Z</time>
      </trkpt>
      <trkpt lat="43.63853" lon="2.40939">
        <ele>673</ele>
        <time>2025-09-16T15:05:33Z</time>
      </trkpt>
      <trkpt lat="43.63851" lon="2.40936">
        <ele>672.8</ele>
        <time>2025-09-16T15:05:34Z</time>
      </trkpt>
      <trkpt lat="43.6385" lon="2.40932">
        <ele>672.8</ele>
        <time>2025-09-16T15:05:35Z</time>
      </trkpt>
      <trkpt lat="43.63849" lon="2.40928">
        <ele>672.8</ele>
        <time>2025-09-16T15:05:36Z</time>
      </trkpt>
      <trkpt lat="43.63849" lon="2.40924">
        <ele>672.8</ele>
        <time>2025-09-16T15:05:37Z</time>
      </trkpt>
      <trkpt lat="43.6385" lon="2.4092">
        <ele>673</ele>
        <time>2025-09-16T15:05:38Z</time>
      </trkpt>
      <trkpt lat="43.6385" lon="2.40916">
        <ele>673.2</ele>
        <time>2025-09-16T15:05:39Z</time>
      </trkpt>
      <trkpt lat="43.63852" lon="2.40913">
        <ele>673.4</ele>
        <time>2025-09-16T15:05:40Z</time>
      </trkpt>
      <trkpt lat="43.63853" lon="2.4091">
        <ele>673.6</ele>
        <time>2025-09-16T15:05:41Z</time>
      </trkpt>
      <trkpt lat="43.63854" lon="2.40907">
        <ele>673.8</ele>
        <time>2025-09-16T15:05:42Z</time>
      </trkpt>
      <trkpt lat="43.63854" lon="2.40904">
        <ele>674</ele>
        <time>2025-09-16T15:05:43Z</time>
      </trkpt>
      <trkpt lat="43.63855" lon="2.40901">
        <ele>674.4</ele>
        <time>2025-09-16T15:05:44Z</time>
      </trkpt>
      <trkpt lat="43.63856" lon="2.40898">
        <ele>674.6</ele>
        <time>2025-09-16T15:05:45Z</time>
      </trkpt>
      <trkpt lat="43.63856" lon="2.40895">
        <ele>674.8</ele>
        <time>2025-09-16T15:05:46Z</time>
      </trkpt>
      <trkpt lat="43.63856" lon="2.40893">
        <ele>675</ele>
        <time>2025-09-16T15:05:47Z</time>
      </trkpt>
      <trkpt lat="43.63857" lon="2.4089">
        <ele>675.2</ele>
        <time>2025-09-16T15:05:48Z</time>
      </trkpt>
      <trkpt lat="43.63857" lon="2.40887">
        <ele>675.2</ele>
        <time>2025-09-16T15:05:49Z</time>
      </trkpt>
      <trkpt lat="43.63857" lon="2.40884">
        <ele>675.4</ele>
        <time>2025-09-16T15:05:50Z</time>
      </trkpt>
      <trkpt lat="43.63857" lon="2.40881">
        <ele>675.4</ele>
        <time>2025-09-16T15:05:51Z</time>
      </trkpt>
      <trkpt lat="43.63858" lon="2.40878">
        <ele>675.6</ele>
        <time>2025-09-16T15:05:52Z</time>
      </trkpt>
      <trkpt lat="43.63859" lon="2.40875">
        <ele>675.6</ele>
        <time>2025-09-16T15:05:53Z</time>
      </trkpt>
      <trkpt lat="43.6386" lon="2.40873">
        <ele>675.6</ele>
        <time>2025-09-16T15:05:54Z</time>
      </trkpt>
      <trkpt lat="43.6386" lon="2.40869">
        <ele>675.6</ele>
        <time>2025-09-16T15:05:55Z</time>
      </trkpt>
      <trkpt lat="43.6386" lon="2.40866">
        <ele>675.8</ele>
        <time>2025-09-16T15:05:56Z</time>
      </trkpt>
      <trkpt lat="43.6386" lon="2.40863">
        <ele>675.8</ele>
        <time>2025-09-16T15:05:57Z</time>
      </trkpt>
      <trkpt lat="43.6386" lon="2.40859">
        <ele>675.8</ele>
        <time>2025-09-16T15:05:58Z</time>
      </trkpt>
      <trkpt lat="43.63861" lon="2.40856">
        <ele>675.8</ele>
        <time>2025-09-16T15:05:59Z</time>
      </trkpt>
      <trkpt lat="43.63861" lon="2.40853">
        <ele>675.8</ele>
        <time>2025-09-16T15:06:00Z</time>
      </trkpt>
      <trkpt lat="43.63861" lon="2.40849">
        <ele>675.8</ele>
        <time>2025-09-16T15:06:01Z</time>
      </trkpt>
      <trkpt lat="43.63861" lon="2.40846">
        <ele>675.8</ele>
        <time>2025-09-16T15:06:02Z</time>
      </trkpt>
      <trkpt lat="43.63861" lon="2.40843">
        <ele>675.8</ele>
        <time>2025-09-16T15:06:03Z</time>
      </trkpt>
      <trkpt lat="43.6386" lon="2.4084">
        <ele>675.8</ele>
        <time>2025-09-16T15:06:04Z</time>
      </trkpt>
      <trkpt lat="43.63858" lon="2.40837">
        <ele>675.6</ele>
        <time>2025-09-16T15:06:05Z</time>
      </trkpt>
      <trkpt lat="43.63855" lon="2.40834">
        <ele>675.6</ele>
        <time>2025-09-16T15:06:06Z</time>
      </trkpt>
      <trkpt lat="43.63853" lon="2.40831">
        <ele>675.4</ele>
        <time>2025-09-16T15:06:07Z</time>
      </trkpt>
      <trkpt lat="43.6385" lon="2.40828">
        <ele>675.2</ele>
        <time>2025-09-16T15:06:08Z</time>
      </trkpt>
      <trkpt lat="43.63847" lon="2.40825">
        <ele>675</ele>
        <time>2025-09-16T15:06:09Z</time>
      </trkpt>
      <trkpt lat="43.63844" lon="2.40822">
        <ele>674.6</ele>
        <time>2025-09-16T15:06:10Z</time>
      </trkpt>
      <trkpt lat="43.63841" lon="2.40818">
        <ele>674.4</ele>
        <time>2025-09-16T15:06:11Z</time>
      </trkpt>
      <trkpt lat="43.63838" lon="2.40814">
        <ele>674.2</ele>
        <time>2025-09-16T15:06:12Z</time>
      </trkpt>
      <trkpt lat="43.63836" lon="2.40808">
        <ele>674</ele>
        <time>2025-09-16T15:06:13Z</time>
      </trkpt>
      <trkpt lat="43.63833" lon="2.40804">
        <ele>673.6</ele>
        <time>2025-09-16T15:06:14Z</time>
      </trkpt>
      <trkpt lat="43.6383" lon="2.408">
        <ele>673.2</ele>
        <time>2025-09-16T15:06:15Z</time>
      </trkpt>
      <trkpt lat="43.63826" lon="2.40798">
        <ele>672.8</ele>
        <time>2025-09-16T15:06:16Z</time>
      </trkpt>
      <trkpt lat="43.63822" lon="2.40797">
        <ele>672.4</ele>
        <time>2025-09-16T15:06:17Z</time>
      </trkpt>
      <trkpt lat="43.63819" lon="2.40796">
        <ele>672</ele>
        <time>2025-09-16T15:06:18Z</time>
      </trkpt>
      <trkpt lat="43.63816" lon="2.40793">
        <ele>671.8</ele>
        <time>2025-09-16T15:06:19Z</time>
      </trkpt>
      <trkpt lat="43.63814" lon="2.4079">
        <ele>671.4</ele>
        <time>2025-09-16T15:06:20Z</time>
      </trkpt>
      <trkpt lat="43.63813" lon="2.40787">
        <ele>671</ele>
        <time>2025-09-16T15:06:21Z</time>
      </trkpt>
      <trkpt lat="43.63814" lon="2.40783">
        <ele>670.2</ele>
        <time>2025-09-16T15:06:22Z</time>
      </trkpt>
      <trkpt lat="43.63816" lon="2.40778">
        <ele>669.6</ele>
        <time>2025-09-16T15:06:23Z</time>
      </trkpt>
      <trkpt lat="43.63818" lon="2.40773">
        <ele>669</ele>
        <time>2025-09-16T15:06:24Z</time>
      </trkpt>
      <trkpt lat="43.63821" lon="2.40767">
        <ele>668.4</ele>
        <time>2025-09-16T15:06:25Z</time>
      </trkpt>
      <trkpt lat="43.63823" lon="2.4076">
        <ele>667.8</ele>
        <time>2025-09-16T15:06:26Z</time>
      </trkpt>
      <trkpt lat="43.63826" lon="2.40754">
        <ele>667</ele>
        <time>2025-09-16T15:06:27Z</time>
      </trkpt>
      <trkpt lat="43.63829" lon="2.40748">
        <ele>666.4</ele>
        <time>2025-09-16T15:06:28Z</time>
      </trkpt>
      <trkpt lat="43.63831" lon="2.40742">
        <ele>666</ele>
        <time>2025-09-16T15:06:29Z</time>
      </trkpt>
      <trkpt lat="43.63833" lon="2.40735">
        <ele>665.4</ele>
        <time>2025-09-16T15:06:30Z</time>
      </trkpt>
      <trkpt lat="43.63834" lon="2.4073">
        <ele>665</ele>
        <time>2025-09-16T15:06:31Z</time>
      </trkpt>
      <trkpt lat="43.63835" lon="2.40725">
        <ele>664.6</ele>
        <time>2025-09-16T15:06:32Z</time>
      </trkpt>
      <trkpt lat="43.63835" lon="2.4072">
        <ele>664</ele>
        <time>2025-09-16T15:06:33Z</time>
      </trkpt>
      <trkpt lat="43.63835" lon="2.40716">
        <ele>663.4</ele>
        <time>2025-09-16T15:06:34Z</time>
      </trkpt>
      <trkpt lat="43.63833" lon="2.40712">
        <ele>662.8</ele>
        <time>2025-09-16T15:06:35Z</time>
      </trkpt>
      <trkpt lat="43.63833" lon="2.40709">
        <ele>662.2</ele>
        <time>2025-09-16T15:06:36Z</time>
      </trkpt>
      <trkpt lat="43.63833" lon="2.40706">
        <ele>661.8</ele>
        <time>2025-09-16T15:06:37Z</time>
      </trkpt>
      <trkpt lat="43.63834" lon="2.40702">
        <ele>661.4</ele>
        <time>2025-09-16T15:06:38Z</time>
      </trkpt>
      <trkpt lat="43.63835" lon="2.40698">
        <ele>661</ele>
        <time>2025-09-16T15:06:39Z</time>
      </trkpt>
      <trkpt lat="43.63836" lon="2.40694">
        <ele>660.6</ele>
        <time>2025-09-16T15:06:40Z</time>
      </trkpt>
      <trkpt lat="43.63838" lon="2.40691">
        <ele>660.2</ele>
        <time>2025-09-16T15:06:41Z</time>
      </trkpt>
      <trkpt lat="43.63841" lon="2.40686">
        <ele>659.8</ele>
        <time>2025-09-16T15:06:42Z</time>
      </trkpt>
      <trkpt lat="43.63844" lon="2.40682">
        <ele>659.2</ele>
        <time>2025-09-16T15:06:43Z</time>
      </trkpt>
      <trkpt lat="43.63849" lon="2.40678">
        <ele>658.8</ele>
        <time>2025-09-16T15:06:44Z</time>
      </trkpt>
      <trkpt lat="43.63852" lon="2.40674">
        <ele>658.2</ele>
        <time>2025-09-16T15:06:45Z</time>
      </trkpt>
      <trkpt lat="43.63857" lon="2.40669">
        <ele>657.8</ele>
        <time>2025-09-16T15:06:46Z</time>
      </trkpt>
      <trkpt lat="43.6386" lon="2.40663">
        <ele>657.4</ele>
        <time>2025-09-16T15:06:47Z</time>
      </trkpt>
      <trkpt lat="43.63864" lon="2.40659">
        <ele>657</ele>
        <time>2025-09-16T15:06:48Z</time>
      </trkpt>
      <trkpt lat="43.63867" lon="2.40656">
        <ele>656.8</ele>
        <time>2025-09-16T15:06:49Z</time>
      </trkpt>
      <trkpt lat="43.63871" lon="2.40651">
        <ele>656.4</ele>
        <time>2025-09-16T15:06:50Z</time>
      </trkpt>
      <trkpt lat="43.63876" lon="2.40646">
        <ele>656.2</ele>
        <time>2025-09-16T15:06:51Z</time>
      </trkpt>
      <trkpt lat="43.63879" lon="2.40642">
        <ele>655.8</ele>
        <time>2025-09-16T15:06:52Z</time>
      </trkpt>
      <trkpt lat="43.6388" lon="2.40639">
        <ele>655.4</ele>
        <time>2025-09-16T15:06:53Z</time>
      </trkpt>
      <trkpt lat="43.63881" lon="2.40635">
        <ele>655.2</ele>
        <time>2025-09-16T15:06:54Z</time>
      </trkpt>
      <trkpt lat="43.63881" lon="2.40631">
        <ele>655</ele>
        <time>2025-09-16T15:06:55Z</time>
      </trkpt>
      <trkpt lat="43.63882" lon="2.40628">
        <ele>654.6</ele>
        <time>2025-09-16T15:06:56Z</time>
      </trkpt>
      <trkpt lat="43.63882" lon="2.40621">
        <ele>654.4</ele>
        <time>2025-09-16T15:06:57Z</time>
      </trkpt>
      <trkpt lat="43.63882" lon="2.40615">
        <ele>653.8</ele>
        <time>2025-09-16T15:06:58Z</time>
      </trkpt>
      <trkpt lat="43.6388" lon="2.40608">
        <ele>653.2</ele>
        <time>2025-09-16T15:06:59Z</time>
      </trkpt>
      <trkpt lat="43.63877" lon="2.40599">
        <ele>652.4</ele>
        <time>2025-09-16T15:07:00Z</time>
      </trkpt>
      <trkpt lat="43.63874" lon="2.40591">
        <ele>651.8</ele>
        <time>2025-09-16T15:07:01Z</time>
      </trkpt>
      <trkpt lat="43.63871" lon="2.40583">
        <ele>651.2</ele>
        <time>2025-09-16T15:07:02Z</time>
      </trkpt>
      <trkpt lat="43.63869" lon="2.40574">
        <ele>650.8</ele>
        <time>2025-09-16T15:07:03Z</time>
      </trkpt>
      <trkpt lat="43.63868" lon="2.40569">
        <ele>650.6</ele>
        <time>2025-09-16T15:07:04Z</time>
      </trkpt>
      <trkpt lat="43.63869" lon="2.40563">
        <ele>650.6</ele>
        <time>2025-09-16T15:07:05Z</time>
      </trkpt>
      <trkpt lat="43.6387" lon="2.40558">
        <ele>650.8</ele>
        <time>2025-09-16T15:07:06Z</time>
      </trkpt>
      <trkpt lat="43.63871" lon="2.40556">
        <ele>651.2</ele>
        <time>2025-09-16T15:07:07Z</time>
      </trkpt>
      <trkpt lat="43.6387" lon="2.40553">
        <ele>651.6</ele>
        <time>2025-09-16T15:07:08Z</time>
      </trkpt>
      <trkpt lat="43.6387" lon="2.40551">
        <ele>651.8</ele>
        <time>2025-09-16T15:07:09Z</time>
      </trkpt>
      <trkpt lat="43.6387" lon="2.40549">
        <ele>652.2</ele>
        <time>2025-09-16T15:07:10Z</time>
      </trkpt>
      <trkpt lat="43.6387" lon="2.40546">
        <ele>652.6</ele>
        <time>2025-09-16T15:07:11Z</time>
      </trkpt>
      <trkpt lat="43.6387" lon="2.40544">
        <ele>653</ele>
        <time>2025-09-16T15:07:12Z</time>
      </trkpt>
      <trkpt lat="43.63869" lon="2.40542">
        <ele>653.2</ele>
        <time>2025-09-16T15:07:13Z</time>
      </trkpt>
      <trkpt lat="43.63869" lon="2.4054">
        <ele>653.4</ele>
        <time>2025-09-16T15:07:14Z</time>
      </trkpt>
      <trkpt lat="43.63868" lon="2.40538">
        <ele>653.6</ele>
        <time>2025-09-16T15:07:15Z</time>
      </trkpt>
      <trkpt lat="43.63869" lon="2.40536">
        <ele>653.8</ele>
        <time>2025-09-16T15:07:16Z</time>
      </trkpt>
      <trkpt lat="43.6387" lon="2.40535">
        <ele>654</ele>
        <time>2025-09-16T15:07:17Z</time>
      </trkpt>
      <trkpt lat="43.63871" lon="2.40533">
        <ele>654.2</ele>
        <time>2025-09-16T15:07:18Z</time>
      </trkpt>
      <trkpt lat="43.63873" lon="2.40532">
        <ele>654.4</ele>
        <time>2025-09-16T15:07:19Z</time>
      </trkpt>
      <trkpt lat="43.63874" lon="2.4053">
        <ele>654.6</ele>
        <time>2025-09-16T15:07:20Z</time>
      </trkpt>
      <trkpt lat="43.63875" lon="2.40529">
        <ele>654.8</ele>
        <time>2025-09-16T15:07:21Z</time>
      </trkpt>
      <trkpt lat="43.63876" lon="2.40527">
        <ele>655</ele>
        <time>2025-09-16T15:07:22Z</time>
      </trkpt>
      <trkpt lat="43.63877" lon="2.40526">
        <ele>655.2</ele>
        <time>2025-09-16T15:07:23Z</time>
      </trkpt>
      <trkpt lat="43.63877" lon="2.40524">
        <ele>655.4</ele>
        <time>2025-09-16T15:07:24Z</time>
      </trkpt>
      <trkpt lat="43.63879" lon="2.40523">
        <ele>655.8</ele>
        <time>2025-09-16T15:07:25Z</time>
      </trkpt>
      <trkpt lat="43.6388" lon="2.40522">
        <ele>656</ele>
        <time>2025-09-16T15:07:26Z</time>
      </trkpt>
      <trkpt lat="43.6388" lon="2.40521">
        <ele>656.2</ele>
        <time>2025-09-16T15:07:27Z</time>
      </trkpt>
      <trkpt lat="43.63882" lon="2.40519">
        <ele>656.2</ele>
        <time>2025-09-16T15:07:28Z</time>
      </trkpt>
      <trkpt lat="43.63883" lon="2.40518">
        <ele>656.4</ele>
        <time>2025-09-16T15:07:29Z</time>
      </trkpt>
      <trkpt lat="43.63884" lon="2.40516">
        <ele>656.6</ele>
        <time>2025-09-16T15:07:30Z</time>
      </trkpt>
      <trkpt lat="43.63885" lon="2.40516">
        <ele>656.8</ele>
        <time>2025-09-16T15:07:31Z</time>
      </trkpt>
      <trkpt lat="43.63886" lon="2.40515">
        <ele>657</ele>
        <time>2025-09-16T15:07:32Z</time>
      </trkpt>
      <trkpt lat="43.63888" lon="2.40514">
        <ele>657.2</ele>
        <time>2025-09-16T15:07:33Z</time>
      </trkpt>
      <trkpt lat="43.63889" lon="2.40513">
        <ele>657.4</ele>
        <time>2025-09-16T15:07:34Z</time>
      </trkpt>
      <trkpt lat="43.6389" lon="2.40513">
        <ele>657.4</ele>
        <time>2025-09-16T15:07:35Z</time>
      </trkpt>
      <trkpt lat="43.63892" lon="2.40512">
        <ele>657.6</ele>
        <time>2025-09-16T15:07:36Z</time>
      </trkpt>
      <trkpt lat="43.63893" lon="2.40512">
        <ele>657.8</ele>
        <time>2025-09-16T15:07:37Z</time>
      </trkpt>
      <trkpt lat="43.63895" lon="2.40511">
        <ele>658</ele>
        <time>2025-09-16T15:07:38Z</time>
      </trkpt>
      <trkpt lat="43.63896" lon="2.40511">
        <ele>658.2</ele>
        <time>2025-09-16T15:07:39Z</time>
      </trkpt>
      <trkpt lat="43.63898" lon="2.4051">
        <ele>658.2</ele>
        <time>2025-09-16T15:07:40Z</time>
      </trkpt>
      <trkpt lat="43.63899" lon="2.4051">
        <ele>658.4</ele>
        <time>2025-09-16T15:07:41Z</time>
      </trkpt>
      <trkpt lat="43.63901" lon="2.4051">
        <ele>658.6</ele>
        <time>2025-09-16T15:07:42Z</time>
      </trkpt>
      <trkpt lat="43.63902" lon="2.40509">
        <ele>658.8</ele>
        <time>2025-09-16T15:07:43Z</time>
      </trkpt>
      <trkpt lat="43.63903" lon="2.40508">
        <ele>659</ele>
        <time>2025-09-16T15:07:44Z</time>
      </trkpt>
      <trkpt lat="43.63904" lon="2.40508">
        <ele>659.2</ele>
        <time>2025-09-16T15:07:45Z</time>
      </trkpt>
      <trkpt lat="43.63905" lon="2.40507">
        <ele>659.4</ele>
        <time>2025-09-16T15:07:46Z</time>
      </trkpt>
      <trkpt lat="43.63906" lon="2.40506">
        <ele>659.6</ele>
        <time>2025-09-16T15:07:47Z</time>
      </trkpt>
      <trkpt lat="43.63907" lon="2.40505">
        <ele>659.8</ele>
        <time>2025-09-16T15:07:48Z</time>
      </trkpt>
      <trkpt lat="43.63907" lon="2.40503">
        <ele>659.8</ele>
        <time>2025-09-16T15:07:49Z</time>
      </trkpt>
      <trkpt lat="43.63906" lon="2.40502">
        <ele>660</ele>
        <time>2025-09-16T15:07:50Z</time>
      </trkpt>
      <trkpt lat="43.63905" lon="2.405">
        <ele>660.2</ele>
        <time>2025-09-16T15:07:51Z</time>
      </trkpt>
      <trkpt lat="43.63904" lon="2.405">
        <ele>660.2</ele>
        <time>2025-09-16T15:07:52Z</time>
      </trkpt>
      <trkpt lat="43.63902" lon="2.40498">
        <ele>660.4</ele>
        <time>2025-09-16T15:07:53Z</time>
      </trkpt>
      <trkpt lat="43.63901" lon="2.40498">
        <ele>660.6</ele>
        <time>2025-09-16T15:07:54Z</time>
      </trkpt>
      <trkpt lat="43.639" lon="2.40496">
        <ele>660.6</ele>
        <time>2025-09-16T15:07:55Z</time>
      </trkpt>
      <trkpt lat="43.639" lon="2.40495">
        <ele>660.8</ele>
        <time>2025-09-16T15:07:56Z</time>
      </trkpt>
      <trkpt lat="43.63899" lon="2.40494">
        <ele>661</ele>
        <time>2025-09-16T15:07:57Z</time>
      </trkpt>
      <trkpt lat="43.63898" lon="2.40492">
        <ele>661.2</ele>
        <time>2025-09-16T15:07:58Z</time>
      </trkpt>
      <trkpt lat="43.63897" lon="2.40491">
        <ele>661.4</ele>
        <time>2025-09-16T15:07:59Z</time>
      </trkpt>
      <trkpt lat="43.63896" lon="2.4049">
        <ele>661.6</ele>
        <time>2025-09-16T15:08:00Z</time>
      </trkpt>
      <trkpt lat="43.63895" lon="2.40489">
        <ele>661.6</ele>
        <time>2025-09-16T15:08:01Z</time>
      </trkpt>
      <trkpt lat="43.63894" lon="2.40489">
        <ele>661.8</ele>
        <time>2025-09-16T15:08:02Z</time>
      </trkpt>
      <trkpt lat="43.63893" lon="2.40488">
        <ele>662</ele>
        <time>2025-09-16T15:08:03Z</time>
      </trkpt>
      <trkpt lat="43.63891" lon="2.40487">
        <ele>662</ele>
        <time>2025-09-16T15:08:04Z</time>
      </trkpt>
      <trkpt lat="43.6389" lon="2.40486">
        <ele>662.2</ele>
        <time>2025-09-16T15:08:05Z</time>
      </trkpt>
      <trkpt lat="43.63889" lon="2.40486">
        <ele>662.4</ele>
        <time>2025-09-16T15:08:06Z</time>
      </trkpt>
      <trkpt lat="43.63888" lon="2.40485">
        <ele>662.4</ele>
        <time>2025-09-16T15:08:07Z</time>
      </trkpt>
      <trkpt lat="43.63887" lon="2.40484">
        <ele>662.6</ele>
        <time>2025-09-16T15:08:08Z</time>
      </trkpt>
      <trkpt lat="43.63886" lon="2.40483">
        <ele>662.8</ele>
        <time>2025-09-16T15:08:09Z</time>
      </trkpt>
      <trkpt lat="43.63885" lon="2.40482">
        <ele>663</ele>
        <time>2025-09-16T15:08:10Z</time>
      </trkpt>
      <trkpt lat="43.63883" lon="2.40481">
        <ele>663.2</ele>
        <time>2025-09-16T15:08:11Z</time>
      </trkpt>
      <trkpt lat="43.63883" lon="2.4048">
        <ele>663.4</ele>
        <time>2025-09-16T15:08:12Z</time>
      </trkpt>
      <trkpt lat="43.63882" lon="2.4048">
        <ele>663.6</ele>
        <time>2025-09-16T15:08:13Z</time>
      </trkpt>
      <trkpt lat="43.63882" lon="2.40479">
        <ele>663.8</ele>
        <time>2025-09-16T15:08:14Z</time>
      </trkpt>
      <trkpt lat="43.63881" lon="2.40478">
        <ele>664</ele>
        <time>2025-09-16T15:08:15Z</time>
      </trkpt>
      <trkpt lat="43.63881" lon="2.40477">
        <ele>664.2</ele>
        <time>2025-09-16T15:08:16Z</time>
      </trkpt>
      <trkpt lat="43.6388" lon="2.40476">
        <ele>664.4</ele>
        <time>2025-09-16T15:08:17Z</time>
      </trkpt>
      <trkpt lat="43.63879" lon="2.40474">
        <ele>664.4</ele>
        <time>2025-09-16T15:08:18Z</time>
      </trkpt>
      <trkpt lat="43.63879" lon="2.40472">
        <ele>664.6</ele>
        <time>2025-09-16T15:08:19Z</time>
      </trkpt>
      <trkpt lat="43.63878" lon="2.40471">
        <ele>664.8</ele>
        <time>2025-09-16T15:08:20Z</time>
      </trkpt>
      <trkpt lat="43.63877" lon="2.40469">
        <ele>665</ele>
        <time>2025-09-16T15:08:21Z</time>
      </trkpt>
      <trkpt lat="43.63877" lon="2.40468">
        <ele>665</ele>
        <time>2025-09-16T15:08:22Z</time>
      </trkpt>
      <trkpt lat="43.63877" lon="2.40466">
        <ele>665.2</ele>
        <time>2025-09-16T15:08:23Z</time>
      </trkpt>
      <trkpt lat="43.63877" lon="2.40465">
        <ele>665.2</ele>
        <time>2025-09-16T15:08:24Z</time>
      </trkpt>
      <trkpt lat="43.63877" lon="2.40463">
        <ele>665.4</ele>
        <time>2025-09-16T15:08:25Z</time>
      </trkpt>
      <trkpt lat="43.63876" lon="2.40461">
        <ele>665.6</ele>
        <time>2025-09-16T15:08:26Z</time>
      </trkpt>
      <trkpt lat="43.63876" lon="2.40459">
        <ele>665.6</ele>
        <time>2025-09-16T15:08:27Z</time>
      </trkpt>
      <trkpt lat="43.63876" lon="2.40456">
        <ele>665.6</ele>
        <time>2025-09-16T15:08:28Z</time>
      </trkpt>
      <trkpt lat="43.63876" lon="2.40453">
        <ele>665.8</ele>
        <time>2025-09-16T15:08:29Z</time>
      </trkpt>
      <trkpt lat="43.63876" lon="2.40451">
        <ele>665.8</ele>
        <time>2025-09-16T15:08:30Z</time>
      </trkpt>
      <trkpt lat="43.63877" lon="2.4045">
        <ele>665.8</ele>
        <time>2025-09-16T15:08:31Z</time>
      </trkpt>
      <trkpt lat="43.63876" lon="2.40447">
        <ele>666</ele>
        <time>2025-09-16T15:08:32Z</time>
      </trkpt>
      <trkpt lat="43.63876" lon="2.40444">
        <ele>666</ele>
        <time>2025-09-16T15:08:33Z</time>
      </trkpt>
      <trkpt lat="43.63875" lon="2.40442">
        <ele>666.2</ele>
        <time>2025-09-16T15:08:34Z</time>
      </trkpt>
      <trkpt lat="43.63875" lon="2.40439">
        <ele>666.2</ele>
        <time>2025-09-16T15:08:35Z</time>
      </trkpt>
      <trkpt lat="43.63874" lon="2.40436">
        <ele>666.2</ele>
        <time>2025-09-16T15:08:36Z</time>
      </trkpt>
      <trkpt lat="43.63874" lon="2.40434">
        <ele>666.4</ele>
        <time>2025-09-16T15:08:37Z</time>
      </trkpt>
      <trkpt lat="43.63874" lon="2.40432">
        <ele>666.4</ele>
        <time>2025-09-16T15:08:38Z</time>
      </trkpt>
      <trkpt lat="43.63874" lon="2.4043">
        <ele>666.6</ele>
        <time>2025-09-16T15:08:39Z</time>
      </trkpt>
      <trkpt lat="43.63874" lon="2.40427">
        <ele>666.6</ele>
        <time>2025-09-16T15:08:40Z</time>
      </trkpt>
      <trkpt lat="43.63874" lon="2.40424">
        <ele>666.8</ele>
        <time>2025-09-16T15:08:41Z</time>
      </trkpt>
      <trkpt lat="43.63874" lon="2.40422">
        <ele>666.8</ele>
        <time>2025-09-16T15:08:42Z</time>
      </trkpt>
      <trkpt lat="43.63874" lon="2.4042">
        <ele>666.8</ele>
        <time>2025-09-16T15:08:43Z</time>
      </trkpt>
      <trkpt lat="43.63875" lon="2.40416">
        <ele>666.8</ele>
        <time>2025-09-16T15:08:44Z</time>
      </trkpt>
      <trkpt lat="43.63875" lon="2.40414">
        <ele>667</ele>
        <time>2025-09-16T15:08:45Z</time>
      </trkpt>
      <trkpt lat="43.63875" lon="2.40412">
        <ele>667</ele>
        <time>2025-09-16T15:08:46Z</time>
      </trkpt>
      <trkpt lat="43.63876" lon="2.4041">
        <ele>667</ele>
        <time>2025-09-16T15:08:47Z</time>
      </trkpt>
      <trkpt lat="43.63876" lon="2.40408">
        <ele>667</ele>
        <time>2025-09-16T15:08:48Z</time>
      </trkpt>
      <trkpt lat="43.63876" lon="2.40406">
        <ele>667.2</ele>
        <time>2025-09-16T15:08:49Z</time>
      </trkpt>
      <trkpt lat="43.63877" lon="2.40404">
        <ele>667.2</ele>
        <time>2025-09-16T15:08:50Z</time>
      </trkpt>
      <trkpt lat="43.63876" lon="2.40402">
        <ele>667.2</ele>
        <time>2025-09-16T15:08:51Z</time>
      </trkpt>
      <trkpt lat="43.63876" lon="2.404">
        <ele>667.4</ele>
        <time>2025-09-16T15:08:52Z</time>
      </trkpt>
      <trkpt lat="43.63876" lon="2.40397">
        <ele>667.4</ele>
        <time>2025-09-16T15:08:53Z</time>
      </trkpt>
      <trkpt lat="43.63876" lon="2.40395">
        <ele>667.6</ele>
        <time>2025-09-16T15:08:54Z</time>
      </trkpt>
      <trkpt lat="43.63875" lon="2.40393">
        <ele>667.6</ele>
        <time>2025-09-16T15:08:55Z</time>
      </trkpt>
      <trkpt lat="43.63875" lon="2.4039">
        <ele>667.6</ele>
        <time>2025-09-16T15:08:56Z</time>
      </trkpt>
      <trkpt lat="43.63876" lon="2.40387">
        <ele>667.6</ele>
        <time>2025-09-16T15:08:57Z</time>
      </trkpt>
      <trkpt lat="43.63876" lon="2.40384">
        <ele>667.6</ele>
        <time>2025-09-16T15:08:58Z</time>
      </trkpt>
      <trkpt lat="43.63876" lon="2.40383">
        <ele>667.6</ele>
        <time>2025-09-16T15:08:59Z</time>
      </trkpt>
      <trkpt lat="43.63877" lon="2.4038">
        <ele>667.6</ele>
        <time>2025-09-16T15:09:00Z</time>
      </trkpt>
      <trkpt lat="43.63878" lon="2.40378">
        <ele>667.8</ele>
        <time>2025-09-16T15:09:01Z</time>
      </trkpt>
      <trkpt lat="43.63877" lon="2.40376">
        <ele>667.8</ele>
        <time>2025-09-16T15:09:02Z</time>
      </trkpt>
      <trkpt lat="43.63877" lon="2.40373">
        <ele>667.8</ele>
        <time>2025-09-16T15:09:03Z</time>
      </trkpt>
      <trkpt lat="43.63877" lon="2.4037">
        <ele>667.8</ele>
        <time>2025-09-16T15:09:04Z</time>
      </trkpt>
      <trkpt lat="43.63878" lon="2.40368">
        <ele>668</ele>
        <time>2025-09-16T15:09:05Z</time>
      </trkpt>
      <trkpt lat="43.63878" lon="2.40364">
        <ele>668</ele>
        <time>2025-09-16T15:09:06Z</time>
      </trkpt>
      <trkpt lat="43.6388" lon="2.40362">
        <ele>668.2</ele>
        <time>2025-09-16T15:09:07Z</time>
      </trkpt>
      <trkpt lat="43.6388" lon="2.40359">
        <ele>668.2</ele>
        <time>2025-09-16T15:09:08Z</time>
      </trkpt>
      <trkpt lat="43.6388" lon="2.40356">
        <ele>668.4</ele>
        <time>2025-09-16T15:09:09Z</time>
      </trkpt>
      <trkpt lat="43.6388" lon="2.40354">
        <ele>668.6</ele>
        <time>2025-09-16T15:09:10Z</time>
      </trkpt>
      <trkpt lat="43.63881" lon="2.40352">
        <ele>668.6</ele>
        <time>2025-09-16T15:09:11Z</time>
      </trkpt>
      <trkpt lat="43.63881" lon="2.40348">
        <ele>668.8</ele>
        <time>2025-09-16T15:09:12Z</time>
      </trkpt>
      <trkpt lat="43.63882" lon="2.40347">
        <ele>668.8</ele>
        <time>2025-09-16T15:09:13Z</time>
      </trkpt>
      <trkpt lat="43.63882" lon="2.40344">
        <ele>668.8</ele>
        <time>2025-09-16T15:09:14Z</time>
      </trkpt>
      <trkpt lat="43.63882" lon="2.40341">
        <ele>668.8</ele>
        <time>2025-09-16T15:09:15Z</time>
      </trkpt>
      <trkpt lat="43.63883" lon="2.40337">
        <ele>668.6</ele>
        <time>2025-09-16T15:09:16Z</time>
      </trkpt>
      <trkpt lat="43.63884" lon="2.40334">
        <ele>668.6</ele>
        <time>2025-09-16T15:09:17Z</time>
      </trkpt>
      <trkpt lat="43.63884" lon="2.40329">
        <ele>668.6</ele>
        <time>2025-09-16T15:09:18Z</time>
      </trkpt>
      <trkpt lat="43.63885" lon="2.40326">
        <ele>668.4</ele>
        <time>2025-09-16T15:09:19Z</time>
      </trkpt>
      <trkpt lat="43.63886" lon="2.40322">
        <ele>668.4</ele>
        <time>2025-09-16T15:09:20Z</time>
      </trkpt>
      <trkpt lat="43.63886" lon="2.40319">
        <ele>668.6</ele>
        <time>2025-09-16T15:09:21Z</time>
      </trkpt>
      <trkpt lat="43.63886" lon="2.40315">
        <ele>668.6</ele>
        <time>2025-09-16T15:09:22Z</time>
      </trkpt>
      <trkpt lat="43.63886" lon="2.40311">
        <ele>668.6</ele>
        <time>2025-09-16T15:09:23Z</time>
      </trkpt>
      <trkpt lat="43.63887" lon="2.40307">
        <ele>668.6</ele>
        <time>2025-09-16T15:09:24Z</time>
      </trkpt>
      <trkpt lat="43.63888" lon="2.40303">
        <ele>668.6</ele>
        <time>2025-09-16T15:09:25Z</time>
      </trkpt>
      <trkpt lat="43.63889" lon="2.40299">
        <ele>668.6</ele>
        <time>2025-09-16T15:09:26Z</time>
      </trkpt>
      <trkpt lat="43.63889" lon="2.40295">
        <ele>668.6</ele>
        <time>2025-09-16T15:09:27Z</time>
      </trkpt>
      <trkpt lat="43.6389" lon="2.4029">
        <ele>668.8</ele>
        <time>2025-09-16T15:09:28Z</time>
      </trkpt>
      <trkpt lat="43.63891" lon="2.40286">
        <ele>668.8</ele>
        <time>2025-09-16T15:09:29Z</time>
      </trkpt>
      <trkpt lat="43.63892" lon="2.40282">
        <ele>668.8</ele>
        <time>2025-09-16T15:09:30Z</time>
      </trkpt>
      <trkpt lat="43.63892" lon="2.40278">
        <ele>669</ele>
        <time>2025-09-16T15:09:31Z</time>
      </trkpt>
      <trkpt lat="43.63894" lon="2.40274">
        <ele>669</ele>
        <time>2025-09-16T15:09:32Z</time>
      </trkpt>
      <trkpt lat="43.63894" lon="2.40271">
        <ele>669</ele>
        <time>2025-09-16T15:09:33Z</time>
      </trkpt>
      <trkpt lat="43.63895" lon="2.40266">
        <ele>669.2</ele>
        <time>2025-09-16T15:09:34Z</time>
      </trkpt>
      <trkpt lat="43.63897" lon="2.40261">
        <ele>669.2</ele>
        <time>2025-09-16T15:09:35Z</time>
      </trkpt>
      <trkpt lat="43.63898" lon="2.40257">
        <ele>669</ele>
        <time>2025-09-16T15:09:36Z</time>
      </trkpt>
      <trkpt lat="43.63898" lon="2.4025">
        <ele>669</ele>
        <time>2025-09-16T15:09:37Z</time>
      </trkpt>
      <trkpt lat="43.639" lon="2.40246">
        <ele>669</ele>
        <time>2025-09-16T15:09:38Z</time>
      </trkpt>
      <trkpt lat="43.63901" lon="2.40243">
        <ele>669</ele>
        <time>2025-09-16T15:09:39Z</time>
      </trkpt>
      <trkpt lat="43.63902" lon="2.40238">
        <ele>668.8</ele>
        <time>2025-09-16T15:09:40Z</time>
      </trkpt>
      <trkpt lat="43.63904" lon="2.40232">
        <ele>668.6</ele>
        <time>2025-09-16T15:09:41Z</time>
      </trkpt>
      <trkpt lat="43.63906" lon="2.40228">
        <ele>668.2</ele>
        <time>2025-09-16T15:09:42Z</time>
      </trkpt>
      <trkpt lat="43.63908" lon="2.40222">
        <ele>667.6</ele>
        <time>2025-09-16T15:09:43Z</time>
      </trkpt>
      <trkpt lat="43.63911" lon="2.40216">
        <ele>667</ele>
        <time>2025-09-16T15:09:44Z</time>
      </trkpt>
      <trkpt lat="43.63913" lon="2.40209">
        <ele>666.4</ele>
        <time>2025-09-16T15:09:45Z</time>
      </trkpt>
      <trkpt lat="43.63915" lon="2.40199">
        <ele>665.4</ele>
        <time>2025-09-16T15:09:46Z</time>
      </trkpt>
      <trkpt lat="43.63917" lon="2.40188">
        <ele>664.6</ele>
        <time>2025-09-16T15:09:47Z</time>
      </trkpt>
      <trkpt lat="43.6392" lon="2.40179">
        <ele>663.8</ele>
        <time>2025-09-16T15:09:48Z</time>
      </trkpt>
      <trkpt lat="43.63923" lon="2.40167">
        <ele>663.2</ele>
        <time>2025-09-16T15:09:49Z</time>
      </trkpt>
      <trkpt lat="43.63924" lon="2.40161">
        <ele>662.8</ele>
        <time>2025-09-16T15:09:50Z</time>
      </trkpt>
      <trkpt lat="43.63926" lon="2.40152">
        <ele>662.2</ele>
        <time>2025-09-16T15:09:51Z</time>
      </trkpt>
      <trkpt lat="43.63928" lon="2.40144">
        <ele>662</ele>
        <time>2025-09-16T15:09:52Z</time>
      </trkpt>
      <trkpt lat="43.63931" lon="2.40137">
        <ele>661.8</ele>
        <time>2025-09-16T15:09:53Z</time>
      </trkpt>
      <trkpt lat="43.63933" lon="2.40134">
        <ele>661.8</ele>
        <time>2025-09-16T15:09:54Z</time>
      </trkpt>
      <trkpt lat="43.63937" lon="2.4013">
        <ele>661.8</ele>
        <time>2025-09-16T15:09:55Z</time>
      </trkpt>
      <trkpt lat="43.63939" lon="2.40128">
        <ele>662.2</ele>
        <time>2025-09-16T15:09:56Z</time>
      </trkpt>
      <trkpt lat="43.63941" lon="2.40125">
        <ele>662.6</ele>
        <time>2025-09-16T15:09:57Z</time>
      </trkpt>
      <trkpt lat="43.63944" lon="2.40121">
        <ele>662.8</ele>
        <time>2025-09-16T15:09:58Z</time>
      </trkpt>
      <trkpt lat="43.63946" lon="2.40119">
        <ele>663</ele>
        <time>2025-09-16T15:09:59Z</time>
      </trkpt>
      <trkpt lat="43.63948" lon="2.40116">
        <ele>663</ele>
        <time>2025-09-16T15:10:00Z</time>
      </trkpt>
      <trkpt lat="43.6395" lon="2.40112">
        <ele>663.2</ele>
        <time>2025-09-16T15:10:01Z</time>
      </trkpt>
      <trkpt lat="43.63952" lon="2.40109">
        <ele>663.2</ele>
        <time>2025-09-16T15:10:02Z</time>
      </trkpt>
      <trkpt lat="43.63954" lon="2.40106">
        <ele>663.4</ele>
        <time>2025-09-16T15:10:03Z</time>
      </trkpt>
      <trkpt lat="43.63956" lon="2.40102">
        <ele>663.4</ele>
        <time>2025-09-16T15:10:04Z</time>
      </trkpt>
      <trkpt lat="43.63958" lon="2.401">
        <ele>663.6</ele>
        <time>2025-09-16T15:10:05Z</time>
      </trkpt>
      <trkpt lat="43.6396" lon="2.40097">
        <ele>663.6</ele>
        <time>2025-09-16T15:10:06Z</time>
      </trkpt>
      <trkpt lat="43.63963" lon="2.40092">
        <ele>663.6</ele>
        <time>2025-09-16T15:10:07Z</time>
      </trkpt>
      <trkpt lat="43.63965" lon="2.40089">
        <ele>663.8</ele>
        <time>2025-09-16T15:10:08Z</time>
      </trkpt>
      <trkpt lat="43.63967" lon="2.40085">
        <ele>664</ele>
        <time>2025-09-16T15:10:09Z</time>
      </trkpt>
      <trkpt lat="43.63969" lon="2.40081">
        <ele>664.2</ele>
        <time>2025-09-16T15:10:10Z</time>
      </trkpt>
      <trkpt lat="43.63972" lon="2.40078">
        <ele>664.4</ele>
        <time>2025-09-16T15:10:11Z</time>
      </trkpt>
      <trkpt lat="43.63975" lon="2.40074">
        <ele>664.6</ele>
        <time>2025-09-16T15:10:12Z</time>
      </trkpt>
      <trkpt lat="43.63977" lon="2.40072">
        <ele>664.6</ele>
        <time>2025-09-16T15:10:13Z</time>
      </trkpt>
      <trkpt lat="43.63979" lon="2.40069">
        <ele>665</ele>
        <time>2025-09-16T15:10:14Z</time>
      </trkpt>
      <trkpt lat="43.63981" lon="2.40066">
        <ele>665.2</ele>
        <time>2025-09-16T15:10:15Z</time>
      </trkpt>
      <trkpt lat="43.63983" lon="2.40063">
        <ele>665.2</ele>
        <time>2025-09-16T15:10:16Z</time>
      </trkpt>
      <trkpt lat="43.63985" lon="2.4006">
        <ele>665.4</ele>
        <time>2025-09-16T15:10:17Z</time>
      </trkpt>
      <trkpt lat="43.63987" lon="2.40057">
        <ele>665.6</ele>
        <time>2025-09-16T15:10:18Z</time>
      </trkpt>
      <trkpt lat="43.6399" lon="2.40053">
        <ele>665.8</ele>
        <time>2025-09-16T15:10:19Z</time>
      </trkpt>
      <trkpt lat="43.63993" lon="2.40049">
        <ele>665.8</ele>
        <time>2025-09-16T15:10:20Z</time>
      </trkpt>
      <trkpt lat="43.63995" lon="2.40046">
        <ele>665.8</ele>
        <time>2025-09-16T15:10:21Z</time>
      </trkpt>
      <trkpt lat="43.63998" lon="2.40042">
        <ele>665.8</ele>
        <time>2025-09-16T15:10:22Z</time>
      </trkpt>
      <trkpt lat="43.64" lon="2.40039">
        <ele>665.6</ele>
        <time>2025-09-16T15:10:23Z</time>
      </trkpt>
      <trkpt lat="43.64004" lon="2.40036">
        <ele>665.6</ele>
        <time>2025-09-16T15:10:24Z</time>
      </trkpt>
      <trkpt lat="43.64007" lon="2.40033">
        <ele>665.6</ele>
        <time>2025-09-16T15:10:25Z</time>
      </trkpt>
      <trkpt lat="43.64011" lon="2.40031">
        <ele>665.4</ele>
        <time>2025-09-16T15:10:26Z</time>
      </trkpt>
      <trkpt lat="43.64014" lon="2.4003">
        <ele>665.2</ele>
        <time>2025-09-16T15:10:27Z</time>
      </trkpt>
      <trkpt lat="43.64018" lon="2.40029">
        <ele>665.2</ele>
        <time>2025-09-16T15:10:28Z</time>
      </trkpt>
      <trkpt lat="43.64022" lon="2.40027">
        <ele>665</ele>
        <time>2025-09-16T15:10:29Z</time>
      </trkpt>
      <trkpt lat="43.64026" lon="2.40026">
        <ele>664.8</ele>
        <time>2025-09-16T15:10:30Z</time>
      </trkpt>
      <trkpt lat="43.6403" lon="2.40024">
        <ele>664.6</ele>
        <time>2025-09-16T15:10:31Z</time>
      </trkpt>
      <trkpt lat="43.64035" lon="2.40023">
        <ele>664.2</ele>
        <time>2025-09-16T15:10:32Z</time>
      </trkpt>
      <trkpt lat="43.6404" lon="2.40022">
        <ele>664</ele>
        <time>2025-09-16T15:10:33Z</time>
      </trkpt>
      <trkpt lat="43.64044" lon="2.40021">
        <ele>663.8</ele>
        <time>2025-09-16T15:10:34Z</time>
      </trkpt>
      <trkpt lat="43.64049" lon="2.40021">
        <ele>663.6</ele>
        <time>2025-09-16T15:10:35Z</time>
      </trkpt>
      <trkpt lat="43.64054" lon="2.40021">
        <ele>663.4</ele>
        <time>2025-09-16T15:10:36Z</time>
      </trkpt>
      <trkpt lat="43.64059" lon="2.40021">
        <ele>663.2</ele>
        <time>2025-09-16T15:10:37Z</time>
      </trkpt>
      <trkpt lat="43.64065" lon="2.40021">
        <ele>663</ele>
        <time>2025-09-16T15:10:38Z</time>
      </trkpt>
      <trkpt lat="43.64072" lon="2.4002">
        <ele>662.4</ele>
        <time>2025-09-16T15:10:39Z</time>
      </trkpt>
      <trkpt lat="43.64078" lon="2.40019">
        <ele>662</ele>
        <time>2025-09-16T15:10:40Z</time>
      </trkpt>
      <trkpt lat="43.64083" lon="2.40015">
        <ele>661.4</ele>
        <time>2025-09-16T15:10:41Z</time>
      </trkpt>
      <trkpt lat="43.64088" lon="2.40008">
        <ele>660.6</ele>
        <time>2025-09-16T15:10:42Z</time>
      </trkpt>
      <trkpt lat="43.64093" lon="2.40001">
        <ele>659.8</ele>
        <time>2025-09-16T15:10:43Z</time>
      </trkpt>
      <trkpt lat="43.64098" lon="2.39993">
        <ele>659</ele>
        <time>2025-09-16T15:10:44Z</time>
      </trkpt>
      <trkpt lat="43.64102" lon="2.39985">
        <ele>658.4</ele>
        <time>2025-09-16T15:10:45Z</time>
      </trkpt>
      <trkpt lat="43.64106" lon="2.39977">
        <ele>657.8</ele>
        <time>2025-09-16T15:10:46Z</time>
      </trkpt>
      <trkpt lat="43.6411" lon="2.39971">
        <ele>658</ele>
        <time>2025-09-16T15:10:47Z</time>
      </trkpt>
      <trkpt lat="43.64113" lon="2.39966">
        <ele>658.4</ele>
        <time>2025-09-16T15:10:48Z</time>
      </trkpt>
      <trkpt lat="43.64116" lon="2.39961">
        <ele>658.8</ele>
        <time>2025-09-16T15:10:49Z</time>
      </trkpt>
      <trkpt lat="43.64117" lon="2.39958">
        <ele>659.4</ele>
        <time>2025-09-16T15:10:50Z</time>
      </trkpt>
      <trkpt lat="43.64119" lon="2.39955">
        <ele>660.2</ele>
        <time>2025-09-16T15:10:51Z</time>
      </trkpt>
      <trkpt lat="43.64121" lon="2.39952">
        <ele>660.6</ele>
        <time>2025-09-16T15:10:52Z</time>
      </trkpt>
      <trkpt lat="43.64123" lon="2.39949">
        <ele>661</ele>
        <time>2025-09-16T15:10:53Z</time>
      </trkpt>
      <trkpt lat="43.64124" lon="2.39947">
        <ele>661.2</ele>
        <time>2025-09-16T15:10:54Z</time>
      </trkpt>
      <trkpt lat="43.64126" lon="2.39944">
        <ele>661.4</ele>
        <time>2025-09-16T15:10:55Z</time>
      </trkpt>
      <trkpt lat="43.64128" lon="2.39942">
        <ele>661.6</ele>
        <time>2025-09-16T15:10:56Z</time>
      </trkpt>
      <trkpt lat="43.6413" lon="2.39939">
        <ele>661.8</ele>
        <time>2025-09-16T15:10:57Z</time>
      </trkpt>
      <trkpt lat="43.64132" lon="2.39936">
        <ele>662</ele>
        <time>2025-09-16T15:10:58Z</time>
      </trkpt>
      <trkpt lat="43.64133" lon="2.39934">
        <ele>662.2</ele>
        <time>2025-09-16T15:10:59Z</time>
      </trkpt>
      <trkpt lat="43.64135" lon="2.39932">
        <ele>662.4</ele>
        <time>2025-09-16T15:11:00Z</time>
      </trkpt>
      <trkpt lat="43.64136" lon="2.3993">
        <ele>662.6</ele>
        <time>2025-09-16T15:11:01Z</time>
      </trkpt>
      <trkpt lat="43.64138" lon="2.39928">
        <ele>662.8</ele>
        <time>2025-09-16T15:11:02Z</time>
      </trkpt>
      <trkpt lat="43.64139" lon="2.39926">
        <ele>662.8</ele>
        <time>2025-09-16T15:11:03Z</time>
      </trkpt>
      <trkpt lat="43.64142" lon="2.39923">
        <ele>663</ele>
        <time>2025-09-16T15:11:04Z</time>
      </trkpt>
      <trkpt lat="43.64143" lon="2.3992">
        <ele>663</ele>
        <time>2025-09-16T15:11:05Z</time>
      </trkpt>
      <trkpt lat="43.64145" lon="2.39918">
        <ele>663</ele>
        <time>2025-09-16T15:11:06Z</time>
      </trkpt>
      <trkpt lat="43.64147" lon="2.39914">
        <ele>663</ele>
        <time>2025-09-16T15:11:07Z</time>
      </trkpt>
      <trkpt lat="43.64147" lon="2.39912">
        <ele>662.8</ele>
        <time>2025-09-16T15:11:08Z</time>
      </trkpt>
      <trkpt lat="43.64149" lon="2.3991">
        <ele>662.8</ele>
        <time>2025-09-16T15:11:09Z</time>
      </trkpt>
      <trkpt lat="43.6415" lon="2.39907">
        <ele>662.8</ele>
        <time>2025-09-16T15:11:10Z</time>
      </trkpt>
      <trkpt lat="43.64152" lon="2.39905">
        <ele>662.6</ele>
        <time>2025-09-16T15:11:11Z</time>
      </trkpt>
      <trkpt lat="43.64154" lon="2.39902">
        <ele>662.4</ele>
        <time>2025-09-16T15:11:12Z</time>
      </trkpt>
      <trkpt lat="43.64156" lon="2.39897">
        <ele>662.2</ele>
        <time>2025-09-16T15:11:13Z</time>
      </trkpt>
      <trkpt lat="43.64159" lon="2.39892">
        <ele>661.8</ele>
        <time>2025-09-16T15:11:14Z</time>
      </trkpt>
      <trkpt lat="43.64161" lon="2.39886">
        <ele>661.6</ele>
        <time>2025-09-16T15:11:15Z</time>
      </trkpt>
      <trkpt lat="43.64164" lon="2.3988">
        <ele>661.2</ele>
        <time>2025-09-16T15:11:16Z</time>
      </trkpt>
      <trkpt lat="43.64167" lon="2.39875">
        <ele>660.8</ele>
        <time>2025-09-16T15:11:17Z</time>
      </trkpt>
      <trkpt lat="43.64169" lon="2.39869">
        <ele>660.6</ele>
        <time>2025-09-16T15:11:18Z</time>
      </trkpt>
      <trkpt lat="43.64171" lon="2.39864">
        <ele>660.2</ele>
        <time>2025-09-16T15:11:19Z</time>
      </trkpt>
      <trkpt lat="43.64173" lon="2.39859">
        <ele>660</ele>
        <time>2025-09-16T15:11:20Z</time>
      </trkpt>
      <trkpt lat="43.64174" lon="2.39854">
        <ele>659.8</ele>
        <time>2025-09-16T15:11:21Z</time>
      </trkpt>
      <trkpt lat="43.64174" lon="2.39847">
        <ele>659.6</ele>
        <time>2025-09-16T15:11:22Z</time>
      </trkpt>
      <trkpt lat="43.64174" lon="2.39843">
        <ele>659.4</ele>
        <time>2025-09-16T15:11:23Z</time>
      </trkpt>
      <trkpt lat="43.64175" lon="2.39838">
        <ele>659</ele>
        <time>2025-09-16T15:11:24Z</time>
      </trkpt>
      <trkpt lat="43.64177" lon="2.39832">
        <ele>658.8</ele>
        <time>2025-09-16T15:11:25Z</time>
      </trkpt>
      <trkpt lat="43.64178" lon="2.39827">
        <ele>658.4</ele>
        <time>2025-09-16T15:11:26Z</time>
      </trkpt>
      <trkpt lat="43.64177" lon="2.39821">
        <ele>658.2</ele>
        <time>2025-09-16T15:11:27Z</time>
      </trkpt>
      <trkpt lat="43.64178" lon="2.39815">
        <ele>658</ele>
        <time>2025-09-16T15:11:28Z</time>
      </trkpt>
      <trkpt lat="43.64177" lon="2.39809">
        <ele>657.8</ele>
        <time>2025-09-16T15:11:29Z</time>
      </trkpt>
      <trkpt lat="43.64175" lon="2.39802">
        <ele>657.6</ele>
        <time>2025-09-16T15:11:30Z</time>
      </trkpt>
      <trkpt lat="43.64174" lon="2.39794">
        <ele>657.6</ele>
        <time>2025-09-16T15:11:31Z</time>
      </trkpt>
      <trkpt lat="43.64175" lon="2.39789">
        <ele>657.4</ele>
        <time>2025-09-16T15:11:32Z</time>
      </trkpt>
      <trkpt lat="43.64173" lon="2.39784">
        <ele>657.4</ele>
        <time>2025-09-16T15:11:33Z</time>
      </trkpt>
      <trkpt lat="43.64173" lon="2.39781">
        <ele>657.4</ele>
        <time>2025-09-16T15:11:34Z</time>
      </trkpt>
      <trkpt lat="43.64174" lon="2.39775">
        <ele>657.2</ele>
        <time>2025-09-16T15:11:35Z</time>
      </trkpt>
      <trkpt lat="43.64176" lon="2.39769">
        <ele>657.2</ele>
        <time>2025-09-16T15:11:36Z</time>
      </trkpt>
      <trkpt lat="43.64179" lon="2.39764">
        <ele>657</ele>
        <time>2025-09-16T15:11:37Z</time>
      </trkpt>
      <trkpt lat="43.64181" lon="2.3976">
        <ele>657</ele>
        <time>2025-09-16T15:11:38Z</time>
      </trkpt>
      <trkpt lat="43.64184" lon="2.39754">
        <ele>657</ele>
        <time>2025-09-16T15:11:39Z</time>
      </trkpt>
      <trkpt lat="43.64185" lon="2.39748">
        <ele>656.8</ele>
        <time>2025-09-16T15:11:40Z</time>
      </trkpt>
      <trkpt lat="43.64185" lon="2.39744">
        <ele>656.8</ele>
        <time>2025-09-16T15:11:41Z</time>
      </trkpt>
      <trkpt lat="43.64186" lon="2.3974">
        <ele>656.8</ele>
        <time>2025-09-16T15:11:42Z</time>
      </trkpt>
      <trkpt lat="43.64187" lon="2.39735">
        <ele>656.8</ele>
        <time>2025-09-16T15:11:43Z</time>
      </trkpt>
      <trkpt lat="43.64189" lon="2.3973">
        <ele>656.6</ele>
        <time>2025-09-16T15:11:44Z</time>
      </trkpt>
      <trkpt lat="43.64189" lon="2.39724">
        <ele>656.6</ele>
        <time>2025-09-16T15:11:45Z</time>
      </trkpt>
      <trkpt lat="43.6419" lon="2.39718">
        <ele>656.4</ele>
        <time>2025-09-16T15:11:46Z</time>
      </trkpt>
      <trkpt lat="43.64189" lon="2.39711">
        <ele>656.2</ele>
        <time>2025-09-16T15:11:47Z</time>
      </trkpt>
      <trkpt lat="43.6419" lon="2.39704">
        <ele>656.2</ele>
        <time>2025-09-16T15:11:48Z</time>
      </trkpt>
      <trkpt lat="43.64192" lon="2.39697">
        <ele>656.2</ele>
        <time>2025-09-16T15:11:49Z</time>
      </trkpt>
      <trkpt lat="43.64195" lon="2.3969">
        <ele>656</ele>
        <time>2025-09-16T15:11:50Z</time>
      </trkpt>
      <trkpt lat="43.64194" lon="2.39684">
        <ele>656</ele>
        <time>2025-09-16T15:11:51Z</time>
      </trkpt>
      <trkpt lat="43.64194" lon="2.3968">
        <ele>656</ele>
        <time>2025-09-16T15:11:52Z</time>
      </trkpt>
      <trkpt lat="43.64194" lon="2.39675">
        <ele>656</ele>
        <time>2025-09-16T15:11:53Z</time>
      </trkpt>
      <trkpt lat="43.64194" lon="2.39671">
        <ele>656</ele>
        <time>2025-09-16T15:11:54Z</time>
      </trkpt>
      <trkpt lat="43.64193" lon="2.39667">
        <ele>656</ele>
        <time>2025-09-16T15:11:55Z</time>
      </trkpt>
      <trkpt lat="43.64193" lon="2.39661">
        <ele>656</ele>
        <time>2025-09-16T15:11:56Z</time>
      </trkpt>
      <trkpt lat="43.64193" lon="2.39656">
        <ele>656</ele>
        <time>2025-09-16T15:11:57Z</time>
      </trkpt>
      <trkpt lat="43.64192" lon="2.39649">
        <ele>656</ele>
        <time>2025-09-16T15:11:58Z</time>
      </trkpt>
      <trkpt lat="43.64193" lon="2.39644">
        <ele>656</ele>
        <time>2025-09-16T15:11:59Z</time>
      </trkpt>
      <trkpt lat="43.64194" lon="2.39638">
        <ele>655.8</ele>
        <time>2025-09-16T15:12:00Z</time>
      </trkpt>
      <trkpt lat="43.64195" lon="2.39633">
        <ele>656</ele>
        <time>2025-09-16T15:12:01Z</time>
      </trkpt>
      <trkpt lat="43.64197" lon="2.39629">
        <ele>656</ele>
        <time>2025-09-16T15:12:02Z</time>
      </trkpt>
      <trkpt lat="43.64198" lon="2.39626">
        <ele>656.2</ele>
        <time>2025-09-16T15:12:03Z</time>
      </trkpt>
      <trkpt lat="43.642" lon="2.39623">
        <ele>656.4</ele>
        <time>2025-09-16T15:12:04Z</time>
      </trkpt>
      <trkpt lat="43.64202" lon="2.39622">
        <ele>656.6</ele>
        <time>2025-09-16T15:12:05Z</time>
      </trkpt>
      <trkpt lat="43.64203" lon="2.3962">
        <ele>656.8</ele>
        <time>2025-09-16T15:12:06Z</time>
      </trkpt>
      <trkpt lat="43.64204" lon="2.39618">
        <ele>656.8</ele>
        <time>2025-09-16T15:12:07Z</time>
      </trkpt>
      <trkpt lat="43.64206" lon="2.39614">
        <ele>657</ele>
        <time>2025-09-16T15:12:08Z</time>
      </trkpt>
      <trkpt lat="43.64208" lon="2.3961">
        <ele>657</ele>
        <time>2025-09-16T15:12:09Z</time>
      </trkpt>
      <trkpt lat="43.64209" lon="2.39606">
        <ele>657</ele>
        <time>2025-09-16T15:12:10Z</time>
      </trkpt>
      <trkpt lat="43.64211" lon="2.39602">
        <ele>657.2</ele>
        <time>2025-09-16T15:12:11Z</time>
      </trkpt>
      <trkpt lat="43.64213" lon="2.39598">
        <ele>657.4</ele>
        <time>2025-09-16T15:12:12Z</time>
      </trkpt>
      <trkpt lat="43.64216" lon="2.39594">
        <ele>657.6</ele>
        <time>2025-09-16T15:12:13Z</time>
      </trkpt>
      <trkpt lat="43.64218" lon="2.39592">
        <ele>657.8</ele>
        <time>2025-09-16T15:12:14Z</time>
      </trkpt>
      <trkpt lat="43.6422" lon="2.39589">
        <ele>658.2</ele>
        <time>2025-09-16T15:12:15Z</time>
      </trkpt>
      <trkpt lat="43.64222" lon="2.39586">
        <ele>658.4</ele>
        <time>2025-09-16T15:12:16Z</time>
      </trkpt>
      <trkpt lat="43.64225" lon="2.39581">
        <ele>658.4</ele>
        <time>2025-09-16T15:12:17Z</time>
      </trkpt>
      <trkpt lat="43.64227" lon="2.39577">
        <ele>658.4</ele>
        <time>2025-09-16T15:12:18Z</time>
      </trkpt>
      <trkpt lat="43.64229" lon="2.39572">
        <ele>658.4</ele>
        <time>2025-09-16T15:12:19Z</time>
      </trkpt>
      <trkpt lat="43.6423" lon="2.39569">
        <ele>658.4</ele>
        <time>2025-09-16T15:12:20Z</time>
      </trkpt>
      <trkpt lat="43.64231" lon="2.39566">
        <ele>658.4</ele>
        <time>2025-09-16T15:12:21Z</time>
      </trkpt>
      <trkpt lat="43.64232" lon="2.39561">
        <ele>658.4</ele>
        <time>2025-09-16T15:12:22Z</time>
      </trkpt>
      <trkpt lat="43.64233" lon="2.39555">
        <ele>658.4</ele>
        <time>2025-09-16T15:12:23Z</time>
      </trkpt>
      <trkpt lat="43.64235" lon="2.39551">
        <ele>658.4</ele>
        <time>2025-09-16T15:12:24Z</time>
      </trkpt>
      <trkpt lat="43.64237" lon="2.39546">
        <ele>658.2</ele>
        <time>2025-09-16T15:12:25Z</time>
      </trkpt>
      <trkpt lat="43.64239" lon="2.3954">
        <ele>658</ele>
        <time>2025-09-16T15:12:26Z</time>
      </trkpt>
      <trkpt lat="43.64241" lon="2.39535">
        <ele>657.8</ele>
        <time>2025-09-16T15:12:27Z</time>
      </trkpt>
      <trkpt lat="43.64242" lon="2.39526">
        <ele>657.6</ele>
        <time>2025-09-16T15:12:28Z</time>
      </trkpt>
      <trkpt lat="43.64244" lon="2.39519">
        <ele>657.2</ele>
        <time>2025-09-16T15:12:29Z</time>
      </trkpt>
      <trkpt lat="43.64244" lon="2.39512">
        <ele>656.8</ele>
        <time>2025-09-16T15:12:30Z</time>
      </trkpt>
      <trkpt lat="43.64246" lon="2.39506">
        <ele>656.2</ele>
        <time>2025-09-16T15:12:31Z</time>
      </trkpt>
      <trkpt lat="43.64248" lon="2.39498">
        <ele>655.8</ele>
        <time>2025-09-16T15:12:32Z</time>
      </trkpt>
      <trkpt lat="43.64249" lon="2.39487">
        <ele>655.2</ele>
        <time>2025-09-16T15:12:33Z</time>
      </trkpt>
      <trkpt lat="43.6425" lon="2.3948">
        <ele>654.8</ele>
        <time>2025-09-16T15:12:34Z</time>
      </trkpt>
      <trkpt lat="43.64251" lon="2.39473">
        <ele>654.6</ele>
        <time>2025-09-16T15:12:35Z</time>
      </trkpt>
      <trkpt lat="43.64253" lon="2.39467">
        <ele>654.2</ele>
        <time>2025-09-16T15:12:36Z</time>
      </trkpt>
      <trkpt lat="43.64253" lon="2.39457">
        <ele>653.8</ele>
        <time>2025-09-16T15:12:37Z</time>
      </trkpt>
      <trkpt lat="43.64254" lon="2.39448">
        <ele>653.4</ele>
        <time>2025-09-16T15:12:38Z</time>
      </trkpt>
      <trkpt lat="43.64255" lon="2.39441">
        <ele>652.8</ele>
        <time>2025-09-16T15:12:39Z</time>
      </trkpt>
      <trkpt lat="43.64256" lon="2.39433">
        <ele>652</ele>
        <time>2025-09-16T15:12:40Z</time>
      </trkpt>
      <trkpt lat="43.64257" lon="2.39424">
        <ele>651.2</ele>
        <time>2025-09-16T15:12:41Z</time>
      </trkpt>
      <trkpt lat="43.64257" lon="2.39414">
        <ele>650.6</ele>
        <time>2025-09-16T15:12:42Z</time>
      </trkpt>
      <trkpt lat="43.64256" lon="2.39405">
        <ele>649.8</ele>
        <time>2025-09-16T15:12:43Z</time>
      </trkpt>
      <trkpt lat="43.64255" lon="2.39394">
        <ele>648.8</ele>
        <time>2025-09-16T15:12:44Z</time>
      </trkpt>
      <trkpt lat="43.64253" lon="2.39384">
        <ele>648.2</ele>
        <time>2025-09-16T15:12:45Z</time>
      </trkpt>
      <trkpt lat="43.64251" lon="2.39374">
        <ele>647.2</ele>
        <time>2025-09-16T15:12:46Z</time>
      </trkpt>
      <trkpt lat="43.64246" lon="2.39362">
        <ele>646</ele>
        <time>2025-09-16T15:12:47Z</time>
      </trkpt>
      <trkpt lat="43.64242" lon="2.3935">
        <ele>644.4</ele>
        <time>2025-09-16T15:12:48Z</time>
      </trkpt>
      <trkpt lat="43.64237" lon="2.39334">
        <ele>643.2</ele>
        <time>2025-09-16T15:12:49Z</time>
      </trkpt>
      <trkpt lat="43.64233" lon="2.39323">
        <ele>642</ele>
        <time>2025-09-16T15:12:50Z</time>
      </trkpt>
      <trkpt lat="43.64228" lon="2.39312">
        <ele>641.4</ele>
        <time>2025-09-16T15:12:51Z</time>
      </trkpt>
      <trkpt lat="43.64225" lon="2.39302">
        <ele>641.2</ele>
        <time>2025-09-16T15:12:52Z</time>
      </trkpt>
      <trkpt lat="43.6422" lon="2.3929">
        <ele>641.2</ele>
        <time>2025-09-16T15:12:53Z</time>
      </trkpt>
      <trkpt lat="43.64217" lon="2.39279">
        <ele>640.8</ele>
        <time>2025-09-16T15:12:54Z</time>
      </trkpt>
      <trkpt lat="43.64212" lon="2.39266">
        <ele>640.4</ele>
        <time>2025-09-16T15:12:55Z</time>
      </trkpt>
      <trkpt lat="43.64208" lon="2.39254">
        <ele>639.8</ele>
        <time>2025-09-16T15:12:56Z</time>
      </trkpt>
      <trkpt lat="43.64206" lon="2.39244">
        <ele>639</ele>
        <time>2025-09-16T15:12:57Z</time>
      </trkpt>
      <trkpt lat="43.64204" lon="2.39235">
        <ele>638.2</ele>
        <time>2025-09-16T15:12:58Z</time>
      </trkpt>
      <trkpt lat="43.64203" lon="2.39226">
        <ele>637.4</ele>
        <time>2025-09-16T15:12:59Z</time>
      </trkpt>
      <trkpt lat="43.64204" lon="2.39217">
        <ele>636.6</ele>
        <time>2025-09-16T15:13:00Z</time>
      </trkpt>
      <trkpt lat="43.64205" lon="2.39207">
        <ele>635.6</ele>
        <time>2025-09-16T15:13:01Z</time>
      </trkpt>
      <trkpt lat="43.64206" lon="2.39198">
        <ele>634.4</ele>
        <time>2025-09-16T15:13:02Z</time>
      </trkpt>
      <trkpt lat="43.64208" lon="2.39189">
        <ele>632.8</ele>
        <time>2025-09-16T15:13:03Z</time>
      </trkpt>
      <trkpt lat="43.64211" lon="2.39178">
        <ele>631.2</ele>
        <time>2025-09-16T15:13:04Z</time>
      </trkpt>
      <trkpt lat="43.64213" lon="2.39165">
        <ele>629.6</ele>
        <time>2025-09-16T15:13:05Z</time>
      </trkpt>
      <trkpt lat="43.64214" lon="2.39151">
        <ele>628</ele>
        <time>2025-09-16T15:13:06Z</time>
      </trkpt>
      <trkpt lat="43.64215" lon="2.39136">
        <ele>626.4</ele>
        <time>2025-09-16T15:13:07Z</time>
      </trkpt>
      <trkpt lat="43.64217" lon="2.39122">
        <ele>624.8</ele>
        <time>2025-09-16T15:13:08Z</time>
      </trkpt>
      <trkpt lat="43.64219" lon="2.39109">
        <ele>623.2</ele>
        <time>2025-09-16T15:13:09Z</time>
      </trkpt>
      <trkpt lat="43.64221" lon="2.39098">
        <ele>622.4</ele>
        <time>2025-09-16T15:13:10Z</time>
      </trkpt>
      <trkpt lat="43.6422" lon="2.39089">
        <ele>621.8</ele>
        <time>2025-09-16T15:13:11Z</time>
      </trkpt>
      <trkpt lat="43.64221" lon="2.39081">
        <ele>621.4</ele>
        <time>2025-09-16T15:13:12Z</time>
      </trkpt>
      <trkpt lat="43.64221" lon="2.39074">
        <ele>621.2</ele>
        <time>2025-09-16T15:13:13Z</time>
      </trkpt>
      <trkpt lat="43.64221" lon="2.39068">
        <ele>621</ele>
        <time>2025-09-16T15:13:14Z</time>
      </trkpt>
      <trkpt lat="43.64221" lon="2.39064">
        <ele>620.6</ele>
        <time>2025-09-16T15:13:15Z</time>
      </trkpt>
      <trkpt lat="43.64221" lon="2.39059">
        <ele>620.4</ele>
        <time>2025-09-16T15:13:16Z</time>
      </trkpt>
      <trkpt lat="43.64221" lon="2.39055">
        <ele>620.2</ele>
        <time>2025-09-16T15:13:17Z</time>
      </trkpt>
      <trkpt lat="43.64222" lon="2.39052">
        <ele>620.2</ele>
        <time>2025-09-16T15:13:18Z</time>
      </trkpt>
      <trkpt lat="43.64222" lon="2.3905">
        <ele>620.2</ele>
        <time>2025-09-16T15:13:19Z</time>
      </trkpt>
      <trkpt lat="43.64222" lon="2.39048">
        <ele>620</ele>
        <time>2025-09-16T15:13:20Z</time>
      </trkpt>
      <trkpt lat="43.64223" lon="2.39046">
        <ele>620</ele>
        <time>2025-09-16T15:13:21Z</time>
      </trkpt>
      <trkpt lat="43.64224" lon="2.39041">
        <ele>619.4</ele>
        <time>2025-09-16T15:13:22Z</time>
      </trkpt>
      <trkpt lat="43.64226" lon="2.39036">
        <ele>619</ele>
        <time>2025-09-16T15:13:23Z</time>
      </trkpt>
      <trkpt lat="43.64228" lon="2.39031">
        <ele>618.4</ele>
        <time>2025-09-16T15:13:24Z</time>
      </trkpt>
      <trkpt lat="43.64231" lon="2.39026">
        <ele>617.8</ele>
        <time>2025-09-16T15:13:25Z</time>
      </trkpt>
      <trkpt lat="43.64235" lon="2.39022">
        <ele>617.2</ele>
        <time>2025-09-16T15:13:26Z</time>
      </trkpt>
      <trkpt lat="43.64238" lon="2.39016">
        <ele>616.6</ele>
        <time>2025-09-16T15:13:27Z</time>
      </trkpt>
      <trkpt lat="43.64242" lon="2.3901">
        <ele>615.8</ele>
        <time>2025-09-16T15:13:28Z</time>
      </trkpt>
      <trkpt lat="43.64246" lon="2.39005">
        <ele>615.2</ele>
        <time>2025-09-16T15:13:29Z</time>
      </trkpt>
      <trkpt lat="43.6425" lon="2.38999">
        <ele>614.8</ele>
        <time>2025-09-16T15:13:30Z</time>
      </trkpt>
      <trkpt lat="43.64254" lon="2.38995">
        <ele>614.2</ele>
        <time>2025-09-16T15:13:31Z</time>
      </trkpt>
      <trkpt lat="43.64258" lon="2.38991">
        <ele>613.8</ele>
        <time>2025-09-16T15:13:32Z</time>
      </trkpt>
      <trkpt lat="43.64263" lon="2.38985">
        <ele>613.6</ele>
        <time>2025-09-16T15:13:33Z</time>
      </trkpt>
      <trkpt lat="43.64267" lon="2.38979">
        <ele>613.4</ele>
        <time>2025-09-16T15:13:34Z</time>
      </trkpt>
      <trkpt lat="43.64272" lon="2.38975">
        <ele>613.4</ele>
        <time>2025-09-16T15:13:35Z</time>
      </trkpt>
      <trkpt lat="43.64275" lon="2.38972">
        <ele>613.6</ele>
        <time>2025-09-16T15:13:36Z</time>
      </trkpt>
      <trkpt lat="43.64275" lon="2.38972">
        <ele>614</ele>
        <time>2025-09-16T15:13:37Z</time>
      </trkpt>
      <trkpt lat="43.64275" lon="2.38972">
        <ele>614.6</ele>
        <time>2025-09-16T15:13:38Z</time>
      </trkpt>
      <trkpt lat="43.64275" lon="2.38971">
        <ele>615.2</ele>
        <time>2025-09-16T15:13:39Z</time>
      </trkpt>
      <trkpt lat="43.6428" lon="2.38967">
        <ele>616.2</ele>
        <time>2025-09-16T15:14:14Z</time>
      </trkpt>
      <trkpt lat="43.64281" lon="2.38967">
        <ele>616.4</ele>
        <time>2025-09-16T15:14:15Z</time>
      </trkpt>
      <trkpt lat="43.64282" lon="2.38966">
        <ele>616.4</ele>
        <time>2025-09-16T15:14:16Z</time>
      </trkpt>
      <trkpt lat="43.64283" lon="2.38966">
        <ele>616.4</ele>
        <time>2025-09-16T15:14:17Z</time>
      </trkpt>
      <trkpt lat="43.64284" lon="2.38965">
        <ele>616.4</ele>
        <time>2025-09-16T15:14:18Z</time>
      </trkpt>
      <trkpt lat="43.64285" lon="2.38965">
        <ele>616.4</ele>
        <time>2025-09-16T15:14:19Z</time>
      </trkpt>
      <trkpt lat="43.64287" lon="2.38964">
        <ele>616.4</ele>
        <time>2025-09-16T15:14:20Z</time>
      </trkpt>
      <trkpt lat="43.64289" lon="2.38963">
        <ele>616.2</ele>
        <time>2025-09-16T15:14:21Z</time>
      </trkpt>
      <trkpt lat="43.64292" lon="2.38963">
        <ele>615.8</ele>
        <time>2025-09-16T15:14:22Z</time>
      </trkpt>
      <trkpt lat="43.64294" lon="2.38962">
        <ele>615.2</ele>
        <time>2025-09-16T15:14:23Z</time>
      </trkpt>
      <trkpt lat="43.64297" lon="2.3896">
        <ele>614.8</ele>
        <time>2025-09-16T15:14:24Z</time>
      </trkpt>
      <trkpt lat="43.643" lon="2.38959">
        <ele>614</ele>
        <time>2025-09-16T15:14:25Z</time>
      </trkpt>
      <trkpt lat="43.64303" lon="2.38957">
        <ele>613.6</ele>
        <time>2025-09-16T15:14:26Z</time>
      </trkpt>
      <trkpt lat="43.64304" lon="2.38956">
        <ele>613.2</ele>
        <time>2025-09-16T15:14:27Z</time>
      </trkpt>
      <trkpt lat="43.64306" lon="2.38955">
        <ele>612.8</ele>
        <time>2025-09-16T15:14:28Z</time>
      </trkpt>
      <trkpt lat="43.64307" lon="2.38954">
        <ele>612.4</ele>
        <time>2025-09-16T15:14:29Z</time>
      </trkpt>
      <trkpt lat="43.64309" lon="2.38955">
        <ele>612.2</ele>
        <time>2025-09-16T15:14:30Z</time>
      </trkpt>
      <trkpt lat="43.64312" lon="2.38956">
        <ele>612.2</ele>
        <time>2025-09-16T15:14:31Z</time>
      </trkpt>
      <trkpt lat="43.64313" lon="2.38956">
        <ele>612</ele>
        <time>2025-09-16T15:14:32Z</time>
      </trkpt>
      <trkpt lat="43.64315" lon="2.38957">
        <ele>612</ele>
        <time>2025-09-16T15:14:33Z</time>
      </trkpt>
      <trkpt lat="43.64317" lon="2.38958">
        <ele>612</ele>
        <time>2025-09-16T15:14:34Z</time>
      </trkpt>
      <trkpt lat="43.64318" lon="2.38959">
        <ele>612.2</ele>
        <time>2025-09-16T15:14:35Z</time>
      </trkpt>
      <trkpt lat="43.64321" lon="2.3896">
        <ele>612.2</ele>
        <time>2025-09-16T15:14:36Z</time>
      </trkpt>
      <trkpt lat="43.64325" lon="2.38961">
        <ele>612.2</ele>
        <time>2025-09-16T15:14:37Z</time>
      </trkpt>
      <trkpt lat="43.64328" lon="2.38962">
        <ele>612.2</ele>
        <time>2025-09-16T15:14:38Z</time>
      </trkpt>
      <trkpt lat="43.64331" lon="2.38963">
        <ele>612.4</ele>
        <time>2025-09-16T15:14:39Z</time>
      </trkpt>
      <trkpt lat="43.64333" lon="2.38963">
        <ele>612.6</ele>
        <time>2025-09-16T15:14:40Z</time>
      </trkpt>
      <trkpt lat="43.64335" lon="2.38963">
        <ele>612.6</ele>
        <time>2025-09-16T15:14:41Z</time>
      </trkpt>
      <trkpt lat="43.64337" lon="2.38962">
        <ele>612.8</ele>
        <time>2025-09-16T15:14:42Z</time>
      </trkpt>
      <trkpt lat="43.64339" lon="2.38958">
        <ele>613</ele>
        <time>2025-09-16T15:14:43Z</time>
      </trkpt>
      <trkpt lat="43.64342" lon="2.38955">
        <ele>613</ele>
        <time>2025-09-16T15:14:44Z</time>
      </trkpt>
      <trkpt lat="43.64345" lon="2.38952">
        <ele>613</ele>
        <time>2025-09-16T15:14:45Z</time>
      </trkpt>
      <trkpt lat="43.64347" lon="2.3895">
        <ele>613</ele>
        <time>2025-09-16T15:14:46Z</time>
      </trkpt>
      <trkpt lat="43.64349" lon="2.38948">
        <ele>612.8</ele>
        <time>2025-09-16T15:14:47Z</time>
      </trkpt>
      <trkpt lat="43.64351" lon="2.38946">
        <ele>612.8</ele>
        <time>2025-09-16T15:14:48Z</time>
      </trkpt>
      <trkpt lat="43.64353" lon="2.38944">
        <ele>612.8</ele>
        <time>2025-09-16T15:14:49Z</time>
      </trkpt>
      <trkpt lat="43.64356" lon="2.38941">
        <ele>612.8</ele>
        <time>2025-09-16T15:14:50Z</time>
      </trkpt>
      <trkpt lat="43.64359" lon="2.3894">
        <ele>612.8</ele>
        <time>2025-09-16T15:14:51Z</time>
      </trkpt>
      <trkpt lat="43.64361" lon="2.3894">
        <ele>612.8</ele>
        <time>2025-09-16T15:14:52Z</time>
      </trkpt>
      <trkpt lat="43.64364" lon="2.3894">
        <ele>612.8</ele>
        <time>2025-09-16T15:14:53Z</time>
      </trkpt>
      <trkpt lat="43.64367" lon="2.3894">
        <ele>613</ele>
        <time>2025-09-16T15:14:54Z</time>
      </trkpt>
      <trkpt lat="43.64369" lon="2.38941">
        <ele>613.2</ele>
        <time>2025-09-16T15:14:55Z</time>
      </trkpt>
      <trkpt lat="43.64371" lon="2.38941">
        <ele>613.2</ele>
        <time>2025-09-16T15:14:56Z</time>
      </trkpt>
      <trkpt lat="43.64374" lon="2.38941">
        <ele>613.6</ele>
        <time>2025-09-16T15:14:57Z</time>
      </trkpt>
      <trkpt lat="43.64375" lon="2.38941">
        <ele>613.8</ele>
        <time>2025-09-16T15:14:58Z</time>
      </trkpt>
      <trkpt lat="43.64377" lon="2.3894">
        <ele>614</ele>
        <time>2025-09-16T15:14:59Z</time>
      </trkpt>
      <trkpt lat="43.64378" lon="2.38938">
        <ele>614.2</ele>
        <time>2025-09-16T15:15:00Z</time>
      </trkpt>
      <trkpt lat="43.6438" lon="2.38937">
        <ele>614.4</ele>
        <time>2025-09-16T15:15:01Z</time>
      </trkpt>
      <trkpt lat="43.64382" lon="2.38936">
        <ele>614.4</ele>
        <time>2025-09-16T15:15:02Z</time>
      </trkpt>
      <trkpt lat="43.64383" lon="2.38936">
        <ele>614.6</ele>
        <time>2025-09-16T15:15:03Z</time>
      </trkpt>
      <trkpt lat="43.64385" lon="2.38936">
        <ele>614.4</ele>
        <time>2025-09-16T15:15:04Z</time>
      </trkpt>
      <trkpt lat="43.64388" lon="2.38936">
        <ele>614.4</ele>
        <time>2025-09-16T15:15:05Z</time>
      </trkpt>
      <trkpt lat="43.64393" lon="2.38935">
        <ele>614.4</ele>
        <time>2025-09-16T15:15:06Z</time>
      </trkpt>
      <trkpt lat="43.64396" lon="2.38934">
        <ele>614.2</ele>
        <time>2025-09-16T15:15:07Z</time>
      </trkpt>
      <trkpt lat="43.644" lon="2.38935">
        <ele>614</ele>
        <time>2025-09-16T15:15:08Z</time>
      </trkpt>
      <trkpt lat="43.64407" lon="2.38935">
        <ele>613.8</ele>
        <time>2025-09-16T15:15:09Z</time>
      </trkpt>
      <trkpt lat="43.64411" lon="2.38935">
        <ele>613.4</ele>
        <time>2025-09-16T15:15:10Z</time>
      </trkpt>
      <trkpt lat="43.64414" lon="2.38935">
        <ele>613.2</ele>
        <time>2025-09-16T15:15:11Z</time>
      </trkpt>
      <trkpt lat="43.64417" lon="2.38936">
        <ele>613.2</ele>
        <time>2025-09-16T15:15:12Z</time>
      </trkpt>
      <trkpt lat="43.64419" lon="2.38937">
        <ele>613.2</ele>
        <time>2025-09-16T15:15:13Z</time>
      </trkpt>
      <trkpt lat="43.64422" lon="2.38939">
        <ele>613.2</ele>
        <time>2025-09-16T15:15:14Z</time>
      </trkpt>
      <trkpt lat="43.64425" lon="2.38942">
        <ele>613.2</ele>
        <time>2025-09-16T15:15:15Z</time>
      </trkpt>
      <trkpt lat="43.64429" lon="2.38944">
        <ele>613.4</ele>
        <time>2025-09-16T15:15:16Z</time>
      </trkpt>
      <trkpt lat="43.64433" lon="2.38944">
        <ele>613.4</ele>
        <time>2025-09-16T15:15:17Z</time>
      </trkpt>
      <trkpt lat="43.64436" lon="2.38942">
        <ele>613.4</ele>
        <time>2025-09-16T15:15:18Z</time>
      </trkpt>
      <trkpt lat="43.64439" lon="2.3894">
        <ele>613.4</ele>
        <time>2025-09-16T15:15:19Z</time>
      </trkpt>
      <trkpt lat="43.64441" lon="2.38938">
        <ele>613.4</ele>
        <time>2025-09-16T15:15:20Z</time>
      </trkpt>
      <trkpt lat="43.64444" lon="2.38935">
        <ele>613.2</ele>
        <time>2025-09-16T15:15:21Z</time>
      </trkpt>
      <trkpt lat="43.64446" lon="2.38932">
        <ele>613.2</ele>
        <time>2025-09-16T15:15:22Z</time>
      </trkpt>
      <trkpt lat="43.64448" lon="2.3893">
        <ele>613.2</ele>
        <time>2025-09-16T15:15:23Z</time>
      </trkpt>
      <trkpt lat="43.64451" lon="2.38929">
        <ele>613</ele>
        <time>2025-09-16T15:15:24Z</time>
      </trkpt>
      <trkpt lat="43.64454" lon="2.38927">
        <ele>613</ele>
        <time>2025-09-16T15:15:25Z</time>
      </trkpt>
      <trkpt lat="43.64457" lon="2.38926">
        <ele>613</ele>
        <time>2025-09-16T15:15:26Z</time>
      </trkpt>
      <trkpt lat="43.64459" lon="2.38925">
        <ele>613</ele>
        <time>2025-09-16T15:15:27Z</time>
      </trkpt>
      <trkpt lat="43.64462" lon="2.38924">
        <ele>613</ele>
        <time>2025-09-16T15:15:28Z</time>
      </trkpt>
      <trkpt lat="43.64465" lon="2.38924">
        <ele>613.2</ele>
        <time>2025-09-16T15:15:29Z</time>
      </trkpt>
      <trkpt lat="43.64466" lon="2.38921">
        <ele>613.2</ele>
        <time>2025-09-16T15:15:30Z</time>
      </trkpt>
      <trkpt lat="43.64466" lon="2.38918">
        <ele>613.2</ele>
        <time>2025-09-16T15:15:31Z</time>
      </trkpt>
      <trkpt lat="43.64467" lon="2.38915">
        <ele>613</ele>
        <time>2025-09-16T15:15:32Z</time>
      </trkpt>
      <trkpt lat="43.64468" lon="2.38912">
        <ele>613</ele>
        <time>2025-09-16T15:15:33Z</time>
      </trkpt>
      <trkpt lat="43.64469" lon="2.38909">
        <ele>612.8</ele>
        <time>2025-09-16T15:15:34Z</time>
      </trkpt>
      <trkpt lat="43.64472" lon="2.38907">
        <ele>612.8</ele>
        <time>2025-09-16T15:15:35Z</time>
      </trkpt>
      <trkpt lat="43.64474" lon="2.38906">
        <ele>612.6</ele>
        <time>2025-09-16T15:15:36Z</time>
      </trkpt>
      <trkpt lat="43.64475" lon="2.38903">
        <ele>612.6</ele>
        <time>2025-09-16T15:15:37Z</time>
      </trkpt>
      <trkpt lat="43.64477" lon="2.389">
        <ele>612.4</ele>
        <time>2025-09-16T15:15:38Z</time>
      </trkpt>
      <trkpt lat="43.64479" lon="2.38898">
        <ele>612.4</ele>
        <time>2025-09-16T15:15:39Z</time>
      </trkpt>
      <trkpt lat="43.64482" lon="2.38895">
        <ele>612.4</ele>
        <time>2025-09-16T15:15:40Z</time>
      </trkpt>
      <trkpt lat="43.64484" lon="2.38893">
        <ele>612.4</ele>
        <time>2025-09-16T15:15:41Z</time>
      </trkpt>
      <trkpt lat="43.64487" lon="2.38892">
        <ele>612.6</ele>
        <time>2025-09-16T15:15:42Z</time>
      </trkpt>
      <trkpt lat="43.64489" lon="2.3889">
        <ele>612.6</ele>
        <time>2025-09-16T15:15:43Z</time>
      </trkpt>
      <trkpt lat="43.6449" lon="2.38888">
        <ele>612.8</ele>
        <time>2025-09-16T15:15:44Z</time>
      </trkpt>
      <trkpt lat="43.64491" lon="2.38886">
        <ele>612.8</ele>
        <time>2025-09-16T15:15:45Z</time>
      </trkpt>
      <trkpt lat="43.64493" lon="2.38884">
        <ele>612.8</ele>
        <time>2025-09-16T15:15:46Z</time>
      </trkpt>
      <trkpt lat="43.64495" lon="2.38882">
        <ele>612.8</ele>
        <time>2025-09-16T15:15:47Z</time>
      </trkpt>
      <trkpt lat="43.64497" lon="2.3888">
        <ele>612.8</ele>
        <time>2025-09-16T15:15:48Z</time>
      </trkpt>
      <trkpt lat="43.64499" lon="2.38876">
        <ele>612.8</ele>
        <time>2025-09-16T15:15:49Z</time>
      </trkpt>
      <trkpt lat="43.64501" lon="2.38873">
        <ele>612.6</ele>
        <time>2025-09-16T15:15:50Z</time>
      </trkpt>
      <trkpt lat="43.64504" lon="2.38869">
        <ele>612.6</ele>
        <time>2025-09-16T15:15:51Z</time>
      </trkpt>
      <trkpt lat="43.64507" lon="2.38866">
        <ele>612.6</ele>
        <time>2025-09-16T15:15:52Z</time>
      </trkpt>
      <trkpt lat="43.6451" lon="2.38862">
        <ele>612.4</ele>
        <time>2025-09-16T15:15:53Z</time>
      </trkpt>
      <trkpt lat="43.64512" lon="2.38859">
        <ele>612.2</ele>
        <time>2025-09-16T15:15:54Z</time>
      </trkpt>
      <trkpt lat="43.64514" lon="2.38856">
        <ele>612.2</ele>
        <time>2025-09-16T15:15:55Z</time>
      </trkpt>
      <trkpt lat="43.64516" lon="2.38853">
        <ele>612</ele>
        <time>2025-09-16T15:15:56Z</time>
      </trkpt>
      <trkpt lat="43.64518" lon="2.38848">
        <ele>612</ele>
        <time>2025-09-16T15:15:57Z</time>
      </trkpt>
      <trkpt lat="43.64519" lon="2.38842">
        <ele>611.8</ele>
        <time>2025-09-16T15:15:58Z</time>
      </trkpt>
      <trkpt lat="43.64521" lon="2.38837">
        <ele>611.6</ele>
        <time>2025-09-16T15:15:59Z</time>
      </trkpt>
      <trkpt lat="43.64524" lon="2.38831">
        <ele>611.4</ele>
        <time>2025-09-16T15:16:00Z</time>
      </trkpt>
      <trkpt lat="43.64526" lon="2.38827">
        <ele>611.2</ele>
        <time>2025-09-16T15:16:01Z</time>
      </trkpt>
      <trkpt lat="43.64529" lon="2.38823">
        <ele>611.2</ele>
        <time>2025-09-16T15:16:02Z</time>
      </trkpt>
      <trkpt lat="43.64531" lon="2.38819">
        <ele>611</ele>
        <time>2025-09-16T15:16:03Z</time>
      </trkpt>
      <trkpt lat="43.64532" lon="2.38815">
        <ele>610.8</ele>
        <time>2025-09-16T15:16:04Z</time>
      </trkpt>
      <trkpt lat="43.64535" lon="2.38811">
        <ele>610.6</ele>
        <time>2025-09-16T15:16:05Z</time>
      </trkpt>
      <trkpt lat="43.64537" lon="2.38806">
        <ele>610.6</ele>
        <time>2025-09-16T15:16:06Z</time>
      </trkpt>
      <trkpt lat="43.64539" lon="2.38803">
        <ele>610.6</ele>
        <time>2025-09-16T15:16:07Z</time>
      </trkpt>
      <trkpt lat="43.6454" lon="2.388">
        <ele>610.6</ele>
        <time>2025-09-16T15:16:08Z</time>
      </trkpt>
      <trkpt lat="43.64541" lon="2.38798">
        <ele>610.8</ele>
        <time>2025-09-16T15:16:09Z</time>
      </trkpt>
      <trkpt lat="43.64542" lon="2.38796">
        <ele>610.8</ele>
        <time>2025-09-16T15:16:10Z</time>
      </trkpt>
      <trkpt lat="43.64543" lon="2.38795">
        <ele>611</ele>
        <time>2025-09-16T15:16:11Z</time>
      </trkpt>
      <trkpt lat="43.64544" lon="2.38793">
        <ele>611</ele>
        <time>2025-09-16T15:16:12Z</time>
      </trkpt>
      <trkpt lat="43.64545" lon="2.38792">
        <ele>611</ele>
        <time>2025-09-16T15:16:13Z</time>
      </trkpt>
      <trkpt lat="43.64546" lon="2.3879">
        <ele>610.8</ele>
        <time>2025-09-16T15:16:14Z</time>
      </trkpt>
      <trkpt lat="43.64547" lon="2.38787">
        <ele>610.8</ele>
        <time>2025-09-16T15:16:15Z</time>
      </trkpt>
      <trkpt lat="43.64548" lon="2.38784">
        <ele>610.6</ele>
        <time>2025-09-16T15:16:16Z</time>
      </trkpt>
      <trkpt lat="43.6455" lon="2.38781">
        <ele>610.6</ele>
        <time>2025-09-16T15:16:17Z</time>
      </trkpt>
      <trkpt lat="43.64552" lon="2.38777">
        <ele>610.4</ele>
        <time>2025-09-16T15:16:18Z</time>
      </trkpt>
      <trkpt lat="43.64554" lon="2.38773">
        <ele>610.4</ele>
        <time>2025-09-16T15:16:19Z</time>
      </trkpt>
      <trkpt lat="43.64556" lon="2.38769">
        <ele>610.4</ele>
        <time>2025-09-16T15:16:20Z</time>
      </trkpt>
      <trkpt lat="43.64558" lon="2.38765">
        <ele>610.4</ele>
        <time>2025-09-16T15:16:21Z</time>
      </trkpt>
      <trkpt lat="43.6456" lon="2.38761">
        <ele>610.4</ele>
        <time>2025-09-16T15:16:22Z</time>
      </trkpt>
      <trkpt lat="43.64561" lon="2.38758">
        <ele>610.8</ele>
        <time>2025-09-16T15:16:23Z</time>
      </trkpt>
      <trkpt lat="43.64561" lon="2.38756">
        <ele>611</ele>
        <time>2025-09-16T15:16:24Z</time>
      </trkpt>
      <trkpt lat="43.64562" lon="2.38753">
        <ele>611.4</ele>
        <time>2025-09-16T15:16:25Z</time>
      </trkpt>
      <trkpt lat="43.64563" lon="2.38751">
        <ele>611.8</ele>
        <time>2025-09-16T15:16:26Z</time>
      </trkpt>
      <trkpt lat="43.64565" lon="2.38749">
        <ele>611.8</ele>
        <time>2025-09-16T15:16:27Z</time>
      </trkpt>
      <trkpt lat="43.64566" lon="2.38747">
        <ele>612</ele>
        <time>2025-09-16T15:16:28Z</time>
      </trkpt>
      <trkpt lat="43.64566" lon="2.38744">
        <ele>612</ele>
        <time>2025-09-16T15:16:29Z</time>
      </trkpt>
      <trkpt lat="43.64567" lon="2.3874">
        <ele>611.8</ele>
        <time>2025-09-16T15:16:30Z</time>
      </trkpt>
      <trkpt lat="43.64569" lon="2.38736">
        <ele>611.6</ele>
        <time>2025-09-16T15:16:31Z</time>
      </trkpt>
      <trkpt lat="43.64571" lon="2.38732">
        <ele>611.4</ele>
        <time>2025-09-16T15:16:32Z</time>
      </trkpt>
      <trkpt lat="43.64573" lon="2.38726">
        <ele>611.2</ele>
        <time>2025-09-16T15:16:33Z</time>
      </trkpt>
      <trkpt lat="43.64575" lon="2.38721">
        <ele>611</ele>
        <time>2025-09-16T15:16:34Z</time>
      </trkpt>
      <trkpt lat="43.64577" lon="2.38716">
        <ele>610.8</ele>
        <time>2025-09-16T15:16:35Z</time>
      </trkpt>
      <trkpt lat="43.64578" lon="2.38711">
        <ele>610.6</ele>
        <time>2025-09-16T15:16:36Z</time>
      </trkpt>
      <trkpt lat="43.64578" lon="2.38707">
        <ele>610.6</ele>
        <time>2025-09-16T15:16:37Z</time>
      </trkpt>
      <trkpt lat="43.64578" lon="2.38702">
        <ele>610.6</ele>
        <time>2025-09-16T15:16:38Z</time>
      </trkpt>
      <trkpt lat="43.64577" lon="2.38699">
        <ele>610.6</ele>
        <time>2025-09-16T15:16:39Z</time>
      </trkpt>
      <trkpt lat="43.64576" lon="2.38694">
        <ele>610.4</ele>
        <time>2025-09-16T15:16:40Z</time>
      </trkpt>
      <trkpt lat="43.64575" lon="2.3869">
        <ele>610.2</ele>
        <time>2025-09-16T15:16:41Z</time>
      </trkpt>
      <trkpt lat="43.64575" lon="2.38682">
        <ele>610</ele>
        <time>2025-09-16T15:16:42Z</time>
      </trkpt>
      <trkpt lat="43.64575" lon="2.38674">
        <ele>609.8</ele>
        <time>2025-09-16T15:16:43Z</time>
      </trkpt>
      <trkpt lat="43.64575" lon="2.38668">
        <ele>609.6</ele>
        <time>2025-09-16T15:16:44Z</time>
      </trkpt>
      <trkpt lat="43.64575" lon="2.38662">
        <ele>609.4</ele>
        <time>2025-09-16T15:16:45Z</time>
      </trkpt>
      <trkpt lat="43.64575" lon="2.38657">
        <ele>609.4</ele>
        <time>2025-09-16T15:16:46Z</time>
      </trkpt>
      <trkpt lat="43.64575" lon="2.38652">
        <ele>609.4</ele>
        <time>2025-09-16T15:16:47Z</time>
      </trkpt>
      <trkpt lat="43.64575" lon="2.38647">
        <ele>609.4</ele>
        <time>2025-09-16T15:16:48Z</time>
      </trkpt>
      <trkpt lat="43.64575" lon="2.38641">
        <ele>609.4</ele>
        <time>2025-09-16T15:16:49Z</time>
      </trkpt>
      <trkpt lat="43.64575" lon="2.38636">
        <ele>609.4</ele>
        <time>2025-09-16T15:16:50Z</time>
      </trkpt>
      <trkpt lat="43.64575" lon="2.38631">
        <ele>609.4</ele>
        <time>2025-09-16T15:16:51Z</time>
      </trkpt>
      <trkpt lat="43.64576" lon="2.38628">
        <ele>609.4</ele>
        <time>2025-09-16T15:16:52Z</time>
      </trkpt>
      <trkpt lat="43.64575" lon="2.38623">
        <ele>609.4</ele>
        <time>2025-09-16T15:16:53Z</time>
      </trkpt>
      <trkpt lat="43.64575" lon="2.38619">
        <ele>609.4</ele>
        <time>2025-09-16T15:16:54Z</time>
      </trkpt>
      <trkpt lat="43.64575" lon="2.38614">
        <ele>609.4</ele>
        <time>2025-09-16T15:16:55Z</time>
      </trkpt>
      <trkpt lat="43.64575" lon="2.38609">
        <ele>609.4</ele>
        <time>2025-09-16T15:16:56Z</time>
      </trkpt>
      <trkpt lat="43.64575" lon="2.38605">
        <ele>609.4</ele>
        <time>2025-09-16T15:16:57Z</time>
      </trkpt>
      <trkpt lat="43.64575" lon="2.38601">
        <ele>609.2</ele>
        <time>2025-09-16T15:16:58Z</time>
      </trkpt>
      <trkpt lat="43.64575" lon="2.38597">
        <ele>609.2</ele>
        <time>2025-09-16T15:16:59Z</time>
      </trkpt>
      <trkpt lat="43.64576" lon="2.38593">
        <ele>609.2</ele>
        <time>2025-09-16T15:17:00Z</time>
      </trkpt>
      <trkpt lat="43.64576" lon="2.38589">
        <ele>609.2</ele>
        <time>2025-09-16T15:17:01Z</time>
      </trkpt>
      <trkpt lat="43.64575" lon="2.38586">
        <ele>609.2</ele>
        <time>2025-09-16T15:17:02Z</time>
      </trkpt>
      <trkpt lat="43.64576" lon="2.38582">
        <ele>609.2</ele>
        <time>2025-09-16T15:17:03Z</time>
      </trkpt>
      <trkpt lat="43.64576" lon="2.38578">
        <ele>609.2</ele>
        <time>2025-09-16T15:17:04Z</time>
      </trkpt>
      <trkpt lat="43.64576" lon="2.38574">
        <ele>609.2</ele>
        <time>2025-09-16T15:17:05Z</time>
      </trkpt>
      <trkpt lat="43.64575" lon="2.38569">
        <ele>609</ele>
        <time>2025-09-16T15:17:06Z</time>
      </trkpt>
      <trkpt lat="43.64576" lon="2.38566">
        <ele>609</ele>
        <time>2025-09-16T15:17:07Z</time>
      </trkpt>
      <trkpt lat="43.64576" lon="2.38561">
        <ele>609</ele>
        <time>2025-09-16T15:17:08Z</time>
      </trkpt>
      <trkpt lat="43.64576" lon="2.38557">
        <ele>609</ele>
        <time>2025-09-16T15:17:09Z</time>
      </trkpt>
      <trkpt lat="43.64576" lon="2.38553">
        <ele>609</ele>
        <time>2025-09-16T15:17:10Z</time>
      </trkpt>
      <trkpt lat="43.64576" lon="2.38548">
        <ele>609.2</ele>
        <time>2025-09-16T15:17:11Z</time>
      </trkpt>
      <trkpt lat="43.64577" lon="2.38545">
        <ele>609.2</ele>
        <time>2025-09-16T15:17:12Z</time>
      </trkpt>
      <trkpt lat="43.64576" lon="2.38541">
        <ele>609.2</ele>
        <time>2025-09-16T15:17:13Z</time>
      </trkpt>
      <trkpt lat="43.64576" lon="2.38537">
        <ele>609.2</ele>
        <time>2025-09-16T15:17:14Z</time>
      </trkpt>
      <trkpt lat="43.64576" lon="2.38533">
        <ele>609.4</ele>
        <time>2025-09-16T15:17:15Z</time>
      </trkpt>
      <trkpt lat="43.64575" lon="2.38529">
        <ele>609.2</ele>
        <time>2025-09-16T15:17:16Z</time>
      </trkpt>
      <trkpt lat="43.64575" lon="2.38524">
        <ele>609.2</ele>
        <time>2025-09-16T15:17:17Z</time>
      </trkpt>
      <trkpt lat="43.64576" lon="2.3852">
        <ele>609.2</ele>
        <time>2025-09-16T15:17:18Z</time>
      </trkpt>
      <trkpt lat="43.64577" lon="2.38518">
        <ele>609.2</ele>
        <time>2025-09-16T15:17:19Z</time>
      </trkpt>
      <trkpt lat="43.64578" lon="2.38515">
        <ele>609.2</ele>
        <time>2025-09-16T15:17:20Z</time>
      </trkpt>
      <trkpt lat="43.64579" lon="2.38513">
        <ele>609.4</ele>
        <time>2025-09-16T15:17:21Z</time>
      </trkpt>
      <trkpt lat="43.64578" lon="2.38511">
        <ele>609.4</ele>
        <time>2025-09-16T15:17:22Z</time>
      </trkpt>
      <trkpt lat="43.64577" lon="2.38511">
        <ele>609.4</ele>
        <time>2025-09-16T15:17:23Z</time>
      </trkpt>
      <trkpt lat="43.64576" lon="2.38512">
        <ele>609.4</ele>
        <time>2025-09-16T15:17:24Z</time>
      </trkpt>
      <trkpt lat="43.64575" lon="2.38515">
        <ele>609.6</ele>
        <time>2025-09-16T15:17:25Z</time>
      </trkpt>
      <trkpt lat="43.64574" lon="2.38517">
        <ele>609.6</ele>
        <time>2025-09-16T15:17:26Z</time>
      </trkpt>
      <trkpt lat="43.64574" lon="2.3852">
        <ele>609.6</ele>
        <time>2025-09-16T15:17:27Z</time>
      </trkpt>
      <trkpt lat="43.64575" lon="2.38521">
        <ele>609.6</ele>
        <time>2025-09-16T15:17:28Z</time>
      </trkpt>
      <trkpt lat="43.64576" lon="2.38523">
        <ele>609.4</ele>
        <time>2025-09-16T15:17:29Z</time>
      </trkpt>
      <trkpt lat="43.64578" lon="2.38524">
        <ele>609.4</ele>
        <time>2025-09-16T15:17:30Z</time>
      </trkpt>
      <trkpt lat="43.64579" lon="2.38527">
        <ele>609.2</ele>
        <time>2025-09-16T15:17:31Z</time>
      </trkpt>
      <trkpt lat="43.6458" lon="2.38529">
        <ele>609</ele>
        <time>2025-09-16T15:17:32Z</time>
      </trkpt>
      <trkpt lat="43.64582" lon="2.38534">
        <ele>608.8</ele>
        <time>2025-09-16T15:17:33Z</time>
      </trkpt>
      <trkpt lat="43.64583" lon="2.38537">
        <ele>608.4</ele>
        <time>2025-09-16T15:17:34Z</time>
      </trkpt>
      <trkpt lat="43.64584" lon="2.38542">
        <ele>608</ele>
        <time>2025-09-16T15:17:35Z</time>
      </trkpt>
      <trkpt lat="43.64587" lon="2.38546">
        <ele>607.6</ele>
        <time>2025-09-16T15:17:36Z</time>
      </trkpt>
      <trkpt lat="43.64588" lon="2.38549">
        <ele>607.4</ele>
        <time>2025-09-16T15:17:37Z</time>
      </trkpt>
      <trkpt lat="43.6459" lon="2.38552">
        <ele>607.2</ele>
        <time>2025-09-16T15:17:38Z</time>
      </trkpt>
      <trkpt lat="43.64591" lon="2.38553">
        <ele>607</ele>
        <time>2025-09-16T15:17:39Z</time>
      </trkpt>
      <trkpt lat="43.64593" lon="2.38555">
        <ele>606.8</ele>
        <time>2025-09-16T15:17:40Z</time>
      </trkpt>
      <trkpt lat="43.64594" lon="2.38557">
        <ele>606.6</ele>
        <time>2025-09-16T15:17:41Z</time>
      </trkpt>
      <trkpt lat="43.64595" lon="2.38559">
        <ele>606.6</ele>
        <time>2025-09-16T15:17:42Z</time>
      </trkpt>
      <trkpt lat="43.64596" lon="2.3856">
        <ele>606.4</ele>
        <time>2025-09-16T15:17:43Z</time>
      </trkpt>
      <trkpt lat="43.64596" lon="2.3856">
        <ele>606.2</ele>
        <time>2025-09-16T15:17:44Z</time>
      </trkpt>
      <trkpt lat="43.64597" lon="2.38558">
        <ele>606.2</ele>
        <time>2025-09-16T15:17:45Z</time>
      </trkpt>
      <trkpt lat="43.64598" lon="2.38557">
        <ele>606</ele>
        <time>2025-09-16T15:17:46Z</time>
      </trkpt>
      <trkpt lat="43.64599" lon="2.38555">
        <ele>605.8</ele>
        <time>2025-09-16T15:17:47Z</time>
      </trkpt>
      <trkpt lat="43.64601" lon="2.38554">
        <ele>605.6</ele>
        <time>2025-09-16T15:17:48Z</time>
      </trkpt>
      <trkpt lat="43.64602" lon="2.38555">
        <ele>605.6</ele>
        <time>2025-09-16T15:17:49Z</time>
      </trkpt>
      <trkpt lat="43.64604" lon="2.38556">
        <ele>605.8</ele>
        <time>2025-09-16T15:17:50Z</time>
      </trkpt>
      <trkpt lat="43.64606" lon="2.38555">
        <ele>605.8</ele>
        <time>2025-09-16T15:17:51Z</time>
      </trkpt>
      <trkpt lat="43.64608" lon="2.38555">
        <ele>605.8</ele>
        <time>2025-09-16T15:17:52Z</time>
      </trkpt>
      <trkpt lat="43.64611" lon="2.38554">
        <ele>605.8</ele>
        <time>2025-09-16T15:17:53Z</time>
      </trkpt>
      <trkpt lat="43.64613" lon="2.38553">
        <ele>605.8</ele>
        <time>2025-09-16T15:17:54Z</time>
      </trkpt>
      <trkpt lat="43.64615" lon="2.38553">
        <ele>605.8</ele>
        <time>2025-09-16T15:17:55Z</time>
      </trkpt>
      <trkpt lat="43.64617" lon="2.38553">
        <ele>605.8</ele>
        <time>2025-09-16T15:17:56Z</time>
      </trkpt>
      <trkpt lat="43.6462" lon="2.38553">
        <ele>606</ele>
        <time>2025-09-16T15:17:57Z</time>
      </trkpt>
      <trkpt lat="43.64622" lon="2.38553">
        <ele>606.2</ele>
        <time>2025-09-16T15:17:58Z</time>
      </trkpt>
      <trkpt lat="43.64624" lon="2.38553">
        <ele>606.4</ele>
        <time>2025-09-16T15:17:59Z</time>
      </trkpt>
      <trkpt lat="43.64625" lon="2.38554">
        <ele>606.6</ele>
        <time>2025-09-16T15:18:00Z</time>
      </trkpt>
      <trkpt lat="43.64627" lon="2.38553">
        <ele>606.8</ele>
        <time>2025-09-16T15:18:01Z</time>
      </trkpt>
      <trkpt lat="43.64628" lon="2.38553">
        <ele>607</ele>
        <time>2025-09-16T15:18:02Z</time>
      </trkpt>
      <trkpt lat="43.64628" lon="2.38552">
        <ele>607.2</ele>
        <time>2025-09-16T15:18:03Z</time>
      </trkpt>
      <trkpt lat="43.64628" lon="2.38552">
        <ele>607.4</ele>
        <time>2025-09-16T15:18:04Z</time>
      </trkpt>
      <trkpt lat="43.64629" lon="2.38553">
        <ele>607.6</ele>
        <time>2025-09-16T15:18:05Z</time>
      </trkpt>
      <trkpt lat="43.64633" lon="2.38555">
        <ele>607.4</ele>
        <time>2025-09-16T15:18:27Z</time>
      </trkpt>
      <trkpt lat="43.64635" lon="2.38556">
        <ele>607</ele>
        <time>2025-09-16T15:18:28Z</time>
      </trkpt>
      <trkpt lat="43.64638" lon="2.38556">
        <ele>606.6</ele>
        <time>2025-09-16T15:18:29Z</time>
      </trkpt>
      <trkpt lat="43.64641" lon="2.38556">
        <ele>606.2</ele>
        <time>2025-09-16T15:18:30Z</time>
      </trkpt>
      <trkpt lat="43.64644" lon="2.38556">
        <ele>606</ele>
        <time>2025-09-16T15:18:31Z</time>
      </trkpt>
      <trkpt lat="43.64647" lon="2.38557">
        <ele>605.8</ele>
        <time>2025-09-16T15:18:32Z</time>
      </trkpt>
      <trkpt lat="43.64649" lon="2.38557">
        <ele>605.6</ele>
        <time>2025-09-16T15:18:33Z</time>
      </trkpt>
      <trkpt lat="43.64652" lon="2.38556">
        <ele>605.6</ele>
        <time>2025-09-16T15:18:34Z</time>
      </trkpt>
      <trkpt lat="43.64654" lon="2.38555">
        <ele>605.6</ele>
        <time>2025-09-16T15:18:35Z</time>
      </trkpt>
      <trkpt lat="43.64656" lon="2.38555">
        <ele>605.6</ele>
        <time>2025-09-16T15:18:36Z</time>
      </trkpt>
      <trkpt lat="43.64658" lon="2.38555">
        <ele>605.6</ele>
        <time>2025-09-16T15:18:37Z</time>
      </trkpt>
      <trkpt lat="43.6466" lon="2.38556">
        <ele>605.6</ele>
        <time>2025-09-16T15:18:38Z</time>
      </trkpt>
      <trkpt lat="43.64661" lon="2.38556">
        <ele>605.6</ele>
        <time>2025-09-16T15:18:39Z</time>
      </trkpt>
      <trkpt lat="43.64662" lon="2.38556">
        <ele>605.8</ele>
        <time>2025-09-16T15:18:40Z</time>
      </trkpt>
      <trkpt lat="43.64664" lon="2.38556">
        <ele>605.8</ele>
        <time>2025-09-16T15:18:41Z</time>
      </trkpt>
      <trkpt lat="43.64666" lon="2.38556">
        <ele>605.8</ele>
        <time>2025-09-16T15:18:42Z</time>
      </trkpt>
      <trkpt lat="43.64666" lon="2.38556">
        <ele>605.8</ele>
        <time>2025-09-16T15:18:43Z</time>
      </trkpt>
      <trkpt lat="43.64666" lon="2.38556">
        <ele>605.8</ele>
        <time>2025-09-16T15:18:44Z</time>
      </trkpt>
      <trkpt lat="43.64672" lon="2.38557">
        <ele>606</ele>
        <time>2025-09-16T15:19:00Z</time>
      </trkpt>
      <trkpt lat="43.64674" lon="2.38557">
        <ele>606</ele>
        <time>2025-09-16T15:19:01Z</time>
      </trkpt>
      <trkpt lat="43.64676" lon="2.38557">
        <ele>605.8</ele>
        <time>2025-09-16T15:19:02Z</time>
      </trkpt>
      <trkpt lat="43.64679" lon="2.38558">
        <ele>605.8</ele>
        <time>2025-09-16T15:19:03Z</time>
      </trkpt>
      <trkpt lat="43.64682" lon="2.38558">
        <ele>605.6</ele>
        <time>2025-09-16T15:19:04Z</time>
      </trkpt>
      <trkpt lat="43.64684" lon="2.38558">
        <ele>605.6</ele>
        <time>2025-09-16T15:19:05Z</time>
      </trkpt>
      <trkpt lat="43.64688" lon="2.38556">
        <ele>605.6</ele>
        <time>2025-09-16T15:19:06Z</time>
      </trkpt>
      <trkpt lat="43.6469" lon="2.38555">
        <ele>605.6</ele>
        <time>2025-09-16T15:19:07Z</time>
      </trkpt>
      <trkpt lat="43.64693" lon="2.38555">
        <ele>605.6</ele>
        <time>2025-09-16T15:19:08Z</time>
      </trkpt>
      <trkpt lat="43.64694" lon="2.38554">
        <ele>605.6</ele>
        <time>2025-09-16T15:19:09Z</time>
      </trkpt>
      <trkpt lat="43.64696" lon="2.38552">
        <ele>605.8</ele>
        <time>2025-09-16T15:19:10Z</time>
      </trkpt>
      <trkpt lat="43.64698" lon="2.38549">
        <ele>605.8</ele>
        <time>2025-09-16T15:19:11Z</time>
      </trkpt>
      <trkpt lat="43.64699" lon="2.38547">
        <ele>606</ele>
        <time>2025-09-16T15:19:12Z</time>
      </trkpt>
      <trkpt lat="43.647" lon="2.38545">
        <ele>606</ele>
        <time>2025-09-16T15:19:13Z</time>
      </trkpt>
      <trkpt lat="43.64702" lon="2.38543">
        <ele>606.4</ele>
        <time>2025-09-16T15:19:14Z</time>
      </trkpt>
      <trkpt lat="43.64703" lon="2.38542">
        <ele>606.6</ele>
        <time>2025-09-16T15:19:15Z</time>
      </trkpt>
      <trkpt lat="43.64704" lon="2.38541">
        <ele>607</ele>
        <time>2025-09-16T15:19:16Z</time>
      </trkpt>
      <trkpt lat="43.64704" lon="2.38541">
        <ele>607.2</ele>
        <time>2025-09-16T15:19:17Z</time>
      </trkpt>
      <trkpt lat="43.64705" lon="2.3854">
        <ele>607.6</ele>
        <time>2025-09-16T15:19:18Z</time>
      </trkpt>
      <trkpt lat="43.64706" lon="2.38539">
        <ele>608</ele>
        <time>2025-09-16T15:19:19Z</time>
      </trkpt>
      <trkpt lat="43.64707" lon="2.38538">
        <ele>608.4</ele>
        <time>2025-09-16T15:19:20Z</time>
      </trkpt>
      <trkpt lat="43.64708" lon="2.38538">
        <ele>608.8</ele>
        <time>2025-09-16T15:19:21Z</time>
      </trkpt>
      <trkpt lat="43.64709" lon="2.38537">
        <ele>609</ele>
        <time>2025-09-16T15:19:22Z</time>
      </trkpt>
      <trkpt lat="43.6471" lon="2.38537">
        <ele>609.2</ele>
        <time>2025-09-16T15:19:23Z</time>
      </trkpt>
      <trkpt lat="43.64711" lon="2.38536">
        <ele>609.4</ele>
        <time>2025-09-16T15:19:24Z</time>
      </trkpt>
      <trkpt lat="43.64732" lon="2.38548">
        <ele>607.6</ele>
        <time>2025-09-16T15:19:43Z</time>
      </trkpt>
      <trkpt lat="43.64735" lon="2.3855">
        <ele>607.2</ele>
        <time>2025-09-16T15:19:44Z</time>
      </trkpt>
      <trkpt lat="43.6474" lon="2.38551">
        <ele>606.6</ele>
        <time>2025-09-16T15:19:45Z</time>
      </trkpt>
      <trkpt lat="43.64744" lon="2.38551">
        <ele>606</ele>
        <time>2025-09-16T15:19:46Z</time>
      </trkpt>
      <trkpt lat="43.64748" lon="2.38551">
        <ele>605.8</ele>
        <time>2025-09-16T15:19:47Z</time>
      </trkpt>
      <trkpt lat="43.64752" lon="2.38549">
        <ele>605.6</ele>
        <time>2025-09-16T15:19:48Z</time>
      </trkpt>
      <trkpt lat="43.64754" lon="2.38548">
        <ele>605.4</ele>
        <time>2025-09-16T15:19:49Z</time>
      </trkpt>
      <trkpt lat="43.64756" lon="2.38547">
        <ele>605.6</ele>
        <time>2025-09-16T15:19:50Z</time>
      </trkpt>
      <trkpt lat="43.64758" lon="2.38546">
        <ele>605.6</ele>
        <time>2025-09-16T15:19:51Z</time>
      </trkpt>
      <trkpt lat="43.64762" lon="2.38544">
        <ele>605.8</ele>
        <time>2025-09-16T15:19:52Z</time>
      </trkpt>
      <trkpt lat="43.64764" lon="2.38542">
        <ele>605.8</ele>
        <time>2025-09-16T15:19:53Z</time>
      </trkpt>
      <trkpt lat="43.64766" lon="2.3854">
        <ele>606</ele>
        <time>2025-09-16T15:19:54Z</time>
      </trkpt>
      <trkpt lat="43.64768" lon="2.38539">
        <ele>606</ele>
        <time>2025-09-16T15:19:55Z</time>
      </trkpt>
      <trkpt lat="43.6477" lon="2.38539">
        <ele>606</ele>
        <time>2025-09-16T15:19:56Z</time>
      </trkpt>
      <trkpt lat="43.64772" lon="2.38537">
        <ele>606.2</ele>
        <time>2025-09-16T15:19:57Z</time>
      </trkpt>
      <trkpt lat="43.64774" lon="2.38535">
        <ele>606.2</ele>
        <time>2025-09-16T15:19:58Z</time>
      </trkpt>
      <trkpt lat="43.64775" lon="2.38534">
        <ele>606.4</ele>
        <time>2025-09-16T15:19:59Z</time>
      </trkpt>
      <trkpt lat="43.64776" lon="2.38533">
        <ele>606.6</ele>
        <time>2025-09-16T15:20:00Z</time>
      </trkpt>
      <trkpt lat="43.64776" lon="2.38533">
        <ele>606.6</ele>
        <time>2025-09-16T15:20:01Z</time>
      </trkpt>
      <trkpt lat="43.64769" lon="2.38536">
        <ele>606.6</ele>
        <time>2025-09-16T15:20:37Z</time>
      </trkpt>
      <trkpt lat="43.64768" lon="2.38535">
        <ele>606.8</ele>
        <time>2025-09-16T15:20:38Z</time>
      </trkpt>
      <trkpt lat="43.64767" lon="2.38533">
        <ele>606.8</ele>
        <time>2025-09-16T15:20:39Z</time>
      </trkpt>
      <trkpt lat="43.64767" lon="2.38532">
        <ele>607</ele>
        <time>2025-09-16T15:20:40Z</time>
      </trkpt>
      <trkpt lat="43.64765" lon="2.3853">
        <ele>607.2</ele>
        <time>2025-09-16T15:20:41Z</time>
      </trkpt>
      <trkpt lat="43.64764" lon="2.38529">
        <ele>607.6</ele>
        <time>2025-09-16T15:20:42Z</time>
      </trkpt>
      <trkpt lat="43.64763" lon="2.38528">
        <ele>607.8</ele>
        <time>2025-09-16T15:20:43Z</time>
      </trkpt>
      <trkpt lat="43.64762" lon="2.38527">
        <ele>608.2</ele>
        <time>2025-09-16T15:20:44Z</time>
      </trkpt>
      <trkpt lat="43.6476" lon="2.38527">
        <ele>608.4</ele>
        <time>2025-09-16T15:20:45Z</time>
      </trkpt>
      <trkpt lat="43.6476" lon="2.38526">
        <ele>608.6</ele>
        <time>2025-09-16T15:20:46Z</time>
      </trkpt>
      <trkpt lat="43.64758" lon="2.38525">
        <ele>608.8</ele>
        <time>2025-09-16T15:20:47Z</time>
      </trkpt>
      <trkpt lat="43.64757" lon="2.38524">
        <ele>609</ele>
        <time>2025-09-16T15:20:48Z</time>
      </trkpt>
      <trkpt lat="43.64756" lon="2.38523">
        <ele>609.2</ele>
        <time>2025-09-16T15:20:49Z</time>
      </trkpt>
      <trkpt lat="43.64756" lon="2.38523">
        <ele>609.4</ele>
        <time>2025-09-16T15:20:50Z</time>
      </trkpt>
      <trkpt lat="43.64755" lon="2.38522">
        <ele>609.6</ele>
        <time>2025-09-16T15:20:51Z</time>
      </trkpt>
      <trkpt lat="43.64755" lon="2.38521">
        <ele>609.8</ele>
        <time>2025-09-16T15:20:52Z</time>
      </trkpt>
      <trkpt lat="43.64754" lon="2.38519">
        <ele>610</ele>
        <time>2025-09-16T15:20:53Z</time>
      </trkpt>
      <trkpt lat="43.64753" lon="2.38517">
        <ele>610.2</ele>
        <time>2025-09-16T15:20:54Z</time>
      </trkpt>
      <trkpt lat="43.64752" lon="2.38515">
        <ele>610.4</ele>
        <time>2025-09-16T15:20:55Z</time>
      </trkpt>
      <trkpt lat="43.64751" lon="2.38514">
        <ele>610.8</ele>
        <time>2025-09-16T15:20:56Z</time>
      </trkpt>
      <trkpt lat="43.6475" lon="2.38512">
        <ele>611</ele>
        <time>2025-09-16T15:20:57Z</time>
      </trkpt>
      <trkpt lat="43.64749" lon="2.38511">
        <ele>611.4</ele>
        <time>2025-09-16T15:20:58Z</time>
      </trkpt>
      <trkpt lat="43.64748" lon="2.3851">
        <ele>611.6</ele>
        <time>2025-09-16T15:20:59Z</time>
      </trkpt>
      <trkpt lat="43.64747" lon="2.38509">
        <ele>612</ele>
        <time>2025-09-16T15:21:00Z</time>
      </trkpt>
      <trkpt lat="43.64747" lon="2.38508">
        <ele>612.2</ele>
        <time>2025-09-16T15:21:01Z</time>
      </trkpt>
      <trkpt lat="43.64746" lon="2.38507">
        <ele>612.6</ele>
        <time>2025-09-16T15:21:02Z</time>
      </trkpt>
      <trkpt lat="43.64745" lon="2.38507">
        <ele>612.8</ele>
        <time>2025-09-16T15:21:03Z</time>
      </trkpt>
      <trkpt lat="43.64744" lon="2.38507">
        <ele>613</ele>
        <time>2025-09-16T15:21:04Z</time>
      </trkpt>
      <trkpt lat="43.64743" lon="2.38507">
        <ele>613.2</ele>
        <time>2025-09-16T15:21:05Z</time>
      </trkpt>
      <trkpt lat="43.64742" lon="2.38507">
        <ele>613.4</ele>
        <time>2025-09-16T15:21:06Z</time>
      </trkpt>
      <trkpt lat="43.64741" lon="2.38508">
        <ele>613.6</ele>
        <time>2025-09-16T15:21:07Z</time>
      </trkpt>
      <trkpt lat="43.6474" lon="2.38508">
        <ele>613.6</ele>
        <time>2025-09-16T15:21:08Z</time>
      </trkpt>
      <trkpt lat="43.64738" lon="2.38509">
        <ele>613.8</ele>
        <time>2025-09-16T15:21:09Z</time>
      </trkpt>
      <trkpt lat="43.64736" lon="2.38509">
        <ele>613.8</ele>
        <time>2025-09-16T15:21:10Z</time>
      </trkpt>
      <trkpt lat="43.64734" lon="2.38509">
        <ele>614</ele>
        <time>2025-09-16T15:21:11Z</time>
      </trkpt>
      <trkpt lat="43.64732" lon="2.38508">
        <ele>614</ele>
        <time>2025-09-16T15:21:12Z</time>
      </trkpt>
      <trkpt lat="43.64731" lon="2.38507">
        <ele>614.2</ele>
        <time>2025-09-16T15:21:13Z</time>
      </trkpt>
      <trkpt lat="43.6473" lon="2.38506">
        <ele>614.4</ele>
        <time>2025-09-16T15:21:14Z</time>
      </trkpt>
      <trkpt lat="43.64729" lon="2.38504">
        <ele>614.6</ele>
        <time>2025-09-16T15:21:15Z</time>
      </trkpt>
      <trkpt lat="43.64728" lon="2.38503">
        <ele>614.8</ele>
        <time>2025-09-16T15:21:16Z</time>
      </trkpt>
      <trkpt lat="43.64727" lon="2.38502">
        <ele>615</ele>
        <time>2025-09-16T15:21:17Z</time>
      </trkpt>
      <trkpt lat="43.64727" lon="2.385">
        <ele>615.2</ele>
        <time>2025-09-16T15:21:18Z</time>
      </trkpt>
      <trkpt lat="43.64726" lon="2.38498">
        <ele>615.4</ele>
        <time>2025-09-16T15:21:19Z</time>
      </trkpt>
      <trkpt lat="43.64726" lon="2.38497">
        <ele>615.6</ele>
        <time>2025-09-16T15:21:20Z</time>
      </trkpt>
      <trkpt lat="43.64724" lon="2.38495">
        <ele>615.8</ele>
        <time>2025-09-16T15:21:21Z</time>
      </trkpt>
      <trkpt lat="43.64724" lon="2.38495">
        <ele>616</ele>
        <time>2025-09-16T15:21:22Z</time>
      </trkpt>
      <trkpt lat="43.64724" lon="2.38494">
        <ele>616.4</ele>
        <time>2025-09-16T15:21:23Z</time>
      </trkpt>
      <trkpt lat="43.64724" lon="2.38492">
        <ele>616.6</ele>
        <time>2025-09-16T15:21:24Z</time>
      </trkpt>
      <trkpt lat="43.64723" lon="2.3849">
        <ele>616.8</ele>
        <time>2025-09-16T15:21:25Z</time>
      </trkpt>
      <trkpt lat="43.64723" lon="2.38489">
        <ele>616.8</ele>
        <time>2025-09-16T15:21:26Z</time>
      </trkpt>
      <trkpt lat="43.64722" lon="2.38488">
        <ele>617</ele>
        <time>2025-09-16T15:21:27Z</time>
      </trkpt>
      <trkpt lat="43.64721" lon="2.38487">
        <ele>617.2</ele>
        <time>2025-09-16T15:21:28Z</time>
      </trkpt>
      <trkpt lat="43.64719" lon="2.38487">
        <ele>617.4</ele>
        <time>2025-09-16T15:21:29Z</time>
      </trkpt>
      <trkpt lat="43.64718" lon="2.38486">
        <ele>617.4</ele>
        <time>2025-09-16T15:21:30Z</time>
      </trkpt>
      <trkpt lat="43.64717" lon="2.38486">
        <ele>617.6</ele>
        <time>2025-09-16T15:21:31Z</time>
      </trkpt>
      <trkpt lat="43.64716" lon="2.38485">
        <ele>617.6</ele>
        <time>2025-09-16T15:21:32Z</time>
      </trkpt>
      <trkpt lat="43.64714" lon="2.38484">
        <ele>617.8</ele>
        <time>2025-09-16T15:21:33Z</time>
      </trkpt>
      <trkpt lat="43.64713" lon="2.38483">
        <ele>617.8</ele>
        <time>2025-09-16T15:21:34Z</time>
      </trkpt>
      <trkpt lat="43.64712" lon="2.38483">
        <ele>618</ele>
        <time>2025-09-16T15:21:35Z</time>
      </trkpt>
      <trkpt lat="43.64712" lon="2.38482">
        <ele>618</ele>
        <time>2025-09-16T15:21:36Z</time>
      </trkpt>
      <trkpt lat="43.64711" lon="2.38481">
        <ele>618.2</ele>
        <time>2025-09-16T15:21:37Z</time>
      </trkpt>
      <trkpt lat="43.64682" lon="2.3848">
        <ele>619.2</ele>
        <time>2025-09-16T15:21:58Z</time>
      </trkpt>
      <trkpt lat="43.64679" lon="2.38481">
        <ele>619.2</ele>
        <time>2025-09-16T15:21:59Z</time>
      </trkpt>
      <trkpt lat="43.64677" lon="2.38482">
        <ele>619</ele>
        <time>2025-09-16T15:22:00Z</time>
      </trkpt>
      <trkpt lat="43.64677" lon="2.38482">
        <ele>619</ele>
        <time>2025-09-16T15:22:01Z</time>
      </trkpt>
      <trkpt lat="43.64677" lon="2.38482">
        <ele>619.2</ele>
        <time>2025-09-16T15:22:02Z</time>
      </trkpt>
      <trkpt lat="43.64687" lon="2.38471">
        <ele>619.2</ele>
        <time>2025-09-16T15:22:40Z</time>
      </trkpt>
      <trkpt lat="43.64687" lon="2.3847">
        <ele>619.2</ele>
        <time>2025-09-16T15:22:41Z</time>
      </trkpt>
      <trkpt lat="43.64687" lon="2.38469">
        <ele>619.2</ele>
        <time>2025-09-16T15:22:42Z</time>
      </trkpt>
      <trkpt lat="43.64683" lon="2.38465">
        <ele>619</ele>
        <time>2025-09-16T15:22:46Z</time>
      </trkpt>
      <trkpt lat="43.64681" lon="2.38463">
        <ele>618.8</ele>
        <time>2025-09-16T15:22:47Z</time>
      </trkpt>
      <trkpt lat="43.6468" lon="2.38463">
        <ele>618.8</ele>
        <time>2025-09-16T15:22:48Z</time>
      </trkpt>
      <trkpt lat="43.64678" lon="2.38463">
        <ele>618.6</ele>
        <time>2025-09-16T15:22:49Z</time>
      </trkpt>
      <trkpt lat="43.64677" lon="2.38464">
        <ele>618.6</ele>
        <time>2025-09-16T15:22:50Z</time>
      </trkpt>
      <trkpt lat="43.64675" lon="2.38464">
        <ele>618.6</ele>
        <time>2025-09-16T15:22:51Z</time>
      </trkpt>
      <trkpt lat="43.64674" lon="2.38464">
        <ele>618.4</ele>
        <time>2025-09-16T15:22:52Z</time>
      </trkpt>
      <trkpt lat="43.64674" lon="2.38464">
        <ele>618.6</ele>
        <time>2025-09-16T15:22:53Z</time>
      </trkpt>
      <trkpt lat="43.64674" lon="2.38464">
        <ele>618.6</ele>
        <time>2025-09-16T15:22:54Z</time>
      </trkpt>
      <trkpt lat="43.64667" lon="2.38457">
        <ele>618.2</ele>
        <time>2025-09-16T15:23:10Z</time>
      </trkpt>
      <trkpt lat="43.64665" lon="2.38456">
        <ele>618.2</ele>
        <time>2025-09-16T15:23:11Z</time>
      </trkpt>
      <trkpt lat="43.64664" lon="2.38455">
        <ele>618</ele>
        <time>2025-09-16T15:23:12Z</time>
      </trkpt>
      <trkpt lat="43.64662" lon="2.38455">
        <ele>618</ele>
        <time>2025-09-16T15:23:13Z</time>
      </trkpt>
      <trkpt lat="43.64661" lon="2.38455">
        <ele>617.8</ele>
        <time>2025-09-16T15:23:14Z</time>
      </trkpt>
      <trkpt lat="43.6466" lon="2.38455">
        <ele>617.8</ele>
        <time>2025-09-16T15:23:15Z</time>
      </trkpt>
      <trkpt lat="43.64658" lon="2.38455">
        <ele>617.6</ele>
        <time>2025-09-16T15:23:16Z</time>
      </trkpt>
      <trkpt lat="43.64656" lon="2.38455">
        <ele>617.6</ele>
        <time>2025-09-16T15:23:17Z</time>
      </trkpt>
      <trkpt lat="43.64655" lon="2.38454">
        <ele>617.4</ele>
        <time>2025-09-16T15:23:18Z</time>
      </trkpt>
      <trkpt lat="43.64653" lon="2.38453">
        <ele>617.2</ele>
        <time>2025-09-16T15:23:19Z</time>
      </trkpt>
      <trkpt lat="43.64653" lon="2.3845">
        <ele>617</ele>
        <time>2025-09-16T15:23:20Z</time>
      </trkpt>
      <trkpt lat="43.64651" lon="2.38447">
        <ele>616.8</ele>
        <time>2025-09-16T15:23:21Z</time>
      </trkpt>
      <trkpt lat="43.64649" lon="2.38443">
        <ele>616.6</ele>
        <time>2025-09-16T15:23:22Z</time>
      </trkpt>
      <trkpt lat="43.64649" lon="2.38439">
        <ele>616.4</ele>
        <time>2025-09-16T15:23:23Z</time>
      </trkpt>
      <trkpt lat="43.64649" lon="2.38437">
        <ele>616.2</ele>
        <time>2025-09-16T15:23:24Z</time>
      </trkpt>
      <trkpt lat="43.64649" lon="2.38435">
        <ele>616.2</ele>
        <time>2025-09-16T15:23:25Z</time>
      </trkpt>
      <trkpt lat="43.6465" lon="2.38432">
        <ele>616.2</ele>
        <time>2025-09-16T15:23:26Z</time>
      </trkpt>
      <trkpt lat="43.6465" lon="2.38428">
        <ele>616.2</ele>
        <time>2025-09-16T15:23:27Z</time>
      </trkpt>
      <trkpt lat="43.6465" lon="2.38425">
        <ele>616.2</ele>
        <time>2025-09-16T15:23:28Z</time>
      </trkpt>
      <trkpt lat="43.64648" lon="2.38419">
        <ele>616.4</ele>
        <time>2025-09-16T15:23:29Z</time>
      </trkpt>
      <trkpt lat="43.64647" lon="2.38417">
        <ele>616.4</ele>
        <time>2025-09-16T15:23:30Z</time>
      </trkpt>
      <trkpt lat="43.64644" lon="2.38413">
        <ele>616.6</ele>
        <time>2025-09-16T15:23:31Z</time>
      </trkpt>
      <trkpt lat="43.64641" lon="2.38411">
        <ele>616.6</ele>
        <time>2025-09-16T15:23:32Z</time>
      </trkpt>
      <trkpt lat="43.64638" lon="2.38409">
        <ele>616.8</ele>
        <time>2025-09-16T15:23:33Z</time>
      </trkpt>
      <trkpt lat="43.64634" lon="2.38408">
        <ele>616.8</ele>
        <time>2025-09-16T15:23:34Z</time>
      </trkpt>
      <trkpt lat="43.64631" lon="2.38407">
        <ele>616.8</ele>
        <time>2025-09-16T15:23:35Z</time>
      </trkpt>
      <trkpt lat="43.64628" lon="2.38407">
        <ele>616.8</ele>
        <time>2025-09-16T15:23:36Z</time>
      </trkpt>
      <trkpt lat="43.64624" lon="2.38405">
        <ele>616.8</ele>
        <time>2025-09-16T15:23:37Z</time>
      </trkpt>
      <trkpt lat="43.64621" lon="2.38404">
        <ele>617</ele>
        <time>2025-09-16T15:23:38Z</time>
      </trkpt>
      <trkpt lat="43.64618" lon="2.38402">
        <ele>617.2</ele>
        <time>2025-09-16T15:23:39Z</time>
      </trkpt>
      <trkpt lat="43.64615" lon="2.384">
        <ele>617.2</ele>
        <time>2025-09-16T15:23:40Z</time>
      </trkpt>
      <trkpt lat="43.64612" lon="2.38399">
        <ele>617.4</ele>
        <time>2025-09-16T15:23:41Z</time>
      </trkpt>
      <trkpt lat="43.64609" lon="2.38398">
        <ele>617.4</ele>
        <time>2025-09-16T15:23:42Z</time>
      </trkpt>
      <trkpt lat="43.64607" lon="2.38397">
        <ele>617.6</ele>
        <time>2025-09-16T15:23:43Z</time>
      </trkpt>
      <trkpt lat="43.64604" lon="2.38395">
        <ele>617.6</ele>
        <time>2025-09-16T15:23:44Z</time>
      </trkpt>
      <trkpt lat="43.64601" lon="2.38394">
        <ele>617.8</ele>
        <time>2025-09-16T15:23:45Z</time>
      </trkpt>
      <trkpt lat="43.64598" lon="2.38392">
        <ele>618</ele>
        <time>2025-09-16T15:23:46Z</time>
      </trkpt>
      <trkpt lat="43.64595" lon="2.3839">
        <ele>618.2</ele>
        <time>2025-09-16T15:23:47Z</time>
      </trkpt>
      <trkpt lat="43.64593" lon="2.38389">
        <ele>618.2</ele>
        <time>2025-09-16T15:23:48Z</time>
      </trkpt>
      <trkpt lat="43.6459" lon="2.38388">
        <ele>618.4</ele>
        <time>2025-09-16T15:23:49Z</time>
      </trkpt>
      <trkpt lat="43.64587" lon="2.38387">
        <ele>618.4</ele>
        <time>2025-09-16T15:23:50Z</time>
      </trkpt>
      <trkpt lat="43.64585" lon="2.38385">
        <ele>618.6</ele>
        <time>2025-09-16T15:23:51Z</time>
      </trkpt>
      <trkpt lat="43.64582" lon="2.38384">
        <ele>618.8</ele>
        <time>2025-09-16T15:23:52Z</time>
      </trkpt>
      <trkpt lat="43.64579" lon="2.38382">
        <ele>618.8</ele>
        <time>2025-09-16T15:23:53Z</time>
      </trkpt>
      <trkpt lat="43.64577" lon="2.3838">
        <ele>619</ele>
        <time>2025-09-16T15:23:54Z</time>
      </trkpt>
      <trkpt lat="43.64574" lon="2.38379">
        <ele>619</ele>
        <time>2025-09-16T15:23:55Z</time>
      </trkpt>
      <trkpt lat="43.6457" lon="2.38377">
        <ele>619.2</ele>
        <time>2025-09-16T15:23:56Z</time>
      </trkpt>
      <trkpt lat="43.64568" lon="2.38375">
        <ele>619.4</ele>
        <time>2025-09-16T15:23:57Z</time>
      </trkpt>
      <trkpt lat="43.64566" lon="2.38373">
        <ele>619.8</ele>
        <time>2025-09-16T15:23:58Z</time>
      </trkpt>
      <trkpt lat="43.64564" lon="2.38371">
        <ele>620</ele>
        <time>2025-09-16T15:23:59Z</time>
      </trkpt>
      <trkpt lat="43.64561" lon="2.38369">
        <ele>620</ele>
        <time>2025-09-16T15:24:00Z</time>
      </trkpt>
      <trkpt lat="43.64559" lon="2.38366">
        <ele>620.2</ele>
        <time>2025-09-16T15:24:01Z</time>
      </trkpt>
      <trkpt lat="43.64556" lon="2.38364">
        <ele>620.4</ele>
        <time>2025-09-16T15:24:02Z</time>
      </trkpt>
      <trkpt lat="43.64554" lon="2.38362">
        <ele>620.6</ele>
        <time>2025-09-16T15:24:03Z</time>
      </trkpt>
      <trkpt lat="43.64552" lon="2.38359">
        <ele>620.8</ele>
        <time>2025-09-16T15:24:04Z</time>
      </trkpt>
      <trkpt lat="43.64549" lon="2.38356">
        <ele>621</ele>
        <time>2025-09-16T15:24:05Z</time>
      </trkpt>
      <trkpt lat="43.64548" lon="2.38354">
        <ele>621.2</ele>
        <time>2025-09-16T15:24:06Z</time>
      </trkpt>
      <trkpt lat="43.64546" lon="2.38351">
        <ele>621.4</ele>
        <time>2025-09-16T15:24:07Z</time>
      </trkpt>
      <trkpt lat="43.64544" lon="2.38348">
        <ele>621.6</ele>
        <time>2025-09-16T15:24:08Z</time>
      </trkpt>
      <trkpt lat="43.64543" lon="2.38345">
        <ele>621.8</ele>
        <time>2025-09-16T15:24:09Z</time>
      </trkpt>
      <trkpt lat="43.64541" lon="2.38343">
        <ele>622</ele>
        <time>2025-09-16T15:24:10Z</time>
      </trkpt>
      <trkpt lat="43.6454" lon="2.3834">
        <ele>622</ele>
        <time>2025-09-16T15:24:11Z</time>
      </trkpt>
      <trkpt lat="43.64539" lon="2.38337">
        <ele>622.2</ele>
        <time>2025-09-16T15:24:12Z</time>
      </trkpt>
      <trkpt lat="43.64537" lon="2.38333">
        <ele>622.2</ele>
        <time>2025-09-16T15:24:13Z</time>
      </trkpt>
      <trkpt lat="43.64535" lon="2.38331">
        <ele>622.4</ele>
        <time>2025-09-16T15:24:14Z</time>
      </trkpt>
      <trkpt lat="43.64534" lon="2.38328">
        <ele>622.4</ele>
        <time>2025-09-16T15:24:15Z</time>
      </trkpt>
      <trkpt lat="43.64533" lon="2.38325">
        <ele>622.6</ele>
        <time>2025-09-16T15:24:16Z</time>
      </trkpt>
      <trkpt lat="43.6453" lon="2.38322">
        <ele>622.8</ele>
        <time>2025-09-16T15:24:17Z</time>
      </trkpt>
      <trkpt lat="43.64529" lon="2.38319">
        <ele>622.8</ele>
        <time>2025-09-16T15:24:18Z</time>
      </trkpt>
      <trkpt lat="43.64527" lon="2.38317">
        <ele>623</ele>
        <time>2025-09-16T15:24:19Z</time>
      </trkpt>
      <trkpt lat="43.64525" lon="2.38314">
        <ele>623</ele>
        <time>2025-09-16T15:24:20Z</time>
      </trkpt>
      <trkpt lat="43.64524" lon="2.38311">
        <ele>623.2</ele>
        <time>2025-09-16T15:24:21Z</time>
      </trkpt>
      <trkpt lat="43.64522" lon="2.38308">
        <ele>623.4</ele>
        <time>2025-09-16T15:24:22Z</time>
      </trkpt>
      <trkpt lat="43.64521" lon="2.38305">
        <ele>623.6</ele>
        <time>2025-09-16T15:24:23Z</time>
      </trkpt>
      <trkpt lat="43.64519" lon="2.38302">
        <ele>623.8</ele>
        <time>2025-09-16T15:24:24Z</time>
      </trkpt>
      <trkpt lat="43.64517" lon="2.383">
        <ele>623.8</ele>
        <time>2025-09-16T15:24:25Z</time>
      </trkpt>
      <trkpt lat="43.64516" lon="2.38297">
        <ele>624</ele>
        <time>2025-09-16T15:24:26Z</time>
      </trkpt>
      <trkpt lat="43.64514" lon="2.38295">
        <ele>624.2</ele>
        <time>2025-09-16T15:24:27Z</time>
      </trkpt>
      <trkpt lat="43.64513" lon="2.38292">
        <ele>624.4</ele>
        <time>2025-09-16T15:24:28Z</time>
      </trkpt>
      <trkpt lat="43.64512" lon="2.38289">
        <ele>624.6</ele>
        <time>2025-09-16T15:24:29Z</time>
      </trkpt>
      <trkpt lat="43.64511" lon="2.38287">
        <ele>624.6</ele>
        <time>2025-09-16T15:24:30Z</time>
      </trkpt>
      <trkpt lat="43.64509" lon="2.38285">
        <ele>624.8</ele>
        <time>2025-09-16T15:24:31Z</time>
      </trkpt>
      <trkpt lat="43.64508" lon="2.38282">
        <ele>625</ele>
        <time>2025-09-16T15:24:32Z</time>
      </trkpt>
      <trkpt lat="43.64507" lon="2.38279">
        <ele>625.2</ele>
        <time>2025-09-16T15:24:33Z</time>
      </trkpt>
      <trkpt lat="43.64506" lon="2.38277">
        <ele>625.4</ele>
        <time>2025-09-16T15:24:34Z</time>
      </trkpt>
      <trkpt lat="43.64505" lon="2.38275">
        <ele>625.6</ele>
        <time>2025-09-16T15:24:35Z</time>
      </trkpt>
      <trkpt lat="43.64504" lon="2.38273">
        <ele>625.6</ele>
        <time>2025-09-16T15:24:36Z</time>
      </trkpt>
      <trkpt lat="43.64503" lon="2.3827">
        <ele>625.8</ele>
        <time>2025-09-16T15:24:37Z</time>
      </trkpt>
      <trkpt lat="43.64502" lon="2.38268">
        <ele>626</ele>
        <time>2025-09-16T15:24:38Z</time>
      </trkpt>
      <trkpt lat="43.645" lon="2.38266">
        <ele>626</ele>
        <time>2025-09-16T15:24:39Z</time>
      </trkpt>
      <trkpt lat="43.64499" lon="2.38264">
        <ele>626.2</ele>
        <time>2025-09-16T15:24:40Z</time>
      </trkpt>
      <trkpt lat="43.64498" lon="2.38262">
        <ele>626.4</ele>
        <time>2025-09-16T15:24:41Z</time>
      </trkpt>
      <trkpt lat="43.64496" lon="2.3826">
        <ele>626.6</ele>
        <time>2025-09-16T15:24:42Z</time>
      </trkpt>
      <trkpt lat="43.64495" lon="2.38258">
        <ele>626.6</ele>
        <time>2025-09-16T15:24:43Z</time>
      </trkpt>
      <trkpt lat="43.64493" lon="2.38255">
        <ele>626.8</ele>
        <time>2025-09-16T15:24:44Z</time>
      </trkpt>
      <trkpt lat="43.64491" lon="2.38254">
        <ele>627</ele>
        <time>2025-09-16T15:24:45Z</time>
      </trkpt>
      <trkpt lat="43.6449" lon="2.38251">
        <ele>627</ele>
        <time>2025-09-16T15:24:46Z</time>
      </trkpt>
      <trkpt lat="43.64488" lon="2.38248">
        <ele>627.2</ele>
        <time>2025-09-16T15:24:47Z</time>
      </trkpt>
      <trkpt lat="43.64487" lon="2.38246">
        <ele>627.4</ele>
        <time>2025-09-16T15:24:48Z</time>
      </trkpt>
      <trkpt lat="43.64486" lon="2.38244">
        <ele>627.4</ele>
        <time>2025-09-16T15:24:49Z</time>
      </trkpt>
      <trkpt lat="43.64484" lon="2.38241">
        <ele>627.6</ele>
        <time>2025-09-16T15:24:50Z</time>
      </trkpt>
      <trkpt lat="43.64482" lon="2.38239">
        <ele>627.8</ele>
        <time>2025-09-16T15:24:51Z</time>
      </trkpt>
      <trkpt lat="43.64481" lon="2.38236">
        <ele>628</ele>
        <time>2025-09-16T15:24:52Z</time>
      </trkpt>
      <trkpt lat="43.6448" lon="2.38234">
        <ele>628.2</ele>
        <time>2025-09-16T15:24:53Z</time>
      </trkpt>
      <trkpt lat="43.64478" lon="2.38232">
        <ele>628.4</ele>
        <time>2025-09-16T15:24:54Z</time>
      </trkpt>
      <trkpt lat="43.64475" lon="2.3823">
        <ele>628.4</ele>
        <time>2025-09-16T15:24:55Z</time>
      </trkpt>
      <trkpt lat="43.64474" lon="2.38228">
        <ele>628.6</ele>
        <time>2025-09-16T15:24:56Z</time>
      </trkpt>
      <trkpt lat="43.64472" lon="2.38225">
        <ele>628.8</ele>
        <time>2025-09-16T15:24:57Z</time>
      </trkpt>
      <trkpt lat="43.64471" lon="2.38223">
        <ele>628.8</ele>
        <time>2025-09-16T15:24:58Z</time>
      </trkpt>
      <trkpt lat="43.64469" lon="2.3822">
        <ele>629</ele>
        <time>2025-09-16T15:24:59Z</time>
      </trkpt>
      <trkpt lat="43.64467" lon="2.38218">
        <ele>629</ele>
        <time>2025-09-16T15:25:00Z</time>
      </trkpt>
      <trkpt lat="43.64464" lon="2.38216">
        <ele>629.2</ele>
        <time>2025-09-16T15:25:01Z</time>
      </trkpt>
      <trkpt lat="43.64462" lon="2.38214">
        <ele>629.2</ele>
        <time>2025-09-16T15:25:02Z</time>
      </trkpt>
      <trkpt lat="43.6446" lon="2.38211">
        <ele>629.2</ele>
        <time>2025-09-16T15:25:03Z</time>
      </trkpt>
      <trkpt lat="43.64457" lon="2.38209">
        <ele>629.2</ele>
        <time>2025-09-16T15:25:04Z</time>
      </trkpt>
      <trkpt lat="43.64455" lon="2.38207">
        <ele>629.4</ele>
        <time>2025-09-16T15:25:05Z</time>
      </trkpt>
      <trkpt lat="43.64452" lon="2.38205">
        <ele>629.4</ele>
        <time>2025-09-16T15:25:06Z</time>
      </trkpt>
      <trkpt lat="43.64449" lon="2.38203">
        <ele>629.4</ele>
        <time>2025-09-16T15:25:07Z</time>
      </trkpt>
      <trkpt lat="43.64447" lon="2.382">
        <ele>629.4</ele>
        <time>2025-09-16T15:25:08Z</time>
      </trkpt>
      <trkpt lat="43.64445" lon="2.38197">
        <ele>629.4</ele>
        <time>2025-09-16T15:25:09Z</time>
      </trkpt>
      <trkpt lat="43.64443" lon="2.38193">
        <ele>629.4</ele>
        <time>2025-09-16T15:25:10Z</time>
      </trkpt>
      <trkpt lat="43.64441" lon="2.3819">
        <ele>629.2</ele>
        <time>2025-09-16T15:25:11Z</time>
      </trkpt>
      <trkpt lat="43.64439" lon="2.38186">
        <ele>629.2</ele>
        <time>2025-09-16T15:25:12Z</time>
      </trkpt>
      <trkpt lat="43.64437" lon="2.38183">
        <ele>629.2</ele>
        <time>2025-09-16T15:25:13Z</time>
      </trkpt>
      <trkpt lat="43.64435" lon="2.38179">
        <ele>629</ele>
        <time>2025-09-16T15:25:14Z</time>
      </trkpt>
      <trkpt lat="43.64433" lon="2.38176">
        <ele>629</ele>
        <time>2025-09-16T15:25:15Z</time>
      </trkpt>
      <trkpt lat="43.64431" lon="2.38172">
        <ele>629</ele>
        <time>2025-09-16T15:25:16Z</time>
      </trkpt>
      <trkpt lat="43.64429" lon="2.38168">
        <ele>629</ele>
        <time>2025-09-16T15:25:17Z</time>
      </trkpt>
      <trkpt lat="43.64426" lon="2.38165">
        <ele>629</ele>
        <time>2025-09-16T15:25:18Z</time>
      </trkpt>
      <trkpt lat="43.64424" lon="2.38161">
        <ele>629</ele>
        <time>2025-09-16T15:25:19Z</time>
      </trkpt>
      <trkpt lat="43.64422" lon="2.38157">
        <ele>629</ele>
        <time>2025-09-16T15:25:20Z</time>
      </trkpt>
      <trkpt lat="43.6442" lon="2.38153">
        <ele>629.2</ele>
        <time>2025-09-16T15:25:21Z</time>
      </trkpt>
      <trkpt lat="43.64418" lon="2.3815">
        <ele>629.2</ele>
        <time>2025-09-16T15:25:22Z</time>
      </trkpt>
      <trkpt lat="43.64415" lon="2.38147">
        <ele>629.4</ele>
        <time>2025-09-16T15:25:23Z</time>
      </trkpt>
      <trkpt lat="43.64413" lon="2.38143">
        <ele>629.4</ele>
        <time>2025-09-16T15:25:24Z</time>
      </trkpt>
      <trkpt lat="43.64411" lon="2.3814">
        <ele>629.4</ele>
        <time>2025-09-16T15:25:25Z</time>
      </trkpt>
      <trkpt lat="43.64409" lon="2.38136">
        <ele>629.4</ele>
        <time>2025-09-16T15:25:26Z</time>
      </trkpt>
      <trkpt lat="43.64407" lon="2.38133">
        <ele>629.6</ele>
        <time>2025-09-16T15:25:27Z</time>
      </trkpt>
      <trkpt lat="43.64405" lon="2.3813">
        <ele>629.6</ele>
        <time>2025-09-16T15:25:28Z</time>
      </trkpt>
      <trkpt lat="43.64403" lon="2.38127">
        <ele>629.6</ele>
        <time>2025-09-16T15:25:29Z</time>
      </trkpt>
      <trkpt lat="43.64401" lon="2.38124">
        <ele>629.8</ele>
        <time>2025-09-16T15:25:30Z</time>
      </trkpt>
      <trkpt lat="43.64399" lon="2.38121">
        <ele>629.8</ele>
        <time>2025-09-16T15:25:31Z</time>
      </trkpt>
      <trkpt lat="43.64397" lon="2.38119">
        <ele>629.8</ele>
        <time>2025-09-16T15:25:32Z</time>
      </trkpt>
      <trkpt lat="43.64396" lon="2.38116">
        <ele>630</ele>
        <time>2025-09-16T15:25:33Z</time>
      </trkpt>
      <trkpt lat="43.64394" lon="2.38114">
        <ele>630</ele>
        <time>2025-09-16T15:25:34Z</time>
      </trkpt>
      <trkpt lat="43.64392" lon="2.38113">
        <ele>630.2</ele>
        <time>2025-09-16T15:25:35Z</time>
      </trkpt>
      <trkpt lat="43.6439" lon="2.38111">
        <ele>630.2</ele>
        <time>2025-09-16T15:25:36Z</time>
      </trkpt>
      <trkpt lat="43.64388" lon="2.38109">
        <ele>630.2</ele>
        <time>2025-09-16T15:25:37Z</time>
      </trkpt>
      <trkpt lat="43.64388" lon="2.38106">
        <ele>630.4</ele>
        <time>2025-09-16T15:25:38Z</time>
      </trkpt>
      <trkpt lat="43.64389" lon="2.38103">
        <ele>630.2</ele>
        <time>2025-09-16T15:25:39Z</time>
      </trkpt>
      <trkpt lat="43.64392" lon="2.38101">
        <ele>630.2</ele>
        <time>2025-09-16T15:25:40Z</time>
      </trkpt>
      <trkpt lat="43.64394" lon="2.381">
        <ele>630.2</ele>
        <time>2025-09-16T15:25:41Z</time>
      </trkpt>
      <trkpt lat="43.64397" lon="2.38099">
        <ele>630.2</ele>
        <time>2025-09-16T15:25:42Z</time>
      </trkpt>
      <trkpt lat="43.644" lon="2.38098">
        <ele>630.2</ele>
        <time>2025-09-16T15:25:43Z</time>
      </trkpt>
      <trkpt lat="43.64402" lon="2.38096">
        <ele>630.2</ele>
        <time>2025-09-16T15:25:44Z</time>
      </trkpt>
      <trkpt lat="43.64404" lon="2.38095">
        <ele>630.4</ele>
        <time>2025-09-16T15:25:45Z</time>
      </trkpt>
      <trkpt lat="43.64406" lon="2.38093">
        <ele>630.6</ele>
        <time>2025-09-16T15:25:46Z</time>
      </trkpt>
      <trkpt lat="43.64407" lon="2.38092">
        <ele>630.8</ele>
        <time>2025-09-16T15:25:47Z</time>
      </trkpt>
      <trkpt lat="43.64409" lon="2.3809">
        <ele>631</ele>
        <time>2025-09-16T15:25:48Z</time>
      </trkpt>
      <trkpt lat="43.64411" lon="2.38089">
        <ele>631.2</ele>
        <time>2025-09-16T15:25:49Z</time>
      </trkpt>
      <trkpt lat="43.64413" lon="2.38087">
        <ele>631.6</ele>
        <time>2025-09-16T15:25:50Z</time>
      </trkpt>
      <trkpt lat="43.64414" lon="2.38086">
        <ele>631.8</ele>
        <time>2025-09-16T15:25:51Z</time>
      </trkpt>
      <trkpt lat="43.64416" lon="2.38086">
        <ele>632</ele>
        <time>2025-09-16T15:25:52Z</time>
      </trkpt>
      <trkpt lat="43.64418" lon="2.38086">
        <ele>632.4</ele>
        <time>2025-09-16T15:25:53Z</time>
      </trkpt>
      <trkpt lat="43.64419" lon="2.38085">
        <ele>632.6</ele>
        <time>2025-09-16T15:25:54Z</time>
      </trkpt>
      <trkpt lat="43.6442" lon="2.38085">
        <ele>633</ele>
        <time>2025-09-16T15:25:55Z</time>
      </trkpt>
      <trkpt lat="43.64422" lon="2.38084">
        <ele>633.2</ele>
        <time>2025-09-16T15:25:56Z</time>
      </trkpt>
      <trkpt lat="43.64424" lon="2.38083">
        <ele>633.4</ele>
        <time>2025-09-16T15:25:57Z</time>
      </trkpt>
      <trkpt lat="43.64425" lon="2.38082">
        <ele>633.6</ele>
        <time>2025-09-16T15:25:58Z</time>
      </trkpt>
      <trkpt lat="43.64427" lon="2.38081">
        <ele>633.8</ele>
        <time>2025-09-16T15:25:59Z</time>
      </trkpt>
      <trkpt lat="43.64429" lon="2.3808">
        <ele>634</ele>
        <time>2025-09-16T15:26:00Z</time>
      </trkpt>
      <trkpt lat="43.64432" lon="2.38079">
        <ele>634.2</ele>
        <time>2025-09-16T15:26:01Z</time>
      </trkpt>
      <trkpt lat="43.64433" lon="2.38079">
        <ele>634.4</ele>
        <time>2025-09-16T15:26:02Z</time>
      </trkpt>
      <trkpt lat="43.64435" lon="2.38077">
        <ele>634.6</ele>
        <time>2025-09-16T15:26:03Z</time>
      </trkpt>
      <trkpt lat="43.64436" lon="2.38077">
        <ele>635</ele>
        <time>2025-09-16T15:26:04Z</time>
      </trkpt>
      <trkpt lat="43.64438" lon="2.38076">
        <ele>635.2</ele>
        <time>2025-09-16T15:26:05Z</time>
      </trkpt>
      <trkpt lat="43.6444" lon="2.38076">
        <ele>635.4</ele>
        <time>2025-09-16T15:26:06Z</time>
      </trkpt>
      <trkpt lat="43.64442" lon="2.38075">
        <ele>635.6</ele>
        <time>2025-09-16T15:26:07Z</time>
      </trkpt>
      <trkpt lat="43.64443" lon="2.38074">
        <ele>635.8</ele>
        <time>2025-09-16T15:26:08Z</time>
      </trkpt>
      <trkpt lat="43.64445" lon="2.38074">
        <ele>635.8</ele>
        <time>2025-09-16T15:26:09Z</time>
      </trkpt>
      <trkpt lat="43.64447" lon="2.38073">
        <ele>636</ele>
        <time>2025-09-16T15:26:10Z</time>
      </trkpt>
      <trkpt lat="43.64449" lon="2.38073">
        <ele>636.2</ele>
        <time>2025-09-16T15:26:11Z</time>
      </trkpt>
      <trkpt lat="43.6445" lon="2.38072">
        <ele>636.4</ele>
        <time>2025-09-16T15:26:12Z</time>
      </trkpt>
      <trkpt lat="43.64452" lon="2.38071">
        <ele>636.4</ele>
        <time>2025-09-16T15:26:13Z</time>
      </trkpt>
      <trkpt lat="43.64454" lon="2.38071">
        <ele>636.6</ele>
        <time>2025-09-16T15:26:14Z</time>
      </trkpt>
      <trkpt lat="43.64455" lon="2.38069">
        <ele>636.8</ele>
        <time>2025-09-16T15:26:15Z</time>
      </trkpt>
      <trkpt lat="43.64457" lon="2.38068">
        <ele>636.8</ele>
        <time>2025-09-16T15:26:16Z</time>
      </trkpt>
      <trkpt lat="43.64458" lon="2.38066">
        <ele>637</ele>
        <time>2025-09-16T15:26:17Z</time>
      </trkpt>
      <trkpt lat="43.64459" lon="2.38065">
        <ele>637.2</ele>
        <time>2025-09-16T15:26:18Z</time>
      </trkpt>
      <trkpt lat="43.64461" lon="2.38062">
        <ele>637.4</ele>
        <time>2025-09-16T15:26:19Z</time>
      </trkpt>
      <trkpt lat="43.64461" lon="2.3806">
        <ele>637.6</ele>
        <time>2025-09-16T15:26:20Z</time>
      </trkpt>
      <trkpt lat="43.64462" lon="2.38057">
        <ele>637.6</ele>
        <time>2025-09-16T15:26:21Z</time>
      </trkpt>
      <trkpt lat="43.64462" lon="2.38055">
        <ele>637.8</ele>
        <time>2025-09-16T15:26:22Z</time>
      </trkpt>
      <trkpt lat="43.64462" lon="2.38053">
        <ele>638</ele>
        <time>2025-09-16T15:26:23Z</time>
      </trkpt>
      <trkpt lat="43.64461" lon="2.38051">
        <ele>638.2</ele>
        <time>2025-09-16T15:26:24Z</time>
      </trkpt>
      <trkpt lat="43.64461" lon="2.38048">
        <ele>638.4</ele>
        <time>2025-09-16T15:26:25Z</time>
      </trkpt>
      <trkpt lat="43.64461" lon="2.38045">
        <ele>638.4</ele>
        <time>2025-09-16T15:26:26Z</time>
      </trkpt>
      <trkpt lat="43.64461" lon="2.38043">
        <ele>638.6</ele>
        <time>2025-09-16T15:26:27Z</time>
      </trkpt>
      <trkpt lat="43.64461" lon="2.38041">
        <ele>638.6</ele>
        <time>2025-09-16T15:26:28Z</time>
      </trkpt>
      <trkpt lat="43.64461" lon="2.38038">
        <ele>638.8</ele>
        <time>2025-09-16T15:26:29Z</time>
      </trkpt>
      <trkpt lat="43.64461" lon="2.38035">
        <ele>638.8</ele>
        <time>2025-09-16T15:26:30Z</time>
      </trkpt>
      <trkpt lat="43.64462" lon="2.38032">
        <ele>638.8</ele>
        <time>2025-09-16T15:26:31Z</time>
      </trkpt>
      <trkpt lat="43.64462" lon="2.38029">
        <ele>639</ele>
        <time>2025-09-16T15:26:32Z</time>
      </trkpt>
      <trkpt lat="43.64462" lon="2.38025">
        <ele>639</ele>
        <time>2025-09-16T15:26:33Z</time>
      </trkpt>
      <trkpt lat="43.64463" lon="2.38022">
        <ele>639.2</ele>
        <time>2025-09-16T15:26:34Z</time>
      </trkpt>
      <trkpt lat="43.64462" lon="2.3802">
        <ele>639.2</ele>
        <time>2025-09-16T15:26:35Z</time>
      </trkpt>
      <trkpt lat="43.64462" lon="2.38017">
        <ele>639.4</ele>
        <time>2025-09-16T15:26:36Z</time>
      </trkpt>
      <trkpt lat="43.64462" lon="2.38014">
        <ele>639.4</ele>
        <time>2025-09-16T15:26:37Z</time>
      </trkpt>
      <trkpt lat="43.64462" lon="2.38011">
        <ele>639.6</ele>
        <time>2025-09-16T15:26:38Z</time>
      </trkpt>
      <trkpt lat="43.64463" lon="2.38008">
        <ele>639.6</ele>
        <time>2025-09-16T15:26:39Z</time>
      </trkpt>
      <trkpt lat="43.64462" lon="2.38005">
        <ele>639.8</ele>
        <time>2025-09-16T15:26:40Z</time>
      </trkpt>
      <trkpt lat="43.64462" lon="2.38002">
        <ele>639.8</ele>
        <time>2025-09-16T15:26:41Z</time>
      </trkpt>
      <trkpt lat="43.64461" lon="2.38">
        <ele>639.8</ele>
        <time>2025-09-16T15:26:42Z</time>
      </trkpt>
      <trkpt lat="43.64461" lon="2.37997">
        <ele>640</ele>
        <time>2025-09-16T15:26:43Z</time>
      </trkpt>
      <trkpt lat="43.64461" lon="2.37994">
        <ele>640</ele>
        <time>2025-09-16T15:26:44Z</time>
      </trkpt>
      <trkpt lat="43.6446" lon="2.37991">
        <ele>640</ele>
        <time>2025-09-16T15:26:45Z</time>
      </trkpt>
      <trkpt lat="43.6446" lon="2.37988">
        <ele>640</ele>
        <time>2025-09-16T15:26:46Z</time>
      </trkpt>
      <trkpt lat="43.64459" lon="2.37984">
        <ele>640</ele>
        <time>2025-09-16T15:26:47Z</time>
      </trkpt>
      <trkpt lat="43.64459" lon="2.37981">
        <ele>640.2</ele>
        <time>2025-09-16T15:26:48Z</time>
      </trkpt>
      <trkpt lat="43.64459" lon="2.37976">
        <ele>640.2</ele>
        <time>2025-09-16T15:26:49Z</time>
      </trkpt>
      <trkpt lat="43.64457" lon="2.37973">
        <ele>640.2</ele>
        <time>2025-09-16T15:26:50Z</time>
      </trkpt>
      <trkpt lat="43.64457" lon="2.3797">
        <ele>640.2</ele>
        <time>2025-09-16T15:26:51Z</time>
      </trkpt>
      <trkpt lat="43.64456" lon="2.37966">
        <ele>640.2</ele>
        <time>2025-09-16T15:26:52Z</time>
      </trkpt>
      <trkpt lat="43.64455" lon="2.37963">
        <ele>640.2</ele>
        <time>2025-09-16T15:26:53Z</time>
      </trkpt>
      <trkpt lat="43.64454" lon="2.3796">
        <ele>640.2</ele>
        <time>2025-09-16T15:26:54Z</time>
      </trkpt>
      <trkpt lat="43.64453" lon="2.37957">
        <ele>640.4</ele>
        <time>2025-09-16T15:26:55Z</time>
      </trkpt>
      <trkpt lat="43.64452" lon="2.37954">
        <ele>640.4</ele>
        <time>2025-09-16T15:26:56Z</time>
      </trkpt>
      <trkpt lat="43.64452" lon="2.37951">
        <ele>640.4</ele>
        <time>2025-09-16T15:26:57Z</time>
      </trkpt>
      <trkpt lat="43.64451" lon="2.37948">
        <ele>640.4</ele>
        <time>2025-09-16T15:26:58Z</time>
      </trkpt>
      <trkpt lat="43.64451" lon="2.37945">
        <ele>640.4</ele>
        <time>2025-09-16T15:26:59Z</time>
      </trkpt>
      <trkpt lat="43.6445" lon="2.37942">
        <ele>640.6</ele>
        <time>2025-09-16T15:27:00Z</time>
      </trkpt>
      <trkpt lat="43.64449" lon="2.3794">
        <ele>640.8</ele>
        <time>2025-09-16T15:27:01Z</time>
      </trkpt>
      <trkpt lat="43.64448" lon="2.37937">
        <ele>641</ele>
        <time>2025-09-16T15:27:02Z</time>
      </trkpt>
      <trkpt lat="43.64447" lon="2.37934">
        <ele>641.2</ele>
        <time>2025-09-16T15:27:03Z</time>
      </trkpt>
      <trkpt lat="43.64446" lon="2.37932">
        <ele>641.2</ele>
        <time>2025-09-16T15:27:04Z</time>
      </trkpt>
      <trkpt lat="43.64446" lon="2.37929">
        <ele>641.4</ele>
        <time>2025-09-16T15:27:05Z</time>
      </trkpt>
      <trkpt lat="43.64445" lon="2.37927">
        <ele>641.6</ele>
        <time>2025-09-16T15:27:06Z</time>
      </trkpt>
      <trkpt lat="43.64444" lon="2.37924">
        <ele>641.8</ele>
        <time>2025-09-16T15:27:07Z</time>
      </trkpt>
      <trkpt lat="43.64442" lon="2.37921">
        <ele>641.8</ele>
        <time>2025-09-16T15:27:08Z</time>
      </trkpt>
      <trkpt lat="43.64441" lon="2.37918">
        <ele>642</ele>
        <time>2025-09-16T15:27:09Z</time>
      </trkpt>
      <trkpt lat="43.6444" lon="2.37916">
        <ele>642</ele>
        <time>2025-09-16T15:27:10Z</time>
      </trkpt>
      <trkpt lat="43.64439" lon="2.37914">
        <ele>642.2</ele>
        <time>2025-09-16T15:27:11Z</time>
      </trkpt>
      <trkpt lat="43.64439" lon="2.37911">
        <ele>642.2</ele>
        <time>2025-09-16T15:27:12Z</time>
      </trkpt>
      <trkpt lat="43.64438" lon="2.37909">
        <ele>642.6</ele>
        <time>2025-09-16T15:27:13Z</time>
      </trkpt>
      <trkpt lat="43.64437" lon="2.37906">
        <ele>642.8</ele>
        <time>2025-09-16T15:27:14Z</time>
      </trkpt>
      <trkpt lat="43.64436" lon="2.37904">
        <ele>642.8</ele>
        <time>2025-09-16T15:27:15Z</time>
      </trkpt>
      <trkpt lat="43.64434" lon="2.37901">
        <ele>643</ele>
        <time>2025-09-16T15:27:16Z</time>
      </trkpt>
      <trkpt lat="43.64433" lon="2.37899">
        <ele>643</ele>
        <time>2025-09-16T15:27:17Z</time>
      </trkpt>
      <trkpt lat="43.64432" lon="2.37896">
        <ele>643.2</ele>
        <time>2025-09-16T15:27:18Z</time>
      </trkpt>
      <trkpt lat="43.6443" lon="2.37894">
        <ele>643.4</ele>
        <time>2025-09-16T15:27:19Z</time>
      </trkpt>
      <trkpt lat="43.64429" lon="2.37891">
        <ele>643.6</ele>
        <time>2025-09-16T15:27:20Z</time>
      </trkpt>
      <trkpt lat="43.64428" lon="2.37889">
        <ele>644</ele>
        <time>2025-09-16T15:27:21Z</time>
      </trkpt>
      <trkpt lat="43.64427" lon="2.37887">
        <ele>644.2</ele>
        <time>2025-09-16T15:27:22Z</time>
      </trkpt>
      <trkpt lat="43.64425" lon="2.37885">
        <ele>644.4</ele>
        <time>2025-09-16T15:27:23Z</time>
      </trkpt>
      <trkpt lat="43.64424" lon="2.37883">
        <ele>644.4</ele>
        <time>2025-09-16T15:27:24Z</time>
      </trkpt>
      <trkpt lat="43.64424" lon="2.37881">
        <ele>644.6</ele>
        <time>2025-09-16T15:27:25Z</time>
      </trkpt>
      <trkpt lat="43.64423" lon="2.37878">
        <ele>644.6</ele>
        <time>2025-09-16T15:27:26Z</time>
      </trkpt>
      <trkpt lat="43.64423" lon="2.37875">
        <ele>644.6</ele>
        <time>2025-09-16T15:27:27Z</time>
      </trkpt>
      <trkpt lat="43.64422" lon="2.37872">
        <ele>644.6</ele>
        <time>2025-09-16T15:27:28Z</time>
      </trkpt>
      <trkpt lat="43.64422" lon="2.37869">
        <ele>644.6</ele>
        <time>2025-09-16T15:27:29Z</time>
      </trkpt>
      <trkpt lat="43.64421" lon="2.37866">
        <ele>644.8</ele>
        <time>2025-09-16T15:27:30Z</time>
      </trkpt>
      <trkpt lat="43.64421" lon="2.37863">
        <ele>644.8</ele>
        <time>2025-09-16T15:27:31Z</time>
      </trkpt>
      <trkpt lat="43.64419" lon="2.3786">
        <ele>644.8</ele>
        <time>2025-09-16T15:27:32Z</time>
      </trkpt>
      <trkpt lat="43.64419" lon="2.37857">
        <ele>645</ele>
        <time>2025-09-16T15:27:33Z</time>
      </trkpt>
      <trkpt lat="43.64418" lon="2.37854">
        <ele>645</ele>
        <time>2025-09-16T15:27:34Z</time>
      </trkpt>
      <trkpt lat="43.64418" lon="2.37851">
        <ele>645</ele>
        <time>2025-09-16T15:27:35Z</time>
      </trkpt>
      <trkpt lat="43.64417" lon="2.37848">
        <ele>645</ele>
        <time>2025-09-16T15:27:36Z</time>
      </trkpt>
      <trkpt lat="43.64417" lon="2.37845">
        <ele>645</ele>
        <time>2025-09-16T15:27:37Z</time>
      </trkpt>
      <trkpt lat="43.64416" lon="2.37841">
        <ele>645</ele>
        <time>2025-09-16T15:27:38Z</time>
      </trkpt>
      <trkpt lat="43.64416" lon="2.37838">
        <ele>645</ele>
        <time>2025-09-16T15:27:39Z</time>
      </trkpt>
      <trkpt lat="43.64415" lon="2.37835">
        <ele>645.2</ele>
        <time>2025-09-16T15:27:40Z</time>
      </trkpt>
      <trkpt lat="43.64415" lon="2.37831">
        <ele>645.2</ele>
        <time>2025-09-16T15:27:41Z</time>
      </trkpt>
      <trkpt lat="43.64415" lon="2.37828">
        <ele>645.4</ele>
        <time>2025-09-16T15:27:42Z</time>
      </trkpt>
      <trkpt lat="43.64415" lon="2.37825">
        <ele>645.6</ele>
        <time>2025-09-16T15:27:43Z</time>
      </trkpt>
      <trkpt lat="43.64415" lon="2.37822">
        <ele>645.6</ele>
        <time>2025-09-16T15:27:44Z</time>
      </trkpt>
      <trkpt lat="43.64415" lon="2.37818">
        <ele>645.8</ele>
        <time>2025-09-16T15:27:45Z</time>
      </trkpt>
      <trkpt lat="43.64415" lon="2.37815">
        <ele>646</ele>
        <time>2025-09-16T15:27:46Z</time>
      </trkpt>
      <trkpt lat="43.64415" lon="2.37812">
        <ele>646</ele>
        <time>2025-09-16T15:27:47Z</time>
      </trkpt>
      <trkpt lat="43.64414" lon="2.37808">
        <ele>646</ele>
        <time>2025-09-16T15:27:48Z</time>
      </trkpt>
      <trkpt lat="43.64414" lon="2.37805">
        <ele>646</ele>
        <time>2025-09-16T15:27:49Z</time>
      </trkpt>
      <trkpt lat="43.64415" lon="2.37801">
        <ele>646.2</ele>
        <time>2025-09-16T15:27:50Z</time>
      </trkpt>
      <trkpt lat="43.64414" lon="2.37798">
        <ele>646.2</ele>
        <time>2025-09-16T15:27:51Z</time>
      </trkpt>
      <trkpt lat="43.64414" lon="2.37795">
        <ele>646.2</ele>
        <time>2025-09-16T15:27:52Z</time>
      </trkpt>
      <trkpt lat="43.64414" lon="2.37791">
        <ele>646.4</ele>
        <time>2025-09-16T15:27:53Z</time>
      </trkpt>
      <trkpt lat="43.64413" lon="2.37787">
        <ele>646.4</ele>
        <time>2025-09-16T15:27:54Z</time>
      </trkpt>
      <trkpt lat="43.64413" lon="2.37784">
        <ele>646.4</ele>
        <time>2025-09-16T15:27:55Z</time>
      </trkpt>
      <trkpt lat="43.64413" lon="2.3778">
        <ele>646.4</ele>
        <time>2025-09-16T15:27:56Z</time>
      </trkpt>
      <trkpt lat="43.64413" lon="2.37776">
        <ele>646.6</ele>
        <time>2025-09-16T15:27:57Z</time>
      </trkpt>
      <trkpt lat="43.64413" lon="2.37772">
        <ele>646.6</ele>
        <time>2025-09-16T15:27:58Z</time>
      </trkpt>
      <trkpt lat="43.64412" lon="2.37769">
        <ele>646.6</ele>
        <time>2025-09-16T15:27:59Z</time>
      </trkpt>
      <trkpt lat="43.64412" lon="2.37765">
        <ele>646.8</ele>
        <time>2025-09-16T15:28:00Z</time>
      </trkpt>
      <trkpt lat="43.64412" lon="2.37762">
        <ele>646.8</ele>
        <time>2025-09-16T15:28:01Z</time>
      </trkpt>
      <trkpt lat="43.64412" lon="2.37758">
        <ele>647</ele>
        <time>2025-09-16T15:28:02Z</time>
      </trkpt>
      <trkpt lat="43.64412" lon="2.37755">
        <ele>647</ele>
        <time>2025-09-16T15:28:03Z</time>
      </trkpt>
      <trkpt lat="43.64412" lon="2.37751">
        <ele>647</ele>
        <time>2025-09-16T15:28:04Z</time>
      </trkpt>
      <trkpt lat="43.64412" lon="2.37747">
        <ele>647</ele>
        <time>2025-09-16T15:28:05Z</time>
      </trkpt>
      <trkpt lat="43.64413" lon="2.37742">
        <ele>647</ele>
        <time>2025-09-16T15:28:06Z</time>
      </trkpt>
      <trkpt lat="43.64413" lon="2.37737">
        <ele>647</ele>
        <time>2025-09-16T15:28:07Z</time>
      </trkpt>
      <trkpt lat="43.64414" lon="2.37732">
        <ele>646.8</ele>
        <time>2025-09-16T15:28:08Z</time>
      </trkpt>
      <trkpt lat="43.64415" lon="2.37728">
        <ele>646.8</ele>
        <time>2025-09-16T15:28:09Z</time>
      </trkpt>
      <trkpt lat="43.64416" lon="2.37723">
        <ele>646.6</ele>
        <time>2025-09-16T15:28:10Z</time>
      </trkpt>
      <trkpt lat="43.64417" lon="2.37718">
        <ele>646.4</ele>
        <time>2025-09-16T15:28:11Z</time>
      </trkpt>
      <trkpt lat="43.64418" lon="2.37713">
        <ele>646.2</ele>
        <time>2025-09-16T15:28:12Z</time>
      </trkpt>
      <trkpt lat="43.6442" lon="2.37709">
        <ele>645.8</ele>
        <time>2025-09-16T15:28:13Z</time>
      </trkpt>
      <trkpt lat="43.64421" lon="2.37704">
        <ele>645.6</ele>
        <time>2025-09-16T15:28:14Z</time>
      </trkpt>
      <trkpt lat="43.64423" lon="2.37699">
        <ele>645.4</ele>
        <time>2025-09-16T15:28:15Z</time>
      </trkpt>
      <trkpt lat="43.64424" lon="2.37693">
        <ele>645.2</ele>
        <time>2025-09-16T15:28:16Z</time>
      </trkpt>
      <trkpt lat="43.64425" lon="2.37687">
        <ele>644.8</ele>
        <time>2025-09-16T15:28:17Z</time>
      </trkpt>
      <trkpt lat="43.64427" lon="2.37681">
        <ele>644.6</ele>
        <time>2025-09-16T15:28:18Z</time>
      </trkpt>
      <trkpt lat="43.64428" lon="2.37674">
        <ele>644.2</ele>
        <time>2025-09-16T15:28:19Z</time>
      </trkpt>
      <trkpt lat="43.64429" lon="2.37667">
        <ele>643.8</ele>
        <time>2025-09-16T15:28:20Z</time>
      </trkpt>
      <trkpt lat="43.64431" lon="2.37659">
        <ele>643.6</ele>
        <time>2025-09-16T15:28:21Z</time>
      </trkpt>
      <trkpt lat="43.64432" lon="2.37652">
        <ele>643.4</ele>
        <time>2025-09-16T15:28:22Z</time>
      </trkpt>
      <trkpt lat="43.64433" lon="2.37645">
        <ele>643.2</ele>
        <time>2025-09-16T15:28:23Z</time>
      </trkpt>
      <trkpt lat="43.64435" lon="2.37638">
        <ele>643</ele>
        <time>2025-09-16T15:28:24Z</time>
      </trkpt>
      <trkpt lat="43.64436" lon="2.37632">
        <ele>643</ele>
        <time>2025-09-16T15:28:25Z</time>
      </trkpt>
      <trkpt lat="43.64438" lon="2.37626">
        <ele>642.8</ele>
        <time>2025-09-16T15:28:26Z</time>
      </trkpt>
      <trkpt lat="43.6444" lon="2.37619">
        <ele>642.8</ele>
        <time>2025-09-16T15:28:27Z</time>
      </trkpt>
      <trkpt lat="43.64441" lon="2.37613">
        <ele>642.6</ele>
        <time>2025-09-16T15:28:28Z</time>
      </trkpt>
      <trkpt lat="43.64442" lon="2.37607">
        <ele>642.6</ele>
        <time>2025-09-16T15:28:29Z</time>
      </trkpt>
      <trkpt lat="43.64444" lon="2.37601">
        <ele>642.6</ele>
        <time>2025-09-16T15:28:30Z</time>
      </trkpt>
      <trkpt lat="43.64444" lon="2.37594">
        <ele>642.4</ele>
        <time>2025-09-16T15:28:31Z</time>
      </trkpt>
      <trkpt lat="43.64444" lon="2.37588">
        <ele>642.2</ele>
        <time>2025-09-16T15:28:32Z</time>
      </trkpt>
      <trkpt lat="43.64444" lon="2.37581">
        <ele>642.2</ele>
        <time>2025-09-16T15:28:33Z</time>
      </trkpt>
      <trkpt lat="43.64443" lon="2.37574">
        <ele>642</ele>
        <time>2025-09-16T15:28:34Z</time>
      </trkpt>
      <trkpt lat="43.64443" lon="2.37568">
        <ele>641.8</ele>
        <time>2025-09-16T15:28:35Z</time>
      </trkpt>
      <trkpt lat="43.64442" lon="2.37561">
        <ele>641.2</ele>
        <time>2025-09-16T15:28:36Z</time>
      </trkpt>
      <trkpt lat="43.64441" lon="2.37553">
        <ele>640.8</ele>
        <time>2025-09-16T15:28:37Z</time>
      </trkpt>
      <trkpt lat="43.6444" lon="2.37546">
        <ele>640</ele>
        <time>2025-09-16T15:28:38Z</time>
      </trkpt>
      <trkpt lat="43.64439" lon="2.37535">
        <ele>638.8</ele>
        <time>2025-09-16T15:28:39Z</time>
      </trkpt>
      <trkpt lat="43.6444" lon="2.37523">
        <ele>638</ele>
        <time>2025-09-16T15:28:40Z</time>
      </trkpt>
      <trkpt lat="43.64442" lon="2.3751">
        <ele>636.8</ele>
        <time>2025-09-16T15:28:41Z</time>
      </trkpt>
      <trkpt lat="43.64443" lon="2.37499">
        <ele>636</ele>
        <time>2025-09-16T15:28:42Z</time>
      </trkpt>
      <trkpt lat="43.64444" lon="2.37486">
        <ele>635</ele>
        <time>2025-09-16T15:28:43Z</time>
      </trkpt>
      <trkpt lat="43.64446" lon="2.37475">
        <ele>634.2</ele>
        <time>2025-09-16T15:28:44Z</time>
      </trkpt>
      <trkpt lat="43.64447" lon="2.37463">
        <ele>633.4</ele>
        <time>2025-09-16T15:28:45Z</time>
      </trkpt>
      <trkpt lat="43.64448" lon="2.37451">
        <ele>632.8</ele>
        <time>2025-09-16T15:28:46Z</time>
      </trkpt>
      <trkpt lat="43.6445" lon="2.37439">
        <ele>632</ele>
        <time>2025-09-16T15:28:47Z</time>
      </trkpt>
      <trkpt lat="43.64452" lon="2.37428">
        <ele>631.4</ele>
        <time>2025-09-16T15:28:48Z</time>
      </trkpt>
      <trkpt lat="43.64454" lon="2.37417">
        <ele>631</ele>
        <time>2025-09-16T15:28:49Z</time>
      </trkpt>
      <trkpt lat="43.64456" lon="2.37407">
        <ele>631</ele>
        <time>2025-09-16T15:28:50Z</time>
      </trkpt>
      <trkpt lat="43.64459" lon="2.37398">
        <ele>630.8</ele>
        <time>2025-09-16T15:28:51Z</time>
      </trkpt>
      <trkpt lat="43.64461" lon="2.37388">
        <ele>630.6</ele>
        <time>2025-09-16T15:28:52Z</time>
      </trkpt>
      <trkpt lat="43.64463" lon="2.37379">
        <ele>630.6</ele>
        <time>2025-09-16T15:28:53Z</time>
      </trkpt>
      <trkpt lat="43.64465" lon="2.3737">
        <ele>630.4</ele>
        <time>2025-09-16T15:28:54Z</time>
      </trkpt>
      <trkpt lat="43.64467" lon="2.37362">
        <ele>630.4</ele>
        <time>2025-09-16T15:28:55Z</time>
      </trkpt>
      <trkpt lat="43.64468" lon="2.37354">
        <ele>630.4</ele>
        <time>2025-09-16T15:28:56Z</time>
      </trkpt>
      <trkpt lat="43.6447" lon="2.37346">
        <ele>630.2</ele>
        <time>2025-09-16T15:28:57Z</time>
      </trkpt>
      <trkpt lat="43.64471" lon="2.37338">
        <ele>630.2</ele>
        <time>2025-09-16T15:28:58Z</time>
      </trkpt>
      <trkpt lat="43.64473" lon="2.3733">
        <ele>630.4</ele>
        <time>2025-09-16T15:28:59Z</time>
      </trkpt>
      <trkpt lat="43.64474" lon="2.37323">
        <ele>630.4</ele>
        <time>2025-09-16T15:29:00Z</time>
      </trkpt>
      <trkpt lat="43.64476" lon="2.37316">
        <ele>630.4</ele>
        <time>2025-09-16T15:29:01Z</time>
      </trkpt>
      <trkpt lat="43.64477" lon="2.37309">
        <ele>630.4</ele>
        <time>2025-09-16T15:29:02Z</time>
      </trkpt>
      <trkpt lat="43.64478" lon="2.37302">
        <ele>630.4</ele>
        <time>2025-09-16T15:29:03Z</time>
      </trkpt>
      <trkpt lat="43.64479" lon="2.37296">
        <ele>630.4</ele>
        <time>2025-09-16T15:29:04Z</time>
      </trkpt>
      <trkpt lat="43.64479" lon="2.37289">
        <ele>630.6</ele>
        <time>2025-09-16T15:29:05Z</time>
      </trkpt>
      <trkpt lat="43.64479" lon="2.37283">
        <ele>630.6</ele>
        <time>2025-09-16T15:29:06Z</time>
      </trkpt>
      <trkpt lat="43.64478" lon="2.37277">
        <ele>630.6</ele>
        <time>2025-09-16T15:29:07Z</time>
      </trkpt>
      <trkpt lat="43.64478" lon="2.37271">
        <ele>630.8</ele>
        <time>2025-09-16T15:29:08Z</time>
      </trkpt>
      <trkpt lat="43.64477" lon="2.37266">
        <ele>630.8</ele>
        <time>2025-09-16T15:29:09Z</time>
      </trkpt>
      <trkpt lat="43.64476" lon="2.37261">
        <ele>631</ele>
        <time>2025-09-16T15:29:10Z</time>
      </trkpt>
      <trkpt lat="43.64476" lon="2.37256">
        <ele>630.8</ele>
        <time>2025-09-16T15:29:11Z</time>
      </trkpt>
      <trkpt lat="43.64477" lon="2.37251">
        <ele>630.8</ele>
        <time>2025-09-16T15:29:12Z</time>
      </trkpt>
      <trkpt lat="43.64478" lon="2.37246">
        <ele>630.8</ele>
        <time>2025-09-16T15:29:13Z</time>
      </trkpt>
      <trkpt lat="43.64479" lon="2.37243">
        <ele>630.8</ele>
        <time>2025-09-16T15:29:14Z</time>
      </trkpt>
      <trkpt lat="43.6448" lon="2.3724">
        <ele>631</ele>
        <time>2025-09-16T15:29:15Z</time>
      </trkpt>
      <trkpt lat="43.64481" lon="2.37237">
        <ele>631</ele>
        <time>2025-09-16T15:29:16Z</time>
      </trkpt>
      <trkpt lat="43.64481" lon="2.37233">
        <ele>631.2</ele>
        <time>2025-09-16T15:29:17Z</time>
      </trkpt>
      <trkpt lat="43.64482" lon="2.37229">
        <ele>631.2</ele>
        <time>2025-09-16T15:29:18Z</time>
      </trkpt>
      <trkpt lat="43.64482" lon="2.37224">
        <ele>631</ele>
        <time>2025-09-16T15:29:19Z</time>
      </trkpt>
      <trkpt lat="43.64483" lon="2.3722">
        <ele>631</ele>
        <time>2025-09-16T15:29:20Z</time>
      </trkpt>
      <trkpt lat="43.64485" lon="2.37216">
        <ele>630.8</ele>
        <time>2025-09-16T15:29:21Z</time>
      </trkpt>
      <trkpt lat="43.64485" lon="2.37212">
        <ele>630.8</ele>
        <time>2025-09-16T15:29:22Z</time>
      </trkpt>
      <trkpt lat="43.64486" lon="2.37207">
        <ele>630.6</ele>
        <time>2025-09-16T15:29:23Z</time>
      </trkpt>
      <trkpt lat="43.64487" lon="2.37202">
        <ele>630.4</ele>
        <time>2025-09-16T15:29:24Z</time>
      </trkpt>
      <trkpt lat="43.64488" lon="2.37197">
        <ele>630</ele>
        <time>2025-09-16T15:29:25Z</time>
      </trkpt>
      <trkpt lat="43.64489" lon="2.37191">
        <ele>629.8</ele>
        <time>2025-09-16T15:29:26Z</time>
      </trkpt>
      <trkpt lat="43.64491" lon="2.37186">
        <ele>629.4</ele>
        <time>2025-09-16T15:29:27Z</time>
      </trkpt>
      <trkpt lat="43.64493" lon="2.3718">
        <ele>629.4</ele>
        <time>2025-09-16T15:29:28Z</time>
      </trkpt>
      <trkpt lat="43.64495" lon="2.37174">
        <ele>629</ele>
        <time>2025-09-16T15:29:29Z</time>
      </trkpt>
      <trkpt lat="43.64496" lon="2.37169">
        <ele>629</ele>
        <time>2025-09-16T15:29:30Z</time>
      </trkpt>
      <trkpt lat="43.64498" lon="2.37163">
        <ele>628.8</ele>
        <time>2025-09-16T15:29:31Z</time>
      </trkpt>
      <trkpt lat="43.64499" lon="2.37156">
        <ele>628.6</ele>
        <time>2025-09-16T15:29:32Z</time>
      </trkpt>
      <trkpt lat="43.645" lon="2.37149">
        <ele>628.6</ele>
        <time>2025-09-16T15:29:33Z</time>
      </trkpt>
      <trkpt lat="43.64501" lon="2.37143">
        <ele>628.4</ele>
        <time>2025-09-16T15:29:34Z</time>
      </trkpt>
      <trkpt lat="43.64502" lon="2.37136">
        <ele>628.4</ele>
        <time>2025-09-16T15:29:35Z</time>
      </trkpt>
      <trkpt lat="43.64503" lon="2.3713">
        <ele>628.2</ele>
        <time>2025-09-16T15:29:36Z</time>
      </trkpt>
      <trkpt lat="43.64505" lon="2.37123">
        <ele>628.2</ele>
        <time>2025-09-16T15:29:37Z</time>
      </trkpt>
      <trkpt lat="43.64506" lon="2.37114">
        <ele>628</ele>
        <time>2025-09-16T15:29:38Z</time>
      </trkpt>
      <trkpt lat="43.64508" lon="2.37106">
        <ele>627.8</ele>
        <time>2025-09-16T15:29:39Z</time>
      </trkpt>
      <trkpt lat="43.64509" lon="2.37101">
        <ele>627.8</ele>
        <time>2025-09-16T15:29:40Z</time>
      </trkpt>
      <trkpt lat="43.64509" lon="2.37094">
        <ele>627.8</ele>
        <time>2025-09-16T15:29:41Z</time>
      </trkpt>
      <trkpt lat="43.64508" lon="2.37088">
        <ele>627.8</ele>
        <time>2025-09-16T15:29:42Z</time>
      </trkpt>
      <trkpt lat="43.64509" lon="2.37083">
        <ele>627.6</ele>
        <time>2025-09-16T15:29:43Z</time>
      </trkpt>
      <trkpt lat="43.6451" lon="2.37078">
        <ele>627.6</ele>
        <time>2025-09-16T15:29:44Z</time>
      </trkpt>
      <trkpt lat="43.64511" lon="2.37071">
        <ele>627.4</ele>
        <time>2025-09-16T15:29:45Z</time>
      </trkpt>
      <trkpt lat="43.64512" lon="2.37065">
        <ele>627.4</ele>
        <time>2025-09-16T15:29:46Z</time>
      </trkpt>
      <trkpt lat="43.64511" lon="2.3706">
        <ele>627.2</ele>
        <time>2025-09-16T15:29:47Z</time>
      </trkpt>
      <trkpt lat="43.64512" lon="2.37055">
        <ele>626.8</ele>
        <time>2025-09-16T15:29:48Z</time>
      </trkpt>
      <trkpt lat="43.64513" lon="2.37049">
        <ele>626.6</ele>
        <time>2025-09-16T15:29:49Z</time>
      </trkpt>
      <trkpt lat="43.64515" lon="2.37043">
        <ele>626.2</ele>
        <time>2025-09-16T15:29:50Z</time>
      </trkpt>
      <trkpt lat="43.64516" lon="2.37036">
        <ele>626</ele>
        <time>2025-09-16T15:29:51Z</time>
      </trkpt>
      <trkpt lat="43.64518" lon="2.37029">
        <ele>625.6</ele>
        <time>2025-09-16T15:29:52Z</time>
      </trkpt>
      <trkpt lat="43.64519" lon="2.37021">
        <ele>625.2</ele>
        <time>2025-09-16T15:29:53Z</time>
      </trkpt>
      <trkpt lat="43.64522" lon="2.37012">
        <ele>624.6</ele>
        <time>2025-09-16T15:29:54Z</time>
      </trkpt>
      <trkpt lat="43.64524" lon="2.37004">
        <ele>624.2</ele>
        <time>2025-09-16T15:29:55Z</time>
      </trkpt>
      <trkpt lat="43.64527" lon="2.36997">
        <ele>623.6</ele>
        <time>2025-09-16T15:29:56Z</time>
      </trkpt>
      <trkpt lat="43.64529" lon="2.36989">
        <ele>623</ele>
        <time>2025-09-16T15:29:57Z</time>
      </trkpt>
      <trkpt lat="43.64532" lon="2.36983">
        <ele>622.6</ele>
        <time>2025-09-16T15:29:58Z</time>
      </trkpt>
      <trkpt lat="43.64535" lon="2.36979">
        <ele>622</ele>
        <time>2025-09-16T15:29:59Z</time>
      </trkpt>
      <trkpt lat="43.64538" lon="2.36974">
        <ele>621.4</ele>
        <time>2025-09-16T15:30:00Z</time>
      </trkpt>
      <trkpt lat="43.64543" lon="2.36969">
        <ele>620.8</ele>
        <time>2025-09-16T15:30:01Z</time>
      </trkpt>
      <trkpt lat="43.64549" lon="2.36963">
        <ele>620.2</ele>
        <time>2025-09-16T15:30:02Z</time>
      </trkpt>
      <trkpt lat="43.64553" lon="2.36956">
        <ele>619.2</ele>
        <time>2025-09-16T15:30:03Z</time>
      </trkpt>
      <trkpt lat="43.64553" lon="2.36949">
        <ele>618.4</ele>
        <time>2025-09-16T15:30:04Z</time>
      </trkpt>
      <trkpt lat="43.64551" lon="2.36942">
        <ele>617.4</ele>
        <time>2025-09-16T15:30:05Z</time>
      </trkpt>
      <trkpt lat="43.64549" lon="2.36932">
        <ele>616.6</ele>
        <time>2025-09-16T15:30:06Z</time>
      </trkpt>
      <trkpt lat="43.64547" lon="2.36924">
        <ele>615.6</ele>
        <time>2025-09-16T15:30:07Z</time>
      </trkpt>
      <trkpt lat="43.64545" lon="2.36917">
        <ele>614.8</ele>
        <time>2025-09-16T15:30:08Z</time>
      </trkpt>
      <trkpt lat="43.64537" lon="2.36908">
        <ele>614</ele>
        <time>2025-09-16T15:30:09Z</time>
      </trkpt>
      <trkpt lat="43.64536" lon="2.369">
        <ele>613.4</ele>
        <time>2025-09-16T15:30:10Z</time>
      </trkpt>
      <trkpt lat="43.64535" lon="2.3689">
        <ele>612.8</ele>
        <time>2025-09-16T15:30:11Z</time>
      </trkpt>
      <trkpt lat="43.64534" lon="2.3688">
        <ele>612.4</ele>
        <time>2025-09-16T15:30:12Z</time>
      </trkpt>
      <trkpt lat="43.64535" lon="2.36871">
        <ele>612</ele>
        <time>2025-09-16T15:30:13Z</time>
      </trkpt>
      <trkpt lat="43.64537" lon="2.36864">
        <ele>611.6</ele>
        <time>2025-09-16T15:30:14Z</time>
      </trkpt>
      <trkpt lat="43.64542" lon="2.36854">
        <ele>611</ele>
        <time>2025-09-16T15:30:15Z</time>
      </trkpt>
      <trkpt lat="43.64545" lon="2.36844">
        <ele>610.6</ele>
        <time>2025-09-16T15:30:16Z</time>
      </trkpt>
      <trkpt lat="43.64548" lon="2.36836">
        <ele>610.4</ele>
        <time>2025-09-16T15:30:17Z</time>
      </trkpt>
      <trkpt lat="43.64549" lon="2.36829">
        <ele>610</ele>
        <time>2025-09-16T15:30:18Z</time>
      </trkpt>
      <trkpt lat="43.64551" lon="2.36823">
        <ele>609.6</ele>
        <time>2025-09-16T15:30:19Z</time>
      </trkpt>
      <trkpt lat="43.64554" lon="2.36817">
        <ele>609.4</ele>
        <time>2025-09-16T15:30:20Z</time>
      </trkpt>
      <trkpt lat="43.64555" lon="2.3681">
        <ele>609.2</ele>
        <time>2025-09-16T15:30:21Z</time>
      </trkpt>
      <trkpt lat="43.64555" lon="2.36804">
        <ele>608.8</ele>
        <time>2025-09-16T15:30:22Z</time>
      </trkpt>
      <trkpt lat="43.64555" lon="2.36797">
        <ele>608.4</ele>
        <time>2025-09-16T15:30:23Z</time>
      </trkpt>
      <trkpt lat="43.64556" lon="2.36791">
        <ele>608</ele>
        <time>2025-09-16T15:30:24Z</time>
      </trkpt>
      <trkpt lat="43.64559" lon="2.36787">
        <ele>607.6</ele>
        <time>2025-09-16T15:30:25Z</time>
      </trkpt>
      <trkpt lat="43.64562" lon="2.36783">
        <ele>607</ele>
        <time>2025-09-16T15:30:26Z</time>
      </trkpt>
      <trkpt lat="43.64565" lon="2.36777">
        <ele>606.2</ele>
        <time>2025-09-16T15:30:27Z</time>
      </trkpt>
      <trkpt lat="43.64569" lon="2.36771">
        <ele>605.6</ele>
        <time>2025-09-16T15:30:28Z</time>
      </trkpt>
      <trkpt lat="43.64572" lon="2.36765">
        <ele>605</ele>
        <time>2025-09-16T15:30:29Z</time>
      </trkpt>
      <trkpt lat="43.64574" lon="2.36758">
        <ele>604.6</ele>
        <time>2025-09-16T15:30:30Z</time>
      </trkpt>
      <trkpt lat="43.64575" lon="2.36753">
        <ele>604.2</ele>
        <time>2025-09-16T15:30:31Z</time>
      </trkpt>
      <trkpt lat="43.64576" lon="2.36749">
        <ele>604</ele>
        <time>2025-09-16T15:30:32Z</time>
      </trkpt>
      <trkpt lat="43.64576" lon="2.36744">
        <ele>603.6</ele>
        <time>2025-09-16T15:30:33Z</time>
      </trkpt>
      <trkpt lat="43.64577" lon="2.36737">
        <ele>603</ele>
        <time>2025-09-16T15:30:34Z</time>
      </trkpt>
      <trkpt lat="43.6458" lon="2.3673">
        <ele>602.8</ele>
        <time>2025-09-16T15:30:35Z</time>
      </trkpt>
      <trkpt lat="43.64581" lon="2.36727">
        <ele>602.2</ele>
        <time>2025-09-16T15:30:36Z</time>
      </trkpt>
      <trkpt lat="43.64583" lon="2.36725">
        <ele>601.6</ele>
        <time>2025-09-16T15:30:37Z</time>
      </trkpt>
      <trkpt lat="43.64584" lon="2.3672">
        <ele>601</ele>
        <time>2025-09-16T15:30:38Z</time>
      </trkpt>
      <trkpt lat="43.64585" lon="2.36715">
        <ele>600.6</ele>
        <time>2025-09-16T15:30:39Z</time>
      </trkpt>
      <trkpt lat="43.64584" lon="2.36711">
        <ele>600.2</ele>
        <time>2025-09-16T15:30:40Z</time>
      </trkpt>
      <trkpt lat="43.64584" lon="2.36708">
        <ele>600</ele>
        <time>2025-09-16T15:30:41Z</time>
      </trkpt>
      <trkpt lat="43.64586" lon="2.36705">
        <ele>599.8</ele>
        <time>2025-09-16T15:30:42Z</time>
      </trkpt>
      <trkpt lat="43.64588" lon="2.36702">
        <ele>599.4</ele>
        <time>2025-09-16T15:30:43Z</time>
      </trkpt>
      <trkpt lat="43.64589" lon="2.36699">
        <ele>599</ele>
        <time>2025-09-16T15:30:44Z</time>
      </trkpt>
      <trkpt lat="43.6459" lon="2.36696">
        <ele>598.4</ele>
        <time>2025-09-16T15:30:45Z</time>
      </trkpt>
      <trkpt lat="43.64593" lon="2.36691">
        <ele>597.8</ele>
        <time>2025-09-16T15:30:46Z</time>
      </trkpt>
      <trkpt lat="43.64596" lon="2.36685">
        <ele>597.4</ele>
        <time>2025-09-16T15:30:47Z</time>
      </trkpt>
      <trkpt lat="43.64597" lon="2.36679">
        <ele>596.6</ele>
        <time>2025-09-16T15:30:48Z</time>
      </trkpt>
      <trkpt lat="43.646" lon="2.36675">
        <ele>596</ele>
        <time>2025-09-16T15:30:49Z</time>
      </trkpt>
      <trkpt lat="43.64602" lon="2.3667">
        <ele>595.4</ele>
        <time>2025-09-16T15:30:50Z</time>
      </trkpt>
      <trkpt lat="43.64605" lon="2.36663">
        <ele>594.6</ele>
        <time>2025-09-16T15:30:51Z</time>
      </trkpt>
      <trkpt lat="43.64607" lon="2.36657">
        <ele>594.2</ele>
        <time>2025-09-16T15:30:52Z</time>
      </trkpt>
      <trkpt lat="43.6461" lon="2.36653">
        <ele>593.8</ele>
        <time>2025-09-16T15:30:53Z</time>
      </trkpt>
      <trkpt lat="43.64613" lon="2.3665">
        <ele>593.4</ele>
        <time>2025-09-16T15:30:54Z</time>
      </trkpt>
      <trkpt lat="43.64619" lon="2.36648">
        <ele>593</ele>
        <time>2025-09-16T15:30:55Z</time>
      </trkpt>
      <trkpt lat="43.64624" lon="2.36645">
        <ele>593</ele>
        <time>2025-09-16T15:30:56Z</time>
      </trkpt>
      <trkpt lat="43.64629" lon="2.36642">
        <ele>592.8</ele>
        <time>2025-09-16T15:30:57Z</time>
      </trkpt>
      <trkpt lat="43.64631" lon="2.36641">
        <ele>592.6</ele>
        <time>2025-09-16T15:30:58Z</time>
      </trkpt>
      <trkpt lat="43.64634" lon="2.36638">
        <ele>592.6</ele>
        <time>2025-09-16T15:30:59Z</time>
      </trkpt>
      <trkpt lat="43.64636" lon="2.36635">
        <ele>592.6</ele>
        <time>2025-09-16T15:31:00Z</time>
      </trkpt>
      <trkpt lat="43.64638" lon="2.36629">
        <ele>592.6</ele>
        <time>2025-09-16T15:31:01Z</time>
      </trkpt>
      <trkpt lat="43.64639" lon="2.36627">
        <ele>592.4</ele>
        <time>2025-09-16T15:31:02Z</time>
      </trkpt>
      <trkpt lat="43.6464" lon="2.36624">
        <ele>592.2</ele>
        <time>2025-09-16T15:31:03Z</time>
      </trkpt>
      <trkpt lat="43.64644" lon="2.36622">
        <ele>592</ele>
        <time>2025-09-16T15:31:04Z</time>
      </trkpt>
      <trkpt lat="43.64649" lon="2.36619">
        <ele>591.6</ele>
        <time>2025-09-16T15:31:05Z</time>
      </trkpt>
      <trkpt lat="43.64655" lon="2.36615">
        <ele>591.4</ele>
        <time>2025-09-16T15:31:06Z</time>
      </trkpt>
      <trkpt lat="43.64657" lon="2.36612">
        <ele>591.2</ele>
        <time>2025-09-16T15:31:07Z</time>
      </trkpt>
      <trkpt lat="43.6466" lon="2.36609">
        <ele>591</ele>
        <time>2025-09-16T15:31:08Z</time>
      </trkpt>
      <trkpt lat="43.64662" lon="2.36607">
        <ele>590.8</ele>
        <time>2025-09-16T15:31:09Z</time>
      </trkpt>
      <trkpt lat="43.64666" lon="2.36604">
        <ele>590.6</ele>
        <time>2025-09-16T15:31:10Z</time>
      </trkpt>
      <trkpt lat="43.64669" lon="2.366">
        <ele>590.6</ele>
        <time>2025-09-16T15:31:11Z</time>
      </trkpt>
      <trkpt lat="43.64672" lon="2.36597">
        <ele>590.6</ele>
        <time>2025-09-16T15:31:12Z</time>
      </trkpt>
      <trkpt lat="43.64674" lon="2.36593">
        <ele>590.4</ele>
        <time>2025-09-16T15:31:13Z</time>
      </trkpt>
      <trkpt lat="43.64676" lon="2.36591">
        <ele>590.4</ele>
        <time>2025-09-16T15:31:14Z</time>
      </trkpt>
      <trkpt lat="43.64678" lon="2.36588">
        <ele>590.4</ele>
        <time>2025-09-16T15:31:15Z</time>
      </trkpt>
      <trkpt lat="43.6468" lon="2.36585">
        <ele>590.2</ele>
        <time>2025-09-16T15:31:16Z</time>
      </trkpt>
      <trkpt lat="43.64682" lon="2.36581">
        <ele>590.2</ele>
        <time>2025-09-16T15:31:17Z</time>
      </trkpt>
      <trkpt lat="43.64684" lon="2.36578">
        <ele>590.2</ele>
        <time>2025-09-16T15:31:18Z</time>
      </trkpt>
      <trkpt lat="43.64687" lon="2.36574">
        <ele>590</ele>
        <time>2025-09-16T15:31:19Z</time>
      </trkpt>
      <trkpt lat="43.6469" lon="2.3657">
        <ele>590</ele>
        <time>2025-09-16T15:31:20Z</time>
      </trkpt>
      <trkpt lat="43.64693" lon="2.36566">
        <ele>589.8</ele>
        <time>2025-09-16T15:31:21Z</time>
      </trkpt>
      <trkpt lat="43.64697" lon="2.36562">
        <ele>589.8</ele>
        <time>2025-09-16T15:31:22Z</time>
      </trkpt>
      <trkpt lat="43.647" lon="2.36558">
        <ele>589.6</ele>
        <time>2025-09-16T15:31:23Z</time>
      </trkpt>
      <trkpt lat="43.64703" lon="2.36554">
        <ele>589.6</ele>
        <time>2025-09-16T15:31:24Z</time>
      </trkpt>
      <trkpt lat="43.64705" lon="2.3655">
        <ele>589.4</ele>
        <time>2025-09-16T15:31:25Z</time>
      </trkpt>
      <trkpt lat="43.64707" lon="2.36545">
        <ele>589.4</ele>
        <time>2025-09-16T15:31:26Z</time>
      </trkpt>
      <trkpt lat="43.64709" lon="2.3654">
        <ele>589.4</ele>
        <time>2025-09-16T15:31:27Z</time>
      </trkpt>
      <trkpt lat="43.64711" lon="2.36534">
        <ele>589.2</ele>
        <time>2025-09-16T15:31:28Z</time>
      </trkpt>
      <trkpt lat="43.64713" lon="2.3653">
        <ele>589.4</ele>
        <time>2025-09-16T15:31:29Z</time>
      </trkpt>
      <trkpt lat="43.64716" lon="2.36525">
        <ele>589.4</ele>
        <time>2025-09-16T15:31:30Z</time>
      </trkpt>
      <trkpt lat="43.64718" lon="2.36521">
        <ele>589.4</ele>
        <time>2025-09-16T15:31:31Z</time>
      </trkpt>
      <trkpt lat="43.64721" lon="2.36518">
        <ele>589.4</ele>
        <time>2025-09-16T15:31:32Z</time>
      </trkpt>
      <trkpt lat="43.64723" lon="2.36514">
        <ele>589.4</ele>
        <time>2025-09-16T15:31:33Z</time>
      </trkpt>
      <trkpt lat="43.64726" lon="2.36511">
        <ele>589.6</ele>
        <time>2025-09-16T15:31:34Z</time>
      </trkpt>
      <trkpt lat="43.64728" lon="2.36507">
        <ele>589.6</ele>
        <time>2025-09-16T15:31:35Z</time>
      </trkpt>
      <trkpt lat="43.6473" lon="2.36505">
        <ele>589.8</ele>
        <time>2025-09-16T15:31:36Z</time>
      </trkpt>
      <trkpt lat="43.64732" lon="2.36502">
        <ele>589.8</ele>
        <time>2025-09-16T15:31:37Z</time>
      </trkpt>
      <trkpt lat="43.64733" lon="2.36499">
        <ele>589.8</ele>
        <time>2025-09-16T15:31:38Z</time>
      </trkpt>
      <trkpt lat="43.64735" lon="2.36495">
        <ele>589.8</ele>
        <time>2025-09-16T15:31:39Z</time>
      </trkpt>
      <trkpt lat="43.64737" lon="2.36491">
        <ele>590</ele>
        <time>2025-09-16T15:31:40Z</time>
      </trkpt>
      <trkpt lat="43.64738" lon="2.36487">
        <ele>590</ele>
        <time>2025-09-16T15:31:41Z</time>
      </trkpt>
      <trkpt lat="43.64739" lon="2.36483">
        <ele>589.8</ele>
        <time>2025-09-16T15:31:42Z</time>
      </trkpt>
      <trkpt lat="43.64741" lon="2.36479">
        <ele>589.6</ele>
        <time>2025-09-16T15:31:43Z</time>
      </trkpt>
      <trkpt lat="43.64742" lon="2.36473">
        <ele>589.4</ele>
        <time>2025-09-16T15:31:44Z</time>
      </trkpt>
      <trkpt lat="43.64744" lon="2.36468">
        <ele>589</ele>
        <time>2025-09-16T15:31:45Z</time>
      </trkpt>
      <trkpt lat="43.64745" lon="2.36463">
        <ele>588.6</ele>
        <time>2025-09-16T15:31:46Z</time>
      </trkpt>
      <trkpt lat="43.64747" lon="2.36457">
        <ele>588.2</ele>
        <time>2025-09-16T15:31:47Z</time>
      </trkpt>
      <trkpt lat="43.64748" lon="2.36452">
        <ele>587.6</ele>
        <time>2025-09-16T15:31:48Z</time>
      </trkpt>
      <trkpt lat="43.64749" lon="2.36446">
        <ele>587.2</ele>
        <time>2025-09-16T15:31:49Z</time>
      </trkpt>
      <trkpt lat="43.6475" lon="2.36438">
        <ele>586.8</ele>
        <time>2025-09-16T15:31:50Z</time>
      </trkpt>
      <trkpt lat="43.64752" lon="2.36431">
        <ele>586.6</ele>
        <time>2025-09-16T15:31:51Z</time>
      </trkpt>
      <trkpt lat="43.64753" lon="2.36424">
        <ele>586.2</ele>
        <time>2025-09-16T15:31:52Z</time>
      </trkpt>
      <trkpt lat="43.64754" lon="2.36418">
        <ele>585.8</ele>
        <time>2025-09-16T15:31:53Z</time>
      </trkpt>
      <trkpt lat="43.64756" lon="2.36411">
        <ele>585.4</ele>
        <time>2025-09-16T15:31:54Z</time>
      </trkpt>
      <trkpt lat="43.64759" lon="2.36405">
        <ele>585.2</ele>
        <time>2025-09-16T15:31:55Z</time>
      </trkpt>
      <trkpt lat="43.64761" lon="2.36397">
        <ele>584.8</ele>
        <time>2025-09-16T15:31:56Z</time>
      </trkpt>
      <trkpt lat="43.64763" lon="2.36391">
        <ele>584.6</ele>
        <time>2025-09-16T15:31:57Z</time>
      </trkpt>
      <trkpt lat="43.64765" lon="2.36385">
        <ele>584.2</ele>
        <time>2025-09-16T15:31:58Z</time>
      </trkpt>
      <trkpt lat="43.64766" lon="2.36378">
        <ele>584</ele>
        <time>2025-09-16T15:31:59Z</time>
      </trkpt>
      <trkpt lat="43.64766" lon="2.36373">
        <ele>583.6</ele>
        <time>2025-09-16T15:32:00Z</time>
      </trkpt>
      <trkpt lat="43.64764" lon="2.36368">
        <ele>583.2</ele>
        <time>2025-09-16T15:32:01Z</time>
      </trkpt>
      <trkpt lat="43.64762" lon="2.36365">
        <ele>583</ele>
        <time>2025-09-16T15:32:02Z</time>
      </trkpt>
      <trkpt lat="43.6476" lon="2.36359">
        <ele>582.8</ele>
        <time>2025-09-16T15:32:03Z</time>
      </trkpt>
      <trkpt lat="43.64759" lon="2.36352">
        <ele>582.6</ele>
        <time>2025-09-16T15:32:04Z</time>
      </trkpt>
      <trkpt lat="43.64759" lon="2.36346">
        <ele>582.2</ele>
        <time>2025-09-16T15:32:05Z</time>
      </trkpt>
      <trkpt lat="43.64761" lon="2.36339">
        <ele>581.8</ele>
        <time>2025-09-16T15:32:06Z</time>
      </trkpt>
      <trkpt lat="43.64764" lon="2.3633">
        <ele>581.2</ele>
        <time>2025-09-16T15:32:07Z</time>
      </trkpt>
      <trkpt lat="43.64766" lon="2.3632">
        <ele>580.8</ele>
        <time>2025-09-16T15:32:08Z</time>
      </trkpt>
      <trkpt lat="43.64764" lon="2.3631">
        <ele>580.6</ele>
        <time>2025-09-16T15:32:09Z</time>
      </trkpt>
      <trkpt lat="43.64764" lon="2.36302">
        <ele>580.2</ele>
        <time>2025-09-16T15:32:10Z</time>
      </trkpt>
      <trkpt lat="43.64765" lon="2.36296">
        <ele>580</ele>
        <time>2025-09-16T15:32:11Z</time>
      </trkpt>
      <trkpt lat="43.64766" lon="2.36289">
        <ele>579.8</ele>
        <time>2025-09-16T15:32:12Z</time>
      </trkpt>
      <trkpt lat="43.64765" lon="2.36284">
        <ele>579.6</ele>
        <time>2025-09-16T15:32:13Z</time>
      </trkpt>
      <trkpt lat="43.64765" lon="2.36274">
        <ele>579.4</ele>
        <time>2025-09-16T15:32:14Z</time>
      </trkpt>
      <trkpt lat="43.64768" lon="2.36268">
        <ele>579.2</ele>
        <time>2025-09-16T15:32:15Z</time>
      </trkpt>
      <trkpt lat="43.6477" lon="2.36261">
        <ele>579</ele>
        <time>2025-09-16T15:32:16Z</time>
      </trkpt>
      <trkpt lat="43.64773" lon="2.36255">
        <ele>578.8</ele>
        <time>2025-09-16T15:32:17Z</time>
      </trkpt>
      <trkpt lat="43.64775" lon="2.36247">
        <ele>578.6</ele>
        <time>2025-09-16T15:32:18Z</time>
      </trkpt>
      <trkpt lat="43.64777" lon="2.36241">
        <ele>578.6</ele>
        <time>2025-09-16T15:32:19Z</time>
      </trkpt>
      <trkpt lat="43.64779" lon="2.36236">
        <ele>578.6</ele>
        <time>2025-09-16T15:32:20Z</time>
      </trkpt>
      <trkpt lat="43.64781" lon="2.36231">
        <ele>578.4</ele>
        <time>2025-09-16T15:32:21Z</time>
      </trkpt>
      <trkpt lat="43.64783" lon="2.36226">
        <ele>578.2</ele>
        <time>2025-09-16T15:32:22Z</time>
      </trkpt>
      <trkpt lat="43.64784" lon="2.3622">
        <ele>578.2</ele>
        <time>2025-09-16T15:32:23Z</time>
      </trkpt>
      <trkpt lat="43.64784" lon="2.36214">
        <ele>578</ele>
        <time>2025-09-16T15:32:24Z</time>
      </trkpt>
      <trkpt lat="43.64785" lon="2.36209">
        <ele>578</ele>
        <time>2025-09-16T15:32:25Z</time>
      </trkpt>
      <trkpt lat="43.64786" lon="2.36204">
        <ele>577.8</ele>
        <time>2025-09-16T15:32:26Z</time>
      </trkpt>
      <trkpt lat="43.64787" lon="2.36198">
        <ele>577.6</ele>
        <time>2025-09-16T15:32:27Z</time>
      </trkpt>
      <trkpt lat="43.64787" lon="2.36193">
        <ele>577.6</ele>
        <time>2025-09-16T15:32:28Z</time>
      </trkpt>
      <trkpt lat="43.64788" lon="2.36186">
        <ele>577.4</ele>
        <time>2025-09-16T15:32:29Z</time>
      </trkpt>
      <trkpt lat="43.64789" lon="2.36181">
        <ele>577.4</ele>
        <time>2025-09-16T15:32:30Z</time>
      </trkpt>
      <trkpt lat="43.6479" lon="2.36176">
        <ele>577.2</ele>
        <time>2025-09-16T15:32:31Z</time>
      </trkpt>
      <trkpt lat="43.64792" lon="2.36169">
        <ele>577</ele>
        <time>2025-09-16T15:32:32Z</time>
      </trkpt>
      <trkpt lat="43.64794" lon="2.36164">
        <ele>576.8</ele>
        <time>2025-09-16T15:32:33Z</time>
      </trkpt>
      <trkpt lat="43.64795" lon="2.36159">
        <ele>576.6</ele>
        <time>2025-09-16T15:32:34Z</time>
      </trkpt>
      <trkpt lat="43.64796" lon="2.36155">
        <ele>576.2</ele>
        <time>2025-09-16T15:32:35Z</time>
      </trkpt>
      <trkpt lat="43.64797" lon="2.36151">
        <ele>576</ele>
        <time>2025-09-16T15:32:36Z</time>
      </trkpt>
      <trkpt lat="43.64799" lon="2.36147">
        <ele>575.8</ele>
        <time>2025-09-16T15:32:37Z</time>
      </trkpt>
      <trkpt lat="43.64801" lon="2.36143">
        <ele>575.4</ele>
        <time>2025-09-16T15:32:38Z</time>
      </trkpt>
      <trkpt lat="43.64802" lon="2.3614">
        <ele>575.2</ele>
        <time>2025-09-16T15:32:39Z</time>
      </trkpt>
      <trkpt lat="43.64802" lon="2.36138">
        <ele>574.8</ele>
        <time>2025-09-16T15:32:40Z</time>
      </trkpt>
      <trkpt lat="43.64802" lon="2.36134">
        <ele>574.6</ele>
        <time>2025-09-16T15:32:41Z</time>
      </trkpt>
      <trkpt lat="43.64801" lon="2.3613">
        <ele>574.4</ele>
        <time>2025-09-16T15:32:42Z</time>
      </trkpt>
      <trkpt lat="43.648" lon="2.36125">
        <ele>574</ele>
        <time>2025-09-16T15:32:43Z</time>
      </trkpt>
      <trkpt lat="43.64798" lon="2.36121">
        <ele>573.8</ele>
        <time>2025-09-16T15:32:44Z</time>
      </trkpt>
      <trkpt lat="43.64795" lon="2.36116">
        <ele>573.4</ele>
        <time>2025-09-16T15:32:45Z</time>
      </trkpt>
      <trkpt lat="43.64792" lon="2.3611">
        <ele>573</ele>
        <time>2025-09-16T15:32:46Z</time>
      </trkpt>
      <trkpt lat="43.64789" lon="2.36104">
        <ele>572.4</ele>
        <time>2025-09-16T15:32:47Z</time>
      </trkpt>
      <trkpt lat="43.64786" lon="2.36097">
        <ele>572</ele>
        <time>2025-09-16T15:32:48Z</time>
      </trkpt>
      <trkpt lat="43.64783" lon="2.3609">
        <ele>571.4</ele>
        <time>2025-09-16T15:32:49Z</time>
      </trkpt>
      <trkpt lat="43.6478" lon="2.36082">
        <ele>570.4</ele>
        <time>2025-09-16T15:32:50Z</time>
      </trkpt>
      <trkpt lat="43.64778" lon="2.36074">
        <ele>569.8</ele>
        <time>2025-09-16T15:32:51Z</time>
      </trkpt>
      <trkpt lat="43.64775" lon="2.36065">
        <ele>569</ele>
        <time>2025-09-16T15:32:52Z</time>
      </trkpt>
      <trkpt lat="43.64773" lon="2.36056">
        <ele>568.4</ele>
        <time>2025-09-16T15:32:53Z</time>
      </trkpt>
      <trkpt lat="43.64771" lon="2.36046">
        <ele>567.8</ele>
        <time>2025-09-16T15:32:54Z</time>
      </trkpt>
      <trkpt lat="43.64769" lon="2.36037">
        <ele>567.4</ele>
        <time>2025-09-16T15:32:55Z</time>
      </trkpt>
      <trkpt lat="43.64768" lon="2.36028">
        <ele>566.8</ele>
        <time>2025-09-16T15:32:56Z</time>
      </trkpt>
      <trkpt lat="43.64767" lon="2.3602">
        <ele>566.6</ele>
        <time>2025-09-16T15:32:57Z</time>
      </trkpt>
      <trkpt lat="43.64766" lon="2.36013">
        <ele>566.2</ele>
        <time>2025-09-16T15:32:58Z</time>
      </trkpt>
      <trkpt lat="43.64765" lon="2.36007">
        <ele>566.2</ele>
        <time>2025-09-16T15:32:59Z</time>
      </trkpt>
      <trkpt lat="43.64764" lon="2.36002">
        <ele>566</ele>
        <time>2025-09-16T15:33:00Z</time>
      </trkpt>
      <trkpt lat="43.64761" lon="2.35998">
        <ele>566</ele>
        <time>2025-09-16T15:33:01Z</time>
      </trkpt>
      <trkpt lat="43.64758" lon="2.35995">
        <ele>565.8</ele>
        <time>2025-09-16T15:33:02Z</time>
      </trkpt>
      <trkpt lat="43.64754" lon="2.35992">
        <ele>565.4</ele>
        <time>2025-09-16T15:33:03Z</time>
      </trkpt>
      <trkpt lat="43.64749" lon="2.35991">
        <ele>565</ele>
        <time>2025-09-16T15:33:04Z</time>
      </trkpt>
      <trkpt lat="43.64744" lon="2.35991">
        <ele>564.6</ele>
        <time>2025-09-16T15:33:05Z</time>
      </trkpt>
      <trkpt lat="43.64739" lon="2.3599">
        <ele>564</ele>
        <time>2025-09-16T15:33:06Z</time>
      </trkpt>
      <trkpt lat="43.64734" lon="2.35989">
        <ele>563.4</ele>
        <time>2025-09-16T15:33:07Z</time>
      </trkpt>
      <trkpt lat="43.64728" lon="2.35987">
        <ele>562.8</ele>
        <time>2025-09-16T15:33:08Z</time>
      </trkpt>
      <trkpt lat="43.64722" lon="2.35984">
        <ele>562</ele>
        <time>2025-09-16T15:33:09Z</time>
      </trkpt>
      <trkpt lat="43.64715" lon="2.35981">
        <ele>561.2</ele>
        <time>2025-09-16T15:33:10Z</time>
      </trkpt>
      <trkpt lat="43.64708" lon="2.3598">
        <ele>560.6</ele>
        <time>2025-09-16T15:33:11Z</time>
      </trkpt>
      <trkpt lat="43.64702" lon="2.35979">
        <ele>560</ele>
        <time>2025-09-16T15:33:12Z</time>
      </trkpt>
      <trkpt lat="43.64696" lon="2.35979">
        <ele>559.6</ele>
        <time>2025-09-16T15:33:13Z</time>
      </trkpt>
      <trkpt lat="43.6469" lon="2.3598">
        <ele>559.4</ele>
        <time>2025-09-16T15:33:14Z</time>
      </trkpt>
      <trkpt lat="43.64685" lon="2.35979">
        <ele>559.2</ele>
        <time>2025-09-16T15:33:15Z</time>
      </trkpt>
      <trkpt lat="43.6468" lon="2.35979">
        <ele>559</ele>
        <time>2025-09-16T15:33:16Z</time>
      </trkpt>
      <trkpt lat="43.64675" lon="2.35979">
        <ele>558.8</ele>
        <time>2025-09-16T15:33:17Z</time>
      </trkpt>
      <trkpt lat="43.6467" lon="2.35979">
        <ele>558.6</ele>
        <time>2025-09-16T15:33:18Z</time>
      </trkpt>
      <trkpt lat="43.64666" lon="2.35978">
        <ele>558.2</ele>
        <time>2025-09-16T15:33:19Z</time>
      </trkpt>
      <trkpt lat="43.64662" lon="2.35977">
        <ele>557.8</ele>
        <time>2025-09-16T15:33:20Z</time>
      </trkpt>
      <trkpt lat="43.64657" lon="2.35976">
        <ele>557.2</ele>
        <time>2025-09-16T15:33:21Z</time>
      </trkpt>
      <trkpt lat="43.64653" lon="2.35975">
        <ele>556.4</ele>
        <time>2025-09-16T15:33:22Z</time>
      </trkpt>
      <trkpt lat="43.64648" lon="2.35974">
        <ele>555.6</ele>
        <time>2025-09-16T15:33:23Z</time>
      </trkpt>
      <trkpt lat="43.64642" lon="2.35974">
        <ele>554.8</ele>
        <time>2025-09-16T15:33:24Z</time>
      </trkpt>
      <trkpt lat="43.64637" lon="2.35974">
        <ele>554.2</ele>
        <time>2025-09-16T15:33:25Z</time>
      </trkpt>
      <trkpt lat="43.64632" lon="2.35974">
        <ele>553.4</ele>
        <time>2025-09-16T15:33:26Z</time>
      </trkpt>
      <trkpt lat="43.64626" lon="2.35974">
        <ele>552.8</ele>
        <time>2025-09-16T15:33:27Z</time>
      </trkpt>
      <trkpt lat="43.64622" lon="2.35975">
        <ele>552.2</ele>
        <time>2025-09-16T15:33:28Z</time>
      </trkpt>
      <trkpt lat="43.64617" lon="2.35978">
        <ele>551.6</ele>
        <time>2025-09-16T15:33:29Z</time>
      </trkpt>
      <trkpt lat="43.64613" lon="2.35981">
        <ele>551.2</ele>
        <time>2025-09-16T15:33:30Z</time>
      </trkpt>
      <trkpt lat="43.64608" lon="2.35984">
        <ele>551</ele>
        <time>2025-09-16T15:33:31Z</time>
      </trkpt>
      <trkpt lat="43.64604" lon="2.35985">
        <ele>550.8</ele>
        <time>2025-09-16T15:33:32Z</time>
      </trkpt>
      <trkpt lat="43.64599" lon="2.35985">
        <ele>550.6</ele>
        <time>2025-09-16T15:33:33Z</time>
      </trkpt>
      <trkpt lat="43.64594" lon="2.35984">
        <ele>550.4</ele>
        <time>2025-09-16T15:33:34Z</time>
      </trkpt>
      <trkpt lat="43.6459" lon="2.35982">
        <ele>550.4</ele>
        <time>2025-09-16T15:33:35Z</time>
      </trkpt>
      <trkpt lat="43.64585" lon="2.3598">
        <ele>550.4</ele>
        <time>2025-09-16T15:33:36Z</time>
      </trkpt>
      <trkpt lat="43.64581" lon="2.35978">
        <ele>550.4</ele>
        <time>2025-09-16T15:33:37Z</time>
      </trkpt>
      <trkpt lat="43.64577" lon="2.35976">
        <ele>550.2</ele>
        <time>2025-09-16T15:33:38Z</time>
      </trkpt>
      <trkpt lat="43.64573" lon="2.35974">
        <ele>550.2</ele>
        <time>2025-09-16T15:33:39Z</time>
      </trkpt>
      <trkpt lat="43.64569" lon="2.35973">
        <ele>550.2</ele>
        <time>2025-09-16T15:33:40Z</time>
      </trkpt>
      <trkpt lat="43.64565" lon="2.35972">
        <ele>550</ele>
        <time>2025-09-16T15:33:41Z</time>
      </trkpt>
      <trkpt lat="43.64561" lon="2.35971">
        <ele>550</ele>
        <time>2025-09-16T15:33:42Z</time>
      </trkpt>
      <trkpt lat="43.64557" lon="2.35971">
        <ele>550</ele>
        <time>2025-09-16T15:33:43Z</time>
      </trkpt>
      <trkpt lat="43.64553" lon="2.35971">
        <ele>550</ele>
        <time>2025-09-16T15:33:44Z</time>
      </trkpt>
      <trkpt lat="43.64551" lon="2.35971">
        <ele>550</ele>
        <time>2025-09-16T15:33:45Z</time>
      </trkpt>
      <trkpt lat="43.64548" lon="2.35971">
        <ele>550</ele>
        <time>2025-09-16T15:33:46Z</time>
      </trkpt>
      <trkpt lat="43.64545" lon="2.35972">
        <ele>550</ele>
        <time>2025-09-16T15:33:47Z</time>
      </trkpt>
      <trkpt lat="43.64543" lon="2.35972">
        <ele>550</ele>
        <time>2025-09-16T15:33:48Z</time>
      </trkpt>
      <trkpt lat="43.64539" lon="2.35972">
        <ele>549.8</ele>
        <time>2025-09-16T15:33:49Z</time>
      </trkpt>
      <trkpt lat="43.64535" lon="2.35972">
        <ele>549.8</ele>
        <time>2025-09-16T15:33:50Z</time>
      </trkpt>
      <trkpt lat="43.64532" lon="2.35972">
        <ele>549.8</ele>
        <time>2025-09-16T15:33:51Z</time>
      </trkpt>
      <trkpt lat="43.64529" lon="2.35972">
        <ele>549.8</ele>
        <time>2025-09-16T15:33:52Z</time>
      </trkpt>
      <trkpt lat="43.64526" lon="2.35972">
        <ele>549.6</ele>
        <time>2025-09-16T15:33:53Z</time>
      </trkpt>
      <trkpt lat="43.64523" lon="2.35971">
        <ele>549.6</ele>
        <time>2025-09-16T15:33:54Z</time>
      </trkpt>
      <trkpt lat="43.6452" lon="2.35969">
        <ele>549.6</ele>
        <time>2025-09-16T15:33:55Z</time>
      </trkpt>
      <trkpt lat="43.64517" lon="2.35968">
        <ele>549.6</ele>
        <time>2025-09-16T15:33:56Z</time>
      </trkpt>
      <trkpt lat="43.64514" lon="2.35967">
        <ele>549.6</ele>
        <time>2025-09-16T15:33:57Z</time>
      </trkpt>
      <trkpt lat="43.64511" lon="2.35966">
        <ele>549.4</ele>
        <time>2025-09-16T15:33:58Z</time>
      </trkpt>
      <trkpt lat="43.64508" lon="2.35963">
        <ele>549.4</ele>
        <time>2025-09-16T15:33:59Z</time>
      </trkpt>
      <trkpt lat="43.64505" lon="2.35961">
        <ele>549.2</ele>
        <time>2025-09-16T15:34:00Z</time>
      </trkpt>
      <trkpt lat="43.64502" lon="2.35959">
        <ele>549</ele>
        <time>2025-09-16T15:34:01Z</time>
      </trkpt>
      <trkpt lat="43.64498" lon="2.35957">
        <ele>548.8</ele>
        <time>2025-09-16T15:34:02Z</time>
      </trkpt>
      <trkpt lat="43.64494" lon="2.35956">
        <ele>548.6</ele>
        <time>2025-09-16T15:34:03Z</time>
      </trkpt>
      <trkpt lat="43.64491" lon="2.35954">
        <ele>548.6</ele>
        <time>2025-09-16T15:34:04Z</time>
      </trkpt>
      <trkpt lat="43.64489" lon="2.35953">
        <ele>548.6</ele>
        <time>2025-09-16T15:34:05Z</time>
      </trkpt>
      <trkpt lat="43.64487" lon="2.35952">
        <ele>548.6</ele>
        <time>2025-09-16T15:34:06Z</time>
      </trkpt>
      <trkpt lat="43.64485" lon="2.3595">
        <ele>548.8</ele>
        <time>2025-09-16T15:34:07Z</time>
      </trkpt>
      <trkpt lat="43.64483" lon="2.3595">
        <ele>548.8</ele>
        <time>2025-09-16T15:34:08Z</time>
      </trkpt>
      <trkpt lat="43.64482" lon="2.35949">
        <ele>548.8</ele>
        <time>2025-09-16T15:34:09Z</time>
      </trkpt>
      <trkpt lat="43.64479" lon="2.35949">
        <ele>548.8</ele>
        <time>2025-09-16T15:34:10Z</time>
      </trkpt>
      <trkpt lat="43.64478" lon="2.35949">
        <ele>549</ele>
        <time>2025-09-16T15:34:11Z</time>
      </trkpt>
      <trkpt lat="43.64477" lon="2.35948">
        <ele>549</ele>
        <time>2025-09-16T15:34:12Z</time>
      </trkpt>
      <trkpt lat="43.64475" lon="2.35948">
        <ele>549</ele>
        <time>2025-09-16T15:34:13Z</time>
      </trkpt>
      <trkpt lat="43.64473" lon="2.35948">
        <ele>549</ele>
        <time>2025-09-16T15:34:14Z</time>
      </trkpt>
      <trkpt lat="43.64471" lon="2.35948">
        <ele>549.2</ele>
        <time>2025-09-16T15:34:15Z</time>
      </trkpt>
      <trkpt lat="43.64469" lon="2.35949">
        <ele>549.2</ele>
        <time>2025-09-16T15:34:16Z</time>
      </trkpt>
      <trkpt lat="43.64467" lon="2.35948">
        <ele>549.2</ele>
        <time>2025-09-16T15:34:17Z</time>
      </trkpt>
      <trkpt lat="43.64465" lon="2.35948">
        <ele>549.2</ele>
        <time>2025-09-16T15:34:18Z</time>
      </trkpt>
      <trkpt lat="43.64463" lon="2.35948">
        <ele>549.4</ele>
        <time>2025-09-16T15:34:19Z</time>
      </trkpt>
      <trkpt lat="43.64462" lon="2.35947">
        <ele>549.6</ele>
        <time>2025-09-16T15:34:20Z</time>
      </trkpt>
      <trkpt lat="43.6446" lon="2.35946">
        <ele>549.8</ele>
        <time>2025-09-16T15:34:21Z</time>
      </trkpt>
      <trkpt lat="43.64459" lon="2.35945">
        <ele>550</ele>
        <time>2025-09-16T15:34:22Z</time>
      </trkpt>
      <trkpt lat="43.64458" lon="2.35944">
        <ele>550.6</ele>
        <time>2025-09-16T15:34:23Z</time>
      </trkpt>
      <trkpt lat="43.64457" lon="2.35943">
        <ele>550.8</ele>
        <time>2025-09-16T15:34:24Z</time>
      </trkpt>
      <trkpt lat="43.64455" lon="2.35942">
        <ele>551.2</ele>
        <time>2025-09-16T15:34:25Z</time>
      </trkpt>
      <trkpt lat="43.64454" lon="2.35942">
        <ele>551.6</ele>
        <time>2025-09-16T15:34:26Z</time>
      </trkpt>
      <trkpt lat="43.64452" lon="2.35941">
        <ele>552</ele>
        <time>2025-09-16T15:34:27Z</time>
      </trkpt>
      <trkpt lat="43.64451" lon="2.35941">
        <ele>552.2</ele>
        <time>2025-09-16T15:34:28Z</time>
      </trkpt>
      <trkpt lat="43.6445" lon="2.3594">
        <ele>552.6</ele>
        <time>2025-09-16T15:34:29Z</time>
      </trkpt>
      <trkpt lat="43.64449" lon="2.35939">
        <ele>553</ele>
        <time>2025-09-16T15:34:30Z</time>
      </trkpt>
      <trkpt lat="43.64448" lon="2.35939">
        <ele>553.2</ele>
        <time>2025-09-16T15:34:31Z</time>
      </trkpt>
      <trkpt lat="43.64448" lon="2.35938">
        <ele>553.4</ele>
        <time>2025-09-16T15:34:32Z</time>
      </trkpt>
      <trkpt lat="43.64446" lon="2.35938">
        <ele>553.8</ele>
        <time>2025-09-16T15:34:33Z</time>
      </trkpt>
      <trkpt lat="43.64446" lon="2.35937">
        <ele>554</ele>
        <time>2025-09-16T15:34:34Z</time>
      </trkpt>
      <trkpt lat="43.64418" lon="2.35902">
        <ele>563.4</ele>
        <time>2025-09-16T15:37:06Z</time>
      </trkpt>
      <trkpt lat="43.64417" lon="2.35899">
        <ele>563.6</ele>
        <time>2025-09-16T15:37:07Z</time>
      </trkpt>
      <trkpt lat="43.64417" lon="2.35897">
        <ele>563.8</ele>
        <time>2025-09-16T15:37:08Z</time>
      </trkpt>
      <trkpt lat="43.64416" lon="2.35895">
        <ele>563.8</ele>
        <time>2025-09-16T15:37:09Z</time>
      </trkpt>
      <trkpt lat="43.64415" lon="2.35892">
        <ele>564</ele>
        <time>2025-09-16T15:37:10Z</time>
      </trkpt>
      <trkpt lat="43.64413" lon="2.3589">
        <ele>564.2</ele>
        <time>2025-09-16T15:37:11Z</time>
      </trkpt>
      <trkpt lat="43.64411" lon="2.35887">
        <ele>564.4</ele>
        <time>2025-09-16T15:37:12Z</time>
      </trkpt>
      <trkpt lat="43.6441" lon="2.35885">
        <ele>564.6</ele>
        <time>2025-09-16T15:37:13Z</time>
      </trkpt>
      <trkpt lat="43.6441" lon="2.35883">
        <ele>564.8</ele>
        <time>2025-09-16T15:37:14Z</time>
      </trkpt>
      <trkpt lat="43.64409" lon="2.35881">
        <ele>565</ele>
        <time>2025-09-16T15:37:15Z</time>
      </trkpt>
      <trkpt lat="43.64409" lon="2.35879">
        <ele>565.4</ele>
        <time>2025-09-16T15:37:16Z</time>
      </trkpt>
      <trkpt lat="43.64408" lon="2.35877">
        <ele>565.6</ele>
        <time>2025-09-16T15:37:17Z</time>
      </trkpt>
      <trkpt lat="43.64406" lon="2.35876">
        <ele>566</ele>
        <time>2025-09-16T15:37:18Z</time>
      </trkpt>
      <trkpt lat="43.64405" lon="2.35875">
        <ele>566.2</ele>
        <time>2025-09-16T15:37:19Z</time>
      </trkpt>
      <trkpt lat="43.64404" lon="2.35873">
        <ele>566.4</ele>
        <time>2025-09-16T15:37:20Z</time>
      </trkpt>
      <trkpt lat="43.64403" lon="2.3587">
        <ele>566.6</ele>
        <time>2025-09-16T15:37:21Z</time>
      </trkpt>
      <trkpt lat="43.64401" lon="2.35869">
        <ele>566.8</ele>
        <time>2025-09-16T15:37:22Z</time>
      </trkpt>
      <trkpt lat="43.644" lon="2.35867">
        <ele>567</ele>
        <time>2025-09-16T15:37:23Z</time>
      </trkpt>
      <trkpt lat="43.64399" lon="2.35866">
        <ele>567.2</ele>
        <time>2025-09-16T15:37:24Z</time>
      </trkpt>
      <trkpt lat="43.64398" lon="2.35865">
        <ele>567.4</ele>
        <time>2025-09-16T15:37:25Z</time>
      </trkpt>
      <trkpt lat="43.64397" lon="2.35863">
        <ele>567.6</ele>
        <time>2025-09-16T15:37:26Z</time>
      </trkpt>
      <trkpt lat="43.64397" lon="2.35861">
        <ele>567.8</ele>
        <time>2025-09-16T15:37:27Z</time>
      </trkpt>
      <trkpt lat="43.64396" lon="2.35859">
        <ele>568</ele>
        <time>2025-09-16T15:37:28Z</time>
      </trkpt>
      <trkpt lat="43.64395" lon="2.35857">
        <ele>568.2</ele>
        <time>2025-09-16T15:37:29Z</time>
      </trkpt>
      <trkpt lat="43.64395" lon="2.35855">
        <ele>568.2</ele>
        <time>2025-09-16T15:37:30Z</time>
      </trkpt>
      <trkpt lat="43.64394" lon="2.35854">
        <ele>568.4</ele>
        <time>2025-09-16T15:37:31Z</time>
      </trkpt>
      <trkpt lat="43.64393" lon="2.35853">
        <ele>568.6</ele>
        <time>2025-09-16T15:37:32Z</time>
      </trkpt>
      <trkpt lat="43.64392" lon="2.35851">
        <ele>568.8</ele>
        <time>2025-09-16T15:37:33Z</time>
      </trkpt>
      <trkpt lat="43.64392" lon="2.35849">
        <ele>569</ele>
        <time>2025-09-16T15:37:34Z</time>
      </trkpt>
      <trkpt lat="43.64391" lon="2.35848">
        <ele>569.2</ele>
        <time>2025-09-16T15:37:35Z</time>
      </trkpt>
      <trkpt lat="43.6439" lon="2.35846">
        <ele>569.4</ele>
        <time>2025-09-16T15:37:36Z</time>
      </trkpt>
      <trkpt lat="43.64389" lon="2.35845">
        <ele>569.6</ele>
        <time>2025-09-16T15:37:37Z</time>
      </trkpt>
      <trkpt lat="43.64388" lon="2.35844">
        <ele>569.8</ele>
        <time>2025-09-16T15:37:38Z</time>
      </trkpt>
      <trkpt lat="43.64388" lon="2.35843">
        <ele>570</ele>
        <time>2025-09-16T15:37:39Z</time>
      </trkpt>
      <trkpt lat="43.64387" lon="2.35841">
        <ele>570</ele>
        <time>2025-09-16T15:37:40Z</time>
      </trkpt>
      <trkpt lat="43.64387" lon="2.35841">
        <ele>570.2</ele>
        <time>2025-09-16T15:37:41Z</time>
      </trkpt>
      <trkpt lat="43.64387" lon="2.35841">
        <ele>570.4</ele>
        <time>2025-09-16T15:37:42Z</time>
      </trkpt>
      <trkpt lat="43.64387" lon="2.35841">
        <ele>570.4</ele>
        <time>2025-09-16T15:37:43Z</time>
      </trkpt>
      <trkpt lat="43.64385" lon="2.35837">
        <ele>570.6</ele>
        <time>2025-09-16T15:37:47Z</time>
      </trkpt>
      <trkpt lat="43.64384" lon="2.35836">
        <ele>570.6</ele>
        <time>2025-09-16T15:37:48Z</time>
      </trkpt>
      <trkpt lat="43.64384" lon="2.35833">
        <ele>570.6</ele>
        <time>2025-09-16T15:37:49Z</time>
      </trkpt>
      <trkpt lat="43.64383" lon="2.35832">
        <ele>570.6</ele>
        <time>2025-09-16T15:37:50Z</time>
      </trkpt>
      <trkpt lat="43.64381" lon="2.3583">
        <ele>570.4</ele>
        <time>2025-09-16T15:37:51Z</time>
      </trkpt>
      <trkpt lat="43.6438" lon="2.35827">
        <ele>570.4</ele>
        <time>2025-09-16T15:37:52Z</time>
      </trkpt>
      <trkpt lat="43.64379" lon="2.35825">
        <ele>570.4</ele>
        <time>2025-09-16T15:37:53Z</time>
      </trkpt>
      <trkpt lat="43.64378" lon="2.35823">
        <ele>570.4</ele>
        <time>2025-09-16T15:37:54Z</time>
      </trkpt>
      <trkpt lat="43.64378" lon="2.35821">
        <ele>570.4</ele>
        <time>2025-09-16T15:37:55Z</time>
      </trkpt>
      <trkpt lat="43.64377" lon="2.35818">
        <ele>570.6</ele>
        <time>2025-09-16T15:37:56Z</time>
      </trkpt>
      <trkpt lat="43.64376" lon="2.35816">
        <ele>570.6</ele>
        <time>2025-09-16T15:37:57Z</time>
      </trkpt>
      <trkpt lat="43.64375" lon="2.35813">
        <ele>570.6</ele>
        <time>2025-09-16T15:37:58Z</time>
      </trkpt>
      <trkpt lat="43.64375" lon="2.35811">
        <ele>570.8</ele>
        <time>2025-09-16T15:37:59Z</time>
      </trkpt>
      <trkpt lat="43.64375" lon="2.35808">
        <ele>571</ele>
        <time>2025-09-16T15:38:00Z</time>
      </trkpt>
      <trkpt lat="43.64374" lon="2.35806">
        <ele>571.2</ele>
        <time>2025-09-16T15:38:01Z</time>
      </trkpt>
      <trkpt lat="43.64375" lon="2.35804">
        <ele>571.2</ele>
        <time>2025-09-16T15:38:02Z</time>
      </trkpt>
      <trkpt lat="43.64375" lon="2.35801">
        <ele>571.4</ele>
        <time>2025-09-16T15:38:03Z</time>
      </trkpt>
      <trkpt lat="43.64375" lon="2.35798">
        <ele>571.6</ele>
        <time>2025-09-16T15:38:04Z</time>
      </trkpt>
      <trkpt lat="43.64375" lon="2.35796">
        <ele>571.6</ele>
        <time>2025-09-16T15:38:05Z</time>
      </trkpt>
      <trkpt lat="43.64375" lon="2.35793">
        <ele>571.6</ele>
        <time>2025-09-16T15:38:06Z</time>
      </trkpt>
      <trkpt lat="43.64375" lon="2.3579">
        <ele>571.6</ele>
        <time>2025-09-16T15:38:07Z</time>
      </trkpt>
      <trkpt lat="43.64375" lon="2.35787">
        <ele>571.6</ele>
        <time>2025-09-16T15:38:08Z</time>
      </trkpt>
      <trkpt lat="43.64375" lon="2.35784">
        <ele>571.6</ele>
        <time>2025-09-16T15:38:09Z</time>
      </trkpt>
      <trkpt lat="43.64375" lon="2.35782">
        <ele>571.6</ele>
        <time>2025-09-16T15:38:10Z</time>
      </trkpt>
      <trkpt lat="43.64374" lon="2.35779">
        <ele>571.6</ele>
        <time>2025-09-16T15:38:11Z</time>
      </trkpt>
      <trkpt lat="43.64374" lon="2.35776">
        <ele>571.4</ele>
        <time>2025-09-16T15:38:12Z</time>
      </trkpt>
      <trkpt lat="43.64373" lon="2.35773">
        <ele>571.4</ele>
        <time>2025-09-16T15:38:13Z</time>
      </trkpt>
      <trkpt lat="43.64373" lon="2.35769">
        <ele>571.2</ele>
        <time>2025-09-16T15:38:14Z</time>
      </trkpt>
      <trkpt lat="43.64372" lon="2.35766">
        <ele>571.2</ele>
        <time>2025-09-16T15:38:15Z</time>
      </trkpt>
      <trkpt lat="43.64371" lon="2.35762">
        <ele>571</ele>
        <time>2025-09-16T15:38:16Z</time>
      </trkpt>
      <trkpt lat="43.6437" lon="2.35759">
        <ele>571</ele>
        <time>2025-09-16T15:38:17Z</time>
      </trkpt>
      <trkpt lat="43.6437" lon="2.35756">
        <ele>571</ele>
        <time>2025-09-16T15:38:18Z</time>
      </trkpt>
      <trkpt lat="43.6437" lon="2.35753">
        <ele>571</ele>
        <time>2025-09-16T15:38:19Z</time>
      </trkpt>
      <trkpt lat="43.6437" lon="2.35749">
        <ele>571</ele>
        <time>2025-09-16T15:38:20Z</time>
      </trkpt>
      <trkpt lat="43.6437" lon="2.35745">
        <ele>570.8</ele>
        <time>2025-09-16T15:38:21Z</time>
      </trkpt>
      <trkpt lat="43.6437" lon="2.35742">
        <ele>570.8</ele>
        <time>2025-09-16T15:38:22Z</time>
      </trkpt>
      <trkpt lat="43.64369" lon="2.35738">
        <ele>570.8</ele>
        <time>2025-09-16T15:38:23Z</time>
      </trkpt>
      <trkpt lat="43.64369" lon="2.35734">
        <ele>570.8</ele>
        <time>2025-09-16T15:38:24Z</time>
      </trkpt>
      <trkpt lat="43.64369" lon="2.3573">
        <ele>571</ele>
        <time>2025-09-16T15:38:25Z</time>
      </trkpt>
      <trkpt lat="43.64369" lon="2.35727">
        <ele>571</ele>
        <time>2025-09-16T15:38:26Z</time>
      </trkpt>
      <trkpt lat="43.6437" lon="2.35723">
        <ele>571</ele>
        <time>2025-09-16T15:38:27Z</time>
      </trkpt>
      <trkpt lat="43.64371" lon="2.35719">
        <ele>571</ele>
        <time>2025-09-16T15:38:28Z</time>
      </trkpt>
      <trkpt lat="43.64372" lon="2.35715">
        <ele>571.2</ele>
        <time>2025-09-16T15:38:29Z</time>
      </trkpt>
      <trkpt lat="43.64374" lon="2.35711">
        <ele>571.2</ele>
        <time>2025-09-16T15:38:30Z</time>
      </trkpt>
      <trkpt lat="43.64375" lon="2.35707">
        <ele>571.4</ele>
        <time>2025-09-16T15:38:31Z</time>
      </trkpt>
      <trkpt lat="43.64375" lon="2.35704">
        <ele>571.4</ele>
        <time>2025-09-16T15:38:32Z</time>
      </trkpt>
      <trkpt lat="43.64375" lon="2.357">
        <ele>571.4</ele>
        <time>2025-09-16T15:38:33Z</time>
      </trkpt>
      <trkpt lat="43.64375" lon="2.35696">
        <ele>571.4</ele>
        <time>2025-09-16T15:38:34Z</time>
      </trkpt>
      <trkpt lat="43.64375" lon="2.35692">
        <ele>571.4</ele>
        <time>2025-09-16T15:38:35Z</time>
      </trkpt>
      <trkpt lat="43.64373" lon="2.35688">
        <ele>571.4</ele>
        <time>2025-09-16T15:38:36Z</time>
      </trkpt>
      <trkpt lat="43.64372" lon="2.35683">
        <ele>571.4</ele>
        <time>2025-09-16T15:38:37Z</time>
      </trkpt>
      <trkpt lat="43.64371" lon="2.35679">
        <ele>571.4</ele>
        <time>2025-09-16T15:38:38Z</time>
      </trkpt>
      <trkpt lat="43.64371" lon="2.35675">
        <ele>571.4</ele>
        <time>2025-09-16T15:38:39Z</time>
      </trkpt>
      <trkpt lat="43.64371" lon="2.35671">
        <ele>571.4</ele>
        <time>2025-09-16T15:38:40Z</time>
      </trkpt>
      <trkpt lat="43.6437" lon="2.35667">
        <ele>571.2</ele>
        <time>2025-09-16T15:38:41Z</time>
      </trkpt>
      <trkpt lat="43.64369" lon="2.35661">
        <ele>571.2</ele>
        <time>2025-09-16T15:38:42Z</time>
      </trkpt>
      <trkpt lat="43.64368" lon="2.35657">
        <ele>571.2</ele>
        <time>2025-09-16T15:38:43Z</time>
      </trkpt>
      <trkpt lat="43.64368" lon="2.35654">
        <ele>571.2</ele>
        <time>2025-09-16T15:38:44Z</time>
      </trkpt>
      <trkpt lat="43.64367" lon="2.35649">
        <ele>571.2</ele>
        <time>2025-09-16T15:38:45Z</time>
      </trkpt>
      <trkpt lat="43.64366" lon="2.35645">
        <ele>571.2</ele>
        <time>2025-09-16T15:38:46Z</time>
      </trkpt>
      <trkpt lat="43.64366" lon="2.3564">
        <ele>571.2</ele>
        <time>2025-09-16T15:38:47Z</time>
      </trkpt>
      <trkpt lat="43.64365" lon="2.35636">
        <ele>571.2</ele>
        <time>2025-09-16T15:38:48Z</time>
      </trkpt>
      <trkpt lat="43.64364" lon="2.35632">
        <ele>571.2</ele>
        <time>2025-09-16T15:38:49Z</time>
      </trkpt>
      <trkpt lat="43.64364" lon="2.35628">
        <ele>571.4</ele>
        <time>2025-09-16T15:38:50Z</time>
      </trkpt>
      <trkpt lat="43.64363" lon="2.35624">
        <ele>571.4</ele>
        <time>2025-09-16T15:38:51Z</time>
      </trkpt>
      <trkpt lat="43.64363" lon="2.3562">
        <ele>571.6</ele>
        <time>2025-09-16T15:38:52Z</time>
      </trkpt>
      <trkpt lat="43.64363" lon="2.35617">
        <ele>571.8</ele>
        <time>2025-09-16T15:38:53Z</time>
      </trkpt>
      <trkpt lat="43.64362" lon="2.35614">
        <ele>572</ele>
        <time>2025-09-16T15:38:54Z</time>
      </trkpt>
      <trkpt lat="43.64362" lon="2.35611">
        <ele>572.2</ele>
        <time>2025-09-16T15:38:55Z</time>
      </trkpt>
      <trkpt lat="43.64361" lon="2.35608">
        <ele>572.6</ele>
        <time>2025-09-16T15:38:56Z</time>
      </trkpt>
      <trkpt lat="43.64361" lon="2.35606">
        <ele>572.8</ele>
        <time>2025-09-16T15:38:57Z</time>
      </trkpt>
      <trkpt lat="43.6436" lon="2.35603">
        <ele>573</ele>
        <time>2025-09-16T15:38:58Z</time>
      </trkpt>
      <trkpt lat="43.6436" lon="2.35601">
        <ele>573.2</ele>
        <time>2025-09-16T15:38:59Z</time>
      </trkpt>
      <trkpt lat="43.6436" lon="2.35598">
        <ele>573.4</ele>
        <time>2025-09-16T15:39:00Z</time>
      </trkpt>
      <trkpt lat="43.64359" lon="2.35596">
        <ele>573.6</ele>
        <time>2025-09-16T15:39:01Z</time>
      </trkpt>
      <trkpt lat="43.64359" lon="2.35593">
        <ele>573.8</ele>
        <time>2025-09-16T15:39:02Z</time>
      </trkpt>
      <trkpt lat="43.64359" lon="2.3559">
        <ele>573.8</ele>
        <time>2025-09-16T15:39:03Z</time>
      </trkpt>
      <trkpt lat="43.64358" lon="2.35587">
        <ele>573.8</ele>
        <time>2025-09-16T15:39:04Z</time>
      </trkpt>
      <trkpt lat="43.64358" lon="2.35584">
        <ele>573.8</ele>
        <time>2025-09-16T15:39:05Z</time>
      </trkpt>
      <trkpt lat="43.64358" lon="2.35581">
        <ele>573.8</ele>
        <time>2025-09-16T15:39:06Z</time>
      </trkpt>
      <trkpt lat="43.64357" lon="2.35577">
        <ele>573.8</ele>
        <time>2025-09-16T15:39:07Z</time>
      </trkpt>
      <trkpt lat="43.64357" lon="2.35574">
        <ele>573.6</ele>
        <time>2025-09-16T15:39:08Z</time>
      </trkpt>
      <trkpt lat="43.64357" lon="2.3557">
        <ele>573.4</ele>
        <time>2025-09-16T15:39:09Z</time>
      </trkpt>
      <trkpt lat="43.64357" lon="2.35565">
        <ele>573.4</ele>
        <time>2025-09-16T15:39:10Z</time>
      </trkpt>
      <trkpt lat="43.64357" lon="2.35561">
        <ele>573.2</ele>
        <time>2025-09-16T15:39:11Z</time>
      </trkpt>
      <trkpt lat="43.64357" lon="2.35558">
        <ele>573.2</ele>
        <time>2025-09-16T15:39:12Z</time>
      </trkpt>
      <trkpt lat="43.64357" lon="2.35554">
        <ele>573.4</ele>
        <time>2025-09-16T15:39:13Z</time>
      </trkpt>
      <trkpt lat="43.64357" lon="2.3555">
        <ele>573.6</ele>
        <time>2025-09-16T15:39:14Z</time>
      </trkpt>
      <trkpt lat="43.64357" lon="2.35547">
        <ele>573.6</ele>
        <time>2025-09-16T15:39:15Z</time>
      </trkpt>
      <trkpt lat="43.64356" lon="2.35545">
        <ele>573.8</ele>
        <time>2025-09-16T15:39:16Z</time>
      </trkpt>
      <trkpt lat="43.64356" lon="2.35542">
        <ele>574</ele>
        <time>2025-09-16T15:39:17Z</time>
      </trkpt>
      <trkpt lat="43.64356" lon="2.35539">
        <ele>574.2</ele>
        <time>2025-09-16T15:39:18Z</time>
      </trkpt>
      <trkpt lat="43.64356" lon="2.35535">
        <ele>574.4</ele>
        <time>2025-09-16T15:39:19Z</time>
      </trkpt>
      <trkpt lat="43.64356" lon="2.35532">
        <ele>574.6</ele>
        <time>2025-09-16T15:39:20Z</time>
      </trkpt>
      <trkpt lat="43.64354" lon="2.35529">
        <ele>575</ele>
        <time>2025-09-16T15:39:21Z</time>
      </trkpt>
      <trkpt lat="43.64354" lon="2.35527">
        <ele>575.2</ele>
        <time>2025-09-16T15:39:22Z</time>
      </trkpt>
      <trkpt lat="43.64353" lon="2.35525">
        <ele>575.4</ele>
        <time>2025-09-16T15:39:23Z</time>
      </trkpt>
      <trkpt lat="43.64353" lon="2.35522">
        <ele>575.6</ele>
        <time>2025-09-16T15:39:24Z</time>
      </trkpt>
      <trkpt lat="43.64353" lon="2.3552">
        <ele>575.8</ele>
        <time>2025-09-16T15:39:25Z</time>
      </trkpt>
      <trkpt lat="43.64352" lon="2.35518">
        <ele>576</ele>
        <time>2025-09-16T15:39:26Z</time>
      </trkpt>
      <trkpt lat="43.64351" lon="2.35516">
        <ele>576.2</ele>
        <time>2025-09-16T15:39:27Z</time>
      </trkpt>
      <trkpt lat="43.64348" lon="2.35514">
        <ele>576.2</ele>
        <time>2025-09-16T15:39:28Z</time>
      </trkpt>
      <trkpt lat="43.64347" lon="2.35511">
        <ele>576.2</ele>
        <time>2025-09-16T15:39:29Z</time>
      </trkpt>
      <trkpt lat="43.64346" lon="2.35508">
        <ele>576.4</ele>
        <time>2025-09-16T15:39:30Z</time>
      </trkpt>
      <trkpt lat="43.64344" lon="2.35505">
        <ele>576.4</ele>
        <time>2025-09-16T15:39:31Z</time>
      </trkpt>
      <trkpt lat="43.64342" lon="2.35503">
        <ele>576.6</ele>
        <time>2025-09-16T15:39:32Z</time>
      </trkpt>
      <trkpt lat="43.64337" lon="2.355">
        <ele>576.6</ele>
        <time>2025-09-16T15:39:33Z</time>
      </trkpt>
      <trkpt lat="43.64334" lon="2.35497">
        <ele>576.8</ele>
        <time>2025-09-16T15:39:34Z</time>
      </trkpt>
      <trkpt lat="43.64333" lon="2.35495">
        <ele>576.8</ele>
        <time>2025-09-16T15:39:35Z</time>
      </trkpt>
      <trkpt lat="43.64331" lon="2.35493">
        <ele>576.8</ele>
        <time>2025-09-16T15:39:36Z</time>
      </trkpt>
      <trkpt lat="43.64328" lon="2.35491">
        <ele>577</ele>
        <time>2025-09-16T15:39:37Z</time>
      </trkpt>
      <trkpt lat="43.64327" lon="2.35488">
        <ele>577</ele>
        <time>2025-09-16T15:39:38Z</time>
      </trkpt>
      <trkpt lat="43.64326" lon="2.35487">
        <ele>577.2</ele>
        <time>2025-09-16T15:39:39Z</time>
      </trkpt>
      <trkpt lat="43.64325" lon="2.35486">
        <ele>577.4</ele>
        <time>2025-09-16T15:39:40Z</time>
      </trkpt>
      <trkpt lat="43.64324" lon="2.35485">
        <ele>577.4</ele>
        <time>2025-09-16T15:39:41Z</time>
      </trkpt>
      <trkpt lat="43.64323" lon="2.35484">
        <ele>577.6</ele>
        <time>2025-09-16T15:39:42Z</time>
      </trkpt>
      <trkpt lat="43.64323" lon="2.35482">
        <ele>577.6</ele>
        <time>2025-09-16T15:39:43Z</time>
      </trkpt>
      <trkpt lat="43.64324" lon="2.3548">
        <ele>577.6</ele>
        <time>2025-09-16T15:39:44Z</time>
      </trkpt>
      <trkpt lat="43.64325" lon="2.35479">
        <ele>577.6</ele>
        <time>2025-09-16T15:39:45Z</time>
      </trkpt>
      <trkpt lat="43.64326" lon="2.35476">
        <ele>577.6</ele>
        <time>2025-09-16T15:39:46Z</time>
      </trkpt>
      <trkpt lat="43.64328" lon="2.35473">
        <ele>577.2</ele>
        <time>2025-09-16T15:39:47Z</time>
      </trkpt>
      <trkpt lat="43.6433" lon="2.35469">
        <ele>577</ele>
        <time>2025-09-16T15:39:48Z</time>
      </trkpt>
      <trkpt lat="43.64332" lon="2.35465">
        <ele>576.6</ele>
        <time>2025-09-16T15:39:49Z</time>
      </trkpt>
      <trkpt lat="43.64335" lon="2.3546">
        <ele>576</ele>
        <time>2025-09-16T15:39:50Z</time>
      </trkpt>
      <trkpt lat="43.64338" lon="2.35453">
        <ele>575.4</ele>
        <time>2025-09-16T15:39:51Z</time>
      </trkpt>
      <trkpt lat="43.64342" lon="2.35447">
        <ele>574.8</ele>
        <time>2025-09-16T15:39:52Z</time>
      </trkpt>
      <trkpt lat="43.64345" lon="2.35441">
        <ele>574</ele>
        <time>2025-09-16T15:39:53Z</time>
      </trkpt>
      <trkpt lat="43.64348" lon="2.35435">
        <ele>573.2</ele>
        <time>2025-09-16T15:39:54Z</time>
      </trkpt>
      <trkpt lat="43.6435" lon="2.35428">
        <ele>572.6</ele>
        <time>2025-09-16T15:39:55Z</time>
      </trkpt>
      <trkpt lat="43.64352" lon="2.35423">
        <ele>572.2</ele>
        <time>2025-09-16T15:39:56Z</time>
      </trkpt>
      <trkpt lat="43.64354" lon="2.35417">
        <ele>571.6</ele>
        <time>2025-09-16T15:39:57Z</time>
      </trkpt>
      <trkpt lat="43.64357" lon="2.35409">
        <ele>571.2</ele>
        <time>2025-09-16T15:39:58Z</time>
      </trkpt>
      <trkpt lat="43.64361" lon="2.354">
        <ele>570.8</ele>
        <time>2025-09-16T15:39:59Z</time>
      </trkpt>
      <trkpt lat="43.64364" lon="2.35393">
        <ele>570.4</ele>
        <time>2025-09-16T15:40:00Z</time>
      </trkpt>
      <trkpt lat="43.64365" lon="2.35384">
        <ele>569.8</ele>
        <time>2025-09-16T15:40:01Z</time>
      </trkpt>
      <trkpt lat="43.64368" lon="2.35376">
        <ele>569.6</ele>
        <time>2025-09-16T15:40:02Z</time>
      </trkpt>
      <trkpt lat="43.6437" lon="2.35367">
        <ele>569.4</ele>
        <time>2025-09-16T15:40:03Z</time>
      </trkpt>
      <trkpt lat="43.64372" lon="2.35359">
        <ele>569.2</ele>
        <time>2025-09-16T15:40:04Z</time>
      </trkpt>
      <trkpt lat="43.64374" lon="2.3535">
        <ele>569.2</ele>
        <time>2025-09-16T15:40:05Z</time>
      </trkpt>
      <trkpt lat="43.64377" lon="2.35343">
        <ele>569.2</ele>
        <time>2025-09-16T15:40:06Z</time>
      </trkpt>
      <trkpt lat="43.6438" lon="2.35336">
        <ele>569.4</ele>
        <time>2025-09-16T15:40:07Z</time>
      </trkpt>
      <trkpt lat="43.64384" lon="2.35331">
        <ele>569.2</ele>
        <time>2025-09-16T15:40:08Z</time>
      </trkpt>
      <trkpt lat="43.64388" lon="2.35325">
        <ele>569</ele>
        <time>2025-09-16T15:40:09Z</time>
      </trkpt>
      <trkpt lat="43.64391" lon="2.35317">
        <ele>568.6</ele>
        <time>2025-09-16T15:40:10Z</time>
      </trkpt>
      <trkpt lat="43.64392" lon="2.35311">
        <ele>568.4</ele>
        <time>2025-09-16T15:40:11Z</time>
      </trkpt>
      <trkpt lat="43.64394" lon="2.35301">
        <ele>568.2</ele>
        <time>2025-09-16T15:40:12Z</time>
      </trkpt>
      <trkpt lat="43.64396" lon="2.35295">
        <ele>568</ele>
        <time>2025-09-16T15:40:13Z</time>
      </trkpt>
      <trkpt lat="43.64399" lon="2.35287">
        <ele>567.8</ele>
        <time>2025-09-16T15:40:14Z</time>
      </trkpt>
      <trkpt lat="43.64401" lon="2.35278">
        <ele>567.6</ele>
        <time>2025-09-16T15:40:15Z</time>
      </trkpt>
      <trkpt lat="43.644" lon="2.35273">
        <ele>567.4</ele>
        <time>2025-09-16T15:40:16Z</time>
      </trkpt>
      <trkpt lat="43.64398" lon="2.35266">
        <ele>567</ele>
        <time>2025-09-16T15:40:17Z</time>
      </trkpt>
      <trkpt lat="43.64395" lon="2.3526">
        <ele>566.8</ele>
        <time>2025-09-16T15:40:18Z</time>
      </trkpt>
      <trkpt lat="43.6439" lon="2.35256">
        <ele>566.6</ele>
        <time>2025-09-16T15:40:19Z</time>
      </trkpt>
      <trkpt lat="43.64385" lon="2.35252">
        <ele>566.6</ele>
        <time>2025-09-16T15:40:20Z</time>
      </trkpt>
      <trkpt lat="43.64382" lon="2.35249">
        <ele>566.8</ele>
        <time>2025-09-16T15:40:21Z</time>
      </trkpt>
      <trkpt lat="43.64379" lon="2.35246">
        <ele>566.8</ele>
        <time>2025-09-16T15:40:22Z</time>
      </trkpt>
      <trkpt lat="43.64377" lon="2.35243">
        <ele>567.2</ele>
        <time>2025-09-16T15:40:23Z</time>
      </trkpt>
      <trkpt lat="43.64375" lon="2.35242">
        <ele>567.4</ele>
        <time>2025-09-16T15:40:24Z</time>
      </trkpt>
      <trkpt lat="43.64372" lon="2.3524">
        <ele>567.8</ele>
        <time>2025-09-16T15:40:25Z</time>
      </trkpt>
      <trkpt lat="43.6437" lon="2.35238">
        <ele>568</ele>
        <time>2025-09-16T15:40:26Z</time>
      </trkpt>
      <trkpt lat="43.64367" lon="2.35236">
        <ele>568.2</ele>
        <time>2025-09-16T15:40:27Z</time>
      </trkpt>
      <trkpt lat="43.64364" lon="2.35235">
        <ele>568.2</ele>
        <time>2025-09-16T15:40:28Z</time>
      </trkpt>
      <trkpt lat="43.64362" lon="2.35233">
        <ele>568.4</ele>
        <time>2025-09-16T15:40:29Z</time>
      </trkpt>
      <trkpt lat="43.6436" lon="2.35232">
        <ele>568.4</ele>
        <time>2025-09-16T15:40:30Z</time>
      </trkpt>
      <trkpt lat="43.64358" lon="2.35229">
        <ele>568.6</ele>
        <time>2025-09-16T15:40:31Z</time>
      </trkpt>
      <trkpt lat="43.64355" lon="2.35227">
        <ele>568.8</ele>
        <time>2025-09-16T15:40:32Z</time>
      </trkpt>
      <trkpt lat="43.64353" lon="2.35225">
        <ele>568.8</ele>
        <time>2025-09-16T15:40:33Z</time>
      </trkpt>
      <trkpt lat="43.64351" lon="2.35224">
        <ele>569</ele>
        <time>2025-09-16T15:40:34Z</time>
      </trkpt>
      <trkpt lat="43.6435" lon="2.35221">
        <ele>569.2</ele>
        <time>2025-09-16T15:40:35Z</time>
      </trkpt>
      <trkpt lat="43.64348" lon="2.35219">
        <ele>569.4</ele>
        <time>2025-09-16T15:40:36Z</time>
      </trkpt>
      <trkpt lat="43.64346" lon="2.35217">
        <ele>569.4</ele>
        <time>2025-09-16T15:40:37Z</time>
      </trkpt>
      <trkpt lat="43.64345" lon="2.35215">
        <ele>569.6</ele>
        <time>2025-09-16T15:40:38Z</time>
      </trkpt>
      <trkpt lat="43.64344" lon="2.35212">
        <ele>569.6</ele>
        <time>2025-09-16T15:40:39Z</time>
      </trkpt>
      <trkpt lat="43.64342" lon="2.35209">
        <ele>569.8</ele>
        <time>2025-09-16T15:40:40Z</time>
      </trkpt>
      <trkpt lat="43.64342" lon="2.35207">
        <ele>569.8</ele>
        <time>2025-09-16T15:40:41Z</time>
      </trkpt>
      <trkpt lat="43.64341" lon="2.35204">
        <ele>570</ele>
        <time>2025-09-16T15:40:42Z</time>
      </trkpt>
      <trkpt lat="43.64341" lon="2.35201">
        <ele>570</ele>
        <time>2025-09-16T15:40:43Z</time>
      </trkpt>
      <trkpt lat="43.64341" lon="2.35198">
        <ele>570.2</ele>
        <time>2025-09-16T15:40:44Z</time>
      </trkpt>
      <trkpt lat="43.64341" lon="2.35195">
        <ele>570.2</ele>
        <time>2025-09-16T15:40:45Z</time>
      </trkpt>
      <trkpt lat="43.64342" lon="2.35191">
        <ele>570.2</ele>
        <time>2025-09-16T15:40:46Z</time>
      </trkpt>
      <trkpt lat="43.64343" lon="2.35187">
        <ele>570.2</ele>
        <time>2025-09-16T15:40:47Z</time>
      </trkpt>
      <trkpt lat="43.64344" lon="2.35182">
        <ele>570</ele>
        <time>2025-09-16T15:40:48Z</time>
      </trkpt>
      <trkpt lat="43.64346" lon="2.35178">
        <ele>569.8</ele>
        <time>2025-09-16T15:40:49Z</time>
      </trkpt>
      <trkpt lat="43.64347" lon="2.35173">
        <ele>569.6</ele>
        <time>2025-09-16T15:40:50Z</time>
      </trkpt>
      <trkpt lat="43.64349" lon="2.35169">
        <ele>569.6</ele>
        <time>2025-09-16T15:40:51Z</time>
      </trkpt>
      <trkpt lat="43.64351" lon="2.35164">
        <ele>569.4</ele>
        <time>2025-09-16T15:40:52Z</time>
      </trkpt>
      <trkpt lat="43.64353" lon="2.3516">
        <ele>569.2</ele>
        <time>2025-09-16T15:40:53Z</time>
      </trkpt>
      <trkpt lat="43.64355" lon="2.35155">
        <ele>569</ele>
        <time>2025-09-16T15:40:54Z</time>
      </trkpt>
      <trkpt lat="43.64357" lon="2.3515">
        <ele>569</ele>
        <time>2025-09-16T15:40:55Z</time>
      </trkpt>
      <trkpt lat="43.64359" lon="2.35145">
        <ele>568.8</ele>
        <time>2025-09-16T15:40:56Z</time>
      </trkpt>
      <trkpt lat="43.64361" lon="2.35141">
        <ele>568.8</ele>
        <time>2025-09-16T15:40:57Z</time>
      </trkpt>
      <trkpt lat="43.64362" lon="2.35137">
        <ele>568.8</ele>
        <time>2025-09-16T15:40:58Z</time>
      </trkpt>
      <trkpt lat="43.64363" lon="2.35132">
        <ele>568.8</ele>
        <time>2025-09-16T15:40:59Z</time>
      </trkpt>
      <trkpt lat="43.64365" lon="2.35128">
        <ele>568.8</ele>
        <time>2025-09-16T15:41:00Z</time>
      </trkpt>
      <trkpt lat="43.64366" lon="2.35124">
        <ele>568.8</ele>
        <time>2025-09-16T15:41:01Z</time>
      </trkpt>
      <trkpt lat="43.64368" lon="2.35119">
        <ele>568.6</ele>
        <time>2025-09-16T15:41:02Z</time>
      </trkpt>
      <trkpt lat="43.64369" lon="2.35115">
        <ele>568.6</ele>
        <time>2025-09-16T15:41:03Z</time>
      </trkpt>
      <trkpt lat="43.6437" lon="2.35111">
        <ele>568.6</ele>
        <time>2025-09-16T15:41:04Z</time>
      </trkpt>
      <trkpt lat="43.6437" lon="2.35106">
        <ele>568.6</ele>
        <time>2025-09-16T15:41:05Z</time>
      </trkpt>
      <trkpt lat="43.64371" lon="2.35101">
        <ele>568.6</ele>
        <time>2025-09-16T15:41:06Z</time>
      </trkpt>
      <trkpt lat="43.6437" lon="2.35096">
        <ele>568.6</ele>
        <time>2025-09-16T15:41:07Z</time>
      </trkpt>
      <trkpt lat="43.64371" lon="2.3509">
        <ele>568.6</ele>
        <time>2025-09-16T15:41:08Z</time>
      </trkpt>
      <trkpt lat="43.64372" lon="2.35085">
        <ele>568.4</ele>
        <time>2025-09-16T15:41:09Z</time>
      </trkpt>
      <trkpt lat="43.64374" lon="2.35081">
        <ele>568.4</ele>
        <time>2025-09-16T15:41:10Z</time>
      </trkpt>
      <trkpt lat="43.64376" lon="2.35076">
        <ele>568.2</ele>
        <time>2025-09-16T15:41:11Z</time>
      </trkpt>
      <trkpt lat="43.64379" lon="2.35071">
        <ele>568</ele>
        <time>2025-09-16T15:41:12Z</time>
      </trkpt>
      <trkpt lat="43.64381" lon="2.35067">
        <ele>568</ele>
        <time>2025-09-16T15:41:13Z</time>
      </trkpt>
      <trkpt lat="43.64384" lon="2.35062">
        <ele>568</ele>
        <time>2025-09-16T15:41:14Z</time>
      </trkpt>
      <trkpt lat="43.64386" lon="2.35057">
        <ele>568</ele>
        <time>2025-09-16T15:41:15Z</time>
      </trkpt>
      <trkpt lat="43.64387" lon="2.35053">
        <ele>568</ele>
        <time>2025-09-16T15:41:16Z</time>
      </trkpt>
      <trkpt lat="43.64388" lon="2.35049">
        <ele>568</ele>
        <time>2025-09-16T15:41:17Z</time>
      </trkpt>
      <trkpt lat="43.6439" lon="2.35044">
        <ele>568</ele>
        <time>2025-09-16T15:41:18Z</time>
      </trkpt>
      <trkpt lat="43.64393" lon="2.35039">
        <ele>568</ele>
        <time>2025-09-16T15:41:19Z</time>
      </trkpt>
      <trkpt lat="43.64394" lon="2.35035">
        <ele>567.8</ele>
        <time>2025-09-16T15:41:20Z</time>
      </trkpt>
      <trkpt lat="43.64398" lon="2.3503">
        <ele>567.6</ele>
        <time>2025-09-16T15:41:21Z</time>
      </trkpt>
      <trkpt lat="43.64401" lon="2.35026">
        <ele>567.4</ele>
        <time>2025-09-16T15:41:22Z</time>
      </trkpt>
      <trkpt lat="43.64405" lon="2.35022">
        <ele>567</ele>
        <time>2025-09-16T15:41:23Z</time>
      </trkpt>
      <trkpt lat="43.64409" lon="2.35017">
        <ele>566.8</ele>
        <time>2025-09-16T15:41:24Z</time>
      </trkpt>
      <trkpt lat="43.64412" lon="2.35012">
        <ele>566.4</ele>
        <time>2025-09-16T15:41:25Z</time>
      </trkpt>
      <trkpt lat="43.64414" lon="2.35007">
        <ele>566.2</ele>
        <time>2025-09-16T15:41:26Z</time>
      </trkpt>
      <trkpt lat="43.64416" lon="2.35001">
        <ele>566.2</ele>
        <time>2025-09-16T15:41:27Z</time>
      </trkpt>
      <trkpt lat="43.64418" lon="2.34995">
        <ele>566</ele>
        <time>2025-09-16T15:41:28Z</time>
      </trkpt>
      <trkpt lat="43.64419" lon="2.34989">
        <ele>566</ele>
        <time>2025-09-16T15:41:29Z</time>
      </trkpt>
      <trkpt lat="43.64419" lon="2.34984">
        <ele>566</ele>
        <time>2025-09-16T15:41:30Z</time>
      </trkpt>
      <trkpt lat="43.6442" lon="2.34978">
        <ele>566.2</ele>
        <time>2025-09-16T15:41:31Z</time>
      </trkpt>
      <trkpt lat="43.64421" lon="2.34972">
        <ele>566</ele>
        <time>2025-09-16T15:41:32Z</time>
      </trkpt>
      <trkpt lat="43.64422" lon="2.34967">
        <ele>565.8</ele>
        <time>2025-09-16T15:41:33Z</time>
      </trkpt>
      <trkpt lat="43.64422" lon="2.34961">
        <ele>565.6</ele>
        <time>2025-09-16T15:41:34Z</time>
      </trkpt>
      <trkpt lat="43.64422" lon="2.34954">
        <ele>565.4</ele>
        <time>2025-09-16T15:41:35Z</time>
      </trkpt>
      <trkpt lat="43.64422" lon="2.34949">
        <ele>565.2</ele>
        <time>2025-09-16T15:41:36Z</time>
      </trkpt>
      <trkpt lat="43.64421" lon="2.34943">
        <ele>564.6</ele>
        <time>2025-09-16T15:41:37Z</time>
      </trkpt>
      <trkpt lat="43.64421" lon="2.34937">
        <ele>564.2</ele>
        <time>2025-09-16T15:41:38Z</time>
      </trkpt>
      <trkpt lat="43.64421" lon="2.34931">
        <ele>564</ele>
        <time>2025-09-16T15:41:39Z</time>
      </trkpt>
      <trkpt lat="43.64419" lon="2.34925">
        <ele>563.4</ele>
        <time>2025-09-16T15:41:40Z</time>
      </trkpt>
      <trkpt lat="43.64419" lon="2.34918">
        <ele>562.8</ele>
        <time>2025-09-16T15:41:41Z</time>
      </trkpt>
      <trkpt lat="43.64419" lon="2.34912">
        <ele>562.4</ele>
        <time>2025-09-16T15:41:42Z</time>
      </trkpt>
      <trkpt lat="43.64421" lon="2.34908">
        <ele>562</ele>
        <time>2025-09-16T15:41:43Z</time>
      </trkpt>
      <trkpt lat="43.64425" lon="2.34905">
        <ele>561.4</ele>
        <time>2025-09-16T15:41:44Z</time>
      </trkpt>
      <trkpt lat="43.64428" lon="2.34903">
        <ele>561.2</ele>
        <time>2025-09-16T15:41:45Z</time>
      </trkpt>
      <trkpt lat="43.64432" lon="2.34901">
        <ele>561</ele>
        <time>2025-09-16T15:41:46Z</time>
      </trkpt>
      <trkpt lat="43.64435" lon="2.34898">
        <ele>560.8</ele>
        <time>2025-09-16T15:41:47Z</time>
      </trkpt>
      <trkpt lat="43.64437" lon="2.34893">
        <ele>560.4</ele>
        <time>2025-09-16T15:41:48Z</time>
      </trkpt>
      <trkpt lat="43.64439" lon="2.34888">
        <ele>560.4</ele>
        <time>2025-09-16T15:41:49Z</time>
      </trkpt>
      <trkpt lat="43.64441" lon="2.34883">
        <ele>560.2</ele>
        <time>2025-09-16T15:41:50Z</time>
      </trkpt>
      <trkpt lat="43.64442" lon="2.34878">
        <ele>560</ele>
        <time>2025-09-16T15:41:51Z</time>
      </trkpt>
      <trkpt lat="43.64443" lon="2.34873">
        <ele>559.8</ele>
        <time>2025-09-16T15:41:52Z</time>
      </trkpt>
      <trkpt lat="43.64443" lon="2.34867">
        <ele>559.8</ele>
        <time>2025-09-16T15:41:53Z</time>
      </trkpt>
      <trkpt lat="43.64442" lon="2.3486">
        <ele>559.6</ele>
        <time>2025-09-16T15:41:54Z</time>
      </trkpt>
      <trkpt lat="43.64442" lon="2.34854">
        <ele>559.4</ele>
        <time>2025-09-16T15:41:55Z</time>
      </trkpt>
      <trkpt lat="43.64442" lon="2.34848">
        <ele>559.2</ele>
        <time>2025-09-16T15:41:56Z</time>
      </trkpt>
      <trkpt lat="43.64443" lon="2.34842">
        <ele>559</ele>
        <time>2025-09-16T15:41:57Z</time>
      </trkpt>
      <trkpt lat="43.64443" lon="2.34836">
        <ele>558.8</ele>
        <time>2025-09-16T15:41:58Z</time>
      </trkpt>
      <trkpt lat="43.64445" lon="2.3483">
        <ele>558.8</ele>
        <time>2025-09-16T15:41:59Z</time>
      </trkpt>
      <trkpt lat="43.64447" lon="2.34824">
        <ele>558.4</ele>
        <time>2025-09-16T15:42:00Z</time>
      </trkpt>
      <trkpt lat="43.64451" lon="2.34819">
        <ele>558.2</ele>
        <time>2025-09-16T15:42:01Z</time>
      </trkpt>
      <trkpt lat="43.64454" lon="2.34814">
        <ele>558.2</ele>
        <time>2025-09-16T15:42:02Z</time>
      </trkpt>
      <trkpt lat="43.64458" lon="2.3481">
        <ele>557.8</ele>
        <time>2025-09-16T15:42:03Z</time>
      </trkpt>
      <trkpt lat="43.64461" lon="2.34804">
        <ele>557.4</ele>
        <time>2025-09-16T15:42:04Z</time>
      </trkpt>
      <trkpt lat="43.64464" lon="2.34799">
        <ele>557.2</ele>
        <time>2025-09-16T15:42:05Z</time>
      </trkpt>
      <trkpt lat="43.64466" lon="2.34794">
        <ele>556.8</ele>
        <time>2025-09-16T15:42:06Z</time>
      </trkpt>
      <trkpt lat="43.64465" lon="2.34788">
        <ele>556.4</ele>
        <time>2025-09-16T15:42:07Z</time>
      </trkpt>
      <trkpt lat="43.64461" lon="2.34783">
        <ele>556</ele>
        <time>2025-09-16T15:42:08Z</time>
      </trkpt>
      <trkpt lat="43.64459" lon="2.34779">
        <ele>556</ele>
        <time>2025-09-16T15:42:09Z</time>
      </trkpt>
      <trkpt lat="43.64456" lon="2.34773">
        <ele>555.8</ele>
        <time>2025-09-16T15:42:10Z</time>
      </trkpt>
      <trkpt lat="43.64455" lon="2.34767">
        <ele>555.4</ele>
        <time>2025-09-16T15:42:11Z</time>
      </trkpt>
      <trkpt lat="43.64455" lon="2.34761">
        <ele>555.2</ele>
        <time>2025-09-16T15:42:12Z</time>
      </trkpt>
      <trkpt lat="43.64455" lon="2.34755">
        <ele>555</ele>
        <time>2025-09-16T15:42:13Z</time>
      </trkpt>
      <trkpt lat="43.64455" lon="2.3475">
        <ele>555</ele>
        <time>2025-09-16T15:42:14Z</time>
      </trkpt>
      <trkpt lat="43.64455" lon="2.34744">
        <ele>554.8</ele>
        <time>2025-09-16T15:42:15Z</time>
      </trkpt>
      <trkpt lat="43.64455" lon="2.34739">
        <ele>554.8</ele>
        <time>2025-09-16T15:42:16Z</time>
      </trkpt>
      <trkpt lat="43.64455" lon="2.34734">
        <ele>554.8</ele>
        <time>2025-09-16T15:42:17Z</time>
      </trkpt>
      <trkpt lat="43.64455" lon="2.34728">
        <ele>554.8</ele>
        <time>2025-09-16T15:42:18Z</time>
      </trkpt>
      <trkpt lat="43.64455" lon="2.34723">
        <ele>554.6</ele>
        <time>2025-09-16T15:42:19Z</time>
      </trkpt>
      <trkpt lat="43.64455" lon="2.34718">
        <ele>554.6</ele>
        <time>2025-09-16T15:42:20Z</time>
      </trkpt>
      <trkpt lat="43.64455" lon="2.34713">
        <ele>554.8</ele>
        <time>2025-09-16T15:42:21Z</time>
      </trkpt>
      <trkpt lat="43.64456" lon="2.34709">
        <ele>554.8</ele>
        <time>2025-09-16T15:42:22Z</time>
      </trkpt>
      <trkpt lat="43.64457" lon="2.34705">
        <ele>554.6</ele>
        <time>2025-09-16T15:42:23Z</time>
      </trkpt>
      <trkpt lat="43.64458" lon="2.34702">
        <ele>554.6</ele>
        <time>2025-09-16T15:42:24Z</time>
      </trkpt>
      <trkpt lat="43.64461" lon="2.34701">
        <ele>554.6</ele>
        <time>2025-09-16T15:42:25Z</time>
      </trkpt>
      <trkpt lat="43.64463" lon="2.34699">
        <ele>554.6</ele>
        <time>2025-09-16T15:42:26Z</time>
      </trkpt>
      <trkpt lat="43.64466" lon="2.34695">
        <ele>554.6</ele>
        <time>2025-09-16T15:42:27Z</time>
      </trkpt>
      <trkpt lat="43.64468" lon="2.34691">
        <ele>554.6</ele>
        <time>2025-09-16T15:42:28Z</time>
      </trkpt>
      <trkpt lat="43.6447" lon="2.34686">
        <ele>554.4</ele>
        <time>2025-09-16T15:42:29Z</time>
      </trkpt>
      <trkpt lat="43.64472" lon="2.34681">
        <ele>554.4</ele>
        <time>2025-09-16T15:42:30Z</time>
      </trkpt>
      <trkpt lat="43.64473" lon="2.34675">
        <ele>554.2</ele>
        <time>2025-09-16T15:42:31Z</time>
      </trkpt>
      <trkpt lat="43.64474" lon="2.34668">
        <ele>554</ele>
        <time>2025-09-16T15:42:32Z</time>
      </trkpt>
      <trkpt lat="43.64475" lon="2.34663">
        <ele>554</ele>
        <time>2025-09-16T15:42:33Z</time>
      </trkpt>
      <trkpt lat="43.64476" lon="2.34658">
        <ele>553.8</ele>
        <time>2025-09-16T15:42:34Z</time>
      </trkpt>
      <trkpt lat="43.64477" lon="2.34651">
        <ele>553.8</ele>
        <time>2025-09-16T15:42:35Z</time>
      </trkpt>
      <trkpt lat="43.64478" lon="2.34645">
        <ele>553.6</ele>
        <time>2025-09-16T15:42:36Z</time>
      </trkpt>
      <trkpt lat="43.64479" lon="2.3464">
        <ele>553.4</ele>
        <time>2025-09-16T15:42:37Z</time>
      </trkpt>
      <trkpt lat="43.64481" lon="2.34634">
        <ele>553.2</ele>
        <time>2025-09-16T15:42:38Z</time>
      </trkpt>
      <trkpt lat="43.64483" lon="2.34629">
        <ele>553.2</ele>
        <time>2025-09-16T15:42:39Z</time>
      </trkpt>
      <trkpt lat="43.64485" lon="2.34624">
        <ele>552.8</ele>
        <time>2025-09-16T15:42:40Z</time>
      </trkpt>
      <trkpt lat="43.64487" lon="2.34618">
        <ele>552.6</ele>
        <time>2025-09-16T15:42:41Z</time>
      </trkpt>
      <trkpt lat="43.64489" lon="2.34612">
        <ele>552.4</ele>
        <time>2025-09-16T15:42:42Z</time>
      </trkpt>
      <trkpt lat="43.64491" lon="2.34605">
        <ele>552.2</ele>
        <time>2025-09-16T15:42:43Z</time>
      </trkpt>
      <trkpt lat="43.64493" lon="2.34599">
        <ele>552</ele>
        <time>2025-09-16T15:42:44Z</time>
      </trkpt>
      <trkpt lat="43.64495" lon="2.34593">
        <ele>551.8</ele>
        <time>2025-09-16T15:42:45Z</time>
      </trkpt>
      <trkpt lat="43.64497" lon="2.34587">
        <ele>551.8</ele>
        <time>2025-09-16T15:42:46Z</time>
      </trkpt>
      <trkpt lat="43.64499" lon="2.34582">
        <ele>551.8</ele>
        <time>2025-09-16T15:42:47Z</time>
      </trkpt>
      <trkpt lat="43.64501" lon="2.34576">
        <ele>551.8</ele>
        <time>2025-09-16T15:42:48Z</time>
      </trkpt>
      <trkpt lat="43.64503" lon="2.34571">
        <ele>551.6</ele>
        <time>2025-09-16T15:42:49Z</time>
      </trkpt>
      <trkpt lat="43.64505" lon="2.34565">
        <ele>551.6</ele>
        <time>2025-09-16T15:42:50Z</time>
      </trkpt>
      <trkpt lat="43.64507" lon="2.34559">
        <ele>551.4</ele>
        <time>2025-09-16T15:42:51Z</time>
      </trkpt>
      <trkpt lat="43.6451" lon="2.34553">
        <ele>551</ele>
        <time>2025-09-16T15:42:52Z</time>
      </trkpt>
      <trkpt lat="43.64512" lon="2.34547">
        <ele>550.8</ele>
        <time>2025-09-16T15:42:53Z</time>
      </trkpt>
      <trkpt lat="43.64515" lon="2.34541">
        <ele>550.8</ele>
        <time>2025-09-16T15:42:54Z</time>
      </trkpt>
      <trkpt lat="43.64517" lon="2.34534">
        <ele>550.8</ele>
        <time>2025-09-16T15:42:55Z</time>
      </trkpt>
      <trkpt lat="43.6452" lon="2.34528">
        <ele>550.6</ele>
        <time>2025-09-16T15:42:56Z</time>
      </trkpt>
      <trkpt lat="43.64522" lon="2.34522">
        <ele>550.6</ele>
        <time>2025-09-16T15:42:57Z</time>
      </trkpt>
      <trkpt lat="43.64524" lon="2.34516">
        <ele>550.6</ele>
        <time>2025-09-16T15:42:58Z</time>
      </trkpt>
      <trkpt lat="43.64527" lon="2.3451">
        <ele>550.2</ele>
        <time>2025-09-16T15:42:59Z</time>
      </trkpt>
      <trkpt lat="43.64529" lon="2.34505">
        <ele>550.2</ele>
        <time>2025-09-16T15:43:00Z</time>
      </trkpt>
      <trkpt lat="43.64532" lon="2.34499">
        <ele>550</ele>
        <time>2025-09-16T15:43:01Z</time>
      </trkpt>
      <trkpt lat="43.64534" lon="2.34493">
        <ele>549.8</ele>
        <time>2025-09-16T15:43:02Z</time>
      </trkpt>
      <trkpt lat="43.64537" lon="2.34487">
        <ele>549.4</ele>
        <time>2025-09-16T15:43:03Z</time>
      </trkpt>
      <trkpt lat="43.64539" lon="2.3448">
        <ele>549.4</ele>
        <time>2025-09-16T15:43:04Z</time>
      </trkpt>
      <trkpt lat="43.64542" lon="2.34474">
        <ele>549</ele>
        <time>2025-09-16T15:43:05Z</time>
      </trkpt>
      <trkpt lat="43.64545" lon="2.34468">
        <ele>548.8</ele>
        <time>2025-09-16T15:43:06Z</time>
      </trkpt>
      <trkpt lat="43.64549" lon="2.34464">
        <ele>548.6</ele>
        <time>2025-09-16T15:43:07Z</time>
      </trkpt>
      <trkpt lat="43.64552" lon="2.3446">
        <ele>548.4</ele>
        <time>2025-09-16T15:43:08Z</time>
      </trkpt>
      <trkpt lat="43.64556" lon="2.34455">
        <ele>548.2</ele>
        <time>2025-09-16T15:43:09Z</time>
      </trkpt>
      <trkpt lat="43.64559" lon="2.34449">
        <ele>548</ele>
        <time>2025-09-16T15:43:10Z</time>
      </trkpt>
      <trkpt lat="43.64562" lon="2.34443">
        <ele>547.8</ele>
        <time>2025-09-16T15:43:11Z</time>
      </trkpt>
      <trkpt lat="43.64564" lon="2.34436">
        <ele>547.6</ele>
        <time>2025-09-16T15:43:12Z</time>
      </trkpt>
      <trkpt lat="43.64567" lon="2.34429">
        <ele>547.4</ele>
        <time>2025-09-16T15:43:13Z</time>
      </trkpt>
      <trkpt lat="43.6457" lon="2.34423">
        <ele>547.2</ele>
        <time>2025-09-16T15:43:14Z</time>
      </trkpt>
      <trkpt lat="43.64573" lon="2.34418">
        <ele>547</ele>
        <time>2025-09-16T15:43:15Z</time>
      </trkpt>
      <trkpt lat="43.64577" lon="2.34412">
        <ele>546.6</ele>
        <time>2025-09-16T15:43:16Z</time>
      </trkpt>
      <trkpt lat="43.64582" lon="2.34405">
        <ele>546.4</ele>
        <time>2025-09-16T15:43:17Z</time>
      </trkpt>
      <trkpt lat="43.64585" lon="2.344">
        <ele>546</ele>
        <time>2025-09-16T15:43:18Z</time>
      </trkpt>
      <trkpt lat="43.64589" lon="2.34394">
        <ele>545.8</ele>
        <time>2025-09-16T15:43:19Z</time>
      </trkpt>
      <trkpt lat="43.64594" lon="2.34388">
        <ele>545.6</ele>
        <time>2025-09-16T15:43:20Z</time>
      </trkpt>
      <trkpt lat="43.64597" lon="2.34383">
        <ele>545.4</ele>
        <time>2025-09-16T15:43:21Z</time>
      </trkpt>
      <trkpt lat="43.64602" lon="2.34377">
        <ele>545</ele>
        <time>2025-09-16T15:43:22Z</time>
      </trkpt>
      <trkpt lat="43.64605" lon="2.34371">
        <ele>544.4</ele>
        <time>2025-09-16T15:43:23Z</time>
      </trkpt>
      <trkpt lat="43.64609" lon="2.34365">
        <ele>544</ele>
        <time>2025-09-16T15:43:24Z</time>
      </trkpt>
      <trkpt lat="43.64612" lon="2.34358">
        <ele>543.6</ele>
        <time>2025-09-16T15:43:25Z</time>
      </trkpt>
      <trkpt lat="43.64616" lon="2.3435">
        <ele>543.4</ele>
        <time>2025-09-16T15:43:26Z</time>
      </trkpt>
      <trkpt lat="43.64619" lon="2.34345">
        <ele>543</ele>
        <time>2025-09-16T15:43:27Z</time>
      </trkpt>
      <trkpt lat="43.64623" lon="2.34338">
        <ele>542.6</ele>
        <time>2025-09-16T15:43:28Z</time>
      </trkpt>
      <trkpt lat="43.64628" lon="2.34332">
        <ele>542</ele>
        <time>2025-09-16T15:43:29Z</time>
      </trkpt>
      <trkpt lat="43.64633" lon="2.34326">
        <ele>541.6</ele>
        <time>2025-09-16T15:43:30Z</time>
      </trkpt>
      <trkpt lat="43.64637" lon="2.34321">
        <ele>541</ele>
        <time>2025-09-16T15:43:31Z</time>
      </trkpt>
      <trkpt lat="43.64642" lon="2.34317">
        <ele>540.4</ele>
        <time>2025-09-16T15:43:32Z</time>
      </trkpt>
      <trkpt lat="43.64646" lon="2.34314">
        <ele>540</ele>
        <time>2025-09-16T15:43:33Z</time>
      </trkpt>
      <trkpt lat="43.64649" lon="2.34311">
        <ele>539.8</ele>
        <time>2025-09-16T15:43:34Z</time>
      </trkpt>
      <trkpt lat="43.64652" lon="2.34307">
        <ele>539.4</ele>
        <time>2025-09-16T15:43:35Z</time>
      </trkpt>
      <trkpt lat="43.64654" lon="2.34305">
        <ele>539</ele>
        <time>2025-09-16T15:43:36Z</time>
      </trkpt>
      <trkpt lat="43.64657" lon="2.34303">
        <ele>538.6</ele>
        <time>2025-09-16T15:43:37Z</time>
      </trkpt>
      <trkpt lat="43.6466" lon="2.34299">
        <ele>538.2</ele>
        <time>2025-09-16T15:43:38Z</time>
      </trkpt>
      <trkpt lat="43.64662" lon="2.34295">
        <ele>537.8</ele>
        <time>2025-09-16T15:43:39Z</time>
      </trkpt>
      <trkpt lat="43.64664" lon="2.34291">
        <ele>537.4</ele>
        <time>2025-09-16T15:43:40Z</time>
      </trkpt>
      <trkpt lat="43.64667" lon="2.34287">
        <ele>537</ele>
        <time>2025-09-16T15:43:41Z</time>
      </trkpt>
      <trkpt lat="43.64668" lon="2.34284">
        <ele>536.6</ele>
        <time>2025-09-16T15:43:42Z</time>
      </trkpt>
      <trkpt lat="43.64671" lon="2.34282">
        <ele>536.2</ele>
        <time>2025-09-16T15:43:43Z</time>
      </trkpt>
      <trkpt lat="43.64674" lon="2.3428">
        <ele>536</ele>
        <time>2025-09-16T15:43:44Z</time>
      </trkpt>
      <trkpt lat="43.64676" lon="2.3428">
        <ele>535.4</ele>
        <time>2025-09-16T15:43:45Z</time>
      </trkpt>
      <trkpt lat="43.64679" lon="2.3428">
        <ele>535</ele>
        <time>2025-09-16T15:43:46Z</time>
      </trkpt>
      <trkpt lat="43.64682" lon="2.34281">
        <ele>534.6</ele>
        <time>2025-09-16T15:43:47Z</time>
      </trkpt>
      <trkpt lat="43.64684" lon="2.34282">
        <ele>534</ele>
        <time>2025-09-16T15:43:48Z</time>
      </trkpt>
      <trkpt lat="43.64686" lon="2.34281">
        <ele>533.6</ele>
        <time>2025-09-16T15:43:49Z</time>
      </trkpt>
      <trkpt lat="43.64688" lon="2.3428">
        <ele>533.2</ele>
        <time>2025-09-16T15:43:50Z</time>
      </trkpt>
      <trkpt lat="43.6469" lon="2.3428">
        <ele>532.8</ele>
        <time>2025-09-16T15:43:51Z</time>
      </trkpt>
      <trkpt lat="43.64692" lon="2.34279">
        <ele>532.4</ele>
        <time>2025-09-16T15:43:52Z</time>
      </trkpt>
      <trkpt lat="43.64694" lon="2.34277">
        <ele>531.8</ele>
        <time>2025-09-16T15:43:53Z</time>
      </trkpt>
      <trkpt lat="43.64696" lon="2.34275">
        <ele>531.2</ele>
        <time>2025-09-16T15:43:54Z</time>
      </trkpt>
      <trkpt lat="43.64698" lon="2.34272">
        <ele>530.6</ele>
        <time>2025-09-16T15:43:55Z</time>
      </trkpt>
      <trkpt lat="43.647" lon="2.34268">
        <ele>530.2</ele>
        <time>2025-09-16T15:43:56Z</time>
      </trkpt>
      <trkpt lat="43.64701" lon="2.34265">
        <ele>529.8</ele>
        <time>2025-09-16T15:43:57Z</time>
      </trkpt>
      <trkpt lat="43.64702" lon="2.34261">
        <ele>529.6</ele>
        <time>2025-09-16T15:43:58Z</time>
      </trkpt>
      <trkpt lat="43.64703" lon="2.34256">
        <ele>529.2</ele>
        <time>2025-09-16T15:43:59Z</time>
      </trkpt>
      <trkpt lat="43.64704" lon="2.34252">
        <ele>528.6</ele>
        <time>2025-09-16T15:44:00Z</time>
      </trkpt>
      <trkpt lat="43.64705" lon="2.34247">
        <ele>528</ele>
        <time>2025-09-16T15:44:01Z</time>
      </trkpt>
      <trkpt lat="43.64706" lon="2.34242">
        <ele>527.6</ele>
        <time>2025-09-16T15:44:02Z</time>
      </trkpt>
      <trkpt lat="43.64706" lon="2.34239">
        <ele>527.2</ele>
        <time>2025-09-16T15:44:03Z</time>
      </trkpt>
      <trkpt lat="43.64706" lon="2.34234">
        <ele>526.6</ele>
        <time>2025-09-16T15:44:04Z</time>
      </trkpt>
      <trkpt lat="43.64706" lon="2.3423">
        <ele>526.2</ele>
        <time>2025-09-16T15:44:05Z</time>
      </trkpt>
      <trkpt lat="43.64707" lon="2.34225">
        <ele>525.6</ele>
        <time>2025-09-16T15:44:06Z</time>
      </trkpt>
      <trkpt lat="43.64707" lon="2.3422">
        <ele>525.2</ele>
        <time>2025-09-16T15:44:07Z</time>
      </trkpt>
      <trkpt lat="43.64706" lon="2.34214">
        <ele>524.8</ele>
        <time>2025-09-16T15:44:08Z</time>
      </trkpt>
      <trkpt lat="43.64706" lon="2.34211">
        <ele>524.4</ele>
        <time>2025-09-16T15:44:09Z</time>
      </trkpt>
      <trkpt lat="43.64707" lon="2.34208">
        <ele>524</ele>
        <time>2025-09-16T15:44:10Z</time>
      </trkpt>
      <trkpt lat="43.64708" lon="2.34204">
        <ele>523.8</ele>
        <time>2025-09-16T15:44:11Z</time>
      </trkpt>
      <trkpt lat="43.6471" lon="2.34203">
        <ele>523.4</ele>
        <time>2025-09-16T15:44:12Z</time>
      </trkpt>
      <trkpt lat="43.64712" lon="2.34203">
        <ele>523.2</ele>
        <time>2025-09-16T15:44:13Z</time>
      </trkpt>
      <trkpt lat="43.64714" lon="2.34205">
        <ele>522.8</ele>
        <time>2025-09-16T15:44:14Z</time>
      </trkpt>
      <trkpt lat="43.64716" lon="2.34207">
        <ele>522.4</ele>
        <time>2025-09-16T15:44:15Z</time>
      </trkpt>
      <trkpt lat="43.64719" lon="2.34209">
        <ele>522.2</ele>
        <time>2025-09-16T15:44:16Z</time>
      </trkpt>
      <trkpt lat="43.64722" lon="2.34212">
        <ele>521.8</ele>
        <time>2025-09-16T15:44:17Z</time>
      </trkpt>
      <trkpt lat="43.64724" lon="2.34213">
        <ele>521.4</ele>
        <time>2025-09-16T15:44:18Z</time>
      </trkpt>
      <trkpt lat="43.64727" lon="2.34213">
        <ele>520.8</ele>
        <time>2025-09-16T15:44:19Z</time>
      </trkpt>
      <trkpt lat="43.6473" lon="2.34213">
        <ele>520.4</ele>
        <time>2025-09-16T15:44:20Z</time>
      </trkpt>
      <trkpt lat="43.64733" lon="2.34214">
        <ele>519.8</ele>
        <time>2025-09-16T15:44:21Z</time>
      </trkpt>
      <trkpt lat="43.64735" lon="2.34216">
        <ele>519.2</ele>
        <time>2025-09-16T15:44:22Z</time>
      </trkpt>
      <trkpt lat="43.64738" lon="2.34217">
        <ele>518.6</ele>
        <time>2025-09-16T15:44:23Z</time>
      </trkpt>
      <trkpt lat="43.64741" lon="2.34218">
        <ele>518</ele>
        <time>2025-09-16T15:44:24Z</time>
      </trkpt>
      <trkpt lat="43.64743" lon="2.34219">
        <ele>517.4</ele>
        <time>2025-09-16T15:44:25Z</time>
      </trkpt>
      <trkpt lat="43.64746" lon="2.34219">
        <ele>516.8</ele>
        <time>2025-09-16T15:44:26Z</time>
      </trkpt>
      <trkpt lat="43.64749" lon="2.34218">
        <ele>516.4</ele>
        <time>2025-09-16T15:44:27Z</time>
      </trkpt>
      <trkpt lat="43.6475" lon="2.34216">
        <ele>515.8</ele>
        <time>2025-09-16T15:44:28Z</time>
      </trkpt>
      <trkpt lat="43.64753" lon="2.34213">
        <ele>515.2</ele>
        <time>2025-09-16T15:44:29Z</time>
      </trkpt>
      <trkpt lat="43.64754" lon="2.3421">
        <ele>514.6</ele>
        <time>2025-09-16T15:44:30Z</time>
      </trkpt>
      <trkpt lat="43.64755" lon="2.34207">
        <ele>513.6</ele>
        <time>2025-09-16T15:44:31Z</time>
      </trkpt>
      <trkpt lat="43.64756" lon="2.34203">
        <ele>513.2</ele>
        <time>2025-09-16T15:44:32Z</time>
      </trkpt>
      <trkpt lat="43.64756" lon="2.342">
        <ele>512.6</ele>
        <time>2025-09-16T15:44:33Z</time>
      </trkpt>
      <trkpt lat="43.64757" lon="2.34196">
        <ele>512</ele>
        <time>2025-09-16T15:44:34Z</time>
      </trkpt>
      <trkpt lat="43.64757" lon="2.34194">
        <ele>511.6</ele>
        <time>2025-09-16T15:44:35Z</time>
      </trkpt>
      <trkpt lat="43.64757" lon="2.34191">
        <ele>511.2</ele>
        <time>2025-09-16T15:44:36Z</time>
      </trkpt>
      <trkpt lat="43.64756" lon="2.34189">
        <ele>510.8</ele>
        <time>2025-09-16T15:44:37Z</time>
      </trkpt>
      <trkpt lat="43.64756" lon="2.34186">
        <ele>510.4</ele>
        <time>2025-09-16T15:44:38Z</time>
      </trkpt>
      <trkpt lat="43.64755" lon="2.34183">
        <ele>510</ele>
        <time>2025-09-16T15:44:39Z</time>
      </trkpt>
      <trkpt lat="43.64754" lon="2.34181">
        <ele>509.8</ele>
        <time>2025-09-16T15:44:40Z</time>
      </trkpt>
      <trkpt lat="43.64753" lon="2.34178">
        <ele>509.4</ele>
        <time>2025-09-16T15:44:41Z</time>
      </trkpt>
      <trkpt lat="43.64753" lon="2.34174">
        <ele>509</ele>
        <time>2025-09-16T15:44:42Z</time>
      </trkpt>
      <trkpt lat="43.64753" lon="2.34171">
        <ele>508.6</ele>
        <time>2025-09-16T15:44:43Z</time>
      </trkpt>
      <trkpt lat="43.64753" lon="2.34168">
        <ele>508</ele>
        <time>2025-09-16T15:44:44Z</time>
      </trkpt>
      <trkpt lat="43.64753" lon="2.34165">
        <ele>507.4</ele>
        <time>2025-09-16T15:44:45Z</time>
      </trkpt>
      <trkpt lat="43.64753" lon="2.34162">
        <ele>507</ele>
        <time>2025-09-16T15:44:46Z</time>
      </trkpt>
      <trkpt lat="43.64753" lon="2.34159">
        <ele>506.4</ele>
        <time>2025-09-16T15:44:47Z</time>
      </trkpt>
      <trkpt lat="43.64754" lon="2.34156">
        <ele>506</ele>
        <time>2025-09-16T15:44:48Z</time>
      </trkpt>
      <trkpt lat="43.64755" lon="2.34154">
        <ele>505.4</ele>
        <time>2025-09-16T15:44:49Z</time>
      </trkpt>
      <trkpt lat="43.64757" lon="2.34153">
        <ele>505</ele>
        <time>2025-09-16T15:44:50Z</time>
      </trkpt>
      <trkpt lat="43.64758" lon="2.34152">
        <ele>504.6</ele>
        <time>2025-09-16T15:44:51Z</time>
      </trkpt>
      <trkpt lat="43.64759" lon="2.34152">
        <ele>504.2</ele>
        <time>2025-09-16T15:44:52Z</time>
      </trkpt>
      <trkpt lat="43.64761" lon="2.34154">
        <ele>503.8</ele>
        <time>2025-09-16T15:44:53Z</time>
      </trkpt>
      <trkpt lat="43.64763" lon="2.34156">
        <ele>503.6</ele>
        <time>2025-09-16T15:44:54Z</time>
      </trkpt>
      <trkpt lat="43.64765" lon="2.34157">
        <ele>503</ele>
        <time>2025-09-16T15:44:55Z</time>
      </trkpt>
      <trkpt lat="43.64767" lon="2.34157">
        <ele>502.6</ele>
        <time>2025-09-16T15:44:56Z</time>
      </trkpt>
      <trkpt lat="43.6477" lon="2.34157">
        <ele>502.2</ele>
        <time>2025-09-16T15:44:57Z</time>
      </trkpt>
      <trkpt lat="43.64772" lon="2.34158">
        <ele>501.8</ele>
        <time>2025-09-16T15:44:58Z</time>
      </trkpt>
      <trkpt lat="43.64774" lon="2.34158">
        <ele>501.4</ele>
        <time>2025-09-16T15:44:59Z</time>
      </trkpt>
      <trkpt lat="43.64776" lon="2.34157">
        <ele>501</ele>
        <time>2025-09-16T15:45:00Z</time>
      </trkpt>
      <trkpt lat="43.64777" lon="2.34154">
        <ele>500.6</ele>
        <time>2025-09-16T15:45:01Z</time>
      </trkpt>
      <trkpt lat="43.64777" lon="2.3415">
        <ele>500.2</ele>
        <time>2025-09-16T15:45:02Z</time>
      </trkpt>
      <trkpt lat="43.64777" lon="2.34146">
        <ele>499.8</ele>
        <time>2025-09-16T15:45:03Z</time>
      </trkpt>
      <trkpt lat="43.64776" lon="2.34143">
        <ele>499.4</ele>
        <time>2025-09-16T15:45:04Z</time>
      </trkpt>
      <trkpt lat="43.64776" lon="2.3414">
        <ele>499</ele>
        <time>2025-09-16T15:45:05Z</time>
      </trkpt>
      <trkpt lat="43.64775" lon="2.34137">
        <ele>498.8</ele>
        <time>2025-09-16T15:45:06Z</time>
      </trkpt>
      <trkpt lat="43.64774" lon="2.34135">
        <ele>498.4</ele>
        <time>2025-09-16T15:45:07Z</time>
      </trkpt>
      <trkpt lat="43.64773" lon="2.34133">
        <ele>498.2</ele>
        <time>2025-09-16T15:45:08Z</time>
      </trkpt>
      <trkpt lat="43.64772" lon="2.34131">
        <ele>498</ele>
        <time>2025-09-16T15:45:09Z</time>
      </trkpt>
      <trkpt lat="43.64771" lon="2.34129">
        <ele>497.8</ele>
        <time>2025-09-16T15:45:10Z</time>
      </trkpt>
      <trkpt lat="43.6477" lon="2.34127">
        <ele>497.4</ele>
        <time>2025-09-16T15:45:11Z</time>
      </trkpt>
      <trkpt lat="43.64769" lon="2.34123">
        <ele>497.2</ele>
        <time>2025-09-16T15:45:12Z</time>
      </trkpt>
      <trkpt lat="43.64768" lon="2.3412">
        <ele>496.6</ele>
        <time>2025-09-16T15:45:13Z</time>
      </trkpt>
      <trkpt lat="43.64767" lon="2.34117">
        <ele>496</ele>
        <time>2025-09-16T15:45:14Z</time>
      </trkpt>
      <trkpt lat="43.64767" lon="2.34114">
        <ele>495.6</ele>
        <time>2025-09-16T15:45:15Z</time>
      </trkpt>
      <trkpt lat="43.64766" lon="2.34112">
        <ele>495.2</ele>
        <time>2025-09-16T15:45:16Z</time>
      </trkpt>
      <trkpt lat="43.64766" lon="2.3411">
        <ele>494.8</ele>
        <time>2025-09-16T15:45:17Z</time>
      </trkpt>
      <trkpt lat="43.64767" lon="2.34109">
        <ele>494.6</ele>
        <time>2025-09-16T15:45:18Z</time>
      </trkpt>
      <trkpt lat="43.64769" lon="2.34106">
        <ele>494.4</ele>
        <time>2025-09-16T15:45:19Z</time>
      </trkpt>
      <trkpt lat="43.6477" lon="2.34104">
        <ele>493.8</ele>
        <time>2025-09-16T15:45:20Z</time>
      </trkpt>
      <trkpt lat="43.6477" lon="2.34103">
        <ele>493.4</ele>
        <time>2025-09-16T15:45:21Z</time>
      </trkpt>
      <trkpt lat="43.64771" lon="2.34103">
        <ele>493</ele>
        <time>2025-09-16T15:45:22Z</time>
      </trkpt>
      <trkpt lat="43.64775" lon="2.341">
        <ele>492</ele>
        <time>2025-09-16T15:45:25Z</time>
      </trkpt>
      <trkpt lat="43.64777" lon="2.341">
        <ele>491.6</ele>
        <time>2025-09-16T15:45:26Z</time>
      </trkpt>
      <trkpt lat="43.6478" lon="2.34101">
        <ele>491.2</ele>
        <time>2025-09-16T15:45:27Z</time>
      </trkpt>
      <trkpt lat="43.64784" lon="2.34101">
        <ele>490.6</ele>
        <time>2025-09-16T15:45:28Z</time>
      </trkpt>
      <trkpt lat="43.64787" lon="2.34101">
        <ele>490</ele>
        <time>2025-09-16T15:45:29Z</time>
      </trkpt>
      <trkpt lat="43.6479" lon="2.341">
        <ele>489.6</ele>
        <time>2025-09-16T15:45:30Z</time>
      </trkpt>
      <trkpt lat="43.64793" lon="2.341">
        <ele>489.2</ele>
        <time>2025-09-16T15:45:31Z</time>
      </trkpt>
      <trkpt lat="43.64795" lon="2.341">
        <ele>488.6</ele>
        <time>2025-09-16T15:45:32Z</time>
      </trkpt>
      <trkpt lat="43.64797" lon="2.34099">
        <ele>488.2</ele>
        <time>2025-09-16T15:45:33Z</time>
      </trkpt>
      <trkpt lat="43.648" lon="2.34099">
        <ele>487.8</ele>
        <time>2025-09-16T15:45:34Z</time>
      </trkpt>
      <trkpt lat="43.64803" lon="2.34098">
        <ele>487.2</ele>
        <time>2025-09-16T15:45:35Z</time>
      </trkpt>
      <trkpt lat="43.64805" lon="2.34097">
        <ele>486.8</ele>
        <time>2025-09-16T15:45:36Z</time>
      </trkpt>
      <trkpt lat="43.64807" lon="2.34097">
        <ele>486.4</ele>
        <time>2025-09-16T15:45:37Z</time>
      </trkpt>
      <trkpt lat="43.6481" lon="2.34097">
        <ele>486.2</ele>
        <time>2025-09-16T15:45:38Z</time>
      </trkpt>
      <trkpt lat="43.64812" lon="2.34097">
        <ele>485.8</ele>
        <time>2025-09-16T15:45:39Z</time>
      </trkpt>
      <trkpt lat="43.64814" lon="2.34097">
        <ele>485.6</ele>
        <time>2025-09-16T15:45:40Z</time>
      </trkpt>
      <trkpt lat="43.64817" lon="2.34097">
        <ele>485.2</ele>
        <time>2025-09-16T15:45:41Z</time>
      </trkpt>
      <trkpt lat="43.6482" lon="2.34097">
        <ele>484.8</ele>
        <time>2025-09-16T15:45:42Z</time>
      </trkpt>
      <trkpt lat="43.64824" lon="2.34097">
        <ele>484.4</ele>
        <time>2025-09-16T15:45:43Z</time>
      </trkpt>
      <trkpt lat="43.64827" lon="2.34097">
        <ele>484.2</ele>
        <time>2025-09-16T15:45:44Z</time>
      </trkpt>
      <trkpt lat="43.64831" lon="2.34099">
        <ele>483.6</ele>
        <time>2025-09-16T15:45:45Z</time>
      </trkpt>
      <trkpt lat="43.64833" lon="2.34101">
        <ele>483.4</ele>
        <time>2025-09-16T15:45:46Z</time>
      </trkpt>
      <trkpt lat="43.64835" lon="2.34103">
        <ele>483.2</ele>
        <time>2025-09-16T15:45:47Z</time>
      </trkpt>
      <trkpt lat="43.64837" lon="2.34104">
        <ele>483</ele>
        <time>2025-09-16T15:45:48Z</time>
      </trkpt>
      <trkpt lat="43.64839" lon="2.34104">
        <ele>483</ele>
        <time>2025-09-16T15:45:49Z</time>
      </trkpt>
      <trkpt lat="43.6484" lon="2.34104">
        <ele>482.8</ele>
        <time>2025-09-16T15:45:50Z</time>
      </trkpt>
      <trkpt lat="43.64842" lon="2.34104">
        <ele>482.6</ele>
        <time>2025-09-16T15:45:51Z</time>
      </trkpt>
      <trkpt lat="43.64845" lon="2.34102">
        <ele>482.4</ele>
        <time>2025-09-16T15:45:52Z</time>
      </trkpt>
      <trkpt lat="43.64848" lon="2.341">
        <ele>482.2</ele>
        <time>2025-09-16T15:45:53Z</time>
      </trkpt>
      <trkpt lat="43.6485" lon="2.34098">
        <ele>481.8</ele>
        <time>2025-09-16T15:45:54Z</time>
      </trkpt>
      <trkpt lat="43.64852" lon="2.34098">
        <ele>481.4</ele>
        <time>2025-09-16T15:45:55Z</time>
      </trkpt>
      <trkpt lat="43.64853" lon="2.34097">
        <ele>481.2</ele>
        <time>2025-09-16T15:45:56Z</time>
      </trkpt>
      <trkpt lat="43.64854" lon="2.34095">
        <ele>481</ele>
        <time>2025-09-16T15:45:57Z</time>
      </trkpt>
      <trkpt lat="43.64855" lon="2.34093">
        <ele>480.8</ele>
        <time>2025-09-16T15:45:58Z</time>
      </trkpt>
      <trkpt lat="43.64856" lon="2.34091">
        <ele>480.6</ele>
        <time>2025-09-16T15:45:59Z</time>
      </trkpt>
      <trkpt lat="43.64856" lon="2.34089">
        <ele>480.4</ele>
        <time>2025-09-16T15:46:00Z</time>
      </trkpt>
      <trkpt lat="43.64856" lon="2.34087">
        <ele>480.2</ele>
        <time>2025-09-16T15:46:01Z</time>
      </trkpt>
      <trkpt lat="43.64857" lon="2.34085">
        <ele>480.2</ele>
        <time>2025-09-16T15:46:02Z</time>
      </trkpt>
      <trkpt lat="43.64858" lon="2.34082">
        <ele>479.8</ele>
        <time>2025-09-16T15:46:03Z</time>
      </trkpt>
      <trkpt lat="43.64858" lon="2.34079">
        <ele>479.8</ele>
        <time>2025-09-16T15:46:04Z</time>
      </trkpt>
      <trkpt lat="43.6486" lon="2.34076">
        <ele>479.6</ele>
        <time>2025-09-16T15:46:05Z</time>
      </trkpt>
      <trkpt lat="43.64861" lon="2.34074">
        <ele>479.4</ele>
        <time>2025-09-16T15:46:06Z</time>
      </trkpt>
      <trkpt lat="43.64862" lon="2.34073">
        <ele>479.2</ele>
        <time>2025-09-16T15:46:07Z</time>
      </trkpt>
      <trkpt lat="43.64863" lon="2.34073">
        <ele>479</ele>
        <time>2025-09-16T15:46:08Z</time>
      </trkpt>
      <trkpt lat="43.64865" lon="2.34073">
        <ele>478.8</ele>
        <time>2025-09-16T15:46:09Z</time>
      </trkpt>
      <trkpt lat="43.64866" lon="2.34071">
        <ele>478.6</ele>
        <time>2025-09-16T15:46:10Z</time>
      </trkpt>
      <trkpt lat="43.64867" lon="2.34069">
        <ele>478.4</ele>
        <time>2025-09-16T15:46:11Z</time>
      </trkpt>
      <trkpt lat="43.64868" lon="2.34067">
        <ele>478.2</ele>
        <time>2025-09-16T15:46:12Z</time>
      </trkpt>
      <trkpt lat="43.6487" lon="2.34064">
        <ele>477.8</ele>
        <time>2025-09-16T15:46:13Z</time>
      </trkpt>
      <trkpt lat="43.64872" lon="2.34062">
        <ele>477.4</ele>
        <time>2025-09-16T15:46:14Z</time>
      </trkpt>
      <trkpt lat="43.64873" lon="2.3406">
        <ele>477</ele>
        <time>2025-09-16T15:46:15Z</time>
      </trkpt>
      <trkpt lat="43.64875" lon="2.34058">
        <ele>476.6</ele>
        <time>2025-09-16T15:46:16Z</time>
      </trkpt>
      <trkpt lat="43.64877" lon="2.34055">
        <ele>476.2</ele>
        <time>2025-09-16T15:46:17Z</time>
      </trkpt>
      <trkpt lat="43.64879" lon="2.34053">
        <ele>475.6</ele>
        <time>2025-09-16T15:46:18Z</time>
      </trkpt>
      <trkpt lat="43.64881" lon="2.34051">
        <ele>475.2</ele>
        <time>2025-09-16T15:46:19Z</time>
      </trkpt>
      <trkpt lat="43.64883" lon="2.34049">
        <ele>474.8</ele>
        <time>2025-09-16T15:46:20Z</time>
      </trkpt>
      <trkpt lat="43.64884" lon="2.34048">
        <ele>474.4</ele>
        <time>2025-09-16T15:46:21Z</time>
      </trkpt>
      <trkpt lat="43.64885" lon="2.34046">
        <ele>474</ele>
        <time>2025-09-16T15:46:22Z</time>
      </trkpt>
      <trkpt lat="43.64885" lon="2.34044">
        <ele>473.8</ele>
        <time>2025-09-16T15:46:23Z</time>
      </trkpt>
      <trkpt lat="43.64887" lon="2.34041">
        <ele>473.6</ele>
        <time>2025-09-16T15:46:24Z</time>
      </trkpt>
      <trkpt lat="43.64888" lon="2.34039">
        <ele>473.2</ele>
        <time>2025-09-16T15:46:25Z</time>
      </trkpt>
      <trkpt lat="43.64891" lon="2.34037">
        <ele>472.8</ele>
        <time>2025-09-16T15:46:26Z</time>
      </trkpt>
      <trkpt lat="43.64893" lon="2.34035">
        <ele>472.2</ele>
        <time>2025-09-16T15:46:27Z</time>
      </trkpt>
      <trkpt lat="43.64894" lon="2.34033">
        <ele>471.8</ele>
        <time>2025-09-16T15:46:28Z</time>
      </trkpt>
      <trkpt lat="43.64895" lon="2.34032">
        <ele>471.4</ele>
        <time>2025-09-16T15:46:29Z</time>
      </trkpt>
      <trkpt lat="43.64897" lon="2.34032">
        <ele>471</ele>
        <time>2025-09-16T15:46:30Z</time>
      </trkpt>
      <trkpt lat="43.64898" lon="2.34031">
        <ele>470.6</ele>
        <time>2025-09-16T15:46:31Z</time>
      </trkpt>
      <trkpt lat="43.64901" lon="2.3403">
        <ele>470.2</ele>
        <time>2025-09-16T15:46:32Z</time>
      </trkpt>
      <trkpt lat="43.64903" lon="2.34029">
        <ele>470</ele>
        <time>2025-09-16T15:46:33Z</time>
      </trkpt>
      <trkpt lat="43.64904" lon="2.34027">
        <ele>469.4</ele>
        <time>2025-09-16T15:46:34Z</time>
      </trkpt>
      <trkpt lat="43.64905" lon="2.34025">
        <ele>469.2</ele>
        <time>2025-09-16T15:46:35Z</time>
      </trkpt>
      <trkpt lat="43.64905" lon="2.34023">
        <ele>468.8</ele>
        <time>2025-09-16T15:46:36Z</time>
      </trkpt>
      <trkpt lat="43.64906" lon="2.34022">
        <ele>468.4</ele>
        <time>2025-09-16T15:46:37Z</time>
      </trkpt>
      <trkpt lat="43.64907" lon="2.3402">
        <ele>467.8</ele>
        <time>2025-09-16T15:46:38Z</time>
      </trkpt>
      <trkpt lat="43.64907" lon="2.34018">
        <ele>467.4</ele>
        <time>2025-09-16T15:46:39Z</time>
      </trkpt>
      <trkpt lat="43.64909" lon="2.34016">
        <ele>466.8</ele>
        <time>2025-09-16T15:46:40Z</time>
      </trkpt>
      <trkpt lat="43.64909" lon="2.34014">
        <ele>466.4</ele>
        <time>2025-09-16T15:46:41Z</time>
      </trkpt>
      <trkpt lat="43.6491" lon="2.34013">
        <ele>466</ele>
        <time>2025-09-16T15:46:42Z</time>
      </trkpt>
      <trkpt lat="43.64911" lon="2.34013">
        <ele>465.4</ele>
        <time>2025-09-16T15:46:43Z</time>
      </trkpt>
      <trkpt lat="43.64913" lon="2.34012">
        <ele>465</ele>
        <time>2025-09-16T15:46:44Z</time>
      </trkpt>
      <trkpt lat="43.64915" lon="2.3401">
        <ele>464.6</ele>
        <time>2025-09-16T15:46:45Z</time>
      </trkpt>
      <trkpt lat="43.64917" lon="2.34009">
        <ele>464</ele>
        <time>2025-09-16T15:46:46Z</time>
      </trkpt>
      <trkpt lat="43.64919" lon="2.34008">
        <ele>463.6</ele>
        <time>2025-09-16T15:46:47Z</time>
      </trkpt>
      <trkpt lat="43.6492" lon="2.34007">
        <ele>463.2</ele>
        <time>2025-09-16T15:46:48Z</time>
      </trkpt>
      <trkpt lat="43.64921" lon="2.34005">
        <ele>462.8</ele>
        <time>2025-09-16T15:46:49Z</time>
      </trkpt>
      <trkpt lat="43.64922" lon="2.34003">
        <ele>462.4</ele>
        <time>2025-09-16T15:46:50Z</time>
      </trkpt>
      <trkpt lat="43.64924" lon="2.34001">
        <ele>462</ele>
        <time>2025-09-16T15:46:51Z</time>
      </trkpt>
      <trkpt lat="43.64925" lon="2.33998">
        <ele>461.4</ele>
        <time>2025-09-16T15:46:52Z</time>
      </trkpt>
      <trkpt lat="43.64927" lon="2.33996">
        <ele>460.8</ele>
        <time>2025-09-16T15:46:53Z</time>
      </trkpt>
      <trkpt lat="43.64929" lon="2.33994">
        <ele>460.4</ele>
        <time>2025-09-16T15:46:54Z</time>
      </trkpt>
      <trkpt lat="43.64931" lon="2.33992">
        <ele>459.8</ele>
        <time>2025-09-16T15:46:55Z</time>
      </trkpt>
      <trkpt lat="43.64934" lon="2.33989">
        <ele>459.2</ele>
        <time>2025-09-16T15:46:56Z</time>
      </trkpt>
      <trkpt lat="43.64937" lon="2.33987">
        <ele>458.6</ele>
        <time>2025-09-16T15:46:57Z</time>
      </trkpt>
      <trkpt lat="43.64938" lon="2.33984">
        <ele>458</ele>
        <time>2025-09-16T15:46:58Z</time>
      </trkpt>
      <trkpt lat="43.6494" lon="2.3398">
        <ele>457.6</ele>
        <time>2025-09-16T15:46:59Z</time>
      </trkpt>
      <trkpt lat="43.64942" lon="2.33978">
        <ele>457.2</ele>
        <time>2025-09-16T15:47:00Z</time>
      </trkpt>
      <trkpt lat="43.64944" lon="2.33975">
        <ele>456.6</ele>
        <time>2025-09-16T15:47:01Z</time>
      </trkpt>
      <trkpt lat="43.64947" lon="2.33972">
        <ele>456.2</ele>
        <time>2025-09-16T15:47:02Z</time>
      </trkpt>
      <trkpt lat="43.64948" lon="2.3397">
        <ele>455.8</ele>
        <time>2025-09-16T15:47:03Z</time>
      </trkpt>
      <trkpt lat="43.64949" lon="2.33967">
        <ele>455.4</ele>
        <time>2025-09-16T15:47:04Z</time>
      </trkpt>
      <trkpt lat="43.64951" lon="2.33964">
        <ele>455</ele>
        <time>2025-09-16T15:47:05Z</time>
      </trkpt>
      <trkpt lat="43.64952" lon="2.3396">
        <ele>454.6</ele>
        <time>2025-09-16T15:47:06Z</time>
      </trkpt>
      <trkpt lat="43.64953" lon="2.33957">
        <ele>454.2</ele>
        <time>2025-09-16T15:47:07Z</time>
      </trkpt>
      <trkpt lat="43.64954" lon="2.33954">
        <ele>453.8</ele>
        <time>2025-09-16T15:47:08Z</time>
      </trkpt>
      <trkpt lat="43.64955" lon="2.33951">
        <ele>453.4</ele>
        <time>2025-09-16T15:47:09Z</time>
      </trkpt>
      <trkpt lat="43.64956" lon="2.33948">
        <ele>452.8</ele>
        <time>2025-09-16T15:47:10Z</time>
      </trkpt>
      <trkpt lat="43.64957" lon="2.33946">
        <ele>452.4</ele>
        <time>2025-09-16T15:47:11Z</time>
      </trkpt>
      <trkpt lat="43.64959" lon="2.33943">
        <ele>452.2</ele>
        <time>2025-09-16T15:47:12Z</time>
      </trkpt>
      <trkpt lat="43.64961" lon="2.33941">
        <ele>451.8</ele>
        <time>2025-09-16T15:47:13Z</time>
      </trkpt>
      <trkpt lat="43.64963" lon="2.33938">
        <ele>451.4</ele>
        <time>2025-09-16T15:47:14Z</time>
      </trkpt>
      <trkpt lat="43.64963" lon="2.33937">
        <ele>451</ele>
        <time>2025-09-16T15:47:15Z</time>
      </trkpt>
      <trkpt lat="43.64964" lon="2.33934">
        <ele>450.6</ele>
        <time>2025-09-16T15:47:16Z</time>
      </trkpt>
      <trkpt lat="43.64965" lon="2.33932">
        <ele>450.4</ele>
        <time>2025-09-16T15:47:17Z</time>
      </trkpt>
      <trkpt lat="43.64966" lon="2.3393">
        <ele>450</ele>
        <time>2025-09-16T15:47:18Z</time>
      </trkpt>
      <trkpt lat="43.64966" lon="2.33927">
        <ele>449.8</ele>
        <time>2025-09-16T15:47:19Z</time>
      </trkpt>
      <trkpt lat="43.64966" lon="2.33926">
        <ele>449.4</ele>
        <time>2025-09-16T15:47:20Z</time>
      </trkpt>
      <trkpt lat="43.64965" lon="2.33925">
        <ele>449</ele>
        <time>2025-09-16T15:47:21Z</time>
      </trkpt>
      <trkpt lat="43.64964" lon="2.33925">
        <ele>448.4</ele>
        <time>2025-09-16T15:47:22Z</time>
      </trkpt>
      <trkpt lat="43.64963" lon="2.33925">
        <ele>448.2</ele>
        <time>2025-09-16T15:47:23Z</time>
      </trkpt>
      <trkpt lat="43.64956" lon="2.33925">
        <ele>446.8</ele>
        <time>2025-09-16T15:47:50Z</time>
      </trkpt>
      <trkpt lat="43.64954" lon="2.33924">
        <ele>446.4</ele>
        <time>2025-09-16T15:47:51Z</time>
      </trkpt>
      <trkpt lat="43.64951" lon="2.33923">
        <ele>446</ele>
        <time>2025-09-16T15:47:52Z</time>
      </trkpt>
      <trkpt lat="43.64948" lon="2.33924">
        <ele>445.6</ele>
        <time>2025-09-16T15:47:53Z</time>
      </trkpt>
      <trkpt lat="43.64947" lon="2.33925">
        <ele>445.4</ele>
        <time>2025-09-16T15:47:54Z</time>
      </trkpt>
      <trkpt lat="43.64944" lon="2.33927">
        <ele>445</ele>
        <time>2025-09-16T15:47:55Z</time>
      </trkpt>
      <trkpt lat="43.64942" lon="2.33929">
        <ele>444.8</ele>
        <time>2025-09-16T15:47:56Z</time>
      </trkpt>
      <trkpt lat="43.6494" lon="2.3393">
        <ele>444.4</ele>
        <time>2025-09-16T15:47:57Z</time>
      </trkpt>
      <trkpt lat="43.64937" lon="2.33932">
        <ele>444</ele>
        <time>2025-09-16T15:47:58Z</time>
      </trkpt>
      <trkpt lat="43.64934" lon="2.33933">
        <ele>443.6</ele>
        <time>2025-09-16T15:47:59Z</time>
      </trkpt>
      <trkpt lat="43.64931" lon="2.33934">
        <ele>443.2</ele>
        <time>2025-09-16T15:48:00Z</time>
      </trkpt>
      <trkpt lat="43.64926" lon="2.33936">
        <ele>442.8</ele>
        <time>2025-09-16T15:48:01Z</time>
      </trkpt>
      <trkpt lat="43.64922" lon="2.33938">
        <ele>442.6</ele>
        <time>2025-09-16T15:48:02Z</time>
      </trkpt>
      <trkpt lat="43.64919" lon="2.33939">
        <ele>442.4</ele>
        <time>2025-09-16T15:48:03Z</time>
      </trkpt>
      <trkpt lat="43.64915" lon="2.3394">
        <ele>442</ele>
        <time>2025-09-16T15:48:04Z</time>
      </trkpt>
      <trkpt lat="43.64912" lon="2.3394">
        <ele>441.8</ele>
        <time>2025-09-16T15:48:05Z</time>
      </trkpt>
      <trkpt lat="43.64908" lon="2.33941">
        <ele>441.6</ele>
        <time>2025-09-16T15:48:06Z</time>
      </trkpt>
      <trkpt lat="43.64905" lon="2.33942">
        <ele>441.4</ele>
        <time>2025-09-16T15:48:07Z</time>
      </trkpt>
      <trkpt lat="43.64902" lon="2.33943">
        <ele>441.2</ele>
        <time>2025-09-16T15:48:08Z</time>
      </trkpt>
      <trkpt lat="43.649" lon="2.33944">
        <ele>441</ele>
        <time>2025-09-16T15:48:09Z</time>
      </trkpt>
      <trkpt lat="43.64897" lon="2.33944">
        <ele>440.6</ele>
        <time>2025-09-16T15:48:10Z</time>
      </trkpt>
      <trkpt lat="43.64894" lon="2.33945">
        <ele>440.2</ele>
        <time>2025-09-16T15:48:11Z</time>
      </trkpt>
      <trkpt lat="43.64892" lon="2.33947">
        <ele>439.8</ele>
        <time>2025-09-16T15:48:12Z</time>
      </trkpt>
      <trkpt lat="43.64889" lon="2.33947">
        <ele>439.6</ele>
        <time>2025-09-16T15:48:13Z</time>
      </trkpt>
      <trkpt lat="43.64887" lon="2.33948">
        <ele>439.4</ele>
        <time>2025-09-16T15:48:14Z</time>
      </trkpt>
      <trkpt lat="43.64886" lon="2.33949">
        <ele>439.2</ele>
        <time>2025-09-16T15:48:15Z</time>
      </trkpt>
      <trkpt lat="43.64884" lon="2.3395">
        <ele>439</ele>
        <time>2025-09-16T15:48:16Z</time>
      </trkpt>
      <trkpt lat="43.64883" lon="2.3395">
        <ele>438.8</ele>
        <time>2025-09-16T15:48:17Z</time>
      </trkpt>
      <trkpt lat="43.64882" lon="2.3395">
        <ele>438.6</ele>
        <time>2025-09-16T15:48:18Z</time>
      </trkpt>
      <trkpt lat="43.64879" lon="2.33949">
        <ele>438.4</ele>
        <time>2025-09-16T15:48:19Z</time>
      </trkpt>
      <trkpt lat="43.64877" lon="2.33949">
        <ele>438</ele>
        <time>2025-09-16T15:48:20Z</time>
      </trkpt>
      <trkpt lat="43.64874" lon="2.33949">
        <ele>437.6</ele>
        <time>2025-09-16T15:48:21Z</time>
      </trkpt>
      <trkpt lat="43.6487" lon="2.3395">
        <ele>436.8</ele>
        <time>2025-09-16T15:48:22Z</time>
      </trkpt>
      <trkpt lat="43.64865" lon="2.33951">
        <ele>436.2</ele>
        <time>2025-09-16T15:48:23Z</time>
      </trkpt>
      <trkpt lat="43.64862" lon="2.33953">
        <ele>435.8</ele>
        <time>2025-09-16T15:48:24Z</time>
      </trkpt>
      <trkpt lat="43.64859" lon="2.33953">
        <ele>435.6</ele>
        <time>2025-09-16T15:48:25Z</time>
      </trkpt>
      <trkpt lat="43.64857" lon="2.33954">
        <ele>435.6</ele>
        <time>2025-09-16T15:48:26Z</time>
      </trkpt>
      <trkpt lat="43.64856" lon="2.33955">
        <ele>435.8</ele>
        <time>2025-09-16T15:48:27Z</time>
      </trkpt>
      <trkpt lat="43.64855" lon="2.33956">
        <ele>436.2</ele>
        <time>2025-09-16T15:48:28Z</time>
      </trkpt>
      <trkpt lat="43.64854" lon="2.33956">
        <ele>436.6</ele>
        <time>2025-09-16T15:48:29Z</time>
      </trkpt>
      <trkpt lat="43.64847" lon="2.33956">
        <ele>437.6</ele>
        <time>2025-09-16T15:48:33Z</time>
      </trkpt>
      <trkpt lat="43.64845" lon="2.33956">
        <ele>437.6</ele>
        <time>2025-09-16T15:48:34Z</time>
      </trkpt>
      <trkpt lat="43.64843" lon="2.33956">
        <ele>437.8</ele>
        <time>2025-09-16T15:48:35Z</time>
      </trkpt>
      <trkpt lat="43.64841" lon="2.33956">
        <ele>437.8</ele>
        <time>2025-09-16T15:48:36Z</time>
      </trkpt>
      <trkpt lat="43.64838" lon="2.33955">
        <ele>437.8</ele>
        <time>2025-09-16T15:48:37Z</time>
      </trkpt>
      <trkpt lat="43.64835" lon="2.33955">
        <ele>437.6</ele>
        <time>2025-09-16T15:48:38Z</time>
      </trkpt>
      <trkpt lat="43.64831" lon="2.33955">
        <ele>437.6</ele>
        <time>2025-09-16T15:48:39Z</time>
      </trkpt>
      <trkpt lat="43.64828" lon="2.33956">
        <ele>437.6</ele>
        <time>2025-09-16T15:48:40Z</time>
      </trkpt>
      <trkpt lat="43.64826" lon="2.33956">
        <ele>437.6</ele>
        <time>2025-09-16T15:48:41Z</time>
      </trkpt>
      <trkpt lat="43.64824" lon="2.33956">
        <ele>437.8</ele>
        <time>2025-09-16T15:48:42Z</time>
      </trkpt>
      <trkpt lat="43.64821" lon="2.33956">
        <ele>437.8</ele>
        <time>2025-09-16T15:48:43Z</time>
      </trkpt>
      <trkpt lat="43.64819" lon="2.33955">
        <ele>438</ele>
        <time>2025-09-16T15:48:44Z</time>
      </trkpt>
      <trkpt lat="43.64817" lon="2.33953">
        <ele>437.8</ele>
        <time>2025-09-16T15:48:45Z</time>
      </trkpt>
      <trkpt lat="43.64814" lon="2.33952">
        <ele>437.8</ele>
        <time>2025-09-16T15:48:46Z</time>
      </trkpt>
      <trkpt lat="43.64811" lon="2.33951">
        <ele>437.6</ele>
        <time>2025-09-16T15:48:47Z</time>
      </trkpt>
      <trkpt lat="43.64808" lon="2.3395">
        <ele>437.4</ele>
        <time>2025-09-16T15:48:48Z</time>
      </trkpt>
      <trkpt lat="43.64806" lon="2.33949">
        <ele>437.2</ele>
        <time>2025-09-16T15:48:49Z</time>
      </trkpt>
      <trkpt lat="43.64803" lon="2.33949">
        <ele>437</ele>
        <time>2025-09-16T15:48:50Z</time>
      </trkpt>
      <trkpt lat="43.648" lon="2.33947">
        <ele>436.8</ele>
        <time>2025-09-16T15:48:51Z</time>
      </trkpt>
      <trkpt lat="43.64797" lon="2.33945">
        <ele>436.6</ele>
        <time>2025-09-16T15:48:52Z</time>
      </trkpt>
      <trkpt lat="43.64793" lon="2.33943">
        <ele>436.2</ele>
        <time>2025-09-16T15:48:53Z</time>
      </trkpt>
      <trkpt lat="43.64791" lon="2.33943">
        <ele>436</ele>
        <time>2025-09-16T15:48:54Z</time>
      </trkpt>
      <trkpt lat="43.64789" lon="2.33942">
        <ele>435.8</ele>
        <time>2025-09-16T15:48:55Z</time>
      </trkpt>
      <trkpt lat="43.64787" lon="2.33941">
        <ele>435.4</ele>
        <time>2025-09-16T15:48:56Z</time>
      </trkpt>
      <trkpt lat="43.64785" lon="2.33939">
        <ele>435.2</ele>
        <time>2025-09-16T15:48:57Z</time>
      </trkpt>
      <trkpt lat="43.64783" lon="2.33937">
        <ele>434.6</ele>
        <time>2025-09-16T15:48:58Z</time>
      </trkpt>
      <trkpt lat="43.64782" lon="2.33935">
        <ele>434</ele>
        <time>2025-09-16T15:48:59Z</time>
      </trkpt>
      <trkpt lat="43.6478" lon="2.33933">
        <ele>433.4</ele>
        <time>2025-09-16T15:49:00Z</time>
      </trkpt>
      <trkpt lat="43.64778" lon="2.33932">
        <ele>432.8</ele>
        <time>2025-09-16T15:49:01Z</time>
      </trkpt>
      <trkpt lat="43.64776" lon="2.33931">
        <ele>432.2</ele>
        <time>2025-09-16T15:49:02Z</time>
      </trkpt>
      <trkpt lat="43.64774" lon="2.3393">
        <ele>431.8</ele>
        <time>2025-09-16T15:49:03Z</time>
      </trkpt>
      <trkpt lat="43.64771" lon="2.3393">
        <ele>431.4</ele>
        <time>2025-09-16T15:49:04Z</time>
      </trkpt>
      <trkpt lat="43.64769" lon="2.3393">
        <ele>430.8</ele>
        <time>2025-09-16T15:49:05Z</time>
      </trkpt>
      <trkpt lat="43.64768" lon="2.3393">
        <ele>430.4</ele>
        <time>2025-09-16T15:49:06Z</time>
      </trkpt>
      <trkpt lat="43.64766" lon="2.33929">
        <ele>430</ele>
        <time>2025-09-16T15:49:07Z</time>
      </trkpt>
      <trkpt lat="43.64765" lon="2.33929">
        <ele>429.6</ele>
        <time>2025-09-16T15:49:08Z</time>
      </trkpt>
      <trkpt lat="43.64764" lon="2.33929">
        <ele>429.2</ele>
        <time>2025-09-16T15:49:09Z</time>
      </trkpt>
      <trkpt lat="43.64764" lon="2.33929">
        <ele>428.8</ele>
        <time>2025-09-16T15:49:10Z</time>
      </trkpt>
      <trkpt lat="43.64764" lon="2.33929">
        <ele>428.4</ele>
        <time>2025-09-16T15:49:11Z</time>
      </trkpt>
      <trkpt lat="43.64752" lon="2.33916">
        <ele>422.2</ele>
        <time>2025-09-16T15:49:53Z</time>
      </trkpt>
      <trkpt lat="43.64749" lon="2.33915">
        <ele>422</ele>
        <time>2025-09-16T15:49:54Z</time>
      </trkpt>
      <trkpt lat="43.64747" lon="2.33915">
        <ele>422</ele>
        <time>2025-09-16T15:49:55Z</time>
      </trkpt>
      <trkpt lat="43.64747" lon="2.33916">
        <ele>421.8</ele>
        <time>2025-09-16T15:49:56Z</time>
      </trkpt>
      <trkpt lat="43.64746" lon="2.33916">
        <ele>422</ele>
        <time>2025-09-16T15:49:57Z</time>
      </trkpt>
      <trkpt lat="43.64746" lon="2.33916">
        <ele>422.2</ele>
        <time>2025-09-16T15:49:58Z</time>
      </trkpt>
      <trkpt lat="43.64731" lon="2.33899">
        <ele>416.4</ele>
        <time>2025-09-16T15:50:39Z</time>
      </trkpt>
      <trkpt lat="43.6473" lon="2.33897">
        <ele>416</ele>
        <time>2025-09-16T15:50:40Z</time>
      </trkpt>
      <trkpt lat="43.64729" lon="2.33895">
        <ele>415.2</ele>
        <time>2025-09-16T15:50:41Z</time>
      </trkpt>
      <trkpt lat="43.64728" lon="2.33894">
        <ele>414.8</ele>
        <time>2025-09-16T15:50:42Z</time>
      </trkpt>
      <trkpt lat="43.64728" lon="2.33894">
        <ele>414.4</ele>
        <time>2025-09-16T15:50:43Z</time>
      </trkpt>
      <trkpt lat="43.64728" lon="2.33894">
        <ele>414.2</ele>
        <time>2025-09-16T15:50:44Z</time>
      </trkpt>
      <trkpt lat="43.64717" lon="2.33863">
        <ele>401.8</ele>
        <time>2025-09-16T15:52:20Z</time>
      </trkpt>
      <trkpt lat="43.64716" lon="2.33861">
        <ele>401.4</ele>
        <time>2025-09-16T15:52:21Z</time>
      </trkpt>
      <trkpt lat="43.64715" lon="2.33859">
        <ele>400.6</ele>
        <time>2025-09-16T15:52:22Z</time>
      </trkpt>
      <trkpt lat="43.64712" lon="2.33856">
        <ele>400.2</ele>
        <time>2025-09-16T15:52:23Z</time>
      </trkpt>
      <trkpt lat="43.6471" lon="2.33853">
        <ele>399.6</ele>
        <time>2025-09-16T15:52:24Z</time>
      </trkpt>
      <trkpt lat="43.64709" lon="2.33851">
        <ele>399</ele>
        <time>2025-09-16T15:52:25Z</time>
      </trkpt>
      <trkpt lat="43.64707" lon="2.33848">
        <ele>398.4</ele>
        <time>2025-09-16T15:52:26Z</time>
      </trkpt>
      <trkpt lat="43.64704" lon="2.33845">
        <ele>397.8</ele>
        <time>2025-09-16T15:52:27Z</time>
      </trkpt>
      <trkpt lat="43.64701" lon="2.33842">
        <ele>397</ele>
        <time>2025-09-16T15:52:28Z</time>
      </trkpt>
      <trkpt lat="43.64699" lon="2.3384">
        <ele>396.6</ele>
        <time>2025-09-16T15:52:29Z</time>
      </trkpt>
      <trkpt lat="43.64697" lon="2.33837">
        <ele>396</ele>
        <time>2025-09-16T15:52:30Z</time>
      </trkpt>
      <trkpt lat="43.64695" lon="2.33835">
        <ele>395.6</ele>
        <time>2025-09-16T15:52:31Z</time>
      </trkpt>
      <trkpt lat="43.64693" lon="2.33832">
        <ele>395.2</ele>
        <time>2025-09-16T15:52:32Z</time>
      </trkpt>
      <trkpt lat="43.64691" lon="2.33831">
        <ele>394.8</ele>
        <time>2025-09-16T15:52:33Z</time>
      </trkpt>
      <trkpt lat="43.6469" lon="2.33831">
        <ele>394.4</ele>
        <time>2025-09-16T15:52:34Z</time>
      </trkpt>
      <trkpt lat="43.6469" lon="2.33831">
        <ele>394.2</ele>
        <time>2025-09-16T15:52:35Z</time>
      </trkpt>
      <trkpt lat="43.64661" lon="2.33801">
        <ele>381.2</ele>
        <time>2025-09-16T15:54:04Z</time>
      </trkpt>
      <trkpt lat="43.64658" lon="2.33799">
        <ele>380.6</ele>
        <time>2025-09-16T15:54:05Z</time>
      </trkpt>
      <trkpt lat="43.64656" lon="2.33799">
        <ele>380</ele>
        <time>2025-09-16T15:54:06Z</time>
      </trkpt>
      <trkpt lat="43.64654" lon="2.33798">
        <ele>379.6</ele>
        <time>2025-09-16T15:54:07Z</time>
      </trkpt>
      <trkpt lat="43.64652" lon="2.33797">
        <ele>379</ele>
        <time>2025-09-16T15:54:08Z</time>
      </trkpt>
      <trkpt lat="43.64649" lon="2.33795">
        <ele>378.4</ele>
        <time>2025-09-16T15:54:09Z</time>
      </trkpt>
      <trkpt lat="43.64645" lon="2.33793">
        <ele>377.4</ele>
        <time>2025-09-16T15:54:10Z</time>
      </trkpt>
      <trkpt lat="43.64642" lon="2.3379">
        <ele>376.6</ele>
        <time>2025-09-16T15:54:11Z</time>
      </trkpt>
      <trkpt lat="43.64639" lon="2.33787">
        <ele>376</ele>
        <time>2025-09-16T15:54:12Z</time>
      </trkpt>
      <trkpt lat="43.64636" lon="2.33784">
        <ele>375.2</ele>
        <time>2025-09-16T15:54:13Z</time>
      </trkpt>
      <trkpt lat="43.64632" lon="2.33782">
        <ele>374.8</ele>
        <time>2025-09-16T15:54:14Z</time>
      </trkpt>
      <trkpt lat="43.64628" lon="2.33779">
        <ele>374.4</ele>
        <time>2025-09-16T15:54:15Z</time>
      </trkpt>
      <trkpt lat="43.64626" lon="2.33779">
        <ele>374</ele>
        <time>2025-09-16T15:54:16Z</time>
      </trkpt>
      <trkpt lat="43.64624" lon="2.33778">
        <ele>373.8</ele>
        <time>2025-09-16T15:54:17Z</time>
      </trkpt>
      <trkpt lat="43.64621" lon="2.33776">
        <ele>373.6</ele>
        <time>2025-09-16T15:54:18Z</time>
      </trkpt>
      <trkpt lat="43.64619" lon="2.33774">
        <ele>373.4</ele>
        <time>2025-09-16T15:54:19Z</time>
      </trkpt>
      <trkpt lat="43.64615" lon="2.33772">
        <ele>373.2</ele>
        <time>2025-09-16T15:54:20Z</time>
      </trkpt>
      <trkpt lat="43.64611" lon="2.33769">
        <ele>372.8</ele>
        <time>2025-09-16T15:54:21Z</time>
      </trkpt>
      <trkpt lat="43.64608" lon="2.33767">
        <ele>372</ele>
        <time>2025-09-16T15:54:22Z</time>
      </trkpt>
      <trkpt lat="43.64606" lon="2.33765">
        <ele>371.2</ele>
        <time>2025-09-16T15:54:23Z</time>
      </trkpt>
      <trkpt lat="43.64606" lon="2.33764">
        <ele>370.4</ele>
        <time>2025-09-16T15:54:24Z</time>
      </trkpt>
      <trkpt lat="43.64603" lon="2.33763">
        <ele>369.8</ele>
        <time>2025-09-16T15:54:25Z</time>
      </trkpt>
      <trkpt lat="43.64603" lon="2.33763">
        <ele>369.2</ele>
        <time>2025-09-16T15:54:26Z</time>
      </trkpt>
      <trkpt lat="43.64603" lon="2.33763">
        <ele>368.6</ele>
        <time>2025-09-16T15:54:27Z</time>
      </trkpt>
      <trkpt lat="43.64601" lon="2.33763">
        <ele>368</ele>
        <time>2025-09-16T15:54:28Z</time>
      </trkpt>
      <trkpt lat="43.64595" lon="2.33758">
        <ele>366.8</ele>
        <time>2025-09-16T15:54:30Z</time>
      </trkpt>
      <trkpt lat="43.64591" lon="2.33755">
        <ele>366</ele>
        <time>2025-09-16T15:54:31Z</time>
      </trkpt>
      <trkpt lat="43.64587" lon="2.33752">
        <ele>365.4</ele>
        <time>2025-09-16T15:54:32Z</time>
      </trkpt>
      <trkpt lat="43.64582" lon="2.33749">
        <ele>364.6</ele>
        <time>2025-09-16T15:54:33Z</time>
      </trkpt>
      <trkpt lat="43.64579" lon="2.33746">
        <ele>364</ele>
        <time>2025-09-16T15:54:34Z</time>
      </trkpt>
      <trkpt lat="43.64576" lon="2.33744">
        <ele>363.4</ele>
        <time>2025-09-16T15:54:35Z</time>
      </trkpt>
      <trkpt lat="43.64574" lon="2.33742">
        <ele>363</ele>
        <time>2025-09-16T15:54:36Z</time>
      </trkpt>
      <trkpt lat="43.64573" lon="2.33739">
        <ele>362.6</ele>
        <time>2025-09-16T15:54:37Z</time>
      </trkpt>
      <trkpt lat="43.64569" lon="2.33735">
        <ele>361.8</ele>
        <time>2025-09-16T15:54:38Z</time>
      </trkpt>
      <trkpt lat="43.64566" lon="2.33732">
        <ele>361.2</ele>
        <time>2025-09-16T15:54:39Z</time>
      </trkpt>
      <trkpt lat="43.64562" lon="2.33729">
        <ele>360.4</ele>
        <time>2025-09-16T15:54:40Z</time>
      </trkpt>
      <trkpt lat="43.64558" lon="2.33726">
        <ele>359.6</ele>
        <time>2025-09-16T15:54:41Z</time>
      </trkpt>
      <trkpt lat="43.64554" lon="2.33724">
        <ele>359</ele>
        <time>2025-09-16T15:54:42Z</time>
      </trkpt>
      <trkpt lat="43.64551" lon="2.33722">
        <ele>358.6</ele>
        <time>2025-09-16T15:54:43Z</time>
      </trkpt>
      <trkpt lat="43.64549" lon="2.3372">
        <ele>358.2</ele>
        <time>2025-09-16T15:54:44Z</time>
      </trkpt>
      <trkpt lat="43.64547" lon="2.33717">
        <ele>357.6</ele>
        <time>2025-09-16T15:54:45Z</time>
      </trkpt>
      <trkpt lat="43.64545" lon="2.33714">
        <ele>356.8</ele>
        <time>2025-09-16T15:54:46Z</time>
      </trkpt>
      <trkpt lat="43.64543" lon="2.33709">
        <ele>356</ele>
        <time>2025-09-16T15:54:47Z</time>
      </trkpt>
      <trkpt lat="43.64541" lon="2.33703">
        <ele>355.2</ele>
        <time>2025-09-16T15:54:48Z</time>
      </trkpt>
      <trkpt lat="43.64541" lon="2.337">
        <ele>354.6</ele>
        <time>2025-09-16T15:54:49Z</time>
      </trkpt>
      <trkpt lat="43.64541" lon="2.33697">
        <ele>353.8</ele>
        <time>2025-09-16T15:54:50Z</time>
      </trkpt>
      <trkpt lat="43.64542" lon="2.33694">
        <ele>353</ele>
        <time>2025-09-16T15:54:51Z</time>
      </trkpt>
      <trkpt lat="43.64543" lon="2.33689">
        <ele>352.2</ele>
        <time>2025-09-16T15:54:52Z</time>
      </trkpt>
      <trkpt lat="43.64543" lon="2.33684">
        <ele>351.4</ele>
        <time>2025-09-16T15:54:53Z</time>
      </trkpt>
      <trkpt lat="43.64543" lon="2.3368">
        <ele>350.8</ele>
        <time>2025-09-16T15:54:54Z</time>
      </trkpt>
      <trkpt lat="43.64542" lon="2.33677">
        <ele>350</ele>
        <time>2025-09-16T15:54:55Z</time>
      </trkpt>
      <trkpt lat="43.64541" lon="2.33673">
        <ele>349.2</ele>
        <time>2025-09-16T15:54:56Z</time>
      </trkpt>
      <trkpt lat="43.6454" lon="2.33669">
        <ele>348.4</ele>
        <time>2025-09-16T15:54:57Z</time>
      </trkpt>
      <trkpt lat="43.64537" lon="2.33664">
        <ele>348</ele>
        <time>2025-09-16T15:54:58Z</time>
      </trkpt>
      <trkpt lat="43.64533" lon="2.33661">
        <ele>347.4</ele>
        <time>2025-09-16T15:54:59Z</time>
      </trkpt>
      <trkpt lat="43.6453" lon="2.3366">
        <ele>347</ele>
        <time>2025-09-16T15:55:00Z</time>
      </trkpt>
      <trkpt lat="43.64527" lon="2.33659">
        <ele>346.4</ele>
        <time>2025-09-16T15:55:01Z</time>
      </trkpt>
      <trkpt lat="43.64523" lon="2.33658">
        <ele>346</ele>
        <time>2025-09-16T15:55:02Z</time>
      </trkpt>
      <trkpt lat="43.6452" lon="2.33657">
        <ele>345.6</ele>
        <time>2025-09-16T15:55:03Z</time>
      </trkpt>
      <trkpt lat="43.64517" lon="2.33656">
        <ele>345.4</ele>
        <time>2025-09-16T15:55:04Z</time>
      </trkpt>
      <trkpt lat="43.64515" lon="2.33653">
        <ele>345.2</ele>
        <time>2025-09-16T15:55:05Z</time>
      </trkpt>
      <trkpt lat="43.64513" lon="2.33649">
        <ele>345</ele>
        <time>2025-09-16T15:55:06Z</time>
      </trkpt>
      <trkpt lat="43.64512" lon="2.33647">
        <ele>344.8</ele>
        <time>2025-09-16T15:55:07Z</time>
      </trkpt>
      <trkpt lat="43.6451" lon="2.33644">
        <ele>344.6</ele>
        <time>2025-09-16T15:55:08Z</time>
      </trkpt>
      <trkpt lat="43.64509" lon="2.33642">
        <ele>344.4</ele>
        <time>2025-09-16T15:55:09Z</time>
      </trkpt>
      <trkpt lat="43.64507" lon="2.33639">
        <ele>344.2</ele>
        <time>2025-09-16T15:55:10Z</time>
      </trkpt>
      <trkpt lat="43.64505" lon="2.33635">
        <ele>344</ele>
        <time>2025-09-16T15:55:11Z</time>
      </trkpt>
      <trkpt lat="43.64504" lon="2.33632">
        <ele>344</ele>
        <time>2025-09-16T15:55:12Z</time>
      </trkpt>
      <trkpt lat="43.64502" lon="2.33629">
        <ele>344</ele>
        <time>2025-09-16T15:55:13Z</time>
      </trkpt>
      <trkpt lat="43.645" lon="2.33627">
        <ele>344</ele>
        <time>2025-09-16T15:55:14Z</time>
      </trkpt>
      <trkpt lat="43.64498" lon="2.33624">
        <ele>344</ele>
        <time>2025-09-16T15:55:15Z</time>
      </trkpt>
      <trkpt lat="43.64496" lon="2.33622">
        <ele>344.2</ele>
        <time>2025-09-16T15:55:16Z</time>
      </trkpt>
      <trkpt lat="43.64494" lon="2.33619">
        <ele>344.4</ele>
        <time>2025-09-16T15:55:17Z</time>
      </trkpt>
      <trkpt lat="43.64493" lon="2.33617">
        <ele>344.6</ele>
        <time>2025-09-16T15:55:18Z</time>
      </trkpt>
      <trkpt lat="43.64493" lon="2.33615">
        <ele>344.8</ele>
        <time>2025-09-16T15:55:19Z</time>
      </trkpt>
      <trkpt lat="43.64493" lon="2.33612">
        <ele>345</ele>
        <time>2025-09-16T15:55:20Z</time>
      </trkpt>
      <trkpt lat="43.64492" lon="2.3361">
        <ele>345.2</ele>
        <time>2025-09-16T15:55:21Z</time>
      </trkpt>
      <trkpt lat="43.64489" lon="2.33607">
        <ele>345.4</ele>
        <time>2025-09-16T15:55:22Z</time>
      </trkpt>
      <trkpt lat="43.64488" lon="2.33605">
        <ele>345.6</ele>
        <time>2025-09-16T15:55:23Z</time>
      </trkpt>
      <trkpt lat="43.64486" lon="2.33603">
        <ele>345.8</ele>
        <time>2025-09-16T15:55:24Z</time>
      </trkpt>
      <trkpt lat="43.64485" lon="2.33601">
        <ele>345.8</ele>
        <time>2025-09-16T15:55:25Z</time>
      </trkpt>
      <trkpt lat="43.64483" lon="2.33599">
        <ele>346</ele>
        <time>2025-09-16T15:55:26Z</time>
      </trkpt>
      <trkpt lat="43.64481" lon="2.33596">
        <ele>346.2</ele>
        <time>2025-09-16T15:55:27Z</time>
      </trkpt>
      <trkpt lat="43.64479" lon="2.33592">
        <ele>346.2</ele>
        <time>2025-09-16T15:55:28Z</time>
      </trkpt>
      <trkpt lat="43.64477" lon="2.33588">
        <ele>346.2</ele>
        <time>2025-09-16T15:55:29Z</time>
      </trkpt>
      <trkpt lat="43.64474" lon="2.33585">
        <ele>346.2</ele>
        <time>2025-09-16T15:55:30Z</time>
      </trkpt>
      <trkpt lat="43.64472" lon="2.3358">
        <ele>346.2</ele>
        <time>2025-09-16T15:55:31Z</time>
      </trkpt>
      <trkpt lat="43.64469" lon="2.33576">
        <ele>346.2</ele>
        <time>2025-09-16T15:55:32Z</time>
      </trkpt>
      <trkpt lat="43.64465" lon="2.33573">
        <ele>346.2</ele>
        <time>2025-09-16T15:55:33Z</time>
      </trkpt>
      <trkpt lat="43.64462" lon="2.33571">
        <ele>346.2</ele>
        <time>2025-09-16T15:55:34Z</time>
      </trkpt>
      <trkpt lat="43.64459" lon="2.33569">
        <ele>346.2</ele>
        <time>2025-09-16T15:55:35Z</time>
      </trkpt>
      <trkpt lat="43.64456" lon="2.33566">
        <ele>346.4</ele>
        <time>2025-09-16T15:55:36Z</time>
      </trkpt>
      <trkpt lat="43.64455" lon="2.33563">
        <ele>346.4</ele>
        <time>2025-09-16T15:55:37Z</time>
      </trkpt>
      <trkpt lat="43.64453" lon="2.33559">
        <ele>346.4</ele>
        <time>2025-09-16T15:55:38Z</time>
      </trkpt>
      <trkpt lat="43.6445" lon="2.33554">
        <ele>346.2</ele>
        <time>2025-09-16T15:55:39Z</time>
      </trkpt>
      <trkpt lat="43.64447" lon="2.33551">
        <ele>346</ele>
        <time>2025-09-16T15:55:40Z</time>
      </trkpt>
      <trkpt lat="43.64445" lon="2.33547">
        <ele>345.8</ele>
        <time>2025-09-16T15:55:41Z</time>
      </trkpt>
      <trkpt lat="43.64441" lon="2.33543">
        <ele>345.4</ele>
        <time>2025-09-16T15:55:42Z</time>
      </trkpt>
      <trkpt lat="43.64436" lon="2.3354">
        <ele>344.8</ele>
        <time>2025-09-16T15:55:43Z</time>
      </trkpt>
      <trkpt lat="43.64432" lon="2.33538">
        <ele>344.4</ele>
        <time>2025-09-16T15:55:44Z</time>
      </trkpt>
      <trkpt lat="43.64428" lon="2.33534">
        <ele>344</ele>
        <time>2025-09-16T15:55:45Z</time>
      </trkpt>
      <trkpt lat="43.64423" lon="2.33531">
        <ele>344</ele>
        <time>2025-09-16T15:55:46Z</time>
      </trkpt>
      <trkpt lat="43.6442" lon="2.33528">
        <ele>344</ele>
        <time>2025-09-16T15:55:47Z</time>
      </trkpt>
      <trkpt lat="43.64417" lon="2.33526">
        <ele>344.2</ele>
        <time>2025-09-16T15:55:48Z</time>
      </trkpt>
      <trkpt lat="43.64415" lon="2.33524">
        <ele>344.4</ele>
        <time>2025-09-16T15:55:49Z</time>
      </trkpt>
      <trkpt lat="43.64414" lon="2.33524">
        <ele>344.8</ele>
        <time>2025-09-16T15:55:50Z</time>
      </trkpt>
      <trkpt lat="43.64412" lon="2.33522">
        <ele>345</ele>
        <time>2025-09-16T15:55:51Z</time>
      </trkpt>
      <trkpt lat="43.6441" lon="2.33519">
        <ele>345</ele>
        <time>2025-09-16T15:55:52Z</time>
      </trkpt>
      <trkpt lat="43.64409" lon="2.33517">
        <ele>345.2</ele>
        <time>2025-09-16T15:55:53Z</time>
      </trkpt>
      <trkpt lat="43.64407" lon="2.33515">
        <ele>345.2</ele>
        <time>2025-09-16T15:55:54Z</time>
      </trkpt>
      <trkpt lat="43.64406" lon="2.33513">
        <ele>345.2</ele>
        <time>2025-09-16T15:55:55Z</time>
      </trkpt>
      <trkpt lat="43.64405" lon="2.33512">
        <ele>345.2</ele>
        <time>2025-09-16T15:55:56Z</time>
      </trkpt>
      <trkpt lat="43.64405" lon="2.33512">
        <ele>345.4</ele>
        <time>2025-09-16T15:55:57Z</time>
      </trkpt>
      <trkpt lat="43.64402" lon="2.33501">
        <ele>342.8</ele>
        <time>2025-09-16T16:08:48Z</time>
      </trkpt>
      <trkpt lat="43.644" lon="2.33499">
        <ele>342.6</ele>
        <time>2025-09-16T16:08:49Z</time>
      </trkpt>
      <trkpt lat="43.64398" lon="2.33496">
        <ele>342.6</ele>
        <time>2025-09-16T16:08:50Z</time>
      </trkpt>
      <trkpt lat="43.64396" lon="2.33491">
        <ele>342.4</ele>
        <time>2025-09-16T16:08:51Z</time>
      </trkpt>
      <trkpt lat="43.64395" lon="2.33486">
        <ele>342.2</ele>
        <time>2025-09-16T16:08:52Z</time>
      </trkpt>
      <trkpt lat="43.64394" lon="2.33481">
        <ele>342.2</ele>
        <time>2025-09-16T16:08:53Z</time>
      </trkpt>
      <trkpt lat="43.64391" lon="2.33477">
        <ele>342.2</ele>
        <time>2025-09-16T16:08:54Z</time>
      </trkpt>
      <trkpt lat="43.64388" lon="2.33473">
        <ele>342.4</ele>
        <time>2025-09-16T16:08:55Z</time>
      </trkpt>
      <trkpt lat="43.64385" lon="2.33469">
        <ele>342.6</ele>
        <time>2025-09-16T16:08:56Z</time>
      </trkpt>
      <trkpt lat="43.64381" lon="2.33467">
        <ele>342.8</ele>
        <time>2025-09-16T16:08:57Z</time>
      </trkpt>
      <trkpt lat="43.64377" lon="2.33464">
        <ele>342.8</ele>
        <time>2025-09-16T16:08:58Z</time>
      </trkpt>
      <trkpt lat="43.64373" lon="2.33461">
        <ele>342.6</ele>
        <time>2025-09-16T16:08:59Z</time>
      </trkpt>
      <trkpt lat="43.64368" lon="2.33457">
        <ele>342.4</ele>
        <time>2025-09-16T16:09:00Z</time>
      </trkpt>
      <trkpt lat="43.64364" lon="2.33455">
        <ele>342</ele>
        <time>2025-09-16T16:09:01Z</time>
      </trkpt>
      <trkpt lat="43.6436" lon="2.33452">
        <ele>341.6</ele>
        <time>2025-09-16T16:09:02Z</time>
      </trkpt>
      <trkpt lat="43.64356" lon="2.33449">
        <ele>341.4</ele>
        <time>2025-09-16T16:09:03Z</time>
      </trkpt>
      <trkpt lat="43.64352" lon="2.33446">
        <ele>341.2</ele>
        <time>2025-09-16T16:09:04Z</time>
      </trkpt>
      <trkpt lat="43.64348" lon="2.33443">
        <ele>341.2</ele>
        <time>2025-09-16T16:09:05Z</time>
      </trkpt>
      <trkpt lat="43.64345" lon="2.33441">
        <ele>341.6</ele>
        <time>2025-09-16T16:09:06Z</time>
      </trkpt>
      <trkpt lat="43.64341" lon="2.33441">
        <ele>341.8</ele>
        <time>2025-09-16T16:09:07Z</time>
      </trkpt>
      <trkpt lat="43.64337" lon="2.33442">
        <ele>342.2</ele>
        <time>2025-09-16T16:09:08Z</time>
      </trkpt>
      <trkpt lat="43.64334" lon="2.33443">
        <ele>342.4</ele>
        <time>2025-09-16T16:09:09Z</time>
      </trkpt>
      <trkpt lat="43.6433" lon="2.33444">
        <ele>342.8</ele>
        <time>2025-09-16T16:09:10Z</time>
      </trkpt>
      <trkpt lat="43.64327" lon="2.33446">
        <ele>342.8</ele>
        <time>2025-09-16T16:09:11Z</time>
      </trkpt>
      <trkpt lat="43.64323" lon="2.33448">
        <ele>342.8</ele>
        <time>2025-09-16T16:09:12Z</time>
      </trkpt>
      <trkpt lat="43.64319" lon="2.3345">
        <ele>342.8</ele>
        <time>2025-09-16T16:09:13Z</time>
      </trkpt>
      <trkpt lat="43.64315" lon="2.33452">
        <ele>342.8</ele>
        <time>2025-09-16T16:09:14Z</time>
      </trkpt>
      <trkpt lat="43.64311" lon="2.33453">
        <ele>342.8</ele>
        <time>2025-09-16T16:09:15Z</time>
      </trkpt>
      <trkpt lat="43.64307" lon="2.33453">
        <ele>342.8</ele>
        <time>2025-09-16T16:09:16Z</time>
      </trkpt>
      <trkpt lat="43.64303" lon="2.33451">
        <ele>342.6</ele>
        <time>2025-09-16T16:09:17Z</time>
      </trkpt>
      <trkpt lat="43.643" lon="2.33447">
        <ele>342.6</ele>
        <time>2025-09-16T16:09:18Z</time>
      </trkpt>
      <trkpt lat="43.64297" lon="2.33441">
        <ele>342.2</ele>
        <time>2025-09-16T16:09:19Z</time>
      </trkpt>
      <trkpt lat="43.64294" lon="2.33434">
        <ele>341.6</ele>
        <time>2025-09-16T16:09:20Z</time>
      </trkpt>
      <trkpt lat="43.64292" lon="2.33426">
        <ele>340.8</ele>
        <time>2025-09-16T16:09:21Z</time>
      </trkpt>
      <trkpt lat="43.64291" lon="2.33418">
        <ele>340</ele>
        <time>2025-09-16T16:09:22Z</time>
      </trkpt>
      <trkpt lat="43.64289" lon="2.3341">
        <ele>339.4</ele>
        <time>2025-09-16T16:09:23Z</time>
      </trkpt>
      <trkpt lat="43.64287" lon="2.33402">
        <ele>338.6</ele>
        <time>2025-09-16T16:09:24Z</time>
      </trkpt>
      <trkpt lat="43.64285" lon="2.33392">
        <ele>338.2</ele>
        <time>2025-09-16T16:09:25Z</time>
      </trkpt>
      <trkpt lat="43.64283" lon="2.33383">
        <ele>337.6</ele>
        <time>2025-09-16T16:09:26Z</time>
      </trkpt>
      <trkpt lat="43.64281" lon="2.33373">
        <ele>337</ele>
        <time>2025-09-16T16:09:27Z</time>
      </trkpt>
      <trkpt lat="43.64279" lon="2.33366">
        <ele>336.4</ele>
        <time>2025-09-16T16:09:28Z</time>
      </trkpt>
      <trkpt lat="43.64276" lon="2.33355">
        <ele>335.6</ele>
        <time>2025-09-16T16:09:29Z</time>
      </trkpt>
      <trkpt lat="43.64274" lon="2.33346">
        <ele>335</ele>
        <time>2025-09-16T16:09:30Z</time>
      </trkpt>
      <trkpt lat="43.64272" lon="2.33335">
        <ele>334.4</ele>
        <time>2025-09-16T16:09:31Z</time>
      </trkpt>
      <trkpt lat="43.6427" lon="2.33324">
        <ele>333.8</ele>
        <time>2025-09-16T16:09:32Z</time>
      </trkpt>
      <trkpt lat="43.64269" lon="2.33312">
        <ele>333.4</ele>
        <time>2025-09-16T16:09:33Z</time>
      </trkpt>
      <trkpt lat="43.64267" lon="2.33304">
        <ele>333.2</ele>
        <time>2025-09-16T16:09:34Z</time>
      </trkpt>
      <trkpt lat="43.64266" lon="2.33295">
        <ele>333</ele>
        <time>2025-09-16T16:09:35Z</time>
      </trkpt>
      <trkpt lat="43.64264" lon="2.33282">
        <ele>332.8</ele>
        <time>2025-09-16T16:09:36Z</time>
      </trkpt>
      <trkpt lat="43.64263" lon="2.33273">
        <ele>332.6</ele>
        <time>2025-09-16T16:09:37Z</time>
      </trkpt>
      <trkpt lat="43.6426" lon="2.33263">
        <ele>332.4</ele>
        <time>2025-09-16T16:09:38Z</time>
      </trkpt>
      <trkpt lat="43.64254" lon="2.3325">
        <ele>332</ele>
        <time>2025-09-16T16:09:39Z</time>
      </trkpt>
      <trkpt lat="43.64251" lon="2.33243">
        <ele>332</ele>
        <time>2025-09-16T16:09:40Z</time>
      </trkpt>
      <trkpt lat="43.64248" lon="2.33235">
        <ele>331.8</ele>
        <time>2025-09-16T16:09:41Z</time>
      </trkpt>
      <trkpt lat="43.64243" lon="2.33229">
        <ele>331.8</ele>
        <time>2025-09-16T16:09:42Z</time>
      </trkpt>
      <trkpt lat="43.64238" lon="2.33223">
        <ele>332.2</ele>
        <time>2025-09-16T16:09:43Z</time>
      </trkpt>
      <trkpt lat="43.64234" lon="2.33219">
        <ele>332.4</ele>
        <time>2025-09-16T16:09:44Z</time>
      </trkpt>
      <trkpt lat="43.6423" lon="2.33214">
        <ele>333.2</ele>
        <time>2025-09-16T16:09:45Z</time>
      </trkpt>
      <trkpt lat="43.64227" lon="2.33211">
        <ele>334</ele>
        <time>2025-09-16T16:09:46Z</time>
      </trkpt>
      <trkpt lat="43.64225" lon="2.33207">
        <ele>334.6</ele>
        <time>2025-09-16T16:09:47Z</time>
      </trkpt>
      <trkpt lat="43.64223" lon="2.33203">
        <ele>335.2</ele>
        <time>2025-09-16T16:09:48Z</time>
      </trkpt>
      <trkpt lat="43.64221" lon="2.33198">
        <ele>335.6</ele>
        <time>2025-09-16T16:09:49Z</time>
      </trkpt>
      <trkpt lat="43.6422" lon="2.33192">
        <ele>335.8</ele>
        <time>2025-09-16T16:09:50Z</time>
      </trkpt>
      <trkpt lat="43.64219" lon="2.33186">
        <ele>335.6</ele>
        <time>2025-09-16T16:09:51Z</time>
      </trkpt>
      <trkpt lat="43.64217" lon="2.3318">
        <ele>335.2</ele>
        <time>2025-09-16T16:09:52Z</time>
      </trkpt>
      <trkpt lat="43.64215" lon="2.33173">
        <ele>334.4</ele>
        <time>2025-09-16T16:09:53Z</time>
      </trkpt>
      <trkpt lat="43.64213" lon="2.33164">
        <ele>333.4</ele>
        <time>2025-09-16T16:09:54Z</time>
      </trkpt>
      <trkpt lat="43.6421" lon="2.33155">
        <ele>332.4</ele>
        <time>2025-09-16T16:09:55Z</time>
      </trkpt>
      <trkpt lat="43.64208" lon="2.33147">
        <ele>331.4</ele>
        <time>2025-09-16T16:09:56Z</time>
      </trkpt>
      <trkpt lat="43.64204" lon="2.3314">
        <ele>330.6</ele>
        <time>2025-09-16T16:09:57Z</time>
      </trkpt>
      <trkpt lat="43.642" lon="2.33134">
        <ele>330</ele>
        <time>2025-09-16T16:09:58Z</time>
      </trkpt>
      <trkpt lat="43.64196" lon="2.33129">
        <ele>329.6</ele>
        <time>2025-09-16T16:09:59Z</time>
      </trkpt>
      <trkpt lat="43.64194" lon="2.33125">
        <ele>329.4</ele>
        <time>2025-09-16T16:10:00Z</time>
      </trkpt>
      <trkpt lat="43.64191" lon="2.3312">
        <ele>329</ele>
        <time>2025-09-16T16:10:01Z</time>
      </trkpt>
      <trkpt lat="43.64188" lon="2.33115">
        <ele>328.6</ele>
        <time>2025-09-16T16:10:02Z</time>
      </trkpt>
      <trkpt lat="43.64186" lon="2.33109">
        <ele>328.2</ele>
        <time>2025-09-16T16:10:03Z</time>
      </trkpt>
      <trkpt lat="43.64185" lon="2.33103">
        <ele>327.6</ele>
        <time>2025-09-16T16:10:04Z</time>
      </trkpt>
      <trkpt lat="43.64183" lon="2.33097">
        <ele>327</ele>
        <time>2025-09-16T16:10:05Z</time>
      </trkpt>
      <trkpt lat="43.64181" lon="2.33093">
        <ele>326.6</ele>
        <time>2025-09-16T16:10:06Z</time>
      </trkpt>
      <trkpt lat="43.64179" lon="2.33089">
        <ele>326.2</ele>
        <time>2025-09-16T16:10:07Z</time>
      </trkpt>
      <trkpt lat="43.64176" lon="2.33085">
        <ele>325.6</ele>
        <time>2025-09-16T16:10:08Z</time>
      </trkpt>
      <trkpt lat="43.64173" lon="2.3308">
        <ele>325.2</ele>
        <time>2025-09-16T16:10:09Z</time>
      </trkpt>
      <trkpt lat="43.64172" lon="2.33075">
        <ele>324.8</ele>
        <time>2025-09-16T16:10:10Z</time>
      </trkpt>
      <trkpt lat="43.64171" lon="2.3307">
        <ele>324.4</ele>
        <time>2025-09-16T16:10:11Z</time>
      </trkpt>
      <trkpt lat="43.64169" lon="2.33064">
        <ele>324.2</ele>
        <time>2025-09-16T16:10:12Z</time>
      </trkpt>
      <trkpt lat="43.64166" lon="2.33059">
        <ele>324</ele>
        <time>2025-09-16T16:10:13Z</time>
      </trkpt>
      <trkpt lat="43.64163" lon="2.33053">
        <ele>323.8</ele>
        <time>2025-09-16T16:10:14Z</time>
      </trkpt>
      <trkpt lat="43.64162" lon="2.33048">
        <ele>323.6</ele>
        <time>2025-09-16T16:10:15Z</time>
      </trkpt>
      <trkpt lat="43.64161" lon="2.33042">
        <ele>323.8</ele>
        <time>2025-09-16T16:10:16Z</time>
      </trkpt>
      <trkpt lat="43.64157" lon="2.33036">
        <ele>324</ele>
        <time>2025-09-16T16:10:17Z</time>
      </trkpt>
      <trkpt lat="43.64156" lon="2.33032">
        <ele>324.2</ele>
        <time>2025-09-16T16:10:18Z</time>
      </trkpt>
      <trkpt lat="43.64155" lon="2.33028">
        <ele>324.4</ele>
        <time>2025-09-16T16:10:19Z</time>
      </trkpt>
      <trkpt lat="43.64153" lon="2.33025">
        <ele>324.6</ele>
        <time>2025-09-16T16:10:20Z</time>
      </trkpt>
      <trkpt lat="43.6415" lon="2.33021">
        <ele>324.6</ele>
        <time>2025-09-16T16:10:21Z</time>
      </trkpt>
      <trkpt lat="43.64147" lon="2.33017">
        <ele>324.4</ele>
        <time>2025-09-16T16:10:22Z</time>
      </trkpt>
      <trkpt lat="43.64142" lon="2.33011">
        <ele>324</ele>
        <time>2025-09-16T16:10:23Z</time>
      </trkpt>
      <trkpt lat="43.64136" lon="2.33005">
        <ele>323.4</ele>
        <time>2025-09-16T16:10:24Z</time>
      </trkpt>
      <trkpt lat="43.64131" lon="2.33">
        <ele>322.8</ele>
        <time>2025-09-16T16:10:25Z</time>
      </trkpt>
      <trkpt lat="43.64126" lon="2.32994">
        <ele>322.4</ele>
        <time>2025-09-16T16:10:26Z</time>
      </trkpt>
      <trkpt lat="43.64122" lon="2.32989">
        <ele>322.2</ele>
        <time>2025-09-16T16:10:27Z</time>
      </trkpt>
      <trkpt lat="43.64117" lon="2.32984">
        <ele>322</ele>
        <time>2025-09-16T16:10:28Z</time>
      </trkpt>
      <trkpt lat="43.64112" lon="2.32979">
        <ele>322.2</ele>
        <time>2025-09-16T16:10:29Z</time>
      </trkpt>
      <trkpt lat="43.64108" lon="2.32975">
        <ele>322.2</ele>
        <time>2025-09-16T16:10:30Z</time>
      </trkpt>
      <trkpt lat="43.64105" lon="2.32972">
        <ele>322.4</ele>
        <time>2025-09-16T16:10:31Z</time>
      </trkpt>
      <trkpt lat="43.64102" lon="2.32967">
        <ele>322.8</ele>
        <time>2025-09-16T16:10:32Z</time>
      </trkpt>
      <trkpt lat="43.641" lon="2.32961">
        <ele>323</ele>
        <time>2025-09-16T16:10:33Z</time>
      </trkpt>
      <trkpt lat="43.64098" lon="2.32954">
        <ele>323.2</ele>
        <time>2025-09-16T16:10:34Z</time>
      </trkpt>
      <trkpt lat="43.64099" lon="2.32949">
        <ele>323.4</ele>
        <time>2025-09-16T16:10:35Z</time>
      </trkpt>
      <trkpt lat="43.64099" lon="2.32944">
        <ele>323.8</ele>
        <time>2025-09-16T16:10:36Z</time>
      </trkpt>
      <trkpt lat="43.64099" lon="2.32938">
        <ele>323.8</ele>
        <time>2025-09-16T16:10:37Z</time>
      </trkpt>
      <trkpt lat="43.64099" lon="2.32932">
        <ele>324</ele>
        <time>2025-09-16T16:10:38Z</time>
      </trkpt>
      <trkpt lat="43.64098" lon="2.32926">
        <ele>324</ele>
        <time>2025-09-16T16:10:39Z</time>
      </trkpt>
      <trkpt lat="43.64099" lon="2.32921">
        <ele>324.2</ele>
        <time>2025-09-16T16:10:40Z</time>
      </trkpt>
      <trkpt lat="43.64098" lon="2.32916">
        <ele>324.4</ele>
        <time>2025-09-16T16:10:41Z</time>
      </trkpt>
      <trkpt lat="43.64096" lon="2.32912">
        <ele>324.6</ele>
        <time>2025-09-16T16:10:42Z</time>
      </trkpt>
      <trkpt lat="43.64093" lon="2.32907">
        <ele>325</ele>
        <time>2025-09-16T16:10:43Z</time>
      </trkpt>
      <trkpt lat="43.6409" lon="2.32904">
        <ele>325.2</ele>
        <time>2025-09-16T16:10:44Z</time>
      </trkpt>
      <trkpt lat="43.64087" lon="2.32902">
        <ele>325.6</ele>
        <time>2025-09-16T16:10:45Z</time>
      </trkpt>
      <trkpt lat="43.64084" lon="2.329">
        <ele>325.8</ele>
        <time>2025-09-16T16:10:46Z</time>
      </trkpt>
      <trkpt lat="43.64081" lon="2.32899">
        <ele>326</ele>
        <time>2025-09-16T16:10:47Z</time>
      </trkpt>
      <trkpt lat="43.64079" lon="2.32899">
        <ele>326.2</ele>
        <time>2025-09-16T16:10:48Z</time>
      </trkpt>
      <trkpt lat="43.64077" lon="2.32899">
        <ele>326.6</ele>
        <time>2025-09-16T16:10:49Z</time>
      </trkpt>
      <trkpt lat="43.64074" lon="2.32899">
        <ele>326.8</ele>
        <time>2025-09-16T16:10:50Z</time>
      </trkpt>
      <trkpt lat="43.64071" lon="2.32899">
        <ele>327</ele>
        <time>2025-09-16T16:10:51Z</time>
      </trkpt>
      <trkpt lat="43.64069" lon="2.32899">
        <ele>327.4</ele>
        <time>2025-09-16T16:10:52Z</time>
      </trkpt>
      <trkpt lat="43.64067" lon="2.32899">
        <ele>327.6</ele>
        <time>2025-09-16T16:10:53Z</time>
      </trkpt>
      <trkpt lat="43.64065" lon="2.32898">
        <ele>327.8</ele>
        <time>2025-09-16T16:10:54Z</time>
      </trkpt>
      <trkpt lat="43.64063" lon="2.32898">
        <ele>328</ele>
        <time>2025-09-16T16:10:55Z</time>
      </trkpt>
      <trkpt lat="43.64061" lon="2.32897">
        <ele>328</ele>
        <time>2025-09-16T16:10:56Z</time>
      </trkpt>
      <trkpt lat="43.6406" lon="2.32896">
        <ele>328.2</ele>
        <time>2025-09-16T16:10:57Z</time>
      </trkpt>
      <trkpt lat="43.64058" lon="2.32895">
        <ele>328.4</ele>
        <time>2025-09-16T16:10:58Z</time>
      </trkpt>
      <trkpt lat="43.64056" lon="2.32894">
        <ele>328.4</ele>
        <time>2025-09-16T16:10:59Z</time>
      </trkpt>
      <trkpt lat="43.64054" lon="2.32893">
        <ele>328.6</ele>
        <time>2025-09-16T16:11:00Z</time>
      </trkpt>
      <trkpt lat="43.64052" lon="2.32891">
        <ele>328.6</ele>
        <time>2025-09-16T16:11:01Z</time>
      </trkpt>
      <trkpt lat="43.6405" lon="2.3289">
        <ele>328.8</ele>
        <time>2025-09-16T16:11:02Z</time>
      </trkpt>
      <trkpt lat="43.64048" lon="2.32888">
        <ele>329</ele>
        <time>2025-09-16T16:11:03Z</time>
      </trkpt>
      <trkpt lat="43.64047" lon="2.32887">
        <ele>329.2</ele>
        <time>2025-09-16T16:11:04Z</time>
      </trkpt>
      <trkpt lat="43.64046" lon="2.32885">
        <ele>329.2</ele>
        <time>2025-09-16T16:11:05Z</time>
      </trkpt>
      <trkpt lat="43.64046" lon="2.32882">
        <ele>329.4</ele>
        <time>2025-09-16T16:11:06Z</time>
      </trkpt>
      <trkpt lat="43.64045" lon="2.3288">
        <ele>329.6</ele>
        <time>2025-09-16T16:11:07Z</time>
      </trkpt>
      <trkpt lat="43.64044" lon="2.32877">
        <ele>329.8</ele>
        <time>2025-09-16T16:11:08Z</time>
      </trkpt>
      <trkpt lat="43.64044" lon="2.32875">
        <ele>329.8</ele>
        <time>2025-09-16T16:11:09Z</time>
      </trkpt>
      <trkpt lat="43.64042" lon="2.32873">
        <ele>330</ele>
        <time>2025-09-16T16:11:10Z</time>
      </trkpt>
      <trkpt lat="43.64041" lon="2.3287">
        <ele>330.2</ele>
        <time>2025-09-16T16:11:11Z</time>
      </trkpt>
      <trkpt lat="43.6404" lon="2.32868">
        <ele>330.4</ele>
        <time>2025-09-16T16:11:12Z</time>
      </trkpt>
      <trkpt lat="43.64036" lon="2.32864">
        <ele>330.6</ele>
        <time>2025-09-16T16:11:13Z</time>
      </trkpt>
      <trkpt lat="43.64034" lon="2.32862">
        <ele>330.8</ele>
        <time>2025-09-16T16:11:14Z</time>
      </trkpt>
      <trkpt lat="43.64034" lon="2.32859">
        <ele>331</ele>
        <time>2025-09-16T16:11:15Z</time>
      </trkpt>
      <trkpt lat="43.64033" lon="2.32857">
        <ele>331.2</ele>
        <time>2025-09-16T16:11:16Z</time>
      </trkpt>
      <trkpt lat="43.64033" lon="2.32855">
        <ele>331.4</ele>
        <time>2025-09-16T16:11:17Z</time>
      </trkpt>
      <trkpt lat="43.64032" lon="2.32852">
        <ele>331.4</ele>
        <time>2025-09-16T16:11:18Z</time>
      </trkpt>
      <trkpt lat="43.64031" lon="2.3285">
        <ele>331.6</ele>
        <time>2025-09-16T16:11:19Z</time>
      </trkpt>
      <trkpt lat="43.64031" lon="2.32847">
        <ele>331.8</ele>
        <time>2025-09-16T16:11:20Z</time>
      </trkpt>
      <trkpt lat="43.6403" lon="2.32844">
        <ele>331.8</ele>
        <time>2025-09-16T16:11:21Z</time>
      </trkpt>
      <trkpt lat="43.6403" lon="2.32841">
        <ele>331.8</ele>
        <time>2025-09-16T16:11:22Z</time>
      </trkpt>
      <trkpt lat="43.64029" lon="2.32838">
        <ele>332</ele>
        <time>2025-09-16T16:11:23Z</time>
      </trkpt>
      <trkpt lat="43.64029" lon="2.32836">
        <ele>332.2</ele>
        <time>2025-09-16T16:11:24Z</time>
      </trkpt>
      <trkpt lat="43.64029" lon="2.32834">
        <ele>332.2</ele>
        <time>2025-09-16T16:11:25Z</time>
      </trkpt>
      <trkpt lat="43.64027" lon="2.3283">
        <ele>332.4</ele>
        <time>2025-09-16T16:11:26Z</time>
      </trkpt>
      <trkpt lat="43.64026" lon="2.32827">
        <ele>332.4</ele>
        <time>2025-09-16T16:11:27Z</time>
      </trkpt>
      <trkpt lat="43.64022" lon="2.32823">
        <ele>332.4</ele>
        <time>2025-09-16T16:11:28Z</time>
      </trkpt>
      <trkpt lat="43.6402" lon="2.32821">
        <ele>332.6</ele>
        <time>2025-09-16T16:11:29Z</time>
      </trkpt>
      <trkpt lat="43.64019" lon="2.32818">
        <ele>332.6</ele>
        <time>2025-09-16T16:11:30Z</time>
      </trkpt>
      <trkpt lat="43.64018" lon="2.32815">
        <ele>332.6</ele>
        <time>2025-09-16T16:11:31Z</time>
      </trkpt>
      <trkpt lat="43.64017" lon="2.32811">
        <ele>332.4</ele>
        <time>2025-09-16T16:11:32Z</time>
      </trkpt>
      <trkpt lat="43.64016" lon="2.32808">
        <ele>332.4</ele>
        <time>2025-09-16T16:11:33Z</time>
      </trkpt>
      <trkpt lat="43.64014" lon="2.32805">
        <ele>332.4</ele>
        <time>2025-09-16T16:11:34Z</time>
      </trkpt>
      <trkpt lat="43.64011" lon="2.32803">
        <ele>332.4</ele>
        <time>2025-09-16T16:11:35Z</time>
      </trkpt>
      <trkpt lat="43.64006" lon="2.32799">
        <ele>332.2</ele>
        <time>2025-09-16T16:11:36Z</time>
      </trkpt>
      <trkpt lat="43.64003" lon="2.32797">
        <ele>332.2</ele>
        <time>2025-09-16T16:11:37Z</time>
      </trkpt>
      <trkpt lat="43.64" lon="2.32795">
        <ele>332</ele>
        <time>2025-09-16T16:11:38Z</time>
      </trkpt>
      <trkpt lat="43.63997" lon="2.32791">
        <ele>332</ele>
        <time>2025-09-16T16:11:39Z</time>
      </trkpt>
      <trkpt lat="43.63994" lon="2.32788">
        <ele>332</ele>
        <time>2025-09-16T16:11:40Z</time>
      </trkpt>
      <trkpt lat="43.63991" lon="2.32786">
        <ele>332</ele>
        <time>2025-09-16T16:11:41Z</time>
      </trkpt>
      <trkpt lat="43.63988" lon="2.32784">
        <ele>332</ele>
        <time>2025-09-16T16:11:42Z</time>
      </trkpt>
      <trkpt lat="43.63985" lon="2.32784">
        <ele>332</ele>
        <time>2025-09-16T16:11:43Z</time>
      </trkpt>
      <trkpt lat="43.63983" lon="2.32785">
        <ele>332</ele>
        <time>2025-09-16T16:11:44Z</time>
      </trkpt>
      <trkpt lat="43.6398" lon="2.32785">
        <ele>332</ele>
        <time>2025-09-16T16:11:45Z</time>
      </trkpt>
      <trkpt lat="43.63976" lon="2.32784">
        <ele>332</ele>
        <time>2025-09-16T16:11:46Z</time>
      </trkpt>
      <trkpt lat="43.63973" lon="2.32785">
        <ele>331.8</ele>
        <time>2025-09-16T16:11:47Z</time>
      </trkpt>
      <trkpt lat="43.6397" lon="2.32786">
        <ele>332</ele>
        <time>2025-09-16T16:11:48Z</time>
      </trkpt>
      <trkpt lat="43.63968" lon="2.32787">
        <ele>331.8</ele>
        <time>2025-09-16T16:11:49Z</time>
      </trkpt>
      <trkpt lat="43.63965" lon="2.32788">
        <ele>331.8</ele>
        <time>2025-09-16T16:11:50Z</time>
      </trkpt>
      <trkpt lat="43.63962" lon="2.3279">
        <ele>331.8</ele>
        <time>2025-09-16T16:11:51Z</time>
      </trkpt>
      <trkpt lat="43.6396" lon="2.32792">
        <ele>331.8</ele>
        <time>2025-09-16T16:11:52Z</time>
      </trkpt>
      <trkpt lat="43.63957" lon="2.32794">
        <ele>331.8</ele>
        <time>2025-09-16T16:11:53Z</time>
      </trkpt>
      <trkpt lat="43.63954" lon="2.32795">
        <ele>332</ele>
        <time>2025-09-16T16:11:54Z</time>
      </trkpt>
      <trkpt lat="43.63952" lon="2.32797">
        <ele>332</ele>
        <time>2025-09-16T16:11:55Z</time>
      </trkpt>
      <trkpt lat="43.6395" lon="2.32799">
        <ele>332</ele>
        <time>2025-09-16T16:11:56Z</time>
      </trkpt>
      <trkpt lat="43.63948" lon="2.32801">
        <ele>332.2</ele>
        <time>2025-09-16T16:11:57Z</time>
      </trkpt>
      <trkpt lat="43.63945" lon="2.32802">
        <ele>332.2</ele>
        <time>2025-09-16T16:11:58Z</time>
      </trkpt>
      <trkpt lat="43.63943" lon="2.32803">
        <ele>332.4</ele>
        <time>2025-09-16T16:11:59Z</time>
      </trkpt>
      <trkpt lat="43.63941" lon="2.32804">
        <ele>332.6</ele>
        <time>2025-09-16T16:12:00Z</time>
      </trkpt>
      <trkpt lat="43.63938" lon="2.32804">
        <ele>332.8</ele>
        <time>2025-09-16T16:12:01Z</time>
      </trkpt>
      <trkpt lat="43.63936" lon="2.32804">
        <ele>332.8</ele>
        <time>2025-09-16T16:12:02Z</time>
      </trkpt>
      <trkpt lat="43.63933" lon="2.32804">
        <ele>333</ele>
        <time>2025-09-16T16:12:03Z</time>
      </trkpt>
      <trkpt lat="43.63931" lon="2.32803">
        <ele>333</ele>
        <time>2025-09-16T16:12:04Z</time>
      </trkpt>
      <trkpt lat="43.63928" lon="2.32803">
        <ele>333</ele>
        <time>2025-09-16T16:12:05Z</time>
      </trkpt>
      <trkpt lat="43.63925" lon="2.32802">
        <ele>332.8</ele>
        <time>2025-09-16T16:12:06Z</time>
      </trkpt>
      <trkpt lat="43.63922" lon="2.32801">
        <ele>332.8</ele>
        <time>2025-09-16T16:12:07Z</time>
      </trkpt>
      <trkpt lat="43.63918" lon="2.32801">
        <ele>332.8</ele>
        <time>2025-09-16T16:12:08Z</time>
      </trkpt>
      <trkpt lat="43.63915" lon="2.328">
        <ele>332.6</ele>
        <time>2025-09-16T16:12:09Z</time>
      </trkpt>
      <trkpt lat="43.63912" lon="2.328">
        <ele>332.6</ele>
        <time>2025-09-16T16:12:10Z</time>
      </trkpt>
      <trkpt lat="43.63909" lon="2.328">
        <ele>332.6</ele>
        <time>2025-09-16T16:12:11Z</time>
      </trkpt>
      <trkpt lat="43.63907" lon="2.32799">
        <ele>332.6</ele>
        <time>2025-09-16T16:12:12Z</time>
      </trkpt>
      <trkpt lat="43.63904" lon="2.328">
        <ele>332.4</ele>
        <time>2025-09-16T16:12:13Z</time>
      </trkpt>
      <trkpt lat="43.63901" lon="2.328">
        <ele>332.2</ele>
        <time>2025-09-16T16:12:14Z</time>
      </trkpt>
      <trkpt lat="43.63897" lon="2.32799">
        <ele>332</ele>
        <time>2025-09-16T16:12:15Z</time>
      </trkpt>
      <trkpt lat="43.63893" lon="2.32799">
        <ele>331.6</ele>
        <time>2025-09-16T16:12:16Z</time>
      </trkpt>
      <trkpt lat="43.63888" lon="2.32799">
        <ele>331.2</ele>
        <time>2025-09-16T16:12:17Z</time>
      </trkpt>
      <trkpt lat="43.63884" lon="2.32798">
        <ele>331</ele>
        <time>2025-09-16T16:12:18Z</time>
      </trkpt>
      <trkpt lat="43.6388" lon="2.32797">
        <ele>330.8</ele>
        <time>2025-09-16T16:12:19Z</time>
      </trkpt>
      <trkpt lat="43.63876" lon="2.32796">
        <ele>330.6</ele>
        <time>2025-09-16T16:12:20Z</time>
      </trkpt>
      <trkpt lat="43.63873" lon="2.32794">
        <ele>330.4</ele>
        <time>2025-09-16T16:12:21Z</time>
      </trkpt>
      <trkpt lat="43.63869" lon="2.32794">
        <ele>330.2</ele>
        <time>2025-09-16T16:12:22Z</time>
      </trkpt>
      <trkpt lat="43.63866" lon="2.32793">
        <ele>330.2</ele>
        <time>2025-09-16T16:12:23Z</time>
      </trkpt>
      <trkpt lat="43.63863" lon="2.32792">
        <ele>330</ele>
        <time>2025-09-16T16:12:24Z</time>
      </trkpt>
      <trkpt lat="43.6386" lon="2.32791">
        <ele>330.2</ele>
        <time>2025-09-16T16:12:25Z</time>
      </trkpt>
      <trkpt lat="43.63857" lon="2.3279">
        <ele>330.4</ele>
        <time>2025-09-16T16:12:26Z</time>
      </trkpt>
      <trkpt lat="43.63853" lon="2.32789">
        <ele>330.6</ele>
        <time>2025-09-16T16:12:27Z</time>
      </trkpt>
      <trkpt lat="43.63849" lon="2.32789">
        <ele>330.8</ele>
        <time>2025-09-16T16:12:28Z</time>
      </trkpt>
      <trkpt lat="43.63845" lon="2.32788">
        <ele>331</ele>
        <time>2025-09-16T16:12:29Z</time>
      </trkpt>
      <trkpt lat="43.63843" lon="2.32786">
        <ele>331.2</ele>
        <time>2025-09-16T16:12:30Z</time>
      </trkpt>
      <trkpt lat="43.6384" lon="2.32784">
        <ele>331.4</ele>
        <time>2025-09-16T16:12:31Z</time>
      </trkpt>
      <trkpt lat="43.6384" lon="2.32784">
        <ele>331.6</ele>
        <time>2025-09-16T16:12:32Z</time>
      </trkpt>
      <trkpt lat="43.63838" lon="2.32784">
        <ele>332</ele>
        <time>2025-09-16T16:12:33Z</time>
      </trkpt>
      <trkpt lat="43.63836" lon="2.32782">
        <ele>332.4</ele>
        <time>2025-09-16T16:12:34Z</time>
      </trkpt>
      <trkpt lat="43.63832" lon="2.32779">
        <ele>332.6</ele>
        <time>2025-09-16T16:12:35Z</time>
      </trkpt>
      <trkpt lat="43.63828" lon="2.32776">
        <ele>332.8</ele>
        <time>2025-09-16T16:12:36Z</time>
      </trkpt>
      <trkpt lat="43.63825" lon="2.32772">
        <ele>332.8</ele>
        <time>2025-09-16T16:12:37Z</time>
      </trkpt>
      <trkpt lat="43.63823" lon="2.32769">
        <ele>332.8</ele>
        <time>2025-09-16T16:12:38Z</time>
      </trkpt>
      <trkpt lat="43.6382" lon="2.32765">
        <ele>332.8</ele>
        <time>2025-09-16T16:12:39Z</time>
      </trkpt>
      <trkpt lat="43.63819" lon="2.32762">
        <ele>333</ele>
        <time>2025-09-16T16:12:40Z</time>
      </trkpt>
      <trkpt lat="43.63818" lon="2.3276">
        <ele>333</ele>
        <time>2025-09-16T16:12:41Z</time>
      </trkpt>
      <trkpt lat="43.63816" lon="2.32758">
        <ele>332.8</ele>
        <time>2025-09-16T16:12:42Z</time>
      </trkpt>
      <trkpt lat="43.63815" lon="2.32753">
        <ele>332.6</ele>
        <time>2025-09-16T16:12:43Z</time>
      </trkpt>
      <trkpt lat="43.63814" lon="2.3275">
        <ele>332.4</ele>
        <time>2025-09-16T16:12:44Z</time>
      </trkpt>
      <trkpt lat="43.63812" lon="2.32745">
        <ele>332.2</ele>
        <time>2025-09-16T16:12:45Z</time>
      </trkpt>
      <trkpt lat="43.6381" lon="2.3274">
        <ele>331.8</ele>
        <time>2025-09-16T16:12:46Z</time>
      </trkpt>
      <trkpt lat="43.6381" lon="2.32736">
        <ele>331.6</ele>
        <time>2025-09-16T16:12:47Z</time>
      </trkpt>
      <trkpt lat="43.6381" lon="2.32732">
        <ele>331.6</ele>
        <time>2025-09-16T16:12:48Z</time>
      </trkpt>
      <trkpt lat="43.6381" lon="2.32729">
        <ele>331.4</ele>
        <time>2025-09-16T16:12:49Z</time>
      </trkpt>
      <trkpt lat="43.63808" lon="2.32724">
        <ele>331.4</ele>
        <time>2025-09-16T16:12:50Z</time>
      </trkpt>
      <trkpt lat="43.63806" lon="2.32718">
        <ele>331.4</ele>
        <time>2025-09-16T16:12:51Z</time>
      </trkpt>
      <trkpt lat="43.63804" lon="2.32714">
        <ele>331.4</ele>
        <time>2025-09-16T16:12:52Z</time>
      </trkpt>
      <trkpt lat="43.63803" lon="2.32708">
        <ele>331.2</ele>
        <time>2025-09-16T16:12:53Z</time>
      </trkpt>
      <trkpt lat="43.63801" lon="2.32702">
        <ele>331.2</ele>
        <time>2025-09-16T16:12:54Z</time>
      </trkpt>
      <trkpt lat="43.63801" lon="2.32696">
        <ele>331.2</ele>
        <time>2025-09-16T16:12:55Z</time>
      </trkpt>
      <trkpt lat="43.63801" lon="2.32689">
        <ele>331</ele>
        <time>2025-09-16T16:12:56Z</time>
      </trkpt>
      <trkpt lat="43.638" lon="2.32684">
        <ele>331</ele>
        <time>2025-09-16T16:12:57Z</time>
      </trkpt>
      <trkpt lat="43.63798" lon="2.32678">
        <ele>331</ele>
        <time>2025-09-16T16:12:58Z</time>
      </trkpt>
      <trkpt lat="43.63798" lon="2.32673">
        <ele>330.8</ele>
        <time>2025-09-16T16:12:59Z</time>
      </trkpt>
      <trkpt lat="43.63799" lon="2.32668">
        <ele>330.6</ele>
        <time>2025-09-16T16:13:00Z</time>
      </trkpt>
      <trkpt lat="43.63795" lon="2.3266">
        <ele>330.6</ele>
        <time>2025-09-16T16:13:01Z</time>
      </trkpt>
      <trkpt lat="43.63794" lon="2.32655">
        <ele>330.4</ele>
        <time>2025-09-16T16:13:02Z</time>
      </trkpt>
      <trkpt lat="43.63794" lon="2.3265">
        <ele>330.2</ele>
        <time>2025-09-16T16:13:03Z</time>
      </trkpt>
      <trkpt lat="43.63794" lon="2.32644">
        <ele>330.2</ele>
        <time>2025-09-16T16:13:04Z</time>
      </trkpt>
      <trkpt lat="43.63795" lon="2.32639">
        <ele>330</ele>
        <time>2025-09-16T16:13:05Z</time>
      </trkpt>
      <trkpt lat="43.63798" lon="2.32635">
        <ele>330</ele>
        <time>2025-09-16T16:13:06Z</time>
      </trkpt>
      <trkpt lat="43.63801" lon="2.32631">
        <ele>329.8</ele>
        <time>2025-09-16T16:13:07Z</time>
      </trkpt>
      <trkpt lat="43.63804" lon="2.32626">
        <ele>329.8</ele>
        <time>2025-09-16T16:13:08Z</time>
      </trkpt>
      <trkpt lat="43.63807" lon="2.32622">
        <ele>329.8</ele>
        <time>2025-09-16T16:13:09Z</time>
      </trkpt>
      <trkpt lat="43.6381" lon="2.32617">
        <ele>329.8</ele>
        <time>2025-09-16T16:13:10Z</time>
      </trkpt>
      <trkpt lat="43.63812" lon="2.32612">
        <ele>329.8</ele>
        <time>2025-09-16T16:13:11Z</time>
      </trkpt>
      <trkpt lat="43.63816" lon="2.32606">
        <ele>329.8</ele>
        <time>2025-09-16T16:13:12Z</time>
      </trkpt>
      <trkpt lat="43.63819" lon="2.326">
        <ele>330</ele>
        <time>2025-09-16T16:13:13Z</time>
      </trkpt>
      <trkpt lat="43.6382" lon="2.32595">
        <ele>330.2</ele>
        <time>2025-09-16T16:13:14Z</time>
      </trkpt>
      <trkpt lat="43.63823" lon="2.3259">
        <ele>330.4</ele>
        <time>2025-09-16T16:13:15Z</time>
      </trkpt>
      <trkpt lat="43.63824" lon="2.32585">
        <ele>330.8</ele>
        <time>2025-09-16T16:13:16Z</time>
      </trkpt>
      <trkpt lat="43.63827" lon="2.32581">
        <ele>331.2</ele>
        <time>2025-09-16T16:13:17Z</time>
      </trkpt>
      <trkpt lat="43.63828" lon="2.32577">
        <ele>331.4</ele>
        <time>2025-09-16T16:13:18Z</time>
      </trkpt>
      <trkpt lat="43.63829" lon="2.32574">
        <ele>331.8</ele>
        <time>2025-09-16T16:13:19Z</time>
      </trkpt>
      <trkpt lat="43.63832" lon="2.32571">
        <ele>332.2</ele>
        <time>2025-09-16T16:13:20Z</time>
      </trkpt>
      <trkpt lat="43.63835" lon="2.32567">
        <ele>332.4</ele>
        <time>2025-09-16T16:13:21Z</time>
      </trkpt>
      <trkpt lat="43.63837" lon="2.32563">
        <ele>332.4</ele>
        <time>2025-09-16T16:13:22Z</time>
      </trkpt>
      <trkpt lat="43.6384" lon="2.3256">
        <ele>332.4</ele>
        <time>2025-09-16T16:13:23Z</time>
      </trkpt>
      <trkpt lat="43.63843" lon="2.32557">
        <ele>332</ele>
        <time>2025-09-16T16:13:24Z</time>
      </trkpt>
      <trkpt lat="43.63846" lon="2.32554">
        <ele>331.4</ele>
        <time>2025-09-16T16:13:25Z</time>
      </trkpt>
      <trkpt lat="43.63851" lon="2.32551">
        <ele>330.6</ele>
        <time>2025-09-16T16:13:26Z</time>
      </trkpt>
      <trkpt lat="43.63855" lon="2.32546">
        <ele>329.6</ele>
        <time>2025-09-16T16:13:27Z</time>
      </trkpt>
      <trkpt lat="43.6386" lon="2.32542">
        <ele>328.8</ele>
        <time>2025-09-16T16:13:28Z</time>
      </trkpt>
      <trkpt lat="43.63868" lon="2.32538">
        <ele>327.2</ele>
        <time>2025-09-16T16:13:29Z</time>
      </trkpt>
      <trkpt lat="43.63881" lon="2.32533">
        <ele>326.8</ele>
        <time>2025-09-16T16:13:30Z</time>
      </trkpt>
      <trkpt lat="43.63888" lon="2.32528">
        <ele>325.6</ele>
        <time>2025-09-16T16:13:31Z</time>
      </trkpt>
      <trkpt lat="43.63894" lon="2.32524">
        <ele>324.6</ele>
        <time>2025-09-16T16:13:32Z</time>
      </trkpt>
      <trkpt lat="43.63901" lon="2.32519">
        <ele>324.2</ele>
        <time>2025-09-16T16:13:33Z</time>
      </trkpt>
      <trkpt lat="43.63907" lon="2.32515">
        <ele>324</ele>
        <time>2025-09-16T16:13:34Z</time>
      </trkpt>
      <trkpt lat="43.63913" lon="2.32512">
        <ele>324</ele>
        <time>2025-09-16T16:13:35Z</time>
      </trkpt>
      <trkpt lat="43.6392" lon="2.32509">
        <ele>323.8</ele>
        <time>2025-09-16T16:13:36Z</time>
      </trkpt>
      <trkpt lat="43.63927" lon="2.32506">
        <ele>323.6</ele>
        <time>2025-09-16T16:13:37Z</time>
      </trkpt>
      <trkpt lat="43.63933" lon="2.32503">
        <ele>323.8</ele>
        <time>2025-09-16T16:13:38Z</time>
      </trkpt>
      <trkpt lat="43.63938" lon="2.32501">
        <ele>324</ele>
        <time>2025-09-16T16:13:39Z</time>
      </trkpt>
      <trkpt lat="43.63941" lon="2.325">
        <ele>324.2</ele>
        <time>2025-09-16T16:13:40Z</time>
      </trkpt>
      <trkpt lat="43.63943" lon="2.325">
        <ele>324.6</ele>
        <time>2025-09-16T16:13:41Z</time>
      </trkpt>
      <trkpt lat="43.63945" lon="2.325">
        <ele>324.8</ele>
        <time>2025-09-16T16:13:42Z</time>
      </trkpt>
      <trkpt lat="43.63947" lon="2.32498">
        <ele>325</ele>
        <time>2025-09-16T16:13:43Z</time>
      </trkpt>
      <trkpt lat="43.63948" lon="2.32497">
        <ele>325.2</ele>
        <time>2025-09-16T16:13:44Z</time>
      </trkpt>
      <trkpt lat="43.6395" lon="2.32496">
        <ele>325.4</ele>
        <time>2025-09-16T16:13:45Z</time>
      </trkpt>
      <trkpt lat="43.63952" lon="2.32495">
        <ele>325.4</ele>
        <time>2025-09-16T16:13:46Z</time>
      </trkpt>
      <trkpt lat="43.63955" lon="2.32494">
        <ele>325.2</ele>
        <time>2025-09-16T16:13:47Z</time>
      </trkpt>
      <trkpt lat="43.63958" lon="2.32494">
        <ele>325</ele>
        <time>2025-09-16T16:13:48Z</time>
      </trkpt>
      <trkpt lat="43.63961" lon="2.32492">
        <ele>324.4</ele>
        <time>2025-09-16T16:13:49Z</time>
      </trkpt>
      <trkpt lat="43.63964" lon="2.3249">
        <ele>323.8</ele>
        <time>2025-09-16T16:13:50Z</time>
      </trkpt>
      <trkpt lat="43.63967" lon="2.32487">
        <ele>323.2</ele>
        <time>2025-09-16T16:13:51Z</time>
      </trkpt>
      <trkpt lat="43.6397" lon="2.32485">
        <ele>322.4</ele>
        <time>2025-09-16T16:13:52Z</time>
      </trkpt>
      <trkpt lat="43.63973" lon="2.32482">
        <ele>322</ele>
        <time>2025-09-16T16:13:53Z</time>
      </trkpt>
      <trkpt lat="43.63975" lon="2.32478">
        <ele>321.2</ele>
        <time>2025-09-16T16:13:54Z</time>
      </trkpt>
      <trkpt lat="43.63977" lon="2.32475">
        <ele>320.8</ele>
        <time>2025-09-16T16:13:55Z</time>
      </trkpt>
      <trkpt lat="43.63979" lon="2.32471">
        <ele>320.2</ele>
        <time>2025-09-16T16:13:56Z</time>
      </trkpt>
      <trkpt lat="43.63982" lon="2.32466">
        <ele>319.4</ele>
        <time>2025-09-16T16:13:57Z</time>
      </trkpt>
      <trkpt lat="43.63984" lon="2.32462">
        <ele>318.4</ele>
        <time>2025-09-16T16:13:58Z</time>
      </trkpt>
      <trkpt lat="43.63987" lon="2.32457">
        <ele>317.6</ele>
        <time>2025-09-16T16:13:59Z</time>
      </trkpt>
      <trkpt lat="43.63989" lon="2.32453">
        <ele>317.2</ele>
        <time>2025-09-16T16:14:00Z</time>
      </trkpt>
      <trkpt lat="43.6399" lon="2.32449">
        <ele>316.8</ele>
        <time>2025-09-16T16:14:01Z</time>
      </trkpt>
      <trkpt lat="43.6399" lon="2.32445">
        <ele>316.4</ele>
        <time>2025-09-16T16:14:02Z</time>
      </trkpt>
      <trkpt lat="43.63991" lon="2.32441">
        <ele>315.8</ele>
        <time>2025-09-16T16:14:03Z</time>
      </trkpt>
      <trkpt lat="43.63992" lon="2.32437">
        <ele>315.4</ele>
        <time>2025-09-16T16:14:04Z</time>
      </trkpt>
      <trkpt lat="43.63993" lon="2.32433">
        <ele>314.6</ele>
        <time>2025-09-16T16:14:05Z</time>
      </trkpt>
      <trkpt lat="43.63996" lon="2.3243">
        <ele>314</ele>
        <time>2025-09-16T16:14:06Z</time>
      </trkpt>
      <trkpt lat="43.63997" lon="2.32426">
        <ele>313.6</ele>
        <time>2025-09-16T16:14:07Z</time>
      </trkpt>
      <trkpt lat="43.64" lon="2.32422">
        <ele>313</ele>
        <time>2025-09-16T16:14:08Z</time>
      </trkpt>
      <trkpt lat="43.64" lon="2.32417">
        <ele>312.4</ele>
        <time>2025-09-16T16:14:09Z</time>
      </trkpt>
      <trkpt lat="43.63999" lon="2.32412">
        <ele>311.8</ele>
        <time>2025-09-16T16:14:10Z</time>
      </trkpt>
      <trkpt lat="43.63999" lon="2.32407">
        <ele>310.6</ele>
        <time>2025-09-16T16:14:11Z</time>
      </trkpt>
      <trkpt lat="43.63999" lon="2.32403">
        <ele>309.8</ele>
        <time>2025-09-16T16:14:12Z</time>
      </trkpt>
      <trkpt lat="43.63999" lon="2.32398">
        <ele>309</ele>
        <time>2025-09-16T16:14:13Z</time>
      </trkpt>
      <trkpt lat="43.63999" lon="2.32394">
        <ele>308.2</ele>
        <time>2025-09-16T16:14:14Z</time>
      </trkpt>
      <trkpt lat="43.63999" lon="2.32389">
        <ele>307.2</ele>
        <time>2025-09-16T16:14:15Z</time>
      </trkpt>
      <trkpt lat="43.64" lon="2.32383">
        <ele>306.4</ele>
        <time>2025-09-16T16:14:16Z</time>
      </trkpt>
      <trkpt lat="43.64001" lon="2.32377">
        <ele>305.2</ele>
        <time>2025-09-16T16:14:17Z</time>
      </trkpt>
      <trkpt lat="43.64002" lon="2.3237">
        <ele>304.4</ele>
        <time>2025-09-16T16:14:18Z</time>
      </trkpt>
      <trkpt lat="43.64002" lon="2.32362">
        <ele>303.2</ele>
        <time>2025-09-16T16:14:19Z</time>
      </trkpt>
      <trkpt lat="43.64003" lon="2.32354">
        <ele>302</ele>
        <time>2025-09-16T16:14:20Z</time>
      </trkpt>
      <trkpt lat="43.64003" lon="2.32346">
        <ele>301</ele>
        <time>2025-09-16T16:14:21Z</time>
      </trkpt>
      <trkpt lat="43.64" lon="2.32339">
        <ele>300</ele>
        <time>2025-09-16T16:14:22Z</time>
      </trkpt>
      <trkpt lat="43.63996" lon="2.32331">
        <ele>299.4</ele>
        <time>2025-09-16T16:14:23Z</time>
      </trkpt>
      <trkpt lat="43.63994" lon="2.32323">
        <ele>299</ele>
        <time>2025-09-16T16:14:24Z</time>
      </trkpt>
      <trkpt lat="43.63993" lon="2.32318">
        <ele>299</ele>
        <time>2025-09-16T16:14:25Z</time>
      </trkpt>
      <trkpt lat="43.63992" lon="2.32314">
        <ele>299</ele>
        <time>2025-09-16T16:14:26Z</time>
      </trkpt>
      <trkpt lat="43.63991" lon="2.3231">
        <ele>299</ele>
        <time>2025-09-16T16:14:27Z</time>
      </trkpt>
      <trkpt lat="43.63991" lon="2.32307">
        <ele>299</ele>
        <time>2025-09-16T16:14:28Z</time>
      </trkpt>
      <trkpt lat="43.63991" lon="2.32304">
        <ele>299</ele>
        <time>2025-09-16T16:14:29Z</time>
      </trkpt>
      <trkpt lat="43.63992" lon="2.323">
        <ele>298.6</ele>
        <time>2025-09-16T16:14:30Z</time>
      </trkpt>
      <trkpt lat="43.63992" lon="2.32296">
        <ele>298.2</ele>
        <time>2025-09-16T16:14:31Z</time>
      </trkpt>
      <trkpt lat="43.63992" lon="2.32292">
        <ele>297.8</ele>
        <time>2025-09-16T16:14:32Z</time>
      </trkpt>
      <trkpt lat="43.6399" lon="2.32289">
        <ele>297.2</ele>
        <time>2025-09-16T16:14:33Z</time>
      </trkpt>
      <trkpt lat="43.63988" lon="2.32286">
        <ele>296.8</ele>
        <time>2025-09-16T16:14:34Z</time>
      </trkpt>
      <trkpt lat="43.63985" lon="2.32284">
        <ele>296</ele>
        <time>2025-09-16T16:14:35Z</time>
      </trkpt>
      <trkpt lat="43.63983" lon="2.32283">
        <ele>295.6</ele>
        <time>2025-09-16T16:14:36Z</time>
      </trkpt>
      <trkpt lat="43.63983" lon="2.32279">
        <ele>295</ele>
        <time>2025-09-16T16:14:37Z</time>
      </trkpt>
      <trkpt lat="43.63981" lon="2.32276">
        <ele>294.4</ele>
        <time>2025-09-16T16:14:38Z</time>
      </trkpt>
      <trkpt lat="43.63979" lon="2.32273">
        <ele>293.8</ele>
        <time>2025-09-16T16:14:39Z</time>
      </trkpt>
      <trkpt lat="43.63975" lon="2.32269">
        <ele>293</ele>
        <time>2025-09-16T16:14:40Z</time>
      </trkpt>
      <trkpt lat="43.63972" lon="2.32268">
        <ele>292.2</ele>
        <time>2025-09-16T16:14:41Z</time>
      </trkpt>
      <trkpt lat="43.63969" lon="2.32265">
        <ele>291.6</ele>
        <time>2025-09-16T16:14:42Z</time>
      </trkpt>
      <trkpt lat="43.63965" lon="2.32262">
        <ele>290.8</ele>
        <time>2025-09-16T16:14:43Z</time>
      </trkpt>
      <trkpt lat="43.63961" lon="2.3226">
        <ele>290.2</ele>
        <time>2025-09-16T16:14:44Z</time>
      </trkpt>
      <trkpt lat="43.63959" lon="2.32258">
        <ele>289.4</ele>
        <time>2025-09-16T16:14:45Z</time>
      </trkpt>
      <trkpt lat="43.63956" lon="2.32255">
        <ele>288.8</ele>
        <time>2025-09-16T16:14:46Z</time>
      </trkpt>
      <trkpt lat="43.63952" lon="2.32251">
        <ele>287.8</ele>
        <time>2025-09-16T16:14:47Z</time>
      </trkpt>
      <trkpt lat="43.6395" lon="2.3225">
        <ele>287.2</ele>
        <time>2025-09-16T16:14:48Z</time>
      </trkpt>
      <trkpt lat="43.63947" lon="2.32247">
        <ele>286.4</ele>
        <time>2025-09-16T16:14:49Z</time>
      </trkpt>
      <trkpt lat="43.63946" lon="2.32244">
        <ele>285.6</ele>
        <time>2025-09-16T16:14:50Z</time>
      </trkpt>
      <trkpt lat="43.63944" lon="2.32241">
        <ele>284.8</ele>
        <time>2025-09-16T16:14:51Z</time>
      </trkpt>
      <trkpt lat="43.63942" lon="2.32237">
        <ele>284.4</ele>
        <time>2025-09-16T16:14:52Z</time>
      </trkpt>
      <trkpt lat="43.6394" lon="2.32234">
        <ele>283.6</ele>
        <time>2025-09-16T16:14:53Z</time>
      </trkpt>
      <trkpt lat="43.63939" lon="2.3223">
        <ele>283</ele>
        <time>2025-09-16T16:14:54Z</time>
      </trkpt>
      <trkpt lat="43.63937" lon="2.32225">
        <ele>282.4</ele>
        <time>2025-09-16T16:14:55Z</time>
      </trkpt>
      <trkpt lat="43.63934" lon="2.32222">
        <ele>281.6</ele>
        <time>2025-09-16T16:14:56Z</time>
      </trkpt>
      <trkpt lat="43.63932" lon="2.32221">
        <ele>281</ele>
        <time>2025-09-16T16:14:57Z</time>
      </trkpt>
      <trkpt lat="43.6393" lon="2.32218">
        <ele>280.4</ele>
        <time>2025-09-16T16:14:58Z</time>
      </trkpt>
      <trkpt lat="43.63928" lon="2.32215">
        <ele>279.6</ele>
        <time>2025-09-16T16:14:59Z</time>
      </trkpt>
      <trkpt lat="43.63928" lon="2.32213">
        <ele>279</ele>
        <time>2025-09-16T16:15:00Z</time>
      </trkpt>
      <trkpt lat="43.63924" lon="2.3221">
        <ele>278.4</ele>
        <time>2025-09-16T16:15:01Z</time>
      </trkpt>
      <trkpt lat="43.6392" lon="2.32207">
        <ele>277.8</ele>
        <time>2025-09-16T16:15:02Z</time>
      </trkpt>
      <trkpt lat="43.63918" lon="2.32204">
        <ele>277</ele>
        <time>2025-09-16T16:15:03Z</time>
      </trkpt>
      <trkpt lat="43.63916" lon="2.322">
        <ele>276.4</ele>
        <time>2025-09-16T16:15:04Z</time>
      </trkpt>
      <trkpt lat="43.63914" lon="2.32197">
        <ele>275.4</ele>
        <time>2025-09-16T16:15:05Z</time>
      </trkpt>
      <trkpt lat="43.63914" lon="2.32195">
        <ele>274.6</ele>
        <time>2025-09-16T16:15:06Z</time>
      </trkpt>
      <trkpt lat="43.63914" lon="2.32192">
        <ele>274</ele>
        <time>2025-09-16T16:15:07Z</time>
      </trkpt>
      <trkpt lat="43.63914" lon="2.3219">
        <ele>273.4</ele>
        <time>2025-09-16T16:15:08Z</time>
      </trkpt>
      <trkpt lat="43.63913" lon="2.32188">
        <ele>272.6</ele>
        <time>2025-09-16T16:15:09Z</time>
      </trkpt>
      <trkpt lat="43.63914" lon="2.32185">
        <ele>272.2</ele>
        <time>2025-09-16T16:15:10Z</time>
      </trkpt>
      <trkpt lat="43.63914" lon="2.32182">
        <ele>271.4</ele>
        <time>2025-09-16T16:15:11Z</time>
      </trkpt>
      <trkpt lat="43.63914" lon="2.32177">
        <ele>270.4</ele>
        <time>2025-09-16T16:15:12Z</time>
      </trkpt>
      <trkpt lat="43.63913" lon="2.32173">
        <ele>269.4</ele>
        <time>2025-09-16T16:15:13Z</time>
      </trkpt>
      <trkpt lat="43.63912" lon="2.32168">
        <ele>268.4</ele>
        <time>2025-09-16T16:15:14Z</time>
      </trkpt>
      <trkpt lat="43.6391" lon="2.32164">
        <ele>267.6</ele>
        <time>2025-09-16T16:15:15Z</time>
      </trkpt>
      <trkpt lat="43.63907" lon="2.32161">
        <ele>267.2</ele>
        <time>2025-09-16T16:15:16Z</time>
      </trkpt>
      <trkpt lat="43.63903" lon="2.32158">
        <ele>265.8</ele>
        <time>2025-09-16T16:15:17Z</time>
      </trkpt>
      <trkpt lat="43.63901" lon="2.32154">
        <ele>265.2</ele>
        <time>2025-09-16T16:15:18Z</time>
      </trkpt>
      <trkpt lat="43.63899" lon="2.3215">
        <ele>264.4</ele>
        <time>2025-09-16T16:15:19Z</time>
      </trkpt>
      <trkpt lat="43.63899" lon="2.32147">
        <ele>264</ele>
        <time>2025-09-16T16:15:20Z</time>
      </trkpt>
      <trkpt lat="43.63898" lon="2.32144">
        <ele>263.6</ele>
        <time>2025-09-16T16:15:21Z</time>
      </trkpt>
      <trkpt lat="43.63898" lon="2.32143">
        <ele>263.4</ele>
        <time>2025-09-16T16:15:22Z</time>
      </trkpt>
      <trkpt lat="43.639" lon="2.32142">
        <ele>263</ele>
        <time>2025-09-16T16:15:23Z</time>
      </trkpt>
      <trkpt lat="43.63901" lon="2.32143">
        <ele>262.8</ele>
        <time>2025-09-16T16:15:24Z</time>
      </trkpt>
      <trkpt lat="43.63902" lon="2.32145">
        <ele>262.6</ele>
        <time>2025-09-16T16:15:25Z</time>
      </trkpt>
      <trkpt lat="43.63904" lon="2.32146">
        <ele>262.4</ele>
        <time>2025-09-16T16:15:26Z</time>
      </trkpt>
      <trkpt lat="43.63906" lon="2.32149">
        <ele>261.8</ele>
        <time>2025-09-16T16:15:27Z</time>
      </trkpt>
      <trkpt lat="43.63908" lon="2.32151">
        <ele>261.4</ele>
        <time>2025-09-16T16:15:28Z</time>
      </trkpt>
      <trkpt lat="43.6391" lon="2.32154">
        <ele>260.8</ele>
        <time>2025-09-16T16:15:29Z</time>
      </trkpt>
      <trkpt lat="43.63912" lon="2.32155">
        <ele>260.4</ele>
        <time>2025-09-16T16:15:30Z</time>
      </trkpt>
      <trkpt lat="43.63914" lon="2.32157">
        <ele>260.2</ele>
        <time>2025-09-16T16:15:31Z</time>
      </trkpt>
      <trkpt lat="43.63916" lon="2.32157">
        <ele>260</ele>
        <time>2025-09-16T16:15:32Z</time>
      </trkpt>
      <trkpt lat="43.63916" lon="2.32155">
        <ele>259.8</ele>
        <time>2025-09-16T16:15:33Z</time>
      </trkpt>
      <trkpt lat="43.63916" lon="2.32153">
        <ele>259.4</ele>
        <time>2025-09-16T16:15:34Z</time>
      </trkpt>
      <trkpt lat="43.63916" lon="2.3215">
        <ele>259</ele>
        <time>2025-09-16T16:15:35Z</time>
      </trkpt>
      <trkpt lat="43.63915" lon="2.32148">
        <ele>258.6</ele>
        <time>2025-09-16T16:15:36Z</time>
      </trkpt>
      <trkpt lat="43.63915" lon="2.32146">
        <ele>258.2</ele>
        <time>2025-09-16T16:15:37Z</time>
      </trkpt>
      <trkpt lat="43.63914" lon="2.32143">
        <ele>257.6</ele>
        <time>2025-09-16T16:15:38Z</time>
      </trkpt>
      <trkpt lat="43.63913" lon="2.3214">
        <ele>257.2</ele>
        <time>2025-09-16T16:15:39Z</time>
      </trkpt>
      <trkpt lat="43.63912" lon="2.32136">
        <ele>256.6</ele>
        <time>2025-09-16T16:15:40Z</time>
      </trkpt>
      <trkpt lat="43.63909" lon="2.32132">
        <ele>256</ele>
        <time>2025-09-16T16:15:41Z</time>
      </trkpt>
      <trkpt lat="43.63908" lon="2.32129">
        <ele>255.2</ele>
        <time>2025-09-16T16:15:42Z</time>
      </trkpt>
      <trkpt lat="43.63905" lon="2.32126">
        <ele>254.8</ele>
        <time>2025-09-16T16:15:43Z</time>
      </trkpt>
      <trkpt lat="43.63902" lon="2.32125">
        <ele>254.2</ele>
        <time>2025-09-16T16:15:44Z</time>
      </trkpt>
      <trkpt lat="43.63898" lon="2.32123">
        <ele>253.8</ele>
        <time>2025-09-16T16:15:45Z</time>
      </trkpt>
      <trkpt lat="43.63895" lon="2.32122">
        <ele>253.4</ele>
        <time>2025-09-16T16:15:46Z</time>
      </trkpt>
      <trkpt lat="43.63891" lon="2.3212">
        <ele>252.6</ele>
        <time>2025-09-16T16:15:47Z</time>
      </trkpt>
      <trkpt lat="43.63887" lon="2.32119">
        <ele>252</ele>
        <time>2025-09-16T16:15:48Z</time>
      </trkpt>
      <trkpt lat="43.63883" lon="2.32118">
        <ele>251.4</ele>
        <time>2025-09-16T16:15:49Z</time>
      </trkpt>
      <trkpt lat="43.6388" lon="2.32117">
        <ele>250.8</ele>
        <time>2025-09-16T16:15:50Z</time>
      </trkpt>
      <trkpt lat="43.63877" lon="2.32117">
        <ele>250.2</ele>
        <time>2025-09-16T16:15:51Z</time>
      </trkpt>
      <trkpt lat="43.63874" lon="2.32116">
        <ele>249.8</ele>
        <time>2025-09-16T16:15:52Z</time>
      </trkpt>
      <trkpt lat="43.6387" lon="2.32116">
        <ele>249.4</ele>
        <time>2025-09-16T16:15:53Z</time>
      </trkpt>
      <trkpt lat="43.63867" lon="2.32115">
        <ele>249</ele>
        <time>2025-09-16T16:15:54Z</time>
      </trkpt>
      <trkpt lat="43.63862" lon="2.32113">
        <ele>248.4</ele>
        <time>2025-09-16T16:15:55Z</time>
      </trkpt>
      <trkpt lat="43.63858" lon="2.3211">
        <ele>247.8</ele>
        <time>2025-09-16T16:15:56Z</time>
      </trkpt>
      <trkpt lat="43.63853" lon="2.32107">
        <ele>247.2</ele>
        <time>2025-09-16T16:15:57Z</time>
      </trkpt>
      <trkpt lat="43.63849" lon="2.32105">
        <ele>246.4</ele>
        <time>2025-09-16T16:15:58Z</time>
      </trkpt>
      <trkpt lat="43.63845" lon="2.32103">
        <ele>245.6</ele>
        <time>2025-09-16T16:15:59Z</time>
      </trkpt>
      <trkpt lat="43.63842" lon="2.32101">
        <ele>245</ele>
        <time>2025-09-16T16:16:00Z</time>
      </trkpt>
      <trkpt lat="43.6384" lon="2.32099">
        <ele>244.6</ele>
        <time>2025-09-16T16:16:01Z</time>
      </trkpt>
      <trkpt lat="43.63837" lon="2.32097">
        <ele>244.2</ele>
        <time>2025-09-16T16:16:02Z</time>
      </trkpt>
      <trkpt lat="43.63835" lon="2.32096">
        <ele>244</ele>
        <time>2025-09-16T16:16:03Z</time>
      </trkpt>
      <trkpt lat="43.63833" lon="2.32095">
        <ele>243.8</ele>
        <time>2025-09-16T16:16:04Z</time>
      </trkpt>
      <trkpt lat="43.63831" lon="2.32093">
        <ele>243.6</ele>
        <time>2025-09-16T16:16:05Z</time>
      </trkpt>
      <trkpt lat="43.63829" lon="2.32092">
        <ele>243.6</ele>
        <time>2025-09-16T16:16:06Z</time>
      </trkpt>
      <trkpt lat="43.6383" lon="2.32089">
        <ele>243.4</ele>
        <time>2025-09-16T16:16:07Z</time>
      </trkpt>
      <trkpt lat="43.63831" lon="2.32088">
        <ele>243.4</ele>
        <time>2025-09-16T16:16:08Z</time>
      </trkpt>
      <trkpt lat="43.63832" lon="2.32087">
        <ele>243.2</ele>
        <time>2025-09-16T16:16:09Z</time>
      </trkpt>
      <trkpt lat="43.63834" lon="2.32088">
        <ele>243</ele>
        <time>2025-09-16T16:16:10Z</time>
      </trkpt>
      <trkpt lat="43.63835" lon="2.32089">
        <ele>242.6</ele>
        <time>2025-09-16T16:16:11Z</time>
      </trkpt>
      <trkpt lat="43.63837" lon="2.32091">
        <ele>242.2</ele>
        <time>2025-09-16T16:16:12Z</time>
      </trkpt>
      <trkpt lat="43.63839" lon="2.32092">
        <ele>241.8</ele>
        <time>2025-09-16T16:16:13Z</time>
      </trkpt>
      <trkpt lat="43.63841" lon="2.32092">
        <ele>241.4</ele>
        <time>2025-09-16T16:16:14Z</time>
      </trkpt>
      <trkpt lat="43.63843" lon="2.32093">
        <ele>241</ele>
        <time>2025-09-16T16:16:15Z</time>
      </trkpt>
      <trkpt lat="43.63846" lon="2.32093">
        <ele>240.6</ele>
        <time>2025-09-16T16:16:16Z</time>
      </trkpt>
      <trkpt lat="43.63849" lon="2.32094">
        <ele>240.2</ele>
        <time>2025-09-16T16:16:17Z</time>
      </trkpt>
      <trkpt lat="43.63852" lon="2.32094">
        <ele>239.6</ele>
        <time>2025-09-16T16:16:18Z</time>
      </trkpt>
      <trkpt lat="43.63854" lon="2.32094">
        <ele>239.2</ele>
        <time>2025-09-16T16:16:19Z</time>
      </trkpt>
      <trkpt lat="43.63857" lon="2.32093">
        <ele>239</ele>
        <time>2025-09-16T16:16:20Z</time>
      </trkpt>
      <trkpt lat="43.63859" lon="2.32094">
        <ele>238.6</ele>
        <time>2025-09-16T16:16:21Z</time>
      </trkpt>
      <trkpt lat="43.63861" lon="2.32094">
        <ele>238.2</ele>
        <time>2025-09-16T16:16:22Z</time>
      </trkpt>
      <trkpt lat="43.63864" lon="2.32093">
        <ele>237.8</ele>
        <time>2025-09-16T16:16:23Z</time>
      </trkpt>
      <trkpt lat="43.63867" lon="2.32093">
        <ele>237.2</ele>
        <time>2025-09-16T16:16:24Z</time>
      </trkpt>
      <trkpt lat="43.6387" lon="2.32093">
        <ele>236.8</ele>
        <time>2025-09-16T16:16:25Z</time>
      </trkpt>
      <trkpt lat="43.63873" lon="2.32092">
        <ele>236.2</ele>
        <time>2025-09-16T16:16:26Z</time>
      </trkpt>
      <trkpt lat="43.63876" lon="2.32091">
        <ele>235.8</ele>
        <time>2025-09-16T16:16:27Z</time>
      </trkpt>
      <trkpt lat="43.6388" lon="2.3209">
        <ele>235.2</ele>
        <time>2025-09-16T16:16:28Z</time>
      </trkpt>
      <trkpt lat="43.63884" lon="2.32089">
        <ele>234.6</ele>
        <time>2025-09-16T16:16:29Z</time>
      </trkpt>
      <trkpt lat="43.63887" lon="2.32087">
        <ele>234</ele>
        <time>2025-09-16T16:16:30Z</time>
      </trkpt>
      <trkpt lat="43.63891" lon="2.32084">
        <ele>233.4</ele>
        <time>2025-09-16T16:16:31Z</time>
      </trkpt>
      <trkpt lat="43.63893" lon="2.32082">
        <ele>232.8</ele>
        <time>2025-09-16T16:16:32Z</time>
      </trkpt>
      <trkpt lat="43.63895" lon="2.32079">
        <ele>232.2</ele>
        <time>2025-09-16T16:16:33Z</time>
      </trkpt>
      <trkpt lat="43.63898" lon="2.32077">
        <ele>231.8</ele>
        <time>2025-09-16T16:16:34Z</time>
      </trkpt>
      <trkpt lat="43.639" lon="2.32076">
        <ele>231.2</ele>
        <time>2025-09-16T16:16:35Z</time>
      </trkpt>
      <trkpt lat="43.63903" lon="2.32075">
        <ele>230.8</ele>
        <time>2025-09-16T16:16:36Z</time>
      </trkpt>
      <trkpt lat="43.63905" lon="2.32076">
        <ele>230.2</ele>
        <time>2025-09-16T16:16:37Z</time>
      </trkpt>
      <trkpt lat="43.63908" lon="2.32075">
        <ele>229.8</ele>
        <time>2025-09-16T16:16:38Z</time>
      </trkpt>
      <trkpt lat="43.63912" lon="2.32075">
        <ele>229.2</ele>
        <time>2025-09-16T16:16:39Z</time>
      </trkpt>
      <trkpt lat="43.63915" lon="2.32074">
        <ele>228.8</ele>
        <time>2025-09-16T16:16:40Z</time>
      </trkpt>
      <trkpt lat="43.63919" lon="2.32074">
        <ele>228.2</ele>
        <time>2025-09-16T16:16:41Z</time>
      </trkpt>
      <trkpt lat="43.63923" lon="2.32072">
        <ele>227.4</ele>
        <time>2025-09-16T16:16:42Z</time>
      </trkpt>
      <trkpt lat="43.63927" lon="2.3207">
        <ele>227</ele>
        <time>2025-09-16T16:16:43Z</time>
      </trkpt>
      <trkpt lat="43.63929" lon="2.32066">
        <ele>226.6</ele>
        <time>2025-09-16T16:16:44Z</time>
      </trkpt>
      <trkpt lat="43.63931" lon="2.32064">
        <ele>226.2</ele>
        <time>2025-09-16T16:16:45Z</time>
      </trkpt>
      <trkpt lat="43.63932" lon="2.32061">
        <ele>226</ele>
        <time>2025-09-16T16:16:46Z</time>
      </trkpt>
      <trkpt lat="43.63933" lon="2.32057">
        <ele>225.6</ele>
        <time>2025-09-16T16:16:47Z</time>
      </trkpt>
      <trkpt lat="43.63935" lon="2.32054">
        <ele>225.2</ele>
        <time>2025-09-16T16:16:48Z</time>
      </trkpt>
      <trkpt lat="43.63935" lon="2.32051">
        <ele>225</ele>
        <time>2025-09-16T16:16:49Z</time>
      </trkpt>
      <trkpt lat="43.63933" lon="2.32049">
        <ele>224.6</ele>
        <time>2025-09-16T16:16:50Z</time>
      </trkpt>
      <trkpt lat="43.63932" lon="2.32049">
        <ele>224.4</ele>
        <time>2025-09-16T16:16:51Z</time>
      </trkpt>
      <trkpt lat="43.63931" lon="2.3205">
        <ele>224.2</ele>
        <time>2025-09-16T16:16:52Z</time>
      </trkpt>
      <trkpt lat="43.6393" lon="2.32052">
        <ele>223.8</ele>
        <time>2025-09-16T16:16:53Z</time>
      </trkpt>
      <trkpt lat="43.63928" lon="2.32054">
        <ele>223.4</ele>
        <time>2025-09-16T16:16:54Z</time>
      </trkpt>
      <trkpt lat="43.63926" lon="2.32058">
        <ele>223</ele>
        <time>2025-09-16T16:16:55Z</time>
      </trkpt>
      <trkpt lat="43.63924" lon="2.32059">
        <ele>222.8</ele>
        <time>2025-09-16T16:16:56Z</time>
      </trkpt>
      <trkpt lat="43.63922" lon="2.32059">
        <ele>222.4</ele>
        <time>2025-09-16T16:16:57Z</time>
      </trkpt>
      <trkpt lat="43.6392" lon="2.32059">
        <ele>222.2</ele>
        <time>2025-09-16T16:16:58Z</time>
      </trkpt>
      <trkpt lat="43.63918" lon="2.32059">
        <ele>221.8</ele>
        <time>2025-09-16T16:16:59Z</time>
      </trkpt>
      <trkpt lat="43.63916" lon="2.32059">
        <ele>221.6</ele>
        <time>2025-09-16T16:17:00Z</time>
      </trkpt>
      <trkpt lat="43.63914" lon="2.32058">
        <ele>221.4</ele>
        <time>2025-09-16T16:17:01Z</time>
      </trkpt>
      <trkpt lat="43.63911" lon="2.32058">
        <ele>221</ele>
        <time>2025-09-16T16:17:02Z</time>
      </trkpt>
      <trkpt lat="43.63909" lon="2.32058">
        <ele>220.6</ele>
        <time>2025-09-16T16:17:03Z</time>
      </trkpt>
      <trkpt lat="43.63906" lon="2.32057">
        <ele>220.2</ele>
        <time>2025-09-16T16:17:04Z</time>
      </trkpt>
      <trkpt lat="43.63904" lon="2.32057">
        <ele>219.8</ele>
        <time>2025-09-16T16:17:05Z</time>
      </trkpt>
      <trkpt lat="43.63902" lon="2.32057">
        <ele>219.2</ele>
        <time>2025-09-16T16:17:06Z</time>
      </trkpt>
      <trkpt lat="43.63899" lon="2.32057">
        <ele>218.8</ele>
        <time>2025-09-16T16:17:07Z</time>
      </trkpt>
      <trkpt lat="43.63896" lon="2.32057">
        <ele>218.2</ele>
        <time>2025-09-16T16:17:08Z</time>
      </trkpt>
      <trkpt lat="43.63894" lon="2.32056">
        <ele>217.8</ele>
        <time>2025-09-16T16:17:09Z</time>
      </trkpt>
      <trkpt lat="43.6389" lon="2.32056">
        <ele>217.2</ele>
        <time>2025-09-16T16:17:10Z</time>
      </trkpt>
      <trkpt lat="43.63888" lon="2.32056">
        <ele>216.6</ele>
        <time>2025-09-16T16:17:11Z</time>
      </trkpt>
      <trkpt lat="43.63885" lon="2.32055">
        <ele>216</ele>
        <time>2025-09-16T16:17:12Z</time>
      </trkpt>
      <trkpt lat="43.63883" lon="2.32055">
        <ele>215.6</ele>
        <time>2025-09-16T16:17:13Z</time>
      </trkpt>
      <trkpt lat="43.6388" lon="2.32054">
        <ele>215</ele>
        <time>2025-09-16T16:17:14Z</time>
      </trkpt>
      <trkpt lat="43.63877" lon="2.32053">
        <ele>214.6</ele>
        <time>2025-09-16T16:17:15Z</time>
      </trkpt>
      <trkpt lat="43.63874" lon="2.32053">
        <ele>214.2</ele>
        <time>2025-09-16T16:17:16Z</time>
      </trkpt>
      <trkpt lat="43.63872" lon="2.32053">
        <ele>213.8</ele>
        <time>2025-09-16T16:17:17Z</time>
      </trkpt>
      <trkpt lat="43.63868" lon="2.32052">
        <ele>213.2</ele>
        <time>2025-09-16T16:17:18Z</time>
      </trkpt>
      <trkpt lat="43.63866" lon="2.32051">
        <ele>212.6</ele>
        <time>2025-09-16T16:17:19Z</time>
      </trkpt>
      <trkpt lat="43.63862" lon="2.32049">
        <ele>212</ele>
        <time>2025-09-16T16:17:20Z</time>
      </trkpt>
      <trkpt lat="43.63859" lon="2.32046">
        <ele>211.4</ele>
        <time>2025-09-16T16:17:21Z</time>
      </trkpt>
      <trkpt lat="43.63855" lon="2.32041">
        <ele>210.6</ele>
        <time>2025-09-16T16:17:22Z</time>
      </trkpt>
      <trkpt lat="43.63852" lon="2.32038">
        <ele>210</ele>
        <time>2025-09-16T16:17:23Z</time>
      </trkpt>
      <trkpt lat="43.63849" lon="2.32034">
        <ele>209.2</ele>
        <time>2025-09-16T16:17:24Z</time>
      </trkpt>
      <trkpt lat="43.63847" lon="2.32031">
        <ele>208.6</ele>
        <time>2025-09-16T16:17:25Z</time>
      </trkpt>
      <trkpt lat="43.63843" lon="2.32028">
        <ele>208.2</ele>
        <time>2025-09-16T16:17:26Z</time>
      </trkpt>
      <trkpt lat="43.63841" lon="2.32025">
        <ele>207.8</ele>
        <time>2025-09-16T16:17:27Z</time>
      </trkpt>
      <trkpt lat="43.63837" lon="2.32022">
        <ele>207.2</ele>
        <time>2025-09-16T16:17:28Z</time>
      </trkpt>
      <trkpt lat="43.63833" lon="2.32019">
        <ele>206.8</ele>
        <time>2025-09-16T16:17:29Z</time>
      </trkpt>
      <trkpt lat="43.63829" lon="2.32017">
        <ele>206.4</ele>
        <time>2025-09-16T16:17:30Z</time>
      </trkpt>
      <trkpt lat="43.63825" lon="2.32017">
        <ele>206</ele>
        <time>2025-09-16T16:17:31Z</time>
      </trkpt>
      <trkpt lat="43.6382" lon="2.32018">
        <ele>205.8</ele>
        <time>2025-09-16T16:17:32Z</time>
      </trkpt>
      <trkpt lat="43.63815" lon="2.32018">
        <ele>205.4</ele>
        <time>2025-09-16T16:17:33Z</time>
      </trkpt>
      <trkpt lat="43.63811" lon="2.32017">
        <ele>205.2</ele>
        <time>2025-09-16T16:17:34Z</time>
      </trkpt>
      <trkpt lat="43.63806" lon="2.32016">
        <ele>205</ele>
        <time>2025-09-16T16:17:35Z</time>
      </trkpt>
      <trkpt lat="43.63802" lon="2.32014">
        <ele>204.8</ele>
        <time>2025-09-16T16:17:36Z</time>
      </trkpt>
      <trkpt lat="43.63798" lon="2.32013">
        <ele>204.6</ele>
        <time>2025-09-16T16:17:37Z</time>
      </trkpt>
      <trkpt lat="43.63792" lon="2.32012">
        <ele>204.4</ele>
        <time>2025-09-16T16:17:38Z</time>
      </trkpt>
      <trkpt lat="43.63788" lon="2.3201">
        <ele>204.2</ele>
        <time>2025-09-16T16:17:39Z</time>
      </trkpt>
      <trkpt lat="43.63783" lon="2.3201">
        <ele>204</ele>
        <time>2025-09-16T16:17:40Z</time>
      </trkpt>
      <trkpt lat="43.63779" lon="2.32009">
        <ele>204</ele>
        <time>2025-09-16T16:17:41Z</time>
      </trkpt>
      <trkpt lat="43.63772" lon="2.32009">
        <ele>203.8</ele>
        <time>2025-09-16T16:17:42Z</time>
      </trkpt>
      <trkpt lat="43.63767" lon="2.32008">
        <ele>203.6</ele>
        <time>2025-09-16T16:17:43Z</time>
      </trkpt>
      <trkpt lat="43.63762" lon="2.32007">
        <ele>203.6</ele>
        <time>2025-09-16T16:17:44Z</time>
      </trkpt>
      <trkpt lat="43.63757" lon="2.32007">
        <ele>203.4</ele>
        <time>2025-09-16T16:17:45Z</time>
      </trkpt>
      <trkpt lat="43.63752" lon="2.32005">
        <ele>203.4</ele>
        <time>2025-09-16T16:17:46Z</time>
      </trkpt>
      <trkpt lat="43.63747" lon="2.32005">
        <ele>203.2</ele>
        <time>2025-09-16T16:17:47Z</time>
      </trkpt>
      <trkpt lat="43.6374" lon="2.32004">
        <ele>203.2</ele>
        <time>2025-09-16T16:17:48Z</time>
      </trkpt>
      <trkpt lat="43.63735" lon="2.32003">
        <ele>203.2</ele>
        <time>2025-09-16T16:17:49Z</time>
      </trkpt>
      <trkpt lat="43.63729" lon="2.32003">
        <ele>203</ele>
        <time>2025-09-16T16:17:50Z</time>
      </trkpt>
      <trkpt lat="43.63724" lon="2.32002">
        <ele>203</ele>
        <time>2025-09-16T16:17:51Z</time>
      </trkpt>
      <trkpt lat="43.63719" lon="2.32002">
        <ele>202.8</ele>
        <time>2025-09-16T16:17:52Z</time>
      </trkpt>
      <trkpt lat="43.63713" lon="2.32001">
        <ele>202.8</ele>
        <time>2025-09-16T16:17:53Z</time>
      </trkpt>
      <trkpt lat="43.63708" lon="2.32001">
        <ele>202.8</ele>
        <time>2025-09-16T16:17:54Z</time>
      </trkpt>
      <trkpt lat="43.63702" lon="2.32">
        <ele>202.8</ele>
        <time>2025-09-16T16:17:55Z</time>
      </trkpt>
      <trkpt lat="43.63697" lon="2.31999">
        <ele>202.8</ele>
        <time>2025-09-16T16:17:56Z</time>
      </trkpt>
      <trkpt lat="43.63691" lon="2.31998">
        <ele>202.8</ele>
        <time>2025-09-16T16:17:57Z</time>
      </trkpt>
      <trkpt lat="43.63686" lon="2.31998">
        <ele>202.8</ele>
        <time>2025-09-16T16:17:58Z</time>
      </trkpt>
      <trkpt lat="43.63681" lon="2.31996">
        <ele>202.8</ele>
        <time>2025-09-16T16:17:59Z</time>
      </trkpt>
      <trkpt lat="43.63676" lon="2.31995">
        <ele>202.8</ele>
        <time>2025-09-16T16:18:00Z</time>
      </trkpt>
      <trkpt lat="43.6367" lon="2.31994">
        <ele>202.8</ele>
        <time>2025-09-16T16:18:01Z</time>
      </trkpt>
      <trkpt lat="43.63665" lon="2.31993">
        <ele>203</ele>
        <time>2025-09-16T16:18:02Z</time>
      </trkpt>
      <trkpt lat="43.6366" lon="2.31992">
        <ele>203</ele>
        <time>2025-09-16T16:18:03Z</time>
      </trkpt>
      <trkpt lat="43.63655" lon="2.3199">
        <ele>203</ele>
        <time>2025-09-16T16:18:04Z</time>
      </trkpt>
      <trkpt lat="43.6365" lon="2.31987">
        <ele>203</ele>
        <time>2025-09-16T16:18:05Z</time>
      </trkpt>
      <trkpt lat="43.63645" lon="2.31984">
        <ele>203</ele>
        <time>2025-09-16T16:18:06Z</time>
      </trkpt>
      <trkpt lat="43.6364" lon="2.31981">
        <ele>203</ele>
        <time>2025-09-16T16:18:07Z</time>
      </trkpt>
      <trkpt lat="43.63635" lon="2.31978">
        <ele>203</ele>
        <time>2025-09-16T16:18:08Z</time>
      </trkpt>
      <trkpt lat="43.6363" lon="2.31975">
        <ele>203</ele>
        <time>2025-09-16T16:18:09Z</time>
      </trkpt>
      <trkpt lat="43.63625" lon="2.31972">
        <ele>203</ele>
        <time>2025-09-16T16:18:10Z</time>
      </trkpt>
      <trkpt lat="43.6362" lon="2.31968">
        <ele>203</ele>
        <time>2025-09-16T16:18:11Z</time>
      </trkpt>
      <trkpt lat="43.63616" lon="2.31965">
        <ele>203</ele>
        <time>2025-09-16T16:18:12Z</time>
      </trkpt>
      <trkpt lat="43.63611" lon="2.31963">
        <ele>203</ele>
        <time>2025-09-16T16:18:13Z</time>
      </trkpt>
      <trkpt lat="43.63606" lon="2.3196">
        <ele>203.2</ele>
        <time>2025-09-16T16:18:14Z</time>
      </trkpt>
      <trkpt lat="43.63601" lon="2.31957">
        <ele>203.2</ele>
        <time>2025-09-16T16:18:15Z</time>
      </trkpt>
      <trkpt lat="43.63597" lon="2.31954">
        <ele>203.2</ele>
        <time>2025-09-16T16:18:16Z</time>
      </trkpt>
      <trkpt lat="43.63592" lon="2.31951">
        <ele>203.2</ele>
        <time>2025-09-16T16:18:17Z</time>
      </trkpt>
      <trkpt lat="43.63588" lon="2.31948">
        <ele>203.4</ele>
        <time>2025-09-16T16:18:18Z</time>
      </trkpt>
      <trkpt lat="43.63584" lon="2.31946">
        <ele>203.4</ele>
        <time>2025-09-16T16:18:19Z</time>
      </trkpt>
      <trkpt lat="43.6358" lon="2.31943">
        <ele>203.4</ele>
        <time>2025-09-16T16:18:20Z</time>
      </trkpt>
      <trkpt lat="43.63575" lon="2.31939">
        <ele>203.6</ele>
        <time>2025-09-16T16:18:21Z</time>
      </trkpt>
      <trkpt lat="43.63571" lon="2.31937">
        <ele>203.6</ele>
        <time>2025-09-16T16:18:22Z</time>
      </trkpt>
      <trkpt lat="43.63566" lon="2.31934">
        <ele>203.6</ele>
        <time>2025-09-16T16:18:23Z</time>
      </trkpt>
      <trkpt lat="43.63562" lon="2.31932">
        <ele>203.8</ele>
        <time>2025-09-16T16:18:24Z</time>
      </trkpt>
      <trkpt lat="43.63558" lon="2.31929">
        <ele>203.8</ele>
        <time>2025-09-16T16:18:25Z</time>
      </trkpt>
      <trkpt lat="43.63554" lon="2.31927">
        <ele>204</ele>
        <time>2025-09-16T16:18:26Z</time>
      </trkpt>
      <trkpt lat="43.6355" lon="2.31926">
        <ele>204</ele>
        <time>2025-09-16T16:18:27Z</time>
      </trkpt>
      <trkpt lat="43.63546" lon="2.31925">
        <ele>204.2</ele>
        <time>2025-09-16T16:18:28Z</time>
      </trkpt>
      <trkpt lat="43.63542" lon="2.31924">
        <ele>204.2</ele>
        <time>2025-09-16T16:18:29Z</time>
      </trkpt>
      <trkpt lat="43.63538" lon="2.31922">
        <ele>204.2</ele>
        <time>2025-09-16T16:18:30Z</time>
      </trkpt>
      <trkpt lat="43.63534" lon="2.3192">
        <ele>204.4</ele>
        <time>2025-09-16T16:18:31Z</time>
      </trkpt>
      <trkpt lat="43.6353" lon="2.31917">
        <ele>204.4</ele>
        <time>2025-09-16T16:18:32Z</time>
      </trkpt>
      <trkpt lat="43.63527" lon="2.31915">
        <ele>204.4</ele>
        <time>2025-09-16T16:18:33Z</time>
      </trkpt>
      <trkpt lat="43.63523" lon="2.31912">
        <ele>204.4</ele>
        <time>2025-09-16T16:18:34Z</time>
      </trkpt>
      <trkpt lat="43.63519" lon="2.31909">
        <ele>204.2</ele>
        <time>2025-09-16T16:18:35Z</time>
      </trkpt>
      <trkpt lat="43.63515" lon="2.31906">
        <ele>203.8</ele>
        <time>2025-09-16T16:18:36Z</time>
      </trkpt>
      <trkpt lat="43.63511" lon="2.31902">
        <ele>203.6</ele>
        <time>2025-09-16T16:18:37Z</time>
      </trkpt>
      <trkpt lat="43.63507" lon="2.31898">
        <ele>203.2</ele>
        <time>2025-09-16T16:18:38Z</time>
      </trkpt>
      <trkpt lat="43.63502" lon="2.31893">
        <ele>202.8</ele>
        <time>2025-09-16T16:18:39Z</time>
      </trkpt>
      <trkpt lat="43.63498" lon="2.31887">
        <ele>202.4</ele>
        <time>2025-09-16T16:18:40Z</time>
      </trkpt>
      <trkpt lat="43.63493" lon="2.31881">
        <ele>201.8</ele>
        <time>2025-09-16T16:18:41Z</time>
      </trkpt>
      <trkpt lat="43.63488" lon="2.31875">
        <ele>201</ele>
        <time>2025-09-16T16:18:42Z</time>
      </trkpt>
      <trkpt lat="43.63483" lon="2.31868">
        <ele>200.4</ele>
        <time>2025-09-16T16:18:43Z</time>
      </trkpt>
      <trkpt lat="43.63477" lon="2.31862">
        <ele>199.8</ele>
        <time>2025-09-16T16:18:44Z</time>
      </trkpt>
      <trkpt lat="43.63471" lon="2.31856">
        <ele>199.2</ele>
        <time>2025-09-16T16:18:45Z</time>
      </trkpt>
      <trkpt lat="43.63465" lon="2.31851">
        <ele>198.8</ele>
        <time>2025-09-16T16:18:46Z</time>
      </trkpt>
      <trkpt lat="43.63458" lon="2.31847">
        <ele>198.6</ele>
        <time>2025-09-16T16:18:47Z</time>
      </trkpt>
      <trkpt lat="43.63452" lon="2.31842">
        <ele>198.4</ele>
        <time>2025-09-16T16:18:48Z</time>
      </trkpt>
      <trkpt lat="43.63446" lon="2.31837">
        <ele>198.2</ele>
        <time>2025-09-16T16:18:49Z</time>
      </trkpt>
      <trkpt lat="43.6344" lon="2.31833">
        <ele>198.4</ele>
        <time>2025-09-16T16:18:50Z</time>
      </trkpt>
      <trkpt lat="43.63435" lon="2.31828">
        <ele>198.4</ele>
        <time>2025-09-16T16:18:51Z</time>
      </trkpt>
      <trkpt lat="43.63429" lon="2.31824">
        <ele>198.6</ele>
        <time>2025-09-16T16:18:52Z</time>
      </trkpt>
      <trkpt lat="43.63424" lon="2.3182">
        <ele>198.8</ele>
        <time>2025-09-16T16:18:53Z</time>
      </trkpt>
      <trkpt lat="43.63419" lon="2.31815">
        <ele>199</ele>
        <time>2025-09-16T16:18:54Z</time>
      </trkpt>
      <trkpt lat="43.63414" lon="2.31811">
        <ele>199.2</ele>
        <time>2025-09-16T16:18:55Z</time>
      </trkpt>
      <trkpt lat="43.63409" lon="2.31808">
        <ele>199.4</ele>
        <time>2025-09-16T16:18:56Z</time>
      </trkpt>
      <trkpt lat="43.63404" lon="2.31805">
        <ele>199.8</ele>
        <time>2025-09-16T16:18:57Z</time>
      </trkpt>
      <trkpt lat="43.634" lon="2.31802">
        <ele>200</ele>
        <time>2025-09-16T16:18:58Z</time>
      </trkpt>
      <trkpt lat="43.63395" lon="2.318">
        <ele>200.6</ele>
        <time>2025-09-16T16:18:59Z</time>
      </trkpt>
      <trkpt lat="43.63391" lon="2.31797">
        <ele>201</ele>
        <time>2025-09-16T16:19:00Z</time>
      </trkpt>
      <trkpt lat="43.63387" lon="2.31794">
        <ele>201.2</ele>
        <time>2025-09-16T16:19:01Z</time>
      </trkpt>
      <trkpt lat="43.63384" lon="2.31792">
        <ele>201.6</ele>
        <time>2025-09-16T16:19:02Z</time>
      </trkpt>
      <trkpt lat="43.63381" lon="2.31789">
        <ele>202</ele>
        <time>2025-09-16T16:19:03Z</time>
      </trkpt>
      <trkpt lat="43.63376" lon="2.31786">
        <ele>202.2</ele>
        <time>2025-09-16T16:19:04Z</time>
      </trkpt>
      <trkpt lat="43.63373" lon="2.31784">
        <ele>202.6</ele>
        <time>2025-09-16T16:19:05Z</time>
      </trkpt>
      <trkpt lat="43.6337" lon="2.31781">
        <ele>202.8</ele>
        <time>2025-09-16T16:19:06Z</time>
      </trkpt>
      <trkpt lat="43.63368" lon="2.31779">
        <ele>203.2</ele>
        <time>2025-09-16T16:19:07Z</time>
      </trkpt>
      <trkpt lat="43.63366" lon="2.31777">
        <ele>203.6</ele>
        <time>2025-09-16T16:19:08Z</time>
      </trkpt>
      <trkpt lat="43.63364" lon="2.31774">
        <ele>204</ele>
        <time>2025-09-16T16:19:09Z</time>
      </trkpt>
      <trkpt lat="43.63362" lon="2.31771">
        <ele>204.2</ele>
        <time>2025-09-16T16:19:10Z</time>
      </trkpt>
      <trkpt lat="43.6336" lon="2.31767">
        <ele>204.2</ele>
        <time>2025-09-16T16:19:11Z</time>
      </trkpt>
      <trkpt lat="43.63358" lon="2.31762">
        <ele>204</ele>
        <time>2025-09-16T16:19:12Z</time>
      </trkpt>
      <trkpt lat="43.63356" lon="2.31756">
        <ele>204</ele>
        <time>2025-09-16T16:19:13Z</time>
      </trkpt>
      <trkpt lat="43.63353" lon="2.31751">
        <ele>203.6</ele>
        <time>2025-09-16T16:19:14Z</time>
      </trkpt>
      <trkpt lat="43.63351" lon="2.31745">
        <ele>203.4</ele>
        <time>2025-09-16T16:19:15Z</time>
      </trkpt>
      <trkpt lat="43.63348" lon="2.31739">
        <ele>203.2</ele>
        <time>2025-09-16T16:19:16Z</time>
      </trkpt>
      <trkpt lat="43.63346" lon="2.31733">
        <ele>203</ele>
        <time>2025-09-16T16:19:17Z</time>
      </trkpt>
      <trkpt lat="43.63343" lon="2.31727">
        <ele>202.8</ele>
        <time>2025-09-16T16:19:18Z</time>
      </trkpt>
      <trkpt lat="43.63341" lon="2.3172">
        <ele>202.8</ele>
        <time>2025-09-16T16:19:19Z</time>
      </trkpt>
      <trkpt lat="43.63339" lon="2.31714">
        <ele>202.6</ele>
        <time>2025-09-16T16:19:20Z</time>
      </trkpt>
      <trkpt lat="43.63336" lon="2.31707">
        <ele>202.4</ele>
        <time>2025-09-16T16:19:21Z</time>
      </trkpt>
      <trkpt lat="43.63334" lon="2.317">
        <ele>202.2</ele>
        <time>2025-09-16T16:19:22Z</time>
      </trkpt>
      <trkpt lat="43.63332" lon="2.31693">
        <ele>202</ele>
        <time>2025-09-16T16:19:23Z</time>
      </trkpt>
      <trkpt lat="43.63331" lon="2.31686">
        <ele>202</ele>
        <time>2025-09-16T16:19:24Z</time>
      </trkpt>
      <trkpt lat="43.63329" lon="2.3168">
        <ele>202</ele>
        <time>2025-09-16T16:19:25Z</time>
      </trkpt>
      <trkpt lat="43.63327" lon="2.31673">
        <ele>202</ele>
        <time>2025-09-16T16:19:26Z</time>
      </trkpt>
      <trkpt lat="43.63325" lon="2.31667">
        <ele>202</ele>
        <time>2025-09-16T16:19:27Z</time>
      </trkpt>
      <trkpt lat="43.63323" lon="2.3166">
        <ele>202</ele>
        <time>2025-09-16T16:19:28Z</time>
      </trkpt>
      <trkpt lat="43.63321" lon="2.31654">
        <ele>202</ele>
        <time>2025-09-16T16:19:29Z</time>
      </trkpt>
      <trkpt lat="43.63318" lon="2.31648">
        <ele>202</ele>
        <time>2025-09-16T16:19:30Z</time>
      </trkpt>
      <trkpt lat="43.63317" lon="2.31642">
        <ele>201.8</ele>
        <time>2025-09-16T16:19:31Z</time>
      </trkpt>
      <trkpt lat="43.63315" lon="2.31636">
        <ele>201.8</ele>
        <time>2025-09-16T16:19:32Z</time>
      </trkpt>
      <trkpt lat="43.63313" lon="2.31629">
        <ele>201.8</ele>
        <time>2025-09-16T16:19:33Z</time>
      </trkpt>
      <trkpt lat="43.63311" lon="2.31624">
        <ele>201.8</ele>
        <time>2025-09-16T16:19:34Z</time>
      </trkpt>
      <trkpt lat="43.63308" lon="2.31618">
        <ele>202</ele>
        <time>2025-09-16T16:19:35Z</time>
      </trkpt>
      <trkpt lat="43.63307" lon="2.31613">
        <ele>202</ele>
        <time>2025-09-16T16:19:36Z</time>
      </trkpt>
      <trkpt lat="43.63305" lon="2.31605">
        <ele>202.2</ele>
        <time>2025-09-16T16:19:37Z</time>
      </trkpt>
      <trkpt lat="43.63304" lon="2.31599">
        <ele>202.2</ele>
        <time>2025-09-16T16:19:38Z</time>
      </trkpt>
      <trkpt lat="43.63304" lon="2.31593">
        <ele>202</ele>
        <time>2025-09-16T16:19:39Z</time>
      </trkpt>
      <trkpt lat="43.63304" lon="2.31586">
        <ele>202</ele>
        <time>2025-09-16T16:19:40Z</time>
      </trkpt>
      <trkpt lat="43.63303" lon="2.3158">
        <ele>201.8</ele>
        <time>2025-09-16T16:19:41Z</time>
      </trkpt>
      <trkpt lat="43.63301" lon="2.31573">
        <ele>201.6</ele>
        <time>2025-09-16T16:19:42Z</time>
      </trkpt>
      <trkpt lat="43.63299" lon="2.31565">
        <ele>201.4</ele>
        <time>2025-09-16T16:19:43Z</time>
      </trkpt>
      <trkpt lat="43.63297" lon="2.31557">
        <ele>201.4</ele>
        <time>2025-09-16T16:19:44Z</time>
      </trkpt>
      <trkpt lat="43.63295" lon="2.3155">
        <ele>201.2</ele>
        <time>2025-09-16T16:19:45Z</time>
      </trkpt>
      <trkpt lat="43.63293" lon="2.31542">
        <ele>201</ele>
        <time>2025-09-16T16:19:46Z</time>
      </trkpt>
      <trkpt lat="43.6329" lon="2.31532">
        <ele>200.8</ele>
        <time>2025-09-16T16:19:47Z</time>
      </trkpt>
      <trkpt lat="43.63288" lon="2.31524">
        <ele>200.8</ele>
        <time>2025-09-16T16:19:48Z</time>
      </trkpt>
      <trkpt lat="43.63287" lon="2.31516">
        <ele>200.8</ele>
        <time>2025-09-16T16:19:49Z</time>
      </trkpt>
      <trkpt lat="43.63285" lon="2.31508">
        <ele>200.8</ele>
        <time>2025-09-16T16:19:50Z</time>
      </trkpt>
      <trkpt lat="43.63283" lon="2.31501">
        <ele>200.8</ele>
        <time>2025-09-16T16:19:51Z</time>
      </trkpt>
      <trkpt lat="43.63281" lon="2.31494">
        <ele>200.8</ele>
        <time>2025-09-16T16:19:52Z</time>
      </trkpt>
      <trkpt lat="43.6328" lon="2.31486">
        <ele>200.8</ele>
        <time>2025-09-16T16:19:53Z</time>
      </trkpt>
      <trkpt lat="43.63279" lon="2.31479">
        <ele>201</ele>
        <time>2025-09-16T16:19:54Z</time>
      </trkpt>
      <trkpt lat="43.63278" lon="2.31471">
        <ele>201</ele>
        <time>2025-09-16T16:19:55Z</time>
      </trkpt>
      <trkpt lat="43.63276" lon="2.31464">
        <ele>201</ele>
        <time>2025-09-16T16:19:56Z</time>
      </trkpt>
      <trkpt lat="43.63273" lon="2.31456">
        <ele>201</ele>
        <time>2025-09-16T16:19:57Z</time>
      </trkpt>
      <trkpt lat="43.63272" lon="2.31449">
        <ele>201.2</ele>
        <time>2025-09-16T16:19:58Z</time>
      </trkpt>
      <trkpt lat="43.63269" lon="2.31442">
        <ele>201.2</ele>
        <time>2025-09-16T16:19:59Z</time>
      </trkpt>
      <trkpt lat="43.63268" lon="2.31435">
        <ele>201.2</ele>
        <time>2025-09-16T16:20:00Z</time>
      </trkpt>
      <trkpt lat="43.63267" lon="2.31428">
        <ele>201.2</ele>
        <time>2025-09-16T16:20:01Z</time>
      </trkpt>
      <trkpt lat="43.63266" lon="2.3142">
        <ele>201.2</ele>
        <time>2025-09-16T16:20:02Z</time>
      </trkpt>
      <trkpt lat="43.63264" lon="2.31413">
        <ele>201.2</ele>
        <time>2025-09-16T16:20:03Z</time>
      </trkpt>
      <trkpt lat="43.63263" lon="2.31407">
        <ele>201.2</ele>
        <time>2025-09-16T16:20:04Z</time>
      </trkpt>
      <trkpt lat="43.63263" lon="2.314">
        <ele>201.2</ele>
        <time>2025-09-16T16:20:05Z</time>
      </trkpt>
      <trkpt lat="43.63263" lon="2.31393">
        <ele>201.2</ele>
        <time>2025-09-16T16:20:06Z</time>
      </trkpt>
      <trkpt lat="43.63263" lon="2.31385">
        <ele>201.2</ele>
        <time>2025-09-16T16:20:07Z</time>
      </trkpt>
      <trkpt lat="43.6326" lon="2.31377">
        <ele>201.2</ele>
        <time>2025-09-16T16:20:08Z</time>
      </trkpt>
      <trkpt lat="43.63261" lon="2.3137">
        <ele>201</ele>
        <time>2025-09-16T16:20:09Z</time>
      </trkpt>
      <trkpt lat="43.63261" lon="2.31365">
        <ele>201</ele>
        <time>2025-09-16T16:20:10Z</time>
      </trkpt>
      <trkpt lat="43.63261" lon="2.31359">
        <ele>201</ele>
        <time>2025-09-16T16:20:11Z</time>
      </trkpt>
      <trkpt lat="43.63255" lon="2.31351">
        <ele>200.8</ele>
        <time>2025-09-16T16:20:12Z</time>
      </trkpt>
      <trkpt lat="43.63252" lon="2.31344">
        <ele>200.8</ele>
        <time>2025-09-16T16:20:13Z</time>
      </trkpt>
      <trkpt lat="43.6325" lon="2.31336">
        <ele>200.8</ele>
        <time>2025-09-16T16:20:14Z</time>
      </trkpt>
      <trkpt lat="43.63249" lon="2.3133">
        <ele>200.8</ele>
        <time>2025-09-16T16:20:15Z</time>
      </trkpt>
      <trkpt lat="43.63247" lon="2.31322">
        <ele>201</ele>
        <time>2025-09-16T16:20:16Z</time>
      </trkpt>
      <trkpt lat="43.6324" lon="2.31314">
        <ele>200.8</ele>
        <time>2025-09-16T16:20:17Z</time>
      </trkpt>
      <trkpt lat="43.63236" lon="2.31306">
        <ele>201</ele>
        <time>2025-09-16T16:20:18Z</time>
      </trkpt>
      <trkpt lat="43.63233" lon="2.31298">
        <ele>201</ele>
        <time>2025-09-16T16:20:19Z</time>
      </trkpt>
      <trkpt lat="43.63229" lon="2.31291">
        <ele>201</ele>
        <time>2025-09-16T16:20:20Z</time>
      </trkpt>
      <trkpt lat="43.63227" lon="2.31284">
        <ele>201</ele>
        <time>2025-09-16T16:20:21Z</time>
      </trkpt>
      <trkpt lat="43.63224" lon="2.31277">
        <ele>201</ele>
        <time>2025-09-16T16:20:22Z</time>
      </trkpt>
      <trkpt lat="43.63222" lon="2.31271">
        <ele>201.2</ele>
        <time>2025-09-16T16:20:23Z</time>
      </trkpt>
      <trkpt lat="43.63222" lon="2.31266">
        <ele>201.2</ele>
        <time>2025-09-16T16:20:24Z</time>
      </trkpt>
      <trkpt lat="43.63221" lon="2.3126">
        <ele>201.2</ele>
        <time>2025-09-16T16:20:25Z</time>
      </trkpt>
      <trkpt lat="43.6322" lon="2.31254">
        <ele>201.4</ele>
        <time>2025-09-16T16:20:26Z</time>
      </trkpt>
      <trkpt lat="43.6322" lon="2.31248">
        <ele>201.4</ele>
        <time>2025-09-16T16:20:27Z</time>
      </trkpt>
      <trkpt lat="43.63218" lon="2.31243">
        <ele>201.4</ele>
        <time>2025-09-16T16:20:28Z</time>
      </trkpt>
      <trkpt lat="43.63217" lon="2.31238">
        <ele>201.2</ele>
        <time>2025-09-16T16:20:29Z</time>
      </trkpt>
      <trkpt lat="43.63216" lon="2.31231">
        <ele>201.2</ele>
        <time>2025-09-16T16:20:30Z</time>
      </trkpt>
      <trkpt lat="43.63215" lon="2.31225">
        <ele>201.2</ele>
        <time>2025-09-16T16:20:31Z</time>
      </trkpt>
      <trkpt lat="43.63215" lon="2.31219">
        <ele>201.2</ele>
        <time>2025-09-16T16:20:32Z</time>
      </trkpt>
      <trkpt lat="43.63215" lon="2.31214">
        <ele>201.2</ele>
        <time>2025-09-16T16:20:33Z</time>
      </trkpt>
      <trkpt lat="43.63213" lon="2.31207">
        <ele>201.2</ele>
        <time>2025-09-16T16:20:34Z</time>
      </trkpt>
      <trkpt lat="43.63212" lon="2.31201">
        <ele>201.2</ele>
        <time>2025-09-16T16:20:35Z</time>
      </trkpt>
      <trkpt lat="43.63211" lon="2.31195">
        <ele>201.2</ele>
        <time>2025-09-16T16:20:36Z</time>
      </trkpt>
      <trkpt lat="43.63211" lon="2.3119">
        <ele>201.2</ele>
        <time>2025-09-16T16:20:37Z</time>
      </trkpt>
      <trkpt lat="43.63212" lon="2.31185">
        <ele>201.2</ele>
        <time>2025-09-16T16:20:38Z</time>
      </trkpt>
      <trkpt lat="43.63213" lon="2.3118">
        <ele>201.2</ele>
        <time>2025-09-16T16:20:39Z</time>
      </trkpt>
      <trkpt lat="43.63213" lon="2.31174">
        <ele>201.2</ele>
        <time>2025-09-16T16:20:40Z</time>
      </trkpt>
      <trkpt lat="43.63215" lon="2.31168">
        <ele>201.2</ele>
        <time>2025-09-16T16:20:41Z</time>
      </trkpt>
      <trkpt lat="43.63217" lon="2.31162">
        <ele>201.2</ele>
        <time>2025-09-16T16:20:42Z</time>
      </trkpt>
      <trkpt lat="43.63217" lon="2.31155">
        <ele>201.4</ele>
        <time>2025-09-16T16:20:43Z</time>
      </trkpt>
      <trkpt lat="43.63219" lon="2.3115">
        <ele>201.4</ele>
        <time>2025-09-16T16:20:44Z</time>
      </trkpt>
      <trkpt lat="43.63221" lon="2.31144">
        <ele>201.6</ele>
        <time>2025-09-16T16:20:45Z</time>
      </trkpt>
      <trkpt lat="43.63224" lon="2.31139">
        <ele>201.6</ele>
        <time>2025-09-16T16:20:46Z</time>
      </trkpt>
      <trkpt lat="43.63226" lon="2.31133">
        <ele>201.8</ele>
        <time>2025-09-16T16:20:47Z</time>
      </trkpt>
      <trkpt lat="43.63228" lon="2.31127">
        <ele>201.8</ele>
        <time>2025-09-16T16:20:48Z</time>
      </trkpt>
      <trkpt lat="43.63229" lon="2.3112">
        <ele>201.8</ele>
        <time>2025-09-16T16:20:49Z</time>
      </trkpt>
      <trkpt lat="43.6323" lon="2.31113">
        <ele>201.6</ele>
        <time>2025-09-16T16:20:50Z</time>
      </trkpt>
      <trkpt lat="43.63231" lon="2.31106">
        <ele>201.6</ele>
        <time>2025-09-16T16:20:51Z</time>
      </trkpt>
      <trkpt lat="43.63229" lon="2.31098">
        <ele>201.6</ele>
        <time>2025-09-16T16:20:52Z</time>
      </trkpt>
      <trkpt lat="43.63229" lon="2.31091">
        <ele>201.6</ele>
        <time>2025-09-16T16:20:53Z</time>
      </trkpt>
      <trkpt lat="43.63228" lon="2.31084">
        <ele>201.6</ele>
        <time>2025-09-16T16:20:54Z</time>
      </trkpt>
      <trkpt lat="43.63228" lon="2.31078">
        <ele>201.6</ele>
        <time>2025-09-16T16:20:55Z</time>
      </trkpt>
      <trkpt lat="43.63228" lon="2.31072">
        <ele>201.4</ele>
        <time>2025-09-16T16:20:56Z</time>
      </trkpt>
      <trkpt lat="43.63227" lon="2.31066">
        <ele>201.4</ele>
        <time>2025-09-16T16:20:57Z</time>
      </trkpt>
      <trkpt lat="43.63226" lon="2.3106">
        <ele>201.4</ele>
        <time>2025-09-16T16:20:58Z</time>
      </trkpt>
      <trkpt lat="43.63223" lon="2.31053">
        <ele>201.4</ele>
        <time>2025-09-16T16:20:59Z</time>
      </trkpt>
      <trkpt lat="43.63221" lon="2.31047">
        <ele>201.2</ele>
        <time>2025-09-16T16:21:00Z</time>
      </trkpt>
      <trkpt lat="43.63218" lon="2.31041">
        <ele>201.2</ele>
        <time>2025-09-16T16:21:01Z</time>
      </trkpt>
      <trkpt lat="43.63216" lon="2.31035">
        <ele>201.4</ele>
        <time>2025-09-16T16:21:02Z</time>
      </trkpt>
      <trkpt lat="43.63214" lon="2.31028">
        <ele>201.4</ele>
        <time>2025-09-16T16:21:03Z</time>
      </trkpt>
      <trkpt lat="43.63212" lon="2.31022">
        <ele>201.4</ele>
        <time>2025-09-16T16:21:04Z</time>
      </trkpt>
      <trkpt lat="43.6321" lon="2.31016">
        <ele>201.6</ele>
        <time>2025-09-16T16:21:05Z</time>
      </trkpt>
      <trkpt lat="43.63208" lon="2.3101">
        <ele>201.6</ele>
        <time>2025-09-16T16:21:06Z</time>
      </trkpt>
      <trkpt lat="43.63205" lon="2.31002">
        <ele>201.6</ele>
        <time>2025-09-16T16:21:07Z</time>
      </trkpt>
      <trkpt lat="43.632" lon="2.30995">
        <ele>201.6</ele>
        <time>2025-09-16T16:21:08Z</time>
      </trkpt>
      <trkpt lat="43.63197" lon="2.30988">
        <ele>201.6</ele>
        <time>2025-09-16T16:21:09Z</time>
      </trkpt>
      <trkpt lat="43.63194" lon="2.30981">
        <ele>201.4</ele>
        <time>2025-09-16T16:21:10Z</time>
      </trkpt>
      <trkpt lat="43.63192" lon="2.30975">
        <ele>201.4</ele>
        <time>2025-09-16T16:21:11Z</time>
      </trkpt>
      <trkpt lat="43.6319" lon="2.30967">
        <ele>201.2</ele>
        <time>2025-09-16T16:21:12Z</time>
      </trkpt>
      <trkpt lat="43.6319" lon="2.3096">
        <ele>201.2</ele>
        <time>2025-09-16T16:21:13Z</time>
      </trkpt>
      <trkpt lat="43.63189" lon="2.30953">
        <ele>201</ele>
        <time>2025-09-16T16:21:14Z</time>
      </trkpt>
      <trkpt lat="43.63188" lon="2.30946">
        <ele>201</ele>
        <time>2025-09-16T16:21:15Z</time>
      </trkpt>
      <trkpt lat="43.63189" lon="2.3094">
        <ele>200.8</ele>
        <time>2025-09-16T16:21:16Z</time>
      </trkpt>
      <trkpt lat="43.63192" lon="2.30935">
        <ele>200.8</ele>
        <time>2025-09-16T16:21:17Z</time>
      </trkpt>
      <trkpt lat="43.63192" lon="2.30928">
        <ele>200.8</ele>
        <time>2025-09-16T16:21:18Z</time>
      </trkpt>
      <trkpt lat="43.63192" lon="2.30921">
        <ele>200.6</ele>
        <time>2025-09-16T16:21:19Z</time>
      </trkpt>
      <trkpt lat="43.63191" lon="2.30913">
        <ele>200.6</ele>
        <time>2025-09-16T16:21:20Z</time>
      </trkpt>
      <trkpt lat="43.63191" lon="2.30906">
        <ele>200.8</ele>
        <time>2025-09-16T16:21:21Z</time>
      </trkpt>
      <trkpt lat="43.63189" lon="2.30898">
        <ele>200.8</ele>
        <time>2025-09-16T16:21:22Z</time>
      </trkpt>
      <trkpt lat="43.63189" lon="2.30891">
        <ele>200.8</ele>
        <time>2025-09-16T16:21:23Z</time>
      </trkpt>
      <trkpt lat="43.63189" lon="2.30885">
        <ele>200.8</ele>
        <time>2025-09-16T16:21:24Z</time>
      </trkpt>
      <trkpt lat="43.63189" lon="2.30878">
        <ele>200.8</ele>
        <time>2025-09-16T16:21:25Z</time>
      </trkpt>
      <trkpt lat="43.6319" lon="2.30871">
        <ele>200.8</ele>
        <time>2025-09-16T16:21:26Z</time>
      </trkpt>
      <trkpt lat="43.63192" lon="2.30864">
        <ele>201</ele>
        <time>2025-09-16T16:21:27Z</time>
      </trkpt>
      <trkpt lat="43.63191" lon="2.30857">
        <ele>201</ele>
        <time>2025-09-16T16:21:28Z</time>
      </trkpt>
      <trkpt lat="43.63191" lon="2.30849">
        <ele>201.2</ele>
        <time>2025-09-16T16:21:29Z</time>
      </trkpt>
      <trkpt lat="43.63192" lon="2.30843">
        <ele>201.2</ele>
        <time>2025-09-16T16:21:30Z</time>
      </trkpt>
      <trkpt lat="43.63193" lon="2.30836">
        <ele>201.2</ele>
        <time>2025-09-16T16:21:31Z</time>
      </trkpt>
      <trkpt lat="43.63194" lon="2.30829">
        <ele>201.2</ele>
        <time>2025-09-16T16:21:32Z</time>
      </trkpt>
      <trkpt lat="43.63194" lon="2.30822">
        <ele>201.2</ele>
        <time>2025-09-16T16:21:33Z</time>
      </trkpt>
      <trkpt lat="43.63194" lon="2.30815">
        <ele>201.2</ele>
        <time>2025-09-16T16:21:34Z</time>
      </trkpt>
      <trkpt lat="43.63194" lon="2.30808">
        <ele>201.2</ele>
        <time>2025-09-16T16:21:35Z</time>
      </trkpt>
      <trkpt lat="43.63194" lon="2.30801">
        <ele>201.2</ele>
        <time>2025-09-16T16:21:36Z</time>
      </trkpt>
      <trkpt lat="43.63193" lon="2.30793">
        <ele>201.2</ele>
        <time>2025-09-16T16:21:37Z</time>
      </trkpt>
      <trkpt lat="43.63192" lon="2.30786">
        <ele>201.2</ele>
        <time>2025-09-16T16:21:38Z</time>
      </trkpt>
      <trkpt lat="43.6319" lon="2.30778">
        <ele>201.4</ele>
        <time>2025-09-16T16:21:39Z</time>
      </trkpt>
      <trkpt lat="43.63192" lon="2.30771">
        <ele>201.4</ele>
        <time>2025-09-16T16:21:40Z</time>
      </trkpt>
      <trkpt lat="43.63193" lon="2.30765">
        <ele>201.4</ele>
        <time>2025-09-16T16:21:41Z</time>
      </trkpt>
      <trkpt lat="43.63194" lon="2.30758">
        <ele>201.4</ele>
        <time>2025-09-16T16:21:42Z</time>
      </trkpt>
      <trkpt lat="43.63194" lon="2.30751">
        <ele>201.6</ele>
        <time>2025-09-16T16:21:43Z</time>
      </trkpt>
      <trkpt lat="43.63196" lon="2.30744">
        <ele>201.6</ele>
        <time>2025-09-16T16:21:44Z</time>
      </trkpt>
      <trkpt lat="43.63196" lon="2.30737">
        <ele>201.6</ele>
        <time>2025-09-16T16:21:45Z</time>
      </trkpt>
      <trkpt lat="43.63197" lon="2.3073">
        <ele>201.6</ele>
        <time>2025-09-16T16:21:46Z</time>
      </trkpt>
      <trkpt lat="43.63199" lon="2.30724">
        <ele>201.6</ele>
        <time>2025-09-16T16:21:47Z</time>
      </trkpt>
      <trkpt lat="43.63199" lon="2.30717">
        <ele>201.4</ele>
        <time>2025-09-16T16:21:48Z</time>
      </trkpt>
      <trkpt lat="43.632" lon="2.3071">
        <ele>201.4</ele>
        <time>2025-09-16T16:21:49Z</time>
      </trkpt>
      <trkpt lat="43.63199" lon="2.30702">
        <ele>201.4</ele>
        <time>2025-09-16T16:21:50Z</time>
      </trkpt>
      <trkpt lat="43.63201" lon="2.30695">
        <ele>201.6</ele>
        <time>2025-09-16T16:21:51Z</time>
      </trkpt>
      <trkpt lat="43.63204" lon="2.30689">
        <ele>201.6</ele>
        <time>2025-09-16T16:21:52Z</time>
      </trkpt>
      <trkpt lat="43.63208" lon="2.30683">
        <ele>201.8</ele>
        <time>2025-09-16T16:21:53Z</time>
      </trkpt>
      <trkpt lat="43.63212" lon="2.30678">
        <ele>201.8</ele>
        <time>2025-09-16T16:21:54Z</time>
      </trkpt>
      <trkpt lat="43.63215" lon="2.30673">
        <ele>201.8</ele>
        <time>2025-09-16T16:21:55Z</time>
      </trkpt>
      <trkpt lat="43.63217" lon="2.30666">
        <ele>201.8</ele>
        <time>2025-09-16T16:21:56Z</time>
      </trkpt>
      <trkpt lat="43.63217" lon="2.30658">
        <ele>201.8</ele>
        <time>2025-09-16T16:21:57Z</time>
      </trkpt>
      <trkpt lat="43.63216" lon="2.30649">
        <ele>201.8</ele>
        <time>2025-09-16T16:21:58Z</time>
      </trkpt>
      <trkpt lat="43.63216" lon="2.3064">
        <ele>201.8</ele>
        <time>2025-09-16T16:21:59Z</time>
      </trkpt>
      <trkpt lat="43.63216" lon="2.30631">
        <ele>201.6</ele>
        <time>2025-09-16T16:22:00Z</time>
      </trkpt>
      <trkpt lat="43.63218" lon="2.30624">
        <ele>201.6</ele>
        <time>2025-09-16T16:22:01Z</time>
      </trkpt>
      <trkpt lat="43.6322" lon="2.30617">
        <ele>201.6</ele>
        <time>2025-09-16T16:22:02Z</time>
      </trkpt>
      <trkpt lat="43.63222" lon="2.3061">
        <ele>201.4</ele>
        <time>2025-09-16T16:22:03Z</time>
      </trkpt>
      <trkpt lat="43.63223" lon="2.30602">
        <ele>201.4</ele>
        <time>2025-09-16T16:22:04Z</time>
      </trkpt>
      <trkpt lat="43.63223" lon="2.30595">
        <ele>201.4</ele>
        <time>2025-09-16T16:22:05Z</time>
      </trkpt>
      <trkpt lat="43.63224" lon="2.30588">
        <ele>201.4</ele>
        <time>2025-09-16T16:22:06Z</time>
      </trkpt>
      <trkpt lat="43.63225" lon="2.30581">
        <ele>201.4</ele>
        <time>2025-09-16T16:22:07Z</time>
      </trkpt>
      <trkpt lat="43.63225" lon="2.30574">
        <ele>201.4</ele>
        <time>2025-09-16T16:22:08Z</time>
      </trkpt>
      <trkpt lat="43.63227" lon="2.30566">
        <ele>201.4</ele>
        <time>2025-09-16T16:22:09Z</time>
      </trkpt>
      <trkpt lat="43.63227" lon="2.30559">
        <ele>201.4</ele>
        <time>2025-09-16T16:22:10Z</time>
      </trkpt>
      <trkpt lat="43.63228" lon="2.30553">
        <ele>201.4</ele>
        <time>2025-09-16T16:22:11Z</time>
      </trkpt>
      <trkpt lat="43.63228" lon="2.30547">
        <ele>201.4</ele>
        <time>2025-09-16T16:22:12Z</time>
      </trkpt>
      <trkpt lat="43.6323" lon="2.30538">
        <ele>201.4</ele>
        <time>2025-09-16T16:22:13Z</time>
      </trkpt>
      <trkpt lat="43.63232" lon="2.30532">
        <ele>201.6</ele>
        <time>2025-09-16T16:22:14Z</time>
      </trkpt>
      <trkpt lat="43.63234" lon="2.30525">
        <ele>201.6</ele>
        <time>2025-09-16T16:22:15Z</time>
      </trkpt>
      <trkpt lat="43.63235" lon="2.30519">
        <ele>201.6</ele>
        <time>2025-09-16T16:22:16Z</time>
      </trkpt>
      <trkpt lat="43.63237" lon="2.30512">
        <ele>201.8</ele>
        <time>2025-09-16T16:22:17Z</time>
      </trkpt>
      <trkpt lat="43.63238" lon="2.30504">
        <ele>201.6</ele>
        <time>2025-09-16T16:22:18Z</time>
      </trkpt>
      <trkpt lat="43.63239" lon="2.30498">
        <ele>201.6</ele>
        <time>2025-09-16T16:22:19Z</time>
      </trkpt>
      <trkpt lat="43.63241" lon="2.30491">
        <ele>201.6</ele>
        <time>2025-09-16T16:22:20Z</time>
      </trkpt>
      <trkpt lat="43.63242" lon="2.30483">
        <ele>201.6</ele>
        <time>2025-09-16T16:22:21Z</time>
      </trkpt>
      <trkpt lat="43.63243" lon="2.30478">
        <ele>201.6</ele>
        <time>2025-09-16T16:22:22Z</time>
      </trkpt>
      <trkpt lat="43.63244" lon="2.3047">
        <ele>201.6</ele>
        <time>2025-09-16T16:22:23Z</time>
      </trkpt>
      <trkpt lat="43.63243" lon="2.30463">
        <ele>201.6</ele>
        <time>2025-09-16T16:22:24Z</time>
      </trkpt>
      <trkpt lat="43.63243" lon="2.30456">
        <ele>201.6</ele>
        <time>2025-09-16T16:22:25Z</time>
      </trkpt>
      <trkpt lat="43.63244" lon="2.30449">
        <ele>201.6</ele>
        <time>2025-09-16T16:22:26Z</time>
      </trkpt>
      <trkpt lat="43.63246" lon="2.30441">
        <ele>201.6</ele>
        <time>2025-09-16T16:22:27Z</time>
      </trkpt>
      <trkpt lat="43.63247" lon="2.30436">
        <ele>201.6</ele>
        <time>2025-09-16T16:22:28Z</time>
      </trkpt>
      <trkpt lat="43.63249" lon="2.3043">
        <ele>201.6</ele>
        <time>2025-09-16T16:22:29Z</time>
      </trkpt>
      <trkpt lat="43.6325" lon="2.30424">
        <ele>201.8</ele>
        <time>2025-09-16T16:22:30Z</time>
      </trkpt>
      <trkpt lat="43.63251" lon="2.30419">
        <ele>201.8</ele>
        <time>2025-09-16T16:22:31Z</time>
      </trkpt>
      <trkpt lat="43.6325" lon="2.30413">
        <ele>201.8</ele>
        <time>2025-09-16T16:22:32Z</time>
      </trkpt>
      <trkpt lat="43.63248" lon="2.30407">
        <ele>201.8</ele>
        <time>2025-09-16T16:22:33Z</time>
      </trkpt>
      <trkpt lat="43.63243" lon="2.304">
        <ele>202</ele>
        <time>2025-09-16T16:22:34Z</time>
      </trkpt>
      <trkpt lat="43.63241" lon="2.30393">
        <ele>202</ele>
        <time>2025-09-16T16:22:35Z</time>
      </trkpt>
      <trkpt lat="43.63238" lon="2.30387">
        <ele>202</ele>
        <time>2025-09-16T16:22:36Z</time>
      </trkpt>
      <trkpt lat="43.63236" lon="2.30381">
        <ele>202</ele>
        <time>2025-09-16T16:22:37Z</time>
      </trkpt>
      <trkpt lat="43.63235" lon="2.30374">
        <ele>202.2</ele>
        <time>2025-09-16T16:22:38Z</time>
      </trkpt>
      <trkpt lat="43.63235" lon="2.30368">
        <ele>202.2</ele>
        <time>2025-09-16T16:22:39Z</time>
      </trkpt>
      <trkpt lat="43.63235" lon="2.30361">
        <ele>202.2</ele>
        <time>2025-09-16T16:22:40Z</time>
      </trkpt>
      <trkpt lat="43.63235" lon="2.30354">
        <ele>202.2</ele>
        <time>2025-09-16T16:22:41Z</time>
      </trkpt>
      <trkpt lat="43.63235" lon="2.30348">
        <ele>202.2</ele>
        <time>2025-09-16T16:22:42Z</time>
      </trkpt>
      <trkpt lat="43.63233" lon="2.30342">
        <ele>202.2</ele>
        <time>2025-09-16T16:22:43Z</time>
      </trkpt>
      <trkpt lat="43.63231" lon="2.30335">
        <ele>202.2</ele>
        <time>2025-09-16T16:22:44Z</time>
      </trkpt>
      <trkpt lat="43.63227" lon="2.30328">
        <ele>202.2</ele>
        <time>2025-09-16T16:22:45Z</time>
      </trkpt>
      <trkpt lat="43.63224" lon="2.30321">
        <ele>202</ele>
        <time>2025-09-16T16:22:46Z</time>
      </trkpt>
      <trkpt lat="43.63221" lon="2.30313">
        <ele>202</ele>
        <time>2025-09-16T16:22:47Z</time>
      </trkpt>
      <trkpt lat="43.63219" lon="2.30306">
        <ele>202</ele>
        <time>2025-09-16T16:22:48Z</time>
      </trkpt>
      <trkpt lat="43.63217" lon="2.30298">
        <ele>202</ele>
        <time>2025-09-16T16:22:49Z</time>
      </trkpt>
      <trkpt lat="43.63215" lon="2.30291">
        <ele>202</ele>
        <time>2025-09-16T16:22:50Z</time>
      </trkpt>
      <trkpt lat="43.63213" lon="2.30284">
        <ele>202</ele>
        <time>2025-09-16T16:22:51Z</time>
      </trkpt>
      <trkpt lat="43.6321" lon="2.30278">
        <ele>202.2</ele>
        <time>2025-09-16T16:22:52Z</time>
      </trkpt>
      <trkpt lat="43.63204" lon="2.30271">
        <ele>202.2</ele>
        <time>2025-09-16T16:22:53Z</time>
      </trkpt>
      <trkpt lat="43.63201" lon="2.30265">
        <ele>202.2</ele>
        <time>2025-09-16T16:22:54Z</time>
      </trkpt>
      <trkpt lat="43.63198" lon="2.30259">
        <ele>202.2</ele>
        <time>2025-09-16T16:22:55Z</time>
      </trkpt>
      <trkpt lat="43.63193" lon="2.30253">
        <ele>202</ele>
        <time>2025-09-16T16:22:56Z</time>
      </trkpt>
      <trkpt lat="43.63189" lon="2.30247">
        <ele>202</ele>
        <time>2025-09-16T16:22:57Z</time>
      </trkpt>
      <trkpt lat="43.63185" lon="2.3024">
        <ele>202</ele>
        <time>2025-09-16T16:22:58Z</time>
      </trkpt>
      <trkpt lat="43.63183" lon="2.30235">
        <ele>202</ele>
        <time>2025-09-16T16:22:59Z</time>
      </trkpt>
      <trkpt lat="43.6318" lon="2.30229">
        <ele>202</ele>
        <time>2025-09-16T16:23:00Z</time>
      </trkpt>
      <trkpt lat="43.63178" lon="2.30222">
        <ele>202</ele>
        <time>2025-09-16T16:23:01Z</time>
      </trkpt>
      <trkpt lat="43.63175" lon="2.30216">
        <ele>202</ele>
        <time>2025-09-16T16:23:02Z</time>
      </trkpt>
      <trkpt lat="43.63173" lon="2.30209">
        <ele>202</ele>
        <time>2025-09-16T16:23:03Z</time>
      </trkpt>
      <trkpt lat="43.63171" lon="2.30202">
        <ele>202</ele>
        <time>2025-09-16T16:23:04Z</time>
      </trkpt>
      <trkpt lat="43.6317" lon="2.30197">
        <ele>202</ele>
        <time>2025-09-16T16:23:05Z</time>
      </trkpt>
      <trkpt lat="43.63168" lon="2.30192">
        <ele>202</ele>
        <time>2025-09-16T16:23:06Z</time>
      </trkpt>
      <trkpt lat="43.63162" lon="2.30185">
        <ele>202</ele>
        <time>2025-09-16T16:23:07Z</time>
      </trkpt>
      <trkpt lat="43.63159" lon="2.30178">
        <ele>202</ele>
        <time>2025-09-16T16:23:08Z</time>
      </trkpt>
      <trkpt lat="43.63159" lon="2.30172">
        <ele>202</ele>
        <time>2025-09-16T16:23:09Z</time>
      </trkpt>
      <trkpt lat="43.63158" lon="2.30165">
        <ele>202</ele>
        <time>2025-09-16T16:23:10Z</time>
      </trkpt>
      <trkpt lat="43.63157" lon="2.30159">
        <ele>202</ele>
        <time>2025-09-16T16:23:11Z</time>
      </trkpt>
      <trkpt lat="43.63155" lon="2.30151">
        <ele>202</ele>
        <time>2025-09-16T16:23:12Z</time>
      </trkpt>
      <trkpt lat="43.63154" lon="2.30145">
        <ele>202</ele>
        <time>2025-09-16T16:23:13Z</time>
      </trkpt>
      <trkpt lat="43.63154" lon="2.30138">
        <ele>202</ele>
        <time>2025-09-16T16:23:14Z</time>
      </trkpt>
      <trkpt lat="43.63154" lon="2.30132">
        <ele>202</ele>
        <time>2025-09-16T16:23:15Z</time>
      </trkpt>
      <trkpt lat="43.63155" lon="2.30125">
        <ele>201.8</ele>
        <time>2025-09-16T16:23:16Z</time>
      </trkpt>
      <trkpt lat="43.63156" lon="2.30118">
        <ele>202</ele>
        <time>2025-09-16T16:23:17Z</time>
      </trkpt>
      <trkpt lat="43.63157" lon="2.30111">
        <ele>202</ele>
        <time>2025-09-16T16:23:18Z</time>
      </trkpt>
      <trkpt lat="43.6316" lon="2.30105">
        <ele>202</ele>
        <time>2025-09-16T16:23:19Z</time>
      </trkpt>
      <trkpt lat="43.63162" lon="2.30099">
        <ele>202</ele>
        <time>2025-09-16T16:23:20Z</time>
      </trkpt>
      <trkpt lat="43.63164" lon="2.30092">
        <ele>202</ele>
        <time>2025-09-16T16:23:21Z</time>
      </trkpt>
      <trkpt lat="43.63165" lon="2.30086">
        <ele>202</ele>
        <time>2025-09-16T16:23:22Z</time>
      </trkpt>
      <trkpt lat="43.63165" lon="2.30079">
        <ele>202</ele>
        <time>2025-09-16T16:23:23Z</time>
      </trkpt>
      <trkpt lat="43.63166" lon="2.30072">
        <ele>202</ele>
        <time>2025-09-16T16:23:24Z</time>
      </trkpt>
      <trkpt lat="43.63168" lon="2.30066">
        <ele>202</ele>
        <time>2025-09-16T16:23:25Z</time>
      </trkpt>
      <trkpt lat="43.63169" lon="2.30059">
        <ele>202</ele>
        <time>2025-09-16T16:23:26Z</time>
      </trkpt>
      <trkpt lat="43.6317" lon="2.30052">
        <ele>202</ele>
        <time>2025-09-16T16:23:27Z</time>
      </trkpt>
      <trkpt lat="43.63171" lon="2.30045">
        <ele>202</ele>
        <time>2025-09-16T16:23:28Z</time>
      </trkpt>
      <trkpt lat="43.63171" lon="2.30038">
        <ele>202.2</ele>
        <time>2025-09-16T16:23:29Z</time>
      </trkpt>
      <trkpt lat="43.6317" lon="2.30032">
        <ele>202.2</ele>
        <time>2025-09-16T16:23:30Z</time>
      </trkpt>
      <trkpt lat="43.63169" lon="2.30025">
        <ele>202.2</ele>
        <time>2025-09-16T16:23:31Z</time>
      </trkpt>
      <trkpt lat="43.63169" lon="2.30018">
        <ele>202.2</ele>
        <time>2025-09-16T16:23:32Z</time>
      </trkpt>
      <trkpt lat="43.63167" lon="2.30012">
        <ele>202</ele>
        <time>2025-09-16T16:23:33Z</time>
      </trkpt>
      <trkpt lat="43.63166" lon="2.30006">
        <ele>202</ele>
        <time>2025-09-16T16:23:34Z</time>
      </trkpt>
      <trkpt lat="43.63164" lon="2.3">
        <ele>202.2</ele>
        <time>2025-09-16T16:23:35Z</time>
      </trkpt>
      <trkpt lat="43.63163" lon="2.29994">
        <ele>202.2</ele>
        <time>2025-09-16T16:23:36Z</time>
      </trkpt>
      <trkpt lat="43.63161" lon="2.29989">
        <ele>202.2</ele>
        <time>2025-09-16T16:23:37Z</time>
      </trkpt>
      <trkpt lat="43.63159" lon="2.29983">
        <ele>202.2</ele>
        <time>2025-09-16T16:23:38Z</time>
      </trkpt>
      <trkpt lat="43.63157" lon="2.29977">
        <ele>202.2</ele>
        <time>2025-09-16T16:23:39Z</time>
      </trkpt>
      <trkpt lat="43.63154" lon="2.29972">
        <ele>202.2</ele>
        <time>2025-09-16T16:23:40Z</time>
      </trkpt>
      <trkpt lat="43.63152" lon="2.29966">
        <ele>202.2</ele>
        <time>2025-09-16T16:23:41Z</time>
      </trkpt>
      <trkpt lat="43.6315" lon="2.2996">
        <ele>202.2</ele>
        <time>2025-09-16T16:23:42Z</time>
      </trkpt>
      <trkpt lat="43.63148" lon="2.29954">
        <ele>202.2</ele>
        <time>2025-09-16T16:23:43Z</time>
      </trkpt>
      <trkpt lat="43.63145" lon="2.29948">
        <ele>202.2</ele>
        <time>2025-09-16T16:23:44Z</time>
      </trkpt>
      <trkpt lat="43.63144" lon="2.29942">
        <ele>202.2</ele>
        <time>2025-09-16T16:23:45Z</time>
      </trkpt>
      <trkpt lat="43.63142" lon="2.29936">
        <ele>202.2</ele>
        <time>2025-09-16T16:23:46Z</time>
      </trkpt>
      <trkpt lat="43.6314" lon="2.29931">
        <ele>202.2</ele>
        <time>2025-09-16T16:23:47Z</time>
      </trkpt>
      <trkpt lat="43.63138" lon="2.29925">
        <ele>202.2</ele>
        <time>2025-09-16T16:23:48Z</time>
      </trkpt>
      <trkpt lat="43.63135" lon="2.29921">
        <ele>202.2</ele>
        <time>2025-09-16T16:23:49Z</time>
      </trkpt>
      <trkpt lat="43.63132" lon="2.29915">
        <ele>202.2</ele>
        <time>2025-09-16T16:23:50Z</time>
      </trkpt>
      <trkpt lat="43.63129" lon="2.2991">
        <ele>202.2</ele>
        <time>2025-09-16T16:23:51Z</time>
      </trkpt>
      <trkpt lat="43.63128" lon="2.29904">
        <ele>202</ele>
        <time>2025-09-16T16:23:52Z</time>
      </trkpt>
      <trkpt lat="43.63126" lon="2.29898">
        <ele>202</ele>
        <time>2025-09-16T16:23:53Z</time>
      </trkpt>
      <trkpt lat="43.63124" lon="2.29891">
        <ele>201.8</ele>
        <time>2025-09-16T16:23:54Z</time>
      </trkpt>
      <trkpt lat="43.63122" lon="2.29885">
        <ele>201.8</ele>
        <time>2025-09-16T16:23:55Z</time>
      </trkpt>
      <trkpt lat="43.63122" lon="2.29878">
        <ele>201.6</ele>
        <time>2025-09-16T16:23:56Z</time>
      </trkpt>
      <trkpt lat="43.63123" lon="2.29871">
        <ele>201.6</ele>
        <time>2025-09-16T16:23:57Z</time>
      </trkpt>
      <trkpt lat="43.63123" lon="2.29865">
        <ele>201.4</ele>
        <time>2025-09-16T16:23:58Z</time>
      </trkpt>
      <trkpt lat="43.63124" lon="2.29858">
        <ele>201.4</ele>
        <time>2025-09-16T16:23:59Z</time>
      </trkpt>
      <trkpt lat="43.63124" lon="2.29852">
        <ele>201.4</ele>
        <time>2025-09-16T16:24:00Z</time>
      </trkpt>
      <trkpt lat="43.63125" lon="2.29845">
        <ele>201.4</ele>
        <time>2025-09-16T16:24:01Z</time>
      </trkpt>
      <trkpt lat="43.63124" lon="2.29839">
        <ele>201.6</ele>
        <time>2025-09-16T16:24:02Z</time>
      </trkpt>
      <trkpt lat="43.63124" lon="2.29832">
        <ele>201.6</ele>
        <time>2025-09-16T16:24:03Z</time>
      </trkpt>
      <trkpt lat="43.63123" lon="2.29825">
        <ele>201.6</ele>
        <time>2025-09-16T16:24:04Z</time>
      </trkpt>
      <trkpt lat="43.63122" lon="2.29818">
        <ele>201.6</ele>
        <time>2025-09-16T16:24:05Z</time>
      </trkpt>
      <trkpt lat="43.63122" lon="2.29811">
        <ele>201.8</ele>
        <time>2025-09-16T16:24:06Z</time>
      </trkpt>
      <trkpt lat="43.63122" lon="2.29804">
        <ele>201.8</ele>
        <time>2025-09-16T16:24:07Z</time>
      </trkpt>
      <trkpt lat="43.63121" lon="2.29797">
        <ele>201.8</ele>
        <time>2025-09-16T16:24:08Z</time>
      </trkpt>
      <trkpt lat="43.6312" lon="2.2979">
        <ele>201.8</ele>
        <time>2025-09-16T16:24:09Z</time>
      </trkpt>
      <trkpt lat="43.63119" lon="2.29784">
        <ele>202</ele>
        <time>2025-09-16T16:24:10Z</time>
      </trkpt>
      <trkpt lat="43.63118" lon="2.29778">
        <ele>202</ele>
        <time>2025-09-16T16:24:11Z</time>
      </trkpt>
      <trkpt lat="43.63118" lon="2.29772">
        <ele>202.2</ele>
        <time>2025-09-16T16:24:12Z</time>
      </trkpt>
      <trkpt lat="43.63117" lon="2.29766">
        <ele>202.2</ele>
        <time>2025-09-16T16:24:13Z</time>
      </trkpt>
      <trkpt lat="43.63116" lon="2.29759">
        <ele>202.2</ele>
        <time>2025-09-16T16:24:14Z</time>
      </trkpt>
      <trkpt lat="43.63115" lon="2.29753">
        <ele>202.2</ele>
        <time>2025-09-16T16:24:15Z</time>
      </trkpt>
      <trkpt lat="43.63114" lon="2.29746">
        <ele>202.2</ele>
        <time>2025-09-16T16:24:16Z</time>
      </trkpt>
      <trkpt lat="43.63113" lon="2.2974">
        <ele>202.2</ele>
        <time>2025-09-16T16:24:17Z</time>
      </trkpt>
      <trkpt lat="43.63112" lon="2.29733">
        <ele>202.2</ele>
        <time>2025-09-16T16:24:18Z</time>
      </trkpt>
      <trkpt lat="43.6311" lon="2.29726">
        <ele>202.4</ele>
        <time>2025-09-16T16:24:19Z</time>
      </trkpt>
      <trkpt lat="43.63108" lon="2.29719">
        <ele>202.4</ele>
        <time>2025-09-16T16:24:20Z</time>
      </trkpt>
      <trkpt lat="43.63107" lon="2.29712">
        <ele>202.4</ele>
        <time>2025-09-16T16:24:21Z</time>
      </trkpt>
      <trkpt lat="43.63106" lon="2.29705">
        <ele>202.4</ele>
        <time>2025-09-16T16:24:22Z</time>
      </trkpt>
      <trkpt lat="43.63104" lon="2.29698">
        <ele>202.4</ele>
        <time>2025-09-16T16:24:23Z</time>
      </trkpt>
      <trkpt lat="43.63103" lon="2.29691">
        <ele>202.4</ele>
        <time>2025-09-16T16:24:24Z</time>
      </trkpt>
      <trkpt lat="43.63102" lon="2.29684">
        <ele>202.4</ele>
        <time>2025-09-16T16:24:25Z</time>
      </trkpt>
      <trkpt lat="43.63101" lon="2.29677">
        <ele>202.2</ele>
        <time>2025-09-16T16:24:26Z</time>
      </trkpt>
      <trkpt lat="43.63101" lon="2.29671">
        <ele>202.2</ele>
        <time>2025-09-16T16:24:27Z</time>
      </trkpt>
      <trkpt lat="43.63101" lon="2.29664">
        <ele>202.2</ele>
        <time>2025-09-16T16:24:28Z</time>
      </trkpt>
      <trkpt lat="43.63101" lon="2.29656">
        <ele>202.2</ele>
        <time>2025-09-16T16:24:29Z</time>
      </trkpt>
      <trkpt lat="43.63101" lon="2.29649">
        <ele>202.2</ele>
        <time>2025-09-16T16:24:30Z</time>
      </trkpt>
      <trkpt lat="43.63103" lon="2.29641">
        <ele>202.2</ele>
        <time>2025-09-16T16:24:31Z</time>
      </trkpt>
      <trkpt lat="43.63103" lon="2.29636">
        <ele>202.2</ele>
        <time>2025-09-16T16:24:32Z</time>
      </trkpt>
      <trkpt lat="43.63104" lon="2.29634">
        <ele>202.2</ele>
        <time>2025-09-16T16:24:33Z</time>
      </trkpt>
      <trkpt lat="43.63104" lon="2.29633">
        <ele>202.4</ele>
        <time>2025-09-16T16:24:34Z</time>
      </trkpt>
      <trkpt lat="43.63105" lon="2.29628">
        <ele>202.4</ele>
        <time>2025-09-16T16:24:35Z</time>
      </trkpt>
      <trkpt lat="43.63106" lon="2.29622">
        <ele>202.4</ele>
        <time>2025-09-16T16:24:36Z</time>
      </trkpt>
      <trkpt lat="43.63108" lon="2.29615">
        <ele>202.4</ele>
        <time>2025-09-16T16:24:37Z</time>
      </trkpt>
      <trkpt lat="43.6311" lon="2.29609">
        <ele>202.4</ele>
        <time>2025-09-16T16:24:38Z</time>
      </trkpt>
      <trkpt lat="43.6311" lon="2.29602">
        <ele>202.4</ele>
        <time>2025-09-16T16:24:39Z</time>
      </trkpt>
      <trkpt lat="43.63113" lon="2.29595">
        <ele>202.4</ele>
        <time>2025-09-16T16:24:40Z</time>
      </trkpt>
      <trkpt lat="43.63114" lon="2.29586">
        <ele>202.2</ele>
        <time>2025-09-16T16:24:41Z</time>
      </trkpt>
      <trkpt lat="43.63115" lon="2.29578">
        <ele>202.2</ele>
        <time>2025-09-16T16:24:42Z</time>
      </trkpt>
      <trkpt lat="43.63116" lon="2.29569">
        <ele>202.2</ele>
        <time>2025-09-16T16:24:43Z</time>
      </trkpt>
      <trkpt lat="43.63116" lon="2.29561">
        <ele>202.2</ele>
        <time>2025-09-16T16:24:44Z</time>
      </trkpt>
      <trkpt lat="43.63116" lon="2.29554">
        <ele>202.2</ele>
        <time>2025-09-16T16:24:45Z</time>
      </trkpt>
      <trkpt lat="43.63116" lon="2.29546">
        <ele>202.2</ele>
        <time>2025-09-16T16:24:46Z</time>
      </trkpt>
      <trkpt lat="43.63117" lon="2.29538">
        <ele>202.2</ele>
        <time>2025-09-16T16:24:47Z</time>
      </trkpt>
      <trkpt lat="43.63117" lon="2.29532">
        <ele>202.2</ele>
        <time>2025-09-16T16:24:48Z</time>
      </trkpt>
      <trkpt lat="43.63116" lon="2.29525">
        <ele>202.2</ele>
        <time>2025-09-16T16:24:49Z</time>
      </trkpt>
      <trkpt lat="43.63114" lon="2.29518">
        <ele>202.2</ele>
        <time>2025-09-16T16:24:50Z</time>
      </trkpt>
      <trkpt lat="43.63112" lon="2.29511">
        <ele>202.2</ele>
        <time>2025-09-16T16:24:51Z</time>
      </trkpt>
      <trkpt lat="43.6311" lon="2.29505">
        <ele>202.2</ele>
        <time>2025-09-16T16:24:52Z</time>
      </trkpt>
      <trkpt lat="43.63108" lon="2.29497">
        <ele>202.2</ele>
        <time>2025-09-16T16:24:53Z</time>
      </trkpt>
      <trkpt lat="43.63106" lon="2.29491">
        <ele>202</ele>
        <time>2025-09-16T16:24:54Z</time>
      </trkpt>
      <trkpt lat="43.63104" lon="2.29484">
        <ele>202</ele>
        <time>2025-09-16T16:24:55Z</time>
      </trkpt>
      <trkpt lat="43.63102" lon="2.29477">
        <ele>201.8</ele>
        <time>2025-09-16T16:24:56Z</time>
      </trkpt>
      <trkpt lat="43.63099" lon="2.2947">
        <ele>201.6</ele>
        <time>2025-09-16T16:24:57Z</time>
      </trkpt>
      <trkpt lat="43.63097" lon="2.29462">
        <ele>201.6</ele>
        <time>2025-09-16T16:24:58Z</time>
      </trkpt>
      <trkpt lat="43.63095" lon="2.29454">
        <ele>201.4</ele>
        <time>2025-09-16T16:24:59Z</time>
      </trkpt>
      <trkpt lat="43.63095" lon="2.29447">
        <ele>201.4</ele>
        <time>2025-09-16T16:25:00Z</time>
      </trkpt>
      <trkpt lat="43.63095" lon="2.2944">
        <ele>201.2</ele>
        <time>2025-09-16T16:25:01Z</time>
      </trkpt>
      <trkpt lat="43.63095" lon="2.29433">
        <ele>201.2</ele>
        <time>2025-09-16T16:25:02Z</time>
      </trkpt>
      <trkpt lat="43.63094" lon="2.29425">
        <ele>201.2</ele>
        <time>2025-09-16T16:25:03Z</time>
      </trkpt>
      <trkpt lat="43.63091" lon="2.29418">
        <ele>201.2</ele>
        <time>2025-09-16T16:25:04Z</time>
      </trkpt>
      <trkpt lat="43.63086" lon="2.29411">
        <ele>201.2</ele>
        <time>2025-09-16T16:25:05Z</time>
      </trkpt>
      <trkpt lat="43.63084" lon="2.29404">
        <ele>201.2</ele>
        <time>2025-09-16T16:25:06Z</time>
      </trkpt>
      <trkpt lat="43.63081" lon="2.29396">
        <ele>201.4</ele>
        <time>2025-09-16T16:25:07Z</time>
      </trkpt>
      <trkpt lat="43.63081" lon="2.29389">
        <ele>201.4</ele>
        <time>2025-09-16T16:25:08Z</time>
      </trkpt>
      <trkpt lat="43.63079" lon="2.29382">
        <ele>201.4</ele>
        <time>2025-09-16T16:25:09Z</time>
      </trkpt>
      <trkpt lat="43.63077" lon="2.29375">
        <ele>201.6</ele>
        <time>2025-09-16T16:25:10Z</time>
      </trkpt>
      <trkpt lat="43.63076" lon="2.29369">
        <ele>201.6</ele>
        <time>2025-09-16T16:25:11Z</time>
      </trkpt>
      <trkpt lat="43.63076" lon="2.29362">
        <ele>201.8</ele>
        <time>2025-09-16T16:25:12Z</time>
      </trkpt>
      <trkpt lat="43.63074" lon="2.29356">
        <ele>201.8</ele>
        <time>2025-09-16T16:25:13Z</time>
      </trkpt>
      <trkpt lat="43.63071" lon="2.29349">
        <ele>202</ele>
        <time>2025-09-16T16:25:14Z</time>
      </trkpt>
      <trkpt lat="43.63068" lon="2.29343">
        <ele>202</ele>
        <time>2025-09-16T16:25:15Z</time>
      </trkpt>
      <trkpt lat="43.63066" lon="2.29338">
        <ele>201.8</ele>
        <time>2025-09-16T16:25:16Z</time>
      </trkpt>
      <trkpt lat="43.63063" lon="2.29333">
        <ele>201.8</ele>
        <time>2025-09-16T16:25:17Z</time>
      </trkpt>
      <trkpt lat="43.63059" lon="2.29327">
        <ele>201.6</ele>
        <time>2025-09-16T16:25:18Z</time>
      </trkpt>
      <trkpt lat="43.63055" lon="2.29321">
        <ele>201.6</ele>
        <time>2025-09-16T16:25:19Z</time>
      </trkpt>
      <trkpt lat="43.63053" lon="2.29316">
        <ele>201.4</ele>
        <time>2025-09-16T16:25:20Z</time>
      </trkpt>
      <trkpt lat="43.6305" lon="2.2931">
        <ele>201.4</ele>
        <time>2025-09-16T16:25:21Z</time>
      </trkpt>
      <trkpt lat="43.63047" lon="2.29304">
        <ele>201.4</ele>
        <time>2025-09-16T16:25:22Z</time>
      </trkpt>
      <trkpt lat="43.63044" lon="2.29299">
        <ele>201.4</ele>
        <time>2025-09-16T16:25:23Z</time>
      </trkpt>
      <trkpt lat="43.63041" lon="2.29293">
        <ele>201.2</ele>
        <time>2025-09-16T16:25:24Z</time>
      </trkpt>
      <trkpt lat="43.63039" lon="2.29288">
        <ele>201.4</ele>
        <time>2025-09-16T16:25:25Z</time>
      </trkpt>
      <trkpt lat="43.63036" lon="2.29282">
        <ele>201.4</ele>
        <time>2025-09-16T16:25:26Z</time>
      </trkpt>
      <trkpt lat="43.63033" lon="2.29277">
        <ele>201.4</ele>
        <time>2025-09-16T16:25:27Z</time>
      </trkpt>
      <trkpt lat="43.63031" lon="2.29272">
        <ele>201.4</ele>
        <time>2025-09-16T16:25:28Z</time>
      </trkpt>
      <trkpt lat="43.63028" lon="2.29267">
        <ele>201.6</ele>
        <time>2025-09-16T16:25:29Z</time>
      </trkpt>
      <trkpt lat="43.63025" lon="2.29261">
        <ele>201.4</ele>
        <time>2025-09-16T16:25:30Z</time>
      </trkpt>
      <trkpt lat="43.63023" lon="2.29254">
        <ele>201.4</ele>
        <time>2025-09-16T16:25:31Z</time>
      </trkpt>
      <trkpt lat="43.63021" lon="2.29247">
        <ele>201.4</ele>
        <time>2025-09-16T16:25:32Z</time>
      </trkpt>
      <trkpt lat="43.6302" lon="2.2924">
        <ele>201.4</ele>
        <time>2025-09-16T16:25:33Z</time>
      </trkpt>
      <trkpt lat="43.6302" lon="2.29233">
        <ele>201.4</ele>
        <time>2025-09-16T16:25:34Z</time>
      </trkpt>
      <trkpt lat="43.63019" lon="2.29226">
        <ele>201.4</ele>
        <time>2025-09-16T16:25:35Z</time>
      </trkpt>
      <trkpt lat="43.63018" lon="2.29219">
        <ele>201.2</ele>
        <time>2025-09-16T16:25:36Z</time>
      </trkpt>
      <trkpt lat="43.63015" lon="2.29212">
        <ele>201.2</ele>
        <time>2025-09-16T16:25:37Z</time>
      </trkpt>
      <trkpt lat="43.63012" lon="2.29206">
        <ele>201.2</ele>
        <time>2025-09-16T16:25:38Z</time>
      </trkpt>
      <trkpt lat="43.6301" lon="2.292">
        <ele>201.2</ele>
        <time>2025-09-16T16:25:39Z</time>
      </trkpt>
      <trkpt lat="43.63007" lon="2.29195">
        <ele>201.2</ele>
        <time>2025-09-16T16:25:40Z</time>
      </trkpt>
      <trkpt lat="43.63003" lon="2.2919">
        <ele>201.4</ele>
        <time>2025-09-16T16:25:41Z</time>
      </trkpt>
      <trkpt lat="43.63" lon="2.29185">
        <ele>201.4</ele>
        <time>2025-09-16T16:25:42Z</time>
      </trkpt>
      <trkpt lat="43.62996" lon="2.29179">
        <ele>201.4</ele>
        <time>2025-09-16T16:25:43Z</time>
      </trkpt>
      <trkpt lat="43.62993" lon="2.29174">
        <ele>201.6</ele>
        <time>2025-09-16T16:25:44Z</time>
      </trkpt>
      <trkpt lat="43.6299" lon="2.29169">
        <ele>201.6</ele>
        <time>2025-09-16T16:25:45Z</time>
      </trkpt>
      <trkpt lat="43.62988" lon="2.29164">
        <ele>201.6</ele>
        <time>2025-09-16T16:25:46Z</time>
      </trkpt>
      <trkpt lat="43.62987" lon="2.29158">
        <ele>201.6</ele>
        <time>2025-09-16T16:25:47Z</time>
      </trkpt>
      <trkpt lat="43.62985" lon="2.29152">
        <ele>201.8</ele>
        <time>2025-09-16T16:25:48Z</time>
      </trkpt>
      <trkpt lat="43.62985" lon="2.29145">
        <ele>201.8</ele>
        <time>2025-09-16T16:25:49Z</time>
      </trkpt>
      <trkpt lat="43.62984" lon="2.2914">
        <ele>201.8</ele>
        <time>2025-09-16T16:25:50Z</time>
      </trkpt>
      <trkpt lat="43.62983" lon="2.29133">
        <ele>202</ele>
        <time>2025-09-16T16:25:51Z</time>
      </trkpt>
      <trkpt lat="43.62983" lon="2.29127">
        <ele>202</ele>
        <time>2025-09-16T16:25:52Z</time>
      </trkpt>
      <trkpt lat="43.62982" lon="2.2912">
        <ele>202.2</ele>
        <time>2025-09-16T16:25:53Z</time>
      </trkpt>
      <trkpt lat="43.62981" lon="2.29113">
        <ele>202.2</ele>
        <time>2025-09-16T16:25:54Z</time>
      </trkpt>
      <trkpt lat="43.62979" lon="2.29106">
        <ele>202.2</ele>
        <time>2025-09-16T16:25:55Z</time>
      </trkpt>
      <trkpt lat="43.62978" lon="2.291">
        <ele>202.2</ele>
        <time>2025-09-16T16:25:56Z</time>
      </trkpt>
      <trkpt lat="43.62978" lon="2.29094">
        <ele>202.2</ele>
        <time>2025-09-16T16:25:57Z</time>
      </trkpt>
      <trkpt lat="43.62977" lon="2.29087">
        <ele>202.2</ele>
        <time>2025-09-16T16:25:58Z</time>
      </trkpt>
      <trkpt lat="43.62976" lon="2.29081">
        <ele>202.2</ele>
        <time>2025-09-16T16:25:59Z</time>
      </trkpt>
      <trkpt lat="43.62976" lon="2.29074">
        <ele>202.4</ele>
        <time>2025-09-16T16:26:00Z</time>
      </trkpt>
      <trkpt lat="43.62977" lon="2.29068">
        <ele>202.4</ele>
        <time>2025-09-16T16:26:01Z</time>
      </trkpt>
      <trkpt lat="43.62978" lon="2.29062">
        <ele>202.6</ele>
        <time>2025-09-16T16:26:02Z</time>
      </trkpt>
      <trkpt lat="43.62977" lon="2.29054">
        <ele>202.6</ele>
        <time>2025-09-16T16:26:03Z</time>
      </trkpt>
      <trkpt lat="43.62977" lon="2.29047">
        <ele>202.6</ele>
        <time>2025-09-16T16:26:04Z</time>
      </trkpt>
      <trkpt lat="43.62977" lon="2.29041">
        <ele>202.6</ele>
        <time>2025-09-16T16:26:05Z</time>
      </trkpt>
      <trkpt lat="43.62979" lon="2.29036">
        <ele>202.6</ele>
        <time>2025-09-16T16:26:06Z</time>
      </trkpt>
      <trkpt lat="43.62982" lon="2.29032">
        <ele>202.4</ele>
        <time>2025-09-16T16:26:07Z</time>
      </trkpt>
      <trkpt lat="43.62984" lon="2.29028">
        <ele>202.4</ele>
        <time>2025-09-16T16:26:08Z</time>
      </trkpt>
      <trkpt lat="43.62987" lon="2.29023">
        <ele>202.4</ele>
        <time>2025-09-16T16:26:09Z</time>
      </trkpt>
      <trkpt lat="43.6299" lon="2.29018">
        <ele>202.4</ele>
        <time>2025-09-16T16:26:10Z</time>
      </trkpt>
      <trkpt lat="43.62992" lon="2.29013">
        <ele>202.4</ele>
        <time>2025-09-16T16:26:11Z</time>
      </trkpt>
      <trkpt lat="43.62994" lon="2.29007">
        <ele>202.4</ele>
        <time>2025-09-16T16:26:12Z</time>
      </trkpt>
      <trkpt lat="43.62996" lon="2.29001">
        <ele>202.4</ele>
        <time>2025-09-16T16:26:13Z</time>
      </trkpt>
      <trkpt lat="43.62998" lon="2.28995">
        <ele>202.4</ele>
        <time>2025-09-16T16:26:14Z</time>
      </trkpt>
      <trkpt lat="43.62999" lon="2.28989">
        <ele>202.4</ele>
        <time>2025-09-16T16:26:15Z</time>
      </trkpt>
      <trkpt lat="43.63001" lon="2.28983">
        <ele>202.4</ele>
        <time>2025-09-16T16:26:16Z</time>
      </trkpt>
      <trkpt lat="43.63002" lon="2.28977">
        <ele>202.4</ele>
        <time>2025-09-16T16:26:17Z</time>
      </trkpt>
      <trkpt lat="43.63004" lon="2.28971">
        <ele>202.4</ele>
        <time>2025-09-16T16:26:18Z</time>
      </trkpt>
      <trkpt lat="43.63006" lon="2.28964">
        <ele>202.4</ele>
        <time>2025-09-16T16:26:19Z</time>
      </trkpt>
      <trkpt lat="43.63008" lon="2.28957">
        <ele>202.4</ele>
        <time>2025-09-16T16:26:20Z</time>
      </trkpt>
      <trkpt lat="43.63009" lon="2.2895">
        <ele>202.2</ele>
        <time>2025-09-16T16:26:21Z</time>
      </trkpt>
      <trkpt lat="43.63011" lon="2.28942">
        <ele>202</ele>
        <time>2025-09-16T16:26:22Z</time>
      </trkpt>
      <trkpt lat="43.63012" lon="2.28935">
        <ele>202</ele>
        <time>2025-09-16T16:26:23Z</time>
      </trkpt>
      <trkpt lat="43.63014" lon="2.28928">
        <ele>201.8</ele>
        <time>2025-09-16T16:26:24Z</time>
      </trkpt>
      <trkpt lat="43.63016" lon="2.28921">
        <ele>201.6</ele>
        <time>2025-09-16T16:26:25Z</time>
      </trkpt>
      <trkpt lat="43.63017" lon="2.28914">
        <ele>201.6</ele>
        <time>2025-09-16T16:26:26Z</time>
      </trkpt>
      <trkpt lat="43.63018" lon="2.28906">
        <ele>201.4</ele>
        <time>2025-09-16T16:26:27Z</time>
      </trkpt>
      <trkpt lat="43.6302" lon="2.28899">
        <ele>201.2</ele>
        <time>2025-09-16T16:26:28Z</time>
      </trkpt>
      <trkpt lat="43.63021" lon="2.28892">
        <ele>201.2</ele>
        <time>2025-09-16T16:26:29Z</time>
      </trkpt>
      <trkpt lat="43.63021" lon="2.28885">
        <ele>201.2</ele>
        <time>2025-09-16T16:26:30Z</time>
      </trkpt>
      <trkpt lat="43.6302" lon="2.28878">
        <ele>201.2</ele>
        <time>2025-09-16T16:26:31Z</time>
      </trkpt>
      <trkpt lat="43.63018" lon="2.28871">
        <ele>201.4</ele>
        <time>2025-09-16T16:26:32Z</time>
      </trkpt>
      <trkpt lat="43.63015" lon="2.28865">
        <ele>201.4</ele>
        <time>2025-09-16T16:26:33Z</time>
      </trkpt>
      <trkpt lat="43.63012" lon="2.28859">
        <ele>201.6</ele>
        <time>2025-09-16T16:26:34Z</time>
      </trkpt>
      <trkpt lat="43.63012" lon="2.28851">
        <ele>201.4</ele>
        <time>2025-09-16T16:26:35Z</time>
      </trkpt>
      <trkpt lat="43.63012" lon="2.28843">
        <ele>201.4</ele>
        <time>2025-09-16T16:26:36Z</time>
      </trkpt>
      <trkpt lat="43.63011" lon="2.28836">
        <ele>201.4</ele>
        <time>2025-09-16T16:26:37Z</time>
      </trkpt>
      <trkpt lat="43.63011" lon="2.28828">
        <ele>201.4</ele>
        <time>2025-09-16T16:26:38Z</time>
      </trkpt>
      <trkpt lat="43.6301" lon="2.28821">
        <ele>201.4</ele>
        <time>2025-09-16T16:26:39Z</time>
      </trkpt>
      <trkpt lat="43.6301" lon="2.28812">
        <ele>201.4</ele>
        <time>2025-09-16T16:26:40Z</time>
      </trkpt>
      <trkpt lat="43.63009" lon="2.28805">
        <ele>201.4</ele>
        <time>2025-09-16T16:26:41Z</time>
      </trkpt>
      <trkpt lat="43.63009" lon="2.28798">
        <ele>201.4</ele>
        <time>2025-09-16T16:26:42Z</time>
      </trkpt>
      <trkpt lat="43.63008" lon="2.28791">
        <ele>201.4</ele>
        <time>2025-09-16T16:26:43Z</time>
      </trkpt>
      <trkpt lat="43.63007" lon="2.28784">
        <ele>201.4</ele>
        <time>2025-09-16T16:26:44Z</time>
      </trkpt>
      <trkpt lat="43.63006" lon="2.28777">
        <ele>201.6</ele>
        <time>2025-09-16T16:26:45Z</time>
      </trkpt>
      <trkpt lat="43.63005" lon="2.2877">
        <ele>201.6</ele>
        <time>2025-09-16T16:26:46Z</time>
      </trkpt>
      <trkpt lat="43.63004" lon="2.28763">
        <ele>201.6</ele>
        <time>2025-09-16T16:26:47Z</time>
      </trkpt>
      <trkpt lat="43.63004" lon="2.28756">
        <ele>201.8</ele>
        <time>2025-09-16T16:26:48Z</time>
      </trkpt>
      <trkpt lat="43.63004" lon="2.2875">
        <ele>201.8</ele>
        <time>2025-09-16T16:26:49Z</time>
      </trkpt>
      <trkpt lat="43.63004" lon="2.28743">
        <ele>201.8</ele>
        <time>2025-09-16T16:26:50Z</time>
      </trkpt>
      <trkpt lat="43.63003" lon="2.28736">
        <ele>201.8</ele>
        <time>2025-09-16T16:26:51Z</time>
      </trkpt>
      <trkpt lat="43.63003" lon="2.28729">
        <ele>201.8</ele>
        <time>2025-09-16T16:26:52Z</time>
      </trkpt>
      <trkpt lat="43.63002" lon="2.28721">
        <ele>201.6</ele>
        <time>2025-09-16T16:26:53Z</time>
      </trkpt>
      <trkpt lat="43.63001" lon="2.28714">
        <ele>201.6</ele>
        <time>2025-09-16T16:26:54Z</time>
      </trkpt>
      <trkpt lat="43.63001" lon="2.28706">
        <ele>201.4</ele>
        <time>2025-09-16T16:26:55Z</time>
      </trkpt>
      <trkpt lat="43.63001" lon="2.28699">
        <ele>201.4</ele>
        <time>2025-09-16T16:26:56Z</time>
      </trkpt>
      <trkpt lat="43.63001" lon="2.28692">
        <ele>201.4</ele>
        <time>2025-09-16T16:26:57Z</time>
      </trkpt>
      <trkpt lat="43.63001" lon="2.28685">
        <ele>201.4</ele>
        <time>2025-09-16T16:26:58Z</time>
      </trkpt>
      <trkpt lat="43.63001" lon="2.28678">
        <ele>201.2</ele>
        <time>2025-09-16T16:26:59Z</time>
      </trkpt>
      <trkpt lat="43.63001" lon="2.28671">
        <ele>201.2</ele>
        <time>2025-09-16T16:27:00Z</time>
      </trkpt>
      <trkpt lat="43.63001" lon="2.28664">
        <ele>201.2</ele>
        <time>2025-09-16T16:27:01Z</time>
      </trkpt>
      <trkpt lat="43.63001" lon="2.28658">
        <ele>201.2</ele>
        <time>2025-09-16T16:27:02Z</time>
      </trkpt>
      <trkpt lat="43.63001" lon="2.28651">
        <ele>201.2</ele>
        <time>2025-09-16T16:27:03Z</time>
      </trkpt>
      <trkpt lat="43.63001" lon="2.28644">
        <ele>201.2</ele>
        <time>2025-09-16T16:27:04Z</time>
      </trkpt>
      <trkpt lat="43.63" lon="2.28637">
        <ele>201.2</ele>
        <time>2025-09-16T16:27:05Z</time>
      </trkpt>
      <trkpt lat="43.62999" lon="2.2863">
        <ele>201.2</ele>
        <time>2025-09-16T16:27:06Z</time>
      </trkpt>
      <trkpt lat="43.62999" lon="2.28624">
        <ele>201.4</ele>
        <time>2025-09-16T16:27:07Z</time>
      </trkpt>
      <trkpt lat="43.62999" lon="2.28617">
        <ele>201.4</ele>
        <time>2025-09-16T16:27:08Z</time>
      </trkpt>
      <trkpt lat="43.62999" lon="2.2861">
        <ele>201.4</ele>
        <time>2025-09-16T16:27:09Z</time>
      </trkpt>
      <trkpt lat="43.62999" lon="2.28603">
        <ele>201.4</ele>
        <time>2025-09-16T16:27:10Z</time>
      </trkpt>
      <trkpt lat="43.62999" lon="2.28596">
        <ele>201.4</ele>
        <time>2025-09-16T16:27:11Z</time>
      </trkpt>
      <trkpt lat="43.62999" lon="2.28589">
        <ele>201.4</ele>
        <time>2025-09-16T16:27:12Z</time>
      </trkpt>
      <trkpt lat="43.62999" lon="2.28582">
        <ele>201.2</ele>
        <time>2025-09-16T16:27:13Z</time>
      </trkpt>
      <trkpt lat="43.62999" lon="2.28575">
        <ele>201.2</ele>
        <time>2025-09-16T16:27:14Z</time>
      </trkpt>
      <trkpt lat="43.62998" lon="2.2857">
        <ele>201</ele>
        <time>2025-09-16T16:27:15Z</time>
      </trkpt>
      <trkpt lat="43.62998" lon="2.28564">
        <ele>201</ele>
        <time>2025-09-16T16:27:16Z</time>
      </trkpt>
      <trkpt lat="43.62997" lon="2.28557">
        <ele>201</ele>
        <time>2025-09-16T16:27:17Z</time>
      </trkpt>
      <trkpt lat="43.62996" lon="2.2855">
        <ele>201</ele>
        <time>2025-09-16T16:27:18Z</time>
      </trkpt>
      <trkpt lat="43.62995" lon="2.28543">
        <ele>201</ele>
        <time>2025-09-16T16:27:19Z</time>
      </trkpt>
      <trkpt lat="43.62993" lon="2.28537">
        <ele>201</ele>
        <time>2025-09-16T16:27:20Z</time>
      </trkpt>
      <trkpt lat="43.62993" lon="2.28531">
        <ele>201.2</ele>
        <time>2025-09-16T16:27:21Z</time>
      </trkpt>
      <trkpt lat="43.62991" lon="2.28525">
        <ele>201.2</ele>
        <time>2025-09-16T16:27:22Z</time>
      </trkpt>
      <trkpt lat="43.62988" lon="2.28519">
        <ele>201.2</ele>
        <time>2025-09-16T16:27:23Z</time>
      </trkpt>
      <trkpt lat="43.62985" lon="2.28511">
        <ele>201.2</ele>
        <time>2025-09-16T16:27:24Z</time>
      </trkpt>
      <trkpt lat="43.62984" lon="2.28503">
        <ele>201.2</ele>
        <time>2025-09-16T16:27:25Z</time>
      </trkpt>
      <trkpt lat="43.62986" lon="2.28497">
        <ele>201.2</ele>
        <time>2025-09-16T16:27:26Z</time>
      </trkpt>
      <trkpt lat="43.62988" lon="2.28492">
        <ele>201.2</ele>
        <time>2025-09-16T16:27:27Z</time>
      </trkpt>
      <trkpt lat="43.62989" lon="2.28486">
        <ele>201.2</ele>
        <time>2025-09-16T16:27:28Z</time>
      </trkpt>
      <trkpt lat="43.6299" lon="2.2848">
        <ele>201.2</ele>
        <time>2025-09-16T16:27:29Z</time>
      </trkpt>
      <trkpt lat="43.62991" lon="2.28473">
        <ele>201.2</ele>
        <time>2025-09-16T16:27:30Z</time>
      </trkpt>
      <trkpt lat="43.62988" lon="2.28465">
        <ele>201.2</ele>
        <time>2025-09-16T16:27:31Z</time>
      </trkpt>
      <trkpt lat="43.62987" lon="2.28458">
        <ele>201.2</ele>
        <time>2025-09-16T16:27:32Z</time>
      </trkpt>
      <trkpt lat="43.62987" lon="2.28452">
        <ele>201.4</ele>
        <time>2025-09-16T16:27:33Z</time>
      </trkpt>
      <trkpt lat="43.62987" lon="2.28446">
        <ele>201.4</ele>
        <time>2025-09-16T16:27:34Z</time>
      </trkpt>
      <trkpt lat="43.62987" lon="2.28439">
        <ele>201.6</ele>
        <time>2025-09-16T16:27:35Z</time>
      </trkpt>
      <trkpt lat="43.62986" lon="2.28433">
        <ele>201.6</ele>
        <time>2025-09-16T16:27:36Z</time>
      </trkpt>
      <trkpt lat="43.62986" lon="2.28427">
        <ele>201.6</ele>
        <time>2025-09-16T16:27:37Z</time>
      </trkpt>
      <trkpt lat="43.62986" lon="2.28421">
        <ele>201.8</ele>
        <time>2025-09-16T16:27:38Z</time>
      </trkpt>
      <trkpt lat="43.62987" lon="2.28416">
        <ele>201.8</ele>
        <time>2025-09-16T16:27:39Z</time>
      </trkpt>
      <trkpt lat="43.62987" lon="2.2841">
        <ele>201.8</ele>
        <time>2025-09-16T16:27:40Z</time>
      </trkpt>
      <trkpt lat="43.62988" lon="2.28405">
        <ele>201.8</ele>
        <time>2025-09-16T16:27:41Z</time>
      </trkpt>
      <trkpt lat="43.6299" lon="2.284">
        <ele>201.8</ele>
        <time>2025-09-16T16:27:42Z</time>
      </trkpt>
      <trkpt lat="43.62992" lon="2.28394">
        <ele>201.8</ele>
        <time>2025-09-16T16:27:43Z</time>
      </trkpt>
      <trkpt lat="43.62993" lon="2.28388">
        <ele>201.8</ele>
        <time>2025-09-16T16:27:44Z</time>
      </trkpt>
      <trkpt lat="43.62993" lon="2.28382">
        <ele>201.8</ele>
        <time>2025-09-16T16:27:45Z</time>
      </trkpt>
      <trkpt lat="43.62994" lon="2.28375">
        <ele>201.8</ele>
        <time>2025-09-16T16:27:46Z</time>
      </trkpt>
      <trkpt lat="43.62996" lon="2.28369">
        <ele>201.8</ele>
        <time>2025-09-16T16:27:47Z</time>
      </trkpt>
      <trkpt lat="43.62997" lon="2.28363">
        <ele>201.8</ele>
        <time>2025-09-16T16:27:48Z</time>
      </trkpt>
      <trkpt lat="43.62999" lon="2.28357">
        <ele>201.6</ele>
        <time>2025-09-16T16:27:49Z</time>
      </trkpt>
      <trkpt lat="43.63001" lon="2.2835">
        <ele>201.6</ele>
        <time>2025-09-16T16:27:50Z</time>
      </trkpt>
      <trkpt lat="43.63002" lon="2.28343">
        <ele>201.6</ele>
        <time>2025-09-16T16:27:51Z</time>
      </trkpt>
      <trkpt lat="43.63002" lon="2.28336">
        <ele>201.6</ele>
        <time>2025-09-16T16:27:52Z</time>
      </trkpt>
      <trkpt lat="43.63003" lon="2.28329">
        <ele>201.6</ele>
        <time>2025-09-16T16:27:53Z</time>
      </trkpt>
      <trkpt lat="43.63004" lon="2.28322">
        <ele>201.6</ele>
        <time>2025-09-16T16:27:54Z</time>
      </trkpt>
      <trkpt lat="43.63005" lon="2.28316">
        <ele>201.6</ele>
        <time>2025-09-16T16:27:55Z</time>
      </trkpt>
      <trkpt lat="43.63006" lon="2.28308">
        <ele>201.6</ele>
        <time>2025-09-16T16:27:56Z</time>
      </trkpt>
      <trkpt lat="43.63007" lon="2.28301">
        <ele>201.4</ele>
        <time>2025-09-16T16:27:57Z</time>
      </trkpt>
      <trkpt lat="43.63007" lon="2.28295">
        <ele>201.4</ele>
        <time>2025-09-16T16:27:58Z</time>
      </trkpt>
      <trkpt lat="43.63008" lon="2.28287">
        <ele>201.4</ele>
        <time>2025-09-16T16:27:59Z</time>
      </trkpt>
      <trkpt lat="43.63009" lon="2.2828">
        <ele>201.4</ele>
        <time>2025-09-16T16:28:00Z</time>
      </trkpt>
      <trkpt lat="43.6301" lon="2.28273">
        <ele>201.4</ele>
        <time>2025-09-16T16:28:01Z</time>
      </trkpt>
      <trkpt lat="43.63011" lon="2.28266">
        <ele>201.4</ele>
        <time>2025-09-16T16:28:02Z</time>
      </trkpt>
      <trkpt lat="43.63011" lon="2.2826">
        <ele>201.4</ele>
        <time>2025-09-16T16:28:03Z</time>
      </trkpt>
      <trkpt lat="43.63011" lon="2.28253">
        <ele>201.4</ele>
        <time>2025-09-16T16:28:04Z</time>
      </trkpt>
      <trkpt lat="43.63011" lon="2.28244">
        <ele>201.4</ele>
        <time>2025-09-16T16:28:05Z</time>
      </trkpt>
      <trkpt lat="43.63011" lon="2.28237">
        <ele>201.4</ele>
        <time>2025-09-16T16:28:06Z</time>
      </trkpt>
      <trkpt lat="43.63012" lon="2.28231">
        <ele>201.4</ele>
        <time>2025-09-16T16:28:07Z</time>
      </trkpt>
      <trkpt lat="43.63012" lon="2.28225">
        <ele>201.6</ele>
        <time>2025-09-16T16:28:08Z</time>
      </trkpt>
      <trkpt lat="43.63011" lon="2.28219">
        <ele>201.6</ele>
        <time>2025-09-16T16:28:09Z</time>
      </trkpt>
      <trkpt lat="43.63009" lon="2.28213">
        <ele>201.8</ele>
        <time>2025-09-16T16:28:10Z</time>
      </trkpt>
      <trkpt lat="43.63006" lon="2.28207">
        <ele>201.8</ele>
        <time>2025-09-16T16:28:11Z</time>
      </trkpt>
      <trkpt lat="43.63004" lon="2.282">
        <ele>201.6</ele>
        <time>2025-09-16T16:28:12Z</time>
      </trkpt>
      <trkpt lat="43.63004" lon="2.28191">
        <ele>201.4</ele>
        <time>2025-09-16T16:28:13Z</time>
      </trkpt>
      <trkpt lat="43.63007" lon="2.28182">
        <ele>201.2</ele>
        <time>2025-09-16T16:28:14Z</time>
      </trkpt>
      <trkpt lat="43.63009" lon="2.28175">
        <ele>201</ele>
        <time>2025-09-16T16:28:15Z</time>
      </trkpt>
      <trkpt lat="43.63011" lon="2.28168">
        <ele>201</ele>
        <time>2025-09-16T16:28:16Z</time>
      </trkpt>
      <trkpt lat="43.63013" lon="2.28161">
        <ele>201</ele>
        <time>2025-09-16T16:28:17Z</time>
      </trkpt>
      <trkpt lat="43.63016" lon="2.28154">
        <ele>201</ele>
        <time>2025-09-16T16:28:18Z</time>
      </trkpt>
      <trkpt lat="43.63017" lon="2.28148">
        <ele>201</ele>
        <time>2025-09-16T16:28:19Z</time>
      </trkpt>
      <trkpt lat="43.63019" lon="2.28141">
        <ele>201</ele>
        <time>2025-09-16T16:28:20Z</time>
      </trkpt>
      <trkpt lat="43.63019" lon="2.28134">
        <ele>201</ele>
        <time>2025-09-16T16:28:21Z</time>
      </trkpt>
      <trkpt lat="43.6302" lon="2.28127">
        <ele>201</ele>
        <time>2025-09-16T16:28:22Z</time>
      </trkpt>
      <trkpt lat="43.6302" lon="2.28118">
        <ele>200.8</ele>
        <time>2025-09-16T16:28:23Z</time>
      </trkpt>
      <trkpt lat="43.63021" lon="2.2811">
        <ele>200.8</ele>
        <time>2025-09-16T16:28:24Z</time>
      </trkpt>
      <trkpt lat="43.63021" lon="2.28104">
        <ele>200.8</ele>
        <time>2025-09-16T16:28:25Z</time>
      </trkpt>
      <trkpt lat="43.63022" lon="2.28097">
        <ele>200.8</ele>
        <time>2025-09-16T16:28:26Z</time>
      </trkpt>
      <trkpt lat="43.63023" lon="2.28091">
        <ele>200.8</ele>
        <time>2025-09-16T16:28:27Z</time>
      </trkpt>
      <trkpt lat="43.63025" lon="2.28085">
        <ele>200.8</ele>
        <time>2025-09-16T16:28:28Z</time>
      </trkpt>
      <trkpt lat="43.63026" lon="2.28077">
        <ele>200.8</ele>
        <time>2025-09-16T16:28:29Z</time>
      </trkpt>
      <trkpt lat="43.63026" lon="2.2807">
        <ele>200.8</ele>
        <time>2025-09-16T16:28:30Z</time>
      </trkpt>
      <trkpt lat="43.63026" lon="2.28064">
        <ele>200.8</ele>
        <time>2025-09-16T16:28:31Z</time>
      </trkpt>
      <trkpt lat="43.63025" lon="2.28056">
        <ele>200.8</ele>
        <time>2025-09-16T16:28:32Z</time>
      </trkpt>
      <trkpt lat="43.63024" lon="2.28049">
        <ele>200.8</ele>
        <time>2025-09-16T16:28:33Z</time>
      </trkpt>
      <trkpt lat="43.63023" lon="2.28043">
        <ele>200.8</ele>
        <time>2025-09-16T16:28:34Z</time>
      </trkpt>
      <trkpt lat="43.63023" lon="2.28037">
        <ele>200.8</ele>
        <time>2025-09-16T16:28:35Z</time>
      </trkpt>
      <trkpt lat="43.63022" lon="2.28031">
        <ele>200.6</ele>
        <time>2025-09-16T16:28:36Z</time>
      </trkpt>
      <trkpt lat="43.63021" lon="2.28024">
        <ele>200.8</ele>
        <time>2025-09-16T16:28:37Z</time>
      </trkpt>
      <trkpt lat="43.6302" lon="2.28017">
        <ele>200.6</ele>
        <time>2025-09-16T16:28:38Z</time>
      </trkpt>
      <trkpt lat="43.6302" lon="2.28011">
        <ele>200.8</ele>
        <time>2025-09-16T16:28:39Z</time>
      </trkpt>
      <trkpt lat="43.6302" lon="2.28004">
        <ele>200.8</ele>
        <time>2025-09-16T16:28:40Z</time>
      </trkpt>
      <trkpt lat="43.63021" lon="2.27999">
        <ele>200.8</ele>
        <time>2025-09-16T16:28:41Z</time>
      </trkpt>
      <trkpt lat="43.63021" lon="2.27993">
        <ele>200.8</ele>
        <time>2025-09-16T16:28:42Z</time>
      </trkpt>
      <trkpt lat="43.63022" lon="2.27987">
        <ele>201</ele>
        <time>2025-09-16T16:28:43Z</time>
      </trkpt>
      <trkpt lat="43.63021" lon="2.2798">
        <ele>201</ele>
        <time>2025-09-16T16:28:44Z</time>
      </trkpt>
      <trkpt lat="43.63021" lon="2.27974">
        <ele>201</ele>
        <time>2025-09-16T16:28:45Z</time>
      </trkpt>
      <trkpt lat="43.63019" lon="2.27967">
        <ele>200.8</ele>
        <time>2025-09-16T16:28:46Z</time>
      </trkpt>
      <trkpt lat="43.63019" lon="2.27959">
        <ele>200.8</ele>
        <time>2025-09-16T16:28:47Z</time>
      </trkpt>
      <trkpt lat="43.63018" lon="2.27952">
        <ele>200.8</ele>
        <time>2025-09-16T16:28:48Z</time>
      </trkpt>
      <trkpt lat="43.63018" lon="2.27945">
        <ele>200.8</ele>
        <time>2025-09-16T16:28:49Z</time>
      </trkpt>
      <trkpt lat="43.63016" lon="2.27937">
        <ele>200.8</ele>
        <time>2025-09-16T16:28:50Z</time>
      </trkpt>
      <trkpt lat="43.63014" lon="2.27931">
        <ele>200.8</ele>
        <time>2025-09-16T16:28:51Z</time>
      </trkpt>
      <trkpt lat="43.63012" lon="2.27924">
        <ele>201</ele>
        <time>2025-09-16T16:28:52Z</time>
      </trkpt>
      <trkpt lat="43.63008" lon="2.27917">
        <ele>201</ele>
        <time>2025-09-16T16:28:53Z</time>
      </trkpt>
      <trkpt lat="43.63004" lon="2.27909">
        <ele>201</ele>
        <time>2025-09-16T16:28:54Z</time>
      </trkpt>
      <trkpt lat="43.63001" lon="2.27901">
        <ele>201</ele>
        <time>2025-09-16T16:28:55Z</time>
      </trkpt>
      <trkpt lat="43.62998" lon="2.27893">
        <ele>201</ele>
        <time>2025-09-16T16:28:56Z</time>
      </trkpt>
      <trkpt lat="43.62995" lon="2.27886">
        <ele>201.2</ele>
        <time>2025-09-16T16:28:57Z</time>
      </trkpt>
      <trkpt lat="43.62993" lon="2.2788">
        <ele>201.4</ele>
        <time>2025-09-16T16:28:58Z</time>
      </trkpt>
      <trkpt lat="43.62991" lon="2.27874">
        <ele>201.6</ele>
        <time>2025-09-16T16:28:59Z</time>
      </trkpt>
      <trkpt lat="43.62989" lon="2.27867">
        <ele>201.8</ele>
        <time>2025-09-16T16:29:00Z</time>
      </trkpt>
      <trkpt lat="43.62986" lon="2.27861">
        <ele>201.8</ele>
        <time>2025-09-16T16:29:01Z</time>
      </trkpt>
      <trkpt lat="43.62984" lon="2.27856">
        <ele>202.2</ele>
        <time>2025-09-16T16:29:02Z</time>
      </trkpt>
      <trkpt lat="43.62983" lon="2.2785">
        <ele>202.2</ele>
        <time>2025-09-16T16:29:03Z</time>
      </trkpt>
      <trkpt lat="43.62982" lon="2.27845">
        <ele>202.4</ele>
        <time>2025-09-16T16:29:04Z</time>
      </trkpt>
      <trkpt lat="43.62982" lon="2.2784">
        <ele>202.4</ele>
        <time>2025-09-16T16:29:05Z</time>
      </trkpt>
      <trkpt lat="43.6298" lon="2.27834">
        <ele>202.4</ele>
        <time>2025-09-16T16:29:06Z</time>
      </trkpt>
      <trkpt lat="43.62977" lon="2.27827">
        <ele>202.2</ele>
        <time>2025-09-16T16:29:07Z</time>
      </trkpt>
      <trkpt lat="43.62977" lon="2.27821">
        <ele>202</ele>
        <time>2025-09-16T16:29:08Z</time>
      </trkpt>
      <trkpt lat="43.62976" lon="2.27814">
        <ele>201.8</ele>
        <time>2025-09-16T16:29:09Z</time>
      </trkpt>
      <trkpt lat="43.62974" lon="2.27808">
        <ele>201.6</ele>
        <time>2025-09-16T16:29:10Z</time>
      </trkpt>
      <trkpt lat="43.62973" lon="2.27801">
        <ele>201.4</ele>
        <time>2025-09-16T16:29:11Z</time>
      </trkpt>
      <trkpt lat="43.6297" lon="2.27794">
        <ele>201.2</ele>
        <time>2025-09-16T16:29:12Z</time>
      </trkpt>
      <trkpt lat="43.62969" lon="2.27788">
        <ele>201.2</ele>
        <time>2025-09-16T16:29:13Z</time>
      </trkpt>
      <trkpt lat="43.62968" lon="2.27781">
        <ele>201</ele>
        <time>2025-09-16T16:29:14Z</time>
      </trkpt>
      <trkpt lat="43.62968" lon="2.27774">
        <ele>201</ele>
        <time>2025-09-16T16:29:15Z</time>
      </trkpt>
      <trkpt lat="43.62969" lon="2.27768">
        <ele>201</ele>
        <time>2025-09-16T16:29:16Z</time>
      </trkpt>
      <trkpt lat="43.62971" lon="2.27761">
        <ele>201</ele>
        <time>2025-09-16T16:29:17Z</time>
      </trkpt>
      <trkpt lat="43.62974" lon="2.27754">
        <ele>200.8</ele>
        <time>2025-09-16T16:29:18Z</time>
      </trkpt>
      <trkpt lat="43.62976" lon="2.27746">
        <ele>200.6</ele>
        <time>2025-09-16T16:29:19Z</time>
      </trkpt>
      <trkpt lat="43.62978" lon="2.27738">
        <ele>200</ele>
        <time>2025-09-16T16:29:20Z</time>
      </trkpt>
      <trkpt lat="43.62978" lon="2.27729">
        <ele>199.6</ele>
        <time>2025-09-16T16:29:21Z</time>
      </trkpt>
      <trkpt lat="43.62976" lon="2.2772">
        <ele>199.2</ele>
        <time>2025-09-16T16:29:22Z</time>
      </trkpt>
      <trkpt lat="43.62974" lon="2.27712">
        <ele>199</ele>
        <time>2025-09-16T16:29:23Z</time>
      </trkpt>
      <trkpt lat="43.62972" lon="2.27704">
        <ele>198.8</ele>
        <time>2025-09-16T16:29:24Z</time>
      </trkpt>
      <trkpt lat="43.6297" lon="2.27696">
        <ele>198.8</ele>
        <time>2025-09-16T16:29:25Z</time>
      </trkpt>
      <trkpt lat="43.62967" lon="2.27688">
        <ele>198.8</ele>
        <time>2025-09-16T16:29:26Z</time>
      </trkpt>
      <trkpt lat="43.62964" lon="2.2768">
        <ele>198.8</ele>
        <time>2025-09-16T16:29:27Z</time>
      </trkpt>
      <trkpt lat="43.62961" lon="2.27673">
        <ele>198.6</ele>
        <time>2025-09-16T16:29:28Z</time>
      </trkpt>
      <trkpt lat="43.62959" lon="2.27666">
        <ele>198.6</ele>
        <time>2025-09-16T16:29:29Z</time>
      </trkpt>
      <trkpt lat="43.62956" lon="2.27658">
        <ele>198.6</ele>
        <time>2025-09-16T16:29:30Z</time>
      </trkpt>
      <trkpt lat="43.62954" lon="2.2765">
        <ele>198.8</ele>
        <time>2025-09-16T16:29:31Z</time>
      </trkpt>
      <trkpt lat="43.62951" lon="2.27643">
        <ele>198.8</ele>
        <time>2025-09-16T16:29:32Z</time>
      </trkpt>
      <trkpt lat="43.62949" lon="2.27635">
        <ele>198.6</ele>
        <time>2025-09-16T16:29:33Z</time>
      </trkpt>
      <trkpt lat="43.62948" lon="2.27627">
        <ele>198.6</ele>
        <time>2025-09-16T16:29:34Z</time>
      </trkpt>
      <trkpt lat="43.62945" lon="2.27619">
        <ele>198.6</ele>
        <time>2025-09-16T16:29:35Z</time>
      </trkpt>
      <trkpt lat="43.62943" lon="2.27612">
        <ele>198.6</ele>
        <time>2025-09-16T16:29:36Z</time>
      </trkpt>
      <trkpt lat="43.6294" lon="2.27604">
        <ele>198.4</ele>
        <time>2025-09-16T16:29:37Z</time>
      </trkpt>
      <trkpt lat="43.62938" lon="2.27596">
        <ele>198.4</ele>
        <time>2025-09-16T16:29:38Z</time>
      </trkpt>
      <trkpt lat="43.62936" lon="2.27588">
        <ele>198.2</ele>
        <time>2025-09-16T16:29:39Z</time>
      </trkpt>
      <trkpt lat="43.62933" lon="2.2758">
        <ele>198.2</ele>
        <time>2025-09-16T16:29:40Z</time>
      </trkpt>
      <trkpt lat="43.62931" lon="2.27572">
        <ele>198.2</ele>
        <time>2025-09-16T16:29:41Z</time>
      </trkpt>
      <trkpt lat="43.62928" lon="2.27565">
        <ele>198.2</ele>
        <time>2025-09-16T16:29:42Z</time>
      </trkpt>
      <trkpt lat="43.62925" lon="2.27557">
        <ele>198.2</ele>
        <time>2025-09-16T16:29:43Z</time>
      </trkpt>
      <trkpt lat="43.62922" lon="2.27549">
        <ele>198.4</ele>
        <time>2025-09-16T16:29:44Z</time>
      </trkpt>
      <trkpt lat="43.6292" lon="2.27541">
        <ele>198.4</ele>
        <time>2025-09-16T16:29:45Z</time>
      </trkpt>
      <trkpt lat="43.62918" lon="2.27533">
        <ele>198.4</ele>
        <time>2025-09-16T16:29:46Z</time>
      </trkpt>
      <trkpt lat="43.62916" lon="2.27525">
        <ele>198.2</ele>
        <time>2025-09-16T16:29:47Z</time>
      </trkpt>
      <trkpt lat="43.62914" lon="2.27517">
        <ele>198.2</ele>
        <time>2025-09-16T16:29:48Z</time>
      </trkpt>
      <trkpt lat="43.62911" lon="2.27509">
        <ele>198.2</ele>
        <time>2025-09-16T16:29:49Z</time>
      </trkpt>
      <trkpt lat="43.62908" lon="2.27501">
        <ele>198</ele>
        <time>2025-09-16T16:29:50Z</time>
      </trkpt>
      <trkpt lat="43.62906" lon="2.27493">
        <ele>198</ele>
        <time>2025-09-16T16:29:51Z</time>
      </trkpt>
      <trkpt lat="43.62903" lon="2.27485">
        <ele>197.8</ele>
        <time>2025-09-16T16:29:52Z</time>
      </trkpt>
      <trkpt lat="43.629" lon="2.27477">
        <ele>197.8</ele>
        <time>2025-09-16T16:29:53Z</time>
      </trkpt>
      <trkpt lat="43.62898" lon="2.27469">
        <ele>197.6</ele>
        <time>2025-09-16T16:29:54Z</time>
      </trkpt>
      <trkpt lat="43.62895" lon="2.2746">
        <ele>197.6</ele>
        <time>2025-09-16T16:29:55Z</time>
      </trkpt>
      <trkpt lat="43.62892" lon="2.27452">
        <ele>197.6</ele>
        <time>2025-09-16T16:29:56Z</time>
      </trkpt>
      <trkpt lat="43.62889" lon="2.27444">
        <ele>197.6</ele>
        <time>2025-09-16T16:29:57Z</time>
      </trkpt>
      <trkpt lat="43.62886" lon="2.27436">
        <ele>197.6</ele>
        <time>2025-09-16T16:29:58Z</time>
      </trkpt>
      <trkpt lat="43.62884" lon="2.27428">
        <ele>197.6</ele>
        <time>2025-09-16T16:29:59Z</time>
      </trkpt>
      <trkpt lat="43.62881" lon="2.2742">
        <ele>197.6</ele>
        <time>2025-09-16T16:30:00Z</time>
      </trkpt>
      <trkpt lat="43.62879" lon="2.27412">
        <ele>197.6</ele>
        <time>2025-09-16T16:30:01Z</time>
      </trkpt>
      <trkpt lat="43.62877" lon="2.27404">
        <ele>197.6</ele>
        <time>2025-09-16T16:30:02Z</time>
      </trkpt>
      <trkpt lat="43.62874" lon="2.27396">
        <ele>197.6</ele>
        <time>2025-09-16T16:30:03Z</time>
      </trkpt>
      <trkpt lat="43.62871" lon="2.27389">
        <ele>197.6</ele>
        <time>2025-09-16T16:30:04Z</time>
      </trkpt>
      <trkpt lat="43.62869" lon="2.27382">
        <ele>197.6</ele>
        <time>2025-09-16T16:30:05Z</time>
      </trkpt>
      <trkpt lat="43.62867" lon="2.27374">
        <ele>197.6</ele>
        <time>2025-09-16T16:30:06Z</time>
      </trkpt>
      <trkpt lat="43.62864" lon="2.27367">
        <ele>197.4</ele>
        <time>2025-09-16T16:30:07Z</time>
      </trkpt>
      <trkpt lat="43.62862" lon="2.2736">
        <ele>197.4</ele>
        <time>2025-09-16T16:30:08Z</time>
      </trkpt>
      <trkpt lat="43.6286" lon="2.27354">
        <ele>197.4</ele>
        <time>2025-09-16T16:30:09Z</time>
      </trkpt>
      <trkpt lat="43.62858" lon="2.27348">
        <ele>197.4</ele>
        <time>2025-09-16T16:30:10Z</time>
      </trkpt>
      <trkpt lat="43.62856" lon="2.27341">
        <ele>197.4</ele>
        <time>2025-09-16T16:30:11Z</time>
      </trkpt>
      <trkpt lat="43.62858" lon="2.27337">
        <ele>197.2</ele>
        <time>2025-09-16T16:30:12Z</time>
      </trkpt>
      <trkpt lat="43.62862" lon="2.27335">
        <ele>197.2</ele>
        <time>2025-09-16T16:30:13Z</time>
      </trkpt>
      <trkpt lat="43.62866" lon="2.27335">
        <ele>197.2</ele>
        <time>2025-09-16T16:30:14Z</time>
      </trkpt>
      <trkpt lat="43.62871" lon="2.27336">
        <ele>197.2</ele>
        <time>2025-09-16T16:30:15Z</time>
      </trkpt>
      <trkpt lat="43.62876" lon="2.27338">
        <ele>197</ele>
        <time>2025-09-16T16:30:16Z</time>
      </trkpt>
      <trkpt lat="43.62881" lon="2.27339">
        <ele>197</ele>
        <time>2025-09-16T16:30:17Z</time>
      </trkpt>
      <trkpt lat="43.62887" lon="2.27341">
        <ele>196.8</ele>
        <time>2025-09-16T16:30:18Z</time>
      </trkpt>
      <trkpt lat="43.62892" lon="2.27343">
        <ele>196.6</ele>
        <time>2025-09-16T16:30:19Z</time>
      </trkpt>
      <trkpt lat="43.62898" lon="2.27345">
        <ele>196.4</ele>
        <time>2025-09-16T16:30:20Z</time>
      </trkpt>
      <trkpt lat="43.62904" lon="2.27347">
        <ele>196.2</ele>
        <time>2025-09-16T16:30:21Z</time>
      </trkpt>
      <trkpt lat="43.62909" lon="2.27349">
        <ele>196</ele>
        <time>2025-09-16T16:30:22Z</time>
      </trkpt>
      <trkpt lat="43.62915" lon="2.27351">
        <ele>196</ele>
        <time>2025-09-16T16:30:23Z</time>
      </trkpt>
      <trkpt lat="43.6292" lon="2.27353">
        <ele>196</ele>
        <time>2025-09-16T16:30:24Z</time>
      </trkpt>
      <trkpt lat="43.62926" lon="2.27355">
        <ele>196</ele>
        <time>2025-09-16T16:30:25Z</time>
      </trkpt>
      <trkpt lat="43.62932" lon="2.27357">
        <ele>196</ele>
        <time>2025-09-16T16:30:26Z</time>
      </trkpt>
      <trkpt lat="43.62937" lon="2.27358">
        <ele>196</ele>
        <time>2025-09-16T16:30:27Z</time>
      </trkpt>
      <trkpt lat="43.62943" lon="2.2736">
        <ele>196</ele>
        <time>2025-09-16T16:30:28Z</time>
      </trkpt>
      <trkpt lat="43.62949" lon="2.27362">
        <ele>196</ele>
        <time>2025-09-16T16:30:29Z</time>
      </trkpt>
      <trkpt lat="43.62955" lon="2.27364">
        <ele>196.2</ele>
        <time>2025-09-16T16:30:30Z</time>
      </trkpt>
      <trkpt lat="43.62961" lon="2.27366">
        <ele>196</ele>
        <time>2025-09-16T16:30:31Z</time>
      </trkpt>
      <trkpt lat="43.62967" lon="2.27368">
        <ele>196</ele>
        <time>2025-09-16T16:30:32Z</time>
      </trkpt>
      <trkpt lat="43.62973" lon="2.27371">
        <ele>195.8</ele>
        <time>2025-09-16T16:30:33Z</time>
      </trkpt>
      <trkpt lat="43.62978" lon="2.27373">
        <ele>195.6</ele>
        <time>2025-09-16T16:30:34Z</time>
      </trkpt>
      <trkpt lat="43.62984" lon="2.27374">
        <ele>195.2</ele>
        <time>2025-09-16T16:30:35Z</time>
      </trkpt>
      <trkpt lat="43.6299" lon="2.27375">
        <ele>195.2</ele>
        <time>2025-09-16T16:30:36Z</time>
      </trkpt>
      <trkpt lat="43.62996" lon="2.27376">
        <ele>194.8</ele>
        <time>2025-09-16T16:30:37Z</time>
      </trkpt>
      <trkpt lat="43.63001" lon="2.27377">
        <ele>194.6</ele>
        <time>2025-09-16T16:30:38Z</time>
      </trkpt>
      <trkpt lat="43.63007" lon="2.27378">
        <ele>194.4</ele>
        <time>2025-09-16T16:30:39Z</time>
      </trkpt>
      <trkpt lat="43.63012" lon="2.27378">
        <ele>194.2</ele>
        <time>2025-09-16T16:30:40Z</time>
      </trkpt>
      <trkpt lat="43.63018" lon="2.2738">
        <ele>194</ele>
        <time>2025-09-16T16:30:41Z</time>
      </trkpt>
      <trkpt lat="43.63024" lon="2.27381">
        <ele>193.8</ele>
        <time>2025-09-16T16:30:42Z</time>
      </trkpt>
      <trkpt lat="43.63031" lon="2.27383">
        <ele>193.6</ele>
        <time>2025-09-16T16:30:43Z</time>
      </trkpt>
      <trkpt lat="43.63037" lon="2.27385">
        <ele>193.2</ele>
        <time>2025-09-16T16:30:44Z</time>
      </trkpt>
      <trkpt lat="43.63044" lon="2.27387">
        <ele>193</ele>
        <time>2025-09-16T16:30:45Z</time>
      </trkpt>
      <trkpt lat="43.6305" lon="2.27389">
        <ele>192.4</ele>
        <time>2025-09-16T16:30:46Z</time>
      </trkpt>
      <trkpt lat="43.63057" lon="2.2739">
        <ele>191.8</ele>
        <time>2025-09-16T16:30:47Z</time>
      </trkpt>
      <trkpt lat="43.63064" lon="2.27389">
        <ele>191.2</ele>
        <time>2025-09-16T16:30:48Z</time>
      </trkpt>
      <trkpt lat="43.6307" lon="2.27384">
        <ele>190.8</ele>
        <time>2025-09-16T16:30:49Z</time>
      </trkpt>
      <trkpt lat="43.63074" lon="2.27376">
        <ele>190.6</ele>
        <time>2025-09-16T16:30:50Z</time>
      </trkpt>
      <trkpt lat="43.63076" lon="2.27368">
        <ele>190.4</ele>
        <time>2025-09-16T16:30:51Z</time>
      </trkpt>
      <trkpt lat="43.63076" lon="2.27359">
        <ele>190.6</ele>
        <time>2025-09-16T16:30:52Z</time>
      </trkpt>
      <trkpt lat="43.63076" lon="2.2735">
        <ele>190.8</ele>
        <time>2025-09-16T16:30:53Z</time>
      </trkpt>
      <trkpt lat="43.63075" lon="2.27341">
        <ele>191</ele>
        <time>2025-09-16T16:30:54Z</time>
      </trkpt>
      <trkpt lat="43.63075" lon="2.27333">
        <ele>191.2</ele>
        <time>2025-09-16T16:30:55Z</time>
      </trkpt>
      <trkpt lat="43.63074" lon="2.27325">
        <ele>191.4</ele>
        <time>2025-09-16T16:30:56Z</time>
      </trkpt>
      <trkpt lat="43.63073" lon="2.27317">
        <ele>191.6</ele>
        <time>2025-09-16T16:30:57Z</time>
      </trkpt>
      <trkpt lat="43.63073" lon="2.2731">
        <ele>191.8</ele>
        <time>2025-09-16T16:30:58Z</time>
      </trkpt>
      <trkpt lat="43.63073" lon="2.27302">
        <ele>192</ele>
        <time>2025-09-16T16:30:59Z</time>
      </trkpt>
      <trkpt lat="43.63072" lon="2.27295">
        <ele>192</ele>
        <time>2025-09-16T16:31:00Z</time>
      </trkpt>
      <trkpt lat="43.63071" lon="2.27288">
        <ele>192.2</ele>
        <time>2025-09-16T16:31:01Z</time>
      </trkpt>
      <trkpt lat="43.63071" lon="2.27281">
        <ele>192.4</ele>
        <time>2025-09-16T16:31:02Z</time>
      </trkpt>
      <trkpt lat="43.6307" lon="2.27275">
        <ele>192.4</ele>
        <time>2025-09-16T16:31:03Z</time>
      </trkpt>
      <trkpt lat="43.6307" lon="2.27268">
        <ele>192.6</ele>
        <time>2025-09-16T16:31:04Z</time>
      </trkpt>
      <trkpt lat="43.63069" lon="2.27261">
        <ele>192.6</ele>
        <time>2025-09-16T16:31:05Z</time>
      </trkpt>
      <trkpt lat="43.63069" lon="2.27254">
        <ele>192.8</ele>
        <time>2025-09-16T16:31:06Z</time>
      </trkpt>
      <trkpt lat="43.63068" lon="2.27248">
        <ele>192.8</ele>
        <time>2025-09-16T16:31:07Z</time>
      </trkpt>
      <trkpt lat="43.63068" lon="2.27241">
        <ele>193</ele>
        <time>2025-09-16T16:31:08Z</time>
      </trkpt>
      <trkpt lat="43.63067" lon="2.27234">
        <ele>193</ele>
        <time>2025-09-16T16:31:09Z</time>
      </trkpt>
      <trkpt lat="43.63067" lon="2.27227">
        <ele>193</ele>
        <time>2025-09-16T16:31:10Z</time>
      </trkpt>
      <trkpt lat="43.63066" lon="2.2722">
        <ele>193.2</ele>
        <time>2025-09-16T16:31:11Z</time>
      </trkpt>
      <trkpt lat="43.63066" lon="2.27213">
        <ele>193</ele>
        <time>2025-09-16T16:31:12Z</time>
      </trkpt>
      <trkpt lat="43.63065" lon="2.27206">
        <ele>193</ele>
        <time>2025-09-16T16:31:13Z</time>
      </trkpt>
      <trkpt lat="43.63064" lon="2.27199">
        <ele>193</ele>
        <time>2025-09-16T16:31:14Z</time>
      </trkpt>
      <trkpt lat="43.63064" lon="2.27192">
        <ele>193</ele>
        <time>2025-09-16T16:31:15Z</time>
      </trkpt>
      <trkpt lat="43.63063" lon="2.27185">
        <ele>193</ele>
        <time>2025-09-16T16:31:16Z</time>
      </trkpt>
      <trkpt lat="43.63063" lon="2.27177">
        <ele>193</ele>
        <time>2025-09-16T16:31:17Z</time>
      </trkpt>
      <trkpt lat="43.63063" lon="2.2717">
        <ele>193</ele>
        <time>2025-09-16T16:31:18Z</time>
      </trkpt>
      <trkpt lat="43.63063" lon="2.27163">
        <ele>192.8</ele>
        <time>2025-09-16T16:31:19Z</time>
      </trkpt>
      <trkpt lat="43.63063" lon="2.27155">
        <ele>192.8</ele>
        <time>2025-09-16T16:31:20Z</time>
      </trkpt>
      <trkpt lat="43.63062" lon="2.27148">
        <ele>192.8</ele>
        <time>2025-09-16T16:31:21Z</time>
      </trkpt>
      <trkpt lat="43.63062" lon="2.27141">
        <ele>192.6</ele>
        <time>2025-09-16T16:31:22Z</time>
      </trkpt>
      <trkpt lat="43.63061" lon="2.27133">
        <ele>192.6</ele>
        <time>2025-09-16T16:31:23Z</time>
      </trkpt>
      <trkpt lat="43.6306" lon="2.27126">
        <ele>192.6</ele>
        <time>2025-09-16T16:31:24Z</time>
      </trkpt>
      <trkpt lat="43.6306" lon="2.27119">
        <ele>192.4</ele>
        <time>2025-09-16T16:31:25Z</time>
      </trkpt>
      <trkpt lat="43.63059" lon="2.27112">
        <ele>192.4</ele>
        <time>2025-09-16T16:31:26Z</time>
      </trkpt>
      <trkpt lat="43.63059" lon="2.27105">
        <ele>192.2</ele>
        <time>2025-09-16T16:31:27Z</time>
      </trkpt>
      <trkpt lat="43.63059" lon="2.27097">
        <ele>192.2</ele>
        <time>2025-09-16T16:31:28Z</time>
      </trkpt>
      <trkpt lat="43.63059" lon="2.2709">
        <ele>192</ele>
        <time>2025-09-16T16:31:29Z</time>
      </trkpt>
      <trkpt lat="43.63058" lon="2.27082">
        <ele>191.8</ele>
        <time>2025-09-16T16:31:30Z</time>
      </trkpt>
      <trkpt lat="43.63057" lon="2.27075">
        <ele>191.8</ele>
        <time>2025-09-16T16:31:31Z</time>
      </trkpt>
      <trkpt lat="43.63057" lon="2.27067">
        <ele>191.8</ele>
        <time>2025-09-16T16:31:32Z</time>
      </trkpt>
      <trkpt lat="43.63056" lon="2.2706">
        <ele>191.6</ele>
        <time>2025-09-16T16:31:33Z</time>
      </trkpt>
      <trkpt lat="43.63056" lon="2.27052">
        <ele>191.6</ele>
        <time>2025-09-16T16:31:34Z</time>
      </trkpt>
      <trkpt lat="43.63055" lon="2.27045">
        <ele>191.4</ele>
        <time>2025-09-16T16:31:35Z</time>
      </trkpt>
      <trkpt lat="43.63055" lon="2.27037">
        <ele>191.2</ele>
        <time>2025-09-16T16:31:36Z</time>
      </trkpt>
      <trkpt lat="43.63054" lon="2.2703">
        <ele>191.2</ele>
        <time>2025-09-16T16:31:37Z</time>
      </trkpt>
      <trkpt lat="43.63053" lon="2.27022">
        <ele>191</ele>
        <time>2025-09-16T16:31:38Z</time>
      </trkpt>
      <trkpt lat="43.63052" lon="2.27015">
        <ele>191</ele>
        <time>2025-09-16T16:31:39Z</time>
      </trkpt>
      <trkpt lat="43.63052" lon="2.27007">
        <ele>191</ele>
        <time>2025-09-16T16:31:40Z</time>
      </trkpt>
      <trkpt lat="43.63051" lon="2.27">
        <ele>191</ele>
        <time>2025-09-16T16:31:41Z</time>
      </trkpt>
      <trkpt lat="43.6305" lon="2.26993">
        <ele>190.8</ele>
        <time>2025-09-16T16:31:42Z</time>
      </trkpt>
      <trkpt lat="43.6305" lon="2.26985">
        <ele>190.6</ele>
        <time>2025-09-16T16:31:43Z</time>
      </trkpt>
      <trkpt lat="43.6305" lon="2.26978">
        <ele>190.4</ele>
        <time>2025-09-16T16:31:44Z</time>
      </trkpt>
      <trkpt lat="43.6305" lon="2.2697">
        <ele>190.2</ele>
        <time>2025-09-16T16:31:45Z</time>
      </trkpt>
      <trkpt lat="43.6305" lon="2.26963">
        <ele>189.8</ele>
        <time>2025-09-16T16:31:46Z</time>
      </trkpt>
      <trkpt lat="43.63051" lon="2.26955">
        <ele>189</ele>
        <time>2025-09-16T16:31:47Z</time>
      </trkpt>
      <trkpt lat="43.63056" lon="2.26949">
        <ele>188.4</ele>
        <time>2025-09-16T16:31:48Z</time>
      </trkpt>
      <trkpt lat="43.63061" lon="2.26947">
        <ele>187.6</ele>
        <time>2025-09-16T16:31:49Z</time>
      </trkpt>
      <trkpt lat="43.63068" lon="2.26946">
        <ele>186.6</ele>
        <time>2025-09-16T16:31:50Z</time>
      </trkpt>
      <trkpt lat="43.63076" lon="2.26945">
        <ele>185.6</ele>
        <time>2025-09-16T16:31:51Z</time>
      </trkpt>
      <trkpt lat="43.63084" lon="2.26944">
        <ele>185</ele>
        <time>2025-09-16T16:31:52Z</time>
      </trkpt>
      <trkpt lat="43.63091" lon="2.26944">
        <ele>184.4</ele>
        <time>2025-09-16T16:31:53Z</time>
      </trkpt>
      <trkpt lat="43.63098" lon="2.26943">
        <ele>184.2</ele>
        <time>2025-09-16T16:31:54Z</time>
      </trkpt>
      <trkpt lat="43.63104" lon="2.26942">
        <ele>184.2</ele>
        <time>2025-09-16T16:31:55Z</time>
      </trkpt>
      <trkpt lat="43.63111" lon="2.26942">
        <ele>184.2</ele>
        <time>2025-09-16T16:31:56Z</time>
      </trkpt>
      <trkpt lat="43.63117" lon="2.26941">
        <ele>184.4</ele>
        <time>2025-09-16T16:31:57Z</time>
      </trkpt>
      <trkpt lat="43.63123" lon="2.2694">
        <ele>184.8</ele>
        <time>2025-09-16T16:31:58Z</time>
      </trkpt>
      <trkpt lat="43.6313" lon="2.26939">
        <ele>185</ele>
        <time>2025-09-16T16:31:59Z</time>
      </trkpt>
      <trkpt lat="43.63136" lon="2.26939">
        <ele>185.2</ele>
        <time>2025-09-16T16:32:00Z</time>
      </trkpt>
      <trkpt lat="43.63142" lon="2.26938">
        <ele>185.6</ele>
        <time>2025-09-16T16:32:01Z</time>
      </trkpt>
      <trkpt lat="43.63147" lon="2.26937">
        <ele>185.6</ele>
        <time>2025-09-16T16:32:02Z</time>
      </trkpt>
      <trkpt lat="43.63153" lon="2.26936">
        <ele>185.8</ele>
        <time>2025-09-16T16:32:03Z</time>
      </trkpt>
      <trkpt lat="43.63159" lon="2.26935">
        <ele>185.8</ele>
        <time>2025-09-16T16:32:04Z</time>
      </trkpt>
      <trkpt lat="43.63165" lon="2.26934">
        <ele>185.6</ele>
        <time>2025-09-16T16:32:05Z</time>
      </trkpt>
      <trkpt lat="43.63172" lon="2.26932">
        <ele>185.6</ele>
        <time>2025-09-16T16:32:06Z</time>
      </trkpt>
      <trkpt lat="43.63177" lon="2.26929">
        <ele>185.2</ele>
        <time>2025-09-16T16:32:07Z</time>
      </trkpt>
      <trkpt lat="43.63183" lon="2.26924">
        <ele>185</ele>
        <time>2025-09-16T16:32:08Z</time>
      </trkpt>
      <trkpt lat="43.63187" lon="2.26918">
        <ele>184.6</ele>
        <time>2025-09-16T16:32:09Z</time>
      </trkpt>
      <trkpt lat="43.6319" lon="2.2691">
        <ele>184.4</ele>
        <time>2025-09-16T16:32:10Z</time>
      </trkpt>
      <trkpt lat="43.63192" lon="2.26902">
        <ele>184.2</ele>
        <time>2025-09-16T16:32:11Z</time>
      </trkpt>
      <trkpt lat="43.63194" lon="2.26895">
        <ele>184</ele>
        <time>2025-09-16T16:32:12Z</time>
      </trkpt>
      <trkpt lat="43.63195" lon="2.26887">
        <ele>184</ele>
        <time>2025-09-16T16:32:13Z</time>
      </trkpt>
      <trkpt lat="43.63196" lon="2.26879">
        <ele>183.8</ele>
        <time>2025-09-16T16:32:14Z</time>
      </trkpt>
      <trkpt lat="43.63197" lon="2.2687">
        <ele>183.8</ele>
        <time>2025-09-16T16:32:15Z</time>
      </trkpt>
      <trkpt lat="43.63197" lon="2.26862">
        <ele>183.8</ele>
        <time>2025-09-16T16:32:16Z</time>
      </trkpt>
      <trkpt lat="43.63198" lon="2.26853">
        <ele>183.6</ele>
        <time>2025-09-16T16:32:17Z</time>
      </trkpt>
      <trkpt lat="43.63198" lon="2.26845">
        <ele>183.6</ele>
        <time>2025-09-16T16:32:18Z</time>
      </trkpt>
      <trkpt lat="43.63199" lon="2.26837">
        <ele>183.6</ele>
        <time>2025-09-16T16:32:19Z</time>
      </trkpt>
      <trkpt lat="43.63198" lon="2.26828">
        <ele>183.6</ele>
        <time>2025-09-16T16:32:20Z</time>
      </trkpt>
      <trkpt lat="43.63198" lon="2.2682">
        <ele>183.6</ele>
        <time>2025-09-16T16:32:21Z</time>
      </trkpt>
      <trkpt lat="43.63198" lon="2.26812">
        <ele>183.6</ele>
        <time>2025-09-16T16:32:22Z</time>
      </trkpt>
      <trkpt lat="43.63199" lon="2.26804">
        <ele>183.6</ele>
        <time>2025-09-16T16:32:23Z</time>
      </trkpt>
      <trkpt lat="43.632" lon="2.26796">
        <ele>183.8</ele>
        <time>2025-09-16T16:32:24Z</time>
      </trkpt>
      <trkpt lat="43.632" lon="2.26789">
        <ele>183.8</ele>
        <time>2025-09-16T16:32:25Z</time>
      </trkpt>
      <trkpt lat="43.632" lon="2.26781">
        <ele>183.8</ele>
        <time>2025-09-16T16:32:26Z</time>
      </trkpt>
      <trkpt lat="43.63199" lon="2.26773">
        <ele>183.8</ele>
        <time>2025-09-16T16:32:27Z</time>
      </trkpt>
      <trkpt lat="43.63199" lon="2.26765">
        <ele>183.8</ele>
        <time>2025-09-16T16:32:28Z</time>
      </trkpt>
      <trkpt lat="43.63199" lon="2.26757">
        <ele>183.8</ele>
        <time>2025-09-16T16:32:29Z</time>
      </trkpt>
      <trkpt lat="43.63198" lon="2.26749">
        <ele>183.8</ele>
        <time>2025-09-16T16:32:30Z</time>
      </trkpt>
      <trkpt lat="43.63198" lon="2.26741">
        <ele>183.6</ele>
        <time>2025-09-16T16:32:31Z</time>
      </trkpt>
      <trkpt lat="43.63197" lon="2.26734">
        <ele>183.8</ele>
        <time>2025-09-16T16:32:32Z</time>
      </trkpt>
      <trkpt lat="43.63197" lon="2.26726">
        <ele>183.8</ele>
        <time>2025-09-16T16:32:33Z</time>
      </trkpt>
      <trkpt lat="43.63196" lon="2.26718">
        <ele>183.8</ele>
        <time>2025-09-16T16:32:34Z</time>
      </trkpt>
      <trkpt lat="43.63196" lon="2.26711">
        <ele>184</ele>
        <time>2025-09-16T16:32:35Z</time>
      </trkpt>
      <trkpt lat="43.63195" lon="2.26704">
        <ele>184</ele>
        <time>2025-09-16T16:32:36Z</time>
      </trkpt>
      <trkpt lat="43.63193" lon="2.26697">
        <ele>184.2</ele>
        <time>2025-09-16T16:32:37Z</time>
      </trkpt>
      <trkpt lat="43.63192" lon="2.2669">
        <ele>184.2</ele>
        <time>2025-09-16T16:32:38Z</time>
      </trkpt>
      <trkpt lat="43.63194" lon="2.26683">
        <ele>184.2</ele>
        <time>2025-09-16T16:32:39Z</time>
      </trkpt>
      <trkpt lat="43.63196" lon="2.26675">
        <ele>184.2</ele>
        <time>2025-09-16T16:32:40Z</time>
      </trkpt>
      <trkpt lat="43.63196" lon="2.26667">
        <ele>184.2</ele>
        <time>2025-09-16T16:32:41Z</time>
      </trkpt>
      <trkpt lat="43.63196" lon="2.2666">
        <ele>184.2</ele>
        <time>2025-09-16T16:32:42Z</time>
      </trkpt>
      <trkpt lat="43.63195" lon="2.26653">
        <ele>184.2</ele>
        <time>2025-09-16T16:32:43Z</time>
      </trkpt>
      <trkpt lat="43.63195" lon="2.26646">
        <ele>184.2</ele>
        <time>2025-09-16T16:32:44Z</time>
      </trkpt>
      <trkpt lat="43.63194" lon="2.26639">
        <ele>184</ele>
        <time>2025-09-16T16:32:45Z</time>
      </trkpt>
      <trkpt lat="43.63193" lon="2.26632">
        <ele>184</ele>
        <time>2025-09-16T16:32:46Z</time>
      </trkpt>
      <trkpt lat="43.63192" lon="2.26625">
        <ele>184</ele>
        <time>2025-09-16T16:32:47Z</time>
      </trkpt>
      <trkpt lat="43.63191" lon="2.26618">
        <ele>183.8</ele>
        <time>2025-09-16T16:32:48Z</time>
      </trkpt>
      <trkpt lat="43.6319" lon="2.26611">
        <ele>183.8</ele>
        <time>2025-09-16T16:32:49Z</time>
      </trkpt>
      <trkpt lat="43.63188" lon="2.26604">
        <ele>184</ele>
        <time>2025-09-16T16:32:50Z</time>
      </trkpt>
      <trkpt lat="43.63186" lon="2.26596">
        <ele>184</ele>
        <time>2025-09-16T16:32:51Z</time>
      </trkpt>
      <trkpt lat="43.63184" lon="2.26589">
        <ele>184</ele>
        <time>2025-09-16T16:32:52Z</time>
      </trkpt>
      <trkpt lat="43.63183" lon="2.26582">
        <ele>184.2</ele>
        <time>2025-09-16T16:32:53Z</time>
      </trkpt>
      <trkpt lat="43.63182" lon="2.26575">
        <ele>184.2</ele>
        <time>2025-09-16T16:32:54Z</time>
      </trkpt>
      <trkpt lat="43.63181" lon="2.26568">
        <ele>184.4</ele>
        <time>2025-09-16T16:32:55Z</time>
      </trkpt>
      <trkpt lat="43.63181" lon="2.26562">
        <ele>184.4</ele>
        <time>2025-09-16T16:32:56Z</time>
      </trkpt>
      <trkpt lat="43.63181" lon="2.26555">
        <ele>184.4</ele>
        <time>2025-09-16T16:32:57Z</time>
      </trkpt>
      <trkpt lat="43.63181" lon="2.26549">
        <ele>184.6</ele>
        <time>2025-09-16T16:32:58Z</time>
      </trkpt>
      <trkpt lat="43.6318" lon="2.26541">
        <ele>184.6</ele>
        <time>2025-09-16T16:32:59Z</time>
      </trkpt>
      <trkpt lat="43.6318" lon="2.26534">
        <ele>184.6</ele>
        <time>2025-09-16T16:33:00Z</time>
      </trkpt>
      <trkpt lat="43.63179" lon="2.26528">
        <ele>184.6</ele>
        <time>2025-09-16T16:33:01Z</time>
      </trkpt>
      <trkpt lat="43.63179" lon="2.2652">
        <ele>184.4</ele>
        <time>2025-09-16T16:33:02Z</time>
      </trkpt>
      <trkpt lat="43.63178" lon="2.26513">
        <ele>184.4</ele>
        <time>2025-09-16T16:33:03Z</time>
      </trkpt>
      <trkpt lat="43.63177" lon="2.26506">
        <ele>184.4</ele>
        <time>2025-09-16T16:33:04Z</time>
      </trkpt>
      <trkpt lat="43.63177" lon="2.26499">
        <ele>184.2</ele>
        <time>2025-09-16T16:33:05Z</time>
      </trkpt>
      <trkpt lat="43.63176" lon="2.26492">
        <ele>184.2</ele>
        <time>2025-09-16T16:33:06Z</time>
      </trkpt>
      <trkpt lat="43.63175" lon="2.26485">
        <ele>184.2</ele>
        <time>2025-09-16T16:33:07Z</time>
      </trkpt>
      <trkpt lat="43.63173" lon="2.26478">
        <ele>184.2</ele>
        <time>2025-09-16T16:33:08Z</time>
      </trkpt>
      <trkpt lat="43.63172" lon="2.26471">
        <ele>184.2</ele>
        <time>2025-09-16T16:33:09Z</time>
      </trkpt>
      <trkpt lat="43.63169" lon="2.26465">
        <ele>184.2</ele>
        <time>2025-09-16T16:33:10Z</time>
      </trkpt>
      <trkpt lat="43.63167" lon="2.26459">
        <ele>184.2</ele>
        <time>2025-09-16T16:33:11Z</time>
      </trkpt>
      <trkpt lat="43.63165" lon="2.26453">
        <ele>184.4</ele>
        <time>2025-09-16T16:33:12Z</time>
      </trkpt>
      <trkpt lat="43.63163" lon="2.26446">
        <ele>184.6</ele>
        <time>2025-09-16T16:33:13Z</time>
      </trkpt>
      <trkpt lat="43.63161" lon="2.2644">
        <ele>184.6</ele>
        <time>2025-09-16T16:33:14Z</time>
      </trkpt>
      <trkpt lat="43.63159" lon="2.26434">
        <ele>184.8</ele>
        <time>2025-09-16T16:33:15Z</time>
      </trkpt>
      <trkpt lat="43.63158" lon="2.26427">
        <ele>184.8</ele>
        <time>2025-09-16T16:33:16Z</time>
      </trkpt>
      <trkpt lat="43.63157" lon="2.2642">
        <ele>184.8</ele>
        <time>2025-09-16T16:33:17Z</time>
      </trkpt>
      <trkpt lat="43.63156" lon="2.26413">
        <ele>184.8</ele>
        <time>2025-09-16T16:33:18Z</time>
      </trkpt>
      <trkpt lat="43.63156" lon="2.26406">
        <ele>184.8</ele>
        <time>2025-09-16T16:33:19Z</time>
      </trkpt>
      <trkpt lat="43.63155" lon="2.26399">
        <ele>184.8</ele>
        <time>2025-09-16T16:33:20Z</time>
      </trkpt>
      <trkpt lat="43.63155" lon="2.26392">
        <ele>184.8</ele>
        <time>2025-09-16T16:33:21Z</time>
      </trkpt>
      <trkpt lat="43.63153" lon="2.26385">
        <ele>184.6</ele>
        <time>2025-09-16T16:33:22Z</time>
      </trkpt>
      <trkpt lat="43.63152" lon="2.26378">
        <ele>184.6</ele>
        <time>2025-09-16T16:33:23Z</time>
      </trkpt>
      <trkpt lat="43.6315" lon="2.26372">
        <ele>184.6</ele>
        <time>2025-09-16T16:33:24Z</time>
      </trkpt>
      <trkpt lat="43.63148" lon="2.26365">
        <ele>184.6</ele>
        <time>2025-09-16T16:33:25Z</time>
      </trkpt>
      <trkpt lat="43.63146" lon="2.26359">
        <ele>184.6</ele>
        <time>2025-09-16T16:33:26Z</time>
      </trkpt>
      <trkpt lat="43.63144" lon="2.26353">
        <ele>184.6</ele>
        <time>2025-09-16T16:33:27Z</time>
      </trkpt>
      <trkpt lat="43.63143" lon="2.26347">
        <ele>184.8</ele>
        <time>2025-09-16T16:33:28Z</time>
      </trkpt>
      <trkpt lat="43.63141" lon="2.26341">
        <ele>184.8</ele>
        <time>2025-09-16T16:33:29Z</time>
      </trkpt>
      <trkpt lat="43.63139" lon="2.26334">
        <ele>184.8</ele>
        <time>2025-09-16T16:33:30Z</time>
      </trkpt>
      <trkpt lat="43.63138" lon="2.26327">
        <ele>184.8</ele>
        <time>2025-09-16T16:33:31Z</time>
      </trkpt>
      <trkpt lat="43.63138" lon="2.26321">
        <ele>184.8</ele>
        <time>2025-09-16T16:33:32Z</time>
      </trkpt>
      <trkpt lat="43.63137" lon="2.26314">
        <ele>184.8</ele>
        <time>2025-09-16T16:33:33Z</time>
      </trkpt>
      <trkpt lat="43.63137" lon="2.26308">
        <ele>184.8</ele>
        <time>2025-09-16T16:33:34Z</time>
      </trkpt>
      <trkpt lat="43.63137" lon="2.26301">
        <ele>184.8</ele>
        <time>2025-09-16T16:33:35Z</time>
      </trkpt>
      <trkpt lat="43.63136" lon="2.26295">
        <ele>184.8</ele>
        <time>2025-09-16T16:33:36Z</time>
      </trkpt>
      <trkpt lat="43.63136" lon="2.26289">
        <ele>185</ele>
        <time>2025-09-16T16:33:37Z</time>
      </trkpt>
      <trkpt lat="43.63136" lon="2.26282">
        <ele>185</ele>
        <time>2025-09-16T16:33:38Z</time>
      </trkpt>
      <trkpt lat="43.63136" lon="2.26276">
        <ele>185</ele>
        <time>2025-09-16T16:33:39Z</time>
      </trkpt>
      <trkpt lat="43.63135" lon="2.26269">
        <ele>184.8</ele>
        <time>2025-09-16T16:33:40Z</time>
      </trkpt>
      <trkpt lat="43.63135" lon="2.26262">
        <ele>184.8</ele>
        <time>2025-09-16T16:33:41Z</time>
      </trkpt>
      <trkpt lat="43.63134" lon="2.26256">
        <ele>184.8</ele>
        <time>2025-09-16T16:33:42Z</time>
      </trkpt>
      <trkpt lat="43.63132" lon="2.2625">
        <ele>184.8</ele>
        <time>2025-09-16T16:33:43Z</time>
      </trkpt>
      <trkpt lat="43.6313" lon="2.26244">
        <ele>184.8</ele>
        <time>2025-09-16T16:33:44Z</time>
      </trkpt>
      <trkpt lat="43.63128" lon="2.26238">
        <ele>184.8</ele>
        <time>2025-09-16T16:33:45Z</time>
      </trkpt>
      <trkpt lat="43.63125" lon="2.26232">
        <ele>184.8</ele>
        <time>2025-09-16T16:33:46Z</time>
      </trkpt>
      <trkpt lat="43.63122" lon="2.26227">
        <ele>184.8</ele>
        <time>2025-09-16T16:33:47Z</time>
      </trkpt>
      <trkpt lat="43.6312" lon="2.26221">
        <ele>184.6</ele>
        <time>2025-09-16T16:33:48Z</time>
      </trkpt>
      <trkpt lat="43.63118" lon="2.26213">
        <ele>184.6</ele>
        <time>2025-09-16T16:33:49Z</time>
      </trkpt>
      <trkpt lat="43.63117" lon="2.26206">
        <ele>184.4</ele>
        <time>2025-09-16T16:33:50Z</time>
      </trkpt>
      <trkpt lat="43.63116" lon="2.26199">
        <ele>184.2</ele>
        <time>2025-09-16T16:33:51Z</time>
      </trkpt>
      <trkpt lat="43.63115" lon="2.26191">
        <ele>184</ele>
        <time>2025-09-16T16:33:52Z</time>
      </trkpt>
      <trkpt lat="43.63114" lon="2.26184">
        <ele>183.8</ele>
        <time>2025-09-16T16:33:53Z</time>
      </trkpt>
      <trkpt lat="43.63113" lon="2.26177">
        <ele>183.8</ele>
        <time>2025-09-16T16:33:54Z</time>
      </trkpt>
      <trkpt lat="43.63112" lon="2.2617">
        <ele>183.6</ele>
        <time>2025-09-16T16:33:55Z</time>
      </trkpt>
      <trkpt lat="43.63111" lon="2.26161">
        <ele>183.6</ele>
        <time>2025-09-16T16:33:56Z</time>
      </trkpt>
      <trkpt lat="43.63108" lon="2.26154">
        <ele>183.4</ele>
        <time>2025-09-16T16:33:57Z</time>
      </trkpt>
      <trkpt lat="43.63106" lon="2.26147">
        <ele>183.2</ele>
        <time>2025-09-16T16:33:58Z</time>
      </trkpt>
      <trkpt lat="43.63102" lon="2.2614">
        <ele>183.2</ele>
        <time>2025-09-16T16:33:59Z</time>
      </trkpt>
      <trkpt lat="43.63099" lon="2.26134">
        <ele>183.2</ele>
        <time>2025-09-16T16:34:00Z</time>
      </trkpt>
      <trkpt lat="43.63096" lon="2.26128">
        <ele>183.2</ele>
        <time>2025-09-16T16:34:01Z</time>
      </trkpt>
      <trkpt lat="43.63094" lon="2.26121">
        <ele>183.4</ele>
        <time>2025-09-16T16:34:02Z</time>
      </trkpt>
      <trkpt lat="43.63092" lon="2.26115">
        <ele>183.4</ele>
        <time>2025-09-16T16:34:03Z</time>
      </trkpt>
      <trkpt lat="43.6309" lon="2.26108">
        <ele>183.4</ele>
        <time>2025-09-16T16:34:04Z</time>
      </trkpt>
      <trkpt lat="43.63087" lon="2.26102">
        <ele>183.6</ele>
        <time>2025-09-16T16:34:05Z</time>
      </trkpt>
      <trkpt lat="43.63084" lon="2.26096">
        <ele>183.6</ele>
        <time>2025-09-16T16:34:06Z</time>
      </trkpt>
      <trkpt lat="43.63081" lon="2.26091">
        <ele>183.6</ele>
        <time>2025-09-16T16:34:07Z</time>
      </trkpt>
      <trkpt lat="43.63078" lon="2.26085">
        <ele>183.6</ele>
        <time>2025-09-16T16:34:08Z</time>
      </trkpt>
      <trkpt lat="43.63074" lon="2.26079">
        <ele>183.6</ele>
        <time>2025-09-16T16:34:09Z</time>
      </trkpt>
      <trkpt lat="43.63071" lon="2.26074">
        <ele>183.6</ele>
        <time>2025-09-16T16:34:10Z</time>
      </trkpt>
      <trkpt lat="43.63067" lon="2.26068">
        <ele>183.6</ele>
        <time>2025-09-16T16:34:11Z</time>
      </trkpt>
      <trkpt lat="43.63064" lon="2.26063">
        <ele>183.6</ele>
        <time>2025-09-16T16:34:12Z</time>
      </trkpt>
      <trkpt lat="43.6306" lon="2.26057">
        <ele>183.6</ele>
        <time>2025-09-16T16:34:13Z</time>
      </trkpt>
      <trkpt lat="43.63057" lon="2.26051">
        <ele>183.6</ele>
        <time>2025-09-16T16:34:14Z</time>
      </trkpt>
      <trkpt lat="43.63055" lon="2.26044">
        <ele>183.6</ele>
        <time>2025-09-16T16:34:15Z</time>
      </trkpt>
      <trkpt lat="43.63052" lon="2.26038">
        <ele>183.6</ele>
        <time>2025-09-16T16:34:16Z</time>
      </trkpt>
      <trkpt lat="43.63048" lon="2.26032">
        <ele>183.4</ele>
        <time>2025-09-16T16:34:17Z</time>
      </trkpt>
      <trkpt lat="43.63045" lon="2.26026">
        <ele>183.4</ele>
        <time>2025-09-16T16:34:18Z</time>
      </trkpt>
      <trkpt lat="43.63042" lon="2.2602">
        <ele>183.2</ele>
        <time>2025-09-16T16:34:19Z</time>
      </trkpt>
      <trkpt lat="43.63038" lon="2.26013">
        <ele>182.8</ele>
        <time>2025-09-16T16:34:20Z</time>
      </trkpt>
      <trkpt lat="43.63033" lon="2.26007">
        <ele>182.6</ele>
        <time>2025-09-16T16:34:21Z</time>
      </trkpt>
      <trkpt lat="43.63028" lon="2.26">
        <ele>182.2</ele>
        <time>2025-09-16T16:34:22Z</time>
      </trkpt>
      <trkpt lat="43.63023" lon="2.25994">
        <ele>181.8</ele>
        <time>2025-09-16T16:34:23Z</time>
      </trkpt>
      <trkpt lat="43.63018" lon="2.25988">
        <ele>181.6</ele>
        <time>2025-09-16T16:34:24Z</time>
      </trkpt>
      <trkpt lat="43.63013" lon="2.25982">
        <ele>181.4</ele>
        <time>2025-09-16T16:34:25Z</time>
      </trkpt>
      <trkpt lat="43.63008" lon="2.25976">
        <ele>181.4</ele>
        <time>2025-09-16T16:34:26Z</time>
      </trkpt>
      <trkpt lat="43.63004" lon="2.2597">
        <ele>181.4</ele>
        <time>2025-09-16T16:34:27Z</time>
      </trkpt>
      <trkpt lat="43.62999" lon="2.25964">
        <ele>181.4</ele>
        <time>2025-09-16T16:34:28Z</time>
      </trkpt>
      <trkpt lat="43.62995" lon="2.25958">
        <ele>181.4</ele>
        <time>2025-09-16T16:34:29Z</time>
      </trkpt>
      <trkpt lat="43.6299" lon="2.25952">
        <ele>181.4</ele>
        <time>2025-09-16T16:34:30Z</time>
      </trkpt>
      <trkpt lat="43.62986" lon="2.25946">
        <ele>181.4</ele>
        <time>2025-09-16T16:34:31Z</time>
      </trkpt>
      <trkpt lat="43.62982" lon="2.2594">
        <ele>181.6</ele>
        <time>2025-09-16T16:34:32Z</time>
      </trkpt>
      <trkpt lat="43.62978" lon="2.25935">
        <ele>181.6</ele>
        <time>2025-09-16T16:34:33Z</time>
      </trkpt>
      <trkpt lat="43.62973" lon="2.2593">
        <ele>181.8</ele>
        <time>2025-09-16T16:34:34Z</time>
      </trkpt>
      <trkpt lat="43.62969" lon="2.25925">
        <ele>182</ele>
        <time>2025-09-16T16:34:35Z</time>
      </trkpt>
      <trkpt lat="43.62966" lon="2.2592">
        <ele>182</ele>
        <time>2025-09-16T16:34:36Z</time>
      </trkpt>
      <trkpt lat="43.62962" lon="2.25914">
        <ele>182.2</ele>
        <time>2025-09-16T16:34:37Z</time>
      </trkpt>
      <trkpt lat="43.62958" lon="2.25909">
        <ele>182.4</ele>
        <time>2025-09-16T16:34:38Z</time>
      </trkpt>
      <trkpt lat="43.62954" lon="2.25903">
        <ele>182.4</ele>
        <time>2025-09-16T16:34:39Z</time>
      </trkpt>
      <trkpt lat="43.62951" lon="2.25898">
        <ele>182.4</ele>
        <time>2025-09-16T16:34:40Z</time>
      </trkpt>
      <trkpt lat="43.62947" lon="2.25892">
        <ele>182.4</ele>
        <time>2025-09-16T16:34:41Z</time>
      </trkpt>
      <trkpt lat="43.62943" lon="2.25887">
        <ele>182.6</ele>
        <time>2025-09-16T16:34:42Z</time>
      </trkpt>
      <trkpt lat="43.6294" lon="2.25881">
        <ele>182.6</ele>
        <time>2025-09-16T16:34:43Z</time>
      </trkpt>
      <trkpt lat="43.62935" lon="2.25876">
        <ele>182.6</ele>
        <time>2025-09-16T16:34:44Z</time>
      </trkpt>
      <trkpt lat="43.62931" lon="2.25871">
        <ele>182.6</ele>
        <time>2025-09-16T16:34:45Z</time>
      </trkpt>
      <trkpt lat="43.62927" lon="2.25866">
        <ele>182.4</ele>
        <time>2025-09-16T16:34:46Z</time>
      </trkpt>
      <trkpt lat="43.62923" lon="2.25861">
        <ele>182.4</ele>
        <time>2025-09-16T16:34:47Z</time>
      </trkpt>
      <trkpt lat="43.62918" lon="2.25856">
        <ele>182.4</ele>
        <time>2025-09-16T16:34:48Z</time>
      </trkpt>
      <trkpt lat="43.62914" lon="2.25851">
        <ele>182.4</ele>
        <time>2025-09-16T16:34:49Z</time>
      </trkpt>
      <trkpt lat="43.6291" lon="2.25846">
        <ele>182.4</ele>
        <time>2025-09-16T16:34:50Z</time>
      </trkpt>
      <trkpt lat="43.62905" lon="2.25841">
        <ele>182.4</ele>
        <time>2025-09-16T16:34:51Z</time>
      </trkpt>
      <trkpt lat="43.62901" lon="2.25837">
        <ele>182.4</ele>
        <time>2025-09-16T16:34:52Z</time>
      </trkpt>
      <trkpt lat="43.62896" lon="2.25832">
        <ele>182.4</ele>
        <time>2025-09-16T16:34:53Z</time>
      </trkpt>
      <trkpt lat="43.62892" lon="2.25827">
        <ele>182.4</ele>
        <time>2025-09-16T16:34:54Z</time>
      </trkpt>
      <trkpt lat="43.62887" lon="2.25822">
        <ele>182.4</ele>
        <time>2025-09-16T16:34:55Z</time>
      </trkpt>
      <trkpt lat="43.62883" lon="2.25817">
        <ele>182.4</ele>
        <time>2025-09-16T16:34:56Z</time>
      </trkpt>
      <trkpt lat="43.62879" lon="2.25812">
        <ele>182.4</ele>
        <time>2025-09-16T16:34:57Z</time>
      </trkpt>
      <trkpt lat="43.62874" lon="2.25807">
        <ele>182.2</ele>
        <time>2025-09-16T16:34:58Z</time>
      </trkpt>
      <trkpt lat="43.6287" lon="2.25802">
        <ele>182.2</ele>
        <time>2025-09-16T16:34:59Z</time>
      </trkpt>
      <trkpt lat="43.62865" lon="2.25798">
        <ele>182.2</ele>
        <time>2025-09-16T16:35:00Z</time>
      </trkpt>
      <trkpt lat="43.6286" lon="2.25793">
        <ele>182.2</ele>
        <time>2025-09-16T16:35:01Z</time>
      </trkpt>
      <trkpt lat="43.62856" lon="2.25789">
        <ele>182.2</ele>
        <time>2025-09-16T16:35:02Z</time>
      </trkpt>
      <trkpt lat="43.62851" lon="2.25784">
        <ele>182.2</ele>
        <time>2025-09-16T16:35:03Z</time>
      </trkpt>
      <trkpt lat="43.62847" lon="2.25779">
        <ele>182.2</ele>
        <time>2025-09-16T16:35:04Z</time>
      </trkpt>
      <trkpt lat="43.62842" lon="2.25774">
        <ele>182.2</ele>
        <time>2025-09-16T16:35:05Z</time>
      </trkpt>
      <trkpt lat="43.62838" lon="2.2577">
        <ele>182.2</ele>
        <time>2025-09-16T16:35:06Z</time>
      </trkpt>
      <trkpt lat="43.62833" lon="2.25765">
        <ele>182.4</ele>
        <time>2025-09-16T16:35:07Z</time>
      </trkpt>
      <trkpt lat="43.62828" lon="2.25761">
        <ele>182.4</ele>
        <time>2025-09-16T16:35:08Z</time>
      </trkpt>
      <trkpt lat="43.62824" lon="2.25758">
        <ele>182.4</ele>
        <time>2025-09-16T16:35:09Z</time>
      </trkpt>
      <trkpt lat="43.62819" lon="2.25753">
        <ele>182.4</ele>
        <time>2025-09-16T16:35:10Z</time>
      </trkpt>
      <trkpt lat="43.62814" lon="2.25749">
        <ele>182.4</ele>
        <time>2025-09-16T16:35:11Z</time>
      </trkpt>
      <trkpt lat="43.62809" lon="2.25745">
        <ele>182.4</ele>
        <time>2025-09-16T16:35:12Z</time>
      </trkpt>
      <trkpt lat="43.62804" lon="2.25742">
        <ele>182.2</ele>
        <time>2025-09-16T16:35:13Z</time>
      </trkpt>
      <trkpt lat="43.628" lon="2.25738">
        <ele>182.2</ele>
        <time>2025-09-16T16:35:14Z</time>
      </trkpt>
      <trkpt lat="43.62795" lon="2.25733">
        <ele>182.2</ele>
        <time>2025-09-16T16:35:15Z</time>
      </trkpt>
      <trkpt lat="43.62791" lon="2.25728">
        <ele>182.2</ele>
        <time>2025-09-16T16:35:16Z</time>
      </trkpt>
      <trkpt lat="43.62787" lon="2.25724">
        <ele>182</ele>
        <time>2025-09-16T16:35:17Z</time>
      </trkpt>
      <trkpt lat="43.62783" lon="2.25718">
        <ele>182</ele>
        <time>2025-09-16T16:35:18Z</time>
      </trkpt>
      <trkpt lat="43.62779" lon="2.25713">
        <ele>181.8</ele>
        <time>2025-09-16T16:35:19Z</time>
      </trkpt>
      <trkpt lat="43.62774" lon="2.25708">
        <ele>181.8</ele>
        <time>2025-09-16T16:35:20Z</time>
      </trkpt>
      <trkpt lat="43.6277" lon="2.25703">
        <ele>181.6</ele>
        <time>2025-09-16T16:35:21Z</time>
      </trkpt>
      <trkpt lat="43.62765" lon="2.25699">
        <ele>181.6</ele>
        <time>2025-09-16T16:35:22Z</time>
      </trkpt>
      <trkpt lat="43.62761" lon="2.25694">
        <ele>181.4</ele>
        <time>2025-09-16T16:35:23Z</time>
      </trkpt>
      <trkpt lat="43.62756" lon="2.25689">
        <ele>181.4</ele>
        <time>2025-09-16T16:35:24Z</time>
      </trkpt>
      <trkpt lat="43.62751" lon="2.25684">
        <ele>181.4</ele>
        <time>2025-09-16T16:35:25Z</time>
      </trkpt>
      <trkpt lat="43.62747" lon="2.2568">
        <ele>181.2</ele>
        <time>2025-09-16T16:35:26Z</time>
      </trkpt>
      <trkpt lat="43.62742" lon="2.25676">
        <ele>181.2</ele>
        <time>2025-09-16T16:35:27Z</time>
      </trkpt>
      <trkpt lat="43.62737" lon="2.25673">
        <ele>181</ele>
        <time>2025-09-16T16:35:28Z</time>
      </trkpt>
      <trkpt lat="43.62732" lon="2.2567">
        <ele>181</ele>
        <time>2025-09-16T16:35:29Z</time>
      </trkpt>
      <trkpt lat="43.62727" lon="2.25667">
        <ele>181</ele>
        <time>2025-09-16T16:35:30Z</time>
      </trkpt>
      <trkpt lat="43.62721" lon="2.25664">
        <ele>180.8</ele>
        <time>2025-09-16T16:35:31Z</time>
      </trkpt>
      <trkpt lat="43.62716" lon="2.25662">
        <ele>181</ele>
        <time>2025-09-16T16:35:32Z</time>
      </trkpt>
      <trkpt lat="43.62711" lon="2.25659">
        <ele>181</ele>
        <time>2025-09-16T16:35:33Z</time>
      </trkpt>
      <trkpt lat="43.62706" lon="2.25656">
        <ele>181</ele>
        <time>2025-09-16T16:35:34Z</time>
      </trkpt>
      <trkpt lat="43.62701" lon="2.25653">
        <ele>181</ele>
        <time>2025-09-16T16:35:35Z</time>
      </trkpt>
      <trkpt lat="43.62697" lon="2.2565">
        <ele>181.2</ele>
        <time>2025-09-16T16:35:36Z</time>
      </trkpt>
      <trkpt lat="43.62692" lon="2.25648">
        <ele>181.2</ele>
        <time>2025-09-16T16:35:37Z</time>
      </trkpt>
      <trkpt lat="43.62687" lon="2.25645">
        <ele>181.4</ele>
        <time>2025-09-16T16:35:38Z</time>
      </trkpt>
      <trkpt lat="43.62682" lon="2.25643">
        <ele>181.4</ele>
        <time>2025-09-16T16:35:39Z</time>
      </trkpt>
      <trkpt lat="43.62677" lon="2.2564">
        <ele>181.2</ele>
        <time>2025-09-16T16:35:40Z</time>
      </trkpt>
      <trkpt lat="43.62672" lon="2.25638">
        <ele>181.2</ele>
        <time>2025-09-16T16:35:41Z</time>
      </trkpt>
      <trkpt lat="43.62667" lon="2.25635">
        <ele>181</ele>
        <time>2025-09-16T16:35:42Z</time>
      </trkpt>
      <trkpt lat="43.62662" lon="2.25632">
        <ele>180.8</ele>
        <time>2025-09-16T16:35:43Z</time>
      </trkpt>
      <trkpt lat="43.62657" lon="2.25628">
        <ele>180.4</ele>
        <time>2025-09-16T16:35:44Z</time>
      </trkpt>
      <trkpt lat="43.62652" lon="2.25624">
        <ele>180.2</ele>
        <time>2025-09-16T16:35:45Z</time>
      </trkpt>
      <trkpt lat="43.62646" lon="2.2562">
        <ele>179.6</ele>
        <time>2025-09-16T16:35:46Z</time>
      </trkpt>
      <trkpt lat="43.62639" lon="2.25616">
        <ele>179.2</ele>
        <time>2025-09-16T16:35:47Z</time>
      </trkpt>
      <trkpt lat="43.62633" lon="2.25613">
        <ele>178.6</ele>
        <time>2025-09-16T16:35:48Z</time>
      </trkpt>
      <trkpt lat="43.62626" lon="2.2561">
        <ele>177.8</ele>
        <time>2025-09-16T16:35:49Z</time>
      </trkpt>
      <trkpt lat="43.62619" lon="2.25606">
        <ele>177.2</ele>
        <time>2025-09-16T16:35:50Z</time>
      </trkpt>
      <trkpt lat="43.62612" lon="2.25604">
        <ele>176.6</ele>
        <time>2025-09-16T16:35:51Z</time>
      </trkpt>
      <trkpt lat="43.62605" lon="2.25602">
        <ele>176.2</ele>
        <time>2025-09-16T16:35:52Z</time>
      </trkpt>
      <trkpt lat="43.62598" lon="2.25601">
        <ele>176.2</ele>
        <time>2025-09-16T16:35:53Z</time>
      </trkpt>
      <trkpt lat="43.62591" lon="2.25602">
        <ele>176.2</ele>
        <time>2025-09-16T16:35:54Z</time>
      </trkpt>
      <trkpt lat="43.62585" lon="2.25602">
        <ele>176.2</ele>
        <time>2025-09-16T16:35:55Z</time>
      </trkpt>
      <trkpt lat="43.62579" lon="2.25602">
        <ele>176.2</ele>
        <time>2025-09-16T16:35:56Z</time>
      </trkpt>
      <trkpt lat="43.62572" lon="2.25603">
        <ele>176.4</ele>
        <time>2025-09-16T16:35:57Z</time>
      </trkpt>
      <trkpt lat="43.62566" lon="2.25604">
        <ele>176.4</ele>
        <time>2025-09-16T16:35:58Z</time>
      </trkpt>
      <trkpt lat="43.6256" lon="2.25604">
        <ele>176.4</ele>
        <time>2025-09-16T16:35:59Z</time>
      </trkpt>
      <trkpt lat="43.62554" lon="2.25605">
        <ele>176.4</ele>
        <time>2025-09-16T16:36:00Z</time>
      </trkpt>
      <trkpt lat="43.62548" lon="2.25606">
        <ele>176.4</ele>
        <time>2025-09-16T16:36:01Z</time>
      </trkpt>
      <trkpt lat="43.62542" lon="2.25607">
        <ele>176.4</ele>
        <time>2025-09-16T16:36:02Z</time>
      </trkpt>
      <trkpt lat="43.62536" lon="2.25608">
        <ele>176.4</ele>
        <time>2025-09-16T16:36:03Z</time>
      </trkpt>
      <trkpt lat="43.6253" lon="2.2561">
        <ele>176.4</ele>
        <time>2025-09-16T16:36:04Z</time>
      </trkpt>
      <trkpt lat="43.62524" lon="2.25612">
        <ele>176.4</ele>
        <time>2025-09-16T16:36:05Z</time>
      </trkpt>
      <trkpt lat="43.62519" lon="2.25614">
        <ele>176.4</ele>
        <time>2025-09-16T16:36:06Z</time>
      </trkpt>
      <trkpt lat="43.62513" lon="2.25617">
        <ele>176.4</ele>
        <time>2025-09-16T16:36:07Z</time>
      </trkpt>
      <trkpt lat="43.62507" lon="2.2562">
        <ele>176.4</ele>
        <time>2025-09-16T16:36:08Z</time>
      </trkpt>
      <trkpt lat="43.62501" lon="2.25622">
        <ele>176.4</ele>
        <time>2025-09-16T16:36:09Z</time>
      </trkpt>
      <trkpt lat="43.62495" lon="2.25625">
        <ele>176.4</ele>
        <time>2025-09-16T16:36:10Z</time>
      </trkpt>
      <trkpt lat="43.6249" lon="2.25628">
        <ele>176.6</ele>
        <time>2025-09-16T16:36:11Z</time>
      </trkpt>
      <trkpt lat="43.62484" lon="2.25631">
        <ele>176.6</ele>
        <time>2025-09-16T16:36:12Z</time>
      </trkpt>
      <trkpt lat="43.62479" lon="2.25634">
        <ele>176.8</ele>
        <time>2025-09-16T16:36:13Z</time>
      </trkpt>
      <trkpt lat="43.62474" lon="2.25638">
        <ele>177</ele>
        <time>2025-09-16T16:36:14Z</time>
      </trkpt>
      <trkpt lat="43.62468" lon="2.25641">
        <ele>177</ele>
        <time>2025-09-16T16:36:15Z</time>
      </trkpt>
      <trkpt lat="43.62464" lon="2.25645">
        <ele>177.2</ele>
        <time>2025-09-16T16:36:16Z</time>
      </trkpt>
      <trkpt lat="43.62459" lon="2.25648">
        <ele>177.4</ele>
        <time>2025-09-16T16:36:17Z</time>
      </trkpt>
      <trkpt lat="43.62455" lon="2.25652">
        <ele>177.6</ele>
        <time>2025-09-16T16:36:18Z</time>
      </trkpt>
      <trkpt lat="43.62451" lon="2.25656">
        <ele>177.8</ele>
        <time>2025-09-16T16:36:19Z</time>
      </trkpt>
      <trkpt lat="43.62447" lon="2.25661">
        <ele>178</ele>
        <time>2025-09-16T16:36:20Z</time>
      </trkpt>
      <trkpt lat="43.62443" lon="2.25665">
        <ele>178.2</ele>
        <time>2025-09-16T16:36:21Z</time>
      </trkpt>
      <trkpt lat="43.62439" lon="2.25668">
        <ele>178.2</ele>
        <time>2025-09-16T16:36:22Z</time>
      </trkpt>
      <trkpt lat="43.62435" lon="2.25672">
        <ele>178.2</ele>
        <time>2025-09-16T16:36:23Z</time>
      </trkpt>
      <trkpt lat="43.6243" lon="2.25675">
        <ele>178.4</ele>
        <time>2025-09-16T16:36:24Z</time>
      </trkpt>
      <trkpt lat="43.62426" lon="2.25678">
        <ele>178.4</ele>
        <time>2025-09-16T16:36:25Z</time>
      </trkpt>
      <trkpt lat="43.62421" lon="2.25682">
        <ele>178.6</ele>
        <time>2025-09-16T16:36:26Z</time>
      </trkpt>
      <trkpt lat="43.62417" lon="2.25685">
        <ele>178.6</ele>
        <time>2025-09-16T16:36:27Z</time>
      </trkpt>
      <trkpt lat="43.62412" lon="2.25687">
        <ele>178.6</ele>
        <time>2025-09-16T16:36:28Z</time>
      </trkpt>
      <trkpt lat="43.62408" lon="2.25689">
        <ele>178.8</ele>
        <time>2025-09-16T16:36:29Z</time>
      </trkpt>
      <trkpt lat="43.62403" lon="2.25692">
        <ele>178.8</ele>
        <time>2025-09-16T16:36:30Z</time>
      </trkpt>
      <trkpt lat="43.62398" lon="2.25694">
        <ele>178.8</ele>
        <time>2025-09-16T16:36:31Z</time>
      </trkpt>
      <trkpt lat="43.62393" lon="2.25695">
        <ele>179</ele>
        <time>2025-09-16T16:36:32Z</time>
      </trkpt>
      <trkpt lat="43.62388" lon="2.25697">
        <ele>179</ele>
        <time>2025-09-16T16:36:33Z</time>
      </trkpt>
      <trkpt lat="43.62383" lon="2.25698">
        <ele>179.2</ele>
        <time>2025-09-16T16:36:34Z</time>
      </trkpt>
      <trkpt lat="43.62379" lon="2.25699">
        <ele>179.6</ele>
        <time>2025-09-16T16:36:35Z</time>
      </trkpt>
      <trkpt lat="43.62374" lon="2.25699">
        <ele>179.8</ele>
        <time>2025-09-16T16:36:36Z</time>
      </trkpt>
      <trkpt lat="43.6237" lon="2.25698">
        <ele>180</ele>
        <time>2025-09-16T16:36:37Z</time>
      </trkpt>
      <trkpt lat="43.62366" lon="2.25698">
        <ele>180.2</ele>
        <time>2025-09-16T16:36:38Z</time>
      </trkpt>
      <trkpt lat="43.62362" lon="2.25696">
        <ele>180.4</ele>
        <time>2025-09-16T16:36:39Z</time>
      </trkpt>
      <trkpt lat="43.62357" lon="2.25694">
        <ele>180.4</ele>
        <time>2025-09-16T16:36:40Z</time>
      </trkpt>
      <trkpt lat="43.62353" lon="2.25692">
        <ele>180.2</ele>
        <time>2025-09-16T16:36:41Z</time>
      </trkpt>
      <trkpt lat="43.62348" lon="2.25689">
        <ele>180.2</ele>
        <time>2025-09-16T16:36:42Z</time>
      </trkpt>
      <trkpt lat="43.62344" lon="2.25686">
        <ele>179.8</ele>
        <time>2025-09-16T16:36:43Z</time>
      </trkpt>
      <trkpt lat="43.6234" lon="2.25682">
        <ele>179.6</ele>
        <time>2025-09-16T16:36:44Z</time>
      </trkpt>
      <trkpt lat="43.62335" lon="2.2568">
        <ele>179.6</ele>
        <time>2025-09-16T16:36:45Z</time>
      </trkpt>
      <trkpt lat="43.62331" lon="2.25677">
        <ele>179.6</ele>
        <time>2025-09-16T16:36:46Z</time>
      </trkpt>
      <trkpt lat="43.62326" lon="2.25675">
        <ele>179.6</ele>
        <time>2025-09-16T16:36:47Z</time>
      </trkpt>
      <trkpt lat="43.62322" lon="2.25673">
        <ele>179.8</ele>
        <time>2025-09-16T16:36:48Z</time>
      </trkpt>
      <trkpt lat="43.62318" lon="2.2567">
        <ele>179.8</ele>
        <time>2025-09-16T16:36:49Z</time>
      </trkpt>
      <trkpt lat="43.62314" lon="2.25668">
        <ele>179.8</ele>
        <time>2025-09-16T16:36:50Z</time>
      </trkpt>
      <trkpt lat="43.62309" lon="2.25666">
        <ele>180</ele>
        <time>2025-09-16T16:36:51Z</time>
      </trkpt>
      <trkpt lat="43.62305" lon="2.25664">
        <ele>179.8</ele>
        <time>2025-09-16T16:36:52Z</time>
      </trkpt>
      <trkpt lat="43.623" lon="2.25662">
        <ele>179.8</ele>
        <time>2025-09-16T16:36:53Z</time>
      </trkpt>
      <trkpt lat="43.62295" lon="2.25661">
        <ele>179.8</ele>
        <time>2025-09-16T16:36:54Z</time>
      </trkpt>
      <trkpt lat="43.6229" lon="2.25661">
        <ele>179.8</ele>
        <time>2025-09-16T16:36:55Z</time>
      </trkpt>
      <trkpt lat="43.62286" lon="2.2566">
        <ele>179.6</ele>
        <time>2025-09-16T16:36:56Z</time>
      </trkpt>
      <trkpt lat="43.62281" lon="2.25659">
        <ele>179.6</ele>
        <time>2025-09-16T16:36:57Z</time>
      </trkpt>
      <trkpt lat="43.62276" lon="2.25658">
        <ele>179.4</ele>
        <time>2025-09-16T16:36:58Z</time>
      </trkpt>
      <trkpt lat="43.62271" lon="2.25657">
        <ele>179.2</ele>
        <time>2025-09-16T16:36:59Z</time>
      </trkpt>
      <trkpt lat="43.62266" lon="2.25655">
        <ele>178.8</ele>
        <time>2025-09-16T16:37:00Z</time>
      </trkpt>
      <trkpt lat="43.62261" lon="2.25654">
        <ele>178.4</ele>
        <time>2025-09-16T16:37:01Z</time>
      </trkpt>
      <trkpt lat="43.62255" lon="2.25652">
        <ele>178.4</ele>
        <time>2025-09-16T16:37:02Z</time>
      </trkpt>
      <trkpt lat="43.62249" lon="2.25651">
        <ele>178.2</ele>
        <time>2025-09-16T16:37:03Z</time>
      </trkpt>
      <trkpt lat="43.62244" lon="2.2565">
        <ele>178</ele>
        <time>2025-09-16T16:37:04Z</time>
      </trkpt>
      <trkpt lat="43.62239" lon="2.25649">
        <ele>178</ele>
        <time>2025-09-16T16:37:05Z</time>
      </trkpt>
      <trkpt lat="43.62234" lon="2.25648">
        <ele>178</ele>
        <time>2025-09-16T16:37:06Z</time>
      </trkpt>
      <trkpt lat="43.62229" lon="2.25647">
        <ele>178</ele>
        <time>2025-09-16T16:37:07Z</time>
      </trkpt>
      <trkpt lat="43.62225" lon="2.25646">
        <ele>178</ele>
        <time>2025-09-16T16:37:08Z</time>
      </trkpt>
      <trkpt lat="43.6222" lon="2.25646">
        <ele>177.8</ele>
        <time>2025-09-16T16:37:09Z</time>
      </trkpt>
      <trkpt lat="43.62214" lon="2.25645">
        <ele>177.6</ele>
        <time>2025-09-16T16:37:10Z</time>
      </trkpt>
      <trkpt lat="43.62208" lon="2.25644">
        <ele>177.4</ele>
        <time>2025-09-16T16:37:11Z</time>
      </trkpt>
      <trkpt lat="43.62201" lon="2.25642">
        <ele>177</ele>
        <time>2025-09-16T16:37:12Z</time>
      </trkpt>
      <trkpt lat="43.62195" lon="2.2564">
        <ele>176.6</ele>
        <time>2025-09-16T16:37:13Z</time>
      </trkpt>
      <trkpt lat="43.62189" lon="2.25637">
        <ele>176.2</ele>
        <time>2025-09-16T16:37:14Z</time>
      </trkpt>
      <trkpt lat="43.62183" lon="2.25635">
        <ele>176</ele>
        <time>2025-09-16T16:37:15Z</time>
      </trkpt>
      <trkpt lat="43.62176" lon="2.25633">
        <ele>175.8</ele>
        <time>2025-09-16T16:37:16Z</time>
      </trkpt>
      <trkpt lat="43.6217" lon="2.25631">
        <ele>175.6</ele>
        <time>2025-09-16T16:37:17Z</time>
      </trkpt>
      <trkpt lat="43.62164" lon="2.25629">
        <ele>175.6</ele>
        <time>2025-09-16T16:37:18Z</time>
      </trkpt>
      <trkpt lat="43.62159" lon="2.25627">
        <ele>175.6</ele>
        <time>2025-09-16T16:37:19Z</time>
      </trkpt>
      <trkpt lat="43.62153" lon="2.25626">
        <ele>175.6</ele>
        <time>2025-09-16T16:37:20Z</time>
      </trkpt>
      <trkpt lat="43.62148" lon="2.25625">
        <ele>175.6</ele>
        <time>2025-09-16T16:37:21Z</time>
      </trkpt>
      <trkpt lat="43.62142" lon="2.25624">
        <ele>175.8</ele>
        <time>2025-09-16T16:37:22Z</time>
      </trkpt>
      <trkpt lat="43.62137" lon="2.25622">
        <ele>175.8</ele>
        <time>2025-09-16T16:37:23Z</time>
      </trkpt>
      <trkpt lat="43.62132" lon="2.25621">
        <ele>176</ele>
        <time>2025-09-16T16:37:24Z</time>
      </trkpt>
      <trkpt lat="43.62126" lon="2.25619">
        <ele>176</ele>
        <time>2025-09-16T16:37:25Z</time>
      </trkpt>
      <trkpt lat="43.62121" lon="2.25616">
        <ele>176</ele>
        <time>2025-09-16T16:37:26Z</time>
      </trkpt>
      <trkpt lat="43.62116" lon="2.25614">
        <ele>176</ele>
        <time>2025-09-16T16:37:27Z</time>
      </trkpt>
      <trkpt lat="43.6211" lon="2.25612">
        <ele>176</ele>
        <time>2025-09-16T16:37:28Z</time>
      </trkpt>
      <trkpt lat="43.62105" lon="2.2561">
        <ele>176</ele>
        <time>2025-09-16T16:37:29Z</time>
      </trkpt>
      <trkpt lat="43.621" lon="2.25609">
        <ele>176</ele>
        <time>2025-09-16T16:37:30Z</time>
      </trkpt>
      <trkpt lat="43.62094" lon="2.25607">
        <ele>175.8</ele>
        <time>2025-09-16T16:37:31Z</time>
      </trkpt>
      <trkpt lat="43.62089" lon="2.25606">
        <ele>175.8</ele>
        <time>2025-09-16T16:37:32Z</time>
      </trkpt>
      <trkpt lat="43.62084" lon="2.25604">
        <ele>175.8</ele>
        <time>2025-09-16T16:37:33Z</time>
      </trkpt>
      <trkpt lat="43.62079" lon="2.25602">
        <ele>175.8</ele>
        <time>2025-09-16T16:37:34Z</time>
      </trkpt>
      <trkpt lat="43.62074" lon="2.256">
        <ele>175.8</ele>
        <time>2025-09-16T16:37:35Z</time>
      </trkpt>
      <trkpt lat="43.62068" lon="2.25597">
        <ele>175.8</ele>
        <time>2025-09-16T16:37:36Z</time>
      </trkpt>
      <trkpt lat="43.62063" lon="2.25595">
        <ele>175.8</ele>
        <time>2025-09-16T16:37:37Z</time>
      </trkpt>
      <trkpt lat="43.62058" lon="2.25592">
        <ele>175.8</ele>
        <time>2025-09-16T16:37:38Z</time>
      </trkpt>
      <trkpt lat="43.62053" lon="2.25589">
        <ele>175.8</ele>
        <time>2025-09-16T16:37:39Z</time>
      </trkpt>
      <trkpt lat="43.62048" lon="2.25587">
        <ele>175.8</ele>
        <time>2025-09-16T16:37:40Z</time>
      </trkpt>
      <trkpt lat="43.62043" lon="2.25586">
        <ele>175.8</ele>
        <time>2025-09-16T16:37:41Z</time>
      </trkpt>
      <trkpt lat="43.62038" lon="2.25586">
        <ele>175.8</ele>
        <time>2025-09-16T16:37:42Z</time>
      </trkpt>
      <trkpt lat="43.62034" lon="2.25588">
        <ele>175.8</ele>
        <time>2025-09-16T16:37:43Z</time>
      </trkpt>
      <trkpt lat="43.62029" lon="2.2559">
        <ele>175.8</ele>
        <time>2025-09-16T16:37:44Z</time>
      </trkpt>
      <trkpt lat="43.62026" lon="2.25594">
        <ele>175.8</ele>
        <time>2025-09-16T16:37:45Z</time>
      </trkpt>
      <trkpt lat="43.62023" lon="2.25599">
        <ele>175.8</ele>
        <time>2025-09-16T16:37:46Z</time>
      </trkpt>
      <trkpt lat="43.62021" lon="2.25605">
        <ele>176</ele>
        <time>2025-09-16T16:37:47Z</time>
      </trkpt>
      <trkpt lat="43.6202" lon="2.25611">
        <ele>176</ele>
        <time>2025-09-16T16:37:48Z</time>
      </trkpt>
      <trkpt lat="43.62018" lon="2.25616">
        <ele>175.8</ele>
        <time>2025-09-16T16:37:49Z</time>
      </trkpt>
      <trkpt lat="43.62015" lon="2.2562">
        <ele>175.8</ele>
        <time>2025-09-16T16:37:50Z</time>
      </trkpt>
      <trkpt lat="43.62011" lon="2.25622">
        <ele>175.8</ele>
        <time>2025-09-16T16:37:51Z</time>
      </trkpt>
      <trkpt lat="43.62007" lon="2.25622">
        <ele>175.6</ele>
        <time>2025-09-16T16:37:52Z</time>
      </trkpt>
      <trkpt lat="43.62003" lon="2.25621">
        <ele>175.6</ele>
        <time>2025-09-16T16:37:53Z</time>
      </trkpt>
      <trkpt lat="43.61998" lon="2.25618">
        <ele>175.4</ele>
        <time>2025-09-16T16:37:54Z</time>
      </trkpt>
      <trkpt lat="43.61994" lon="2.25613">
        <ele>175.4</ele>
        <time>2025-09-16T16:37:55Z</time>
      </trkpt>
      <trkpt lat="43.61992" lon="2.25608">
        <ele>175.6</ele>
        <time>2025-09-16T16:37:56Z</time>
      </trkpt>
      <trkpt lat="43.61989" lon="2.25602">
        <ele>175.6</ele>
        <time>2025-09-16T16:37:57Z</time>
      </trkpt>
      <trkpt lat="43.61987" lon="2.25596">
        <ele>175.6</ele>
        <time>2025-09-16T16:37:58Z</time>
      </trkpt>
      <trkpt lat="43.61985" lon="2.2559">
        <ele>175.8</ele>
        <time>2025-09-16T16:37:59Z</time>
      </trkpt>
      <trkpt lat="43.61984" lon="2.25585">
        <ele>176</ele>
        <time>2025-09-16T16:38:00Z</time>
      </trkpt>
      <trkpt lat="43.61982" lon="2.25579">
        <ele>176</ele>
        <time>2025-09-16T16:38:01Z</time>
      </trkpt>
      <trkpt lat="43.6198" lon="2.25573">
        <ele>176.2</ele>
        <time>2025-09-16T16:38:02Z</time>
      </trkpt>
      <trkpt lat="43.61977" lon="2.25568">
        <ele>176.4</ele>
        <time>2025-09-16T16:38:03Z</time>
      </trkpt>
      <trkpt lat="43.61975" lon="2.25563">
        <ele>176.6</ele>
        <time>2025-09-16T16:38:04Z</time>
      </trkpt>
      <trkpt lat="43.61971" lon="2.25558">
        <ele>177</ele>
        <time>2025-09-16T16:38:05Z</time>
      </trkpt>
      <trkpt lat="43.61968" lon="2.25554">
        <ele>177.2</ele>
        <time>2025-09-16T16:38:06Z</time>
      </trkpt>
      <trkpt lat="43.61964" lon="2.2555">
        <ele>177.4</ele>
        <time>2025-09-16T16:38:07Z</time>
      </trkpt>
      <trkpt lat="43.6196" lon="2.25547">
        <ele>177.6</ele>
        <time>2025-09-16T16:38:08Z</time>
      </trkpt>
      <trkpt lat="43.61956" lon="2.25545">
        <ele>178</ele>
        <time>2025-09-16T16:38:09Z</time>
      </trkpt>
      <trkpt lat="43.61952" lon="2.25543">
        <ele>178.2</ele>
        <time>2025-09-16T16:38:10Z</time>
      </trkpt>
      <trkpt lat="43.61949" lon="2.25541">
        <ele>178.6</ele>
        <time>2025-09-16T16:38:11Z</time>
      </trkpt>
      <trkpt lat="43.61945" lon="2.2554">
        <ele>178.8</ele>
        <time>2025-09-16T16:38:12Z</time>
      </trkpt>
      <trkpt lat="43.61942" lon="2.25537">
        <ele>179</ele>
        <time>2025-09-16T16:38:13Z</time>
      </trkpt>
      <trkpt lat="43.61939" lon="2.25534">
        <ele>179.2</ele>
        <time>2025-09-16T16:38:14Z</time>
      </trkpt>
      <trkpt lat="43.61937" lon="2.25531">
        <ele>179.6</ele>
        <time>2025-09-16T16:38:15Z</time>
      </trkpt>
      <trkpt lat="43.61936" lon="2.25525">
        <ele>179.8</ele>
        <time>2025-09-16T16:38:16Z</time>
      </trkpt>
      <trkpt lat="43.61936" lon="2.25519">
        <ele>180</ele>
        <time>2025-09-16T16:38:17Z</time>
      </trkpt>
      <trkpt lat="43.61936" lon="2.25513">
        <ele>180.2</ele>
        <time>2025-09-16T16:38:18Z</time>
      </trkpt>
      <trkpt lat="43.61936" lon="2.25507">
        <ele>180.4</ele>
        <time>2025-09-16T16:38:19Z</time>
      </trkpt>
      <trkpt lat="43.61936" lon="2.25501">
        <ele>180.4</ele>
        <time>2025-09-16T16:38:20Z</time>
      </trkpt>
      <trkpt lat="43.61936" lon="2.25495">
        <ele>180.2</ele>
        <time>2025-09-16T16:38:21Z</time>
      </trkpt>
      <trkpt lat="43.61936" lon="2.25489">
        <ele>180.2</ele>
        <time>2025-09-16T16:38:22Z</time>
      </trkpt>
      <trkpt lat="43.61936" lon="2.25482">
        <ele>180.2</ele>
        <time>2025-09-16T16:38:23Z</time>
      </trkpt>
      <trkpt lat="43.61935" lon="2.25476">
        <ele>180</ele>
        <time>2025-09-16T16:38:24Z</time>
      </trkpt>
      <trkpt lat="43.61934" lon="2.2547">
        <ele>180</ele>
        <time>2025-09-16T16:38:25Z</time>
      </trkpt>
      <trkpt lat="43.61934" lon="2.25464">
        <ele>180</ele>
        <time>2025-09-16T16:38:26Z</time>
      </trkpt>
      <trkpt lat="43.61934" lon="2.25457">
        <ele>180</ele>
        <time>2025-09-16T16:38:27Z</time>
      </trkpt>
      <trkpt lat="43.61934" lon="2.25451">
        <ele>179.8</ele>
        <time>2025-09-16T16:38:28Z</time>
      </trkpt>
      <trkpt lat="43.61934" lon="2.25445">
        <ele>179.8</ele>
        <time>2025-09-16T16:38:29Z</time>
      </trkpt>
      <trkpt lat="43.61933" lon="2.25438">
        <ele>179.8</ele>
        <time>2025-09-16T16:38:30Z</time>
      </trkpt>
      <trkpt lat="43.61932" lon="2.25432">
        <ele>179.6</ele>
        <time>2025-09-16T16:38:31Z</time>
      </trkpt>
      <trkpt lat="43.61931" lon="2.25425">
        <ele>179.6</ele>
        <time>2025-09-16T16:38:32Z</time>
      </trkpt>
      <trkpt lat="43.61931" lon="2.25419">
        <ele>179.6</ele>
        <time>2025-09-16T16:38:33Z</time>
      </trkpt>
      <trkpt lat="43.61931" lon="2.25413">
        <ele>179.8</ele>
        <time>2025-09-16T16:38:34Z</time>
      </trkpt>
      <trkpt lat="43.61931" lon="2.25407">
        <ele>179.8</ele>
        <time>2025-09-16T16:38:35Z</time>
      </trkpt>
      <trkpt lat="43.61931" lon="2.25401">
        <ele>179.8</ele>
        <time>2025-09-16T16:38:36Z</time>
      </trkpt>
      <trkpt lat="43.6193" lon="2.25396">
        <ele>180</ele>
        <time>2025-09-16T16:38:37Z</time>
      </trkpt>
      <trkpt lat="43.6193" lon="2.2539">
        <ele>180</ele>
        <time>2025-09-16T16:38:38Z</time>
      </trkpt>
      <trkpt lat="43.61929" lon="2.25385">
        <ele>180</ele>
        <time>2025-09-16T16:38:39Z</time>
      </trkpt>
      <trkpt lat="43.61929" lon="2.25379">
        <ele>180</ele>
        <time>2025-09-16T16:38:40Z</time>
      </trkpt>
      <trkpt lat="43.61929" lon="2.25373">
        <ele>180</ele>
        <time>2025-09-16T16:38:41Z</time>
      </trkpt>
      <trkpt lat="43.61929" lon="2.25368">
        <ele>180</ele>
        <time>2025-09-16T16:38:42Z</time>
      </trkpt>
      <trkpt lat="43.6193" lon="2.25362">
        <ele>180</ele>
        <time>2025-09-16T16:38:43Z</time>
      </trkpt>
      <trkpt lat="43.61929" lon="2.25357">
        <ele>180</ele>
        <time>2025-09-16T16:38:44Z</time>
      </trkpt>
      <trkpt lat="43.61929" lon="2.25351">
        <ele>180</ele>
        <time>2025-09-16T16:38:45Z</time>
      </trkpt>
      <trkpt lat="43.61929" lon="2.25346">
        <ele>180</ele>
        <time>2025-09-16T16:38:46Z</time>
      </trkpt>
      <trkpt lat="43.61929" lon="2.2534">
        <ele>180</ele>
        <time>2025-09-16T16:38:47Z</time>
      </trkpt>
      <trkpt lat="43.6193" lon="2.25334">
        <ele>180</ele>
        <time>2025-09-16T16:38:48Z</time>
      </trkpt>
      <trkpt lat="43.61931" lon="2.25329">
        <ele>180</ele>
        <time>2025-09-16T16:38:49Z</time>
      </trkpt>
      <trkpt lat="43.61932" lon="2.25323">
        <ele>180</ele>
        <time>2025-09-16T16:38:50Z</time>
      </trkpt>
      <trkpt lat="43.61933" lon="2.25318">
        <ele>179.8</ele>
        <time>2025-09-16T16:38:51Z</time>
      </trkpt>
      <trkpt lat="43.61935" lon="2.25313">
        <ele>179.8</ele>
        <time>2025-09-16T16:38:52Z</time>
      </trkpt>
      <trkpt lat="43.61936" lon="2.25308">
        <ele>179.8</ele>
        <time>2025-09-16T16:38:53Z</time>
      </trkpt>
      <trkpt lat="43.61937" lon="2.25303">
        <ele>179.8</ele>
        <time>2025-09-16T16:38:54Z</time>
      </trkpt>
      <trkpt lat="43.61938" lon="2.25297">
        <ele>179.8</ele>
        <time>2025-09-16T16:38:55Z</time>
      </trkpt>
      <trkpt lat="43.61938" lon="2.25292">
        <ele>179.8</ele>
        <time>2025-09-16T16:38:56Z</time>
      </trkpt>
      <trkpt lat="43.61939" lon="2.25286">
        <ele>179.8</ele>
        <time>2025-09-16T16:38:57Z</time>
      </trkpt>
      <trkpt lat="43.6194" lon="2.2528">
        <ele>179.8</ele>
        <time>2025-09-16T16:38:58Z</time>
      </trkpt>
      <trkpt lat="43.61942" lon="2.25274">
        <ele>179.8</ele>
        <time>2025-09-16T16:38:59Z</time>
      </trkpt>
      <trkpt lat="43.61943" lon="2.25268">
        <ele>179.8</ele>
        <time>2025-09-16T16:39:00Z</time>
      </trkpt>
      <trkpt lat="43.61943" lon="2.25262">
        <ele>179.8</ele>
        <time>2025-09-16T16:39:01Z</time>
      </trkpt>
      <trkpt lat="43.61944" lon="2.25256">
        <ele>179.6</ele>
        <time>2025-09-16T16:39:02Z</time>
      </trkpt>
      <trkpt lat="43.61945" lon="2.2525">
        <ele>179.6</ele>
        <time>2025-09-16T16:39:03Z</time>
      </trkpt>
      <trkpt lat="43.61946" lon="2.25243">
        <ele>179.6</ele>
        <time>2025-09-16T16:39:04Z</time>
      </trkpt>
      <trkpt lat="43.61947" lon="2.25237">
        <ele>179.6</ele>
        <time>2025-09-16T16:39:05Z</time>
      </trkpt>
      <trkpt lat="43.61947" lon="2.25231">
        <ele>179.6</ele>
        <time>2025-09-16T16:39:06Z</time>
      </trkpt>
      <trkpt lat="43.61948" lon="2.25225">
        <ele>179.6</ele>
        <time>2025-09-16T16:39:07Z</time>
      </trkpt>
      <trkpt lat="43.61949" lon="2.2522">
        <ele>179.6</ele>
        <time>2025-09-16T16:39:08Z</time>
      </trkpt>
      <trkpt lat="43.6195" lon="2.25214">
        <ele>179.6</ele>
        <time>2025-09-16T16:39:09Z</time>
      </trkpt>
      <trkpt lat="43.61952" lon="2.25208">
        <ele>179.6</ele>
        <time>2025-09-16T16:39:10Z</time>
      </trkpt>
      <trkpt lat="43.61953" lon="2.25202">
        <ele>179.6</ele>
        <time>2025-09-16T16:39:11Z</time>
      </trkpt>
      <trkpt lat="43.61954" lon="2.25196">
        <ele>179.6</ele>
        <time>2025-09-16T16:39:12Z</time>
      </trkpt>
      <trkpt lat="43.61956" lon="2.2519">
        <ele>179.6</ele>
        <time>2025-09-16T16:39:13Z</time>
      </trkpt>
      <trkpt lat="43.61957" lon="2.25184">
        <ele>179.4</ele>
        <time>2025-09-16T16:39:14Z</time>
      </trkpt>
      <trkpt lat="43.61959" lon="2.25178">
        <ele>179.4</ele>
        <time>2025-09-16T16:39:15Z</time>
      </trkpt>
      <trkpt lat="43.6196" lon="2.25172">
        <ele>179.4</ele>
        <time>2025-09-16T16:39:16Z</time>
      </trkpt>
      <trkpt lat="43.61961" lon="2.25166">
        <ele>179.4</ele>
        <time>2025-09-16T16:39:17Z</time>
      </trkpt>
      <trkpt lat="43.61961" lon="2.25159">
        <ele>179.2</ele>
        <time>2025-09-16T16:39:18Z</time>
      </trkpt>
      <trkpt lat="43.61962" lon="2.25153">
        <ele>179.2</ele>
        <time>2025-09-16T16:39:19Z</time>
      </trkpt>
      <trkpt lat="43.61963" lon="2.25147">
        <ele>179.4</ele>
        <time>2025-09-16T16:39:20Z</time>
      </trkpt>
      <trkpt lat="43.61963" lon="2.2514">
        <ele>179.2</ele>
        <time>2025-09-16T16:39:21Z</time>
      </trkpt>
      <trkpt lat="43.61963" lon="2.25133">
        <ele>179.2</ele>
        <time>2025-09-16T16:39:22Z</time>
      </trkpt>
      <trkpt lat="43.61963" lon="2.25126">
        <ele>179.2</ele>
        <time>2025-09-16T16:39:23Z</time>
      </trkpt>
      <trkpt lat="43.61965" lon="2.2512">
        <ele>179</ele>
        <time>2025-09-16T16:39:24Z</time>
      </trkpt>
      <trkpt lat="43.61966" lon="2.25113">
        <ele>178.8</ele>
        <time>2025-09-16T16:39:25Z</time>
      </trkpt>
      <trkpt lat="43.61968" lon="2.25107">
        <ele>178.8</ele>
        <time>2025-09-16T16:39:26Z</time>
      </trkpt>
      <trkpt lat="43.61969" lon="2.25101">
        <ele>178.6</ele>
        <time>2025-09-16T16:39:27Z</time>
      </trkpt>
      <trkpt lat="43.61969" lon="2.25095">
        <ele>178.4</ele>
        <time>2025-09-16T16:39:28Z</time>
      </trkpt>
      <trkpt lat="43.61968" lon="2.25088">
        <ele>178.4</ele>
        <time>2025-09-16T16:39:29Z</time>
      </trkpt>
      <trkpt lat="43.61966" lon="2.25083">
        <ele>178.4</ele>
        <time>2025-09-16T16:39:30Z</time>
      </trkpt>
      <trkpt lat="43.61962" lon="2.25078">
        <ele>178.6</ele>
        <time>2025-09-16T16:39:31Z</time>
      </trkpt>
      <trkpt lat="43.61958" lon="2.25075">
        <ele>178.6</ele>
        <time>2025-09-16T16:39:32Z</time>
      </trkpt>
      <trkpt lat="43.61954" lon="2.25072">
        <ele>178.8</ele>
        <time>2025-09-16T16:39:33Z</time>
      </trkpt>
      <trkpt lat="43.6195" lon="2.25069">
        <ele>178.8</ele>
        <time>2025-09-16T16:39:34Z</time>
      </trkpt>
      <trkpt lat="43.61946" lon="2.25066">
        <ele>179</ele>
        <time>2025-09-16T16:39:35Z</time>
      </trkpt>
      <trkpt lat="43.61942" lon="2.25063">
        <ele>179</ele>
        <time>2025-09-16T16:39:36Z</time>
      </trkpt>
      <trkpt lat="43.6194" lon="2.25059">
        <ele>179</ele>
        <time>2025-09-16T16:39:37Z</time>
      </trkpt>
      <trkpt lat="43.61938" lon="2.25054">
        <ele>179</ele>
        <time>2025-09-16T16:39:38Z</time>
      </trkpt>
      <trkpt lat="43.61937" lon="2.25048">
        <ele>179</ele>
        <time>2025-09-16T16:39:39Z</time>
      </trkpt>
      <trkpt lat="43.61936" lon="2.25041">
        <ele>178.8</ele>
        <time>2025-09-16T16:39:40Z</time>
      </trkpt>
      <trkpt lat="43.61936" lon="2.25035">
        <ele>178.6</ele>
        <time>2025-09-16T16:39:41Z</time>
      </trkpt>
      <trkpt lat="43.61936" lon="2.25028">
        <ele>178.6</ele>
        <time>2025-09-16T16:39:42Z</time>
      </trkpt>
      <trkpt lat="43.61937" lon="2.25021">
        <ele>178.4</ele>
        <time>2025-09-16T16:39:43Z</time>
      </trkpt>
      <trkpt lat="43.61938" lon="2.25015">
        <ele>178.2</ele>
        <time>2025-09-16T16:39:44Z</time>
      </trkpt>
      <trkpt lat="43.61939" lon="2.25009">
        <ele>178.2</ele>
        <time>2025-09-16T16:39:45Z</time>
      </trkpt>
      <trkpt lat="43.6194" lon="2.25002">
        <ele>178</ele>
        <time>2025-09-16T16:39:46Z</time>
      </trkpt>
      <trkpt lat="43.61941" lon="2.24996">
        <ele>178</ele>
        <time>2025-09-16T16:39:47Z</time>
      </trkpt>
      <trkpt lat="43.61942" lon="2.2499">
        <ele>178</ele>
        <time>2025-09-16T16:39:48Z</time>
      </trkpt>
      <trkpt lat="43.61943" lon="2.24984">
        <ele>178</ele>
        <time>2025-09-16T16:39:49Z</time>
      </trkpt>
      <trkpt lat="43.61944" lon="2.24977">
        <ele>178</ele>
        <time>2025-09-16T16:39:50Z</time>
      </trkpt>
      <trkpt lat="43.61945" lon="2.24971">
        <ele>178</ele>
        <time>2025-09-16T16:39:51Z</time>
      </trkpt>
      <trkpt lat="43.61945" lon="2.24965">
        <ele>178</ele>
        <time>2025-09-16T16:39:52Z</time>
      </trkpt>
      <trkpt lat="43.61946" lon="2.24959">
        <ele>178</ele>
        <time>2025-09-16T16:39:53Z</time>
      </trkpt>
      <trkpt lat="43.61946" lon="2.24952">
        <ele>178</ele>
        <time>2025-09-16T16:39:54Z</time>
      </trkpt>
      <trkpt lat="43.61947" lon="2.24946">
        <ele>178</ele>
        <time>2025-09-16T16:39:55Z</time>
      </trkpt>
      <trkpt lat="43.61948" lon="2.2494">
        <ele>178</ele>
        <time>2025-09-16T16:39:56Z</time>
      </trkpt>
      <trkpt lat="43.61949" lon="2.24934">
        <ele>178</ele>
        <time>2025-09-16T16:39:57Z</time>
      </trkpt>
      <trkpt lat="43.6195" lon="2.24928">
        <ele>178</ele>
        <time>2025-09-16T16:39:58Z</time>
      </trkpt>
      <trkpt lat="43.6195" lon="2.24922">
        <ele>178</ele>
        <time>2025-09-16T16:39:59Z</time>
      </trkpt>
      <trkpt lat="43.61951" lon="2.24916">
        <ele>178</ele>
        <time>2025-09-16T16:40:00Z</time>
      </trkpt>
      <trkpt lat="43.61952" lon="2.24909">
        <ele>178</ele>
        <time>2025-09-16T16:40:01Z</time>
      </trkpt>
      <trkpt lat="43.61952" lon="2.24903">
        <ele>177.8</ele>
        <time>2025-09-16T16:40:02Z</time>
      </trkpt>
      <trkpt lat="43.61952" lon="2.24897">
        <ele>177.8</ele>
        <time>2025-09-16T16:40:03Z</time>
      </trkpt>
      <trkpt lat="43.61952" lon="2.2489">
        <ele>177.8</ele>
        <time>2025-09-16T16:40:04Z</time>
      </trkpt>
      <trkpt lat="43.61952" lon="2.24884">
        <ele>177.8</ele>
        <time>2025-09-16T16:40:05Z</time>
      </trkpt>
      <trkpt lat="43.61953" lon="2.24877">
        <ele>177.8</ele>
        <time>2025-09-16T16:40:06Z</time>
      </trkpt>
      <trkpt lat="43.61953" lon="2.24871">
        <ele>177.8</ele>
        <time>2025-09-16T16:40:07Z</time>
      </trkpt>
      <trkpt lat="43.61954" lon="2.24865">
        <ele>177.8</ele>
        <time>2025-09-16T16:40:08Z</time>
      </trkpt>
      <trkpt lat="43.61955" lon="2.24859">
        <ele>177.6</ele>
        <time>2025-09-16T16:40:09Z</time>
      </trkpt>
      <trkpt lat="43.61956" lon="2.24853">
        <ele>177.6</ele>
        <time>2025-09-16T16:40:10Z</time>
      </trkpt>
      <trkpt lat="43.61957" lon="2.24847">
        <ele>177.6</ele>
        <time>2025-09-16T16:40:11Z</time>
      </trkpt>
      <trkpt lat="43.61958" lon="2.24841">
        <ele>177.6</ele>
        <time>2025-09-16T16:40:12Z</time>
      </trkpt>
      <trkpt lat="43.61959" lon="2.24836">
        <ele>177.6</ele>
        <time>2025-09-16T16:40:13Z</time>
      </trkpt>
      <trkpt lat="43.6196" lon="2.2483">
        <ele>177.6</ele>
        <time>2025-09-16T16:40:14Z</time>
      </trkpt>
      <trkpt lat="43.61961" lon="2.24825">
        <ele>177.6</ele>
        <time>2025-09-16T16:40:15Z</time>
      </trkpt>
      <trkpt lat="43.61961" lon="2.24819">
        <ele>177.6</ele>
        <time>2025-09-16T16:40:16Z</time>
      </trkpt>
      <trkpt lat="43.61962" lon="2.24813">
        <ele>177.6</ele>
        <time>2025-09-16T16:40:17Z</time>
      </trkpt>
      <trkpt lat="43.61962" lon="2.24807">
        <ele>177.6</ele>
        <time>2025-09-16T16:40:18Z</time>
      </trkpt>
      <trkpt lat="43.61962" lon="2.24802">
        <ele>177.6</ele>
        <time>2025-09-16T16:40:19Z</time>
      </trkpt>
      <trkpt lat="43.61962" lon="2.24796">
        <ele>177.8</ele>
        <time>2025-09-16T16:40:20Z</time>
      </trkpt>
      <trkpt lat="43.61961" lon="2.24791">
        <ele>177.8</ele>
        <time>2025-09-16T16:40:21Z</time>
      </trkpt>
      <trkpt lat="43.61961" lon="2.24786">
        <ele>177.8</ele>
        <time>2025-09-16T16:40:22Z</time>
      </trkpt>
      <trkpt lat="43.61961" lon="2.24781">
        <ele>177.8</ele>
        <time>2025-09-16T16:40:23Z</time>
      </trkpt>
      <trkpt lat="43.61963" lon="2.24778">
        <ele>178</ele>
        <time>2025-09-16T16:40:24Z</time>
      </trkpt>
      <trkpt lat="43.61965" lon="2.24774">
        <ele>177.8</ele>
        <time>2025-09-16T16:40:25Z</time>
      </trkpt>
      <trkpt lat="43.61966" lon="2.24769">
        <ele>177.8</ele>
        <time>2025-09-16T16:40:26Z</time>
      </trkpt>
      <trkpt lat="43.61967" lon="2.24764">
        <ele>177.8</ele>
        <time>2025-09-16T16:40:27Z</time>
      </trkpt>
      <trkpt lat="43.61968" lon="2.24759">
        <ele>177.8</ele>
        <time>2025-09-16T16:40:28Z</time>
      </trkpt>
      <trkpt lat="43.61969" lon="2.24753">
        <ele>177.8</ele>
        <time>2025-09-16T16:40:29Z</time>
      </trkpt>
      <trkpt lat="43.6197" lon="2.24748">
        <ele>177.8</ele>
        <time>2025-09-16T16:40:30Z</time>
      </trkpt>
      <trkpt lat="43.6197" lon="2.24743">
        <ele>177.8</ele>
        <time>2025-09-16T16:40:31Z</time>
      </trkpt>
      <trkpt lat="43.61969" lon="2.24738">
        <ele>177.8</ele>
        <time>2025-09-16T16:40:32Z</time>
      </trkpt>
      <trkpt lat="43.61967" lon="2.24733">
        <ele>177.8</ele>
        <time>2025-09-16T16:40:33Z</time>
      </trkpt>
      <trkpt lat="43.61965" lon="2.24729">
        <ele>177.8</ele>
        <time>2025-09-16T16:40:34Z</time>
      </trkpt>
      <trkpt lat="43.61962" lon="2.24724">
        <ele>177.8</ele>
        <time>2025-09-16T16:40:35Z</time>
      </trkpt>
      <trkpt lat="43.61959" lon="2.2472">
        <ele>177.8</ele>
        <time>2025-09-16T16:40:36Z</time>
      </trkpt>
      <trkpt lat="43.61956" lon="2.24717">
        <ele>177.8</ele>
        <time>2025-09-16T16:40:37Z</time>
      </trkpt>
      <trkpt lat="43.61952" lon="2.24713">
        <ele>177.8</ele>
        <time>2025-09-16T16:40:38Z</time>
      </trkpt>
      <trkpt lat="43.61949" lon="2.24709">
        <ele>177.8</ele>
        <time>2025-09-16T16:40:39Z</time>
      </trkpt>
      <trkpt lat="43.61946" lon="2.24705">
        <ele>177.6</ele>
        <time>2025-09-16T16:40:40Z</time>
      </trkpt>
      <trkpt lat="43.61943" lon="2.247">
        <ele>177.6</ele>
        <time>2025-09-16T16:40:41Z</time>
      </trkpt>
      <trkpt lat="43.6194" lon="2.24696">
        <ele>177.6</ele>
        <time>2025-09-16T16:40:42Z</time>
      </trkpt>
      <trkpt lat="43.61937" lon="2.24692">
        <ele>177.4</ele>
        <time>2025-09-16T16:40:43Z</time>
      </trkpt>
      <trkpt lat="43.61933" lon="2.24688">
        <ele>177.4</ele>
        <time>2025-09-16T16:40:44Z</time>
      </trkpt>
      <trkpt lat="43.6193" lon="2.24684">
        <ele>177.2</ele>
        <time>2025-09-16T16:40:45Z</time>
      </trkpt>
      <trkpt lat="43.61926" lon="2.2468">
        <ele>177.2</ele>
        <time>2025-09-16T16:40:46Z</time>
      </trkpt>
      <trkpt lat="43.61923" lon="2.24676">
        <ele>177</ele>
        <time>2025-09-16T16:40:47Z</time>
      </trkpt>
      <trkpt lat="43.6192" lon="2.24671">
        <ele>177</ele>
        <time>2025-09-16T16:40:48Z</time>
      </trkpt>
      <trkpt lat="43.61916" lon="2.24667">
        <ele>176.8</ele>
        <time>2025-09-16T16:40:49Z</time>
      </trkpt>
      <trkpt lat="43.61913" lon="2.24662">
        <ele>176.8</ele>
        <time>2025-09-16T16:40:50Z</time>
      </trkpt>
      <trkpt lat="43.61909" lon="2.24657">
        <ele>176.6</ele>
        <time>2025-09-16T16:40:51Z</time>
      </trkpt>
      <trkpt lat="43.61905" lon="2.24653">
        <ele>176.6</ele>
        <time>2025-09-16T16:40:52Z</time>
      </trkpt>
      <trkpt lat="43.61902" lon="2.24648">
        <ele>176.6</ele>
        <time>2025-09-16T16:40:53Z</time>
      </trkpt>
      <trkpt lat="43.61898" lon="2.24645">
        <ele>176.4</ele>
        <time>2025-09-16T16:40:54Z</time>
      </trkpt>
      <trkpt lat="43.61895" lon="2.24641">
        <ele>176.4</ele>
        <time>2025-09-16T16:40:55Z</time>
      </trkpt>
      <trkpt lat="43.61891" lon="2.24636">
        <ele>176.4</ele>
        <time>2025-09-16T16:40:56Z</time>
      </trkpt>
      <trkpt lat="43.61888" lon="2.24631">
        <ele>176.4</ele>
        <time>2025-09-16T16:40:57Z</time>
      </trkpt>
      <trkpt lat="43.61885" lon="2.24626">
        <ele>176.2</ele>
        <time>2025-09-16T16:40:58Z</time>
      </trkpt>
      <trkpt lat="43.61882" lon="2.24619">
        <ele>176.2</ele>
        <time>2025-09-16T16:40:59Z</time>
      </trkpt>
      <trkpt lat="43.61879" lon="2.24613">
        <ele>176</ele>
        <time>2025-09-16T16:41:00Z</time>
      </trkpt>
      <trkpt lat="43.61877" lon="2.24606">
        <ele>175.6</ele>
        <time>2025-09-16T16:41:01Z</time>
      </trkpt>
      <trkpt lat="43.61875" lon="2.24599">
        <ele>175.4</ele>
        <time>2025-09-16T16:41:02Z</time>
      </trkpt>
      <trkpt lat="43.61873" lon="2.24591">
        <ele>175</ele>
        <time>2025-09-16T16:41:03Z</time>
      </trkpt>
      <trkpt lat="43.61871" lon="2.24584">
        <ele>174.6</ele>
        <time>2025-09-16T16:41:04Z</time>
      </trkpt>
      <trkpt lat="43.61869" lon="2.24576">
        <ele>174.4</ele>
        <time>2025-09-16T16:41:05Z</time>
      </trkpt>
      <trkpt lat="43.61867" lon="2.24568">
        <ele>174</ele>
        <time>2025-09-16T16:41:06Z</time>
      </trkpt>
      <trkpt lat="43.61866" lon="2.24559">
        <ele>173.8</ele>
        <time>2025-09-16T16:41:07Z</time>
      </trkpt>
      <trkpt lat="43.61864" lon="2.24551">
        <ele>173.4</ele>
        <time>2025-09-16T16:41:08Z</time>
      </trkpt>
      <trkpt lat="43.61862" lon="2.24544">
        <ele>173</ele>
        <time>2025-09-16T16:41:09Z</time>
      </trkpt>
      <trkpt lat="43.6186" lon="2.24536">
        <ele>172.8</ele>
        <time>2025-09-16T16:41:10Z</time>
      </trkpt>
      <trkpt lat="43.61858" lon="2.2453">
        <ele>172.6</ele>
        <time>2025-09-16T16:41:11Z</time>
      </trkpt>
      <trkpt lat="43.61855" lon="2.24524">
        <ele>172.8</ele>
        <time>2025-09-16T16:41:12Z</time>
      </trkpt>
      <trkpt lat="43.61853" lon="2.24519">
        <ele>172.8</ele>
        <time>2025-09-16T16:41:13Z</time>
      </trkpt>
      <trkpt lat="43.6185" lon="2.24514">
        <ele>173</ele>
        <time>2025-09-16T16:41:14Z</time>
      </trkpt>
      <trkpt lat="43.61847" lon="2.24509">
        <ele>173.2</ele>
        <time>2025-09-16T16:41:15Z</time>
      </trkpt>
      <trkpt lat="43.61844" lon="2.24504">
        <ele>173.2</ele>
        <time>2025-09-16T16:41:16Z</time>
      </trkpt>
      <trkpt lat="43.6184" lon="2.24499">
        <ele>173.2</ele>
        <time>2025-09-16T16:41:17Z</time>
      </trkpt>
      <trkpt lat="43.61837" lon="2.24494">
        <ele>173.2</ele>
        <time>2025-09-16T16:41:18Z</time>
      </trkpt>
      <trkpt lat="43.61833" lon="2.2449">
        <ele>173.4</ele>
        <time>2025-09-16T16:41:19Z</time>
      </trkpt>
      <trkpt lat="43.61829" lon="2.24485">
        <ele>173.2</ele>
        <time>2025-09-16T16:41:20Z</time>
      </trkpt>
      <trkpt lat="43.61825" lon="2.24482">
        <ele>173.2</ele>
        <time>2025-09-16T16:41:21Z</time>
      </trkpt>
      <trkpt lat="43.6182" lon="2.24478">
        <ele>173.2</ele>
        <time>2025-09-16T16:41:22Z</time>
      </trkpt>
      <trkpt lat="43.61816" lon="2.24475">
        <ele>173</ele>
        <time>2025-09-16T16:41:23Z</time>
      </trkpt>
      <trkpt lat="43.61812" lon="2.24472">
        <ele>173</ele>
        <time>2025-09-16T16:41:24Z</time>
      </trkpt>
      <trkpt lat="43.61808" lon="2.24469">
        <ele>172.8</ele>
        <time>2025-09-16T16:41:25Z</time>
      </trkpt>
      <trkpt lat="43.61803" lon="2.24466">
        <ele>172.8</ele>
        <time>2025-09-16T16:41:26Z</time>
      </trkpt>
      <trkpt lat="43.61799" lon="2.24463">
        <ele>172.6</ele>
        <time>2025-09-16T16:41:27Z</time>
      </trkpt>
      <trkpt lat="43.61795" lon="2.2446">
        <ele>172.6</ele>
        <time>2025-09-16T16:41:28Z</time>
      </trkpt>
      <trkpt lat="43.61791" lon="2.24456">
        <ele>172.4</ele>
        <time>2025-09-16T16:41:29Z</time>
      </trkpt>
      <trkpt lat="43.61786" lon="2.24453">
        <ele>172.4</ele>
        <time>2025-09-16T16:41:30Z</time>
      </trkpt>
      <trkpt lat="43.61781" lon="2.2445">
        <ele>172.4</ele>
        <time>2025-09-16T16:41:31Z</time>
      </trkpt>
      <trkpt lat="43.61776" lon="2.24447">
        <ele>172.2</ele>
        <time>2025-09-16T16:41:32Z</time>
      </trkpt>
      <trkpt lat="43.61771" lon="2.24443">
        <ele>172.2</ele>
        <time>2025-09-16T16:41:33Z</time>
      </trkpt>
      <trkpt lat="43.61766" lon="2.2444">
        <ele>172.2</ele>
        <time>2025-09-16T16:41:34Z</time>
      </trkpt>
      <trkpt lat="43.61761" lon="2.24437">
        <ele>172.2</ele>
        <time>2025-09-16T16:41:35Z</time>
      </trkpt>
      <trkpt lat="43.61756" lon="2.24434">
        <ele>172</ele>
        <time>2025-09-16T16:41:36Z</time>
      </trkpt>
      <trkpt lat="43.61751" lon="2.24431">
        <ele>172</ele>
        <time>2025-09-16T16:41:37Z</time>
      </trkpt>
      <trkpt lat="43.61746" lon="2.24429">
        <ele>171.8</ele>
        <time>2025-09-16T16:41:38Z</time>
      </trkpt>
      <trkpt lat="43.6174" lon="2.24427">
        <ele>171.8</ele>
        <time>2025-09-16T16:41:39Z</time>
      </trkpt>
      <trkpt lat="43.61735" lon="2.24426">
        <ele>171.8</ele>
        <time>2025-09-16T16:41:40Z</time>
      </trkpt>
      <trkpt lat="43.61729" lon="2.24425">
        <ele>171.8</ele>
        <time>2025-09-16T16:41:41Z</time>
      </trkpt>
      <trkpt lat="43.61724" lon="2.24425">
        <ele>171.8</ele>
        <time>2025-09-16T16:41:42Z</time>
      </trkpt>
      <trkpt lat="43.61719" lon="2.24425">
        <ele>171.8</ele>
        <time>2025-09-16T16:41:43Z</time>
      </trkpt>
      <trkpt lat="43.61713" lon="2.24426">
        <ele>172</ele>
        <time>2025-09-16T16:41:44Z</time>
      </trkpt>
      <trkpt lat="43.61708" lon="2.24427">
        <ele>172</ele>
        <time>2025-09-16T16:41:45Z</time>
      </trkpt>
      <trkpt lat="43.61703" lon="2.24428">
        <ele>172.2</ele>
        <time>2025-09-16T16:41:46Z</time>
      </trkpt>
      <trkpt lat="43.61698" lon="2.24428">
        <ele>172.2</ele>
        <time>2025-09-16T16:41:47Z</time>
      </trkpt>
      <trkpt lat="43.61694" lon="2.24428">
        <ele>172.2</ele>
        <time>2025-09-16T16:41:48Z</time>
      </trkpt>
      <trkpt lat="43.61689" lon="2.24429">
        <ele>172.4</ele>
        <time>2025-09-16T16:41:49Z</time>
      </trkpt>
      <trkpt lat="43.61684" lon="2.24429">
        <ele>172.6</ele>
        <time>2025-09-16T16:41:50Z</time>
      </trkpt>
      <trkpt lat="43.6168" lon="2.2443">
        <ele>172.8</ele>
        <time>2025-09-16T16:41:51Z</time>
      </trkpt>
      <trkpt lat="43.61675" lon="2.2443">
        <ele>172.8</ele>
        <time>2025-09-16T16:41:52Z</time>
      </trkpt>
      <trkpt lat="43.61671" lon="2.24431">
        <ele>173</ele>
        <time>2025-09-16T16:41:53Z</time>
      </trkpt>
      <trkpt lat="43.61667" lon="2.24431">
        <ele>173</ele>
        <time>2025-09-16T16:41:54Z</time>
      </trkpt>
      <trkpt lat="43.61662" lon="2.24431">
        <ele>173.2</ele>
        <time>2025-09-16T16:41:55Z</time>
      </trkpt>
      <trkpt lat="43.61658" lon="2.24431">
        <ele>173.2</ele>
        <time>2025-09-16T16:41:56Z</time>
      </trkpt>
      <trkpt lat="43.61654" lon="2.24431">
        <ele>173.4</ele>
        <time>2025-09-16T16:41:57Z</time>
      </trkpt>
      <trkpt lat="43.61649" lon="2.2443">
        <ele>173.4</ele>
        <time>2025-09-16T16:41:58Z</time>
      </trkpt>
      <trkpt lat="43.61645" lon="2.2443">
        <ele>173.6</ele>
        <time>2025-09-16T16:41:59Z</time>
      </trkpt>
      <trkpt lat="43.61641" lon="2.2443">
        <ele>173.6</ele>
        <time>2025-09-16T16:42:00Z</time>
      </trkpt>
      <trkpt lat="43.61637" lon="2.24429">
        <ele>173.8</ele>
        <time>2025-09-16T16:42:01Z</time>
      </trkpt>
      <trkpt lat="43.61633" lon="2.24429">
        <ele>173.8</ele>
        <time>2025-09-16T16:42:02Z</time>
      </trkpt>
      <trkpt lat="43.61631" lon="2.24427">
        <ele>174</ele>
        <time>2025-09-16T16:42:03Z</time>
      </trkpt>
      <trkpt lat="43.61628" lon="2.24426">
        <ele>174.2</ele>
        <time>2025-09-16T16:42:04Z</time>
      </trkpt>
      <trkpt lat="43.61624" lon="2.24425">
        <ele>174.2</ele>
        <time>2025-09-16T16:42:05Z</time>
      </trkpt>
      <trkpt lat="43.61621" lon="2.24424">
        <ele>174.2</ele>
        <time>2025-09-16T16:42:06Z</time>
      </trkpt>
      <trkpt lat="43.61617" lon="2.24423">
        <ele>174.2</ele>
        <time>2025-09-16T16:42:07Z</time>
      </trkpt>
      <trkpt lat="43.61613" lon="2.24422">
        <ele>174.2</ele>
        <time>2025-09-16T16:42:08Z</time>
      </trkpt>
      <trkpt lat="43.61609" lon="2.2442">
        <ele>174.2</ele>
        <time>2025-09-16T16:42:09Z</time>
      </trkpt>
      <trkpt lat="43.61606" lon="2.2442">
        <ele>174.2</ele>
        <time>2025-09-16T16:42:10Z</time>
      </trkpt>
      <trkpt lat="43.61602" lon="2.24418">
        <ele>174.2</ele>
        <time>2025-09-16T16:42:11Z</time>
      </trkpt>
      <trkpt lat="43.61598" lon="2.24417">
        <ele>174.2</ele>
        <time>2025-09-16T16:42:12Z</time>
      </trkpt>
      <trkpt lat="43.61594" lon="2.24416">
        <ele>174.4</ele>
        <time>2025-09-16T16:42:13Z</time>
      </trkpt>
      <trkpt lat="43.6159" lon="2.24415">
        <ele>174.4</ele>
        <time>2025-09-16T16:42:14Z</time>
      </trkpt>
      <trkpt lat="43.61586" lon="2.24414">
        <ele>174.4</ele>
        <time>2025-09-16T16:42:15Z</time>
      </trkpt>
      <trkpt lat="43.61582" lon="2.24413">
        <ele>174.4</ele>
        <time>2025-09-16T16:42:16Z</time>
      </trkpt>
      <trkpt lat="43.61578" lon="2.24412">
        <ele>174.6</ele>
        <time>2025-09-16T16:42:17Z</time>
      </trkpt>
      <trkpt lat="43.61574" lon="2.24411">
        <ele>174.6</ele>
        <time>2025-09-16T16:42:18Z</time>
      </trkpt>
      <trkpt lat="43.6157" lon="2.2441">
        <ele>174.6</ele>
        <time>2025-09-16T16:42:19Z</time>
      </trkpt>
      <trkpt lat="43.61567" lon="2.24409">
        <ele>174.6</ele>
        <time>2025-09-16T16:42:20Z</time>
      </trkpt>
      <trkpt lat="43.61563" lon="2.24408">
        <ele>174.8</ele>
        <time>2025-09-16T16:42:21Z</time>
      </trkpt>
      <trkpt lat="43.61559" lon="2.24407">
        <ele>174.8</ele>
        <time>2025-09-16T16:42:22Z</time>
      </trkpt>
      <trkpt lat="43.61555" lon="2.24406">
        <ele>174.8</ele>
        <time>2025-09-16T16:42:23Z</time>
      </trkpt>
      <trkpt lat="43.61551" lon="2.24405">
        <ele>174.8</ele>
        <time>2025-09-16T16:42:24Z</time>
      </trkpt>
      <trkpt lat="43.61547" lon="2.24404">
        <ele>175</ele>
        <time>2025-09-16T16:42:25Z</time>
      </trkpt>
      <trkpt lat="43.61544" lon="2.24403">
        <ele>175</ele>
        <time>2025-09-16T16:42:26Z</time>
      </trkpt>
      <trkpt lat="43.6154" lon="2.24402">
        <ele>175</ele>
        <time>2025-09-16T16:42:27Z</time>
      </trkpt>
      <trkpt lat="43.61537" lon="2.24401">
        <ele>175</ele>
        <time>2025-09-16T16:42:28Z</time>
      </trkpt>
      <trkpt lat="43.61534" lon="2.244">
        <ele>175</ele>
        <time>2025-09-16T16:42:29Z</time>
      </trkpt>
      <trkpt lat="43.61531" lon="2.24399">
        <ele>175.2</ele>
        <time>2025-09-16T16:42:30Z</time>
      </trkpt>
      <trkpt lat="43.61527" lon="2.24398">
        <ele>175.2</ele>
        <time>2025-09-16T16:42:31Z</time>
      </trkpt>
      <trkpt lat="43.61524" lon="2.24398">
        <ele>175.2</ele>
        <time>2025-09-16T16:42:32Z</time>
      </trkpt>
      <trkpt lat="43.61521" lon="2.24397">
        <ele>175.2</ele>
        <time>2025-09-16T16:42:33Z</time>
      </trkpt>
      <trkpt lat="43.61517" lon="2.24396">
        <ele>175.2</ele>
        <time>2025-09-16T16:42:34Z</time>
      </trkpt>
      <trkpt lat="43.61514" lon="2.24396">
        <ele>175.2</ele>
        <time>2025-09-16T16:42:35Z</time>
      </trkpt>
      <trkpt lat="43.6151" lon="2.24395">
        <ele>175.2</ele>
        <time>2025-09-16T16:42:36Z</time>
      </trkpt>
      <trkpt lat="43.61506" lon="2.24395">
        <ele>175.2</ele>
        <time>2025-09-16T16:42:37Z</time>
      </trkpt>
      <trkpt lat="43.61502" lon="2.24395">
        <ele>175.2</ele>
        <time>2025-09-16T16:42:38Z</time>
      </trkpt>
      <trkpt lat="43.61498" lon="2.24395">
        <ele>175.2</ele>
        <time>2025-09-16T16:42:39Z</time>
      </trkpt>
      <trkpt lat="43.61495" lon="2.24395">
        <ele>175.2</ele>
        <time>2025-09-16T16:42:40Z</time>
      </trkpt>
      <trkpt lat="43.61491" lon="2.24394">
        <ele>175.2</ele>
        <time>2025-09-16T16:42:41Z</time>
      </trkpt>
      <trkpt lat="43.61487" lon="2.24393">
        <ele>175</ele>
        <time>2025-09-16T16:42:42Z</time>
      </trkpt>
      <trkpt lat="43.61483" lon="2.24392">
        <ele>175</ele>
        <time>2025-09-16T16:42:43Z</time>
      </trkpt>
      <trkpt lat="43.61479" lon="2.24391">
        <ele>175.2</ele>
        <time>2025-09-16T16:42:44Z</time>
      </trkpt>
      <trkpt lat="43.61475" lon="2.24391">
        <ele>175.2</ele>
        <time>2025-09-16T16:42:45Z</time>
      </trkpt>
      <trkpt lat="43.61471" lon="2.24392">
        <ele>175.2</ele>
        <time>2025-09-16T16:42:46Z</time>
      </trkpt>
      <trkpt lat="43.61467" lon="2.24393">
        <ele>175.2</ele>
        <time>2025-09-16T16:42:47Z</time>
      </trkpt>
      <trkpt lat="43.61463" lon="2.24393">
        <ele>175</ele>
        <time>2025-09-16T16:42:48Z</time>
      </trkpt>
      <trkpt lat="43.61459" lon="2.24394">
        <ele>175</ele>
        <time>2025-09-16T16:42:49Z</time>
      </trkpt>
      <trkpt lat="43.61455" lon="2.24394">
        <ele>174.8</ele>
        <time>2025-09-16T16:42:50Z</time>
      </trkpt>
      <trkpt lat="43.61451" lon="2.24393">
        <ele>174.8</ele>
        <time>2025-09-16T16:42:51Z</time>
      </trkpt>
      <trkpt lat="43.61447" lon="2.24394">
        <ele>174.8</ele>
        <time>2025-09-16T16:42:52Z</time>
      </trkpt>
      <trkpt lat="43.61442" lon="2.24395">
        <ele>174.8</ele>
        <time>2025-09-16T16:42:53Z</time>
      </trkpt>
      <trkpt lat="43.61438" lon="2.24396">
        <ele>174.8</ele>
        <time>2025-09-16T16:42:54Z</time>
      </trkpt>
      <trkpt lat="43.61434" lon="2.24397">
        <ele>174.6</ele>
        <time>2025-09-16T16:42:55Z</time>
      </trkpt>
      <trkpt lat="43.61429" lon="2.24398">
        <ele>174.6</ele>
        <time>2025-09-16T16:42:56Z</time>
      </trkpt>
      <trkpt lat="43.61424" lon="2.244">
        <ele>174.6</ele>
        <time>2025-09-16T16:42:57Z</time>
      </trkpt>
      <trkpt lat="43.6142" lon="2.24402">
        <ele>174.4</ele>
        <time>2025-09-16T16:42:58Z</time>
      </trkpt>
      <trkpt lat="43.61415" lon="2.24403">
        <ele>174.4</ele>
        <time>2025-09-16T16:42:59Z</time>
      </trkpt>
      <trkpt lat="43.6141" lon="2.24405">
        <ele>174.2</ele>
        <time>2025-09-16T16:43:00Z</time>
      </trkpt>
      <trkpt lat="43.61406" lon="2.24406">
        <ele>174.2</ele>
        <time>2025-09-16T16:43:01Z</time>
      </trkpt>
      <trkpt lat="43.61401" lon="2.24408">
        <ele>174</ele>
        <time>2025-09-16T16:43:02Z</time>
      </trkpt>
      <trkpt lat="43.61396" lon="2.2441">
        <ele>174</ele>
        <time>2025-09-16T16:43:03Z</time>
      </trkpt>
      <trkpt lat="43.61392" lon="2.24412">
        <ele>173.8</ele>
        <time>2025-09-16T16:43:04Z</time>
      </trkpt>
      <trkpt lat="43.61387" lon="2.24414">
        <ele>173.8</ele>
        <time>2025-09-16T16:43:05Z</time>
      </trkpt>
      <trkpt lat="43.61383" lon="2.24416">
        <ele>173.6</ele>
        <time>2025-09-16T16:43:06Z</time>
      </trkpt>
      <trkpt lat="43.61378" lon="2.24417">
        <ele>173.6</ele>
        <time>2025-09-16T16:43:07Z</time>
      </trkpt>
      <trkpt lat="43.61373" lon="2.24419">
        <ele>173.6</ele>
        <time>2025-09-16T16:43:08Z</time>
      </trkpt>
      <trkpt lat="43.61369" lon="2.24421">
        <ele>173.4</ele>
        <time>2025-09-16T16:43:09Z</time>
      </trkpt>
      <trkpt lat="43.61364" lon="2.24423">
        <ele>173.4</ele>
        <time>2025-09-16T16:43:10Z</time>
      </trkpt>
      <trkpt lat="43.6136" lon="2.24424">
        <ele>173.4</ele>
        <time>2025-09-16T16:43:11Z</time>
      </trkpt>
      <trkpt lat="43.61356" lon="2.24425">
        <ele>173.4</ele>
        <time>2025-09-16T16:43:12Z</time>
      </trkpt>
      <trkpt lat="43.61353" lon="2.24427">
        <ele>173.4</ele>
        <time>2025-09-16T16:43:13Z</time>
      </trkpt>
      <trkpt lat="43.6135" lon="2.24428">
        <ele>173.4</ele>
        <time>2025-09-16T16:43:14Z</time>
      </trkpt>
      <trkpt lat="43.61348" lon="2.24428">
        <ele>173.4</ele>
        <time>2025-09-16T16:43:15Z</time>
      </trkpt>
      <trkpt lat="43.61346" lon="2.24427">
        <ele>173.4</ele>
        <time>2025-09-16T16:43:16Z</time>
      </trkpt>
      <trkpt lat="43.61345" lon="2.24426">
        <ele>173.6</ele>
        <time>2025-09-16T16:43:17Z</time>
      </trkpt>
      <trkpt lat="43.61344" lon="2.24425">
        <ele>173.6</ele>
        <time>2025-09-16T16:43:18Z</time>
      </trkpt>
      <trkpt lat="43.61344" lon="2.24425">
        <ele>173.6</ele>
        <time>2025-09-16T16:43:19Z</time>
      </trkpt>
      <trkpt lat="43.61344" lon="2.24419">
        <ele>173.4</ele>
        <time>2025-09-16T16:44:23Z</time>
      </trkpt>
      <trkpt lat="43.61344" lon="2.24417">
        <ele>173.2</ele>
        <time>2025-09-16T16:44:24Z</time>
      </trkpt>
      <trkpt lat="43.61344" lon="2.24415">
        <ele>173.4</ele>
        <time>2025-09-16T16:44:25Z</time>
      </trkpt>
      <trkpt lat="43.61344" lon="2.24412">
        <ele>173.6</ele>
        <time>2025-09-16T16:44:26Z</time>
      </trkpt>
      <trkpt lat="43.61343" lon="2.2441">
        <ele>173.8</ele>
        <time>2025-09-16T16:44:27Z</time>
      </trkpt>
      <trkpt lat="43.61342" lon="2.24408">
        <ele>174</ele>
        <time>2025-09-16T16:44:28Z</time>
      </trkpt>
      <trkpt lat="43.61342" lon="2.24406">
        <ele>174.4</ele>
        <time>2025-09-16T16:44:29Z</time>
      </trkpt>
      <trkpt lat="43.61341" lon="2.24404">
        <ele>174.6</ele>
        <time>2025-09-16T16:44:30Z</time>
      </trkpt>
      <trkpt lat="43.61341" lon="2.24402">
        <ele>175</ele>
        <time>2025-09-16T16:44:31Z</time>
      </trkpt>
      <trkpt lat="43.61341" lon="2.244">
        <ele>175.2</ele>
        <time>2025-09-16T16:44:32Z</time>
      </trkpt>
      <trkpt lat="43.61341" lon="2.24397">
        <ele>175.4</ele>
        <time>2025-09-16T16:44:33Z</time>
      </trkpt>
      <trkpt lat="43.61341" lon="2.24395">
        <ele>175.8</ele>
        <time>2025-09-16T16:44:34Z</time>
      </trkpt>
      <trkpt lat="43.61341" lon="2.24393">
        <ele>176</ele>
        <time>2025-09-16T16:44:35Z</time>
      </trkpt>
      <trkpt lat="43.61341" lon="2.24391">
        <ele>176.4</ele>
        <time>2025-09-16T16:44:36Z</time>
      </trkpt>
      <trkpt lat="43.61341" lon="2.24389">
        <ele>176.6</ele>
        <time>2025-09-16T16:44:37Z</time>
      </trkpt>
      <trkpt lat="43.61341" lon="2.24387">
        <ele>176.8</ele>
        <time>2025-09-16T16:44:38Z</time>
      </trkpt>
      <trkpt lat="43.61342" lon="2.24385">
        <ele>177</ele>
        <time>2025-09-16T16:44:39Z</time>
      </trkpt>
      <trkpt lat="43.61342" lon="2.24383">
        <ele>177.2</ele>
        <time>2025-09-16T16:44:40Z</time>
      </trkpt>
      <trkpt lat="43.61342" lon="2.24381">
        <ele>177.6</ele>
        <time>2025-09-16T16:44:41Z</time>
      </trkpt>
      <trkpt lat="43.61342" lon="2.24379">
        <ele>177.8</ele>
        <time>2025-09-16T16:44:42Z</time>
      </trkpt>
      <trkpt lat="43.61342" lon="2.24377">
        <ele>178</ele>
        <time>2025-09-16T16:44:43Z</time>
      </trkpt>
      <trkpt lat="43.61342" lon="2.24375">
        <ele>178.2</ele>
        <time>2025-09-16T16:44:44Z</time>
      </trkpt>
      <trkpt lat="43.61342" lon="2.24374">
        <ele>178.2</ele>
        <time>2025-09-16T16:44:45Z</time>
      </trkpt>
      <trkpt lat="43.61343" lon="2.24373">
        <ele>178.4</ele>
        <time>2025-09-16T16:44:46Z</time>
      </trkpt>
      <trkpt lat="43.61343" lon="2.24373">
        <ele>178.4</ele>
        <time>2025-09-16T16:44:47Z</time>
      </trkpt>
    </trkseg>
  </trk>
</gpx>